<?xml version='1.0' encoding='UTF-8'?><gpx version="1.1" creator="JPX - https://github.com/jenetics/jpx" xmlns="http://www.topografix.com/GPX/1/1"><trk><trkseg><trkpt lat="42.35374585652098" lon="13.40242381354955"><ele>735.0</ele><time>2026-05-03T07:04:48Z</time></trkpt><trkpt lat="42.35373903880849" lon="13.402330442306244"><ele>735.0</ele><time>2026-05-03T07:04:54Z</time></trkpt><trkpt lat="42.353714569602246" lon="13.402233090427519"><ele>735.0</ele><time>2026-05-03T07:05:07Z</time></trkpt><trkpt lat="42.3537222599302" lon="13.402146925072525"><ele>735.0</ele><time>2026-05-03T07:05:53.999Z</time></trkpt><trkpt lat="42.35371239969112" lon="13.40199630269139"><ele>735.0</ele><time>2026-05-03T07:05:56.999Z</time></trkpt><trkpt lat="42.35371183071022" lon="13.401868216673613"><ele>735.0</ele><time>2026-05-03T07:05:58.999Z</time></trkpt><trkpt lat="42.35374928340129" lon="13.40175227738749"><ele>734.8333333333334</ele><time>2026-05-03T07:06:00.999Z</time></trkpt><trkpt lat="42.35378917767265" lon="13.40167067728707"><ele>734.6666666666666</ele><time>2026-05-03T07:06:01.999Z</time></trkpt><trkpt lat="42.35385219370708" lon="13.401612104385064"><ele>734.5</ele><time>2026-05-03T07:06:02.999Z</time></trkpt><trkpt lat="42.35392685841578" lon="13.401602456808636"><ele>734.3333333333333</ele><time>2026-05-03T07:06:03.999Z</time></trkpt><trkpt lat="42.354005432755024" lon="13.401632850134392"><ele>734.1666666666666</ele><time>2026-05-03T07:06:04.999Z</time></trkpt><trkpt lat="42.354073285512236" lon="13.401713478990937"><ele>734.0</ele><time>2026-05-03T07:06:05.999Z</time></trkpt><trkpt lat="42.354136120771706" lon="13.401811756435283"><ele>733.4000000000001</ele><time>2026-05-03T07:06:06.999Z</time></trkpt><trkpt lat="42.35420310326281" lon="13.401916505910455"><ele>732.8</ele><time>2026-05-03T07:06:07.999Z</time></trkpt><trkpt lat="42.35428232672666" lon="13.402022274759547"><ele>732.2</ele><time>2026-05-03T07:06:08.999Z</time></trkpt><trkpt lat="42.3543661463977" lon="13.402130824430657"><ele>731.5999999999999</ele><time>2026-05-03T07:06:09.999Z</time></trkpt><trkpt lat="42.35445318245856" lon="13.402232663205753"><ele>731.0</ele><time>2026-05-03T07:06:10.999Z</time></trkpt><trkpt lat="42.354555349464434" lon="13.402350994932862"><ele>731.0</ele><time>2026-05-03T07:06:11.999Z</time></trkpt><trkpt lat="42.35467259060874" lon="13.40249133284453"><ele>731.0</ele><time>2026-05-03T07:06:12.999Z</time></trkpt><trkpt lat="42.35477523807037" lon="13.402626922192203"><ele>731.0</ele><time>2026-05-03T07:06:13.999Z</time></trkpt><trkpt lat="42.354860369347286" lon="13.40276029699484"><ele>731.0</ele><time>2026-05-03T07:06:14.999Z</time></trkpt><trkpt lat="42.35497812766607" lon="13.402853267646401"><ele>729.0</ele><time>2026-05-03T07:06:15.999Z</time></trkpt><trkpt lat="42.35505632358837" lon="13.402982431412227"><ele>727.0</ele><time>2026-05-03T07:06:16.999Z</time></trkpt><trkpt lat="42.355140007881204" lon="13.40310071595542"><ele>725.0</ele><time>2026-05-03T07:06:17.999Z</time></trkpt><trkpt lat="42.35519866315746" lon="13.4032572686804"><ele>723.0</ele><time>2026-05-03T07:06:18.999Z</time></trkpt><trkpt lat="42.35526041134381" lon="13.403396014474291"><ele>723.0</ele><time>2026-05-03T07:06:19.999Z</time></trkpt><trkpt lat="42.355293335392304" lon="13.403549375789838"><ele>723.0</ele><time>2026-05-03T07:06:20.999Z</time></trkpt><trkpt lat="42.35533099008001" lon="13.403708619685814"><ele>723.0</ele><time>2026-05-03T07:06:21.999Z</time></trkpt><trkpt lat="42.3553716902391" lon="13.403869857285564"><ele>723.0</ele><time>2026-05-03T07:06:22.999Z</time></trkpt><trkpt lat="42.35541471900517" lon="13.404032432635324"><ele>724.75</ele><time>2026-05-03T07:06:23.998Z</time></trkpt><trkpt lat="42.355452896422406" lon="13.404202369681649"><ele>726.5</ele><time>2026-05-03T07:06:24.998Z</time></trkpt><trkpt lat="42.355489579517595" lon="13.404374139289793"><ele>728.25</ele><time>2026-05-03T07:06:25.998Z</time></trkpt><trkpt lat="42.355527662611834" lon="13.404549051245107"><ele>730.0</ele><time>2026-05-03T07:06:26.998Z</time></trkpt><trkpt lat="42.35556422779658" lon="13.404724057354356"><ele>725.25</ele><time>2026-05-03T07:06:27.998Z</time></trkpt><trkpt lat="42.35559808564959" lon="13.404894081597268"><ele>720.5</ele><time>2026-05-03T07:06:28.998Z</time></trkpt><trkpt lat="42.35562901884565" lon="13.405060924599315"><ele>715.75</ele><time>2026-05-03T07:06:29.998Z</time></trkpt><trkpt lat="42.35566924085676" lon="13.405216572826832"><ele>711.0</ele><time>2026-05-03T07:06:30.998Z</time></trkpt><trkpt lat="42.35569589085493" lon="13.405373169727394"><ele>711.1999999999999</ele><time>2026-05-03T07:06:31.998Z</time></trkpt><trkpt lat="42.355723161871246" lon="13.40551528052065"><ele>711.4</ele><time>2026-05-03T07:06:32.998Z</time></trkpt><trkpt lat="42.35573123391098" lon="13.40564744257719"><ele>711.6</ele><time>2026-05-03T07:06:33.998Z</time></trkpt><trkpt lat="42.35573889843319" lon="13.405771989526418"><ele>711.8</ele><time>2026-05-03T07:06:34.998Z</time></trkpt><trkpt lat="42.355747869706434" lon="13.405904936796714"><ele>712.0</ele><time>2026-05-03T07:06:35.998Z</time></trkpt><trkpt lat="42.35576878498786" lon="13.406030313259976"><ele>712.0</ele><time>2026-05-03T07:06:36.998Z</time></trkpt><trkpt lat="42.35578649777204" lon="13.40616255630141"><ele>712.0</ele><time>2026-05-03T07:06:37.998Z</time></trkpt><trkpt lat="42.35579154780336" lon="13.406292677267816"><ele>712.0</ele><time>2026-05-03T07:06:38.998Z</time></trkpt><trkpt lat="42.355775712658335" lon="13.40642723062578"><ele>712.0</ele><time>2026-05-03T07:06:40Z</time></trkpt><trkpt lat="42.35573406703814" lon="13.406538934245463"><ele>712.0</ele><time>2026-05-03T07:06:41Z</time></trkpt><trkpt lat="42.35568083064497" lon="13.406635091733932"><ele>712.0</ele><time>2026-05-03T07:06:42Z</time></trkpt><trkpt lat="42.35562747081785" lon="13.406713972565663"><ele>712.0</ele><time>2026-05-03T07:06:43Z</time></trkpt><trkpt lat="42.355566722703266" lon="13.406797866680446"><ele>712.0</ele><time>2026-05-03T07:06:44Z</time></trkpt><trkpt lat="42.35549165138688" lon="13.406869930937512"><ele>712.0</ele><time>2026-05-03T07:06:45Z</time></trkpt><trkpt lat="42.355405945983414" lon="13.406925125767726"><ele>712.0</ele><time>2026-05-03T07:06:46Z</time></trkpt><trkpt lat="42.35532593761273" lon="13.406989160020725"><ele>712.0</ele><time>2026-05-03T07:06:47Z</time></trkpt><trkpt lat="42.355272875250954" lon="13.407082139776621"><ele>712.0</ele><time>2026-05-03T07:06:48Z</time></trkpt><trkpt lat="42.3552295342417" lon="13.407177984724632"><ele>712.0</ele><time>2026-05-03T07:06:49Z</time></trkpt><trkpt lat="42.35517979281478" lon="13.407280930242907"><ele>712.0</ele><time>2026-05-03T07:06:50Z</time></trkpt><trkpt lat="42.35511876204937" lon="13.407393123661146"><ele>712.0</ele><time>2026-05-03T07:06:51Z</time></trkpt><trkpt lat="42.35505308496925" lon="13.407525805924296"><ele>712.0</ele><time>2026-05-03T07:06:52Z</time></trkpt><trkpt lat="42.354991643800254" lon="13.407672644014362"><ele>712.0</ele><time>2026-05-03T07:06:53Z</time></trkpt><trkpt lat="42.35490422034484" lon="13.407831644239712"><ele>712.0</ele><time>2026-05-03T07:06:54Z</time></trkpt><trkpt lat="42.354833282024366" lon="13.408025447179135"><ele>712.0</ele><time>2026-05-03T07:06:55Z</time></trkpt><trkpt lat="42.35473225261626" lon="13.40820678714303"><ele>710.3333333333334</ele><time>2026-05-03T07:06:56Z</time></trkpt><trkpt lat="42.35460727468749" lon="13.408356943730102"><ele>708.6666666666666</ele><time>2026-05-03T07:06:57Z</time></trkpt><trkpt lat="42.354521117562356" lon="13.408526957772194"><ele>707.0</ele><time>2026-05-03T07:06:58Z</time></trkpt><trkpt lat="42.35443487254498" lon="13.408760211850351"><ele>708.75</ele><time>2026-05-03T07:06:59Z</time></trkpt><trkpt lat="42.35434438982765" lon="13.40891725932176"><ele>710.5</ele><time>2026-05-03T07:07:00Z</time></trkpt><trkpt lat="42.354266317832646" lon="13.409049368971253"><ele>712.25</ele><time>2026-05-03T07:07:01Z</time></trkpt><trkpt lat="42.35419745094256" lon="13.409164106036409"><ele>714.0</ele><time>2026-05-03T07:07:02Z</time></trkpt><trkpt lat="42.35413424695879" lon="13.409255740284758"><ele>714.0</ele><time>2026-05-03T07:07:03Z</time></trkpt><trkpt lat="42.3540649848377" lon="13.409350766792803"><ele>714.0</ele><time>2026-05-03T07:07:04Z</time></trkpt><trkpt lat="42.35398284000086" lon="13.409461553699236"><ele>714.0</ele><time>2026-05-03T07:07:05Z</time></trkpt><trkpt lat="42.35389711212772" lon="13.409579282156253"><ele>714.0</ele><time>2026-05-03T07:07:06Z</time></trkpt><trkpt lat="42.353815743757956" lon="13.409690040233155"><ele>713.8000000000001</ele><time>2026-05-03T07:07:07Z</time></trkpt><trkpt lat="42.353741561044224" lon="13.409790331690752"><ele>713.6</ele><time>2026-05-03T07:07:08Z</time></trkpt><trkpt lat="42.35367917481818" lon="13.40988510734348"><ele>713.4</ele><time>2026-05-03T07:07:09Z</time></trkpt><trkpt lat="42.353610879230125" lon="13.409987572187227"><ele>713.2</ele><time>2026-05-03T07:07:09.999Z</time></trkpt><trkpt lat="42.3535478425711" lon="13.410076401407462"><ele>713.0</ele><time>2026-05-03T07:07:10.999Z</time></trkpt><trkpt lat="42.35349024058678" lon="13.41016509764308"><ele>713.0</ele><time>2026-05-03T07:07:11.999Z</time></trkpt><trkpt lat="42.35342296809301" lon="13.41025850003278"><ele>713.0</ele><time>2026-05-03T07:07:12.999Z</time></trkpt><trkpt lat="42.353357070763074" lon="13.41036247770141"><ele>713.0</ele><time>2026-05-03T07:07:13.999Z</time></trkpt><trkpt lat="42.353295362309794" lon="13.410455582760395"><ele>713.0</ele><time>2026-05-03T07:07:14.999Z</time></trkpt><trkpt lat="42.3532298453158" lon="13.410549290291994"><ele>713.0</ele><time>2026-05-03T07:07:15.999Z</time></trkpt><trkpt lat="42.35316747505392" lon="13.410648632344085"><ele>713.2</ele><time>2026-05-03T07:07:16.999Z</time></trkpt><trkpt lat="42.35309902733586" lon="13.410742141034918"><ele>713.4</ele><time>2026-05-03T07:07:17.999Z</time></trkpt><trkpt lat="42.35302957209227" lon="13.410850117494086"><ele>713.6</ele><time>2026-05-03T07:07:18.999Z</time></trkpt><trkpt lat="42.352961115891645" lon="13.410958984890014"><ele>713.8000000000001</ele><time>2026-05-03T07:07:19.999Z</time></trkpt><trkpt lat="42.352892292456296" lon="13.41106248715269"><ele>714.0</ele><time>2026-05-03T07:07:20.999Z</time></trkpt><trkpt lat="42.352814702600824" lon="13.411168590148698"><ele>714.0</ele><time>2026-05-03T07:07:21.999Z</time></trkpt><trkpt lat="42.352740429316384" lon="13.411282135193508"><ele>714.0</ele><time>2026-05-03T07:07:22.999Z</time></trkpt><trkpt lat="42.352677020156484" lon="13.411375915777587"><ele>714.0</ele><time>2026-05-03T07:07:23.999Z</time></trkpt><trkpt lat="42.35262804053675" lon="13.411444255353183"><ele>714.0</ele><time>2026-05-03T07:07:24.999Z</time></trkpt><trkpt lat="42.35255881248729" lon="13.411557900795387"><ele>714.0</ele><time>2026-05-03T07:07:26.999Z</time></trkpt><trkpt lat="42.35251348417798" lon="13.411621758010254"><ele>714.4000000000001</ele><time>2026-05-03T07:07:27.999Z</time></trkpt><trkpt lat="42.35243936933673" lon="13.411720276087525"><ele>714.8</ele><time>2026-05-03T07:07:29.999Z</time></trkpt><trkpt lat="42.35236094163248" lon="13.411851673701369"><ele>715.2</ele><time>2026-05-03T07:07:31.999Z</time></trkpt><trkpt lat="42.352296517982076" lon="13.41189682222488"><ele>715.5999999999999</ele><time>2026-05-03T07:07:32.999Z</time></trkpt><trkpt lat="42.352265526891976" lon="13.412000958957393"><ele>716.0</ele><time>2026-05-03T07:07:33.999Z</time></trkpt><trkpt lat="42.35220638516321" lon="13.412091656178534"><ele>715.8333333333333</ele><time>2026-05-03T07:07:34.999Z</time></trkpt><trkpt lat="42.35215298071837" lon="13.412176511761148"><ele>715.6666666666666</ele><time>2026-05-03T07:07:35.999Z</time></trkpt><trkpt lat="42.35210129727816" lon="13.412256648400884"><ele>715.5</ele><time>2026-05-03T07:07:36.999Z</time></trkpt><trkpt lat="42.35205415887951" lon="13.41234959270863"><ele>715.3333333333334</ele><time>2026-05-03T07:07:37.999Z</time></trkpt><trkpt lat="42.35201724911074" lon="13.412445383862575"><ele>715.1666666666667</ele><time>2026-05-03T07:07:38.999Z</time></trkpt><trkpt lat="42.35198675612037" lon="13.41254531851863"><ele>715.0</ele><time>2026-05-03T07:07:39.999Z</time></trkpt><trkpt lat="42.351971099396316" lon="13.412646557019297"><ele>715.0</ele><time>2026-05-03T07:07:40.999Z</time></trkpt><trkpt lat="42.35197139367929" lon="13.412756740806833"><ele>715.0</ele><time>2026-05-03T07:07:41.999Z</time></trkpt><trkpt lat="42.35198309737719" lon="13.412861881771105"><ele>715.0</ele><time>2026-05-03T07:07:42.999Z</time></trkpt><trkpt lat="42.352008583890445" lon="13.412976100053843"><ele>715.0</ele><time>2026-05-03T07:07:43.999Z</time></trkpt><trkpt lat="42.352040141111075" lon="13.413085422645675"><ele>715.0</ele><time>2026-05-03T07:07:44.999Z</time></trkpt><trkpt lat="42.35208988247245" lon="13.413192606587046"><ele>715.0</ele><time>2026-05-03T07:07:45.999Z</time></trkpt><trkpt lat="42.352144189168015" lon="13.413300265258815"><ele>715.3333333333334</ele><time>2026-05-03T07:07:46.999Z</time></trkpt><trkpt lat="42.352190963827326" lon="13.413402390810353"><ele>715.6666666666667</ele><time>2026-05-03T07:07:47.999Z</time></trkpt><trkpt lat="42.35224143797999" lon="13.413515905047454"><ele>716.0</ele><time>2026-05-03T07:07:48.999Z</time></trkpt><trkpt lat="42.35228927133743" lon="13.413622036945483"><ele>716.3333333333334</ele><time>2026-05-03T07:07:49.999Z</time></trkpt><trkpt lat="42.35232817582667" lon="13.413725187618606"><ele>716.6666666666666</ele><time>2026-05-03T07:07:50.999Z</time></trkpt><trkpt lat="42.35237787977735" lon="13.413799321173016"><ele>717.0</ele><time>2026-05-03T07:07:51.999Z</time></trkpt><trkpt lat="42.35241355895525" lon="13.413899314110123"><ele>717.6</ele><time>2026-05-03T07:07:52.999Z</time></trkpt><trkpt lat="42.35244013438588" lon="13.41400650077718"><ele>718.2</ele><time>2026-05-03T07:07:53.999Z</time></trkpt><trkpt lat="42.35245732219478" lon="13.414111723725332"><ele>718.8</ele><time>2026-05-03T07:07:54.999Z</time></trkpt><trkpt lat="42.35246261177088" lon="13.414237076428295"><ele>719.4</ele><time>2026-05-03T07:07:55.999Z</time></trkpt><trkpt lat="42.35246570861381" lon="13.414368543952095"><ele>720.0</ele><time>2026-05-03T07:07:56.999Z</time></trkpt><trkpt lat="42.35246813723891" lon="13.414510022754362"><ele>720.0</ele><time>2026-05-03T07:07:57.999Z</time></trkpt><trkpt lat="42.35245233269585" lon="13.414640445583018"><ele>720.0</ele><time>2026-05-03T07:07:58.999Z</time></trkpt><trkpt lat="42.35242809765428" lon="13.414779108841797"><ele>720.0</ele><time>2026-05-03T07:07:59.999Z</time></trkpt><trkpt lat="42.352403901158944" lon="13.414907707437724"><ele>720.0</ele><time>2026-05-03T07:08:00.999Z</time></trkpt><trkpt lat="42.35237405199586" lon="13.41503646600223"><ele>720.0</ele><time>2026-05-03T07:08:01.999Z</time></trkpt><trkpt lat="42.35232692222057" lon="13.415158316885892"><ele>720.25</ele><time>2026-05-03T07:08:02.999Z</time></trkpt><trkpt lat="42.35226620377324" lon="13.415271807499847"><ele>720.5</ele><time>2026-05-03T07:08:03.999Z</time></trkpt><trkpt lat="42.35220508977903" lon="13.415409234332952"><ele>720.75</ele><time>2026-05-03T07:08:04.999Z</time></trkpt><trkpt lat="42.35211084125559" lon="13.415571137603566"><ele>721.0</ele><time>2026-05-03T07:08:05.999Z</time></trkpt><trkpt lat="42.352011113213386" lon="13.415772900075972"><ele>722.0</ele><time>2026-05-03T07:08:06.999Z</time></trkpt><trkpt lat="42.3518781474262" lon="13.415931214338004"><ele>723.0</ele><time>2026-05-03T07:08:07.999Z</time></trkpt><trkpt lat="42.35183051408572" lon="13.41610052538931"><ele>724.0</ele><time>2026-05-03T07:08:08.999Z</time></trkpt><trkpt lat="42.35177734792138" lon="13.416287272745706"><ele>725.0</ele><time>2026-05-03T07:08:09.999Z</time></trkpt><trkpt lat="42.351736556302384" lon="13.416495709687176"><ele>726.0</ele><time>2026-05-03T07:08:10.999Z</time></trkpt><trkpt lat="42.3517036167701" lon="13.416702361758254"><ele>727.0</ele><time>2026-05-03T07:08:11.999Z</time></trkpt><trkpt lat="42.351685230577864" lon="13.416926886187508"><ele>728.0</ele><time>2026-05-03T07:08:12.999Z</time></trkpt><trkpt lat="42.35167424360784" lon="13.417166150805926"><ele>729.0</ele><time>2026-05-03T07:08:13.999Z</time></trkpt><trkpt lat="42.351662670494534" lon="13.417394161060425"><ele>730.0</ele><time>2026-05-03T07:08:14.999Z</time></trkpt><trkpt lat="42.35165110358266" lon="13.417611387926986"><ele>730.0</ele><time>2026-05-03T07:08:15.999Z</time></trkpt><trkpt lat="42.351645061040834" lon="13.41780749045067"><ele>730.0</ele><time>2026-05-03T07:08:16.999Z</time></trkpt><trkpt lat="42.35164133830718" lon="13.417978437156068"><ele>730.0</ele><time>2026-05-03T07:08:17.999Z</time></trkpt><trkpt lat="42.351627217359976" lon="13.418139187121437"><ele>730.0</ele><time>2026-05-03T07:08:18.999Z</time></trkpt><trkpt lat="42.35167338638981" lon="13.418321310676355"><ele>730.0</ele><time>2026-05-03T07:08:19.999Z</time></trkpt><trkpt lat="42.351658585306424" lon="13.418438329044326"><ele>730.0</ele><time>2026-05-03T07:08:20.999Z</time></trkpt><trkpt lat="42.35168854669507" lon="13.418595609044933"><ele>730.0</ele><time>2026-05-03T07:08:21.999Z</time></trkpt><trkpt lat="42.35186088222739" lon="13.418636898278852"><ele>730.0</ele><time>2026-05-03T07:08:22.999Z</time></trkpt><trkpt lat="42.351921789446465" lon="13.418715795005042"><ele>730.0</ele><time>2026-05-03T07:08:23.999Z</time></trkpt><trkpt lat="42.35195457342145" lon="13.418800657763665"><ele>730.0</ele><time>2026-05-03T07:08:24.998Z</time></trkpt><trkpt lat="42.35196532721127" lon="13.418888657760654"><ele>730.0</ele><time>2026-05-03T07:08:25.998Z</time></trkpt><trkpt lat="42.35196854478873" lon="13.41898934590824"><ele>730.0</ele><time>2026-05-03T07:08:26.998Z</time></trkpt><trkpt lat="42.35197167799679" lon="13.41907770649619"><ele>730.0</ele><time>2026-05-03T07:08:27.998Z</time></trkpt><trkpt lat="42.35187823606339" lon="13.419183718956806"><ele>730.0</ele><time>2026-05-03T07:08:28.998Z</time></trkpt><trkpt lat="42.351866314482855" lon="13.419294528887091"><ele>730.2</ele><time>2026-05-03T07:08:29.998Z</time></trkpt><trkpt lat="42.35189143608387" lon="13.419401905677258"><ele>730.4</ele><time>2026-05-03T07:08:30.998Z</time></trkpt><trkpt lat="42.35196397509618" lon="13.419509077751309"><ele>730.5999999999999</ele><time>2026-05-03T07:08:31.998Z</time></trkpt><trkpt lat="42.352044874030184" lon="13.419617873026453"><ele>730.8</ele><time>2026-05-03T07:08:32.998Z</time></trkpt><trkpt lat="42.3521159790949" lon="13.419742876147996"><ele>731.0</ele><time>2026-05-03T07:08:33.998Z</time></trkpt><trkpt lat="42.3521792473857" lon="13.419875694814767"><ele>731.5</ele><time>2026-05-03T07:08:34.998Z</time></trkpt><trkpt lat="42.35221182194951" lon="13.420016577350175"><ele>732.0</ele><time>2026-05-03T07:08:35.998Z</time></trkpt><trkpt lat="42.35217628824406" lon="13.420156652366774"><ele>732.5</ele><time>2026-05-03T07:08:36.998Z</time></trkpt><trkpt lat="42.35217063433663" lon="13.42031785996948"><ele>733.0</ele><time>2026-05-03T07:08:37.998Z</time></trkpt><trkpt lat="42.352186240614905" lon="13.420472864655842"><ele>734.0</ele><time>2026-05-03T07:08:38.998Z</time></trkpt><trkpt lat="42.35219146725528" lon="13.420624703590532"><ele>735.0</ele><time>2026-05-03T07:08:39.998Z</time></trkpt><trkpt lat="42.35221998446109" lon="13.420765539823112"><ele>736.0</ele><time>2026-05-03T07:08:40.998Z</time></trkpt><trkpt lat="42.35225692223142" lon="13.420920464814651"><ele>737.0</ele><time>2026-05-03T07:08:41.998Z</time></trkpt><trkpt lat="42.35230059622808" lon="13.421073963528032"><ele>737.8</ele><time>2026-05-03T07:08:42.998Z</time></trkpt><trkpt lat="42.35234295336996" lon="13.421222087764265"><ele>738.6</ele><time>2026-05-03T07:08:43.998Z</time></trkpt><trkpt lat="42.35238530523355" lon="13.421363805612476"><ele>739.4</ele><time>2026-05-03T07:08:44.998Z</time></trkpt><trkpt lat="42.35241740460771" lon="13.421498089430788"><ele>740.1999999999999</ele><time>2026-05-03T07:08:46Z</time></trkpt><trkpt lat="42.35242943711566" lon="13.421627759092967"><ele>741.0</ele><time>2026-05-03T07:08:47Z</time></trkpt><trkpt lat="42.35240419414824" lon="13.421764745692633"><ele>741.5999999999999</ele><time>2026-05-03T07:08:48Z</time></trkpt><trkpt lat="42.35236067156376" lon="13.421880266364939"><ele>742.2</ele><time>2026-05-03T07:08:49Z</time></trkpt><trkpt lat="42.35234460111803" lon="13.422002730942282"><ele>742.8</ele><time>2026-05-03T07:08:50Z</time></trkpt><trkpt lat="42.35234556057756" lon="13.422121127746188"><ele>743.4000000000001</ele><time>2026-05-03T07:08:51Z</time></trkpt><trkpt lat="42.35234185645262" lon="13.422265103279182"><ele>744.0</ele><time>2026-05-03T07:08:52Z</time></trkpt><trkpt lat="42.352349159401264" lon="13.422428662138682"><ele>742.25</ele><time>2026-05-03T07:08:53Z</time></trkpt><trkpt lat="42.35236661832685" lon="13.422593229130792"><ele>740.5</ele><time>2026-05-03T07:08:54Z</time></trkpt><trkpt lat="42.352385326806946" lon="13.422773665168673"><ele>738.75</ele><time>2026-05-03T07:08:55Z</time></trkpt><trkpt lat="42.35240244497265" lon="13.4229568576778"><ele>737.0</ele><time>2026-05-03T07:08:56Z</time></trkpt><trkpt lat="42.35242557808544" lon="13.423137762219744"><ele>734.5</ele><time>2026-05-03T07:08:57Z</time></trkpt><trkpt lat="42.3524494638277" lon="13.423311568329302"><ele>732.0</ele><time>2026-05-03T07:08:58Z</time></trkpt><trkpt lat="42.35245298317811" lon="13.423480042164094"><ele>729.5</ele><time>2026-05-03T07:08:59Z</time></trkpt><trkpt lat="42.35242819955937" lon="13.423644425481813"><ele>727.0</ele><time>2026-05-03T07:09:00Z</time></trkpt><trkpt lat="42.35240212452956" lon="13.423808720220377"><ele>725.5</ele><time>2026-05-03T07:09:01Z</time></trkpt><trkpt lat="42.3523801021325" lon="13.423987354318372"><ele>724.0</ele><time>2026-05-03T07:09:02Z</time></trkpt><trkpt lat="42.352339374722874" lon="13.424161252755564"><ele>722.5</ele><time>2026-05-03T07:09:03Z</time></trkpt><trkpt lat="42.35230499798534" lon="13.424337154504741"><ele>721.0</ele><time>2026-05-03T07:09:04Z</time></trkpt><trkpt lat="42.3522650029441" lon="13.424512317916722"><ele>720.5</ele><time>2026-05-03T07:09:05Z</time></trkpt><trkpt lat="42.352234789528275" lon="13.424683897645364"><ele>720.0</ele><time>2026-05-03T07:09:06Z</time></trkpt><trkpt lat="42.352201385957784" lon="13.424853105789406"><ele>719.5</ele><time>2026-05-03T07:09:07Z</time></trkpt><trkpt lat="42.35216277119807" lon="13.4250143045391"><ele>719.0</ele><time>2026-05-03T07:09:08Z</time></trkpt><trkpt lat="42.352085172124156" lon="13.425137823499929"><ele>718.75</ele><time>2026-05-03T07:09:09Z</time></trkpt><trkpt lat="42.35201383534209" lon="13.425275296820766"><ele>718.5</ele><time>2026-05-03T07:09:10Z</time></trkpt><trkpt lat="42.351938766428226" lon="13.425418453025822"><ele>718.25</ele><time>2026-05-03T07:09:11Z</time></trkpt><trkpt lat="42.3518778361039" lon="13.425575516717027"><ele>718.0</ele><time>2026-05-03T07:09:12Z</time></trkpt><trkpt lat="42.35179894798418" lon="13.425722632026584"><ele>718.0</ele><time>2026-05-03T07:09:13Z</time></trkpt><trkpt lat="42.35172842454851" lon="13.425867007672695"><ele>718.0</ele><time>2026-05-03T07:09:14Z</time></trkpt><trkpt lat="42.351662553951876" lon="13.426016004362562"><ele>718.0</ele><time>2026-05-03T07:09:15Z</time></trkpt><trkpt lat="42.35159833024752" lon="13.426163770175448"><ele>718.0</ele><time>2026-05-03T07:09:16Z</time></trkpt><trkpt lat="42.35152798440983" lon="13.42630403095737"><ele>720.75</ele><time>2026-05-03T07:09:17Z</time></trkpt><trkpt lat="42.35148157716029" lon="13.426463709326331"><ele>723.5</ele><time>2026-05-03T07:09:18Z</time></trkpt><trkpt lat="42.351442138110194" lon="13.426625760925232"><ele>726.25</ele><time>2026-05-03T07:09:19Z</time></trkpt><trkpt lat="42.351411150293465" lon="13.426788750036808"><ele>729.0</ele><time>2026-05-03T07:09:20Z</time></trkpt><trkpt lat="42.35138537941983" lon="13.426945531277525"><ele>730.0</ele><time>2026-05-03T07:09:21Z</time></trkpt><trkpt lat="42.35136427546898" lon="13.427089450714716"><ele>731.0</ele><time>2026-05-03T07:09:21.999Z</time></trkpt><trkpt lat="42.35134982759399" lon="13.427220964762206"><ele>732.0</ele><time>2026-05-03T07:09:22.999Z</time></trkpt><trkpt lat="42.35133775387133" lon="13.427344890488005"><ele>733.0</ele><time>2026-05-03T07:09:23.999Z</time></trkpt><trkpt lat="42.351306882109625" lon="13.42744646480206"><ele>734.0</ele><time>2026-05-03T07:09:24.999Z</time></trkpt><trkpt lat="42.351292077664255" lon="13.4275551796749"><ele>734.1666666666666</ele><time>2026-05-03T07:09:25.999Z</time></trkpt><trkpt lat="42.35123398224451" lon="13.427624359488222"><ele>734.3333333333333</ele><time>2026-05-03T07:09:26.999Z</time></trkpt><trkpt lat="42.35119452321524" lon="13.42769723623309"><ele>734.5</ele><time>2026-05-03T07:09:27.999Z</time></trkpt><trkpt lat="42.35115240314228" lon="13.42776883289814"><ele>734.6666666666666</ele><time>2026-05-03T07:09:28.999Z</time></trkpt><trkpt lat="42.35108884835915" lon="13.427878737540052"><ele>734.8333333333334</ele><time>2026-05-03T07:09:30.999Z</time></trkpt><trkpt lat="42.35103832684557" lon="13.428027815679043"><ele>735.0</ele><time>2026-05-03T07:09:32.999Z</time></trkpt><trkpt lat="42.35102798785253" lon="13.428142333767163"><ele>734.2</ele><time>2026-05-03T07:09:33.999Z</time></trkpt><trkpt lat="42.35101982375466" lon="13.428255423204028"><ele>733.4</ele><time>2026-05-03T07:09:34.999Z</time></trkpt><trkpt lat="42.35102063007368" lon="13.428383983024512"><ele>732.5999999999999</ele><time>2026-05-03T07:09:36.999Z</time></trkpt><trkpt lat="42.35117532347332" lon="13.428292564595266"><ele>731.8</ele><time>2026-05-03T07:09:39.999Z</time></trkpt><trkpt lat="42.35117144893855" lon="13.428419063200446"><ele>731.0</ele><time>2026-05-03T07:09:40.999Z</time></trkpt><trkpt lat="42.35127907013024" lon="13.428344066931782"><ele>731.0</ele><time>2026-05-03T07:09:42.999Z</time></trkpt><trkpt lat="42.35133691593097" lon="13.428288891362998"><ele>731.0</ele><time>2026-05-03T07:09:43.999Z</time></trkpt><trkpt lat="42.351429492973864" lon="13.42840783907561"><ele>731.0</ele><time>2026-05-03T07:09:44.999Z</time></trkpt><trkpt lat="42.35151469978015" lon="13.42844471658304"><ele>731.0</ele><time>2026-05-03T07:09:45.999Z</time></trkpt><trkpt lat="42.35159448136058" lon="13.428482698915309"><ele>731.0</ele><time>2026-05-03T07:09:46.999Z</time></trkpt><trkpt lat="42.351662106624715" lon="13.428528595130711"><ele>731.0</ele><time>2026-05-03T07:09:47.999Z</time></trkpt><trkpt lat="42.35170371110411" lon="13.428642705231487"><ele>733.0</ele><time>2026-05-03T07:09:48.999Z</time></trkpt><trkpt lat="42.35176536005277" lon="13.428731413871688"><ele>735.0</ele><time>2026-05-03T07:09:49.999Z</time></trkpt><trkpt lat="42.35181294362217" lon="13.428821628163409"><ele>737.0</ele><time>2026-05-03T07:09:50.999Z</time></trkpt><trkpt lat="42.3518526935806" lon="13.428891006955071"><ele>739.0</ele><time>2026-05-03T07:09:51.999Z</time></trkpt><trkpt lat="42.35191180794446" lon="13.429022037732217"><ele>741.0</ele><time>2026-05-03T07:09:53.999Z</time></trkpt><trkpt lat="42.351863366414335" lon="13.429141840524702"><ele>741.25</ele><time>2026-05-03T07:09:54.999Z</time></trkpt><trkpt lat="42.351829701501146" lon="13.429257621918907"><ele>741.5</ele><time>2026-05-03T07:09:55.999Z</time></trkpt><trkpt lat="42.351781456219946" lon="13.429390624217454"><ele>741.75</ele><time>2026-05-03T07:09:56.999Z</time></trkpt><trkpt lat="42.351738798891624" lon="13.429540799057577"><ele>742.0</ele><time>2026-05-03T07:09:57.999Z</time></trkpt><trkpt lat="42.35165609371913" lon="13.429686874721753"><ele>742.4000000000001</ele><time>2026-05-03T07:09:58.999Z</time></trkpt><trkpt lat="42.3515850559243" lon="13.429830796042447"><ele>742.8000000000001</ele><time>2026-05-03T07:09:59.999Z</time></trkpt><trkpt lat="42.35155364592523" lon="13.429918466000332"><ele>743.2</ele><time>2026-05-03T07:10:00.999Z</time></trkpt><trkpt lat="42.35148988028327" lon="13.430017275273482"><ele>743.6</ele><time>2026-05-03T07:10:01.999Z</time></trkpt><trkpt lat="42.35141140117304" lon="13.430078999977532"><ele>744.0</ele><time>2026-05-03T07:10:02.999Z</time></trkpt><trkpt lat="42.35135329176786" lon="13.430144009116704"><ele>741.6</ele><time>2026-05-03T07:10:03.999Z</time></trkpt><trkpt lat="42.35126195868142" lon="13.43008664081066"><ele>739.2</ele><time>2026-05-03T07:10:04.999Z</time></trkpt><trkpt lat="42.3511799098287" lon="13.430038938161776"><ele>736.8000000000001</ele><time>2026-05-03T07:10:05.999Z</time></trkpt><trkpt lat="42.35107534043623" lon="13.430005995782427"><ele>734.4000000000001</ele><time>2026-05-03T07:10:06.999Z</time></trkpt><trkpt lat="42.350965344180224" lon="13.429971342301021"><ele>732.0</ele><time>2026-05-03T07:10:07.999Z</time></trkpt><trkpt lat="42.35086119153157" lon="13.429938529766638"><ele>732.0</ele><time>2026-05-03T07:10:08.999Z</time></trkpt><trkpt lat="42.35076065782899" lon="13.429906857346554"><ele>732.0</ele><time>2026-05-03T07:10:09.999Z</time></trkpt><trkpt lat="42.350652430853465" lon="13.4300024972467"><ele>732.0</ele><time>2026-05-03T07:10:10.999Z</time></trkpt><trkpt lat="42.35056722664676" lon="13.43006355881342"><ele>732.0</ele><time>2026-05-03T07:10:11.999Z</time></trkpt><trkpt lat="42.350481188950084" lon="13.430152696144669"><ele>732.0</ele><time>2026-05-03T07:10:12.999Z</time></trkpt><trkpt lat="42.35040878073262" lon="13.430267612874692"><ele>731.0</ele><time>2026-05-03T07:10:13.999Z</time></trkpt><trkpt lat="42.350341823685206" lon="13.430410053633327"><ele>730.0</ele><time>2026-05-03T07:10:14.999Z</time></trkpt><trkpt lat="42.350270787333066" lon="13.43055888248425"><ele>729.0</ele><time>2026-05-03T07:10:15.999Z</time></trkpt><trkpt lat="42.3501947034385" lon="13.430695397895676"><ele>728.0</ele><time>2026-05-03T07:10:16.999Z</time></trkpt><trkpt lat="42.350116169057344" lon="13.430806632052208"><ele>728.0</ele><time>2026-05-03T07:10:17.999Z</time></trkpt><trkpt lat="42.35002868823855" lon="13.430895015386811"><ele>728.0</ele><time>2026-05-03T07:10:18.999Z</time></trkpt><trkpt lat="42.349942434505714" lon="13.430961713619062"><ele>728.0</ele><time>2026-05-03T07:10:19.999Z</time></trkpt><trkpt lat="42.34984552977814" lon="13.431014737088889"><ele>728.0</ele><time>2026-05-03T07:10:20.999Z</time></trkpt><trkpt lat="42.34974024922733" lon="13.431050304892858"><ele>728.0</ele><time>2026-05-03T07:10:21.999Z</time></trkpt><trkpt lat="42.34963683634046" lon="13.431056652406346"><ele>726.5999999999999</ele><time>2026-05-03T07:10:22.999Z</time></trkpt><trkpt lat="42.349533367975326" lon="13.431052281145574"><ele>725.1999999999999</ele><time>2026-05-03T07:10:23.999Z</time></trkpt><trkpt lat="42.34942864725355" lon="13.430991567767343"><ele>723.8</ele><time>2026-05-03T07:10:24.999Z</time></trkpt><trkpt lat="42.34933619725372" lon="13.430970048891806"><ele>722.4</ele><time>2026-05-03T07:10:25.999Z</time></trkpt><trkpt lat="42.34923254543812" lon="13.431002274131247"><ele>721.0</ele><time>2026-05-03T07:10:26.999Z</time></trkpt><trkpt lat="42.34914197309947" lon="13.431035965809587"><ele>721.0</ele><time>2026-05-03T07:10:27.999Z</time></trkpt><trkpt lat="42.34904795262206" lon="13.431090574090202"><ele>721.0</ele><time>2026-05-03T07:10:28.999Z</time></trkpt><trkpt lat="42.348938333034894" lon="13.431153025774206"><ele>721.0</ele><time>2026-05-03T07:10:29.999Z</time></trkpt><trkpt lat="42.34882759301622" lon="13.431210939636193"><ele>721.0</ele><time>2026-05-03T07:10:30.999Z</time></trkpt><trkpt lat="42.34872032617692" lon="13.431291696717276"><ele>721.0</ele><time>2026-05-03T07:10:31.999Z</time></trkpt><trkpt lat="42.34861762147378" lon="13.431386453690521"><ele>721.0</ele><time>2026-05-03T07:10:32.999Z</time></trkpt><trkpt lat="42.34851086559905" lon="13.431470589754634"><ele>721.0</ele><time>2026-05-03T07:10:33.999Z</time></trkpt><trkpt lat="42.348387845220145" lon="13.431513723883615"><ele>721.0</ele><time>2026-05-03T07:10:34.999Z</time></trkpt><trkpt lat="42.348268553951705" lon="13.431567172183218"><ele>721.0</ele><time>2026-05-03T07:10:35.999Z</time></trkpt><trkpt lat="42.348146276365185" lon="13.431611902886205"><ele>721.0</ele><time>2026-05-03T07:10:36.999Z</time></trkpt><trkpt lat="42.34802801250366" lon="13.431669472653589"><ele>721.0</ele><time>2026-05-03T07:10:37.999Z</time></trkpt><trkpt lat="42.347912690728414" lon="13.431719526460109"><ele>721.0</ele><time>2026-05-03T07:10:38.998Z</time></trkpt><trkpt lat="42.34780172186397" lon="13.431781180362206"><ele>718.5</ele><time>2026-05-03T07:10:39.998Z</time></trkpt><trkpt lat="42.347695771387166" lon="13.431848482103318"><ele>716.0</ele><time>2026-05-03T07:10:40.998Z</time></trkpt><trkpt lat="42.34758754966127" lon="13.431913981025263"><ele>713.5</ele><time>2026-05-03T07:10:41.998Z</time></trkpt><trkpt lat="42.347478183975035" lon="13.431983408344712"><ele>711.0</ele><time>2026-05-03T07:10:42.998Z</time></trkpt><trkpt lat="42.34736435541714" lon="13.43205231619708"><ele>711.0</ele><time>2026-05-03T07:10:43.998Z</time></trkpt><trkpt lat="42.34724712648194" lon="13.432123864702708"><ele>711.0</ele><time>2026-05-03T07:10:44.998Z</time></trkpt><trkpt lat="42.34712709663537" lon="13.432166999221648"><ele>711.0</ele><time>2026-05-03T07:10:45.998Z</time></trkpt><trkpt lat="42.347022447674554" lon="13.432258944544461"><ele>711.0</ele><time>2026-05-03T07:10:46.998Z</time></trkpt><trkpt lat="42.346903211941445" lon="13.43231455394191"><ele>711.5</ele><time>2026-05-03T07:10:47.998Z</time></trkpt><trkpt lat="42.34679474026451" lon="13.432389281164749"><ele>712.0</ele><time>2026-05-03T07:10:48.998Z</time></trkpt><trkpt lat="42.34669402713828" lon="13.432479845706313"><ele>712.5</ele><time>2026-05-03T07:10:49.998Z</time></trkpt><trkpt lat="42.346588076377756" lon="13.432593466986026"><ele>713.0</ele><time>2026-05-03T07:10:50.998Z</time></trkpt><trkpt lat="42.346478149579156" lon="13.432706047725329"><ele>713.25</ele><time>2026-05-03T07:10:52Z</time></trkpt><trkpt lat="42.34636755970055" lon="13.432811490753302"><ele>713.5</ele><time>2026-05-03T07:10:53Z</time></trkpt><trkpt lat="42.34625582379557" lon="13.432908953819936"><ele>713.75</ele><time>2026-05-03T07:10:54Z</time></trkpt><trkpt lat="42.34614310776815" lon="13.432981510179248"><ele>714.0</ele><time>2026-05-03T07:10:55Z</time></trkpt><trkpt lat="42.34604627625084" lon="13.433046318323523"><ele>714.0</ele><time>2026-05-03T07:10:56Z</time></trkpt><trkpt lat="42.34594594872034" lon="13.433108567626558"><ele>714.0</ele><time>2026-05-03T07:10:57Z</time></trkpt><trkpt lat="42.34583574649741" lon="13.433144480428812"><ele>714.0</ele><time>2026-05-03T07:10:58Z</time></trkpt><trkpt lat="42.34574525179386" lon="13.433190220352328"><ele>714.0</ele><time>2026-05-03T07:10:59Z</time></trkpt><trkpt lat="42.34566422822032" lon="13.433221780528795"><ele>714.0</ele><time>2026-05-03T07:11:00Z</time></trkpt><trkpt lat="42.345601854217236" lon="13.433254985258488"><ele>711.4000000000001</ele><time>2026-05-03T07:11:00.999Z</time></trkpt><trkpt lat="42.34550685075128" lon="13.433249881160263"><ele>708.8</ele><time>2026-05-03T07:11:02.999Z</time></trkpt><trkpt lat="42.34544942932936" lon="13.43316332019288"><ele>706.2</ele><time>2026-05-03T07:11:04.999Z</time></trkpt><trkpt lat="42.34538702551182" lon="13.433086582599914"><ele>703.5999999999999</ele><time>2026-05-03T07:11:07.999Z</time></trkpt><trkpt lat="42.34542197977844" lon="13.433241168022509"><ele>701.0</ele><time>2026-05-03T07:11:12.999Z</time></trkpt><trkpt lat="42.34549182683715" lon="13.433265359040538"><ele>701.0</ele><time>2026-05-03T07:11:13.999Z</time></trkpt><trkpt lat="42.34556875564108" lon="13.433270434195332"><ele>701.0</ele><time>2026-05-03T07:11:14.999Z</time></trkpt><trkpt lat="42.34564101881345" lon="13.433242063033937"><ele>701.0</ele><time>2026-05-03T07:11:15.999Z</time></trkpt><trkpt lat="42.34571255116846" lon="13.433231208806067"><ele>701.0</ele><time>2026-05-03T07:11:18Z</time></trkpt><trkpt lat="42.34568824929213" lon="13.43332025036332"><ele>701.0</ele><time>2026-05-03T07:11:21Z</time></trkpt><trkpt lat="42.3456222820401" lon="13.433371338335364"><ele>701.0</ele><time>2026-05-03T07:11:23Z</time></trkpt><trkpt lat="42.34553593760232" lon="13.433251782310581"><ele>701.0</ele><time>2026-05-03T07:11:24Z</time></trkpt><trkpt lat="42.345459826674244" lon="13.433268392398494"><ele>701.0</ele><time>2026-05-03T07:11:25Z</time></trkpt><trkpt lat="42.34536950739195" lon="13.43322217866839"><ele>701.0</ele><time>2026-05-03T07:11:27Z</time></trkpt><trkpt lat="42.34526568855825" lon="13.433239976962797"><ele>701.0</ele><time>2026-05-03T07:11:29Z</time></trkpt><trkpt lat="42.34517253348893" lon="13.433809432961375"><ele>702.1999999999999</ele><time>2026-05-03T07:11:30Z</time></trkpt><trkpt lat="42.345108793493225" lon="13.43392083383926"><ele>703.4</ele><time>2026-05-03T07:11:31Z</time></trkpt><trkpt lat="42.34504812295365" lon="13.434044279138725"><ele>704.6</ele><time>2026-05-03T07:11:32Z</time></trkpt><trkpt lat="42.34498485962115" lon="13.434178939200606"><ele>705.8</ele><time>2026-05-03T07:11:33Z</time></trkpt><trkpt lat="42.34492400442428" lon="13.434308649941025"><ele>707.0</ele><time>2026-05-03T07:11:33.999Z</time></trkpt><trkpt lat="42.34486453785473" lon="13.434438465714434"><ele>707.0</ele><time>2026-05-03T07:11:34.999Z</time></trkpt><trkpt lat="42.34480964283552" lon="13.434572523676279"><ele>707.0</ele><time>2026-05-03T07:11:35.999Z</time></trkpt><trkpt lat="42.34475858012894" lon="13.434690187676658"><ele>707.0</ele><time>2026-05-03T07:11:36.999Z</time></trkpt><trkpt lat="42.34470794560606" lon="13.434813559322142"><ele>707.0</ele><time>2026-05-03T07:11:37.999Z</time></trkpt><trkpt lat="42.34465519296246" lon="13.434944149269459"><ele>707.0</ele><time>2026-05-03T07:11:38.999Z</time></trkpt><trkpt lat="42.34460756909539" lon="13.43507847771145"><ele>705.0</ele><time>2026-05-03T07:11:39.999Z</time></trkpt><trkpt lat="42.344558903195086" lon="13.43520746247806"><ele>703.0</ele><time>2026-05-03T07:11:40.999Z</time></trkpt><trkpt lat="42.34450522600061" lon="13.435334521663922"><ele>701.0</ele><time>2026-05-03T07:11:41.999Z</time></trkpt><trkpt lat="42.34446168177142" lon="13.435462422492531"><ele>699.0</ele><time>2026-05-03T07:11:42.999Z</time></trkpt><trkpt lat="42.34441496417462" lon="13.43558417489266"><ele>697.0</ele><time>2026-05-03T07:11:43.999Z</time></trkpt><trkpt lat="42.344368369922186" lon="13.435691730491659"><ele>697.0</ele><time>2026-05-03T07:11:44.999Z</time></trkpt><trkpt lat="42.34431752524905" lon="13.435778607669123"><ele>697.0</ele><time>2026-05-03T07:11:45.999Z</time></trkpt><trkpt lat="42.344274885682054" lon="13.435872855415834"><ele>697.0</ele><time>2026-05-03T07:11:46.999Z</time></trkpt><trkpt lat="42.3442589979078" lon="13.43597332406832"><ele>697.0</ele><time>2026-05-03T07:11:47.999Z</time></trkpt><trkpt lat="42.344262660908" lon="13.436086684351013"><ele>697.0</ele><time>2026-05-03T07:11:48.999Z</time></trkpt><trkpt lat="42.3442638945301" lon="13.436225143881147"><ele>697.0</ele><time>2026-05-03T07:11:49.999Z</time></trkpt><trkpt lat="42.3442451360721" lon="13.436362378863828"><ele>696.8333333333334</ele><time>2026-05-03T07:11:50.999Z</time></trkpt><trkpt lat="42.34422775741277" lon="13.436500834782908"><ele>696.6666666666667</ele><time>2026-05-03T07:11:51.999Z</time></trkpt><trkpt lat="42.34422052710427" lon="13.43662800407331"><ele>696.5</ele><time>2026-05-03T07:11:52.999Z</time></trkpt><trkpt lat="42.34421606691666" lon="13.436737180005851"><ele>696.3333333333334</ele><time>2026-05-03T07:11:53.999Z</time></trkpt><trkpt lat="42.344210705457606" lon="13.436830677418786"><ele>696.1666666666666</ele><time>2026-05-03T07:11:54.999Z</time></trkpt><trkpt lat="42.34419624080154" lon="13.436921197029765"><ele>696.0</ele><time>2026-05-03T07:11:55.999Z</time></trkpt><trkpt lat="42.34416746428341" lon="13.437012385112133"><ele>696.0</ele><time>2026-05-03T07:11:56.999Z</time></trkpt><trkpt lat="42.344139663534925" lon="13.437098810493422"><ele>696.0</ele><time>2026-05-03T07:11:57.999Z</time></trkpt><trkpt lat="42.34408979362719" lon="13.437240713360183"><ele>696.0</ele><time>2026-05-03T07:11:59.999Z</time></trkpt><trkpt lat="42.34406493966321" lon="13.437377813536152"><ele>696.0</ele><time>2026-05-03T07:12:01.999Z</time></trkpt><trkpt lat="42.34406548747334" lon="13.437529497024503"><ele>696.0</ele><time>2026-05-03T07:12:03.999Z</time></trkpt><trkpt lat="42.34405197847288" lon="13.43762477955151"><ele>697.1666666666666</ele><time>2026-05-03T07:12:04.999Z</time></trkpt><trkpt lat="42.34403233478148" lon="13.437724985857306"><ele>698.3333333333334</ele><time>2026-05-03T07:12:05.999Z</time></trkpt><trkpt lat="42.34401028115027" lon="13.437826711841206"><ele>699.5</ele><time>2026-05-03T07:12:06.999Z</time></trkpt><trkpt lat="42.34399435620915" lon="13.437941347169948"><ele>700.6666666666667</ele><time>2026-05-03T07:12:07.999Z</time></trkpt><trkpt lat="42.34398144788905" lon="13.438070376372448"><ele>701.8333333333334</ele><time>2026-05-03T07:12:08.999Z</time></trkpt><trkpt lat="42.34396252223572" lon="13.438192818950094"><ele>703.0</ele><time>2026-05-03T07:12:09.999Z</time></trkpt><trkpt lat="42.34394470942855" lon="13.43830506640549"><ele>701.8333333333334</ele><time>2026-05-03T07:12:10.999Z</time></trkpt><trkpt lat="42.34392881260859" lon="13.438411500084358"><ele>700.6666666666667</ele><time>2026-05-03T07:12:11.999Z</time></trkpt><trkpt lat="42.34391009087747" lon="13.43851749891037"><ele>699.5</ele><time>2026-05-03T07:12:12.999Z</time></trkpt><trkpt lat="42.34389292189808" lon="13.4386165671619"><ele>698.3333333333334</ele><time>2026-05-03T07:12:13.999Z</time></trkpt><trkpt lat="42.343868563628845" lon="13.438707878574661"><ele>697.1666666666666</ele><time>2026-05-03T07:12:14.999Z</time></trkpt><trkpt lat="42.34382509696383" lon="13.438800633786759"><ele>696.0</ele><time>2026-05-03T07:12:15.999Z</time></trkpt><trkpt lat="42.343774269916814" lon="13.438903969707734"><ele>696.0</ele><time>2026-05-03T07:12:16.999Z</time></trkpt><trkpt lat="42.34371493657408" lon="13.438982302382263"><ele>696.0</ele><time>2026-05-03T07:12:17.999Z</time></trkpt><trkpt lat="42.343654419342286" lon="13.439023182946196"><ele>696.0</ele><time>2026-05-03T07:12:18.999Z</time></trkpt><trkpt lat="42.34359338580952" lon="13.439057139638084"><ele>696.0</ele><time>2026-05-03T07:12:19.999Z</time></trkpt><trkpt lat="42.34352780731712" lon="13.439101760871138"><ele>696.0</ele><time>2026-05-03T07:12:20.999Z</time></trkpt><trkpt lat="42.34345484920643" lon="13.439186818705892"><ele>696.0</ele><time>2026-05-03T07:12:22.999Z</time></trkpt><trkpt lat="42.343387360261396" lon="13.439288981571991"><ele>696.0</ele><time>2026-05-03T07:12:24.999Z</time></trkpt><trkpt lat="42.34330785877324" lon="13.439387158382923"><ele>696.0</ele><time>2026-05-03T07:12:26.999Z</time></trkpt><trkpt lat="42.34325566957478" lon="13.439464120494044"><ele>696.0</ele><time>2026-05-03T07:12:28.999Z</time></trkpt><trkpt lat="42.34317974424106" lon="13.439547473602863"><ele>696.0</ele><time>2026-05-03T07:12:30.999Z</time></trkpt><trkpt lat="42.34311627465981" lon="13.439652442886752"><ele>696.0</ele><time>2026-05-03T07:12:32.999Z</time></trkpt><trkpt lat="42.34303829556269" lon="13.439748175079798"><ele>695.5999999999999</ele><time>2026-05-03T07:12:34.999Z</time></trkpt><trkpt lat="42.342985151057796" lon="13.439804713166424"><ele>695.2</ele><time>2026-05-03T07:12:35.999Z</time></trkpt><trkpt lat="42.34286920740027" lon="13.439882337319169"><ele>694.8</ele><time>2026-05-03T07:12:37.999Z</time></trkpt><trkpt lat="42.34275146261668" lon="13.439913607609215"><ele>694.4000000000001</ele><time>2026-05-03T07:12:39.999Z</time></trkpt><trkpt lat="42.34263792259571" lon="13.439903399278228"><ele>694.0</ele><time>2026-05-03T07:12:41.999Z</time></trkpt><trkpt lat="42.34256934652465" lon="13.43988877871374"><ele>694.0</ele><time>2026-05-03T07:12:42.999Z</time></trkpt><trkpt lat="42.342488528573185" lon="13.439880465767967"><ele>694.0</ele><time>2026-05-03T07:12:43.999Z</time></trkpt><trkpt lat="42.34241395990235" lon="13.4398793787558"><ele>694.0</ele><time>2026-05-03T07:12:44.999Z</time></trkpt><trkpt lat="42.34233384854361" lon="13.439895873723794"><ele>694.0</ele><time>2026-05-03T07:12:45.999Z</time></trkpt><trkpt lat="42.34225443969151" lon="13.43994622992415"><ele>694.0</ele><time>2026-05-03T07:12:46.999Z</time></trkpt><trkpt lat="42.34219693884497" lon="13.440002519469484"><ele>694.0</ele><time>2026-05-03T07:12:47.999Z</time></trkpt><trkpt lat="42.34210562728899" lon="13.440068061229207"><ele>692.0</ele><time>2026-05-03T07:12:49.999Z</time></trkpt><trkpt lat="42.34199710356775" lon="13.44008813227907"><ele>690.0</ele><time>2026-05-03T07:12:51.999Z</time></trkpt><trkpt lat="42.3418976718082" lon="13.440121800242938"><ele>688.0</ele><time>2026-05-03T07:12:53.999Z</time></trkpt><trkpt lat="42.341811520503164" lon="13.440155198283374"><ele>686.0</ele><time>2026-05-03T07:12:55.999Z</time></trkpt><trkpt lat="42.34169682850336" lon="13.440193680493252"><ele>684.0</ele><time>2026-05-03T07:12:58Z</time></trkpt><trkpt lat="42.341590962426196" lon="13.440217162333303"><ele>684.0</ele><time>2026-05-03T07:13:00Z</time></trkpt><trkpt lat="42.34148968558059" lon="13.440224327758523"><ele>684.0</ele><time>2026-05-03T07:13:02Z</time></trkpt><trkpt lat="42.3413866832293" lon="13.440215024514282"><ele>684.0</ele><time>2026-05-03T07:13:04Z</time></trkpt><trkpt lat="42.34130222605837" lon="13.440186940356384"><ele>684.0</ele><time>2026-05-03T07:13:06Z</time></trkpt><trkpt lat="42.341190210234004" lon="13.44018746824224"><ele>684.0</ele><time>2026-05-03T07:13:08Z</time></trkpt><trkpt lat="42.34112373775514" lon="13.440210480203307"><ele>682.1666666666666</ele><time>2026-05-03T07:13:10Z</time></trkpt><trkpt lat="42.341034286478056" lon="13.440256517339378"><ele>680.3333333333334</ele><time>2026-05-03T07:13:13Z</time></trkpt><trkpt lat="42.34095774209573" lon="13.440299980130145"><ele>678.5</ele><time>2026-05-03T07:13:15Z</time></trkpt><trkpt lat="42.340888315542095" lon="13.440330783446239"><ele>676.6666666666667</ele><time>2026-05-03T07:13:17Z</time></trkpt><trkpt lat="42.34080477043304" lon="13.440378832168538"><ele>674.8333333333334</ele><time>2026-05-03T07:13:19Z</time></trkpt><trkpt lat="42.34073374637711" lon="13.440412549544101"><ele>673.0</ele><time>2026-05-03T07:13:21Z</time></trkpt><trkpt lat="42.340668885519676" lon="13.440441673880791"><ele>672.5</ele><time>2026-05-03T07:13:23Z</time></trkpt><trkpt lat="42.340588754447374" lon="13.440480489133565"><ele>672.0</ele><time>2026-05-03T07:13:25Z</time></trkpt><trkpt lat="42.3405137793339" lon="13.440520907797076"><ele>671.5</ele><time>2026-05-03T07:13:27Z</time></trkpt><trkpt lat="42.340447248931554" lon="13.440568628608627"><ele>671.0</ele><time>2026-05-03T07:13:29Z</time></trkpt><trkpt lat="42.34038397097192" lon="13.44063970437168"><ele>670.5</ele><time>2026-05-03T07:13:31Z</time></trkpt><trkpt lat="42.34034986820382" lon="13.440775367729268"><ele>670.0</ele><time>2026-05-03T07:13:34Z</time></trkpt><trkpt lat="42.34030993042073" lon="13.440916012929993"><ele>668.5</ele><time>2026-05-03T07:13:36Z</time></trkpt><trkpt lat="42.34027625978099" lon="13.441054698332175"><ele>667.0</ele><time>2026-05-03T07:13:38Z</time></trkpt><trkpt lat="42.34025352298969" lon="13.44121133572506"><ele>665.5</ele><time>2026-05-03T07:13:40Z</time></trkpt><trkpt lat="42.34024611721486" lon="13.441301952679853"><ele>664.0</ele><time>2026-05-03T07:13:41Z</time></trkpt><trkpt lat="42.340234631816195" lon="13.44138821125998"><ele>662.5</ele><time>2026-05-03T07:13:42Z</time></trkpt><trkpt lat="42.34021069535493" lon="13.441472565210903"><ele>661.0</ele><time>2026-05-03T07:13:43Z</time></trkpt><trkpt lat="42.34016966465792" lon="13.441641436750691"><ele>660.1666666666667</ele><time>2026-05-03T07:13:45Z</time></trkpt><trkpt lat="42.340152542898245" lon="13.441726471825561"><ele>659.3333333333334</ele><time>2026-05-03T07:13:46Z</time></trkpt><trkpt lat="42.34012641304336" lon="13.44182555861404"><ele>658.5</ele><time>2026-05-03T07:13:47Z</time></trkpt><trkpt lat="42.340091166698485" lon="13.441931686020165"><ele>657.6666666666666</ele><time>2026-05-03T07:13:48Z</time></trkpt><trkpt lat="42.340060785004" lon="13.442036726655074"><ele>656.8333333333333</ele><time>2026-05-03T07:13:49Z</time></trkpt><trkpt lat="42.34003288667387" lon="13.442134279485366"><ele>656.0</ele><time>2026-05-03T07:13:50Z</time></trkpt><trkpt lat="42.34000050241103" lon="13.442241587859057"><ele>655.0</ele><time>2026-05-03T07:13:51Z</time></trkpt><trkpt lat="42.339974745321925" lon="13.442347976485031"><ele>654.0</ele><time>2026-05-03T07:13:52Z</time></trkpt><trkpt lat="42.33994995145207" lon="13.442454883761156"><ele>653.0</ele><time>2026-05-03T07:13:53Z</time></trkpt><trkpt lat="42.33992532403071" lon="13.442556796020313"><ele>652.0</ele><time>2026-05-03T07:13:53.999Z</time></trkpt><trkpt lat="42.33990087250021" lon="13.44267413675425"><ele>651.0</ele><time>2026-05-03T07:13:54.999Z</time></trkpt><trkpt lat="42.33987960103022" lon="13.442789105561328"><ele>650.0</ele><time>2026-05-03T07:13:55.999Z</time></trkpt><trkpt lat="42.33985842060077" lon="13.442897409810712"><ele>650.5</ele><time>2026-05-03T07:13:56.999Z</time></trkpt><trkpt lat="42.339834413170784" lon="13.443008696672331"><ele>651.0</ele><time>2026-05-03T07:13:57.999Z</time></trkpt><trkpt lat="42.339797594913215" lon="13.443117711669212"><ele>651.5</ele><time>2026-05-03T07:13:58.999Z</time></trkpt><trkpt lat="42.3397520754691" lon="13.443225995565985"><ele>652.0</ele><time>2026-05-03T07:13:59.999Z</time></trkpt><trkpt lat="42.33970255455915" lon="13.443335790832661"><ele>652.5</ele><time>2026-05-03T07:14:00.999Z</time></trkpt><trkpt lat="42.339646946334184" lon="13.443414438069084"><ele>653.0</ele><time>2026-05-03T07:14:01.999Z</time></trkpt><trkpt lat="42.33956979382931" lon="13.44348859951906"><ele>653.0</ele><time>2026-05-03T07:14:02.999Z</time></trkpt><trkpt lat="42.33948786594015" lon="13.44357193033887"><ele>653.0</ele><time>2026-05-03T07:14:03.999Z</time></trkpt><trkpt lat="42.339397771905965" lon="13.443659817136018"><ele>653.0</ele><time>2026-05-03T07:14:04.999Z</time></trkpt><trkpt lat="42.339301474124255" lon="13.443721810621538"><ele>653.0</ele><time>2026-05-03T07:14:05.999Z</time></trkpt><trkpt lat="42.33920902733051" lon="13.44376667240234"><ele>653.0</ele><time>2026-05-03T07:14:06.999Z</time></trkpt><trkpt lat="42.339160150412134" lon="13.443943084980667"><ele>653.0</ele><time>2026-05-03T07:14:07.999Z</time></trkpt><trkpt lat="42.33909168550461" lon="13.444028363726623"><ele>653.0</ele><time>2026-05-03T07:14:08.999Z</time></trkpt><trkpt lat="42.339046430907864" lon="13.444124964716712"><ele>653.0</ele><time>2026-05-03T07:14:09.999Z</time></trkpt><trkpt lat="42.33901013094373" lon="13.444217603770253"><ele>653.0</ele><time>2026-05-03T07:14:10.999Z</time></trkpt><trkpt lat="42.33899017887721" lon="13.44429968050949"><ele>653.0</ele><time>2026-05-03T07:14:11.999Z</time></trkpt><trkpt lat="42.338972591641536" lon="13.444473165038254"><ele>653.0</ele><time>2026-05-03T07:14:13.999Z</time></trkpt><trkpt lat="42.33898910350217" lon="13.444591611444963"><ele>652.8333333333333</ele><time>2026-05-03T07:14:14.999Z</time></trkpt><trkpt lat="42.339004298320646" lon="13.444715068447184"><ele>652.6666666666666</ele><time>2026-05-03T07:14:15.999Z</time></trkpt><trkpt lat="42.33900371580246" lon="13.444825768304844"><ele>652.5</ele><time>2026-05-03T07:14:16.999Z</time></trkpt><trkpt lat="42.33899280588131" lon="13.444933324547502"><ele>652.3333333333334</ele><time>2026-05-03T07:14:17.999Z</time></trkpt><trkpt lat="42.338983519294885" lon="13.445039830900459"><ele>652.1666666666667</ele><time>2026-05-03T07:14:18.999Z</time></trkpt><trkpt lat="42.33896754917384" lon="13.445156102770914"><ele>652.0</ele><time>2026-05-03T07:14:19.999Z</time></trkpt><trkpt lat="42.33894652131898" lon="13.44529407770792"><ele>652.0</ele><time>2026-05-03T07:14:20.999Z</time></trkpt><trkpt lat="42.33892260874421" lon="13.445432206486526"><ele>652.0</ele><time>2026-05-03T07:14:21.999Z</time></trkpt><trkpt lat="42.33889723337134" lon="13.445592755204242"><ele>652.0</ele><time>2026-05-03T07:14:22.999Z</time></trkpt><trkpt lat="42.33885307979677" lon="13.44573255443123"><ele>652.0</ele><time>2026-05-03T07:14:23.999Z</time></trkpt><trkpt lat="42.33882096699623" lon="13.44585971458181"><ele>652.0</ele><time>2026-05-03T07:14:24.999Z</time></trkpt><trkpt lat="42.33876983258419" lon="13.44598323228814"><ele>649.0</ele><time>2026-05-03T07:14:25.999Z</time></trkpt><trkpt lat="42.33871541202385" lon="13.4461204697338"><ele>646.0</ele><time>2026-05-03T07:14:26.999Z</time></trkpt><trkpt lat="42.338656847873466" lon="13.446258362345738"><ele>643.0</ele><time>2026-05-03T07:14:27.999Z</time></trkpt><trkpt lat="42.338613380966486" lon="13.446417131843925"><ele>640.0</ele><time>2026-05-03T07:14:28.999Z</time></trkpt><trkpt lat="42.33855319625354" lon="13.446571913023131"><ele>640.0</ele><time>2026-05-03T07:14:29.999Z</time></trkpt><trkpt lat="42.338494842384826" lon="13.446720699693266"><ele>640.0</ele><time>2026-05-03T07:14:30.999Z</time></trkpt><trkpt lat="42.33844859300111" lon="13.446892542263054"><ele>640.0</ele><time>2026-05-03T07:14:31.999Z</time></trkpt><trkpt lat="42.338397841221784" lon="13.447061538928455"><ele>640.0</ele><time>2026-05-03T07:14:32.999Z</time></trkpt><trkpt lat="42.33834982225951" lon="13.447237560592566"><ele>640.25</ele><time>2026-05-03T07:14:33.999Z</time></trkpt><trkpt lat="42.338293129764025" lon="13.447413979771182"><ele>640.5</ele><time>2026-05-03T07:14:34.999Z</time></trkpt><trkpt lat="42.33822408761036" lon="13.447586437679332"><ele>640.75</ele><time>2026-05-03T07:14:35.999Z</time></trkpt><trkpt lat="42.338204286717485" lon="13.447765755140855"><ele>641.0</ele><time>2026-05-03T07:14:36.999Z</time></trkpt><trkpt lat="42.33815739024077" lon="13.447931849162263"><ele>641.0</ele><time>2026-05-03T07:14:37.999Z</time></trkpt><trkpt lat="42.338110556890804" lon="13.448108170154024"><ele>641.0</ele><time>2026-05-03T07:14:38.999Z</time></trkpt><trkpt lat="42.33806175245842" lon="13.448284242995287"><ele>641.0</ele><time>2026-05-03T07:14:39.999Z</time></trkpt><trkpt lat="42.33801131484545" lon="13.448456261953362"><ele>641.0</ele><time>2026-05-03T07:14:40.999Z</time></trkpt><trkpt lat="42.33795970347124" lon="13.448624544922108"><ele>637.0</ele><time>2026-05-03T07:14:41.999Z</time></trkpt><trkpt lat="42.33790999504875" lon="13.448792067205499"><ele>633.0</ele><time>2026-05-03T07:14:42.999Z</time></trkpt><trkpt lat="42.337861606161034" lon="13.448959424282473"><ele>629.0</ele><time>2026-05-03T07:14:43.999Z</time></trkpt><trkpt lat="42.33781958005072" lon="13.449126388259875"><ele>625.0</ele><time>2026-05-03T07:14:44.999Z</time></trkpt><trkpt lat="42.337782730011085" lon="13.449288797128732"><ele>625.0</ele><time>2026-05-03T07:14:45.999Z</time></trkpt><trkpt lat="42.337755557628725" lon="13.449437875827426"><ele>625.0</ele><time>2026-05-03T07:14:46.999Z</time></trkpt><trkpt lat="42.337740009233535" lon="13.449583011383412"><ele>625.0</ele><time>2026-05-03T07:14:47.999Z</time></trkpt><trkpt lat="42.33774632012806" lon="13.449736232340227"><ele>625.0</ele><time>2026-05-03T07:14:48.999Z</time></trkpt><trkpt lat="42.33776287139557" lon="13.449908080444201"><ele>624.75</ele><time>2026-05-03T07:14:49.999Z</time></trkpt><trkpt lat="42.337787916708606" lon="13.450086241538365"><ele>624.5</ele><time>2026-05-03T07:14:50.999Z</time></trkpt><trkpt lat="42.33781118372936" lon="13.450267160231713"><ele>624.25</ele><time>2026-05-03T07:14:51.999Z</time></trkpt><trkpt lat="42.337833966481874" lon="13.450450513585647"><ele>624.0</ele><time>2026-05-03T07:14:52.999Z</time></trkpt><trkpt lat="42.33784666663357" lon="13.450631846674868"><ele>623.5</ele><time>2026-05-03T07:14:53.999Z</time></trkpt><trkpt lat="42.33785450457216" lon="13.450799322532875"><ele>623.0</ele><time>2026-05-03T07:14:54.999Z</time></trkpt><trkpt lat="42.33785966796698" lon="13.450960219496396"><ele>622.5</ele><time>2026-05-03T07:14:55.999Z</time></trkpt><trkpt lat="42.3378657214343" lon="13.451109938541522"><ele>622.0</ele><time>2026-05-03T07:14:56.999Z</time></trkpt><trkpt lat="42.33787233758334" lon="13.451255949403414"><ele>621.6</ele><time>2026-05-03T07:14:57.999Z</time></trkpt><trkpt lat="42.3378831656613" lon="13.451387005201934"><ele>621.2</ele><time>2026-05-03T07:14:58.999Z</time></trkpt><trkpt lat="42.337889650459445" lon="13.451526843816369"><ele>620.8</ele><time>2026-05-03T07:14:59.999Z</time></trkpt><trkpt lat="42.33790019019063" lon="13.451668712568045"><ele>620.4</ele><time>2026-05-03T07:15:00.999Z</time></trkpt><trkpt lat="42.337907796713935" lon="13.45181220923346"><ele>620.0</ele><time>2026-05-03T07:15:01.999Z</time></trkpt><trkpt lat="42.337913453316986" lon="13.451953192316973"><ele>620.0</ele><time>2026-05-03T07:15:03Z</time></trkpt><trkpt lat="42.3379195009201" lon="13.452093215138383"><ele>620.0</ele><time>2026-05-03T07:15:04Z</time></trkpt><trkpt lat="42.33792405853524" lon="13.452223962088533"><ele>620.0</ele><time>2026-05-03T07:15:05Z</time></trkpt><trkpt lat="42.33793142650415" lon="13.452354066423428"><ele>620.0</ele><time>2026-05-03T07:15:06Z</time></trkpt><trkpt lat="42.337943213287204" lon="13.452482219280034"><ele>620.0</ele><time>2026-05-03T07:15:07Z</time></trkpt><trkpt lat="42.33795373977462" lon="13.452607029962534"><ele>619.3333333333333</ele><time>2026-05-03T07:15:08Z</time></trkpt><trkpt lat="42.33795739887499" lon="13.452720063896603"><ele>618.6666666666666</ele><time>2026-05-03T07:15:09Z</time></trkpt><trkpt lat="42.33796427568928" lon="13.452812553618838"><ele>618.0</ele><time>2026-05-03T07:15:10Z</time></trkpt><trkpt lat="42.33797042586945" lon="13.452916363796152"><ele>617.3333333333334</ele><time>2026-05-03T07:15:12Z</time></trkpt><trkpt lat="42.338052389667084" lon="13.452969468266737"><ele>616.6666666666667</ele><time>2026-05-03T07:15:18Z</time></trkpt><trkpt lat="42.33810002911518" lon="13.453101546498024"><ele>616.0</ele><time>2026-05-03T07:15:20Z</time></trkpt><trkpt lat="42.338112857261535" lon="13.453189744249784"><ele>617.8333333333334</ele><time>2026-05-03T07:15:21Z</time></trkpt><trkpt lat="42.33812003454654" lon="13.453284392690792"><ele>619.6666666666667</ele><time>2026-05-03T07:15:22Z</time></trkpt><trkpt lat="42.33813252373764" lon="13.453384016090286"><ele>621.5</ele><time>2026-05-03T07:15:23Z</time></trkpt><trkpt lat="42.3381497756797" lon="13.453475792552824"><ele>623.3333333333334</ele><time>2026-05-03T07:15:24Z</time></trkpt><trkpt lat="42.33817612384755" lon="13.45363898075469"><ele>625.1666666666666</ele><time>2026-05-03T07:15:26Z</time></trkpt><trkpt lat="42.338188021383736" lon="13.4537239636538"><ele>627.0</ele><time>2026-05-03T07:15:27Z</time></trkpt><trkpt lat="42.33818499781087" lon="13.453888742030593"><ele>627.0</ele><time>2026-05-03T07:15:29Z</time></trkpt><trkpt lat="42.33817558789523" lon="13.453981709136915"><ele>627.0</ele><time>2026-05-03T07:15:30Z</time></trkpt><trkpt lat="42.33816028176465" lon="13.454082342798557"><ele>627.0</ele><time>2026-05-03T07:15:31Z</time></trkpt><trkpt lat="42.33814660960433" lon="13.454180381184745"><ele>627.0</ele><time>2026-05-03T07:15:32Z</time></trkpt><trkpt lat="42.33813111231586" lon="13.454273348773311"><ele>627.0</ele><time>2026-05-03T07:15:33Z</time></trkpt><trkpt lat="42.338118799557385" lon="13.454370667161017"><ele>627.0</ele><time>2026-05-03T07:15:34Z</time></trkpt><trkpt lat="42.33810536302582" lon="13.454472213450192"><ele>627.0</ele><time>2026-05-03T07:15:35Z</time></trkpt><trkpt lat="42.33809725141085" lon="13.45457161210598"><ele>626.0</ele><time>2026-05-03T07:15:36Z</time></trkpt><trkpt lat="42.33809638952738" lon="13.454673178298208"><ele>625.0</ele><time>2026-05-03T07:15:37Z</time></trkpt><trkpt lat="42.338097128208865" lon="13.454781174148252"><ele>624.0</ele><time>2026-05-03T07:15:38Z</time></trkpt><trkpt lat="42.338113557035946" lon="13.454891478999768"><ele>623.0</ele><time>2026-05-03T07:15:39Z</time></trkpt><trkpt lat="42.3381315142804" lon="13.454992621743251"><ele>622.0</ele><time>2026-05-03T07:15:40Z</time></trkpt><trkpt lat="42.33815578422646" lon="13.455085335289331"><ele>621.0</ele><time>2026-05-03T07:15:41Z</time></trkpt><trkpt lat="42.33818118026578" lon="13.455174056000896"><ele>621.0</ele><time>2026-05-03T07:15:42Z</time></trkpt><trkpt lat="42.338225140460956" lon="13.455325854198064"><ele>621.0</ele><time>2026-05-03T07:15:44Z</time></trkpt><trkpt lat="42.33823589328301" lon="13.455449693858693"><ele>621.0</ele><time>2026-05-03T07:15:46Z</time></trkpt><trkpt lat="42.33816921088084" lon="13.45552034413364"><ele>621.0</ele><time>2026-05-03T07:15:48Z</time></trkpt><trkpt lat="42.33808520838706" lon="13.455484651066635"><ele>621.0</ele><time>2026-05-03T07:15:50Z</time></trkpt><trkpt lat="42.338019852391426" lon="13.455514215091542"><ele>617.8</ele><time>2026-05-03T07:15:53Z</time></trkpt><trkpt lat="42.338050307305544" lon="13.455589766502722"><ele>614.6</ele><time>2026-05-03T07:15:56Z</time></trkpt><trkpt lat="42.338171941648554" lon="13.455597844697701"><ele>611.4</ele><time>2026-05-03T07:15:58Z</time></trkpt><trkpt lat="42.338254796160555" lon="13.455628276899924"><ele>608.2</ele><time>2026-05-03T07:15:59Z</time></trkpt><trkpt lat="42.338352615141716" lon="13.455666809644383"><ele>605.0</ele><time>2026-05-03T07:16:00Z</time></trkpt><trkpt lat="42.33846874973886" lon="13.455707355443526"><ele>605.0</ele><time>2026-05-03T07:16:00.999Z</time></trkpt><trkpt lat="42.338589290938124" lon="13.455740156497924"><ele>605.0</ele><time>2026-05-03T07:16:01.999Z</time></trkpt><trkpt lat="42.338707680381816" lon="13.455786588084747"><ele>605.0</ele><time>2026-05-03T07:16:02.999Z</time></trkpt><trkpt lat="42.338822598555105" lon="13.455830576899146"><ele>605.0</ele><time>2026-05-03T07:16:03.999Z</time></trkpt><trkpt lat="42.3389357480439" lon="13.45587860265852"><ele>606.25</ele><time>2026-05-03T07:16:04.999Z</time></trkpt><trkpt lat="42.33904511956405" lon="13.455929936175593"><ele>607.5</ele><time>2026-05-03T07:16:05.999Z</time></trkpt><trkpt lat="42.33915881312515" lon="13.455963189871255"><ele>608.75</ele><time>2026-05-03T07:16:06.999Z</time></trkpt><trkpt lat="42.33927162180872" lon="13.455977290847068"><ele>610.0</ele><time>2026-05-03T07:16:07.999Z</time></trkpt><trkpt lat="42.33937853397838" lon="13.455976992924578"><ele>610.0</ele><time>2026-05-03T07:16:08.999Z</time></trkpt><trkpt lat="42.33948219611426" lon="13.455977429189486"><ele>610.0</ele><time>2026-05-03T07:16:09.999Z</time></trkpt><trkpt lat="42.33957366345708" lon="13.455987311463694"><ele>610.0</ele><time>2026-05-03T07:16:10.999Z</time></trkpt><trkpt lat="42.33965484589757" lon="13.45604713788073"><ele>610.0</ele><time>2026-05-03T07:16:11.999Z</time></trkpt><trkpt lat="42.33971018419154" lon="13.456142100822573"><ele>610.0</ele><time>2026-05-03T07:16:12.999Z</time></trkpt><trkpt lat="42.33973591025472" lon="13.456261500634032"><ele>608.5</ele><time>2026-05-03T07:16:13.999Z</time></trkpt><trkpt lat="42.33974036625604" lon="13.456383077374268"><ele>607.0</ele><time>2026-05-03T07:16:14.999Z</time></trkpt><trkpt lat="42.339738943524374" lon="13.456489461436563"><ele>605.5</ele><time>2026-05-03T07:16:15.999Z</time></trkpt><trkpt lat="42.33975059070145" lon="13.456614586047875"><ele>604.0</ele><time>2026-05-03T07:16:17.999Z</time></trkpt><trkpt lat="42.33980103981563" lon="13.45667860059389"><ele>602.5</ele><time>2026-05-03T07:16:22.999Z</time></trkpt><trkpt lat="42.339875039599576" lon="13.456703570565779"><ele>601.0</ele><time>2026-05-03T07:16:23.999Z</time></trkpt><trkpt lat="42.33998130013388" lon="13.456718951646545"><ele>601.0</ele><time>2026-05-03T07:16:24.999Z</time></trkpt><trkpt lat="42.34009617011466" lon="13.45674423887962"><ele>601.0</ele><time>2026-05-03T07:16:25.999Z</time></trkpt><trkpt lat="42.34021964730071" lon="13.456782778754196"><ele>601.0</ele><time>2026-05-03T07:16:26.999Z</time></trkpt><trkpt lat="42.34036968643264" lon="13.456830755199816"><ele>601.0</ele><time>2026-05-03T07:16:27.999Z</time></trkpt><trkpt lat="42.34051475161381" lon="13.456895307873179"><ele>600.6666666666667</ele><time>2026-05-03T07:16:28.999Z</time></trkpt><trkpt lat="42.34066761889318" lon="13.456957820132283"><ele>600.3333333333334</ele><time>2026-05-03T07:16:29.999Z</time></trkpt><trkpt lat="42.34082643537397" lon="13.457025668120055"><ele>600.0</ele><time>2026-05-03T07:16:30.999Z</time></trkpt><trkpt lat="42.34098371308674" lon="13.457098961916758"><ele>600.3333333333334</ele><time>2026-05-03T07:16:31.999Z</time></trkpt><trkpt lat="42.34113390206186" lon="13.457178255810458"><ele>600.6666666666667</ele><time>2026-05-03T07:16:32.999Z</time></trkpt><trkpt lat="42.341270566761395" lon="13.457272365160925"><ele>601.0</ele><time>2026-05-03T07:16:33.999Z</time></trkpt><trkpt lat="42.34139797820591" lon="13.457390282466783"><ele>601.0</ele><time>2026-05-03T07:16:34.999Z</time></trkpt><trkpt lat="42.34151672617877" lon="13.457529486408811"><ele>601.0</ele><time>2026-05-03T07:16:35.999Z</time></trkpt><trkpt lat="42.34163143824733" lon="13.457687976506627"><ele>601.0</ele><time>2026-05-03T07:16:36.999Z</time></trkpt><trkpt lat="42.34174402035732" lon="13.457851817697312"><ele>601.0</ele><time>2026-05-03T07:16:37.999Z</time></trkpt><trkpt lat="42.34186108779325" lon="13.458017535386897"><ele>601.0</ele><time>2026-05-03T07:16:38.999Z</time></trkpt><trkpt lat="42.34198278539047" lon="13.458175852690939"><ele>601.0</ele><time>2026-05-03T07:16:39.999Z</time></trkpt><trkpt lat="42.3421151133081" lon="13.458339898796378"><ele>601.0</ele><time>2026-05-03T07:16:40.999Z</time></trkpt><trkpt lat="42.342240523107726" lon="13.458504591771103"><ele>601.0</ele><time>2026-05-03T07:16:41.999Z</time></trkpt><trkpt lat="42.342363605657404" lon="13.458669065448053"><ele>601.0</ele><time>2026-05-03T07:16:42.999Z</time></trkpt><trkpt lat="42.34248938040233" lon="13.458832412118285"><ele>601.0</ele><time>2026-05-03T07:16:43.999Z</time></trkpt><trkpt lat="42.34261138639344" lon="13.45899208706279"><ele>601.0</ele><time>2026-05-03T07:16:44.999Z</time></trkpt><trkpt lat="42.34272999375331" lon="13.45914986394015"><ele>601.0</ele><time>2026-05-03T07:16:45.999Z</time></trkpt><trkpt lat="42.34285300189705" lon="13.45930744266821"><ele>601.0</ele><time>2026-05-03T07:16:46.999Z</time></trkpt><trkpt lat="42.34297281357068" lon="13.459467471567828"><ele>601.0</ele><time>2026-05-03T07:16:47.999Z</time></trkpt><trkpt lat="42.3430888341576" lon="13.45963081276969"><ele>601.0</ele><time>2026-05-03T07:16:48.999Z</time></trkpt><trkpt lat="42.34320678460076" lon="13.459776457993923"><ele>602.6666666666667</ele><time>2026-05-03T07:16:49.999Z</time></trkpt><trkpt lat="42.34331872223876" lon="13.45992361328889"><ele>604.3333333333334</ele><time>2026-05-03T07:16:50.999Z</time></trkpt><trkpt lat="42.34342862675079" lon="13.460076731201129"><ele>606.0</ele><time>2026-05-03T07:16:51.999Z</time></trkpt><trkpt lat="42.34353690581354" lon="13.460214281918443"><ele>606.0</ele><time>2026-05-03T07:16:52.999Z</time></trkpt><trkpt lat="42.34364588227808" lon="13.46036105035371"><ele>606.0</ele><time>2026-05-03T07:16:53.999Z</time></trkpt><trkpt lat="42.34374629014266" lon="13.460493873613954"><ele>606.0</ele><time>2026-05-03T07:16:54.999Z</time></trkpt><trkpt lat="42.34383740938286" lon="13.460621824142121"><ele>606.0</ele><time>2026-05-03T07:16:55.999Z</time></trkpt><trkpt lat="42.34392325126823" lon="13.460727622034122"><ele>607.0</ele><time>2026-05-03T07:16:56.999Z</time></trkpt><trkpt lat="42.344011496495604" lon="13.460809428289753"><ele>608.0</ele><time>2026-05-03T07:16:57.999Z</time></trkpt><trkpt lat="42.34408577365342" lon="13.460933078313333"><ele>609.0</ele><time>2026-05-03T07:16:58.999Z</time></trkpt><trkpt lat="42.34416838617425" lon="13.461032431464307"><ele>610.0</ele><time>2026-05-03T07:16:59.999Z</time></trkpt><trkpt lat="42.3442628895709" lon="13.461143598041925"><ele>610.0</ele><time>2026-05-03T07:17:00.999Z</time></trkpt><trkpt lat="42.34436369680937" lon="13.46127560015464"><ele>610.0</ele><time>2026-05-03T07:17:01.999Z</time></trkpt><trkpt lat="42.34447028473419" lon="13.461414137570415"><ele>610.0</ele><time>2026-05-03T07:17:02.999Z</time></trkpt><trkpt lat="42.344590637213464" lon="13.461539874731505"><ele>610.0</ele><time>2026-05-03T07:17:03.999Z</time></trkpt><trkpt lat="42.34473202473451" lon="13.46166651372577"><ele>610.5</ele><time>2026-05-03T07:17:04.999Z</time></trkpt><trkpt lat="42.34485999451191" lon="13.461787147857933"><ele>611.0</ele><time>2026-05-03T07:17:05.999Z</time></trkpt><trkpt lat="42.344932195974124" lon="13.461917173914172"><ele>611.5</ele><time>2026-05-03T07:17:06.999Z</time></trkpt><trkpt lat="42.3450401508308" lon="13.462031316547293"><ele>612.0</ele><time>2026-05-03T07:17:07.999Z</time></trkpt><trkpt lat="42.34515140499293" lon="13.462139173804594"><ele>612.0</ele><time>2026-05-03T07:17:09Z</time></trkpt><trkpt lat="42.34525703943067" lon="13.462255801742629"><ele>612.0</ele><time>2026-05-03T07:17:10Z</time></trkpt><trkpt lat="42.34536400573025" lon="13.462331095240916"><ele>612.0</ele><time>2026-05-03T07:17:11Z</time></trkpt><trkpt lat="42.345446839271816" lon="13.462397152059053"><ele>612.0</ele><time>2026-05-03T07:17:12Z</time></trkpt><trkpt lat="42.34550219240278" lon="13.462448066717613"><ele>612.0</ele><time>2026-05-03T07:17:13Z</time></trkpt><trkpt lat="42.34556411789083" lon="13.462519841692112"><ele>612.0</ele><time>2026-05-03T07:17:15Z</time></trkpt><trkpt lat="42.34550056716766" lon="13.46263628702937"><ele>612.0</ele><time>2026-05-03T07:17:18Z</time></trkpt><trkpt lat="42.3454557448539" lon="13.46269799627249"><ele>612.0</ele><time>2026-05-03T07:17:19Z</time></trkpt><trkpt lat="42.34539678349896" lon="13.46277107868142"><ele>612.0</ele><time>2026-05-03T07:17:20Z</time></trkpt><trkpt lat="42.34532480354822" lon="13.462850164784701"><ele>612.0</ele><time>2026-05-03T07:17:21Z</time></trkpt><trkpt lat="42.34526096733363" lon="13.46292189197182"><ele>612.0</ele><time>2026-05-03T07:17:22Z</time></trkpt><trkpt lat="42.34521452521126" lon="13.463005087209257"><ele>612.4</ele><time>2026-05-03T07:17:23Z</time></trkpt><trkpt lat="42.34517512561662" lon="13.463088660437194"><ele>612.8000000000001</ele><time>2026-05-03T07:17:24Z</time></trkpt><trkpt lat="42.345105103849804" lon="13.463232375913854"><ele>613.2</ele><time>2026-05-03T07:17:26Z</time></trkpt><trkpt lat="42.3450515061517" lon="13.463313335921752"><ele>613.6</ele><time>2026-05-03T07:17:27Z</time></trkpt><trkpt lat="42.34500358805419" lon="13.463395508047311"><ele>614.0</ele><time>2026-05-03T07:17:28Z</time></trkpt><trkpt lat="42.344927618986354" lon="13.463566642704446"><ele>614.0</ele><time>2026-05-03T07:17:30Z</time></trkpt><trkpt lat="42.344886253697" lon="13.46366752070611"><ele>614.0</ele><time>2026-05-03T07:17:31Z</time></trkpt><trkpt lat="42.34485745464344" lon="13.463758076640593"><ele>614.0</ele><time>2026-05-03T07:17:32Z</time></trkpt><trkpt lat="42.34482864334475" lon="13.463908778079178"><ele>614.0</ele><time>2026-05-03T07:17:34Z</time></trkpt><trkpt lat="42.34477029759429" lon="13.463963134642702"><ele>614.0</ele><time>2026-05-03T07:17:47Z</time></trkpt><trkpt lat="42.34483547981028" lon="13.46384747721218"><ele>614.0</ele><time>2026-05-03T07:18:08.999Z</time></trkpt><trkpt lat="42.34485586295383" lon="13.463750573531147"><ele>614.0</ele><time>2026-05-03T07:18:09.999Z</time></trkpt><trkpt lat="42.344877302476554" lon="13.463653845572924"><ele>614.0</ele><time>2026-05-03T07:18:10.999Z</time></trkpt><trkpt lat="42.34492791759455" lon="13.463517508202456"><ele>614.0</ele><time>2026-05-03T07:18:12.999Z</time></trkpt><trkpt lat="42.34498925909167" lon="13.46339725283732"><ele>614.0</ele><time>2026-05-03T07:18:14.999Z</time></trkpt><trkpt lat="42.345052253888745" lon="13.463278028307492"><ele>614.0</ele><time>2026-05-03T07:18:16.999Z</time></trkpt><trkpt lat="42.34511775758648" lon="13.463175133406288"><ele>614.0</ele><time>2026-05-03T07:18:18.999Z</time></trkpt><trkpt lat="42.34517155617898" lon="13.463070108572644"><ele>614.0</ele><time>2026-05-03T07:18:20.999Z</time></trkpt><trkpt lat="42.345242170598915" lon="13.462933852939884"><ele>614.0</ele><time>2026-05-03T07:18:22.999Z</time></trkpt><trkpt lat="42.345319327264804" lon="13.462825329679683"><ele>614.0</ele><time>2026-05-03T07:18:24.999Z</time></trkpt><trkpt lat="42.345396502009045" lon="13.462738304799373"><ele>614.1666666666666</ele><time>2026-05-03T07:18:26.999Z</time></trkpt><trkpt lat="42.345467663731654" lon="13.462639320411746"><ele>614.3333333333333</ele><time>2026-05-03T07:18:28.999Z</time></trkpt><trkpt lat="42.345509217728264" lon="13.462567579427525"><ele>614.5</ele><time>2026-05-03T07:18:30.999Z</time></trkpt><trkpt lat="42.34557762663087" lon="13.462525686739168"><ele>614.6666666666666</ele><time>2026-05-03T07:18:51.999Z</time></trkpt><trkpt lat="42.34561100079798" lon="13.462603717717569"><ele>614.8333333333334</ele><time>2026-05-03T07:18:53.999Z</time></trkpt><trkpt lat="42.345559839545096" lon="13.462715315220375"><ele>615.0</ele><time>2026-05-03T07:18:55.999Z</time></trkpt><trkpt lat="42.34551106501531" lon="13.462773453316965"><ele>614.8</ele><time>2026-05-03T07:18:56.999Z</time></trkpt><trkpt lat="42.34545308049002" lon="13.46284250167907"><ele>614.6</ele><time>2026-05-03T07:18:57.999Z</time></trkpt><trkpt lat="42.345397998878276" lon="13.462916573889366"><ele>614.4</ele><time>2026-05-03T07:18:58.999Z</time></trkpt><trkpt lat="42.34533407830508" lon="13.463000442235009"><ele>614.2</ele><time>2026-05-03T07:18:59.999Z</time></trkpt><trkpt lat="42.345266196932" lon="13.463099603327933"><ele>614.0</ele><time>2026-05-03T07:19:00.999Z</time></trkpt><trkpt lat="42.3452002788248" lon="13.463215965769075"><ele>614.0</ele><time>2026-05-03T07:19:01.999Z</time></trkpt><trkpt lat="42.345139902245236" lon="13.463330921684953"><ele>614.0</ele><time>2026-05-03T07:19:02.999Z</time></trkpt><trkpt lat="42.34508113080562" lon="13.463453225325091"><ele>614.0</ele><time>2026-05-03T07:19:03.999Z</time></trkpt><trkpt lat="42.345021610976005" lon="13.463586409373168"><ele>614.0</ele><time>2026-05-03T07:19:04.999Z</time></trkpt><trkpt lat="42.34497078175038" lon="13.463737419908277"><ele>614.25</ele><time>2026-05-03T07:19:05.999Z</time></trkpt><trkpt lat="42.344931768677235" lon="13.463903138457429"><ele>614.5</ele><time>2026-05-03T07:19:06.999Z</time></trkpt><trkpt lat="42.3448995105667" lon="13.464062193354446"><ele>614.75</ele><time>2026-05-03T07:19:07.999Z</time></trkpt><trkpt lat="42.34486950694712" lon="13.46422301835636"><ele>615.0</ele><time>2026-05-03T07:19:08.999Z</time></trkpt><trkpt lat="42.344838639357675" lon="13.464381110169468"><ele>615.0</ele><time>2026-05-03T07:19:09.999Z</time></trkpt><trkpt lat="42.344802819055815" lon="13.464519853206186"><ele>615.0</ele><time>2026-05-03T07:19:10.999Z</time></trkpt><trkpt lat="42.34476105522674" lon="13.464658201729149"><ele>615.0</ele><time>2026-05-03T07:19:11.999Z</time></trkpt><trkpt lat="42.344728978251474" lon="13.464807902617789"><ele>615.0</ele><time>2026-05-03T07:19:12.999Z</time></trkpt><trkpt lat="42.34469407030816" lon="13.464956062844657"><ele>615.0</ele><time>2026-05-03T07:19:13.999Z</time></trkpt><trkpt lat="42.3446620390867" lon="13.465085349112261"><ele>614.8</ele><time>2026-05-03T07:19:15Z</time></trkpt><trkpt lat="42.34464357648621" lon="13.465196916064377"><ele>614.6</ele><time>2026-05-03T07:19:16Z</time></trkpt><trkpt lat="42.34461864886367" lon="13.465318548647744"><ele>614.4</ele><time>2026-05-03T07:19:17Z</time></trkpt><trkpt lat="42.344587056973026" lon="13.465434782925225"><ele>614.2</ele><time>2026-05-03T07:19:18Z</time></trkpt><trkpt lat="42.3445384549619" lon="13.465555362700412"><ele>614.0</ele><time>2026-05-03T07:19:19Z</time></trkpt><trkpt lat="42.34449553586921" lon="13.465662975782127"><ele>614.0</ele><time>2026-05-03T07:19:20Z</time></trkpt><trkpt lat="42.3444578138967" lon="13.465763249185954"><ele>614.0</ele><time>2026-05-03T07:19:21Z</time></trkpt><trkpt lat="42.34442699985387" lon="13.465849271484306"><ele>614.0</ele><time>2026-05-03T07:19:22Z</time></trkpt><trkpt lat="42.3443798578072" lon="13.46597759269846"><ele>614.0</ele><time>2026-05-03T07:19:24Z</time></trkpt><trkpt lat="42.344403766562095" lon="13.46607881640097"><ele>614.0</ele><time>2026-05-03T07:19:26Z</time></trkpt><trkpt lat="42.34452047413875" lon="13.466165233417572"><ele>614.0</ele><time>2026-05-03T07:19:28Z</time></trkpt><trkpt lat="42.344603194434995" lon="13.466192442666511"><ele>614.0</ele><time>2026-05-03T07:19:29Z</time></trkpt><trkpt lat="42.3446943816685" lon="13.466225158911815"><ele>614.0</ele><time>2026-05-03T07:19:30Z</time></trkpt><trkpt lat="42.34479113373328" lon="13.466254390618554"><ele>614.0</ele><time>2026-05-03T07:19:31Z</time></trkpt><trkpt lat="42.34488136676485" lon="13.466275360259452"><ele>614.0</ele><time>2026-05-03T07:19:32Z</time></trkpt><trkpt lat="42.3449659837419" lon="13.466290476462817"><ele>614.1666666666666</ele><time>2026-05-03T07:19:33Z</time></trkpt><trkpt lat="42.345040083068234" lon="13.466298392910556"><ele>614.3333333333333</ele><time>2026-05-03T07:19:34Z</time></trkpt><trkpt lat="42.34512502129154" lon="13.466301735535717"><ele>614.5</ele><time>2026-05-03T07:19:35Z</time></trkpt><trkpt lat="42.34521750973315" lon="13.466294819507224"><ele>614.6666666666666</ele><time>2026-05-03T07:19:36Z</time></trkpt><trkpt lat="42.34530188344487" lon="13.46628671320584"><ele>614.8333333333334</ele><time>2026-05-03T07:19:37Z</time></trkpt><trkpt lat="42.345382848053816" lon="13.466278590420378"><ele>615.0</ele><time>2026-05-03T07:19:38Z</time></trkpt><trkpt lat="42.345467135582105" lon="13.466293449325535"><ele>615.8</ele><time>2026-05-03T07:19:39Z</time></trkpt><trkpt lat="42.34555503161217" lon="13.466333987627808"><ele>616.6</ele><time>2026-05-03T07:19:40Z</time></trkpt><trkpt lat="42.345639531721176" lon="13.466379485941935"><ele>617.4</ele><time>2026-05-03T07:19:41Z</time></trkpt><trkpt lat="42.34573278546885" lon="13.466427840296163"><ele>618.2</ele><time>2026-05-03T07:19:42Z</time></trkpt><trkpt lat="42.34581886268257" lon="13.466484683136068"><ele>619.0</ele><time>2026-05-03T07:19:43Z</time></trkpt><trkpt lat="42.345914634668134" lon="13.466534899900616"><ele>619.0</ele><time>2026-05-03T07:19:44Z</time></trkpt><trkpt lat="42.34600607069495" lon="13.466592749847553"><ele>619.0</ele><time>2026-05-03T07:19:45Z</time></trkpt><trkpt lat="42.346095407144" lon="13.466652976831902"><ele>619.0</ele><time>2026-05-03T07:19:46Z</time></trkpt><trkpt lat="42.34617328277964" lon="13.466713732573481"><ele>619.0</ele><time>2026-05-03T07:19:47Z</time></trkpt><trkpt lat="42.346253656665915" lon="13.466773966397342"><ele>619.0</ele><time>2026-05-03T07:19:48Z</time></trkpt><trkpt lat="42.34632780181704" lon="13.466851152772573"><ele>619.4</ele><time>2026-05-03T07:19:49Z</time></trkpt><trkpt lat="42.34640729127475" lon="13.466935046050464"><ele>619.8</ele><time>2026-05-03T07:19:50Z</time></trkpt><trkpt lat="42.34648186242404" lon="13.467024120174269"><ele>620.2</ele><time>2026-05-03T07:19:51Z</time></trkpt><trkpt lat="42.34656022519242" lon="13.467114707069449"><ele>620.6</ele><time>2026-05-03T07:19:52Z</time></trkpt><trkpt lat="42.34662379261487" lon="13.467202653856463"><ele>621.0</ele><time>2026-05-03T07:19:53Z</time></trkpt><trkpt lat="42.34669954671493" lon="13.467285544891118"><ele>621.0</ele><time>2026-05-03T07:19:54Z</time></trkpt><trkpt lat="42.346735767620515" lon="13.46746225930092"><ele>621.0</ele><time>2026-05-03T07:19:55Z</time></trkpt><trkpt lat="42.346806468419096" lon="13.467577616308695"><ele>621.0</ele><time>2026-05-03T07:19:56Z</time></trkpt><trkpt lat="42.34687735158759" lon="13.467686407313998"><ele>621.0</ele><time>2026-05-03T07:19:57Z</time></trkpt><trkpt lat="42.34694160242483" lon="13.467793226663956"><ele>621.0</ele><time>2026-05-03T07:19:58Z</time></trkpt><trkpt lat="42.347007395871294" lon="13.46788167105088"><ele>621.0</ele><time>2026-05-03T07:19:59Z</time></trkpt><trkpt lat="42.3470780157266" lon="13.467920464428548"><ele>621.0</ele><time>2026-05-03T07:20:00Z</time></trkpt><trkpt lat="42.34716616710795" lon="13.467910247585333"><ele>621.0</ele><time>2026-05-03T07:20:01Z</time></trkpt><trkpt lat="42.34725900155826" lon="13.467883403948946"><ele>621.0</ele><time>2026-05-03T07:20:02Z</time></trkpt><trkpt lat="42.34735472363576" lon="13.467851093992445"><ele>621.4</ele><time>2026-05-03T07:20:03Z</time></trkpt><trkpt lat="42.3474468256573" lon="13.467830503471554"><ele>621.8</ele><time>2026-05-03T07:20:04Z</time></trkpt><trkpt lat="42.34753348583682" lon="13.467833558034872"><ele>622.1999999999999</ele><time>2026-05-03T07:20:05Z</time></trkpt><trkpt lat="42.34762965579933" lon="13.467861364737612"><ele>622.6</ele><time>2026-05-03T07:20:06Z</time></trkpt><trkpt lat="42.34771989732903" lon="13.46790871786779"><ele>623.0</ele><time>2026-05-03T07:20:07Z</time></trkpt><trkpt lat="42.347820731111725" lon="13.46796210856738"><ele>623.25</ele><time>2026-05-03T07:20:08Z</time></trkpt><trkpt lat="42.34793809599827" lon="13.468006610584553"><ele>623.5</ele><time>2026-05-03T07:20:09Z</time></trkpt><trkpt lat="42.34806234877226" lon="13.468044988922301"><ele>623.75</ele><time>2026-05-03T07:20:10Z</time></trkpt><trkpt lat="42.34819548538082" lon="13.468082784657446"><ele>624.0</ele><time>2026-05-03T07:20:11Z</time></trkpt><trkpt lat="42.34833137875057" lon="13.468134879874047"><ele>624.25</ele><time>2026-05-03T07:20:12Z</time></trkpt><trkpt lat="42.34846935147886" lon="13.468193262292347"><ele>624.5</ele><time>2026-05-03T07:20:12.999Z</time></trkpt><trkpt lat="42.34860288403965" lon="13.468260915016513"><ele>624.75</ele><time>2026-05-03T07:20:13.999Z</time></trkpt><trkpt lat="42.34873045099077" lon="13.468323691221"><ele>625.0</ele><time>2026-05-03T07:20:14.999Z</time></trkpt><trkpt lat="42.348853908150495" lon="13.468372530870372"><ele>625.6</ele><time>2026-05-03T07:20:15.999Z</time></trkpt><trkpt lat="42.348967346334646" lon="13.468413623854586"><ele>626.2</ele><time>2026-05-03T07:20:16.999Z</time></trkpt><trkpt lat="42.349073534770326" lon="13.468443684797522"><ele>626.8</ele><time>2026-05-03T07:20:17.999Z</time></trkpt><trkpt lat="42.349177893522" lon="13.468471420225598"><ele>627.4</ele><time>2026-05-03T07:20:18.999Z</time></trkpt><trkpt lat="42.3492714431628" lon="13.468474899005757"><ele>628.0</ele><time>2026-05-03T07:20:19.999Z</time></trkpt><trkpt lat="42.34934861714587" lon="13.46847252227549"><ele>628.0</ele><time>2026-05-03T07:20:20.999Z</time></trkpt><trkpt lat="42.34943104512143" lon="13.46847320339211"><ele>628.0</ele><time>2026-05-03T07:20:21.999Z</time></trkpt><trkpt lat="42.349532387914515" lon="13.468480936801386"><ele>628.0</ele><time>2026-05-03T07:20:22.999Z</time></trkpt><trkpt lat="42.34964071479072" lon="13.468486883171472"><ele>628.0</ele><time>2026-05-03T07:20:23.999Z</time></trkpt><trkpt lat="42.34975725325835" lon="13.468488962408939"><ele>628.0</ele><time>2026-05-03T07:20:24.999Z</time></trkpt><trkpt lat="42.34986914665673" lon="13.468477779219544"><ele>628.1999999999999</ele><time>2026-05-03T07:20:25.999Z</time></trkpt><trkpt lat="42.34996959404773" lon="13.468484614125336"><ele>628.4</ele><time>2026-05-03T07:20:26.999Z</time></trkpt><trkpt lat="42.35005804832083" lon="13.468510781578457"><ele>628.5999999999999</ele><time>2026-05-03T07:20:27.999Z</time></trkpt><trkpt lat="42.350151299220826" lon="13.468558071717297"><ele>628.8</ele><time>2026-05-03T07:20:28.999Z</time></trkpt><trkpt lat="42.350240898275175" lon="13.468628677589168"><ele>629.0</ele><time>2026-05-03T07:20:29.999Z</time></trkpt><trkpt lat="42.35032986365865" lon="13.468723846969116"><ele>629.0</ele><time>2026-05-03T07:20:30.999Z</time></trkpt><trkpt lat="42.350421864765856" lon="13.468826569212919"><ele>629.0</ele><time>2026-05-03T07:20:31.999Z</time></trkpt><trkpt lat="42.35051699777438" lon="13.468922934818506"><ele>629.0</ele><time>2026-05-03T07:20:32.999Z</time></trkpt><trkpt lat="42.35060374070553" lon="13.468990073801399"><ele>629.0</ele><time>2026-05-03T07:20:33.999Z</time></trkpt><trkpt lat="42.35069847951706" lon="13.469033680334691"><ele>629.0</ele><time>2026-05-03T07:20:34.999Z</time></trkpt><trkpt lat="42.35079438293399" lon="13.469056676811467"><ele>629.4</ele><time>2026-05-03T07:20:35.999Z</time></trkpt><trkpt lat="42.350890452637834" lon="13.469061764922136"><ele>629.8</ele><time>2026-05-03T07:20:36.999Z</time></trkpt><trkpt lat="42.35098672031073" lon="13.469065434930714"><ele>630.2</ele><time>2026-05-03T07:20:37.999Z</time></trkpt><trkpt lat="42.351091488981204" lon="13.469029304777374"><ele>630.6</ele><time>2026-05-03T07:20:38.999Z</time></trkpt><trkpt lat="42.35118544261791" lon="13.46900026866924"><ele>631.0</ele><time>2026-05-03T07:20:39.999Z</time></trkpt><trkpt lat="42.35127716019729" lon="13.46894070440821"><ele>631.0</ele><time>2026-05-03T07:20:40.999Z</time></trkpt><trkpt lat="42.351359115039635" lon="13.46887186070166"><ele>631.0</ele><time>2026-05-03T07:20:41.999Z</time></trkpt><trkpt lat="42.351423214987086" lon="13.468802376148382"><ele>631.0</ele><time>2026-05-03T07:20:42.999Z</time></trkpt><trkpt lat="42.35147410967423" lon="13.46873697830171"><ele>631.0</ele><time>2026-05-03T07:20:43.999Z</time></trkpt><trkpt lat="42.35157278355703" lon="13.468636954531771"><ele>631.0</ele><time>2026-05-03T07:20:45.999Z</time></trkpt><trkpt lat="42.351641802051844" lon="13.468644193853757"><ele>631.0</ele><time>2026-05-03T07:20:46.999Z</time></trkpt><trkpt lat="42.35171244671522" lon="13.46870206457593"><ele>632.0</ele><time>2026-05-03T07:20:47.999Z</time></trkpt><trkpt lat="42.35177714740416" lon="13.468793702271949"><ele>633.0</ele><time>2026-05-03T07:20:48.999Z</time></trkpt><trkpt lat="42.35185097675072" lon="13.468902114527936"><ele>634.0</ele><time>2026-05-03T07:20:49.999Z</time></trkpt><trkpt lat="42.351933242929185" lon="13.46901727605443"><ele>635.0</ele><time>2026-05-03T07:20:50.999Z</time></trkpt><trkpt lat="42.352025218905816" lon="13.469130500267262"><ele>636.0</ele><time>2026-05-03T07:20:51.999Z</time></trkpt><trkpt lat="42.3521142600034" lon="13.469240597962576"><ele>636.0</ele><time>2026-05-03T07:20:52.999Z</time></trkpt><trkpt lat="42.35220238997687" lon="13.469337811803063"><ele>636.0</ele><time>2026-05-03T07:20:53.999Z</time></trkpt><trkpt lat="42.352296052369944" lon="13.469446255232857"><ele>636.0</ele><time>2026-05-03T07:20:54.999Z</time></trkpt><trkpt lat="42.352385270862264" lon="13.469549486729873"><ele>636.0</ele><time>2026-05-03T07:20:55.999Z</time></trkpt><trkpt lat="42.35247559775691" lon="13.469651099104222"><ele>636.6</ele><time>2026-05-03T07:20:56.999Z</time></trkpt><trkpt lat="42.35256259560458" lon="13.469748121322919"><ele>637.2</ele><time>2026-05-03T07:20:57.999Z</time></trkpt><trkpt lat="42.35263923796009" lon="13.46983780520726"><ele>637.8</ele><time>2026-05-03T07:20:58.999Z</time></trkpt><trkpt lat="42.35270203435146" lon="13.469908827612779"><ele>638.4</ele><time>2026-05-03T07:20:59.999Z</time></trkpt><trkpt lat="42.35277043685599" lon="13.469991794241919"><ele>639.0</ele><time>2026-05-03T07:21:01.999Z</time></trkpt><trkpt lat="42.35282040835925" lon="13.470052798109784"><ele>639.0</ele><time>2026-05-03T07:21:03.999Z</time></trkpt><trkpt lat="42.35290881575299" lon="13.470159330057001"><ele>639.0</ele><time>2026-05-03T07:21:05.999Z</time></trkpt><trkpt lat="42.35296193939424" lon="13.470237010523716"><ele>639.0</ele><time>2026-05-03T07:21:06.999Z</time></trkpt><trkpt lat="42.353022308027484" lon="13.470335816520068"><ele>639.0</ele><time>2026-05-03T07:21:07.999Z</time></trkpt><trkpt lat="42.35309330285083" lon="13.47044496738753"><ele>639.0</ele><time>2026-05-03T07:21:08.999Z</time></trkpt><trkpt lat="42.35316215073997" lon="13.470563961749809"><ele>639.6</ele><time>2026-05-03T07:21:09.999Z</time></trkpt><trkpt lat="42.353232957282145" lon="13.470688454036596"><ele>640.2</ele><time>2026-05-03T07:21:10.999Z</time></trkpt><trkpt lat="42.353299556239996" lon="13.470806197590134"><ele>640.8000000000001</ele><time>2026-05-03T07:21:11.999Z</time></trkpt><trkpt lat="42.353353020815334" lon="13.470923511954354"><ele>641.4</ele><time>2026-05-03T07:21:12.999Z</time></trkpt><trkpt lat="42.353397002655306" lon="13.471040953547497"><ele>642.0</ele><time>2026-05-03T07:21:13.999Z</time></trkpt><trkpt lat="42.35344322574056" lon="13.47115458737696"><ele>642.0</ele><time>2026-05-03T07:21:14.999Z</time></trkpt><trkpt lat="42.35349995131585" lon="13.471256463904542"><ele>642.0</ele><time>2026-05-03T07:21:15.999Z</time></trkpt><trkpt lat="42.353561020817935" lon="13.471343316725278"><ele>642.0</ele><time>2026-05-03T07:21:16.999Z</time></trkpt><trkpt lat="42.35361437320085" lon="13.47140764556107"><ele>642.0</ele><time>2026-05-03T07:21:17.999Z</time></trkpt><trkpt lat="42.35369273920608" lon="13.471492207792188"><ele>642.0</ele><time>2026-05-03T07:21:19.999Z</time></trkpt><trkpt lat="42.353779864209045" lon="13.471557570074157"><ele>642.4000000000001</ele><time>2026-05-03T07:21:24Z</time></trkpt><trkpt lat="42.35390793669326" lon="13.471538018154675"><ele>642.8000000000001</ele><time>2026-05-03T07:21:26Z</time></trkpt><trkpt lat="42.353991571112566" lon="13.471511609884626"><ele>643.2</ele><time>2026-05-03T07:21:27Z</time></trkpt><trkpt lat="42.354091891168196" lon="13.471480406863744"><ele>643.6</ele><time>2026-05-03T07:21:28Z</time></trkpt><trkpt lat="42.35419983630478" lon="13.471455760142927"><ele>644.0</ele><time>2026-05-03T07:21:29Z</time></trkpt><trkpt lat="42.354300751614964" lon="13.4714314822889"><ele>644.0</ele><time>2026-05-03T07:21:30Z</time></trkpt><trkpt lat="42.35438423440353" lon="13.471408128275964"><ele>644.0</ele><time>2026-05-03T07:21:31Z</time></trkpt><trkpt lat="42.35446605987224" lon="13.47141091290015"><ele>644.0</ele><time>2026-05-03T07:21:32Z</time></trkpt><trkpt lat="42.35453758296861" lon="13.471445323565037"><ele>644.0</ele><time>2026-05-03T07:21:33Z</time></trkpt><trkpt lat="42.3546050115091" lon="13.471507521186268"><ele>644.0</ele><time>2026-05-03T07:21:34Z</time></trkpt><trkpt lat="42.354670560977794" lon="13.471597861903904"><ele>644.0</ele><time>2026-05-03T07:21:35Z</time></trkpt><trkpt lat="42.3547438118605" lon="13.471703394250353"><ele>644.75</ele><time>2026-05-03T07:21:36Z</time></trkpt><trkpt lat="42.354832239491905" lon="13.471803255186261"><ele>645.5</ele><time>2026-05-03T07:21:37Z</time></trkpt><trkpt lat="42.35493664246376" lon="13.47190930866152"><ele>646.25</ele><time>2026-05-03T07:21:38Z</time></trkpt><trkpt lat="42.35501977334414" lon="13.472033228421068"><ele>647.0</ele><time>2026-05-03T07:21:39Z</time></trkpt><trkpt lat="42.35511403939229" lon="13.472157042055926"><ele>647.0</ele><time>2026-05-03T07:21:40Z</time></trkpt><trkpt lat="42.35520728589717" lon="13.47227217025865"><ele>647.0</ele><time>2026-05-03T07:21:41Z</time></trkpt><trkpt lat="42.35528678505905" lon="13.472372639871526"><ele>647.0</ele><time>2026-05-03T07:21:42Z</time></trkpt><trkpt lat="42.35536160419148" lon="13.472474616486311"><ele>647.0</ele><time>2026-05-03T07:21:43Z</time></trkpt><trkpt lat="42.35543603965248" lon="13.4725670978011"><ele>647.0</ele><time>2026-05-03T07:21:44Z</time></trkpt><trkpt lat="42.35550552907566" lon="13.472653439491493"><ele>647.4000000000001</ele><time>2026-05-03T07:21:45Z</time></trkpt><trkpt lat="42.3555765749592" lon="13.472740906181732"><ele>647.8000000000001</ele><time>2026-05-03T07:21:46Z</time></trkpt><trkpt lat="42.35564332673127" lon="13.472812144560574"><ele>648.2</ele><time>2026-05-03T07:21:47Z</time></trkpt><trkpt lat="42.35572124696811" lon="13.472895219245608"><ele>648.6</ele><time>2026-05-03T07:21:48Z</time></trkpt><trkpt lat="42.35579755949925" lon="13.472968275340813"><ele>649.0</ele><time>2026-05-03T07:21:49Z</time></trkpt><trkpt lat="42.35586244828588" lon="13.473034780924968"><ele>649.1666666666667</ele><time>2026-05-03T07:21:50Z</time></trkpt><trkpt lat="42.355914145213376" lon="13.473090527303205"><ele>649.3333333333334</ele><time>2026-05-03T07:21:51Z</time></trkpt><trkpt lat="42.35596805520862" lon="13.473147257546785"><ele>649.5</ele><time>2026-05-03T07:21:52Z</time></trkpt><trkpt lat="42.35602346019781" lon="13.473199631184832"><ele>649.6666666666666</ele><time>2026-05-03T07:21:53Z</time></trkpt><trkpt lat="42.356076468083316" lon="13.473255104784522"><ele>649.8333333333333</ele><time>2026-05-03T07:21:54Z</time></trkpt><trkpt lat="42.356127547825714" lon="13.473309127013723"><ele>650.0</ele><time>2026-05-03T07:21:55Z</time></trkpt><trkpt lat="42.35621918164723" lon="13.473407735612444"><ele>650.0</ele><time>2026-05-03T07:21:57Z</time></trkpt><trkpt lat="42.35629435551168" lon="13.473473594360298"><ele>650.0</ele><time>2026-05-03T07:21:59Z</time></trkpt><trkpt lat="42.35638915197083" lon="13.47350500388726"><ele>650.0</ele><time>2026-05-03T07:22:01Z</time></trkpt><trkpt lat="42.35647187205113" lon="13.473531005947535"><ele>650.0</ele><time>2026-05-03T07:22:03Z</time></trkpt><trkpt lat="42.35654771006327" lon="13.473579078652847"><ele>650.0</ele><time>2026-05-03T07:22:05Z</time></trkpt><trkpt lat="42.35664474015112" lon="13.47372998059939"><ele>651.2</ele><time>2026-05-03T07:22:07Z</time></trkpt><trkpt lat="42.35669498750528" lon="13.47385701114494"><ele>652.4</ele><time>2026-05-03T07:22:08Z</time></trkpt><trkpt lat="42.3567317688844" lon="13.47399236514674"><ele>653.5999999999999</ele><time>2026-05-03T07:22:09Z</time></trkpt><trkpt lat="42.35676904630632" lon="13.47413892720692"><ele>654.8</ele><time>2026-05-03T07:22:10Z</time></trkpt><trkpt lat="42.35680022363097" lon="13.474281780921118"><ele>656.0</ele><time>2026-05-03T07:22:11Z</time></trkpt><trkpt lat="42.3568399831838" lon="13.47442862678329"><ele>656.0</ele><time>2026-05-03T07:22:12Z</time></trkpt><trkpt lat="42.356889245360954" lon="13.474573854249595"><ele>656.0</ele><time>2026-05-03T07:22:13Z</time></trkpt><trkpt lat="42.35694590036836" lon="13.474720911878865"><ele>656.0</ele><time>2026-05-03T07:22:14Z</time></trkpt><trkpt lat="42.3569987053782" lon="13.474868727038457"><ele>656.0</ele><time>2026-05-03T07:22:15Z</time></trkpt><trkpt lat="42.35704915307067" lon="13.475024092909155"><ele>657.8</ele><time>2026-05-03T07:22:15.999Z</time></trkpt><trkpt lat="42.35709648579069" lon="13.47516876017924"><ele>659.5999999999999</ele><time>2026-05-03T07:22:16.999Z</time></trkpt><trkpt lat="42.35713110806728" lon="13.475309649999001"><ele>661.4</ele><time>2026-05-03T07:22:17.999Z</time></trkpt><trkpt lat="42.357160627717896" lon="13.475452580284223"><ele>663.2</ele><time>2026-05-03T07:22:18.999Z</time></trkpt><trkpt lat="42.357184616781616" lon="13.475594613398014"><ele>665.0</ele><time>2026-05-03T07:22:19.999Z</time></trkpt><trkpt lat="42.35721512658979" lon="13.475732452366131"><ele>667.2</ele><time>2026-05-03T07:22:20.999Z</time></trkpt><trkpt lat="42.35724202038951" lon="13.475878691266974"><ele>669.4</ele><time>2026-05-03T07:22:21.999Z</time></trkpt><trkpt lat="42.35725253006515" lon="13.476017823327817"><ele>671.5999999999999</ele><time>2026-05-03T07:22:22.999Z</time></trkpt><trkpt lat="42.357249611735384" lon="13.476156431599234"><ele>673.8</ele><time>2026-05-03T07:22:23.999Z</time></trkpt><trkpt lat="42.35723290613555" lon="13.476302274374252"><ele>676.0</ele><time>2026-05-03T07:22:24.999Z</time></trkpt><trkpt lat="42.35722381010013" lon="13.476457933819717"><ele>677.4</ele><time>2026-05-03T07:22:25.999Z</time></trkpt><trkpt lat="42.357223930499146" lon="13.476619475542064"><ele>678.8</ele><time>2026-05-03T07:22:26.999Z</time></trkpt><trkpt lat="42.35723608809452" lon="13.476780546298022"><ele>680.1999999999999</ele><time>2026-05-03T07:22:27.999Z</time></trkpt><trkpt lat="42.357253339091834" lon="13.476925395657073"><ele>681.5999999999999</ele><time>2026-05-03T07:22:28.999Z</time></trkpt><trkpt lat="42.35726707879809" lon="13.477050717319909"><ele>683.0</ele><time>2026-05-03T07:22:29.999Z</time></trkpt><trkpt lat="42.35728073293177" lon="13.477169161124895"><ele>683.8571428571429</ele><time>2026-05-03T07:22:30.999Z</time></trkpt><trkpt lat="42.35730156277817" lon="13.477291257775835"><ele>684.7142857142857</ele><time>2026-05-03T07:22:31.999Z</time></trkpt><trkpt lat="42.357323324452786" lon="13.47738871363228"><ele>685.5714285714286</ele><time>2026-05-03T07:22:32.999Z</time></trkpt><trkpt lat="42.35733021830533" lon="13.477479936889416"><ele>686.4285714285714</ele><time>2026-05-03T07:22:33.999Z</time></trkpt><trkpt lat="42.35733573178491" lon="13.477572415843525"><ele>687.2857142857143</ele><time>2026-05-03T07:22:34.999Z</time></trkpt><trkpt lat="42.357344239219465" lon="13.477662659257819"><ele>688.1428571428571</ele><time>2026-05-03T07:22:35.999Z</time></trkpt><trkpt lat="42.35735618205998" lon="13.477755950356183"><ele>689.0</ele><time>2026-05-03T07:22:36.999Z</time></trkpt><trkpt lat="42.3573668942918" lon="13.47786901933378"><ele>690.6</ele><time>2026-05-03T07:22:37.999Z</time></trkpt><trkpt lat="42.357377829147495" lon="13.477993851774004"><ele>692.2</ele><time>2026-05-03T07:22:38.999Z</time></trkpt><trkpt lat="42.357400544236505" lon="13.478115712824755"><ele>693.8000000000001</ele><time>2026-05-03T07:22:39.999Z</time></trkpt><trkpt lat="42.35743607349976" lon="13.478229739853246"><ele>695.4000000000001</ele><time>2026-05-03T07:22:40.999Z</time></trkpt><trkpt lat="42.35746994513029" lon="13.478337855067757"><ele>697.0</ele><time>2026-05-03T07:22:41.999Z</time></trkpt><trkpt lat="42.357503176826455" lon="13.478444850576325"><ele>697.0</ele><time>2026-05-03T07:22:42.999Z</time></trkpt><trkpt lat="42.357527881694644" lon="13.478542179829628"><ele>697.0</ele><time>2026-05-03T07:22:43.999Z</time></trkpt><trkpt lat="42.35754597018999" lon="13.478646504247079"><ele>697.0</ele><time>2026-05-03T07:22:44.999Z</time></trkpt><trkpt lat="42.35756136514314" lon="13.478761113313515"><ele>697.0</ele><time>2026-05-03T07:22:45.999Z</time></trkpt><trkpt lat="42.35757550058644" lon="13.4788712836006"><ele>697.0</ele><time>2026-05-03T07:22:46.999Z</time></trkpt><trkpt lat="42.357589425046314" lon="13.478989574414026"><ele>697.0</ele><time>2026-05-03T07:22:47.999Z</time></trkpt><trkpt lat="42.357606529294024" lon="13.479120272419664"><ele>698.8</ele><time>2026-05-03T07:22:48.999Z</time></trkpt><trkpt lat="42.35762558900109" lon="13.479261423597507"><ele>700.6</ele><time>2026-05-03T07:22:49.999Z</time></trkpt><trkpt lat="42.35764685424842" lon="13.479412078177967"><ele>702.4</ele><time>2026-05-03T07:22:50.999Z</time></trkpt><trkpt lat="42.357664817584094" lon="13.479554470147788"><ele>704.1999999999999</ele><time>2026-05-03T07:22:51.999Z</time></trkpt><trkpt lat="42.35768417019684" lon="13.479702024688368"><ele>706.0</ele><time>2026-05-03T07:22:52.999Z</time></trkpt><trkpt lat="42.357707762216954" lon="13.479854504460633"><ele>707.8</ele><time>2026-05-03T07:22:53.999Z</time></trkpt><trkpt lat="42.3577281249287" lon="13.479997657828982"><ele>709.5999999999999</ele><time>2026-05-03T07:22:54.999Z</time></trkpt><trkpt lat="42.35774592780156" lon="13.4801210894738"><ele>711.4</ele><time>2026-05-03T07:22:55.999Z</time></trkpt><trkpt lat="42.35775292922275" lon="13.480243839039955"><ele>713.2</ele><time>2026-05-03T07:22:56.999Z</time></trkpt><trkpt lat="42.357745731850734" lon="13.480361004066534"><ele>715.0</ele><time>2026-05-03T07:22:57.999Z</time></trkpt><trkpt lat="42.35772289346782" lon="13.480488715797595"><ele>716.6</ele><time>2026-05-03T07:22:58.999Z</time></trkpt><trkpt lat="42.35768612147549" lon="13.480604233440783"><ele>718.2</ele><time>2026-05-03T07:22:59.999Z</time></trkpt><trkpt lat="42.35766552779846" lon="13.480722849246776"><ele>719.8</ele><time>2026-05-03T07:23:00.999Z</time></trkpt><trkpt lat="42.35767322862207" lon="13.480843736603678"><ele>721.4</ele><time>2026-05-03T07:23:01.999Z</time></trkpt><trkpt lat="42.357694841301374" lon="13.480940238829076"><ele>723.0</ele><time>2026-05-03T07:23:02.999Z</time></trkpt><trkpt lat="42.35773753675618" lon="13.481087338063556"><ele>723.0</ele><time>2026-05-03T07:23:04.999Z</time></trkpt><trkpt lat="42.35774038076329" lon="13.481174035430305"><ele>723.0</ele><time>2026-05-03T07:23:05.999Z</time></trkpt><trkpt lat="42.35773476148298" lon="13.481270166560998"><ele>723.0</ele><time>2026-05-03T07:23:06.999Z</time></trkpt><trkpt lat="42.357725869626925" lon="13.481372151033696"><ele>723.0</ele><time>2026-05-03T07:23:07.999Z</time></trkpt><trkpt lat="42.35771358380076" lon="13.481474813472504"><ele>723.0</ele><time>2026-05-03T07:23:08.999Z</time></trkpt><trkpt lat="42.35770266571781" lon="13.481592345276622"><ele>723.0</ele><time>2026-05-03T07:23:09.999Z</time></trkpt><trkpt lat="42.35768832351243" lon="13.481712778333899"><ele>724.6666666666666</ele><time>2026-05-03T07:23:10.999Z</time></trkpt><trkpt lat="42.35767015658362" lon="13.481829057232723"><ele>726.3333333333334</ele><time>2026-05-03T07:23:11.999Z</time></trkpt><trkpt lat="42.35764616101682" lon="13.481933820135163"><ele>728.0</ele><time>2026-05-03T07:23:12.999Z</time></trkpt><trkpt lat="42.35762425944639" lon="13.48204122863676"><ele>729.6666666666667</ele><time>2026-05-03T07:23:13.999Z</time></trkpt><trkpt lat="42.35760035850793" lon="13.482153363365818"><ele>731.3333333333334</ele><time>2026-05-03T07:23:14.999Z</time></trkpt><trkpt lat="42.35757702409074" lon="13.48227062392013"><ele>733.0</ele><time>2026-05-03T07:23:15.999Z</time></trkpt><trkpt lat="42.35756236805113" lon="13.482388093620795"><ele>734.6666666666667</ele><time>2026-05-03T07:23:16.999Z</time></trkpt><trkpt lat="42.3575552966714" lon="13.482503819294877"><ele>736.3333333333334</ele><time>2026-05-03T07:23:17.999Z</time></trkpt><trkpt lat="42.35756200526532" lon="13.482616672575778"><ele>738.0</ele><time>2026-05-03T07:23:18.999Z</time></trkpt><trkpt lat="42.35757598626143" lon="13.482728693407243"><ele>739.6666666666666</ele><time>2026-05-03T07:23:19.999Z</time></trkpt><trkpt lat="42.357588169807315" lon="13.482848408079276"><ele>741.3333333333333</ele><time>2026-05-03T07:23:20.999Z</time></trkpt><trkpt lat="42.35760268488082" lon="13.482981398760256"><ele>743.0</ele><time>2026-05-03T07:23:21.999Z</time></trkpt><trkpt lat="42.35761308305549" lon="13.483115022077426"><ele>744.4</ele><time>2026-05-03T07:23:22.999Z</time></trkpt><trkpt lat="42.35762396419079" lon="13.48326263000275"><ele>745.8</ele><time>2026-05-03T07:23:23.998Z</time></trkpt><trkpt lat="42.3576313894985" lon="13.483412665359735"><ele>747.2</ele><time>2026-05-03T07:23:24.998Z</time></trkpt><trkpt lat="42.357643675826544" lon="13.483560335665912"><ele>748.6</ele><time>2026-05-03T07:23:25.998Z</time></trkpt><trkpt lat="42.35765334566858" lon="13.483671902386718"><ele>750.0</ele><time>2026-05-03T07:23:27Z</time></trkpt><trkpt lat="42.35766621659178" lon="13.483780356293078"><ele>750.8</ele><time>2026-05-03T07:23:28Z</time></trkpt><trkpt lat="42.357693919831654" lon="13.483898663282016"><ele>751.6</ele><time>2026-05-03T07:23:29Z</time></trkpt><trkpt lat="42.357723920675056" lon="13.484037752689607"><ele>752.4000000000001</ele><time>2026-05-03T07:23:30Z</time></trkpt><trkpt lat="42.35775169686339" lon="13.484183476751499"><ele>753.2</ele><time>2026-05-03T07:23:31Z</time></trkpt><trkpt lat="42.35777449661024" lon="13.484336032633363"><ele>754.0</ele><time>2026-05-03T07:23:32Z</time></trkpt><trkpt lat="42.35778573214341" lon="13.484487400235265"><ele>755.2</ele><time>2026-05-03T07:23:33Z</time></trkpt><trkpt lat="42.35777931927475" lon="13.484628155896171"><ele>756.4000000000001</ele><time>2026-05-03T07:23:34Z</time></trkpt><trkpt lat="42.35777179589066" lon="13.484761068418726"><ele>757.6</ele><time>2026-05-03T07:23:35Z</time></trkpt><trkpt lat="42.357752738028815" lon="13.48488831045628"><ele>758.8</ele><time>2026-05-03T07:23:36Z</time></trkpt><trkpt lat="42.35773180442159" lon="13.485012391309253"><ele>760.0</ele><time>2026-05-03T07:23:37Z</time></trkpt><trkpt lat="42.35771353510413" lon="13.485140258188018"><ele>760.0</ele><time>2026-05-03T07:23:38Z</time></trkpt><trkpt lat="42.35770211017434" lon="13.485277846281864"><ele>760.0</ele><time>2026-05-03T07:23:39Z</time></trkpt><trkpt lat="42.35769310210388" lon="13.485396966122831"><ele>760.0</ele><time>2026-05-03T07:23:40Z</time></trkpt><trkpt lat="42.35768567235894" lon="13.485499296456284"><ele>760.0</ele><time>2026-05-03T07:23:41Z</time></trkpt><trkpt lat="42.35767575152866" lon="13.485590939907295"><ele>760.0</ele><time>2026-05-03T07:23:42Z</time></trkpt><trkpt lat="42.35767346437911" lon="13.485691924604412"><ele>760.0</ele><time>2026-05-03T07:23:43Z</time></trkpt><trkpt lat="42.35767377459979" lon="13.485793911634412"><ele>759.5</ele><time>2026-05-03T07:23:44Z</time></trkpt><trkpt lat="42.357678440338695" lon="13.485891443306548"><ele>759.0</ele><time>2026-05-03T07:23:45Z</time></trkpt><trkpt lat="42.35770538691643" lon="13.485992024541943"><ele>758.5</ele><time>2026-05-03T07:23:46Z</time></trkpt><trkpt lat="42.3577502887307" lon="13.486110128666754"><ele>758.0</ele><time>2026-05-03T07:23:47Z</time></trkpt><trkpt lat="42.35778938455616" lon="13.486221690921528"><ele>757.5</ele><time>2026-05-03T07:23:48Z</time></trkpt><trkpt lat="42.35783564332877" lon="13.486323144153074"><ele>757.0</ele><time>2026-05-03T07:23:49Z</time></trkpt><trkpt lat="42.357886984875115" lon="13.486423556662206"><ele>756.0</ele><time>2026-05-03T07:23:50Z</time></trkpt><trkpt lat="42.357939925207596" lon="13.486516788065472"><ele>755.0</ele><time>2026-05-03T07:23:51Z</time></trkpt><trkpt lat="42.357998232554294" lon="13.48659893103207"><ele>754.0</ele><time>2026-05-03T07:23:52Z</time></trkpt><trkpt lat="42.35807446477775" lon="13.486686184658328"><ele>753.0</ele><time>2026-05-03T07:23:53Z</time></trkpt><trkpt lat="42.358154627177825" lon="13.486779515523123"><ele>752.0</ele><time>2026-05-03T07:23:54Z</time></trkpt><trkpt lat="42.358236355177006" lon="13.4868797720193"><ele>754.2</ele><time>2026-05-03T07:23:55Z</time></trkpt><trkpt lat="42.358315660340935" lon="13.486985284016042"><ele>756.4000000000001</ele><time>2026-05-03T07:23:56Z</time></trkpt><trkpt lat="42.358380217976844" lon="13.487108573339002"><ele>758.5999999999999</ele><time>2026-05-03T07:23:57Z</time></trkpt><trkpt lat="42.358440874796734" lon="13.487163340515812"><ele>760.8</ele><time>2026-05-03T07:23:58Z</time></trkpt><trkpt lat="42.35850822661494" lon="13.487241186888175"><ele>763.0</ele><time>2026-05-03T07:23:59Z</time></trkpt><trkpt lat="42.35857934703879" lon="13.487325856694055"><ele>763.0</ele><time>2026-05-03T07:24:00Z</time></trkpt><trkpt lat="42.358649337283346" lon="13.48740536410115"><ele>763.0</ele><time>2026-05-03T07:24:01Z</time></trkpt><trkpt lat="42.3586977225927" lon="13.48748326330591"><ele>763.0</ele><time>2026-05-03T07:24:02Z</time></trkpt><trkpt lat="42.358746595171276" lon="13.487577936452224"><ele>763.0</ele><time>2026-05-03T07:24:03Z</time></trkpt><trkpt lat="42.35879355519747" lon="13.487694308297655"><ele>763.0</ele><time>2026-05-03T07:24:04Z</time></trkpt><trkpt lat="42.358848295067745" lon="13.48781472350838"><ele>765.8333333333334</ele><time>2026-05-03T07:24:05Z</time></trkpt><trkpt lat="42.35889779818719" lon="13.487910539573258"><ele>768.6666666666667</ele><time>2026-05-03T07:24:06Z</time></trkpt><trkpt lat="42.35894810292706" lon="13.488003153293857"><ele>771.5</ele><time>2026-05-03T07:24:07Z</time></trkpt><trkpt lat="42.359007472194584" lon="13.48808466785584"><ele>774.3333333333334</ele><time>2026-05-03T07:24:09Z</time></trkpt><trkpt lat="42.35910755185187" lon="13.488171517207027"><ele>777.1666666666666</ele><time>2026-05-03T07:24:16Z</time></trkpt><trkpt lat="42.35915722427295" lon="13.48823852152284"><ele>780.0</ele><time>2026-05-03T07:24:17Z</time></trkpt><trkpt lat="42.35921289061714" lon="13.488326448013016"><ele>780.0</ele><time>2026-05-03T07:24:18Z</time></trkpt><trkpt lat="42.35928083488269" lon="13.488416732547039"><ele>780.0</ele><time>2026-05-03T07:24:19.999Z</time></trkpt><trkpt lat="42.359343322822305" lon="13.488497013644508"><ele>780.0</ele><time>2026-05-03T07:24:21.999Z</time></trkpt><trkpt lat="42.359424151103276" lon="13.488626741487348"><ele>780.0</ele><time>2026-05-03T07:24:23.999Z</time></trkpt><trkpt lat="42.35946609158395" lon="13.488698251468433"><ele>780.0</ele><time>2026-05-03T07:24:24.999Z</time></trkpt><trkpt lat="42.35950539019094" lon="13.488777271893312"><ele>780.0</ele><time>2026-05-03T07:24:25.999Z</time></trkpt><trkpt lat="42.35954628211019" lon="13.488864314801358"><ele>781.1666666666666</ele><time>2026-05-03T07:24:26.999Z</time></trkpt><trkpt lat="42.35958474978133" lon="13.488947555757948"><ele>782.3333333333333</ele><time>2026-05-03T07:24:27.999Z</time></trkpt><trkpt lat="42.359620864561435" lon="13.489032801477729"><ele>783.5</ele><time>2026-05-03T07:24:28.999Z</time></trkpt><trkpt lat="42.35970271013996" lon="13.489144761514273"><ele>784.6666666666666</ele><time>2026-05-03T07:24:30.999Z</time></trkpt><trkpt lat="42.3597598620816" lon="13.489207625934325"><ele>785.8333333333333</ele><time>2026-05-03T07:24:31.999Z</time></trkpt><trkpt lat="42.359831351781544" lon="13.489277127159902"><ele>787.0</ele><time>2026-05-03T07:24:32.999Z</time></trkpt><trkpt lat="42.35990340505491" lon="13.489335767274282"><ele>787.8333333333333</ele><time>2026-05-03T07:24:33.999Z</time></trkpt><trkpt lat="42.35997734319977" lon="13.489377568199176"><ele>788.6666666666666</ele><time>2026-05-03T07:24:34.999Z</time></trkpt><trkpt lat="42.36004914508962" lon="13.489416705769361"><ele>789.5</ele><time>2026-05-03T07:24:35.999Z</time></trkpt><trkpt lat="42.36011401791539" lon="13.489453864302616"><ele>790.3333333333333</ele><time>2026-05-03T07:24:36.999Z</time></trkpt><trkpt lat="42.36021382843973" lon="13.489576941612276"><ele>791.1666666666666</ele><time>2026-05-03T07:24:38.999Z</time></trkpt><trkpt lat="42.36026537639758" lon="13.48963537082995"><ele>792.0</ele><time>2026-05-03T07:24:39.999Z</time></trkpt><trkpt lat="42.36033283715881" lon="13.489699763559022"><ele>792.8333333333334</ele><time>2026-05-03T07:24:40.999Z</time></trkpt><trkpt lat="42.36039402387717" lon="13.489756913746328"><ele>793.6666666666667</ele><time>2026-05-03T07:24:41.999Z</time></trkpt><trkpt lat="42.36046885137649" lon="13.489804574968456"><ele>794.5</ele><time>2026-05-03T07:24:42.999Z</time></trkpt><trkpt lat="42.36053789693579" lon="13.489858293563332"><ele>795.3333333333334</ele><time>2026-05-03T07:24:43.999Z</time></trkpt><trkpt lat="42.36061652511881" lon="13.489914991933437"><ele>796.1666666666667</ele><time>2026-05-03T07:24:44.999Z</time></trkpt><trkpt lat="42.360692027916265" lon="13.489971318913696"><ele>797.0</ele><time>2026-05-03T07:24:45.999Z</time></trkpt><trkpt lat="42.36074833658529" lon="13.490045228142506"><ele>797.5000000000001</ele><time>2026-05-03T07:24:46.999Z</time></trkpt><trkpt lat="42.360779511433805" lon="13.490122442915482"><ele>798.0</ele><time>2026-05-03T07:24:47.999Z</time></trkpt><trkpt lat="42.36082594299872" lon="13.490180634145496"><ele>798.5</ele><time>2026-05-03T07:24:48.999Z</time></trkpt><trkpt lat="42.36095255889487" lon="13.490240639417063"><ele>799.0</ele><time>2026-05-03T07:24:50.999Z</time></trkpt><trkpt lat="42.36103212923203" lon="13.490278531488247"><ele>799.5000000000001</ele><time>2026-05-03T07:24:51.999Z</time></trkpt><trkpt lat="42.36110981123511" lon="13.490320922268406"><ele>800.0</ele><time>2026-05-03T07:24:52.999Z</time></trkpt><trkpt lat="42.36118245353467" lon="13.4903774617449"><ele>802.0000000000001</ele><time>2026-05-03T07:24:53.999Z</time></trkpt><trkpt lat="42.36125462756501" lon="13.490451053584339"><ele>804.0</ele><time>2026-05-03T07:24:54.999Z</time></trkpt><trkpt lat="42.36132648372862" lon="13.490502016669053"><ele>806.0</ele><time>2026-05-03T07:24:55.999Z</time></trkpt><trkpt lat="42.3613948762764" lon="13.490576550564818"><ele>808.0</ele><time>2026-05-03T07:24:56.999Z</time></trkpt><trkpt lat="42.36145621706152" lon="13.490644788668902"><ele>810.0000000000001</ele><time>2026-05-03T07:24:57.999Z</time></trkpt><trkpt lat="42.361523182717846" lon="13.490695708136183"><ele>812.0</ele><time>2026-05-03T07:24:58.999Z</time></trkpt><trkpt lat="42.36159139957387" lon="13.4907401543915"><ele>812.0</ele><time>2026-05-03T07:24:59.999Z</time></trkpt><trkpt lat="42.36166290644726" lon="13.490799968064831"><ele>812.0</ele><time>2026-05-03T07:25:00.999Z</time></trkpt><trkpt lat="42.36173013740582" lon="13.49084515947957"><ele>812.0</ele><time>2026-05-03T07:25:01.999Z</time></trkpt><trkpt lat="42.36179706924114" lon="13.490899114326988"><ele>812.0</ele><time>2026-05-03T07:25:02.999Z</time></trkpt><trkpt lat="42.36186249874567" lon="13.490931912126207"><ele>812.0</ele><time>2026-05-03T07:25:03.999Z</time></trkpt><trkpt lat="42.361922078915484" lon="13.490982975930075"><ele>812.0</ele><time>2026-05-03T07:25:04.999Z</time></trkpt><trkpt lat="42.36196730605356" lon="13.491052512131327"><ele>812.0</ele><time>2026-05-03T07:25:05.999Z</time></trkpt><trkpt lat="42.36200628740339" lon="13.491126255935429"><ele>812.0000000000001</ele><time>2026-05-03T07:25:06.999Z</time></trkpt><trkpt lat="42.36204816048465" lon="13.491211738455041"><ele>812.0</ele><time>2026-05-03T07:25:07.999Z</time></trkpt><trkpt lat="42.36209727212306" lon="13.491288892803201"><ele>812.0</ele><time>2026-05-03T07:25:08.999Z</time></trkpt><trkpt lat="42.36215458025256" lon="13.491363109965933"><ele>812.0</ele><time>2026-05-03T07:25:09.999Z</time></trkpt><trkpt lat="42.36222201979616" lon="13.491447121719242"><ele>812.0000000000001</ele><time>2026-05-03T07:25:10.999Z</time></trkpt><trkpt lat="42.36229620484955" lon="13.491532865048143"><ele>812.0</ele><time>2026-05-03T07:25:11.999Z</time></trkpt><trkpt lat="42.36236002844297" lon="13.49161742134421"><ele>813.1666666666667</ele><time>2026-05-03T07:25:12.999Z</time></trkpt><trkpt lat="42.362422075585506" lon="13.491690929813714"><ele>814.3333333333334</ele><time>2026-05-03T07:25:13.999Z</time></trkpt><trkpt lat="42.36247295462325" lon="13.491770569588828"><ele>815.5</ele><time>2026-05-03T07:25:14.999Z</time></trkpt><trkpt lat="42.36251817757626" lon="13.491858524993166"><ele>816.6666666666667</ele><time>2026-05-03T07:25:15.999Z</time></trkpt><trkpt lat="42.36255606907906" lon="13.49195375954632"><ele>817.8333333333334</ele><time>2026-05-03T07:25:16.999Z</time></trkpt><trkpt lat="42.36258555006929" lon="13.492059366936244"><ele>819.0</ele><time>2026-05-03T07:25:17.999Z</time></trkpt><trkpt lat="42.36262408355734" lon="13.492164849172424"><ele>820.5</ele><time>2026-05-03T07:25:18.999Z</time></trkpt><trkpt lat="42.36266243970915" lon="13.492298577435148"><ele>822.0</ele><time>2026-05-03T07:25:19.999Z</time></trkpt><trkpt lat="42.36268696203188" lon="13.492404906979532"><ele>823.5</ele><time>2026-05-03T07:25:20.999Z</time></trkpt><trkpt lat="42.36271226772501" lon="13.492506887357242"><ele>825.0</ele><time>2026-05-03T07:25:21.999Z</time></trkpt><trkpt lat="42.36273014890332" lon="13.492600424896892"><ele>826.5</ele><time>2026-05-03T07:25:22.999Z</time></trkpt><trkpt lat="42.362766000869385" lon="13.492717035289704"><ele>828.0</ele><time>2026-05-03T07:25:23.999Z</time></trkpt><trkpt lat="42.36279398772037" lon="13.492818157442667"><ele>828.0</ele><time>2026-05-03T07:25:24.999Z</time></trkpt><trkpt lat="42.36280643354744" lon="13.492911297670583"><ele>828.0</ele><time>2026-05-03T07:25:25.999Z</time></trkpt><trkpt lat="42.36280737600846" lon="13.49300272812622"><ele>828.0</ele><time>2026-05-03T07:25:26.999Z</time></trkpt><trkpt lat="42.36278337152717" lon="13.49317255566898"><ele>828.0</ele><time>2026-05-03T07:25:28.998Z</time></trkpt><trkpt lat="42.362790650172506" lon="13.493273081663043"><ele>828.0</ele><time>2026-05-03T07:25:29.998Z</time></trkpt><trkpt lat="42.36279535959598" lon="13.493366641032175"><ele>828.0</ele><time>2026-05-03T07:25:30.998Z</time></trkpt><trkpt lat="42.362802877181494" lon="13.493458579726887"><ele>831.2</ele><time>2026-05-03T07:25:31.998Z</time></trkpt><trkpt lat="42.36287351307288" lon="13.493587006317819"><ele>834.4</ele><time>2026-05-03T07:25:34Z</time></trkpt><trkpt lat="42.36291638849557" lon="13.493667719303344"><ele>837.6</ele><time>2026-05-03T07:25:35Z</time></trkpt><trkpt lat="42.36294086565226" lon="13.493823369577449"><ele>840.8000000000001</ele><time>2026-05-03T07:25:37Z</time></trkpt><trkpt lat="42.36293607133545" lon="13.493930104564804"><ele>844.0</ele><time>2026-05-03T07:25:38Z</time></trkpt><trkpt lat="42.36293913809976" lon="13.494056105364294"><ele>846.1666666666666</ele><time>2026-05-03T07:25:39Z</time></trkpt><trkpt lat="42.36294877480999" lon="13.494178835056402"><ele>848.3333333333333</ele><time>2026-05-03T07:25:40Z</time></trkpt><trkpt lat="42.362958292307304" lon="13.494302922319145"><ele>850.5</ele><time>2026-05-03T07:25:41Z</time></trkpt><trkpt lat="42.36296647506751" lon="13.494412223354574"><ele>852.6666666666667</ele><time>2026-05-03T07:25:42Z</time></trkpt><trkpt lat="42.36296791116469" lon="13.494509648585092"><ele>854.8333333333334</ele><time>2026-05-03T07:25:43Z</time></trkpt><trkpt lat="42.36297517170533" lon="13.49460331269181"><ele>857.0</ele><time>2026-05-03T07:25:44Z</time></trkpt><trkpt lat="42.36297021847113" lon="13.494698648631598"><ele>858.2</ele><time>2026-05-03T07:25:45Z</time></trkpt><trkpt lat="42.36294809243595" lon="13.49486853082743"><ele>859.4000000000001</ele><time>2026-05-03T07:25:47Z</time></trkpt><trkpt lat="42.36293467751191" lon="13.49497283564748"><ele>860.5999999999999</ele><time>2026-05-03T07:25:48Z</time></trkpt><trkpt lat="42.36292553891128" lon="13.49507779622133"><ele>861.8</ele><time>2026-05-03T07:25:49Z</time></trkpt><trkpt lat="42.362911446119675" lon="13.49518727136022"><ele>863.0</ele><time>2026-05-03T07:25:50Z</time></trkpt><trkpt lat="42.362899060902436" lon="13.495303147489093"><ele>863.0000000000001</ele><time>2026-05-03T07:25:51Z</time></trkpt><trkpt lat="42.36289971851961" lon="13.495405729156248"><ele>863.0</ele><time>2026-05-03T07:25:52Z</time></trkpt><trkpt lat="42.3628922858561" lon="13.49554056945263"><ele>863.0</ele><time>2026-05-03T07:25:53Z</time></trkpt><trkpt lat="42.36289108990764" lon="13.495661938310558"><ele>863.0</ele><time>2026-05-03T07:25:54Z</time></trkpt><trkpt lat="42.36287913292774" lon="13.495784329377319"><ele>863.0000000000001</ele><time>2026-05-03T07:25:55Z</time></trkpt><trkpt lat="42.362866884407" lon="13.495892859686284"><ele>863.0</ele><time>2026-05-03T07:25:56Z</time></trkpt><trkpt lat="42.36286213555121" lon="13.495993025825953"><ele>863.4</ele><time>2026-05-03T07:25:57Z</time></trkpt><trkpt lat="42.36284742201274" lon="13.49614137657728"><ele>863.8</ele><time>2026-05-03T07:25:59Z</time></trkpt><trkpt lat="42.36283556499051" lon="13.496252496816883"><ele>864.2</ele><time>2026-05-03T07:26:01Z</time></trkpt><trkpt lat="42.362822888225665" lon="13.49642563521846"><ele>864.6</ele><time>2026-05-03T07:26:03Z</time></trkpt><trkpt lat="42.362816809630715" lon="13.496550863489723"><ele>865.0</ele><time>2026-05-03T07:26:05Z</time></trkpt><trkpt lat="42.36284011901539" lon="13.496731174112934"><ele>865.9999999999999</ele><time>2026-05-03T07:26:08Z</time></trkpt><trkpt lat="42.36286174184982" lon="13.496867827062761"><ele>867.0</ele><time>2026-05-03T07:26:10Z</time></trkpt><trkpt lat="42.36289329636171" lon="13.496975208974533"><ele>868.0</ele><time>2026-05-03T07:26:12Z</time></trkpt><trkpt lat="42.36290120596415" lon="13.497086576140328"><ele>869.0</ele><time>2026-05-03T07:26:15Z</time></trkpt><trkpt lat="42.36289154021758" lon="13.49721076211467"><ele>869.9999999999999</ele><time>2026-05-03T07:26:17Z</time></trkpt><trkpt lat="42.362890951732325" lon="13.497312389895388"><ele>871.0</ele><time>2026-05-03T07:26:19Z</time></trkpt><trkpt lat="42.36289063967085" lon="13.497444553410263"><ele>871.8</ele><time>2026-05-03T07:26:21Z</time></trkpt><trkpt lat="42.36290379217503" lon="13.497575439057558"><ele>872.5999999999999</ele><time>2026-05-03T07:26:22.999Z</time></trkpt><trkpt lat="42.36293871066135" lon="13.497692348367229"><ele>873.4</ele><time>2026-05-03T07:26:24.999Z</time></trkpt><trkpt lat="42.36298219974656" lon="13.497788997971657"><ele>874.2</ele><time>2026-05-03T07:26:26.999Z</time></trkpt><trkpt lat="42.36304187309812" lon="13.49789888737778"><ele>875.0</ele><time>2026-05-03T07:26:28.999Z</time></trkpt><trkpt lat="42.3631003563504" lon="13.497990527192147"><ele>878.0000000000001</ele><time>2026-05-03T07:26:30.999Z</time></trkpt><trkpt lat="42.363158924838864" lon="13.498061675265498"><ele>881.0</ele><time>2026-05-03T07:26:33.999Z</time></trkpt><trkpt lat="42.363232305263836" lon="13.498128688090127"><ele>884.0</ele><time>2026-05-03T07:26:41.999Z</time></trkpt><trkpt lat="42.36332895574158" lon="13.4982137691018"><ele>887.0</ele><time>2026-05-03T07:26:43.999Z</time></trkpt><trkpt lat="42.36338621737057" lon="13.498262559566548"><ele>890.0000000000001</ele><time>2026-05-03T07:26:44.999Z</time></trkpt><trkpt lat="42.36344638225796" lon="13.49831092731768"><ele>893.0</ele><time>2026-05-03T07:26:45.999Z</time></trkpt><trkpt lat="42.363506537245286" lon="13.498372826935496"><ele>893.0</ele><time>2026-05-03T07:26:46.999Z</time></trkpt><trkpt lat="42.363570474384005" lon="13.498428388797166"><ele>893.0</ele><time>2026-05-03T07:26:47.999Z</time></trkpt><trkpt lat="42.36362841110147" lon="13.498535507488201"><ele>893.0</ele><time>2026-05-03T07:26:49.999Z</time></trkpt><trkpt lat="42.363662406690075" lon="13.498675345787946"><ele>893.0</ele><time>2026-05-03T07:26:51.999Z</time></trkpt><trkpt lat="42.363703417134026" lon="13.498809674402574"><ele>893.0</ele><time>2026-05-03T07:26:53.999Z</time></trkpt><trkpt lat="42.36372426665994" lon="13.498914951294642"><ele>893.5000000000001</ele><time>2026-05-03T07:26:55.999Z</time></trkpt><trkpt lat="42.363772325195995" lon="13.498998712121447"><ele>894.0</ele><time>2026-05-03T07:26:57.999Z</time></trkpt><trkpt lat="42.363841387482104" lon="13.499064359105422"><ele>894.5</ele><time>2026-05-03T07:27:01.999Z</time></trkpt><trkpt lat="42.363906598104194" lon="13.499140515485045"><ele>895.0</ele><time>2026-05-03T07:27:03.999Z</time></trkpt><trkpt lat="42.36396465839249" lon="13.499253683062811"><ele>895.5000000000001</ele><time>2026-05-03T07:27:05.999Z</time></trkpt><trkpt lat="42.364009136881855" lon="13.499369522437547"><ele>896.0</ele><time>2026-05-03T07:27:07.999Z</time></trkpt><trkpt lat="42.36406985607535" lon="13.499445139810154"><ele>898.0</ele><time>2026-05-03T07:27:09.999Z</time></trkpt><trkpt lat="42.36412644874925" lon="13.499527540802218"><ele>899.9999999999999</ele><time>2026-05-03T07:27:11.999Z</time></trkpt><trkpt lat="42.36419137953138" lon="13.499611855644613"><ele>901.9999999999999</ele><time>2026-05-03T07:27:13.999Z</time></trkpt><trkpt lat="42.36424919912673" lon="13.499731118749965"><ele>904.0</ele><time>2026-05-03T07:27:15.999Z</time></trkpt><trkpt lat="42.36431813815517" lon="13.49985985258812"><ele>906.0</ele><time>2026-05-03T07:27:17.999Z</time></trkpt><trkpt lat="42.364354112551894" lon="13.499937565679783"><ele>906.4</ele><time>2026-05-03T07:27:18.999Z</time></trkpt><trkpt lat="42.36439233066417" lon="13.500008304757278"><ele>906.8</ele><time>2026-05-03T07:27:19.999Z</time></trkpt><trkpt lat="42.36444595949038" lon="13.500125421535207"><ele>907.1999999999999</ele><time>2026-05-03T07:27:21.999Z</time></trkpt><trkpt lat="42.36450185488461" lon="13.50024209398996"><ele>907.5999999999999</ele><time>2026-05-03T07:27:23.999Z</time></trkpt><trkpt lat="42.364562292056426" lon="13.500365931767112"><ele>908.0</ele><time>2026-05-03T07:27:26.999Z</time></trkpt><trkpt lat="42.364610230457764" lon="13.50049338017305"><ele>908.8333333333334</ele><time>2026-05-03T07:27:28.998Z</time></trkpt><trkpt lat="42.3646438361008" lon="13.50056547518187"><ele>909.6666666666667</ele><time>2026-05-03T07:27:32.998Z</time></trkpt><trkpt lat="42.3646756106073" lon="13.50063915339145"><ele>910.5</ele><time>2026-05-03T07:27:37.998Z</time></trkpt><trkpt lat="42.36470706539743" lon="13.50074072665144"><ele>911.3333333333333</ele><time>2026-05-03T07:27:41Z</time></trkpt><trkpt lat="42.36474577866406" lon="13.500836519885414"><ele>912.1666666666666</ele><time>2026-05-03T07:27:43Z</time></trkpt><trkpt lat="42.364800200905734" lon="13.500977840373984"><ele>913.0</ele><time>2026-05-03T07:27:45Z</time></trkpt><trkpt lat="42.3648535667388" lon="13.501096793364727"><ele>914.1666666666666</ele><time>2026-05-03T07:27:47Z</time></trkpt><trkpt lat="42.36487125395335" lon="13.501193747696583"><ele>915.3333333333333</ele><time>2026-05-03T07:27:50Z</time></trkpt><trkpt lat="42.36490163143177" lon="13.501326234505578"><ele>916.5</ele><time>2026-05-03T07:27:53Z</time></trkpt><trkpt lat="42.364923530418686" lon="13.501455449400483"><ele>917.6666666666667</ele><time>2026-05-03T07:27:55Z</time></trkpt><trkpt lat="42.36494240031972" lon="13.501575502395896"><ele>918.8333333333334</ele><time>2026-05-03T07:27:57Z</time></trkpt><trkpt lat="42.364970836805554" lon="13.501660931122531"><ele>920.0</ele><time>2026-05-03T07:27:59Z</time></trkpt><trkpt lat="42.364996222111884" lon="13.501778754724564"><ele>921.4</ele><time>2026-05-03T07:28:02Z</time></trkpt><trkpt lat="42.36504598122469" lon="13.501934745701757"><ele>922.8</ele><time>2026-05-03T07:28:04Z</time></trkpt><trkpt lat="42.3650787633494" lon="13.502053526640234"><ele>924.2</ele><time>2026-05-03T07:28:06Z</time></trkpt><trkpt lat="42.365111170757785" lon="13.502164872815342"><ele>925.6</ele><time>2026-05-03T07:28:08Z</time></trkpt><trkpt lat="42.365124993206514" lon="13.502250191088475"><ele>927.0</ele><time>2026-05-03T07:28:55.999Z</time></trkpt><trkpt lat="42.365158617910375" lon="13.502364763052357"><ele>928.0</ele><time>2026-05-03T07:28:57.999Z</time></trkpt><trkpt lat="42.365176810468654" lon="13.502535799833716"><ele>929.0</ele><time>2026-05-03T07:28:59.999Z</time></trkpt><trkpt lat="42.365195910741" lon="13.502636098259254"><ele>930.0</ele><time>2026-05-03T07:29:00.999Z</time></trkpt><trkpt lat="42.36521981254633" lon="13.502726570974223"><ele>931.0</ele><time>2026-05-03T07:29:01.999Z</time></trkpt><trkpt lat="42.365251111560816" lon="13.502803294052066"><ele>932.0</ele><time>2026-05-03T07:29:02.999Z</time></trkpt><trkpt lat="42.36528010988255" lon="13.50289262143744"><ele>933.0</ele><time>2026-05-03T07:29:03.999Z</time></trkpt><trkpt lat="42.365308799870284" lon="13.502993512254125"><ele>934.3333333333334</ele><time>2026-05-03T07:29:04.999Z</time></trkpt><trkpt lat="42.3653509469103" lon="13.503081017302641"><ele>935.6666666666667</ele><time>2026-05-03T07:29:05.999Z</time></trkpt><trkpt lat="42.365401890460866" lon="13.503170083485053"><ele>937.0</ele><time>2026-05-03T07:29:06.999Z</time></trkpt><trkpt lat="42.36545446740871" lon="13.503265489252172"><ele>938.3333333333334</ele><time>2026-05-03T07:29:07.999Z</time></trkpt><trkpt lat="42.36550902210189" lon="13.503368939144728"><ele>939.6666666666667</ele><time>2026-05-03T07:29:08.999Z</time></trkpt><trkpt lat="42.36556336448616" lon="13.503474836782772"><ele>941.0</ele><time>2026-05-03T07:29:09.999Z</time></trkpt><trkpt lat="42.365613535096216" lon="13.503581068744216"><ele>941.0000000000001</ele><time>2026-05-03T07:29:10.999Z</time></trkpt><trkpt lat="42.365667049019514" lon="13.503676673010073"><ele>941.0</ele><time>2026-05-03T07:29:11.999Z</time></trkpt><trkpt lat="42.36571256542487" lon="13.503762036779431"><ele>941.0</ele><time>2026-05-03T07:29:12.999Z</time></trkpt><trkpt lat="42.365745539325474" lon="13.503850558469543"><ele>941.0</ele><time>2026-05-03T07:29:13.999Z</time></trkpt><trkpt lat="42.365764151768" lon="13.503938753479648"><ele>941.0000000000001</ele><time>2026-05-03T07:29:14.999Z</time></trkpt><trkpt lat="42.36578715100414" lon="13.504048590083414"><ele>941.0</ele><time>2026-05-03T07:29:15.999Z</time></trkpt><trkpt lat="42.36582131555463" lon="13.504165147392929"><ele>941.8</ele><time>2026-05-03T07:29:16.999Z</time></trkpt><trkpt lat="42.36584272608248" lon="13.504278331920357"><ele>942.5999999999999</ele><time>2026-05-03T07:29:17.999Z</time></trkpt><trkpt lat="42.365848052644445" lon="13.504382911191467"><ele>943.4</ele><time>2026-05-03T07:29:18.999Z</time></trkpt><trkpt lat="42.36583886518415" lon="13.50451887551616"><ele>944.2</ele><time>2026-05-03T07:29:20.999Z</time></trkpt><trkpt lat="42.365822832777766" lon="13.504670930724071"><ele>945.0</ele><time>2026-05-03T07:29:22.999Z</time></trkpt><trkpt lat="42.3658035751978" lon="13.50484297193984"><ele>945.1666666666666</ele><time>2026-05-03T07:29:24.999Z</time></trkpt><trkpt lat="42.36581651293642" lon="13.504958887162436"><ele>945.3333333333333</ele><time>2026-05-03T07:29:25.999Z</time></trkpt><trkpt lat="42.36584338498343" lon="13.505084725079367"><ele>945.5</ele><time>2026-05-03T07:29:26.999Z</time></trkpt><trkpt lat="42.365870053545635" lon="13.505201609176126"><ele>945.6666666666666</ele><time>2026-05-03T07:29:27.999Z</time></trkpt><trkpt lat="42.36589781756205" lon="13.505297784241396"><ele>945.8333333333333</ele><time>2026-05-03T07:29:28.999Z</time></trkpt><trkpt lat="42.365918564698134" lon="13.50539184746902"><ele>946.0</ele><time>2026-05-03T07:29:29.999Z</time></trkpt><trkpt lat="42.36594237230892" lon="13.50551330581434"><ele>946.1666666666666</ele><time>2026-05-03T07:29:30.999Z</time></trkpt><trkpt lat="42.36596106397639" lon="13.505628935286566"><ele>946.3333333333333</ele><time>2026-05-03T07:29:31.999Z</time></trkpt><trkpt lat="42.365975206327576" lon="13.50575528206286"><ele>946.5</ele><time>2026-05-03T07:29:32.999Z</time></trkpt><trkpt lat="42.365993812263596" lon="13.505872852067478"><ele>946.6666666666667</ele><time>2026-05-03T07:29:33.999Z</time></trkpt><trkpt lat="42.366002308914766" lon="13.505961533120761"><ele>946.8333333333334</ele><time>2026-05-03T07:29:34.999Z</time></trkpt><trkpt lat="42.36600594104337" lon="13.50604756039351"><ele>947.0</ele><time>2026-05-03T07:29:35.998Z</time></trkpt><trkpt lat="42.36602371177583" lon="13.50613366302643"><ele>947.0000000000001</ele><time>2026-05-03T07:29:36.998Z</time></trkpt><trkpt lat="42.366025463529134" lon="13.506227561782023"><ele>947.0</ele><time>2026-05-03T07:29:37.998Z</time></trkpt><trkpt lat="42.36603516609721" lon="13.506340181071486"><ele>947.0</ele><time>2026-05-03T07:29:38.998Z</time></trkpt><trkpt lat="42.36605532635824" lon="13.506445532237674"><ele>947.0</ele><time>2026-05-03T07:29:39.998Z</time></trkpt><trkpt lat="42.366083294062264" lon="13.50652330826952"><ele>947.0000000000001</ele><time>2026-05-03T07:29:40.998Z</time></trkpt><trkpt lat="42.36616361983248" lon="13.506641256372475"><ele>947.0</ele><time>2026-05-03T07:29:42.998Z</time></trkpt><trkpt lat="42.36622612631978" lon="13.506794334564768"><ele>947.3333333333334</ele><time>2026-05-03T07:29:45Z</time></trkpt><trkpt lat="42.36627217427168" lon="13.50687705545048"><ele>947.6666666666667</ele><time>2026-05-03T07:29:46Z</time></trkpt><trkpt lat="42.36632868157624" lon="13.506949784178287"><ele>948.0</ele><time>2026-05-03T07:29:47Z</time></trkpt><trkpt lat="42.36638769954163" lon="13.507016563317904"><ele>948.3333333333333</ele><time>2026-05-03T07:29:48Z</time></trkpt><trkpt lat="42.36644695069746" lon="13.507082620090848"><ele>948.6666666666666</ele><time>2026-05-03T07:29:49Z</time></trkpt><trkpt lat="42.36648740629644" lon="13.507151733102926"><ele>949.0</ele><time>2026-05-03T07:29:50Z</time></trkpt><trkpt lat="42.366570733777344" lon="13.507297701091082"><ele>950.8333333333333</ele><time>2026-05-03T07:29:52Z</time></trkpt><trkpt lat="42.36662462989015" lon="13.507386261980201"><ele>952.6666666666666</ele><time>2026-05-03T07:29:53Z</time></trkpt><trkpt lat="42.36667013514178" lon="13.507465870344792"><ele>954.5</ele><time>2026-05-03T07:29:54Z</time></trkpt><trkpt lat="42.36672346210778" lon="13.507540403229351"><ele>956.3333333333333</ele><time>2026-05-03T07:29:55Z</time></trkpt><trkpt lat="42.36676912949273" lon="13.507610669156934"><ele>958.1666666666666</ele><time>2026-05-03T07:29:56Z</time></trkpt><trkpt lat="42.366820184491914" lon="13.507715908344384"><ele>960.0</ele><time>2026-05-03T07:29:58Z</time></trkpt><trkpt lat="42.36682177279214" lon="13.507814013652371"><ele>960.0</ele><time>2026-05-03T07:30:24Z</time></trkpt><trkpt lat="42.36674715431955" lon="13.507835582375659"><ele>960.0</ele><time>2026-05-03T07:30:27Z</time></trkpt><trkpt lat="42.3666713828301" lon="13.50784413760884"><ele>960.0</ele><time>2026-05-03T07:30:29Z</time></trkpt><trkpt lat="42.366583583383644" lon="13.507922501965284"><ele>960.0</ele><time>2026-05-03T07:30:31Z</time></trkpt><trkpt lat="42.36649580343643" lon="13.508025351579912"><ele>960.0</ele><time>2026-05-03T07:30:32.999Z</time></trkpt><trkpt lat="42.36641560366111" lon="13.508079778956757"><ele>958.8333333333334</ele><time>2026-05-03T07:30:34.999Z</time></trkpt><trkpt lat="42.366338894295914" lon="13.508092102407442"><ele>957.6666666666667</ele><time>2026-05-03T07:30:36.999Z</time></trkpt><trkpt lat="42.366272024312764" lon="13.508123171051658"><ele>956.5</ele><time>2026-05-03T07:30:38.999Z</time></trkpt><trkpt lat="42.366203749500706" lon="13.508110825120726"><ele>955.3333333333334</ele><time>2026-05-03T07:30:41.999Z</time></trkpt><trkpt lat="42.366115925249616" lon="13.508134616595944"><ele>954.1666666666667</ele><time>2026-05-03T07:30:43.999Z</time></trkpt><trkpt lat="42.36605343100983" lon="13.508198703770955"><ele>953.0</ele><time>2026-05-03T07:30:45.999Z</time></trkpt><trkpt lat="42.36598354909536" lon="13.508314885213851"><ele>953.0</ele><time>2026-05-03T07:30:47.999Z</time></trkpt><trkpt lat="42.3659418435551" lon="13.508407703565856"><ele>953.0</ele><time>2026-05-03T07:30:48.999Z</time></trkpt><trkpt lat="42.36590140644651" lon="13.508483223025953"><ele>953.0</ele><time>2026-05-03T07:30:49.999Z</time></trkpt><trkpt lat="42.365817961062106" lon="13.508587051006034"><ele>953.0</ele><time>2026-05-03T07:30:51.999Z</time></trkpt><trkpt lat="42.36575667990534" lon="13.508681622946742"><ele>953.0</ele><time>2026-05-03T07:30:53.999Z</time></trkpt><trkpt lat="42.36576009022791" lon="13.508873947551434"><ele>954.2</ele><time>2026-05-03T07:30:55.999Z</time></trkpt><trkpt lat="42.3657322116927" lon="13.50897361424243"><ele>955.4</ele><time>2026-05-03T07:30:56.999Z</time></trkpt><trkpt lat="42.365690293998895" lon="13.509065392092717"><ele>956.6000000000001</ele><time>2026-05-03T07:30:57.999Z</time></trkpt><trkpt lat="42.365623997870486" lon="13.509181873618603"><ele>957.8000000000001</ele><time>2026-05-03T07:30:59.999Z</time></trkpt><trkpt lat="42.36559101161122" lon="13.509328105453974"><ele>959.0</ele><time>2026-05-03T07:31:01.999Z</time></trkpt><trkpt lat="42.36559318535907" lon="13.509424124737716"><ele>959.0</ele><time>2026-05-03T07:31:02.999Z</time></trkpt><trkpt lat="42.365607579343255" lon="13.509573728482636"><ele>959.0000000000001</ele><time>2026-05-03T07:31:04.999Z</time></trkpt><trkpt lat="42.36566033424886" lon="13.509707931009242"><ele>959.0000000000001</ele><time>2026-05-03T07:31:06.999Z</time></trkpt><trkpt lat="42.365710256882345" lon="13.509761497116086"><ele>959.0</ele><time>2026-05-03T07:31:07.999Z</time></trkpt><trkpt lat="42.36582099480907" lon="13.509840213617466"><ele>959.0</ele><time>2026-05-03T07:31:09.999Z</time></trkpt><trkpt lat="42.36593203953695" lon="13.509907173332156"><ele>958.6666666666667</ele><time>2026-05-03T07:31:11.999Z</time></trkpt><trkpt lat="42.3659966310368" lon="13.509930419282965"><ele>958.3333333333334</ele><time>2026-05-03T07:31:12.999Z</time></trkpt><trkpt lat="42.36606078665372" lon="13.509940324549895"><ele>958.0</ele><time>2026-05-03T07:31:13.999Z</time></trkpt><trkpt lat="42.36610968291404" lon="13.510055156291248"><ele>957.6666666666667</ele><time>2026-05-03T07:31:15.999Z</time></trkpt><trkpt lat="42.36608638116156" lon="13.510139467084047"><ele>957.3333333333334</ele><time>2026-05-03T07:31:16.999Z</time></trkpt><trkpt lat="42.36604338036133" lon="13.5102439908985"><ele>957.0</ele><time>2026-05-03T07:31:17.999Z</time></trkpt><trkpt lat="42.366005540126636" lon="13.510349820756202"><ele>956.8333333333334</ele><time>2026-05-03T07:31:18.999Z</time></trkpt><trkpt lat="42.3659807233935" lon="13.51046135287023"><ele>956.6666666666667</ele><time>2026-05-03T07:31:19.999Z</time></trkpt><trkpt lat="42.36594075224508" lon="13.51055995165121"><ele>956.5</ele><time>2026-05-03T07:31:20.999Z</time></trkpt><trkpt lat="42.365873956443366" lon="13.510638215434335"><ele>956.3333333333334</ele><time>2026-05-03T07:31:21.999Z</time></trkpt><trkpt lat="42.36579382702389" lon="13.510692663199507"><ele>956.1666666666667</ele><time>2026-05-03T07:31:22.999Z</time></trkpt><trkpt lat="42.36571751800785" lon="13.510763704021496"><ele>956.0</ele><time>2026-05-03T07:31:23.999Z</time></trkpt><trkpt lat="42.365668868321194" lon="13.510852999033578"><ele>956.0000000000001</ele><time>2026-05-03T07:31:24.999Z</time></trkpt><trkpt lat="42.365627754792435" lon="13.510954711028631"><ele>956.0</ele><time>2026-05-03T07:31:25.999Z</time></trkpt><trkpt lat="42.36559740054881" lon="13.511053629851107"><ele>956.0</ele><time>2026-05-03T07:31:26.999Z</time></trkpt><trkpt lat="42.36556978590258" lon="13.51117018689375"><ele>956.0</ele><time>2026-05-03T07:31:27.999Z</time></trkpt><trkpt lat="42.365561465737855" lon="13.511280214288556"><ele>956.0000000000001</ele><time>2026-05-03T07:31:28.999Z</time></trkpt><trkpt lat="42.36554813380951" lon="13.511384457418494"><ele>956.0</ele><time>2026-05-03T07:31:29.999Z</time></trkpt><trkpt lat="42.36552020532293" lon="13.511480602793885"><ele>956.1666666666667</ele><time>2026-05-03T07:31:30.999Z</time></trkpt><trkpt lat="42.36547625626715" lon="13.511590731175907"><ele>956.3333333333334</ele><time>2026-05-03T07:31:31.999Z</time></trkpt><trkpt lat="42.36544606688499" lon="13.511702846483695"><ele>956.5</ele><time>2026-05-03T07:31:32.999Z</time></trkpt><trkpt lat="42.365412990432425" lon="13.511814115774364"><ele>956.6666666666667</ele><time>2026-05-03T07:31:33.999Z</time></trkpt><trkpt lat="42.365382512252765" lon="13.51192873004562"><ele>956.8333333333334</ele><time>2026-05-03T07:31:34.999Z</time></trkpt><trkpt lat="42.36536734413418" lon="13.512015228329295"><ele>957.0</ele><time>2026-05-03T07:31:35.999Z</time></trkpt><trkpt lat="42.365369021273395" lon="13.512155007897245"><ele>957.0</ele><time>2026-05-03T07:31:37.999Z</time></trkpt><trkpt lat="42.365368769003425" lon="13.512273321365013"><ele>957.0</ele><time>2026-05-03T07:31:39.998Z</time></trkpt><trkpt lat="42.365384393331745" lon="13.512423087544084"><ele>957.0</ele><time>2026-05-03T07:31:41.998Z</time></trkpt><trkpt lat="42.36541844997743" lon="13.512516102239294"><ele>957.0</ele><time>2026-05-03T07:31:42.998Z</time></trkpt><trkpt lat="42.365458712822495" lon="13.512622167402489"><ele>957.0</ele><time>2026-05-03T07:31:43.998Z</time></trkpt><trkpt lat="42.36548564792505" lon="13.512743699186027"><ele>957.0</ele><time>2026-05-03T07:31:44.998Z</time></trkpt><trkpt lat="42.365507531460004" lon="13.512873924505765"><ele>957.0</ele><time>2026-05-03T07:31:45.998Z</time></trkpt><trkpt lat="42.36551929398344" lon="13.51297812194167"><ele>957.0</ele><time>2026-05-03T07:31:46.998Z</time></trkpt><trkpt lat="42.36553038661524" lon="13.513086133235202"><ele>957.0</ele><time>2026-05-03T07:31:47.998Z</time></trkpt><trkpt lat="42.36553910641364" lon="13.51317265067183"><ele>957.0</ele><time>2026-05-03T07:31:48.998Z</time></trkpt><trkpt lat="42.36547112878877" lon="13.513249655398539"><ele>957.0</ele><time>2026-05-03T07:31:52Z</time></trkpt><trkpt lat="42.365360038816775" lon="13.513184081364475"><ele>957.0</ele><time>2026-05-03T07:31:54Z</time></trkpt><trkpt lat="42.365310331891116" lon="13.513104229026927"><ele>957.0</ele><time>2026-05-03T07:31:55Z</time></trkpt><trkpt lat="42.36526807700968" lon="13.513016965126964"><ele>957.0</ele><time>2026-05-03T07:31:56Z</time></trkpt><trkpt lat="42.36522554477598" lon="13.51293013308277"><ele>957.0</ele><time>2026-05-03T07:31:57Z</time></trkpt><trkpt lat="42.365178597321005" lon="13.512850980740998"><ele>957.0</ele><time>2026-05-03T07:31:58Z</time></trkpt><trkpt lat="42.365121540870895" lon="13.512771359220938"><ele>957.0</ele><time>2026-05-03T07:31:59Z</time></trkpt><trkpt lat="42.36506904230196" lon="13.512695346842069"><ele>957.0</ele><time>2026-05-03T07:32:00Z</time></trkpt><trkpt lat="42.36500632814518" lon="13.512610454206257"><ele>957.0</ele><time>2026-05-03T07:32:01Z</time></trkpt><trkpt lat="42.36496076006405" lon="13.512537588650275"><ele>957.0</ele><time>2026-05-03T07:32:02Z</time></trkpt><trkpt lat="42.36492056482264" lon="13.51245320927171"><ele>957.0</ele><time>2026-05-03T07:32:03Z</time></trkpt><trkpt lat="42.364876890469986" lon="13.512374444722521"><ele>957.0</ele><time>2026-05-03T07:32:04Z</time></trkpt><trkpt lat="42.36482666784435" lon="13.512295607416833"><ele>957.0</ele><time>2026-05-03T07:32:05Z</time></trkpt><trkpt lat="42.36477752454077" lon="13.51223138025715"><ele>957.0</ele><time>2026-05-03T07:32:06Z</time></trkpt><trkpt lat="42.36473194058611" lon="13.512156996176754"><ele>957.0</ele><time>2026-05-03T07:32:07Z</time></trkpt><trkpt lat="42.36467818730315" lon="13.512093701768796"><ele>957.0</ele><time>2026-05-03T07:32:08Z</time></trkpt><trkpt lat="42.36460162547271" lon="13.512028573200842"><ele>957.0</ele><time>2026-05-03T07:32:09Z</time></trkpt><trkpt lat="42.36453018893476" lon="13.511964290262473"><ele>957.0</ele><time>2026-05-03T07:32:10Z</time></trkpt><trkpt lat="42.3644673917889" lon="13.511893456017672"><ele>957.0</ele><time>2026-05-03T07:32:11Z</time></trkpt><trkpt lat="42.364404220059754" lon="13.511814476552857"><ele>955.4285714285714</ele><time>2026-05-03T07:32:12Z</time></trkpt><trkpt lat="42.36434395274539" lon="13.511747527205689"><ele>953.8571428571429</ele><time>2026-05-03T07:32:13Z</time></trkpt><trkpt lat="42.364283068209005" lon="13.511676185926573"><ele>952.2857142857143</ele><time>2026-05-03T07:32:14Z</time></trkpt><trkpt lat="42.36423108379562" lon="13.511604872511402"><ele>950.7142857142858</ele><time>2026-05-03T07:32:15Z</time></trkpt><trkpt lat="42.36418071636158" lon="13.51153775020107"><ele>949.1428571428571</ele><time>2026-05-03T07:32:16Z</time></trkpt><trkpt lat="42.3641261354652" lon="13.511486324290168"><ele>947.5714285714287</ele><time>2026-05-03T07:32:17Z</time></trkpt><trkpt lat="42.36405795155926" lon="13.511453707670924"><ele>946.0</ele><time>2026-05-03T07:32:18Z</time></trkpt><trkpt lat="42.363971352417074" lon="13.511423956616492"><ele>945.9999999999999</ele><time>2026-05-03T07:32:19Z</time></trkpt><trkpt lat="42.363883493608164" lon="13.511393237582434"><ele>946.0</ele><time>2026-05-03T07:32:20Z</time></trkpt><trkpt lat="42.36379170043061" lon="13.51136755924129"><ele>946.0</ele><time>2026-05-03T07:32:21Z</time></trkpt><trkpt lat="42.36369993315274" lon="13.511349132478909"><ele>946.0</ele><time>2026-05-03T07:32:22Z</time></trkpt><trkpt lat="42.36362383698173" lon="13.511325424013252"><ele>945.9999999999999</ele><time>2026-05-03T07:32:23Z</time></trkpt><trkpt lat="42.363543358457896" lon="13.511296704238116"><ele>946.0</ele><time>2026-05-03T07:32:24Z</time></trkpt><trkpt lat="42.36346549564297" lon="13.511274594029882"><ele>946.1666666666666</ele><time>2026-05-03T07:32:25Z</time></trkpt><trkpt lat="42.363389240543846" lon="13.511257673928004"><ele>946.3333333333333</ele><time>2026-05-03T07:32:26Z</time></trkpt><trkpt lat="42.36331312110585" lon="13.511253722425305"><ele>946.5</ele><time>2026-05-03T07:32:27Z</time></trkpt><trkpt lat="42.36324599631665" lon="13.511245336823999"><ele>946.6666666666667</ele><time>2026-05-03T07:32:28Z</time></trkpt><trkpt lat="42.36313867985407" lon="13.511158289164328"><ele>946.8333333333334</ele><time>2026-05-03T07:32:30Z</time></trkpt><trkpt lat="42.363087764841836" lon="13.511068824304406"><ele>947.0</ele><time>2026-05-03T07:32:31Z</time></trkpt><trkpt lat="42.36302531011297" lon="13.510971394314343"><ele>944.5000000000001</ele><time>2026-05-03T07:32:32Z</time></trkpt><trkpt lat="42.36294924895583" lon="13.510908498159964"><ele>942.0</ele><time>2026-05-03T07:32:33Z</time></trkpt><trkpt lat="42.36288928293027" lon="13.510835116756242"><ele>939.5</ele><time>2026-05-03T07:32:34Z</time></trkpt><trkpt lat="42.362830860176544" lon="13.510749085136455"><ele>937.0</ele><time>2026-05-03T07:32:35Z</time></trkpt><trkpt lat="42.36277139805729" lon="13.510668302057988"><ele>934.5000000000001</ele><time>2026-05-03T07:32:36Z</time></trkpt><trkpt lat="42.36270101759357" lon="13.51058963718758"><ele>932.0</ele><time>2026-05-03T07:32:37Z</time></trkpt><trkpt lat="42.362645075485496" lon="13.510538774855245"><ele>932.0</ele><time>2026-05-03T07:32:38Z</time></trkpt><trkpt lat="42.362582224698045" lon="13.51051231909058"><ele>932.0</ele><time>2026-05-03T07:32:39Z</time></trkpt><trkpt lat="42.36250067777744" lon="13.510519775211893"><ele>932.0</ele><time>2026-05-03T07:32:39.999Z</time></trkpt><trkpt lat="42.362434271474406" lon="13.510544872375064"><ele>932.0</ele><time>2026-05-03T07:32:40.999Z</time></trkpt><trkpt lat="42.36236382362752" lon="13.51055310948503"><ele>932.0</ele><time>2026-05-03T07:32:41.999Z</time></trkpt><trkpt lat="42.36228945689599" lon="13.51056360225879"><ele>932.0</ele><time>2026-05-03T07:32:42.999Z</time></trkpt><trkpt lat="42.3622125004725" lon="13.51059144999975"><ele>932.0</ele><time>2026-05-03T07:32:43.999Z</time></trkpt><trkpt lat="42.36213212988353" lon="13.510635175180802"><ele>930.4000000000001</ele><time>2026-05-03T07:32:44.999Z</time></trkpt><trkpt lat="42.36206569118657" lon="13.510660297873535"><ele>928.8000000000001</ele><time>2026-05-03T07:32:45.999Z</time></trkpt><trkpt lat="42.361936220232664" lon="13.510646578707995"><ele>927.2</ele><time>2026-05-03T07:32:47.999Z</time></trkpt><trkpt lat="42.361853170385366" lon="13.51065257053408"><ele>925.6</ele><time>2026-05-03T07:32:48.999Z</time></trkpt><trkpt lat="42.36177371720011" lon="13.510691709324632"><ele>924.0</ele><time>2026-05-03T07:32:49.999Z</time></trkpt><trkpt lat="42.36169379248754" lon="13.510738428449528"><ele>924.0</ele><time>2026-05-03T07:32:50.999Z</time></trkpt><trkpt lat="42.36161658549622" lon="13.510751053451328"><ele>924.0</ele><time>2026-05-03T07:32:51.999Z</time></trkpt><trkpt lat="42.3615434202266" lon="13.510735992853794"><ele>924.0</ele><time>2026-05-03T07:32:52.999Z</time></trkpt><trkpt lat="42.36146634626834" lon="13.510725762193326"><ele>924.0</ele><time>2026-05-03T07:32:53.999Z</time></trkpt><trkpt lat="42.361392482211" lon="13.510721555711635"><ele>924.0</ele><time>2026-05-03T07:32:54.999Z</time></trkpt><trkpt lat="42.36132421642903" lon="13.510712083867707"><ele>924.0</ele><time>2026-05-03T07:32:55.999Z</time></trkpt><trkpt lat="42.36125269875569" lon="13.51068271330883"><ele>924.0</ele><time>2026-05-03T07:32:56.999Z</time></trkpt><trkpt lat="42.36117455752268" lon="13.510637463691587"><ele>923.1666666666666</ele><time>2026-05-03T07:32:57.999Z</time></trkpt><trkpt lat="42.361097522902945" lon="13.510597065739757"><ele>922.3333333333333</ele><time>2026-05-03T07:32:58.999Z</time></trkpt><trkpt lat="42.36101341193463" lon="13.510583209473563"><ele>921.5</ele><time>2026-05-03T07:32:59.999Z</time></trkpt><trkpt lat="42.36092212962568" lon="13.51057874247923"><ele>920.6666666666666</ele><time>2026-05-03T07:33:00.999Z</time></trkpt><trkpt lat="42.360843398799204" lon="13.510555181513576"><ele>919.8333333333333</ele><time>2026-05-03T07:33:01.999Z</time></trkpt><trkpt lat="42.36077106521327" lon="13.510514711390814"><ele>919.0</ele><time>2026-05-03T07:33:02.999Z</time></trkpt><trkpt lat="42.3607091409945" lon="13.510479838682375"><ele>918.8333333333333</ele><time>2026-05-03T07:33:03.999Z</time></trkpt><trkpt lat="42.360613663433625" lon="13.510379670245745"><ele>918.6666666666666</ele><time>2026-05-03T07:33:05.999Z</time></trkpt><trkpt lat="42.360563659474735" lon="13.510315984274584"><ele>918.5</ele><time>2026-05-03T07:33:06.999Z</time></trkpt><trkpt lat="42.36050278397801" lon="13.51026050395058"><ele>918.3333333333333</ele><time>2026-05-03T07:33:07.999Z</time></trkpt><trkpt lat="42.360442835611764" lon="13.510212821568029"><ele>918.1666666666666</ele><time>2026-05-03T07:33:08.999Z</time></trkpt><trkpt lat="42.36039065684015" lon="13.510165000332814"><ele>918.0</ele><time>2026-05-03T07:33:09.999Z</time></trkpt><trkpt lat="42.360337632413795" lon="13.510105936820565"><ele>916.2857142857143</ele><time>2026-05-03T07:33:10.999Z</time></trkpt><trkpt lat="42.36028168834731" lon="13.510041906685613"><ele>914.5714285714284</ele><time>2026-05-03T07:33:11.999Z</time></trkpt><trkpt lat="42.36023075634856" lon="13.5099731414136"><ele>912.8571428571428</ele><time>2026-05-03T07:33:12.999Z</time></trkpt><trkpt lat="42.360170824092684" lon="13.509906947199148"><ele>911.1428571428571</ele><time>2026-05-03T07:33:13.999Z</time></trkpt><trkpt lat="42.36011662325259" lon="13.509837973006118"><ele>909.4285714285713</ele><time>2026-05-03T07:33:14.999Z</time></trkpt><trkpt lat="42.36006242242445" lon="13.509768838083115"><ele>907.7142857142856</ele><time>2026-05-03T07:33:15.999Z</time></trkpt><trkpt lat="42.36000559527386" lon="13.509713067947732"><ele>905.9999999999999</ele><time>2026-05-03T07:33:16.999Z</time></trkpt><trkpt lat="42.35993080619514" lon="13.509583609541593"><ele>905.8333333333334</ele><time>2026-05-03T07:33:18.999Z</time></trkpt><trkpt lat="42.35992135336997" lon="13.509498275692222"><ele>905.6666666666667</ele><time>2026-05-03T07:33:19.999Z</time></trkpt><trkpt lat="42.35989666274039" lon="13.509383511819797"><ele>905.5</ele><time>2026-05-03T07:33:20.999Z</time></trkpt><trkpt lat="42.359872622624295" lon="13.509259889284849"><ele>905.3333333333334</ele><time>2026-05-03T07:33:21.999Z</time></trkpt><trkpt lat="42.35983961920731" lon="13.509152379949796"><ele>905.1666666666667</ele><time>2026-05-03T07:33:22.999Z</time></trkpt><trkpt lat="42.35980585915626" lon="13.509030934627045"><ele>905.0</ele><time>2026-05-03T07:33:23.999Z</time></trkpt><trkpt lat="42.35978480222009" lon="13.508900933735848"><ele>905.0</ele><time>2026-05-03T07:33:24.999Z</time></trkpt><trkpt lat="42.35976399492745" lon="13.50876841052896"><ele>905.0</ele><time>2026-05-03T07:33:25.999Z</time></trkpt><trkpt lat="42.35973912045762" lon="13.508640625479867"><ele>905.0</ele><time>2026-05-03T07:33:26.999Z</time></trkpt><trkpt lat="42.35971137309769" lon="13.508515612574294"><ele>905.0</ele><time>2026-05-03T07:33:27.999Z</time></trkpt><trkpt lat="42.35968581955457" lon="13.50838926625508"><ele>905.0</ele><time>2026-05-03T07:33:28.999Z</time></trkpt><trkpt lat="42.35966881867268" lon="13.508273467341295"><ele>903.1666666666667</ele><time>2026-05-03T07:33:29.999Z</time></trkpt><trkpt lat="42.35965511381061" lon="13.50816188613569"><ele>901.3333333333334</ele><time>2026-05-03T07:33:30.999Z</time></trkpt><trkpt lat="42.3596397030815" lon="13.508046413165415"><ele>899.5</ele><time>2026-05-03T07:33:31.999Z</time></trkpt><trkpt lat="42.35961229251125" lon="13.507929334539199"><ele>897.6666666666667</ele><time>2026-05-03T07:33:32.999Z</time></trkpt><trkpt lat="42.3595877715347" lon="13.50781203705886"><ele>895.8333333333334</ele><time>2026-05-03T07:33:33.999Z</time></trkpt><trkpt lat="42.35956858993795" lon="13.507702769131834"><ele>894.0</ele><time>2026-05-03T07:33:34.999Z</time></trkpt><trkpt lat="42.35955355253309" lon="13.507612853020682"><ele>892.6</ele><time>2026-05-03T07:33:35.999Z</time></trkpt><trkpt lat="42.35955931674273" lon="13.507516101918068"><ele>891.2</ele><time>2026-05-03T07:33:36.999Z</time></trkpt><trkpt lat="42.35957947669358" lon="13.507416727385577"><ele>889.8000000000001</ele><time>2026-05-03T07:33:37.999Z</time></trkpt><trkpt lat="42.359567431377705" lon="13.507269009084498"><ele>888.4000000000001</ele><time>2026-05-03T07:33:39.999Z</time></trkpt><trkpt lat="42.359510612238466" lon="13.507168574420533"><ele>887.0</ele><time>2026-05-03T07:33:41.999Z</time></trkpt><trkpt lat="42.35948391800762" lon="13.507019234449565"><ele>885.8</ele><time>2026-05-03T07:33:43.999Z</time></trkpt><trkpt lat="42.35950654082071" lon="13.506860003519732"><ele>884.6</ele><time>2026-05-03T07:33:45.999Z</time></trkpt><trkpt lat="42.35949482241552" lon="13.506686135578192"><ele>883.3999999999999</ele><time>2026-05-03T07:33:47.998Z</time></trkpt><trkpt lat="42.35946525651151" lon="13.50660399142667"><ele>882.1999999999999</ele><time>2026-05-03T07:33:48.998Z</time></trkpt><trkpt lat="42.3594377046359" lon="13.50651944731388"><ele>881.0</ele><time>2026-05-03T07:33:49.998Z</time></trkpt><trkpt lat="42.35941359214103" lon="13.506433651932326"><ele>881.0000000000001</ele><time>2026-05-03T07:33:50.998Z</time></trkpt><trkpt lat="42.35938283462126" lon="13.506308497769322"><ele>881.0</ele><time>2026-05-03T07:33:52.998Z</time></trkpt><trkpt lat="42.35931920452606" lon="13.506248012106152"><ele>881.0</ele><time>2026-05-03T07:33:56Z</time></trkpt><trkpt lat="42.35922933563083" lon="13.506336843946404"><ele>881.0</ele><time>2026-05-03T07:33:58Z</time></trkpt><trkpt lat="42.35916577475912" lon="13.506378970788813"><ele>881.0000000000001</ele><time>2026-05-03T07:33:59Z</time></trkpt><trkpt lat="42.35908041100772" lon="13.506352583960131"><ele>881.0</ele><time>2026-05-03T07:34:00Z</time></trkpt><trkpt lat="42.358994398049155" lon="13.506290345477884"><ele>880.25</ele><time>2026-05-03T07:34:01Z</time></trkpt><trkpt lat="42.35890780480831" lon="13.50619673465091"><ele>879.5</ele><time>2026-05-03T07:34:02Z</time></trkpt><trkpt lat="42.358814856315156" lon="13.506076699970873"><ele>878.75</ele><time>2026-05-03T07:34:03Z</time></trkpt><trkpt lat="42.35873600271351" lon="13.505940146011755"><ele>878.0</ele><time>2026-05-03T07:34:04Z</time></trkpt><trkpt lat="42.358665754345566" lon="13.50580275026372"><ele>877.5</ele><time>2026-05-03T07:34:05Z</time></trkpt><trkpt lat="42.35860287218545" lon="13.505680715238224"><ele>877.0</ele><time>2026-05-03T07:34:06Z</time></trkpt><trkpt lat="42.358546167108955" lon="13.505558257952334"><ele>876.5</ele><time>2026-05-03T07:34:07Z</time></trkpt><trkpt lat="42.3584786229871" lon="13.505438539925295"><ele>876.0</ele><time>2026-05-03T07:34:08Z</time></trkpt><trkpt lat="42.358397722369645" lon="13.505306811375116"><ele>876.0</ele><time>2026-05-03T07:34:09Z</time></trkpt><trkpt lat="42.358307105392974" lon="13.505165481642464"><ele>876.0</ele><time>2026-05-03T07:34:10Z</time></trkpt><trkpt lat="42.358178296049175" lon="13.505042569453497"><ele>876.0</ele><time>2026-05-03T07:34:11Z</time></trkpt><trkpt lat="42.358008316106165" lon="13.504936903805474"><ele>883.6666666666667</ele><time>2026-05-03T07:34:12Z</time></trkpt><trkpt lat="42.35782341229484" lon="13.504843717298895"><ele>891.3333333333334</ele><time>2026-05-03T07:34:13Z</time></trkpt><trkpt lat="42.35783517030584" lon="13.504694487725839"><ele>899.0</ele><time>2026-05-03T07:34:14Z</time></trkpt><trkpt lat="42.35770233383796" lon="13.504609146737508"><ele>894.25</ele><time>2026-05-03T07:34:15Z</time></trkpt><trkpt lat="42.35757368717631" lon="13.504534843366766"><ele>889.5</ele><time>2026-05-03T07:34:16Z</time></trkpt><trkpt lat="42.357442857965026" lon="13.504476838317993"><ele>884.75</ele><time>2026-05-03T07:34:17Z</time></trkpt><trkpt lat="42.357302080097526" lon="13.504446136868756"><ele>880.0</ele><time>2026-05-03T07:34:18Z</time></trkpt><trkpt lat="42.357158087046464" lon="13.504445220702591"><ele>880.0</ele><time>2026-05-03T07:34:19Z</time></trkpt><trkpt lat="42.35700586452516" lon="13.504480843114482"><ele>880.0</ele><time>2026-05-03T07:34:20Z</time></trkpt><trkpt lat="42.35686800213611" lon="13.504543339042934"><ele>880.0</ele><time>2026-05-03T07:34:21Z</time></trkpt><trkpt lat="42.3567465755338" lon="13.504627037564592"><ele>880.0</ele><time>2026-05-03T07:34:22Z</time></trkpt><trkpt lat="42.35664590065254" lon="13.504726213135918"><ele>884.5</ele><time>2026-05-03T07:34:23Z</time></trkpt><trkpt lat="42.35656061074294" lon="13.504860666360827"><ele>889.0</ele><time>2026-05-03T07:34:24Z</time></trkpt><trkpt lat="42.35649653339915" lon="13.505019581898228"><ele>893.5</ele><time>2026-05-03T07:34:25Z</time></trkpt><trkpt lat="42.35645952473603" lon="13.505192859314612"><ele>898.0</ele><time>2026-05-03T07:34:26Z</time></trkpt><trkpt lat="42.35643906459934" lon="13.505342492413844"><ele>900.4</ele><time>2026-05-03T07:34:27Z</time></trkpt><trkpt lat="42.35641540857617" lon="13.505444962420471"><ele>902.8</ele><time>2026-05-03T07:34:28Z</time></trkpt><trkpt lat="42.35645328993303" lon="13.50556192707953"><ele>905.2</ele><time>2026-05-03T07:34:32Z</time></trkpt><trkpt lat="42.35651024089757" lon="13.505648424004361"><ele>907.6</ele><time>2026-05-03T07:34:34Z</time></trkpt><trkpt lat="42.3565799582034" lon="13.505732924475428"><ele>910.0</ele><time>2026-05-03T07:34:36Z</time></trkpt><trkpt lat="42.356678915627704" lon="13.505825573970341"><ele>910.0</ele><time>2026-05-03T07:34:38Z</time></trkpt><trkpt lat="42.356739326018555" lon="13.505908353233245"><ele>910.0</ele><time>2026-05-03T07:34:40Z</time></trkpt><trkpt lat="42.35681646156364" lon="13.505945746989731"><ele>910.0</ele><time>2026-05-03T07:34:42Z</time></trkpt><trkpt lat="42.356906991871185" lon="13.505997035641107"><ele>910.0</ele><time>2026-05-03T07:34:44Z</time></trkpt><trkpt lat="42.356951357153044" lon="13.506121393785676"><ele>910.0</ele><time>2026-05-03T07:34:45.999Z</time></trkpt><trkpt lat="42.35700928816708" lon="13.506251568487809"><ele>911.6666666666666</ele><time>2026-05-03T07:34:47.999Z</time></trkpt><trkpt lat="42.357020365638114" lon="13.506416420386946"><ele>913.3333333333333</ele><time>2026-05-03T07:34:49.999Z</time></trkpt><trkpt lat="42.35702171134809" lon="13.506507139560723"><ele>915.0</ele><time>2026-05-03T07:34:50.999Z</time></trkpt><trkpt lat="42.35700763196927" lon="13.506645831728898"><ele>916.6666666666667</ele><time>2026-05-03T07:34:52.999Z</time></trkpt><trkpt lat="42.35701447259151" lon="13.506735468042953"><ele>918.3333333333334</ele><time>2026-05-03T07:34:54.999Z</time></trkpt><trkpt lat="42.35705932843381" lon="13.506811013332792"><ele>920.0</ele><time>2026-05-03T07:34:56.999Z</time></trkpt><trkpt lat="42.35713862352167" lon="13.506805466707142"><ele>920.8333333333334</ele><time>2026-05-03T07:34:59.999Z</time></trkpt><trkpt lat="42.35720366775502" lon="13.506747798600227"><ele>921.6666666666667</ele><time>2026-05-03T07:35:01.999Z</time></trkpt><trkpt lat="42.357307953535766" lon="13.506678120760862"><ele>922.5</ele><time>2026-05-03T07:35:03.999Z</time></trkpt><trkpt lat="42.35737322240884" lon="13.506631784613358"><ele>923.3333333333333</ele><time>2026-05-03T07:35:04.999Z</time></trkpt><trkpt lat="42.3574446657546" lon="13.506644658134642"><ele>924.1666666666666</ele><time>2026-05-03T07:35:06.999Z</time></trkpt><trkpt lat="42.357495821311694" lon="13.506730126587124"><ele>925.0</ele><time>2026-05-03T07:35:08.999Z</time></trkpt><trkpt lat="42.35751363550813" lon="13.506832857432203"><ele>924.9999999999999</ele><time>2026-05-03T07:35:10.999Z</time></trkpt><trkpt lat="42.3575374172374" lon="13.506954589753915"><ele>925.0</ele><time>2026-05-03T07:35:12.999Z</time></trkpt><trkpt lat="42.35754553675274" lon="13.507044780610398"><ele>925.0</ele><time>2026-05-03T07:35:14.999Z</time></trkpt><trkpt lat="42.35754736180899" lon="13.507208523704392"><ele>925.0</ele><time>2026-05-03T07:35:16.999Z</time></trkpt><trkpt lat="42.35755787594772" lon="13.507308198233952"><ele>924.9999999999999</ele><time>2026-05-03T07:35:17.999Z</time></trkpt><trkpt lat="42.35756568906747" lon="13.507414514738551"><ele>925.0</ele><time>2026-05-03T07:35:18.999Z</time></trkpt><trkpt lat="42.357557307615174" lon="13.507520067537483"><ele>925.8333333333333</ele><time>2026-05-03T07:35:19.999Z</time></trkpt><trkpt lat="42.357535599511735" lon="13.507641583754937"><ele>926.6666666666666</ele><time>2026-05-03T07:35:20.999Z</time></trkpt><trkpt lat="42.357514849724915" lon="13.507752245144154"><ele>927.5</ele><time>2026-05-03T07:35:21.999Z</time></trkpt><trkpt lat="42.357510056678834" lon="13.507871006245747"><ele>928.3333333333333</ele><time>2026-05-03T07:35:22.999Z</time></trkpt><trkpt lat="42.357523429548735" lon="13.507990696608331"><ele>929.1666666666666</ele><time>2026-05-03T07:35:23.999Z</time></trkpt><trkpt lat="42.357539178552045" lon="13.508113446897562"><ele>930.0</ele><time>2026-05-03T07:35:24.999Z</time></trkpt><trkpt lat="42.3575548509862" lon="13.508237404129309"><ele>931.1428571428571</ele><time>2026-05-03T07:35:25.999Z</time></trkpt><trkpt lat="42.357559875728356" lon="13.50835542588393"><ele>932.2857142857143</ele><time>2026-05-03T07:35:26.999Z</time></trkpt><trkpt lat="42.35754612505066" lon="13.508456596848552"><ele>933.4285714285714</ele><time>2026-05-03T07:35:27.999Z</time></trkpt><trkpt lat="42.35753005034084" lon="13.50855478640197"><ele>934.5714285714286</ele><time>2026-05-03T07:35:28.999Z</time></trkpt><trkpt lat="42.35751232124973" lon="13.508643464332536"><ele>935.7142857142858</ele><time>2026-05-03T07:35:29.999Z</time></trkpt><trkpt lat="42.35750146654499" lon="13.50874700136537"><ele>936.8571428571429</ele><time>2026-05-03T07:35:30.999Z</time></trkpt><trkpt lat="42.35748480017472" lon="13.508831462229203"><ele>938.0</ele><time>2026-05-03T07:35:31.999Z</time></trkpt><trkpt lat="42.35747297246318" lon="13.508935123774503"><ele>940.5000000000001</ele><time>2026-05-03T07:35:32.999Z</time></trkpt><trkpt lat="42.357458894263196" lon="13.509022513645267"><ele>943.0</ele><time>2026-05-03T07:35:35.999Z</time></trkpt><trkpt lat="42.35742576791404" lon="13.50915883661024"><ele>945.5</ele><time>2026-05-03T07:35:37.999Z</time></trkpt><trkpt lat="42.35739926435496" lon="13.50925242946142"><ele>948.0</ele><time>2026-05-03T07:35:38.999Z</time></trkpt><trkpt lat="42.35734652132332" lon="13.509391447548497"><ele>950.5000000000001</ele><time>2026-05-03T07:35:40.999Z</time></trkpt><trkpt lat="42.357299013404386" lon="13.509479632225712"><ele>953.0</ele><time>2026-05-03T07:35:42.999Z</time></trkpt><trkpt lat="42.35726601881639" lon="13.509554462362335"><ele>954.8333333333334</ele><time>2026-05-03T07:35:43.999Z</time></trkpt><trkpt lat="42.35720260026191" lon="13.509691000191971"><ele>956.6666666666667</ele><time>2026-05-03T07:35:45.999Z</time></trkpt><trkpt lat="42.35717224800762" lon="13.509786117225872"><ele>958.5</ele><time>2026-05-03T07:35:48.999Z</time></trkpt><trkpt lat="42.35716193162053" lon="13.509890363289525"><ele>960.3333333333333</ele><time>2026-05-03T07:35:50.998Z</time></trkpt><trkpt lat="42.35713384718209" lon="13.509972609560247"><ele>962.1666666666666</ele><time>2026-05-03T07:35:51.998Z</time></trkpt><trkpt lat="42.35708850519513" lon="13.510063388738539"><ele>964.0</ele><time>2026-05-03T07:35:52.998Z</time></trkpt><trkpt lat="42.35705169860604" lon="13.51014276770908"><ele>963.9999999999999</ele><time>2026-05-03T07:35:53.998Z</time></trkpt><trkpt lat="42.35704021190151" lon="13.510233969034287"><ele>964.0</ele><time>2026-05-03T07:35:55.998Z</time></trkpt><trkpt lat="42.357118499598066" lon="13.510300513128493"><ele>964.0</ele><time>2026-05-03T07:35:57.998Z</time></trkpt><trkpt lat="42.357189293438076" lon="13.510338486064747"><ele>964.0</ele><time>2026-05-03T07:35:58.998Z</time></trkpt><trkpt lat="42.35726260312292" lon="13.51040019569801"><ele>963.9999999999999</ele><time>2026-05-03T07:35:59.998Z</time></trkpt><trkpt lat="42.35733251008498" lon="13.510474793257687"><ele>964.0</ele><time>2026-05-03T07:36:01Z</time></trkpt><trkpt lat="42.35739643172559" lon="13.510538292707412"><ele>964.3333333333333</ele><time>2026-05-03T07:36:02Z</time></trkpt><trkpt lat="42.357454252630276" lon="13.510590154020717"><ele>964.6666666666666</ele><time>2026-05-03T07:36:03Z</time></trkpt><trkpt lat="42.35751473983731" lon="13.510659837924004"><ele>965.0</ele><time>2026-05-03T07:36:04Z</time></trkpt><trkpt lat="42.357575369444504" lon="13.510753298438825"><ele>965.3333333333333</ele><time>2026-05-03T07:36:05Z</time></trkpt><trkpt lat="42.3576346029062" lon="13.510861747024231"><ele>965.6666666666666</ele><time>2026-05-03T07:36:06Z</time></trkpt><trkpt lat="42.35768572896909" lon="13.510974887196744"><ele>966.0</ele><time>2026-05-03T07:36:07Z</time></trkpt><trkpt lat="42.35773955136311" lon="13.51109775777689"><ele>966.0</ele><time>2026-05-03T07:36:08Z</time></trkpt><trkpt lat="42.35779024366402" lon="13.511235852903997"><ele>966.0</ele><time>2026-05-03T07:36:09Z</time></trkpt><trkpt lat="42.35784026572169" lon="13.511387188188015"><ele>966.0</ele><time>2026-05-03T07:36:10Z</time></trkpt><trkpt lat="42.35789573929531" lon="13.511544210910673"><ele>966.0</ele><time>2026-05-03T07:36:11Z</time></trkpt><trkpt lat="42.357957073556484" lon="13.511703243125055"><ele>966.0</ele><time>2026-05-03T07:36:12Z</time></trkpt><trkpt lat="42.358011758673086" lon="13.511866005269592"><ele>966.0</ele><time>2026-05-03T07:36:13Z</time></trkpt><trkpt lat="42.358070368651894" lon="13.512037995740428"><ele>966.0</ele><time>2026-05-03T07:36:14Z</time></trkpt><trkpt lat="42.35813460342938" lon="13.512216472577702"><ele>966.0</ele><time>2026-05-03T07:36:15Z</time></trkpt><trkpt lat="42.358206464183446" lon="13.512394454405435"><ele>966.75</ele><time>2026-05-03T07:36:16Z</time></trkpt><trkpt lat="42.35827856514746" lon="13.512574703338043"><ele>967.5</ele><time>2026-05-03T07:36:17Z</time></trkpt><trkpt lat="42.358347408827164" lon="13.512750556836234"><ele>968.25</ele><time>2026-05-03T07:36:18Z</time></trkpt><trkpt lat="42.35841881453263" lon="13.512920834918818"><ele>969.0</ele><time>2026-05-03T07:36:19Z</time></trkpt><trkpt lat="42.35847227107794" lon="13.513065785894488"><ele>969.4000000000001</ele><time>2026-05-03T07:36:20Z</time></trkpt><trkpt lat="42.358515795198606" lon="13.513204321483455"><ele>969.8000000000001</ele><time>2026-05-03T07:36:21Z</time></trkpt><trkpt lat="42.358554699496985" lon="13.513307153711592"><ele>970.1999999999999</ele><time>2026-05-03T07:36:22Z</time></trkpt><trkpt lat="42.35859125602062" lon="13.51340937681433"><ele>970.5999999999999</ele><time>2026-05-03T07:36:23Z</time></trkpt><trkpt lat="42.358625890429785" lon="13.513513215853427"><ele>971.0</ele><time>2026-05-03T07:36:24Z</time></trkpt><trkpt lat="42.35866450642786" lon="13.513635340812442"><ele>971.1999999999999</ele><time>2026-05-03T07:36:25Z</time></trkpt><trkpt lat="42.35871261964571" lon="13.513768980968612"><ele>971.3999999999999</ele><time>2026-05-03T07:36:26Z</time></trkpt><trkpt lat="42.35876722899397" lon="13.513899994661987"><ele>971.6</ele><time>2026-05-03T07:36:27Z</time></trkpt><trkpt lat="42.358823959065006" lon="13.514030551436166"><ele>971.8</ele><time>2026-05-03T07:36:28Z</time></trkpt><trkpt lat="42.3588794601618" lon="13.514148204222472"><ele>972.0</ele><time>2026-05-03T07:36:29Z</time></trkpt><trkpt lat="42.35892814975932" lon="13.514250950945291"><ele>973.6666666666666</ele><time>2026-05-03T07:36:30Z</time></trkpt><trkpt lat="42.358972378875976" lon="13.514361014146589"><ele>975.3333333333333</ele><time>2026-05-03T07:36:31Z</time></trkpt><trkpt lat="42.359009760771535" lon="13.514456321555828"><ele>977.0</ele><time>2026-05-03T07:36:32Z</time></trkpt><trkpt lat="42.35904933054648" lon="13.514544836928037"><ele>978.6666666666666</ele><time>2026-05-03T07:36:33Z</time></trkpt><trkpt lat="42.359091547208436" lon="13.51464354916841"><ele>980.3333333333333</ele><time>2026-05-03T07:36:34Z</time></trkpt><trkpt lat="42.35913632048962" lon="13.514751749294012"><ele>982.0</ele><time>2026-05-03T07:36:35Z</time></trkpt><trkpt lat="42.35918066357172" lon="13.514858881496904"><ele>982.0</ele><time>2026-05-03T07:36:36Z</time></trkpt><trkpt lat="42.359214599037564" lon="13.514935820444897"><ele>981.9999999999999</ele><time>2026-05-03T07:36:37Z</time></trkpt><trkpt lat="42.35926518812057" lon="13.514998505072597"><ele>982.0</ele><time>2026-05-03T07:36:39Z</time></trkpt><trkpt lat="42.35927422615137" lon="13.514912608495333"><ele>982.0</ele><time>2026-05-03T07:36:42Z</time></trkpt><trkpt lat="42.35922283320586" lon="13.514831675798916"><ele>981.9999999999999</ele><time>2026-05-03T07:36:44Z</time></trkpt><trkpt lat="42.35916929232076" lon="13.514758077227444"><ele>982.0</ele><time>2026-05-03T07:36:45Z</time></trkpt><trkpt lat="42.35911800658062" lon="13.514661755723568"><ele>982.0</ele><time>2026-05-03T07:36:46Z</time></trkpt><trkpt lat="42.35906742631411" lon="13.514550969863528"><ele>982.0</ele><time>2026-05-03T07:36:47Z</time></trkpt><trkpt lat="42.35901290935081" lon="13.51441830338388"><ele>982.0</ele><time>2026-05-03T07:36:48Z</time></trkpt><trkpt lat="42.358963876029115" lon="13.514295038769177"><ele>982.0</ele><time>2026-05-03T07:36:49Z</time></trkpt><trkpt lat="42.35891346902005" lon="13.514179333792157"><ele>982.0</ele><time>2026-05-03T07:36:49.999Z</time></trkpt><trkpt lat="42.3588691982881" lon="13.514065036457385"><ele>982.0</ele><time>2026-05-03T07:36:50.999Z</time></trkpt><trkpt lat="42.35883395829938" lon="13.513943498546999"><ele>980.0</ele><time>2026-05-03T07:36:51.999Z</time></trkpt><trkpt lat="42.3587899955755" lon="13.513871285912218"><ele>978.0</ele><time>2026-05-03T07:36:52.999Z</time></trkpt><trkpt lat="42.358760253031384" lon="13.513793007899839"><ele>976.0</ele><time>2026-05-03T07:36:53.999Z</time></trkpt><trkpt lat="42.35869559430551" lon="13.513709845031595"><ele>974.0</ele><time>2026-05-03T07:36:55.999Z</time></trkpt><trkpt lat="42.35864205667124" lon="13.513808160669523"><ele>972.0</ele><time>2026-05-03T07:36:57.999Z</time></trkpt><trkpt lat="42.35869222025867" lon="13.513985455270761"><ele>972.0</ele><time>2026-05-03T07:36:59.999Z</time></trkpt><trkpt lat="42.35873717134078" lon="13.5140981292585"><ele>972.0</ele><time>2026-05-03T07:37:00.999Z</time></trkpt><trkpt lat="42.35878934563602" lon="13.514221229004894"><ele>972.0</ele><time>2026-05-03T07:37:01.999Z</time></trkpt><trkpt lat="42.35886295763315" lon="13.514369063085354"><ele>972.0</ele><time>2026-05-03T07:37:02.999Z</time></trkpt><trkpt lat="42.358942223666304" lon="13.514543049957405"><ele>975.25</ele><time>2026-05-03T07:37:03.999Z</time></trkpt><trkpt lat="42.359020203498616" lon="13.514722287384041"><ele>978.5</ele><time>2026-05-03T07:37:04.999Z</time></trkpt><trkpt lat="42.359092762060584" lon="13.514881363126069"><ele>981.75</ele><time>2026-05-03T07:37:05.999Z</time></trkpt><trkpt lat="42.35915757821595" lon="13.5150198717822"><ele>985.0</ele><time>2026-05-03T07:37:06.999Z</time></trkpt><trkpt lat="42.359209683038536" lon="13.515157955926796"><ele>984.9999999999999</ele><time>2026-05-03T07:37:07.999Z</time></trkpt><trkpt lat="42.35924497821844" lon="13.515306300072426"><ele>985.0</ele><time>2026-05-03T07:37:08.999Z</time></trkpt><trkpt lat="42.359258436257726" lon="13.515450650110305"><ele>985.0</ele><time>2026-05-03T07:37:09.999Z</time></trkpt><trkpt lat="42.35924910719019" lon="13.515557077432296"><ele>985.0</ele><time>2026-05-03T07:37:10.999Z</time></trkpt><trkpt lat="42.35921634156858" lon="13.515637083406487"><ele>984.9999999999999</ele><time>2026-05-03T07:37:11.999Z</time></trkpt><trkpt lat="42.35916758071468" lon="13.515710370180383"><ele>985.0</ele><time>2026-05-03T07:37:12.999Z</time></trkpt><trkpt lat="42.35912228732956" lon="13.51581114258915"><ele>985.8333333333333</ele><time>2026-05-03T07:37:13.999Z</time></trkpt><trkpt lat="42.35909264698123" lon="13.515932601048581"><ele>986.6666666666666</ele><time>2026-05-03T07:37:14.999Z</time></trkpt><trkpt lat="42.359066498270444" lon="13.516047078027803"><ele>987.5</ele><time>2026-05-03T07:37:15.999Z</time></trkpt><trkpt lat="42.35905318475794" lon="13.51615739352821"><ele>988.3333333333333</ele><time>2026-05-03T07:37:16.999Z</time></trkpt><trkpt lat="42.35905723517713" lon="13.51626057583882"><ele>989.1666666666666</ele><time>2026-05-03T07:37:17.999Z</time></trkpt><trkpt lat="42.3590590096672" lon="13.516386772863996"><ele>990.0</ele><time>2026-05-03T07:37:18.999Z</time></trkpt><trkpt lat="42.35904860898183" lon="13.516527771007647"><ele>991.8</ele><time>2026-05-03T07:37:19.999Z</time></trkpt><trkpt lat="42.35902561899451" lon="13.516669831851306"><ele>993.6</ele><time>2026-05-03T07:37:20.999Z</time></trkpt><trkpt lat="42.35899413607469" lon="13.516791138996112"><ele>995.4000000000001</ele><time>2026-05-03T07:37:21.999Z</time></trkpt><trkpt lat="42.358947027341436" lon="13.51692147697065"><ele>997.2</ele><time>2026-05-03T07:37:22.999Z</time></trkpt><trkpt lat="42.35889164474805" lon="13.517047728838152"><ele>999.0</ele><time>2026-05-03T07:37:23.999Z</time></trkpt><trkpt lat="42.35882709390233" lon="13.517174344263895"><ele>999.0</ele><time>2026-05-03T07:37:24.999Z</time></trkpt><trkpt lat="42.35875893546914" lon="13.517296090185427"><ele>999.0</ele><time>2026-05-03T07:37:25.999Z</time></trkpt><trkpt lat="42.35870821218223" lon="13.517403380928652"><ele>999.0</ele><time>2026-05-03T07:37:26.999Z</time></trkpt><trkpt lat="42.35867379402729" lon="13.517494434224453"><ele>999.0</ele><time>2026-05-03T07:37:27.999Z</time></trkpt><trkpt lat="42.358642428343934" lon="13.51756976436442"><ele>999.0</ele><time>2026-05-03T07:37:28.999Z</time></trkpt><trkpt lat="42.35858715010352" lon="13.51767951126201"><ele>999.0</ele><time>2026-05-03T07:37:30.999Z</time></trkpt><trkpt lat="42.35858252014176" lon="13.517766708154221"><ele>999.0</ele><time>2026-05-03T07:37:32.999Z</time></trkpt><trkpt lat="42.35864994984718" lon="13.517834793898075"><ele>999.0</ele><time>2026-05-03T07:37:39.999Z</time></trkpt><trkpt lat="42.35866191994606" lon="13.51792174133431"><ele>999.0</ele><time>2026-05-03T07:37:41.999Z</time></trkpt><trkpt lat="42.358652056312486" lon="13.518045234468877"><ele>999.0</ele><time>2026-05-03T07:37:43.999Z</time></trkpt><trkpt lat="42.358624159492955" lon="13.518193902966933"><ele>999.0</ele><time>2026-05-03T07:37:45.999Z</time></trkpt><trkpt lat="42.358557127777146" lon="13.518261448422193"><ele>999.0</ele><time>2026-05-03T07:37:47.999Z</time></trkpt><trkpt lat="42.3584841878245" lon="13.518329556986856"><ele>1001.8333333333334</ele><time>2026-05-03T07:37:49.999Z</time></trkpt><trkpt lat="42.358403237637475" lon="13.518433415866333"><ele>1004.6666666666667</ele><time>2026-05-03T07:37:51.999Z</time></trkpt><trkpt lat="42.35835238199732" lon="13.518510654660432"><ele>1007.5</ele><time>2026-05-03T07:37:52.999Z</time></trkpt><trkpt lat="42.35829310918625" lon="13.518557182578439"><ele>1010.3333333333334</ele><time>2026-05-03T07:37:53.999Z</time></trkpt><trkpt lat="42.3582216682647" lon="13.518592460512217"><ele>1013.1666666666667</ele><time>2026-05-03T07:37:54.999Z</time></trkpt><trkpt lat="42.3581633521216" lon="13.518631309785786"><ele>1016.0</ele><time>2026-05-03T07:37:55.999Z</time></trkpt><trkpt lat="42.358061241421474" lon="13.518734487646482"><ele>1017.8571428571429</ele><time>2026-05-03T07:37:57.998Z</time></trkpt><trkpt lat="42.35800691283618" lon="13.518787815580984"><ele>1019.7142857142857</ele><time>2026-05-03T07:37:58.998Z</time></trkpt><trkpt lat="42.35794290834233" lon="13.518855247503524"><ele>1021.5714285714286</ele><time>2026-05-03T07:37:59.998Z</time></trkpt><trkpt lat="42.35788286028037" lon="13.518899318057192"><ele>1023.4285714285714</ele><time>2026-05-03T07:38:00.998Z</time></trkpt><trkpt lat="42.357822945304044" lon="13.51897271525629"><ele>1025.2857142857142</ele><time>2026-05-03T07:38:01.998Z</time></trkpt><trkpt lat="42.357772577460786" lon="13.519042087858715"><ele>1027.142857142857</ele><time>2026-05-03T07:38:02.998Z</time></trkpt><trkpt lat="42.35772219521873" lon="13.519122451662659"><ele>1029.0</ele><time>2026-05-03T07:38:03.998Z</time></trkpt><trkpt lat="42.35766547619692" lon="13.519212791682586"><ele>1029.0</ele><time>2026-05-03T07:38:04.998Z</time></trkpt><trkpt lat="42.357605328388374" lon="13.519313197996421"><ele>1029.0</ele><time>2026-05-03T07:38:05.998Z</time></trkpt><trkpt lat="42.357544250369244" lon="13.519409550788552"><ele>1029.0</ele><time>2026-05-03T07:38:07Z</time></trkpt><trkpt lat="42.35748876857392" lon="13.519486935294887"><ele>1029.0</ele><time>2026-05-03T07:38:08Z</time></trkpt><trkpt lat="42.357430002556235" lon="13.519564724716384"><ele>1029.0</ele><time>2026-05-03T07:38:09Z</time></trkpt><trkpt lat="42.35736794504869" lon="13.51965536103661"><ele>1029.0</ele><time>2026-05-03T07:38:11Z</time></trkpt><trkpt lat="42.35741971053584" lon="13.519606437887198"><ele>1029.0</ele><time>2026-05-03T07:38:48Z</time></trkpt><trkpt lat="42.35746787778814" lon="13.51950242115644"><ele>1029.0</ele><time>2026-05-03T07:38:52Z</time></trkpt><trkpt lat="42.35750903906003" lon="13.519428418818139"><ele>1029.0</ele><time>2026-05-03T07:38:53Z</time></trkpt><trkpt lat="42.35755316351137" lon="13.519363361261703"><ele>1029.0</ele><time>2026-05-03T07:38:54Z</time></trkpt><trkpt lat="42.357620809572936" lon="13.519265827775202"><ele>1029.0</ele><time>2026-05-03T07:38:56Z</time></trkpt><trkpt lat="42.357668648177636" lon="13.519190927331987"><ele>1029.0</ele><time>2026-05-03T07:38:57.999Z</time></trkpt><trkpt lat="42.35771046327163" lon="13.51912007393935"><ele>1029.0</ele><time>2026-05-03T07:38:59.999Z</time></trkpt><trkpt lat="42.357771266204246" lon="13.5190294871176"><ele>1029.0</ele><time>2026-05-03T07:39:02.999Z</time></trkpt><trkpt lat="42.3578329131577" lon="13.518963323520374"><ele>1029.0</ele><time>2026-05-03T07:39:05.999Z</time></trkpt><trkpt lat="42.3578903998788" lon="13.518893110576721"><ele>1029.0</ele><time>2026-05-03T07:39:08.999Z</time></trkpt><trkpt lat="42.357945135818476" lon="13.518839156306017"><ele>1029.0</ele><time>2026-05-03T07:39:10.999Z</time></trkpt><trkpt lat="42.35802458373999" lon="13.518753251867341"><ele>1029.0</ele><time>2026-05-03T07:39:13.999Z</time></trkpt><trkpt lat="42.35808941026433" lon="13.51870016212777"><ele>1026.8333333333333</ele><time>2026-05-03T07:39:15.999Z</time></trkpt><trkpt lat="42.35817610192908" lon="13.518631792849913"><ele>1024.6666666666667</ele><time>2026-05-03T07:39:18.999Z</time></trkpt><trkpt lat="42.35824571297997" lon="13.518574259397433"><ele>1022.5</ele><time>2026-05-03T07:39:20.999Z</time></trkpt><trkpt lat="42.358310009417934" lon="13.518532840598818"><ele>1020.3333333333334</ele><time>2026-05-03T07:39:22.999Z</time></trkpt><trkpt lat="42.35838221632004" lon="13.518482552743036"><ele>1018.1666666666667</ele><time>2026-05-03T07:39:24.999Z</time></trkpt><trkpt lat="42.35845175844433" lon="13.518408792303577"><ele>1016.0</ele><time>2026-05-03T07:39:26.999Z</time></trkpt><trkpt lat="42.35850827297689" lon="13.518324384403522"><ele>1016.0000000000001</ele><time>2026-05-03T07:39:28.999Z</time></trkpt><trkpt lat="42.35855585671706" lon="13.518265225337503"><ele>1016.0</ele><time>2026-05-03T07:39:31.999Z</time></trkpt><trkpt lat="42.358622616179794" lon="13.518203630300288"><ele>1016.0</ele><time>2026-05-03T07:39:34.999Z</time></trkpt><trkpt lat="42.35865275323469" lon="13.518098575504016"><ele>1016.0</ele><time>2026-05-03T07:39:37.999Z</time></trkpt><trkpt lat="42.35865161264281" lon="13.51800333146176"><ele>1016.0000000000001</ele><time>2026-05-03T07:39:39.999Z</time></trkpt><trkpt lat="42.35866611118802" lon="13.517899447273663"><ele>1016.0</ele><time>2026-05-03T07:39:42.999Z</time></trkpt><trkpt lat="42.35870661131074" lon="13.517779582526034"><ele>1016.6666666666667</ele><time>2026-05-03T07:40:52Z</time></trkpt><trkpt lat="42.35876132422828" lon="13.517650868128475"><ele>1017.3333333333334</ele><time>2026-05-03T07:40:54Z</time></trkpt><trkpt lat="42.35879704503761" lon="13.517578776427843"><ele>1018.0</ele><time>2026-05-03T07:40:55Z</time></trkpt><trkpt lat="42.35884418689549" lon="13.517500300080336"><ele>1018.6666666666667</ele><time>2026-05-03T07:40:56Z</time></trkpt><trkpt lat="42.3589077382037" lon="13.517417695983683"><ele>1019.3333333333334</ele><time>2026-05-03T07:40:57Z</time></trkpt><trkpt lat="42.35896836669076" lon="13.517332339545552"><ele>1020.0</ele><time>2026-05-03T07:40:58Z</time></trkpt><trkpt lat="42.35903218428119" lon="13.51724656894343"><ele>1020.0</ele><time>2026-05-03T07:40:59Z</time></trkpt><trkpt lat="42.35909342488155" lon="13.51717346431385"><ele>1020.0</ele><time>2026-05-03T07:41:00Z</time></trkpt><trkpt lat="42.35915149837899" lon="13.5170886917396"><ele>1020.0</ele><time>2026-05-03T07:41:01Z</time></trkpt><trkpt lat="42.3592018892456" lon="13.517000315576794"><ele>1020.0</ele><time>2026-05-03T07:41:02Z</time></trkpt><trkpt lat="42.35925453612084" lon="13.516929141588047"><ele>1020.0</ele><time>2026-05-03T07:41:03Z</time></trkpt><trkpt lat="42.35930385541685" lon="13.516848827566083"><ele>1020.0</ele><time>2026-05-03T07:41:03.999Z</time></trkpt><trkpt lat="42.35935865011523" lon="13.516771361204105"><ele>1020.3333333333334</ele><time>2026-05-03T07:41:04.999Z</time></trkpt><trkpt lat="42.35942000364836" lon="13.516714313352805"><ele>1020.6666666666667</ele><time>2026-05-03T07:41:05.999Z</time></trkpt><trkpt lat="42.3594856432915" lon="13.516664183183233"><ele>1021.0</ele><time>2026-05-03T07:41:06.999Z</time></trkpt><trkpt lat="42.3595578034937" lon="13.516626903159983"><ele>1021.3333333333334</ele><time>2026-05-03T07:41:07.999Z</time></trkpt><trkpt lat="42.35963549607525" lon="13.5165907435501"><ele>1021.6666666666667</ele><time>2026-05-03T07:41:08.999Z</time></trkpt><trkpt lat="42.3597155032746" lon="13.516568465246085"><ele>1022.0</ele><time>2026-05-03T07:41:09.999Z</time></trkpt><trkpt lat="42.359792504585535" lon="13.516551334746687"><ele>1022.0000000000001</ele><time>2026-05-03T07:41:10.999Z</time></trkpt><trkpt lat="42.35986034667432" lon="13.516538965578697"><ele>1022.0</ele><time>2026-05-03T07:41:11.999Z</time></trkpt><trkpt lat="42.35992649605052" lon="13.516513888134437"><ele>1022.0</ele><time>2026-05-03T07:41:12.999Z</time></trkpt><trkpt lat="42.360003788278604" lon="13.516487029127653"><ele>1022.0</ele><time>2026-05-03T07:41:13.999Z</time></trkpt><trkpt lat="42.36007881782079" lon="13.516470366310438"><ele>1022.0000000000001</ele><time>2026-05-03T07:41:14.999Z</time></trkpt><trkpt lat="42.36016358127895" lon="13.516459578441632"><ele>1022.0</ele><time>2026-05-03T07:41:15.999Z</time></trkpt><trkpt lat="42.36024450096533" lon="13.516447906988402"><ele>1022.0000000000001</ele><time>2026-05-03T07:41:16.999Z</time></trkpt><trkpt lat="42.36032983913471" lon="13.516443119038088"><ele>1022.0</ele><time>2026-05-03T07:41:17.999Z</time></trkpt><trkpt lat="42.36041312110781" lon="13.516439498644553"><ele>1022.0</ele><time>2026-05-03T07:41:18.999Z</time></trkpt><trkpt lat="42.36050296875276" lon="13.5164560051002"><ele>1022.0</ele><time>2026-05-03T07:41:19.999Z</time></trkpt><trkpt lat="42.36058912121585" lon="13.5164762781404"><ele>1022.0000000000001</ele><time>2026-05-03T07:41:20.999Z</time></trkpt><trkpt lat="42.360678831402176" lon="13.516502162472648"><ele>1022.0</ele><time>2026-05-03T07:41:21.999Z</time></trkpt><trkpt lat="42.360773893213555" lon="13.516544356588387"><ele>1023.8</ele><time>2026-05-03T07:41:22.999Z</time></trkpt><trkpt lat="42.360860638370866" lon="13.516597072686935"><ele>1025.6</ele><time>2026-05-03T07:41:23.999Z</time></trkpt><trkpt lat="42.360952462197304" lon="13.516611282051468"><ele>1027.3999999999999</ele><time>2026-05-03T07:41:24.999Z</time></trkpt><trkpt lat="42.36104868001065" lon="13.516621746008934"><ele>1029.2</ele><time>2026-05-03T07:41:25.999Z</time></trkpt><trkpt lat="42.36114597651963" lon="13.516620695941738"><ele>1031.0</ele><time>2026-05-03T07:41:26.999Z</time></trkpt><trkpt lat="42.361230018266596" lon="13.516600859187687"><ele>1031.0</ele><time>2026-05-03T07:41:27.999Z</time></trkpt><trkpt lat="42.361325995941534" lon="13.516594313397515"><ele>1031.0</ele><time>2026-05-03T07:41:28.999Z</time></trkpt><trkpt lat="42.361400100820426" lon="13.51658252708547"><ele>1031.0</ele><time>2026-05-03T07:41:29.999Z</time></trkpt><trkpt lat="42.36147340867767" lon="13.516582675303562"><ele>1031.0</ele><time>2026-05-03T07:41:30.999Z</time></trkpt><trkpt lat="42.36155811799981" lon="13.51657807964662"><ele>1031.0</ele><time>2026-05-03T07:41:31.999Z</time></trkpt><trkpt lat="42.36163727661136" lon="13.51657686651071"><ele>1031.0</ele><time>2026-05-03T07:41:32.999Z</time></trkpt><trkpt lat="42.36172433665683" lon="13.51657707079067"><ele>1032.0</ele><time>2026-05-03T07:41:33.999Z</time></trkpt><trkpt lat="42.36180363268421" lon="13.516578394553344"><ele>1033.0</ele><time>2026-05-03T07:41:34.999Z</time></trkpt><trkpt lat="42.36188103200583" lon="13.516584635014901"><ele>1034.0</ele><time>2026-05-03T07:41:35.999Z</time></trkpt><trkpt lat="42.361967580289964" lon="13.516594217992731"><ele>1035.0</ele><time>2026-05-03T07:41:36.999Z</time></trkpt><trkpt lat="42.362044287360305" lon="13.516589072701878"><ele>1036.0</ele><time>2026-05-03T07:41:37.999Z</time></trkpt><trkpt lat="42.36212090500789" lon="13.516579754127902"><ele>1037.0</ele><time>2026-05-03T07:41:38.999Z</time></trkpt><trkpt lat="42.362205601158664" lon="13.516556583948956"><ele>1037.8333333333335</ele><time>2026-05-03T07:41:39.999Z</time></trkpt><trkpt lat="42.36229514425179" lon="13.51655598720968"><ele>1038.6666666666667</ele><time>2026-05-03T07:41:40.999Z</time></trkpt><trkpt lat="42.36237550043829" lon="13.51657574241903"><ele>1039.5</ele><time>2026-05-03T07:41:41.999Z</time></trkpt><trkpt lat="42.36245703625046" lon="13.516594147561657"><ele>1040.3333333333333</ele><time>2026-05-03T07:41:42.999Z</time></trkpt><trkpt lat="42.36255158252904" lon="13.516607110912748"><ele>1041.1666666666665</ele><time>2026-05-03T07:41:43.999Z</time></trkpt><trkpt lat="42.362644298786606" lon="13.516618847975877"><ele>1042.0</ele><time>2026-05-03T07:41:44.999Z</time></trkpt><trkpt lat="42.36273026492085" lon="13.51660171707475"><ele>1042.0</ele><time>2026-05-03T07:41:45.999Z</time></trkpt><trkpt lat="42.36283442720017" lon="13.516657536194106"><ele>1042.0</ele><time>2026-05-03T07:41:46.999Z</time></trkpt><trkpt lat="42.36292514725865" lon="13.516684080650872"><ele>1042.0</ele><time>2026-05-03T07:41:47.999Z</time></trkpt><trkpt lat="42.36300150264173" lon="13.516724180306872"><ele>1042.0</ele><time>2026-05-03T07:41:48.999Z</time></trkpt><trkpt lat="42.363073829276324" lon="13.516766975085421"><ele>1042.0</ele><time>2026-05-03T07:41:49.999Z</time></trkpt><trkpt lat="42.363146622675565" lon="13.516812943662195"><ele>1042.0</ele><time>2026-05-03T07:41:50.999Z</time></trkpt><trkpt lat="42.36320239845335" lon="13.516881890708774"><ele>1042.0</ele><time>2026-05-03T07:41:51.999Z</time></trkpt><trkpt lat="42.36325998678457" lon="13.516948471806197"><ele>1042.0</ele><time>2026-05-03T07:41:52.999Z</time></trkpt><trkpt lat="42.363335218610345" lon="13.517015545297328"><ele>1042.0</ele><time>2026-05-03T07:41:53.999Z</time></trkpt><trkpt lat="42.36340160396577" lon="13.517061734978803"><ele>1042.0</ele><time>2026-05-03T07:41:54.999Z</time></trkpt><trkpt lat="42.363478287590716" lon="13.517113688553913"><ele>1042.0</ele><time>2026-05-03T07:41:55.999Z</time></trkpt><trkpt lat="42.363554589373805" lon="13.517146937480979"><ele>1042.0</ele><time>2026-05-03T07:41:56.999Z</time></trkpt><trkpt lat="42.36368042043398" lon="13.51721076031322"><ele>1044.3333333333333</ele><time>2026-05-03T07:41:58.999Z</time></trkpt><trkpt lat="42.36374693838114" lon="13.517249161678711"><ele>1046.6666666666665</ele><time>2026-05-03T07:41:59.999Z</time></trkpt><trkpt lat="42.363822735847364" lon="13.517286118343614"><ele>1049.0</ele><time>2026-05-03T07:42:00.999Z</time></trkpt><trkpt lat="42.36389493148667" lon="13.517315186613294"><ele>1051.3333333333333</ele><time>2026-05-03T07:42:01.999Z</time></trkpt><trkpt lat="42.364010743628796" lon="13.517337364561834"><ele>1053.6666666666667</ele><time>2026-05-03T07:42:03.999Z</time></trkpt><trkpt lat="42.364076379219725" lon="13.517348053051085"><ele>1056.0</ele><time>2026-05-03T07:42:04.999Z</time></trkpt><trkpt lat="42.36419890613856" lon="13.5173630245243"><ele>1056.0</ele><time>2026-05-03T07:42:06.999Z</time></trkpt><trkpt lat="42.3642821572244" lon="13.517373010313666"><ele>1056.0</ele><time>2026-05-03T07:42:07.999Z</time></trkpt><trkpt lat="42.364373759315725" lon="13.517386233076012"><ele>1056.0</ele><time>2026-05-03T07:42:08.999Z</time></trkpt><trkpt lat="42.36446808449628" lon="13.517407635503428"><ele>1056.0</ele><time>2026-05-03T07:42:09.999Z</time></trkpt><trkpt lat="42.3645484953778" lon="13.517427988806379"><ele>1056.0</ele><time>2026-05-03T07:42:10.999Z</time></trkpt><trkpt lat="42.36462443556738" lon="13.517463427532098"><ele>1056.0</ele><time>2026-05-03T07:42:11.998Z</time></trkpt><trkpt lat="42.364700061520736" lon="13.517488620966601"><ele>1056.6666666666667</ele><time>2026-05-03T07:42:12.998Z</time></trkpt><trkpt lat="42.36478386756796" lon="13.517526514489019"><ele>1057.3333333333333</ele><time>2026-05-03T07:42:13.998Z</time></trkpt><trkpt lat="42.364859577478136" lon="13.517558451365835"><ele>1058.0</ele><time>2026-05-03T07:42:14.998Z</time></trkpt><trkpt lat="42.364939851586875" lon="13.517604602403832"><ele>1058.6666666666665</ele><time>2026-05-03T07:42:15.998Z</time></trkpt><trkpt lat="42.36503013032867" lon="13.517647170936835"><ele>1059.3333333333333</ele><time>2026-05-03T07:42:16.998Z</time></trkpt><trkpt lat="42.365109462797065" lon="13.517680146112024"><ele>1060.0</ele><time>2026-05-03T07:42:17.998Z</time></trkpt><trkpt lat="42.36517837233328" lon="13.517718836055364"><ele>1060.0</ele><time>2026-05-03T07:42:19Z</time></trkpt><trkpt lat="42.36525484292821" lon="13.517761771212673"><ele>1060.0</ele><time>2026-05-03T07:42:20Z</time></trkpt><trkpt lat="42.365330718775006" lon="13.517784245419312"><ele>1060.0</ele><time>2026-05-03T07:42:21Z</time></trkpt><trkpt lat="42.36540269219555" lon="13.517853692552785"><ele>1060.0</ele><time>2026-05-03T07:42:22Z</time></trkpt><trkpt lat="42.365481914206384" lon="13.517912894643045"><ele>1060.0</ele><time>2026-05-03T07:42:23Z</time></trkpt><trkpt lat="42.36555346711128" lon="13.517963784244687"><ele>1060.0</ele><time>2026-05-03T07:42:24Z</time></trkpt><trkpt lat="42.3656350069662" lon="13.518008402595836"><ele>1061.5</ele><time>2026-05-03T07:42:25Z</time></trkpt><trkpt lat="42.36572378148852" lon="13.518043760941989"><ele>1063.0</ele><time>2026-05-03T07:42:26Z</time></trkpt><trkpt lat="42.36578206263286" lon="13.518085483550339"><ele>1064.5</ele><time>2026-05-03T07:42:27Z</time></trkpt><trkpt lat="42.36578872490391" lon="13.518191802460505"><ele>1066.0</ele><time>2026-05-03T07:42:29Z</time></trkpt><trkpt lat="42.36572454965063" lon="13.518256073803482"><ele>1067.5</ele><time>2026-05-03T07:42:31Z</time></trkpt><trkpt lat="42.365647170531936" lon="13.51821309865711"><ele>1069.0</ele><time>2026-05-03T07:42:33Z</time></trkpt><trkpt lat="42.365506005965436" lon="13.518175510340187"><ele>1070.6000000000001</ele><time>2026-05-03T07:42:35Z</time></trkpt><trkpt lat="42.365414627177934" lon="13.518123604766535"><ele>1072.2</ele><time>2026-05-03T07:42:36Z</time></trkpt><trkpt lat="42.36531893941041" lon="13.518108998663472"><ele>1073.8000000000002</ele><time>2026-05-03T07:42:37Z</time></trkpt><trkpt lat="42.36523874017649" lon="13.51812056039818"><ele>1075.4</ele><time>2026-05-03T07:42:38Z</time></trkpt><trkpt lat="42.36514796384008" lon="13.51814049829798"><ele>1077.0</ele><time>2026-05-03T07:42:39Z</time></trkpt><trkpt lat="42.365049060050566" lon="13.518134477314218"><ele>1077.0</ele><time>2026-05-03T07:42:40Z</time></trkpt><trkpt lat="42.36495422268548" lon="13.518149812255068"><ele>1077.0</ele><time>2026-05-03T07:42:41Z</time></trkpt><trkpt lat="42.36486142030418" lon="13.5181616828034"><ele>1077.0</ele><time>2026-05-03T07:42:42Z</time></trkpt><trkpt lat="42.36479176802867" lon="13.5181706441253"><ele>1077.0</ele><time>2026-05-03T07:42:43Z</time></trkpt><trkpt lat="42.364725462796784" lon="13.518181614178527"><ele>1077.0</ele><time>2026-05-03T07:42:44Z</time></trkpt><trkpt lat="42.364662900541084" lon="13.518194373543018"><ele>1077.0</ele><time>2026-05-03T07:42:45Z</time></trkpt><trkpt lat="42.364614754754435" lon="13.518259862493682"><ele>1077.0</ele><time>2026-05-03T07:42:46Z</time></trkpt><trkpt lat="42.36463809905158" lon="13.518439816468089"><ele>1077.0</ele><time>2026-05-03T07:42:48Z</time></trkpt><trkpt lat="42.36475793337853" lon="13.51849036937263"><ele>1077.0</ele><time>2026-05-03T07:42:50Z</time></trkpt><trkpt lat="42.36483022157069" lon="13.518478018445196"><ele>1077.0</ele><time>2026-05-03T07:42:51Z</time></trkpt><trkpt lat="42.36490583760168" lon="13.51846307164083"><ele>1077.0</ele><time>2026-05-03T07:42:52Z</time></trkpt><trkpt lat="42.36498426597694" lon="13.51846349032391"><ele>1077.0</ele><time>2026-05-03T07:42:53Z</time></trkpt><trkpt lat="42.36507451151009" lon="13.51848289841723"><ele>1077.0</ele><time>2026-05-03T07:42:54Z</time></trkpt><trkpt lat="42.36515360299275" lon="13.518550046869812"><ele>1077.0</ele><time>2026-05-03T07:42:55Z</time></trkpt><trkpt lat="42.365230362957924" lon="13.51860133290034"><ele>1077.0</ele><time>2026-05-03T07:42:56Z</time></trkpt><trkpt lat="42.3652871517869" lon="13.518676877324761"><ele>1077.0</ele><time>2026-05-03T07:42:57Z</time></trkpt><trkpt lat="42.36535860698009" lon="13.51875265484961"><ele>1077.0</ele><time>2026-05-03T07:42:58Z</time></trkpt><trkpt lat="42.36543194181737" lon="13.518830489033471"><ele>1078.6</ele><time>2026-05-03T07:42:59Z</time></trkpt><trkpt lat="42.36550849836135" lon="13.518890568479588"><ele>1080.2</ele><time>2026-05-03T07:43:00Z</time></trkpt><trkpt lat="42.365583422644775" lon="13.518962679288812"><ele>1081.8</ele><time>2026-05-03T07:43:01Z</time></trkpt><trkpt lat="42.36565071846005" lon="13.519055288783203"><ele>1083.4</ele><time>2026-05-03T07:43:02Z</time></trkpt><trkpt lat="42.365726313696605" lon="13.519114173224402"><ele>1085.0</ele><time>2026-05-03T07:43:03Z</time></trkpt><trkpt lat="42.36578782620118" lon="13.519212154346494"><ele>1085.0</ele><time>2026-05-03T07:43:04Z</time></trkpt><trkpt lat="42.3658187571769" lon="13.519301699511294"><ele>1085.0</ele><time>2026-05-03T07:43:05Z</time></trkpt><trkpt lat="42.3658013457534" lon="13.519392654050378"><ele>1085.0</ele><time>2026-05-03T07:43:06Z</time></trkpt><trkpt lat="42.365810257475495" lon="13.519485799831664"><ele>1085.0</ele><time>2026-05-03T07:43:07Z</time></trkpt><trkpt lat="42.36580967028038" lon="13.51961404324387"><ele>1085.0</ele><time>2026-05-03T07:43:07.999Z</time></trkpt><trkpt lat="42.36579641673836" lon="13.519744387600248"><ele>1085.0</ele><time>2026-05-03T07:43:08.999Z</time></trkpt><trkpt lat="42.36579533857746" lon="13.519890278889077"><ele>1087.2</ele><time>2026-05-03T07:43:09.999Z</time></trkpt><trkpt lat="42.36579370438195" lon="13.520035477437268"><ele>1089.4</ele><time>2026-05-03T07:43:10.999Z</time></trkpt><trkpt lat="42.36579229623159" lon="13.520164698535607"><ele>1091.6</ele><time>2026-05-03T07:43:11.999Z</time></trkpt><trkpt lat="42.36579440564483" lon="13.520302159648407"><ele>1093.8</ele><time>2026-05-03T07:43:12.999Z</time></trkpt><trkpt lat="42.36581041947369" lon="13.52046522160299"><ele>1096.0</ele><time>2026-05-03T07:43:13.999Z</time></trkpt><trkpt lat="42.36585152322895" lon="13.52065110716215"><ele>1096.5</ele><time>2026-05-03T07:43:15.999Z</time></trkpt><trkpt lat="42.36587282425322" lon="13.52074727671206"><ele>1097.0</ele><time>2026-05-03T07:43:16.999Z</time></trkpt><trkpt lat="42.36586628246599" lon="13.520833995797465"><ele>1097.5</ele><time>2026-05-03T07:43:17.999Z</time></trkpt><trkpt lat="42.36586341329973" lon="13.520967672667028"><ele>1098.0</ele><time>2026-05-03T07:43:19.999Z</time></trkpt><trkpt lat="42.36585493702074" lon="13.521117878322256"><ele>1098.5</ele><time>2026-05-03T07:43:21.999Z</time></trkpt><trkpt lat="42.365847409014826" lon="13.521203642769137"><ele>1099.0</ele><time>2026-05-03T07:43:22.999Z</time></trkpt><trkpt lat="42.36583850277988" lon="13.521292790336055"><ele>1099.4</ele><time>2026-05-03T07:43:23.999Z</time></trkpt><trkpt lat="42.3658299982301" lon="13.521380343419162"><ele>1099.8000000000002</ele><time>2026-05-03T07:43:24.999Z</time></trkpt><trkpt lat="42.365813049579714" lon="13.521544303716478"><ele>1100.1999999999998</ele><time>2026-05-03T07:43:26.999Z</time></trkpt><trkpt lat="42.36578460659727" lon="13.52167448464457"><ele>1100.6</ele><time>2026-05-03T07:43:28.999Z</time></trkpt><trkpt lat="42.365748575398996" lon="13.521810046053945"><ele>1101.0</ele><time>2026-05-03T07:43:30.999Z</time></trkpt><trkpt lat="42.3657523705159" lon="13.521947862149963"><ele>1101.0</ele><time>2026-05-03T07:43:32.999Z</time></trkpt><trkpt lat="42.36575707958142" lon="13.522048341014878"><ele>1101.0</ele><time>2026-05-03T07:43:34.999Z</time></trkpt><trkpt lat="42.365756076748525" lon="13.522134881493468"><ele>1101.0</ele><time>2026-05-03T07:44:32Z</time></trkpt><trkpt lat="42.36574601928822" lon="13.522282892175298"><ele>1101.0</ele><time>2026-05-03T07:44:34Z</time></trkpt><trkpt lat="42.36572507664955" lon="13.522377071247973"><ele>1101.0</ele><time>2026-05-03T07:44:35Z</time></trkpt><trkpt lat="42.365672179539736" lon="13.522445819413653"><ele>1101.0</ele><time>2026-05-03T07:44:37Z</time></trkpt><trkpt lat="42.36560810704563" lon="13.522549756545795"><ele>1102.1666666666667</ele><time>2026-05-03T07:44:39Z</time></trkpt><trkpt lat="42.36555378265137" lon="13.522637880547254"><ele>1103.3333333333333</ele><time>2026-05-03T07:44:41Z</time></trkpt><trkpt lat="42.36548578268941" lon="13.522749785756384"><ele>1104.5</ele><time>2026-05-03T07:44:43Z</time></trkpt><trkpt lat="42.36544174579913" lon="13.522822778995259"><ele>1105.6666666666665</ele><time>2026-05-03T07:44:44Z</time></trkpt><trkpt lat="42.36540084930185" lon="13.52288828441531"><ele>1106.8333333333333</ele><time>2026-05-03T07:44:45Z</time></trkpt><trkpt lat="42.36534803097084" lon="13.522970848628262"><ele>1108.0</ele><time>2026-05-03T07:44:46Z</time></trkpt><trkpt lat="42.365300825128514" lon="13.523042103260792"><ele>1109.0</ele><time>2026-05-03T07:44:47Z</time></trkpt><trkpt lat="42.365256687106424" lon="13.52312440825689"><ele>1110.0</ele><time>2026-05-03T07:44:48Z</time></trkpt><trkpt lat="42.365197462024895" lon="13.52318854770142"><ele>1111.0</ele><time>2026-05-03T07:44:49Z</time></trkpt><trkpt lat="42.365160399074874" lon="13.523270344942517"><ele>1112.0</ele><time>2026-05-03T07:44:50Z</time></trkpt><trkpt lat="42.36510049992316" lon="13.523342261656216"><ele>1113.0</ele><time>2026-05-03T07:44:51Z</time></trkpt><trkpt lat="42.36504352303106" lon="13.523402577160695"><ele>1114.0</ele><time>2026-05-03T07:44:52Z</time></trkpt><trkpt lat="42.3649847547558" lon="13.523484285786504"><ele>1114.0</ele><time>2026-05-03T07:44:53Z</time></trkpt><trkpt lat="42.36492529162818" lon="13.523567451289308"><ele>1114.0</ele><time>2026-05-03T07:44:54Z</time></trkpt><trkpt lat="42.36486711853088" lon="13.523649089170034"><ele>1114.0</ele><time>2026-05-03T07:44:55Z</time></trkpt><trkpt lat="42.36482202381046" lon="13.523748325226304"><ele>1114.0</ele><time>2026-05-03T07:44:56Z</time></trkpt><trkpt lat="42.36476886213571" lon="13.52383055098996"><ele>1114.0</ele><time>2026-05-03T07:44:57Z</time></trkpt><trkpt lat="42.364704725145764" lon="13.523914723293393"><ele>1114.0</ele><time>2026-05-03T07:44:58Z</time></trkpt><trkpt lat="42.36467085983375" lon="13.524036777929812"><ele>1115.6000000000001</ele><time>2026-05-03T07:44:59Z</time></trkpt><trkpt lat="42.36462914248283" lon="13.52415096286688"><ele>1117.2</ele><time>2026-05-03T07:45:00Z</time></trkpt><trkpt lat="42.36458327961443" lon="13.524257443604759"><ele>1118.8000000000002</ele><time>2026-05-03T07:45:01Z</time></trkpt><trkpt lat="42.364551257394254" lon="13.524375538888954"><ele>1120.4</ele><time>2026-05-03T07:45:02Z</time></trkpt><trkpt lat="42.364521155217865" lon="13.524500113829404"><ele>1122.0</ele><time>2026-05-03T07:45:03Z</time></trkpt><trkpt lat="42.36450606818385" lon="13.524639687423427"><ele>1122.1666666666667</ele><time>2026-05-03T07:45:04Z</time></trkpt><trkpt lat="42.36448348766785" lon="13.524758865664637"><ele>1122.3333333333333</ele><time>2026-05-03T07:45:05Z</time></trkpt><trkpt lat="42.36446990230865" lon="13.524882287494576"><ele>1122.5</ele><time>2026-05-03T07:45:06Z</time></trkpt><trkpt lat="42.364464847982596" lon="13.52499779791757"><ele>1122.6666666666665</ele><time>2026-05-03T07:45:07Z</time></trkpt><trkpt lat="42.36447546502699" lon="13.525113967722906"><ele>1122.8333333333333</ele><time>2026-05-03T07:45:08Z</time></trkpt><trkpt lat="42.364501847670006" lon="13.525234068564849"><ele>1123.0</ele><time>2026-05-03T07:45:09Z</time></trkpt><trkpt lat="42.364535876220444" lon="13.52536240390373"><ele>1123.2</ele><time>2026-05-03T07:45:10Z</time></trkpt><trkpt lat="42.3645672451624" lon="13.525494993518464"><ele>1123.4</ele><time>2026-05-03T07:45:11Z</time></trkpt><trkpt lat="42.364572527092676" lon="13.525631470957025"><ele>1123.6000000000001</ele><time>2026-05-03T07:45:12Z</time></trkpt><trkpt lat="42.364573950440224" lon="13.525758038142612"><ele>1123.8</ele><time>2026-05-03T07:45:13Z</time></trkpt><trkpt lat="42.36457284265906" lon="13.525896826738666"><ele>1124.0</ele><time>2026-05-03T07:45:14Z</time></trkpt><trkpt lat="42.3645675704565" lon="13.52603719460482"><ele>1124.0</ele><time>2026-05-03T07:45:14.999Z</time></trkpt><trkpt lat="42.36455286295414" lon="13.526167269676924"><ele>1124.0</ele><time>2026-05-03T07:45:15.999Z</time></trkpt><trkpt lat="42.36453343004998" lon="13.526299592571757"><ele>1124.0</ele><time>2026-05-03T07:45:16.999Z</time></trkpt><trkpt lat="42.364512561100995" lon="13.5264341023159"><ele>1124.0</ele><time>2026-05-03T07:45:17.999Z</time></trkpt><trkpt lat="42.364505358446266" lon="13.526569065051039"><ele>1124.0</ele><time>2026-05-03T07:45:18.999Z</time></trkpt><trkpt lat="42.36450775269532" lon="13.526692828410159"><ele>1124.4</ele><time>2026-05-03T07:45:19.999Z</time></trkpt><trkpt lat="42.364516010465934" lon="13.526832225888825"><ele>1124.8000000000002</ele><time>2026-05-03T07:45:20.999Z</time></trkpt><trkpt lat="42.36452799374972" lon="13.526954433324125"><ele>1125.1999999999998</ele><time>2026-05-03T07:45:21.999Z</time></trkpt><trkpt lat="42.36454062040909" lon="13.527066873314492"><ele>1125.6</ele><time>2026-05-03T07:45:22.999Z</time></trkpt><trkpt lat="42.364559398130346" lon="13.52719992344457"><ele>1126.0</ele><time>2026-05-03T07:45:23.999Z</time></trkpt><trkpt lat="42.3645883865205" lon="13.527315740733414"><ele>1127.2</ele><time>2026-05-03T07:45:24.999Z</time></trkpt><trkpt lat="42.364609167071585" lon="13.527438679942556"><ele>1128.3999999999999</ele><time>2026-05-03T07:45:25.999Z</time></trkpt><trkpt lat="42.36461374402237" lon="13.527544429649597"><ele>1129.6</ele><time>2026-05-03T07:45:26.999Z</time></trkpt><trkpt lat="42.36460059897039" lon="13.527718545841681"><ele>1130.8</ele><time>2026-05-03T07:45:28.999Z</time></trkpt><trkpt lat="42.364598216639344" lon="13.527826147784529"><ele>1132.0</ele><time>2026-05-03T07:45:29.999Z</time></trkpt><trkpt lat="42.36458889790844" lon="13.527946389305946"><ele>1133.0</ele><time>2026-05-03T07:45:30.999Z</time></trkpt><trkpt lat="42.36457115472775" lon="13.52805675413869"><ele>1134.0</ele><time>2026-05-03T07:45:31.999Z</time></trkpt><trkpt lat="42.364551513731406" lon="13.528178845584494"><ele>1135.0</ele><time>2026-05-03T07:45:32.999Z</time></trkpt><trkpt lat="42.36453792032683" lon="13.52826836314908"><ele>1136.0</ele><time>2026-05-03T07:45:33.999Z</time></trkpt><trkpt lat="42.36452338872661" lon="13.528364059057523"><ele>1137.0</ele><time>2026-05-03T07:45:34.999Z</time></trkpt><trkpt lat="42.364508951418244" lon="13.528488047065132"><ele>1138.0</ele><time>2026-05-03T07:45:35.999Z</time></trkpt><trkpt lat="42.36451999472612" lon="13.528599046576318"><ele>1138.0</ele><time>2026-05-03T07:45:36.999Z</time></trkpt><trkpt lat="42.364515518466106" lon="13.528722419324287"><ele>1138.0</ele><time>2026-05-03T07:45:37.999Z</time></trkpt><trkpt lat="42.364525912198054" lon="13.528846655257153"><ele>1138.0</ele><time>2026-05-03T07:45:38.999Z</time></trkpt><trkpt lat="42.364525215346745" lon="13.52895614255019"><ele>1138.0</ele><time>2026-05-03T07:45:39.999Z</time></trkpt><trkpt lat="42.36452824839033" lon="13.529069242279983"><ele>1138.0</ele><time>2026-05-03T07:45:40.999Z</time></trkpt><trkpt lat="42.36452424839184" lon="13.52917603086334"><ele>1138.0</ele><time>2026-05-03T07:45:41.999Z</time></trkpt><trkpt lat="42.36453993845464" lon="13.52927813821724"><ele>1139.6666666666665</ele><time>2026-05-03T07:45:42.999Z</time></trkpt><trkpt lat="42.36454466946118" lon="13.529364742450529"><ele>1141.3333333333333</ele><time>2026-05-03T07:45:43.999Z</time></trkpt><trkpt lat="42.36462346363607" lon="13.529485818462566"><ele>1143.0</ele><time>2026-05-03T07:45:45.999Z</time></trkpt><trkpt lat="42.36473607044462" lon="13.529457683370094"><ele>1144.6666666666667</ele><time>2026-05-03T07:45:47.999Z</time></trkpt><trkpt lat="42.36477791408389" lon="13.529379293608448"><ele>1146.3333333333335</ele><time>2026-05-03T07:45:48.999Z</time></trkpt><trkpt lat="42.3648088419781" lon="13.529287084376843"><ele>1148.0</ele><time>2026-05-03T07:45:49.999Z</time></trkpt><trkpt lat="42.36484005971576" lon="13.529191842249563"><ele>1149.6</ele><time>2026-05-03T07:45:50.999Z</time></trkpt><trkpt lat="42.36487511132717" lon="13.529093381573457"><ele>1151.1999999999998</ele><time>2026-05-03T07:45:51.999Z</time></trkpt><trkpt lat="42.36494647382184" lon="13.52901612114771"><ele>1152.8</ele><time>2026-05-03T07:45:52.999Z</time></trkpt><trkpt lat="42.36501453011557" lon="13.528923264123247"><ele>1154.3999999999999</ele><time>2026-05-03T07:45:53.999Z</time></trkpt><trkpt lat="42.36509649294705" lon="13.528851562510438"><ele>1156.0</ele><time>2026-05-03T07:45:54.999Z</time></trkpt><trkpt lat="42.365185839005505" lon="13.528787559460216"><ele>1156.0</ele><time>2026-05-03T07:45:55.999Z</time></trkpt><trkpt lat="42.365279899084335" lon="13.528737688274383"><ele>1156.0</ele><time>2026-05-03T07:45:56.999Z</time></trkpt><trkpt lat="42.36536049670611" lon="13.52868792720211"><ele>1156.0</ele><time>2026-05-03T07:45:57.999Z</time></trkpt><trkpt lat="42.365417873672925" lon="13.528640457793752"><ele>1156.0</ele><time>2026-05-03T07:45:58.999Z</time></trkpt><trkpt lat="42.36551822077196" lon="13.528611125647013"><ele>1156.0</ele><time>2026-05-03T07:46:00.999Z</time></trkpt><trkpt lat="42.365573725474" lon="13.528658814162302"><ele>1156.0</ele><time>2026-05-03T07:46:02.999Z</time></trkpt><trkpt lat="42.36556617625915" lon="13.528747793872137"><ele>1156.0</ele><time>2026-05-03T07:46:05.999Z</time></trkpt><trkpt lat="42.36547762768071" lon="13.528786452309987"><ele>1156.0</ele><time>2026-05-03T07:46:09.999Z</time></trkpt><trkpt lat="42.36537846655469" lon="13.528845972044286"><ele>1156.0</ele><time>2026-05-03T07:46:11.999Z</time></trkpt><trkpt lat="42.36531493885448" lon="13.528892222663238"><ele>1156.0</ele><time>2026-05-03T07:46:12.999Z</time></trkpt><trkpt lat="42.36525987461468" lon="13.528971358332715"><ele>1156.0</ele><time>2026-05-03T07:46:13.999Z</time></trkpt><trkpt lat="42.365183042274836" lon="13.529035325734718"><ele>1156.0</ele><time>2026-05-03T07:46:14.999Z</time></trkpt><trkpt lat="42.3651323929945" lon="13.529129076218071"><ele>1156.0</ele><time>2026-05-03T07:46:15.999Z</time></trkpt><trkpt lat="42.365098471480124" lon="13.529250646241852"><ele>1156.0</ele><time>2026-05-03T07:46:16.999Z</time></trkpt><trkpt lat="42.3650511580193" lon="13.52936092994983"><ele>1156.0</ele><time>2026-05-03T07:46:17.999Z</time></trkpt><trkpt lat="42.36506089292279" lon="13.52949670913623"><ele>1156.0</ele><time>2026-05-03T07:46:18.999Z</time></trkpt><trkpt lat="42.36506001376081" lon="13.529622008359679"><ele>1156.0</ele><time>2026-05-03T07:46:19.999Z</time></trkpt><trkpt lat="42.36507890691037" lon="13.529730130909181"><ele>1156.8333333333333</ele><time>2026-05-03T07:46:20.999Z</time></trkpt><trkpt lat="42.36511421939887" lon="13.529821441897052"><ele>1157.6666666666665</ele><time>2026-05-03T07:46:21.999Z</time></trkpt><trkpt lat="42.36516781565652" lon="13.52990950048519"><ele>1158.5</ele><time>2026-05-03T07:46:22.999Z</time></trkpt><trkpt lat="42.36523189641282" lon="13.5299812162883"><ele>1159.3333333333333</ele><time>2026-05-03T07:46:23.998Z</time></trkpt><trkpt lat="42.365295583780174" lon="13.530050814154508"><ele>1160.1666666666667</ele><time>2026-05-03T07:46:24.998Z</time></trkpt><trkpt lat="42.365357434264126" lon="13.53011761430537"><ele>1161.0</ele><time>2026-05-03T07:46:25.998Z</time></trkpt><trkpt lat="42.36543397965529" lon="13.530202325646913"><ele>1161.0</ele><time>2026-05-03T07:46:26.998Z</time></trkpt><trkpt lat="42.365500562879504" lon="13.530286522273885"><ele>1161.0</ele><time>2026-05-03T07:46:27.998Z</time></trkpt><trkpt lat="42.365560853397604" lon="13.530381590056733"><ele>1161.0</ele><time>2026-05-03T07:46:28.998Z</time></trkpt><trkpt lat="42.365575978757306" lon="13.530492566772583"><ele>1161.0</ele><time>2026-05-03T07:46:29.998Z</time></trkpt><trkpt lat="42.36560050992077" lon="13.530604147084198"><ele>1161.0</ele><time>2026-05-03T07:46:31Z</time></trkpt><trkpt lat="42.36560687842481" lon="13.530723917117713"><ele>1161.0</ele><time>2026-05-03T07:46:32Z</time></trkpt><trkpt lat="42.36563159297541" lon="13.530843020293897"><ele>1163.3999999999999</ele><time>2026-05-03T07:46:33Z</time></trkpt><trkpt lat="42.365644809846145" lon="13.530959544978648"><ele>1165.8</ele><time>2026-05-03T07:46:34Z</time></trkpt><trkpt lat="42.36566766163045" lon="13.531091044753397"><ele>1168.1999999999998</ele><time>2026-05-03T07:46:35Z</time></trkpt><trkpt lat="42.36570881279792" lon="13.531214111853686"><ele>1170.6</ele><time>2026-05-03T07:46:36Z</time></trkpt><trkpt lat="42.36575479428275" lon="13.531316404311573"><ele>1173.0</ele><time>2026-05-03T07:46:37Z</time></trkpt><trkpt lat="42.365811914008894" lon="13.53140889786971"><ele>1174.0</ele><time>2026-05-03T07:46:38Z</time></trkpt><trkpt lat="42.365865314398036" lon="13.531507820479415"><ele>1175.0</ele><time>2026-05-03T07:46:39Z</time></trkpt><trkpt lat="42.365898166249934" lon="13.531631616647743"><ele>1176.0</ele><time>2026-05-03T07:46:40Z</time></trkpt><trkpt lat="42.36594031016073" lon="13.53175269431134"><ele>1177.0</ele><time>2026-05-03T07:46:41Z</time></trkpt><trkpt lat="42.36597578892627" lon="13.53187754225228"><ele>1178.0</ele><time>2026-05-03T07:46:42Z</time></trkpt><trkpt lat="42.36602038010043" lon="13.53200321971783"><ele>1178.1666666666667</ele><time>2026-05-03T07:46:43Z</time></trkpt><trkpt lat="42.36601824125902" lon="13.532141409306224"><ele>1178.3333333333335</ele><time>2026-05-03T07:46:44Z</time></trkpt><trkpt lat="42.36600177122137" lon="13.532249817938766"><ele>1178.5</ele><time>2026-05-03T07:46:45Z</time></trkpt><trkpt lat="42.3659935639619" lon="13.532381978777899"><ele>1178.6666666666667</ele><time>2026-05-03T07:46:46Z</time></trkpt><trkpt lat="42.36595141834828" lon="13.532486563649393"><ele>1178.8333333333333</ele><time>2026-05-03T07:46:47Z</time></trkpt><trkpt lat="42.36590185102056" lon="13.532565137622884"><ele>1179.0</ele><time>2026-05-03T07:46:48Z</time></trkpt><trkpt lat="42.365852346689834" lon="13.53265426181297"><ele>1179.0</ele><time>2026-05-03T07:46:49Z</time></trkpt><trkpt lat="42.365798705419245" lon="13.532763508165452"><ele>1179.0</ele><time>2026-05-03T07:46:50Z</time></trkpt><trkpt lat="42.365716056772726" lon="13.532849278440478"><ele>1179.0</ele><time>2026-05-03T07:46:51Z</time></trkpt><trkpt lat="42.36563408576045" lon="13.532899352900428"><ele>1179.0</ele><time>2026-05-03T07:46:52Z</time></trkpt><trkpt lat="42.36554960350896" lon="13.532947996968085"><ele>1179.0</ele><time>2026-05-03T07:46:53Z</time></trkpt><trkpt lat="42.36547067130108" lon="13.533031058481987"><ele>1183.8</ele><time>2026-05-03T07:46:54Z</time></trkpt><trkpt lat="42.36538812067246" lon="13.533098907171698"><ele>1188.6000000000001</ele><time>2026-05-03T07:46:55Z</time></trkpt><trkpt lat="42.36530726511868" lon="13.533172423979202"><ele>1193.4</ele><time>2026-05-03T07:46:56Z</time></trkpt><trkpt lat="42.36523749575424" lon="13.533270586475656"><ele>1198.2</ele><time>2026-05-03T07:46:57Z</time></trkpt><trkpt lat="42.36517850634774" lon="13.533372500307237"><ele>1203.0</ele><time>2026-05-03T07:46:58Z</time></trkpt><trkpt lat="42.36512909505403" lon="13.533484674058679"><ele>1203.0</ele><time>2026-05-03T07:46:59Z</time></trkpt><trkpt lat="42.36508404977576" lon="13.53358981019014"><ele>1203.0</ele><time>2026-05-03T07:47:00Z</time></trkpt><trkpt lat="42.36505045693663" lon="13.53370846692235"><ele>1203.0</ele><time>2026-05-03T07:47:01Z</time></trkpt><trkpt lat="42.365040687087216" lon="13.533841598406163"><ele>1203.0</ele><time>2026-05-03T07:47:02Z</time></trkpt><trkpt lat="42.365030944709446" lon="13.533979963182738"><ele>1203.0</ele><time>2026-05-03T07:47:03Z</time></trkpt><trkpt lat="42.36501831995766" lon="13.534112672410572"><ele>1204.0</ele><time>2026-05-03T07:47:04Z</time></trkpt><trkpt lat="42.36499628727976" lon="13.5342600908554"><ele>1205.0</ele><time>2026-05-03T07:47:05Z</time></trkpt><trkpt lat="42.36497474458519" lon="13.534401245359312"><ele>1206.0</ele><time>2026-05-03T07:47:06Z</time></trkpt><trkpt lat="42.36498184470641" lon="13.53450123025607"><ele>1207.0</ele><time>2026-05-03T07:47:07Z</time></trkpt><trkpt lat="42.36498091790242" lon="13.534620577106324"><ele>1208.0</ele><time>2026-05-03T07:47:08Z</time></trkpt><trkpt lat="42.36497978921792" lon="13.53473852877728"><ele>1208.8333333333335</ele><time>2026-05-03T07:47:09Z</time></trkpt><trkpt lat="42.36497126211025" lon="13.534839488145249"><ele>1209.6666666666667</ele><time>2026-05-03T07:47:10Z</time></trkpt><trkpt lat="42.364969362914856" lon="13.534945038608466"><ele>1210.5</ele><time>2026-05-03T07:47:11Z</time></trkpt><trkpt lat="42.36497051086002" lon="13.535059992926264"><ele>1211.3333333333333</ele><time>2026-05-03T07:47:12Z</time></trkpt><trkpt lat="42.36495342328686" lon="13.5351906520273"><ele>1212.1666666666665</ele><time>2026-05-03T07:47:13Z</time></trkpt><trkpt lat="42.36492945172434" lon="13.535288818916738"><ele>1213.0</ele><time>2026-05-03T07:47:14Z</time></trkpt><trkpt lat="42.3649137253303" lon="13.535381645677626"><ele>1213.2</ele><time>2026-05-03T07:47:15Z</time></trkpt><trkpt lat="42.36489449795411" lon="13.53549513731659"><ele>1213.4</ele><time>2026-05-03T07:47:16Z</time></trkpt><trkpt lat="42.36486944056563" lon="13.535613449622325"><ele>1213.6000000000001</ele><time>2026-05-03T07:47:17Z</time></trkpt><trkpt lat="42.364841245440324" lon="13.535744470383133"><ele>1213.8</ele><time>2026-05-03T07:47:18Z</time></trkpt><trkpt lat="42.36482997301038" lon="13.53589293712629"><ele>1214.0</ele><time>2026-05-03T07:47:19Z</time></trkpt><trkpt lat="42.36479523889587" lon="13.536042478163974"><ele>1214.0</ele><time>2026-05-03T07:47:20Z</time></trkpt><trkpt lat="42.36473985606845" lon="13.536188001810553"><ele>1214.0</ele><time>2026-05-03T07:47:21Z</time></trkpt><trkpt lat="42.36470364731026" lon="13.53634702437108"><ele>1214.0</ele><time>2026-05-03T07:47:22Z</time></trkpt><trkpt lat="42.364696236796455" lon="13.536484069353584"><ele>1214.0</ele><time>2026-05-03T07:47:23Z</time></trkpt><trkpt lat="42.36466187336047" lon="13.536608495641293"><ele>1214.0</ele><time>2026-05-03T07:47:23.999Z</time></trkpt><trkpt lat="42.364634664231" lon="13.5367504598985"><ele>1214.4</ele><time>2026-05-03T07:47:24.999Z</time></trkpt><trkpt lat="42.36459545365021" lon="13.536866743309094"><ele>1214.8000000000002</ele><time>2026-05-03T07:47:25.999Z</time></trkpt><trkpt lat="42.36454725725305" lon="13.536980567103472"><ele>1215.1999999999998</ele><time>2026-05-03T07:47:26.999Z</time></trkpt><trkpt lat="42.36448788599975" lon="13.537109167298478"><ele>1215.6</ele><time>2026-05-03T07:47:27.999Z</time></trkpt><trkpt lat="42.364420244726475" lon="13.53724507345342"><ele>1216.0</ele><time>2026-05-03T07:47:28.999Z</time></trkpt><trkpt lat="42.364353193106176" lon="13.53737342897948"><ele>1216.75</ele><time>2026-05-03T07:47:29.999Z</time></trkpt><trkpt lat="42.36428686362435" lon="13.537497910867684"><ele>1217.5</ele><time>2026-05-03T07:47:30.999Z</time></trkpt><trkpt lat="42.36421677276822" lon="13.537629451782532"><ele>1218.25</ele><time>2026-05-03T07:47:31.999Z</time></trkpt><trkpt lat="42.364151542025695" lon="13.537759959312679"><ele>1219.0</ele><time>2026-05-03T07:47:32.999Z</time></trkpt><trkpt lat="42.36408770907521" lon="13.537890592887987"><ele>1220.0</ele><time>2026-05-03T07:47:33.999Z</time></trkpt><trkpt lat="42.36402515544157" lon="13.538016224707158"><ele>1221.0</ele><time>2026-05-03T07:47:34.999Z</time></trkpt><trkpt lat="42.36396445192754" lon="13.538121124489638"><ele>1222.0</ele><time>2026-05-03T07:47:35.999Z</time></trkpt><trkpt lat="42.36391878125333" lon="13.538183541529119"><ele>1223.0</ele><time>2026-05-03T07:47:36.999Z</time></trkpt><trkpt lat="42.36381519107311" lon="13.538309065372191"><ele>1224.0</ele><time>2026-05-03T07:47:37.999Z</time></trkpt><trkpt lat="42.36373286959011" lon="13.538410992048558"><ele>1224.0</ele><time>2026-05-03T07:47:38.999Z</time></trkpt><trkpt lat="42.36364693953734" lon="13.538515256387804"><ele>1224.0</ele><time>2026-05-03T07:47:39.999Z</time></trkpt><trkpt lat="42.3635601535536" lon="13.53861978469485"><ele>1224.0</ele><time>2026-05-03T07:47:40.999Z</time></trkpt><trkpt lat="42.363474897657454" lon="13.538725343408812"><ele>1224.0</ele><time>2026-05-03T07:47:41.999Z</time></trkpt><trkpt lat="42.36339104419276" lon="13.538835028411057"><ele>1225.0</ele><time>2026-05-03T07:47:42.999Z</time></trkpt><trkpt lat="42.363305746429326" lon="13.538947414898319"><ele>1226.0</ele><time>2026-05-03T07:47:43.999Z</time></trkpt><trkpt lat="42.36322361444309" lon="13.539059304564049"><ele>1227.0</ele><time>2026-05-03T07:47:44.999Z</time></trkpt><trkpt lat="42.363140777280336" lon="13.539179701200922"><ele>1228.0</ele><time>2026-05-03T07:47:45.999Z</time></trkpt><trkpt lat="42.36305795534165" lon="13.539301381528361"><ele>1228.25</ele><time>2026-05-03T07:47:46.999Z</time></trkpt><trkpt lat="42.36297077550513" lon="13.539426752232341"><ele>1228.5</ele><time>2026-05-03T07:47:47.999Z</time></trkpt><trkpt lat="42.36287838698366" lon="13.539556011882748"><ele>1228.75</ele><time>2026-05-03T07:47:48.999Z</time></trkpt><trkpt lat="42.36278241422692" lon="13.539682822635225"><ele>1229.0</ele><time>2026-05-03T07:47:49.999Z</time></trkpt><trkpt lat="42.362692687862285" lon="13.539810455578365"><ele>1228.25</ele><time>2026-05-03T07:47:50.999Z</time></trkpt><trkpt lat="42.36262862696036" lon="13.539941713036235"><ele>1227.5</ele><time>2026-05-03T07:47:51.999Z</time></trkpt><trkpt lat="42.362563642781126" lon="13.540063922571647"><ele>1226.75</ele><time>2026-05-03T07:47:52.999Z</time></trkpt><trkpt lat="42.36250704530423" lon="13.540199016222893"><ele>1226.0</ele><time>2026-05-03T07:47:53.999Z</time></trkpt><trkpt lat="42.36245007410719" lon="13.540344742400574"><ele>1227.0</ele><time>2026-05-03T07:47:54.999Z</time></trkpt><trkpt lat="42.36240478041288" lon="13.540509507203813"><ele>1228.0</ele><time>2026-05-03T07:47:55.999Z</time></trkpt><trkpt lat="42.36236135316248" lon="13.540684916760181"><ele>1229.0</ele><time>2026-05-03T07:47:56.999Z</time></trkpt><trkpt lat="42.36229980111704" lon="13.540857240841085"><ele>1230.0</ele><time>2026-05-03T07:47:57.999Z</time></trkpt><trkpt lat="42.362251011279575" lon="13.54104149067176"><ele>1230.0</ele><time>2026-05-03T07:47:58.999Z</time></trkpt><trkpt lat="42.36220146529378" lon="13.541217054928879"><ele>1230.0</ele><time>2026-05-03T07:47:59.999Z</time></trkpt><trkpt lat="42.36215010356574" lon="13.54138912341033"><ele>1230.0</ele><time>2026-05-03T07:48:00.999Z</time></trkpt><trkpt lat="42.36209567347214" lon="13.541571664213398"><ele>1230.0</ele><time>2026-05-03T07:48:01.999Z</time></trkpt><trkpt lat="42.36204489019525" lon="13.541758640953589"><ele>1230.0</ele><time>2026-05-03T07:48:02.999Z</time></trkpt><trkpt lat="42.361994383630375" lon="13.541944784060329"><ele>1230.0</ele><time>2026-05-03T07:48:03.999Z</time></trkpt><trkpt lat="42.36194555545145" lon="13.542116251239209"><ele>1230.0</ele><time>2026-05-03T07:48:04.999Z</time></trkpt><trkpt lat="42.36189734785472" lon="13.542285539189061"><ele>1230.0</ele><time>2026-05-03T07:48:05.999Z</time></trkpt><trkpt lat="42.361853191406034" lon="13.54244022916866"><ele>1230.0</ele><time>2026-05-03T07:48:06.999Z</time></trkpt><trkpt lat="42.361810921101004" lon="13.542576958062813"><ele>1230.0</ele><time>2026-05-03T07:48:07.999Z</time></trkpt><trkpt lat="42.36177416716701" lon="13.54271263885244"><ele>1230.0</ele><time>2026-05-03T07:48:08.999Z</time></trkpt><trkpt lat="42.361763679393164" lon="13.542869096619292"><ele>1230.0</ele><time>2026-05-03T07:48:09.999Z</time></trkpt><trkpt lat="42.36178155941193" lon="13.543035146675999"><ele>1230.0</ele><time>2026-05-03T07:48:10.999Z</time></trkpt><trkpt lat="42.36176524575066" lon="13.543209774602975"><ele>1230.0</ele><time>2026-05-03T07:48:11.999Z</time></trkpt><trkpt lat="42.361756008704496" lon="13.54339375035205"><ele>1230.0</ele><time>2026-05-03T07:48:12.999Z</time></trkpt><trkpt lat="42.361744047232975" lon="13.54355570298121"><ele>1230.0</ele><time>2026-05-03T07:48:13.999Z</time></trkpt><trkpt lat="42.361712445202464" lon="13.54371295604129"><ele>1230.75</ele><time>2026-05-03T07:48:14.999Z</time></trkpt><trkpt lat="42.36166545883516" lon="13.543859190281289"><ele>1231.5</ele><time>2026-05-03T07:48:15.999Z</time></trkpt><trkpt lat="42.36162623919052" lon="13.54401546565045"><ele>1232.25</ele><time>2026-05-03T07:48:16.999Z</time></trkpt><trkpt lat="42.36160396741955" lon="13.544180366428533"><ele>1233.0</ele><time>2026-05-03T07:48:17.999Z</time></trkpt><trkpt lat="42.3615619728082" lon="13.544342909238402"><ele>1233.0</ele><time>2026-05-03T07:48:18.999Z</time></trkpt><trkpt lat="42.36153805042311" lon="13.544505879232124"><ele>1233.0</ele><time>2026-05-03T07:48:19.999Z</time></trkpt><trkpt lat="42.36151973569556" lon="13.54466067977329"><ele>1233.0</ele><time>2026-05-03T07:48:20.999Z</time></trkpt><trkpt lat="42.36151939809901" lon="13.544793952560362"><ele>1233.0</ele><time>2026-05-03T07:48:21.999Z</time></trkpt><trkpt lat="42.36151963954022" lon="13.544897908269297"><ele>1233.0</ele><time>2026-05-03T07:48:22.999Z</time></trkpt><trkpt lat="42.36152148307586" lon="13.545011700871969"><ele>1233.4</ele><time>2026-05-03T07:48:24.999Z</time></trkpt><trkpt lat="42.361527410784696" lon="13.545102642988105"><ele>1233.8</ele><time>2026-05-03T07:48:30.999Z</time></trkpt><trkpt lat="42.361541331547244" lon="13.545258598782176"><ele>1234.2</ele><time>2026-05-03T07:48:32.998Z</time></trkpt><trkpt lat="42.36155023051023" lon="13.545389245948048"><ele>1234.6</ele><time>2026-05-03T07:48:33.998Z</time></trkpt><trkpt lat="42.36152985563865" lon="13.54551300749741"><ele>1235.0</ele><time>2026-05-03T07:48:34.998Z</time></trkpt><trkpt lat="42.3615121128098" lon="13.54562860013064"><ele>1235.0</ele><time>2026-05-03T07:48:36Z</time></trkpt><trkpt lat="42.36149891298592" lon="13.545764153312074"><ele>1235.0</ele><time>2026-05-03T07:48:37Z</time></trkpt><trkpt lat="42.36150207046576" lon="13.545877406354066"><ele>1235.0</ele><time>2026-05-03T07:48:38Z</time></trkpt><trkpt lat="42.36151394813508" lon="13.545997252205328"><ele>1235.0</ele><time>2026-05-03T07:48:39Z</time></trkpt><trkpt lat="42.36155045894218" lon="13.54609910689835"><ele>1235.0</ele><time>2026-05-03T07:48:40Z</time></trkpt><trkpt lat="42.36156083510927" lon="13.54622183745928"><ele>1235.0</ele><time>2026-05-03T07:48:41Z</time></trkpt><trkpt lat="42.361598801603584" lon="13.546326276108891"><ele>1234.6666666666667</ele><time>2026-05-03T07:48:42Z</time></trkpt><trkpt lat="42.36157500232234" lon="13.54644382237585"><ele>1234.3333333333335</ele><time>2026-05-03T07:48:43Z</time></trkpt><trkpt lat="42.361610356267335" lon="13.546526412104859"><ele>1234.0</ele><time>2026-05-03T07:48:44Z</time></trkpt><trkpt lat="42.36152419180191" lon="13.546642759919909"><ele>1233.6666666666667</ele><time>2026-05-03T07:48:45Z</time></trkpt><trkpt lat="42.361496202341456" lon="13.546719762414149"><ele>1233.3333333333333</ele><time>2026-05-03T07:48:46Z</time></trkpt><trkpt lat="42.36144736929394" lon="13.546799266613933"><ele>1233.0</ele><time>2026-05-03T07:48:47Z</time></trkpt><trkpt lat="42.361391102112066" lon="13.546885789620863"><ele>1233.2</ele><time>2026-05-03T07:48:48Z</time></trkpt><trkpt lat="42.361330962016545" lon="13.546979761608153"><ele>1233.4</ele><time>2026-05-03T07:48:49Z</time></trkpt><trkpt lat="42.36128781961578" lon="13.547085809743788"><ele>1233.6000000000001</ele><time>2026-05-03T07:48:50Z</time></trkpt><trkpt lat="42.36125687903835" lon="13.547198519151356"><ele>1233.8</ele><time>2026-05-03T07:48:51Z</time></trkpt><trkpt lat="42.361220855406025" lon="13.547307163659157"><ele>1234.0</ele><time>2026-05-03T07:48:52Z</time></trkpt><trkpt lat="42.36116928946331" lon="13.547425683495065"><ele>1232.5</ele><time>2026-05-03T07:48:53Z</time></trkpt><trkpt lat="42.36111967165149" lon="13.547525091582001"><ele>1231.0</ele><time>2026-05-03T07:48:54Z</time></trkpt><trkpt lat="42.36107087381806" lon="13.547628916950345"><ele>1229.5</ele><time>2026-05-03T07:48:55Z</time></trkpt><trkpt lat="42.361022217674225" lon="13.547734595803572"><ele>1228.0</ele><time>2026-05-03T07:48:56Z</time></trkpt><trkpt lat="42.36098445093735" lon="13.547827157455751"><ele>1226.5</ele><time>2026-05-03T07:48:57Z</time></trkpt><trkpt lat="42.36094419432648" lon="13.547922656033577"><ele>1225.0</ele><time>2026-05-03T07:48:58Z</time></trkpt><trkpt lat="42.360899635781564" lon="13.547991190260447"><ele>1225.0</ele><time>2026-05-03T07:48:59Z</time></trkpt><trkpt lat="42.36084089749824" lon="13.54805438823238"><ele>1225.0</ele><time>2026-05-03T07:49:00Z</time></trkpt><trkpt lat="42.360781942629096" lon="13.548135397686266"><ele>1225.0</ele><time>2026-05-03T07:49:01Z</time></trkpt><trkpt lat="42.36072473932153" lon="13.54824266043715"><ele>1225.0</ele><time>2026-05-03T07:49:02Z</time></trkpt><trkpt lat="42.36067850478682" lon="13.548365909191885"><ele>1225.0</ele><time>2026-05-03T07:49:03Z</time></trkpt><trkpt lat="42.36063903991463" lon="13.548511885354554"><ele>1225.0</ele><time>2026-05-03T07:49:04Z</time></trkpt><trkpt lat="42.360602833121256" lon="13.548639468786664"><ele>1225.0</ele><time>2026-05-03T07:49:05Z</time></trkpt><trkpt lat="42.360574738979494" lon="13.548785840691918"><ele>1225.0</ele><time>2026-05-03T07:49:06Z</time></trkpt><trkpt lat="42.360554324799104" lon="13.548933392649143"><ele>1225.0</ele><time>2026-05-03T07:49:07Z</time></trkpt><trkpt lat="42.360540360133875" lon="13.549075237733375"><ele>1225.0</ele><time>2026-05-03T07:49:08Z</time></trkpt><trkpt lat="42.36052413967338" lon="13.549206827736423"><ele>1223.8333333333333</ele><time>2026-05-03T07:49:09Z</time></trkpt><trkpt lat="42.36050460146385" lon="13.549320168542314"><ele>1222.6666666666665</ele><time>2026-05-03T07:49:10Z</time></trkpt><trkpt lat="42.36047908645408" lon="13.549410019398596"><ele>1221.5</ele><time>2026-05-03T07:49:11Z</time></trkpt><trkpt lat="42.36044380948081" lon="13.549499439487402"><ele>1220.3333333333333</ele><time>2026-05-03T07:49:12Z</time></trkpt><trkpt lat="42.360413900370254" lon="13.549599261692093"><ele>1219.1666666666667</ele><time>2026-05-03T07:49:13Z</time></trkpt><trkpt lat="42.360392317620516" lon="13.549733097582266"><ele>1218.0</ele><time>2026-05-03T07:49:14Z</time></trkpt><trkpt lat="42.3603755951657" lon="13.54987279542409"><ele>1217.25</ele><time>2026-05-03T07:49:15Z</time></trkpt><trkpt lat="42.36035467845052" lon="13.550020827838006"><ele>1216.5</ele><time>2026-05-03T07:49:16Z</time></trkpt><trkpt lat="42.36032592169028" lon="13.550185670628249"><ele>1215.75</ele><time>2026-05-03T07:49:17Z</time></trkpt><trkpt lat="42.360294120471" lon="13.550353660821703"><ele>1215.0</ele><time>2026-05-03T07:49:18Z</time></trkpt><trkpt lat="42.36026360695122" lon="13.5505350364633"><ele>1214.5</ele><time>2026-05-03T07:49:19Z</time></trkpt><trkpt lat="42.36022655763284" lon="13.550719542088409"><ele>1214.0</ele><time>2026-05-03T07:49:20Z</time></trkpt><trkpt lat="42.36018904515247" lon="13.550914572696048"><ele>1213.5</ele><time>2026-05-03T07:49:21Z</time></trkpt><trkpt lat="42.36014529497573" lon="13.551096846155506"><ele>1213.0</ele><time>2026-05-03T07:49:22Z</time></trkpt><trkpt lat="42.36009716407551" lon="13.551284234548433"><ele>1212.75</ele><time>2026-05-03T07:49:23Z</time></trkpt><trkpt lat="42.36006020808477" lon="13.55146899333189"><ele>1212.5</ele><time>2026-05-03T07:49:24Z</time></trkpt><trkpt lat="42.360028230640495" lon="13.551654651602961"><ele>1212.25</ele><time>2026-05-03T07:49:25Z</time></trkpt><trkpt lat="42.35999009790243" lon="13.551819364901059"><ele>1212.0</ele><time>2026-05-03T07:49:26Z</time></trkpt><trkpt lat="42.35993671736257" lon="13.551970566176745"><ele>1211.75</ele><time>2026-05-03T07:49:27Z</time></trkpt><trkpt lat="42.359874618483616" lon="13.552123155642434"><ele>1211.5</ele><time>2026-05-03T07:49:28Z</time></trkpt><trkpt lat="42.359801315053964" lon="13.552292588507804"><ele>1211.25</ele><time>2026-05-03T07:49:29Z</time></trkpt><trkpt lat="42.35971183954713" lon="13.552482341079132"><ele>1211.0</ele><time>2026-05-03T07:49:29.999Z</time></trkpt><trkpt lat="42.35960173276889" lon="13.552683998528082"><ele>1211.0</ele><time>2026-05-03T07:49:30.999Z</time></trkpt><trkpt lat="42.35954707499413" lon="13.552819676644438"><ele>1211.0</ele><time>2026-05-03T07:49:32.999Z</time></trkpt><trkpt lat="42.35947294537562" lon="13.55297168076292"><ele>1211.0</ele><time>2026-05-03T07:49:33.999Z</time></trkpt><trkpt lat="42.35939970714866" lon="13.553138838429232"><ele>1211.0</ele><time>2026-05-03T07:49:34.999Z</time></trkpt><trkpt lat="42.359340735045414" lon="13.553301483229117"><ele>1211.0</ele><time>2026-05-03T07:49:35.999Z</time></trkpt><trkpt lat="42.35929382014309" lon="13.55347358398776"><ele>1211.0</ele><time>2026-05-03T07:49:36.999Z</time></trkpt><trkpt lat="42.35924503544382" lon="13.553652376761704"><ele>1211.0</ele><time>2026-05-03T07:49:37.999Z</time></trkpt><trkpt lat="42.359202438719585" lon="13.553830214894438"><ele>1211.0</ele><time>2026-05-03T07:49:38.999Z</time></trkpt><trkpt lat="42.359153583827926" lon="13.55399236366782"><ele>1211.25</ele><time>2026-05-03T07:49:39.999Z</time></trkpt><trkpt lat="42.35908289229763" lon="13.554146395519872"><ele>1211.5</ele><time>2026-05-03T07:49:40.999Z</time></trkpt><trkpt lat="42.359009045714984" lon="13.554291699366381"><ele>1211.75</ele><time>2026-05-03T07:49:41.999Z</time></trkpt><trkpt lat="42.35894337073043" lon="13.554435360961298"><ele>1212.0</ele><time>2026-05-03T07:49:42.999Z</time></trkpt><trkpt lat="42.35887638597498" lon="13.554586817844633"><ele>1214.5</ele><time>2026-05-03T07:49:43.999Z</time></trkpt><trkpt lat="42.35882493648772" lon="13.554722336138056"><ele>1217.0</ele><time>2026-05-03T07:49:44.999Z</time></trkpt><trkpt lat="42.35877292845493" lon="13.554857332355361"><ele>1219.5</ele><time>2026-05-03T07:49:45.999Z</time></trkpt><trkpt lat="42.35872161865123" lon="13.555000503309836"><ele>1222.0</ele><time>2026-05-03T07:49:46.999Z</time></trkpt><trkpt lat="42.358673562757694" lon="13.555153020271101"><ele>1222.0</ele><time>2026-05-03T07:49:47.999Z</time></trkpt><trkpt lat="42.35863250496775" lon="13.555297540641922"><ele>1222.0</ele><time>2026-05-03T07:49:48.999Z</time></trkpt><trkpt lat="42.3585841291501" lon="13.55543814050424"><ele>1222.0</ele><time>2026-05-03T07:49:49.999Z</time></trkpt><trkpt lat="42.358542750886016" lon="13.55557839748633"><ele>1222.0</ele><time>2026-05-03T07:49:50.999Z</time></trkpt><trkpt lat="42.35850978815203" lon="13.555712606878904"><ele>1222.0</ele><time>2026-05-03T07:49:51.999Z</time></trkpt><trkpt lat="42.35847458456474" lon="13.555837552337033"><ele>1221.0</ele><time>2026-05-03T07:49:52.999Z</time></trkpt><trkpt lat="42.35844461508678" lon="13.55595590152908"><ele>1220.0</ele><time>2026-05-03T07:49:53.999Z</time></trkpt><trkpt lat="42.358425562137356" lon="13.556085085776047"><ele>1219.0</ele><time>2026-05-03T07:49:54.999Z</time></trkpt><trkpt lat="42.35841996936285" lon="13.556242204074763"><ele>1218.0</ele><time>2026-05-03T07:49:55.999Z</time></trkpt><trkpt lat="42.35843649622098" lon="13.556407518463576"><ele>1217.0</ele><time>2026-05-03T07:49:56.999Z</time></trkpt><trkpt lat="42.358451245353386" lon="13.556554044403303"><ele>1216.0</ele><time>2026-05-03T07:49:57.999Z</time></trkpt><trkpt lat="42.35846698691257" lon="13.556678837024673"><ele>1215.0</ele><time>2026-05-03T07:49:58.999Z</time></trkpt><trkpt lat="42.35848065843175" lon="13.556796809311898"><ele>1214.0</ele><time>2026-05-03T07:49:59.999Z</time></trkpt><trkpt lat="42.35848573893183" lon="13.55690525444424"><ele>1213.0</ele><time>2026-05-03T07:50:00.999Z</time></trkpt><trkpt lat="42.35849782228829" lon="13.557015395723365"><ele>1212.0</ele><time>2026-05-03T07:50:01.999Z</time></trkpt><trkpt lat="42.3585288954837" lon="13.557109500448929"><ele>1211.0</ele><time>2026-05-03T07:50:02.999Z</time></trkpt><trkpt lat="42.35857218364075" lon="13.557206517496603"><ele>1211.0</ele><time>2026-05-03T07:50:03.999Z</time></trkpt><trkpt lat="42.35862760837096" lon="13.557307708345535"><ele>1211.0</ele><time>2026-05-03T07:50:04.999Z</time></trkpt><trkpt lat="42.35869839849477" lon="13.557403381867122"><ele>1211.0</ele><time>2026-05-03T07:50:05.999Z</time></trkpt><trkpt lat="42.35874940257796" lon="13.557521605204602"><ele>1211.0</ele><time>2026-05-03T07:50:06.999Z</time></trkpt><trkpt lat="42.35878531722218" lon="13.557644065329413"><ele>1211.0</ele><time>2026-05-03T07:50:07.999Z</time></trkpt><trkpt lat="42.35880903134354" lon="13.55776084928311"><ele>1210.8</ele><time>2026-05-03T07:50:08.999Z</time></trkpt><trkpt lat="42.35881434187505" lon="13.55788872329728"><ele>1210.6</ele><time>2026-05-03T07:50:09.999Z</time></trkpt><trkpt lat="42.3588140698142" lon="13.558014783334222"><ele>1210.4</ele><time>2026-05-03T07:50:10.999Z</time></trkpt><trkpt lat="42.358805298989274" lon="13.558144514011502"><ele>1210.2</ele><time>2026-05-03T07:50:11.999Z</time></trkpt><trkpt lat="42.3588122109179" lon="13.558277145359854"><ele>1210.0</ele><time>2026-05-03T07:50:12.999Z</time></trkpt><trkpt lat="42.358832883370916" lon="13.55842251514377"><ele>1209.25</ele><time>2026-05-03T07:50:13.999Z</time></trkpt><trkpt lat="42.358873833145104" lon="13.558567706325293"><ele>1208.5</ele><time>2026-05-03T07:50:14.999Z</time></trkpt><trkpt lat="42.35891184840793" lon="13.558728904904552"><ele>1207.75</ele><time>2026-05-03T07:50:15.999Z</time></trkpt><trkpt lat="42.35894429706459" lon="13.558876423563483"><ele>1207.0</ele><time>2026-05-03T07:50:16.999Z</time></trkpt><trkpt lat="42.35896995068437" lon="13.559002954157036"><ele>1206.1666666666665</ele><time>2026-05-03T07:50:17.999Z</time></trkpt><trkpt lat="42.358991179521325" lon="13.559128384018784"><ele>1205.3333333333333</ele><time>2026-05-03T07:50:18.999Z</time></trkpt><trkpt lat="42.35901401800526" lon="13.5592413038573"><ele>1204.5</ele><time>2026-05-03T07:50:19.999Z</time></trkpt><trkpt lat="42.35902726600738" lon="13.559344329184789"><ele>1203.6666666666667</ele><time>2026-05-03T07:50:20.999Z</time></trkpt><trkpt lat="42.359026662467556" lon="13.559464757589682"><ele>1202.8333333333335</ele><time>2026-05-03T07:50:21.999Z</time></trkpt><trkpt lat="42.359016190546654" lon="13.559581444574938"><ele>1202.0</ele><time>2026-05-03T07:50:22.999Z</time></trkpt><trkpt lat="42.35899333496229" lon="13.559714074807594"><ele>1202.0</ele><time>2026-05-03T07:50:23.999Z</time></trkpt><trkpt lat="42.35897410015001" lon="13.5598499442087"><ele>1202.0</ele><time>2026-05-03T07:50:24.999Z</time></trkpt><trkpt lat="42.35895362610407" lon="13.560001787337681"><ele>1202.0</ele><time>2026-05-03T07:50:25.999Z</time></trkpt><trkpt lat="42.35894269393381" lon="13.560158490174704"><ele>1202.0</ele><time>2026-05-03T07:50:26.999Z</time></trkpt><trkpt lat="42.35893160717642" lon="13.560304953992333"><ele>1202.0</ele><time>2026-05-03T07:50:27.999Z</time></trkpt><trkpt lat="42.358917217308644" lon="13.560446262823868"><ele>1201.75</ele><time>2026-05-03T07:50:28.999Z</time></trkpt><trkpt lat="42.358908812165645" lon="13.560606165638337"><ele>1201.5</ele><time>2026-05-03T07:50:29.999Z</time></trkpt><trkpt lat="42.358923352481625" lon="13.56077120669171"><ele>1201.25</ele><time>2026-05-03T07:50:30.999Z</time></trkpt><trkpt lat="42.358927433652546" lon="13.56094120432892"><ele>1201.0</ele><time>2026-05-03T07:50:31.999Z</time></trkpt><trkpt lat="42.35891738489843" lon="13.56111339442181"><ele>1200.3999999999999</ele><time>2026-05-03T07:50:32.999Z</time></trkpt><trkpt lat="42.35889170462678" lon="13.561285958590842"><ele>1199.8</ele><time>2026-05-03T07:50:33.999Z</time></trkpt><trkpt lat="42.35890428529632" lon="13.561405625478637"><ele>1199.1999999999998</ele><time>2026-05-03T07:50:34.999Z</time></trkpt><trkpt lat="42.358896476340554" lon="13.561532115384741"><ele>1198.6</ele><time>2026-05-03T07:50:35.999Z</time></trkpt><trkpt lat="42.35889276475435" lon="13.561671275008289"><ele>1198.0</ele><time>2026-05-03T07:50:36.999Z</time></trkpt><trkpt lat="42.358892112509636" lon="13.561806884575516"><ele>1198.0</ele><time>2026-05-03T07:50:37.998Z</time></trkpt><trkpt lat="42.35889118674089" lon="13.561936372521261"><ele>1198.0</ele><time>2026-05-03T07:50:38.998Z</time></trkpt><trkpt lat="42.35888619197476" lon="13.562064263434799"><ele>1198.0</ele><time>2026-05-03T07:50:39.998Z</time></trkpt><trkpt lat="42.358877764018395" lon="13.562194221319995"><ele>1198.0</ele><time>2026-05-03T07:50:40.998Z</time></trkpt><trkpt lat="42.358871126565326" lon="13.562341197088521"><ele>1198.0</ele><time>2026-05-03T07:50:42Z</time></trkpt><trkpt lat="42.358866114033916" lon="13.562501873766221"><ele>1198.0</ele><time>2026-05-03T07:50:43Z</time></trkpt><trkpt lat="42.35887345642174" lon="13.562666547624056"><ele>1198.0</ele><time>2026-05-03T07:50:44Z</time></trkpt><trkpt lat="42.35888058878236" lon="13.56281091785425"><ele>1198.0</ele><time>2026-05-03T07:50:45Z</time></trkpt><trkpt lat="42.35888811871024" lon="13.562957312609585"><ele>1198.0</ele><time>2026-05-03T07:50:46Z</time></trkpt><trkpt lat="42.358903786261266" lon="13.563111949075429"><ele>1196.4</ele><time>2026-05-03T07:50:47Z</time></trkpt><trkpt lat="42.35892477149246" lon="13.5632485950341"><ele>1194.8</ele><time>2026-05-03T07:50:48Z</time></trkpt><trkpt lat="42.358954112167055" lon="13.5633787033978"><ele>1193.2</ele><time>2026-05-03T07:50:49Z</time></trkpt><trkpt lat="42.358986666080405" lon="13.563512107208382"><ele>1191.6</ele><time>2026-05-03T07:50:50Z</time></trkpt><trkpt lat="42.35900537710311" lon="13.563649611574965"><ele>1190.0</ele><time>2026-05-03T07:50:51Z</time></trkpt><trkpt lat="42.35900746972574" lon="13.563777052317652"><ele>1189.2</ele><time>2026-05-03T07:50:52Z</time></trkpt><trkpt lat="42.35899766449576" lon="13.563895427336616"><ele>1188.4</ele><time>2026-05-03T07:50:53Z</time></trkpt><trkpt lat="42.35897817888247" lon="13.564014824425719"><ele>1187.6</ele><time>2026-05-03T07:50:54Z</time></trkpt><trkpt lat="42.35896860639206" lon="13.564140688289298"><ele>1186.8</ele><time>2026-05-03T07:50:55Z</time></trkpt><trkpt lat="42.35897645704578" lon="13.564266528419505"><ele>1186.0</ele><time>2026-05-03T07:50:56Z</time></trkpt><trkpt lat="42.35898949749906" lon="13.564382343753296"><ele>1186.0</ele><time>2026-05-03T07:50:57Z</time></trkpt><trkpt lat="42.359003131361675" lon="13.56448278256179"><ele>1186.0</ele><time>2026-05-03T07:50:58Z</time></trkpt><trkpt lat="42.35901047053744" lon="13.564577953742381"><ele>1186.0</ele><time>2026-05-03T07:50:59Z</time></trkpt><trkpt lat="42.35899623042593" lon="13.564680286597834"><ele>1186.0</ele><time>2026-05-03T07:51:00Z</time></trkpt><trkpt lat="42.35896976325889" lon="13.564784522537737"><ele>1186.0</ele><time>2026-05-03T07:51:01Z</time></trkpt><trkpt lat="42.358939954500144" lon="13.564908125752616"><ele>1186.0</ele><time>2026-05-03T07:51:02Z</time></trkpt><trkpt lat="42.358906565928535" lon="13.565029496041186"><ele>1187.0</ele><time>2026-05-03T07:51:03Z</time></trkpt><trkpt lat="42.35887660072833" lon="13.565152344458852"><ele>1188.0</ele><time>2026-05-03T07:51:04Z</time></trkpt><trkpt lat="42.35885495203919" lon="13.565276794708314"><ele>1189.0</ele><time>2026-05-03T07:51:05Z</time></trkpt><trkpt lat="42.35883935442924" lon="13.565408976508735"><ele>1190.0</ele><time>2026-05-03T07:51:06Z</time></trkpt><trkpt lat="42.358826233197256" lon="13.56552917901236"><ele>1191.0</ele><time>2026-05-03T07:51:07Z</time></trkpt><trkpt lat="42.358820361699884" lon="13.565644096988997"><ele>1191.0</ele><time>2026-05-03T07:51:08Z</time></trkpt><trkpt lat="42.358813019015024" lon="13.565762274962442"><ele>1191.0</ele><time>2026-05-03T07:51:09Z</time></trkpt><trkpt lat="42.35880503711977" lon="13.565880933215404"><ele>1191.0</ele><time>2026-05-03T07:51:10Z</time></trkpt><trkpt lat="42.358804447918494" lon="13.566014427450156"><ele>1191.0</ele><time>2026-05-03T07:51:11Z</time></trkpt><trkpt lat="42.35880269351249" lon="13.566140815006344"><ele>1191.0</ele><time>2026-05-03T07:51:12Z</time></trkpt><trkpt lat="42.358801175869075" lon="13.56627054378494"><ele>1191.0</ele><time>2026-05-03T07:51:13Z</time></trkpt><trkpt lat="42.35880747183132" lon="13.566437622953089"><ele>1191.0</ele><time>2026-05-03T07:51:14Z</time></trkpt><trkpt lat="42.358819242364035" lon="13.566628256353447"><ele>1191.0</ele><time>2026-05-03T07:51:15Z</time></trkpt><trkpt lat="42.358827949859595" lon="13.566810002618627"><ele>1191.0</ele><time>2026-05-03T07:51:16Z</time></trkpt><trkpt lat="42.35882296007933" lon="13.567011775433558"><ele>1191.6666666666667</ele><time>2026-05-03T07:51:17Z</time></trkpt><trkpt lat="42.358818041881754" lon="13.567221864549396"><ele>1192.3333333333335</ele><time>2026-05-03T07:51:18Z</time></trkpt><trkpt lat="42.358812673799214" lon="13.567442313558345"><ele>1193.0</ele><time>2026-05-03T07:51:19Z</time></trkpt><trkpt lat="42.35880743006547" lon="13.567641201702985"><ele>1193.0</ele><time>2026-05-03T07:51:20Z</time></trkpt><trkpt lat="42.35879742005744" lon="13.567830436185826"><ele>1193.0</ele><time>2026-05-03T07:51:21Z</time></trkpt><trkpt lat="42.358781151954375" lon="13.568028167978737"><ele>1193.0</ele><time>2026-05-03T07:51:22Z</time></trkpt><trkpt lat="42.35875830674402" lon="13.56822305781967"><ele>1193.0</ele><time>2026-05-03T07:51:23Z</time></trkpt><trkpt lat="42.3587295537043" lon="13.568414872293479"><ele>1192.5</ele><time>2026-05-03T07:51:24Z</time></trkpt><trkpt lat="42.358699371952675" lon="13.568595478460736"><ele>1192.0</ele><time>2026-05-03T07:51:25Z</time></trkpt><trkpt lat="42.35867401923882" lon="13.568764203578159"><ele>1191.5</ele><time>2026-05-03T07:51:26Z</time></trkpt><trkpt lat="42.358646894519346" lon="13.56892016368693"><ele>1191.0</ele><time>2026-05-03T07:51:27Z</time></trkpt><trkpt lat="42.358608128464375" lon="13.569065030468582"><ele>1191.75</ele><time>2026-05-03T07:51:28Z</time></trkpt><trkpt lat="42.35855039535547" lon="13.569200373168037"><ele>1192.5</ele><time>2026-05-03T07:51:29Z</time></trkpt><trkpt lat="42.35846893004171" lon="13.569331832826915"><ele>1193.25</ele><time>2026-05-03T07:51:30Z</time></trkpt><trkpt lat="42.358379199468374" lon="13.569463965067502"><ele>1194.0</ele><time>2026-05-03T07:51:31Z</time></trkpt><trkpt lat="42.35828509890587" lon="13.569602139044102"><ele>1194.0</ele><time>2026-05-03T07:51:32Z</time></trkpt><trkpt lat="42.35819310527803" lon="13.569750529433442"><ele>1194.0</ele><time>2026-05-03T07:51:33Z</time></trkpt><trkpt lat="42.35810360253461" lon="13.569900420575184"><ele>1194.0</ele><time>2026-05-03T07:51:34Z</time></trkpt><trkpt lat="42.35801563058814" lon="13.570055946687704"><ele>1194.0</ele><time>2026-05-03T07:51:35Z</time></trkpt><trkpt lat="42.357925448301856" lon="13.57021288595967"><ele>1192.0</ele><time>2026-05-03T07:51:36Z</time></trkpt><trkpt lat="42.35783709161512" lon="13.570363250848095"><ele>1190.0</ele><time>2026-05-03T07:51:37Z</time></trkpt><trkpt lat="42.35775797840823" lon="13.570502352178115"><ele>1188.0</ele><time>2026-05-03T07:51:37.999Z</time></trkpt><trkpt lat="42.35769541622634" lon="13.570639944277536"><ele>1186.0</ele><time>2026-05-03T07:51:38.999Z</time></trkpt><trkpt lat="42.35763753510619" lon="13.570781324603148"><ele>1186.0</ele><time>2026-05-03T07:51:39.999Z</time></trkpt><trkpt lat="42.3575809855889" lon="13.570921674096203"><ele>1186.0</ele><time>2026-05-03T07:51:40.999Z</time></trkpt><trkpt lat="42.35751164252099" lon="13.571066944002677"><ele>1186.0</ele><time>2026-05-03T07:51:41.999Z</time></trkpt><trkpt lat="42.357435251537886" lon="13.571218224420276"><ele>1186.0</ele><time>2026-05-03T07:51:42.999Z</time></trkpt><trkpt lat="42.3573504324225" lon="13.57136743613587"><ele>1185.0</ele><time>2026-05-03T07:51:43.999Z</time></trkpt><trkpt lat="42.35726116306556" lon="13.571511750571965"><ele>1184.0</ele><time>2026-05-03T07:51:44.999Z</time></trkpt><trkpt lat="42.35717074222159" lon="13.571660709870939"><ele>1183.0</ele><time>2026-05-03T07:51:45.999Z</time></trkpt><trkpt lat="42.35708289164631" lon="13.571814535362847"><ele>1182.0</ele><time>2026-05-03T07:51:46.999Z</time></trkpt><trkpt lat="42.357001323784154" lon="13.571974538801094"><ele>1183.0</ele><time>2026-05-03T07:51:47.999Z</time></trkpt><trkpt lat="42.35691279741748" lon="13.572131478316521"><ele>1184.0</ele><time>2026-05-03T07:51:48.999Z</time></trkpt><trkpt lat="42.35681529288677" lon="13.572271850460744"><ele>1185.0</ele><time>2026-05-03T07:51:49.999Z</time></trkpt><trkpt lat="42.35670925800531" lon="13.572393739493815"><ele>1186.0</ele><time>2026-05-03T07:51:50.999Z</time></trkpt><trkpt lat="42.35660097438909" lon="13.572482663125072"><ele>1186.0</ele><time>2026-05-03T07:51:51.999Z</time></trkpt><trkpt lat="42.356502790822105" lon="13.572524086325208"><ele>1186.0</ele><time>2026-05-03T07:51:52.999Z</time></trkpt><trkpt lat="42.35640872128096" lon="13.57251459303591"><ele>1186.0</ele><time>2026-05-03T07:51:53.999Z</time></trkpt><trkpt lat="42.35630508666308" lon="13.572465628496634"><ele>1186.0</ele><time>2026-05-03T07:51:54.999Z</time></trkpt><trkpt lat="42.356194146074394" lon="13.572407562866909"><ele>1186.0</ele><time>2026-05-03T07:51:55.999Z</time></trkpt><trkpt lat="42.3560751824028" lon="13.572380175953441"><ele>1185.0</ele><time>2026-05-03T07:51:56.999Z</time></trkpt><trkpt lat="42.355954547525656" lon="13.572399675961464"><ele>1184.0</ele><time>2026-05-03T07:51:57.999Z</time></trkpt><trkpt lat="42.35583301468406" lon="13.572444967568227"><ele>1183.0</ele><time>2026-05-03T07:51:58.999Z</time></trkpt><trkpt lat="42.355711363673606" lon="13.572494813207632"><ele>1182.0</ele><time>2026-05-03T07:51:59.999Z</time></trkpt><trkpt lat="42.355585246416254" lon="13.572554056151533"><ele>1180.5</ele><time>2026-05-03T07:52:00.999Z</time></trkpt><trkpt lat="42.355457736408404" lon="13.572625920269601"><ele>1179.0</ele><time>2026-05-03T07:52:01.999Z</time></trkpt><trkpt lat="42.35532706739695" lon="13.572706727176726"><ele>1177.5</ele><time>2026-05-03T07:52:02.999Z</time></trkpt><trkpt lat="42.35519564744693" lon="13.572791571764707"><ele>1176.0</ele><time>2026-05-03T07:52:03.999Z</time></trkpt><trkpt lat="42.35506977020495" lon="13.572869016171344"><ele>1176.0</ele><time>2026-05-03T07:52:04.999Z</time></trkpt><trkpt lat="42.35494463139515" lon="13.572931887667593"><ele>1176.0</ele><time>2026-05-03T07:52:05.999Z</time></trkpt><trkpt lat="42.35482703067562" lon="13.57299525061086"><ele>1176.0</ele><time>2026-05-03T07:52:06.999Z</time></trkpt><trkpt lat="42.35470920488555" lon="13.57306223997094"><ele>1176.0</ele><time>2026-05-03T07:52:07.999Z</time></trkpt><trkpt lat="42.35458291759112" lon="13.57313085687678"><ele>1175.75</ele><time>2026-05-03T07:52:08.999Z</time></trkpt><trkpt lat="42.35444647109976" lon="13.573198219056799"><ele>1175.5</ele><time>2026-05-03T07:52:09.999Z</time></trkpt><trkpt lat="42.354316163843485" lon="13.57326697590122"><ele>1175.25</ele><time>2026-05-03T07:52:10.999Z</time></trkpt><trkpt lat="42.3541924992458" lon="13.573342242708673"><ele>1175.0</ele><time>2026-05-03T07:52:11.999Z</time></trkpt><trkpt lat="42.35406991947399" lon="13.573417731779513"><ele>1175.0</ele><time>2026-05-03T07:52:12.999Z</time></trkpt><trkpt lat="42.35395552187982" lon="13.57349264627826"><ele>1175.0</ele><time>2026-05-03T07:52:13.999Z</time></trkpt><trkpt lat="42.35384605111631" lon="13.573571873098956"><ele>1175.0</ele><time>2026-05-03T07:52:14.999Z</time></trkpt><trkpt lat="42.35374336011736" lon="13.573648874142593"><ele>1175.0</ele><time>2026-05-03T07:52:15.999Z</time></trkpt><trkpt lat="42.35363811379822" lon="13.573718669993019"><ele>1172.8</ele><time>2026-05-03T07:52:16.999Z</time></trkpt><trkpt lat="42.35353618090963" lon="13.573778586610018"><ele>1170.6</ele><time>2026-05-03T07:52:17.999Z</time></trkpt><trkpt lat="42.35343593144084" lon="13.573838244730013"><ele>1168.4</ele><time>2026-05-03T07:52:18.999Z</time></trkpt><trkpt lat="42.35334222211633" lon="13.573899610759131"><ele>1166.2</ele><time>2026-05-03T07:52:19.999Z</time></trkpt><trkpt lat="42.35324996840313" lon="13.573952034053606"><ele>1164.0</ele><time>2026-05-03T07:52:20.999Z</time></trkpt><trkpt lat="42.35315805080341" lon="13.574008639080295"><ele>1164.0</ele><time>2026-05-03T07:52:21.999Z</time></trkpt><trkpt lat="42.353076112650136" lon="13.574065025587883"><ele>1164.0</ele><time>2026-05-03T07:52:22.999Z</time></trkpt><trkpt lat="42.352999087086054" lon="13.574130653355425"><ele>1164.0</ele><time>2026-05-03T07:52:23.999Z</time></trkpt><trkpt lat="42.35292126998445" lon="13.574193243736275"><ele>1164.0</ele><time>2026-05-03T07:52:24.999Z</time></trkpt><trkpt lat="42.35283922033332" lon="13.574234625564886"><ele>1164.0</ele><time>2026-05-03T07:52:25.999Z</time></trkpt><trkpt lat="42.35276013738649" lon="13.574254839152665"><ele>1164.0</ele><time>2026-05-03T07:52:26.999Z</time></trkpt><trkpt lat="42.3526862822742" lon="13.574258877949935"><ele>1162.8</ele><time>2026-05-03T07:52:27.999Z</time></trkpt><trkpt lat="42.35257196191382" lon="13.574227400194152"><ele>1161.6000000000001</ele><time>2026-05-03T07:52:29.999Z</time></trkpt><trkpt lat="42.35247835388955" lon="13.574187553902078"><ele>1160.4</ele><time>2026-05-03T07:52:31.999Z</time></trkpt><trkpt lat="42.35236368113234" lon="13.574123312324566"><ele>1159.2</ele><time>2026-05-03T07:52:33.999Z</time></trkpt><trkpt lat="42.35230163230995" lon="13.574082802379657"><ele>1158.0</ele><time>2026-05-03T07:52:34.999Z</time></trkpt><trkpt lat="42.35224108293378" lon="13.574037033661776"><ele>1157.2857142857142</ele><time>2026-05-03T07:52:35.999Z</time></trkpt><trkpt lat="42.352176656722" lon="13.57398573106095"><ele>1156.5714285714284</ele><time>2026-05-03T07:52:36.999Z</time></trkpt><trkpt lat="42.3521160829216" lon="13.573930839260123"><ele>1155.857142857143</ele><time>2026-05-03T07:52:37.999Z</time></trkpt><trkpt lat="42.35205722578121" lon="13.573876959531406"><ele>1155.142857142857</ele><time>2026-05-03T07:52:38.999Z</time></trkpt><trkpt lat="42.3520022881389" lon="13.573833006392766"><ele>1154.4285714285716</ele><time>2026-05-03T07:52:39.999Z</time></trkpt><trkpt lat="42.35194737707297" lon="13.573790043814649"><ele>1153.7142857142858</ele><time>2026-05-03T07:52:40.999Z</time></trkpt><trkpt lat="42.35188823951911" lon="13.57375317160059"><ele>1153.0</ele><time>2026-05-03T07:52:41.999Z</time></trkpt><trkpt lat="42.35181947348648" lon="13.573702006861415"><ele>1153.0</ele><time>2026-05-03T07:52:42.999Z</time></trkpt><trkpt lat="42.35173899300914" lon="13.573648386641967"><ele>1153.0</ele><time>2026-05-03T07:52:43.999Z</time></trkpt><trkpt lat="42.35165303337407" lon="13.573592850018645"><ele>1153.0</ele><time>2026-05-03T07:52:44.998Z</time></trkpt><trkpt lat="42.351565936501856" lon="13.573526580320692"><ele>1153.0</ele><time>2026-05-03T07:52:45.998Z</time></trkpt><trkpt lat="42.35147515757803" lon="13.573449237403151"><ele>1153.0</ele><time>2026-05-03T07:52:46.998Z</time></trkpt><trkpt lat="42.35139056807223" lon="13.573364234496607"><ele>1151.8</ele><time>2026-05-03T07:52:48Z</time></trkpt><trkpt lat="42.3513046412352" lon="13.573271001527367"><ele>1150.6</ele><time>2026-05-03T07:52:49Z</time></trkpt><trkpt lat="42.351228522730295" lon="13.57317638099074"><ele>1149.4</ele><time>2026-05-03T07:52:50Z</time></trkpt><trkpt lat="42.351156480398075" lon="13.573077863978325"><ele>1148.2</ele><time>2026-05-03T07:52:51Z</time></trkpt><trkpt lat="42.3510902823345" lon="13.572980098024923"><ele>1147.0</ele><time>2026-05-03T07:52:52Z</time></trkpt><trkpt lat="42.35102442993568" lon="13.572878994482314"><ele>1147.4</ele><time>2026-05-03T07:52:53Z</time></trkpt><trkpt lat="42.35096744882961" lon="13.572778915876372"><ele>1147.8000000000002</ele><time>2026-05-03T07:52:54Z</time></trkpt><trkpt lat="42.35090112560001" lon="13.572675099540916"><ele>1148.2</ele><time>2026-05-03T07:52:55Z</time></trkpt><trkpt lat="42.3508244903396" lon="13.572573083049363"><ele>1148.6000000000001</ele><time>2026-05-03T07:52:56Z</time></trkpt><trkpt lat="42.35074182953389" lon="13.572488079740918"><ele>1149.0</ele><time>2026-05-03T07:52:57Z</time></trkpt><trkpt lat="42.3506492971665" lon="13.572432403699535"><ele>1149.0</ele><time>2026-05-03T07:52:58Z</time></trkpt><trkpt lat="42.35055328540576" lon="13.572383200651169"><ele>1149.0</ele><time>2026-05-03T07:52:59Z</time></trkpt><trkpt lat="42.350466597394544" lon="13.572337953838526"><ele>1149.0</ele><time>2026-05-03T07:53:00Z</time></trkpt><trkpt lat="42.35038513761201" lon="13.572281417725069"><ele>1149.0</ele><time>2026-05-03T07:53:01Z</time></trkpt><trkpt lat="42.35030388674209" lon="13.57220827265594"><ele>1149.0</ele><time>2026-05-03T07:53:02Z</time></trkpt><trkpt lat="42.350220811538534" lon="13.572127751649138"><ele>1148.0</ele><time>2026-05-03T07:53:03Z</time></trkpt><trkpt lat="42.3501365026318" lon="13.572044521131662"><ele>1147.0</ele><time>2026-05-03T07:53:04Z</time></trkpt><trkpt lat="42.3500470748342" lon="13.571964942570652"><ele>1146.0</ele><time>2026-05-03T07:53:05Z</time></trkpt><trkpt lat="42.34995878281059" lon="13.571891942768751"><ele>1145.0</ele><time>2026-05-03T07:53:06Z</time></trkpt><trkpt lat="42.34987827804335" lon="13.571824004378303"><ele>1144.0</ele><time>2026-05-03T07:53:07Z</time></trkpt><trkpt lat="42.34980608133488" lon="13.571749140747459"><ele>1144.0</ele><time>2026-05-03T07:53:08Z</time></trkpt><trkpt lat="42.34973937206764" lon="13.571660752194912"><ele>1144.0</ele><time>2026-05-03T07:53:09Z</time></trkpt><trkpt lat="42.349676687209076" lon="13.57156746981748"><ele>1144.0</ele><time>2026-05-03T07:53:10Z</time></trkpt><trkpt lat="42.34960455366786" lon="13.571467062238128"><ele>1144.0</ele><time>2026-05-03T07:53:11Z</time></trkpt><trkpt lat="42.34951994443441" lon="13.57138927902463"><ele>1144.0</ele><time>2026-05-03T07:53:12Z</time></trkpt><trkpt lat="42.34942343914063" lon="13.571331558413112"><ele>1141.6666666666665</ele><time>2026-05-03T07:53:13Z</time></trkpt><trkpt lat="42.34932613960971" lon="13.571293943504894"><ele>1139.3333333333333</ele><time>2026-05-03T07:53:14Z</time></trkpt><trkpt lat="42.349242301750195" lon="13.571285129826498"><ele>1137.0</ele><time>2026-05-03T07:53:15Z</time></trkpt><trkpt lat="42.34916221766115" lon="13.571285444466733"><ele>1134.6666666666667</ele><time>2026-05-03T07:53:16Z</time></trkpt><trkpt lat="42.34907813281277" lon="13.57127940985948"><ele>1132.3333333333335</ele><time>2026-05-03T07:53:17Z</time></trkpt><trkpt lat="42.34898581725539" lon="13.571266471370164"><ele>1130.0</ele><time>2026-05-03T07:53:18Z</time></trkpt><trkpt lat="42.34888679710483" lon="13.57124434763737"><ele>1129.8</ele><time>2026-05-03T07:53:19Z</time></trkpt><trkpt lat="42.34879181374369" lon="13.571211927999121"><ele>1129.6</ele><time>2026-05-03T07:53:20Z</time></trkpt><trkpt lat="42.34869391254531" lon="13.57116171724656"><ele>1129.4</ele><time>2026-05-03T07:53:21Z</time></trkpt><trkpt lat="42.34861377242817" lon="13.571111298680561"><ele>1129.2</ele><time>2026-05-03T07:53:22Z</time></trkpt><trkpt lat="42.348536436921755" lon="13.571064186135489"><ele>1129.0</ele><time>2026-05-03T07:53:23Z</time></trkpt><trkpt lat="42.34845223571601" lon="13.571000818895161"><ele>1129.0</ele><time>2026-05-03T07:53:24Z</time></trkpt><trkpt lat="42.34836661705625" lon="13.570939683842395"><ele>1129.0</ele><time>2026-05-03T07:53:25Z</time></trkpt><trkpt lat="42.34828417812853" lon="13.570879577493347"><ele>1129.0</ele><time>2026-05-03T07:53:26Z</time></trkpt><trkpt lat="42.348205262161386" lon="13.57080983357524"><ele>1129.0</ele><time>2026-05-03T07:53:27Z</time></trkpt><trkpt lat="42.34813979506278" lon="13.57072439654353"><ele>1129.0</ele><time>2026-05-03T07:53:28Z</time></trkpt><trkpt lat="42.34808253453958" lon="13.570617749486804"><ele>1127.4</ele><time>2026-05-03T07:53:29Z</time></trkpt><trkpt lat="42.34803444268171" lon="13.570488031981748"><ele>1125.8000000000002</ele><time>2026-05-03T07:53:30Z</time></trkpt><trkpt lat="42.34798932760117" lon="13.570365289854694"><ele>1124.1999999999998</ele><time>2026-05-03T07:53:31Z</time></trkpt><trkpt lat="42.347932191269294" lon="13.570242750967822"><ele>1122.6</ele><time>2026-05-03T07:53:32Z</time></trkpt><trkpt lat="42.34787065864745" lon="13.570138633222935"><ele>1121.0</ele><time>2026-05-03T07:53:33Z</time></trkpt><trkpt lat="42.34779989843529" lon="13.570049139441176"><ele>1121.0</ele><time>2026-05-03T07:53:34Z</time></trkpt><trkpt lat="42.347726864783375" lon="13.569971976817413"><ele>1121.0</ele><time>2026-05-03T07:53:35Z</time></trkpt><trkpt lat="42.34765165642043" lon="13.569892828450117"><ele>1121.0</ele><time>2026-05-03T07:53:36Z</time></trkpt><trkpt lat="42.34758407582474" lon="13.569820357103996"><ele>1121.0</ele><time>2026-05-03T07:53:37Z</time></trkpt><trkpt lat="42.34750519700197" lon="13.569760951776749"><ele>1121.0</ele><time>2026-05-03T07:53:38Z</time></trkpt><trkpt lat="42.347415992849676" lon="13.569735218045116"><ele>1121.0</ele><time>2026-05-03T07:53:39Z</time></trkpt><trkpt lat="42.34732926485721" lon="13.569724608149427"><ele>1121.0</ele><time>2026-05-03T07:53:40Z</time></trkpt><trkpt lat="42.34722586441039" lon="13.569736559562019"><ele>1121.0</ele><time>2026-05-03T07:53:41Z</time></trkpt><trkpt lat="42.347122711258244" lon="13.569769051172191"><ele>1121.0</ele><time>2026-05-03T07:53:42Z</time></trkpt><trkpt lat="42.34701898144048" lon="13.56982289816776"><ele>1121.0</ele><time>2026-05-03T07:53:43Z</time></trkpt><trkpt lat="42.346927285055855" lon="13.569872922228754"><ele>1120.6</ele><time>2026-05-03T07:53:44Z</time></trkpt><trkpt lat="42.346833848840554" lon="13.56990621465834"><ele>1120.1999999999998</ele><time>2026-05-03T07:53:44.999Z</time></trkpt><trkpt lat="42.34674104679449" lon="13.569908745508908"><ele>1119.8000000000002</ele><time>2026-05-03T07:53:45.999Z</time></trkpt><trkpt lat="42.34663616904281" lon="13.569904442941706"><ele>1119.4</ele><time>2026-05-03T07:53:46.999Z</time></trkpt><trkpt lat="42.346522043089934" lon="13.569909848971664"><ele>1119.0</ele><time>2026-05-03T07:53:47.999Z</time></trkpt><trkpt lat="42.346415084534456" lon="13.569933206723205"><ele>1117.8</ele><time>2026-05-03T07:53:48.999Z</time></trkpt><trkpt lat="42.34632222370115" lon="13.569964498128218"><ele>1116.6000000000001</ele><time>2026-05-03T07:53:49.999Z</time></trkpt><trkpt lat="42.34623840380658" lon="13.570020351598764"><ele>1115.4</ele><time>2026-05-03T07:53:50.999Z</time></trkpt><trkpt lat="42.34616072411309" lon="13.570103284455831"><ele>1114.2</ele><time>2026-05-03T07:53:51.999Z</time></trkpt><trkpt lat="42.34608555302974" lon="13.570204752776958"><ele>1113.0</ele><time>2026-05-03T07:53:52.999Z</time></trkpt><trkpt lat="42.34599982242101" lon="13.570300766473448"><ele>1113.4</ele><time>2026-05-03T07:53:53.999Z</time></trkpt><trkpt lat="42.345924084386176" lon="13.570378562580558"><ele>1113.8</ele><time>2026-05-03T07:53:54.999Z</time></trkpt><trkpt lat="42.34585645271643" lon="13.57046146967615"><ele>1114.2</ele><time>2026-05-03T07:53:55.999Z</time></trkpt><trkpt lat="42.34580195660084" lon="13.570561680547488"><ele>1114.6</ele><time>2026-05-03T07:53:56.999Z</time></trkpt><trkpt lat="42.34576536107491" lon="13.57069149291532"><ele>1115.0</ele><time>2026-05-03T07:53:57.999Z</time></trkpt><trkpt lat="42.345746499210485" lon="13.570828555731651"><ele>1115.0</ele><time>2026-05-03T07:53:58.999Z</time></trkpt><trkpt lat="42.3457326102157" lon="13.570958888042743"><ele>1115.0</ele><time>2026-05-03T07:53:59.999Z</time></trkpt><trkpt lat="42.34570556423293" lon="13.571071499814494"><ele>1115.0</ele><time>2026-05-03T07:54:00.999Z</time></trkpt><trkpt lat="42.34564709896503" lon="13.571173975886323"><ele>1115.0</ele><time>2026-05-03T07:54:01.999Z</time></trkpt><trkpt lat="42.34555945936805" lon="13.571259836887885"><ele>1115.0</ele><time>2026-05-03T07:54:02.999Z</time></trkpt><trkpt lat="42.34546785521256" lon="13.571335654135055"><ele>1113.6</ele><time>2026-05-03T07:54:03.999Z</time></trkpt><trkpt lat="42.3453775078304" lon="13.571412131887866"><ele>1112.2</ele><time>2026-05-03T07:54:04.999Z</time></trkpt><trkpt lat="42.34528749035114" lon="13.57150112378711"><ele>1110.8</ele><time>2026-05-03T07:54:05.999Z</time></trkpt><trkpt lat="42.34521472298111" lon="13.57159896466931"><ele>1109.4</ele><time>2026-05-03T07:54:06.999Z</time></trkpt><trkpt lat="42.345152606014445" lon="13.5717023728944"><ele>1108.0</ele><time>2026-05-03T07:54:07.999Z</time></trkpt><trkpt lat="42.3451170028563" lon="13.57181240410805"><ele>1108.0</ele><time>2026-05-03T07:54:08.999Z</time></trkpt><trkpt lat="42.345080361771046" lon="13.571942221989602"><ele>1108.0</ele><time>2026-05-03T07:54:09.999Z</time></trkpt><trkpt lat="42.34504246303678" lon="13.572084840726644"><ele>1108.0</ele><time>2026-05-03T07:54:10.999Z</time></trkpt><trkpt lat="42.34499829121615" lon="13.572225418491032"><ele>1108.0</ele><time>2026-05-03T07:54:11.999Z</time></trkpt><trkpt lat="42.34494401615876" lon="13.572352832667402"><ele>1108.0</ele><time>2026-05-03T07:54:12.999Z</time></trkpt><trkpt lat="42.34487596472" lon="13.572472201676359"><ele>1108.0</ele><time>2026-05-03T07:54:13.999Z</time></trkpt><trkpt lat="42.3448010704351" lon="13.572588809494327"><ele>1108.0</ele><time>2026-05-03T07:54:14.999Z</time></trkpt><trkpt lat="42.344718822035254" lon="13.572698149604902"><ele>1108.0</ele><time>2026-05-03T07:54:15.999Z</time></trkpt><trkpt lat="42.34462984306467" lon="13.572802587942624"><ele>1108.0</ele><time>2026-05-03T07:54:16.999Z</time></trkpt><trkpt lat="42.34454046580253" lon="13.572907331192939"><ele>1107.5</ele><time>2026-05-03T07:54:17.999Z</time></trkpt><trkpt lat="42.34444873610103" lon="13.5730155156073"><ele>1107.0</ele><time>2026-05-03T07:54:18.999Z</time></trkpt><trkpt lat="42.34435180340656" lon="13.573119245837889"><ele>1106.5</ele><time>2026-05-03T07:54:19.999Z</time></trkpt><trkpt lat="42.34425397965423" lon="13.573239092401268"><ele>1106.0</ele><time>2026-05-03T07:54:20.999Z</time></trkpt><trkpt lat="42.34414983481675" lon="13.57336084488194"><ele>1106.0</ele><time>2026-05-03T07:54:21.999Z</time></trkpt><trkpt lat="42.344046047398706" lon="13.573478494879124"><ele>1106.0</ele><time>2026-05-03T07:54:22.999Z</time></trkpt><trkpt lat="42.34395672744259" lon="13.57358177627924"><ele>1106.0</ele><time>2026-05-03T07:54:23.999Z</time></trkpt><trkpt lat="42.343875474784724" lon="13.573681726609365"><ele>1106.0</ele><time>2026-05-03T07:54:24.999Z</time></trkpt><trkpt lat="42.34380655735709" lon="13.573782329584006"><ele>1105.0</ele><time>2026-05-03T07:54:25.999Z</time></trkpt><trkpt lat="42.3437368435485" lon="13.573873110739036"><ele>1104.0</ele><time>2026-05-03T07:54:26.999Z</time></trkpt><trkpt lat="42.34367131127441" lon="13.573959762268286"><ele>1103.0</ele><time>2026-05-03T07:54:27.999Z</time></trkpt><trkpt lat="42.34360433595313" lon="13.574052090730703"><ele>1102.0</ele><time>2026-05-03T07:54:28.999Z</time></trkpt><trkpt lat="42.343542044038095" lon="13.57416348304427"><ele>1101.0</ele><time>2026-05-03T07:54:29.999Z</time></trkpt><trkpt lat="42.34347796629544" lon="13.574271541808642"><ele>1101.0</ele><time>2026-05-03T07:54:30.999Z</time></trkpt><trkpt lat="42.34341465387646" lon="13.574370305665761"><ele>1101.0</ele><time>2026-05-03T07:54:31.999Z</time></trkpt><trkpt lat="42.343360462937554" lon="13.574466851710534"><ele>1101.0</ele><time>2026-05-03T07:54:32.999Z</time></trkpt><trkpt lat="42.34330147738398" lon="13.57456953074057"><ele>1101.0</ele><time>2026-05-03T07:54:33.999Z</time></trkpt><trkpt lat="42.34323206542053" lon="13.574666963224148"><ele>1101.0</ele><time>2026-05-03T07:54:34.999Z</time></trkpt><trkpt lat="42.34315383043302" lon="13.57475330083108"><ele>1101.2</ele><time>2026-05-03T07:54:35.999Z</time></trkpt><trkpt lat="42.3430667945718" lon="13.574845864690833"><ele>1101.3999999999999</ele><time>2026-05-03T07:54:36.999Z</time></trkpt><trkpt lat="42.34297478450333" lon="13.574931777377873"><ele>1101.6</ele><time>2026-05-03T07:54:37.999Z</time></trkpt><trkpt lat="42.34288329343686" lon="13.575019584608187"><ele>1101.8</ele><time>2026-05-03T07:54:38.999Z</time></trkpt><trkpt lat="42.34279297648352" lon="13.57510686520376"><ele>1102.0</ele><time>2026-05-03T07:54:39.999Z</time></trkpt><trkpt lat="42.3427072878106" lon="13.575202197998019"><ele>1102.0</ele><time>2026-05-03T07:54:40.999Z</time></trkpt><trkpt lat="42.34262767482466" lon="13.575313289665624"><ele>1102.0</ele><time>2026-05-03T07:54:41.999Z</time></trkpt><trkpt lat="42.34253953461343" lon="13.575444453069585"><ele>1102.0</ele><time>2026-05-03T07:54:42.999Z</time></trkpt><trkpt lat="42.342449025181196" lon="13.575585053962334"><ele>1102.0</ele><time>2026-05-03T07:54:43.999Z</time></trkpt><trkpt lat="42.3423490046524" lon="13.575725520304847"><ele>1102.25</ele><time>2026-05-03T07:54:44.999Z</time></trkpt><trkpt lat="42.34226318204986" lon="13.575876906423465"><ele>1102.5</ele><time>2026-05-03T07:54:45.999Z</time></trkpt><trkpt lat="42.34216278055192" lon="13.576029675052416"><ele>1102.75</ele><time>2026-05-03T07:54:46.999Z</time></trkpt><trkpt lat="42.34205600642277" lon="13.576183892885545"><ele>1103.0</ele><time>2026-05-03T07:54:47.999Z</time></trkpt><trkpt lat="42.34195068830118" lon="13.576337603775729"><ele>1101.3333333333335</ele><time>2026-05-03T07:54:48.999Z</time></trkpt><trkpt lat="42.341850545150635" lon="13.576487653977459"><ele>1099.6666666666667</ele><time>2026-05-03T07:54:49.999Z</time></trkpt><trkpt lat="42.34174745345705" lon="13.576645197855392"><ele>1098.0</ele><time>2026-05-03T07:54:50.999Z</time></trkpt><trkpt lat="42.34164465786411" lon="13.576799451265087"><ele>1098.0</ele><time>2026-05-03T07:54:51.998Z</time></trkpt><trkpt lat="42.34153792552879" lon="13.576957759689734"><ele>1098.0</ele><time>2026-05-03T07:54:52.998Z</time></trkpt><trkpt lat="42.34143352589081" lon="13.577109719986995"><ele>1098.0</ele><time>2026-05-03T07:54:54Z</time></trkpt><trkpt lat="42.341320213585284" lon="13.577261966361213"><ele>1097.3333333333333</ele><time>2026-05-03T07:54:55Z</time></trkpt><trkpt lat="42.341209440301384" lon="13.577419055841412"><ele>1096.6666666666665</ele><time>2026-05-03T07:54:56Z</time></trkpt><trkpt lat="42.34109521344076" lon="13.577581656613487"><ele>1096.0</ele><time>2026-05-03T07:54:57Z</time></trkpt><trkpt lat="42.34098498210416" lon="13.57774888930421"><ele>1097.3333333333333</ele><time>2026-05-03T07:54:58Z</time></trkpt><trkpt lat="42.340870750858976" lon="13.577912406489116"><ele>1098.6666666666667</ele><time>2026-05-03T07:54:59Z</time></trkpt><trkpt lat="42.340753647655404" lon="13.578070274031075"><ele>1100.0</ele><time>2026-05-03T07:55:00Z</time></trkpt><trkpt lat="42.34063984757712" lon="13.57822620368328"><ele>1097.3333333333335</ele><time>2026-05-03T07:55:01Z</time></trkpt><trkpt lat="42.34052488849326" lon="13.578377816260248"><ele>1094.6666666666667</ele><time>2026-05-03T07:55:02Z</time></trkpt><trkpt lat="42.3404104606973" lon="13.578536751084242"><ele>1092.0</ele><time>2026-05-03T07:55:03Z</time></trkpt><trkpt lat="42.34029623054048" lon="13.578693612171802"><ele>1092.0</ele><time>2026-05-03T07:55:04Z</time></trkpt><trkpt lat="42.34018386978433" lon="13.578843234082946"><ele>1092.0</ele><time>2026-05-03T07:55:05Z</time></trkpt><trkpt lat="42.34007574465377" lon="13.578993886493071"><ele>1092.0</ele><time>2026-05-03T07:55:06Z</time></trkpt><trkpt lat="42.33996987389562" lon="13.579135438631225"><ele>1092.0</ele><time>2026-05-03T07:55:07Z</time></trkpt><trkpt lat="42.33986765941333" lon="13.579277225786983"><ele>1092.0</ele><time>2026-05-03T07:55:08Z</time></trkpt><trkpt lat="42.33976511598524" lon="13.579428546943989"><ele>1092.0</ele><time>2026-05-03T07:55:09Z</time></trkpt><trkpt lat="42.3396709297556" lon="13.57957502017787"><ele>1092.0</ele><time>2026-05-03T07:55:10Z</time></trkpt><trkpt lat="42.33959341129524" lon="13.579724980386652"><ele>1090.75</ele><time>2026-05-03T07:55:11Z</time></trkpt><trkpt lat="42.33953847897635" lon="13.579912220438322"><ele>1089.5</ele><time>2026-05-03T07:55:12Z</time></trkpt><trkpt lat="42.33948056640916" lon="13.580078470044294"><ele>1088.25</ele><time>2026-05-03T07:55:13Z</time></trkpt><trkpt lat="42.33934450637064" lon="13.580111283558933"><ele>1087.0</ele><time>2026-05-03T07:55:14Z</time></trkpt><trkpt lat="42.339259165548675" lon="13.580222143639764"><ele>1087.0</ele><time>2026-05-03T07:55:15Z</time></trkpt><trkpt lat="42.33916805483026" lon="13.58033081542839"><ele>1087.0</ele><time>2026-05-03T07:55:16Z</time></trkpt><trkpt lat="42.33906483203645" lon="13.580431232387792"><ele>1087.0</ele><time>2026-05-03T07:55:17Z</time></trkpt><trkpt lat="42.338959764059645" lon="13.580533146663102"><ele>1087.0</ele><time>2026-05-03T07:55:18Z</time></trkpt><trkpt lat="42.33885401458823" lon="13.580635015321308"><ele>1087.4</ele><time>2026-05-03T07:55:19Z</time></trkpt><trkpt lat="42.33875935776897" lon="13.580722397578965"><ele>1087.8000000000002</ele><time>2026-05-03T07:55:20Z</time></trkpt><trkpt lat="42.3386738099" lon="13.580791101664666"><ele>1088.2</ele><time>2026-05-03T07:55:21Z</time></trkpt><trkpt lat="42.338592650232854" lon="13.580836206467962"><ele>1088.6000000000001</ele><time>2026-05-03T07:55:22Z</time></trkpt><trkpt lat="42.33850768616016" lon="13.580839205627422"><ele>1089.0</ele><time>2026-05-03T07:55:23Z</time></trkpt><trkpt lat="42.33841275720526" lon="13.580800043880432"><ele>1089.0</ele><time>2026-05-03T07:55:24Z</time></trkpt><trkpt lat="42.33832324473635" lon="13.580723327984341"><ele>1089.0</ele><time>2026-05-03T07:55:25Z</time></trkpt><trkpt lat="42.33824265338435" lon="13.580626233488053"><ele>1089.0</ele><time>2026-05-03T07:55:26Z</time></trkpt><trkpt lat="42.33815962824998" lon="13.580509070602897"><ele>1089.0</ele><time>2026-05-03T07:55:27Z</time></trkpt><trkpt lat="42.33807846243737" lon="13.580386667456802"><ele>1090.0</ele><time>2026-05-03T07:55:28Z</time></trkpt><trkpt lat="42.33801196323785" lon="13.580277533145654"><ele>1091.0</ele><time>2026-05-03T07:55:29Z</time></trkpt><trkpt lat="42.33795211424337" lon="13.580176655182221"><ele>1092.0</ele><time>2026-05-03T07:55:30Z</time></trkpt><trkpt lat="42.337903183727356" lon="13.580092837412424"><ele>1093.0</ele><time>2026-05-03T07:55:31Z</time></trkpt><trkpt lat="42.33786187198397" lon="13.580020422693746"><ele>1094.0</ele><time>2026-05-03T07:55:32Z</time></trkpt><trkpt lat="42.33777489444746" lon="13.57991815827159"><ele>1094.0</ele><time>2026-05-03T07:55:34Z</time></trkpt><trkpt lat="42.33772027237468" lon="13.579835483588273"><ele>1094.0</ele><time>2026-05-03T07:55:35Z</time></trkpt><trkpt lat="42.33766340204205" lon="13.579725334381859"><ele>1094.0</ele><time>2026-05-03T07:55:36Z</time></trkpt><trkpt lat="42.337594164421134" lon="13.57960565871265"><ele>1094.0</ele><time>2026-05-03T07:55:37Z</time></trkpt><trkpt lat="42.337494800572195" lon="13.579496450870094"><ele>1094.0</ele><time>2026-05-03T07:55:38Z</time></trkpt><trkpt lat="42.33736611193976" lon="13.579412200655844"><ele>1091.3333333333335</ele><time>2026-05-03T07:55:39Z</time></trkpt><trkpt lat="42.33722358047881" lon="13.579365755934642"><ele>1088.6666666666667</ele><time>2026-05-03T07:55:40Z</time></trkpt><trkpt lat="42.3370725167849" lon="13.57936650066344"><ele>1086.0</ele><time>2026-05-03T07:55:41Z</time></trkpt><trkpt lat="42.33692424111619" lon="13.579422570507218"><ele>1085.3333333333333</ele><time>2026-05-03T07:55:42Z</time></trkpt><trkpt lat="42.33677521579856" lon="13.57949281795659"><ele>1084.6666666666665</ele><time>2026-05-03T07:55:43Z</time></trkpt><trkpt lat="42.336626452700145" lon="13.579538052844587"><ele>1084.0</ele><time>2026-05-03T07:55:44Z</time></trkpt><trkpt lat="42.33646807302771" lon="13.579548213213537"><ele>1086.6666666666665</ele><time>2026-05-03T07:55:45Z</time></trkpt><trkpt lat="42.33630335649392" lon="13.579542441293928"><ele>1089.3333333333333</ele><time>2026-05-03T07:55:46Z</time></trkpt><trkpt lat="42.336131941551706" lon="13.579534917157583"><ele>1092.0</ele><time>2026-05-03T07:55:47Z</time></trkpt><trkpt lat="42.33597313116975" lon="13.579544107104436"><ele>1092.0</ele><time>2026-05-03T07:55:47.999Z</time></trkpt><trkpt lat="42.33581244537427" lon="13.579568162932443"><ele>1092.0</ele><time>2026-05-03T07:55:48.999Z</time></trkpt><trkpt lat="42.33565877794298" lon="13.579604867919034"><ele>1092.0</ele><time>2026-05-03T07:55:49.999Z</time></trkpt><trkpt lat="42.33550411927788" lon="13.579638909190233"><ele>1090.0</ele><time>2026-05-03T07:55:50.999Z</time></trkpt><trkpt lat="42.33534440579966" lon="13.5796601991906"><ele>1088.0</ele><time>2026-05-03T07:55:51.999Z</time></trkpt><trkpt lat="42.33518311249965" lon="13.579651063732436"><ele>1086.0</ele><time>2026-05-03T07:55:52.999Z</time></trkpt><trkpt lat="42.33502079812255" lon="13.57961111468232"><ele>1086.0</ele><time>2026-05-03T07:55:53.999Z</time></trkpt><trkpt lat="42.334863091340324" lon="13.579552480104875"><ele>1086.0</ele><time>2026-05-03T07:55:54.999Z</time></trkpt><trkpt lat="42.33470538280536" lon="13.57949485263007"><ele>1086.0</ele><time>2026-05-03T07:55:55.999Z</time></trkpt><trkpt lat="42.334544335404296" lon="13.579438950688763"><ele>1079.6666666666667</ele><time>2026-05-03T07:55:56.999Z</time></trkpt><trkpt lat="42.33438262408292" lon="13.579390129683295"><ele>1073.3333333333335</ele><time>2026-05-03T07:55:57.999Z</time></trkpt><trkpt lat="42.33422498797085" lon="13.57935553456825"><ele>1067.0</ele><time>2026-05-03T07:55:58.999Z</time></trkpt><trkpt lat="42.33406474073054" lon="13.579333811949654"><ele>1067.0</ele><time>2026-05-03T07:55:59.999Z</time></trkpt><trkpt lat="42.33391107366984" lon="13.57931836994844"><ele>1067.0</ele><time>2026-05-03T07:56:00.999Z</time></trkpt><trkpt lat="42.33376075992993" lon="13.579304832946752"><ele>1067.0</ele><time>2026-05-03T07:56:01.999Z</time></trkpt><trkpt lat="42.33362478799408" lon="13.579290775762052"><ele>1067.0</ele><time>2026-05-03T07:56:02.999Z</time></trkpt><trkpt lat="42.333490574496736" lon="13.579311784963469"><ele>1067.25</ele><time>2026-05-03T07:56:03.999Z</time></trkpt><trkpt lat="42.333365747519004" lon="13.579388438272902"><ele>1067.5</ele><time>2026-05-03T07:56:04.999Z</time></trkpt><trkpt lat="42.33326056219483" lon="13.57952044430327"><ele>1067.75</ele><time>2026-05-03T07:56:05.999Z</time></trkpt><trkpt lat="42.333172220737" lon="13.579676377232525"><ele>1068.0</ele><time>2026-05-03T07:56:06.999Z</time></trkpt><trkpt lat="42.33307450790523" lon="13.57981584640063"><ele>1060.75</ele><time>2026-05-03T07:56:07.999Z</time></trkpt><trkpt lat="42.33294459466056" lon="13.579898923774843"><ele>1053.5</ele><time>2026-05-03T07:56:08.999Z</time></trkpt><trkpt lat="42.33280578214135" lon="13.579970067680556"><ele>1046.25</ele><time>2026-05-03T07:56:09.999Z</time></trkpt><trkpt lat="42.33266981057346" lon="13.580060068359373"><ele>1039.0</ele><time>2026-05-03T07:56:10.999Z</time></trkpt><trkpt lat="42.332522194024726" lon="13.580128973729668"><ele>1039.0</ele><time>2026-05-03T07:56:11.999Z</time></trkpt><trkpt lat="42.33238182833615" lon="13.580197892475992"><ele>1039.0</ele><time>2026-05-03T07:56:12.999Z</time></trkpt><trkpt lat="42.33225635704516" lon="13.58026275572322"><ele>1039.0</ele><time>2026-05-03T07:56:13.999Z</time></trkpt><trkpt lat="42.33213895866882" lon="13.580328603657552"><ele>1039.0</ele><time>2026-05-03T07:56:14.999Z</time></trkpt><trkpt lat="42.33204150674194" lon="13.580420382913708"><ele>1036.5</ele><time>2026-05-03T07:56:15.999Z</time></trkpt><trkpt lat="42.33196797154286" lon="13.5805613238104"><ele>1034.0</ele><time>2026-05-03T07:56:16.999Z</time></trkpt><trkpt lat="42.33193535738409" lon="13.58074252777214"><ele>1031.5</ele><time>2026-05-03T07:56:17.999Z</time></trkpt><trkpt lat="42.331949877482515" lon="13.580938784359716"><ele>1029.0</ele><time>2026-05-03T07:56:18.999Z</time></trkpt><trkpt lat="42.33199525956821" lon="13.581133691750578"><ele>1029.6666666666667</ele><time>2026-05-03T07:56:19.999Z</time></trkpt><trkpt lat="42.33204645805442" lon="13.581328849041471"><ele>1030.3333333333335</ele><time>2026-05-03T07:56:20.999Z</time></trkpt><trkpt lat="42.33207254415279" lon="13.581531760773395"><ele>1031.0</ele><time>2026-05-03T07:56:21.999Z</time></trkpt><trkpt lat="42.332077766092716" lon="13.581742774630447"><ele>1031.0</ele><time>2026-05-03T07:56:22.999Z</time></trkpt><trkpt lat="42.33206930733128" lon="13.581947636923177"><ele>1031.0</ele><time>2026-05-03T07:56:23.999Z</time></trkpt><trkpt lat="42.33205387503072" lon="13.582152734124715"><ele>1031.0</ele><time>2026-05-03T07:56:24.999Z</time></trkpt><trkpt lat="42.332063631100134" lon="13.582359373921532"><ele>1029.3333333333335</ele><time>2026-05-03T07:56:25.999Z</time></trkpt><trkpt lat="42.3320999926852" lon="13.582566851581602"><ele>1027.6666666666667</ele><time>2026-05-03T07:56:26.999Z</time></trkpt><trkpt lat="42.33214724909379" lon="13.58277501411746"><ele>1026.0</ele><time>2026-05-03T07:56:27.999Z</time></trkpt><trkpt lat="42.33220173957506" lon="13.582979246965962"><ele>1029.6666666666667</ele><time>2026-05-03T07:56:28.999Z</time></trkpt><trkpt lat="42.332251651862066" lon="13.583198772892002"><ele>1033.3333333333335</ele><time>2026-05-03T07:56:29.999Z</time></trkpt><trkpt lat="42.33230007551552" lon="13.583411627521631"><ele>1037.0</ele><time>2026-05-03T07:56:30.999Z</time></trkpt><trkpt lat="42.332349043413814" lon="13.583627992579657"><ele>1034.6666666666667</ele><time>2026-05-03T07:56:31.999Z</time></trkpt><trkpt lat="42.33236956003709" lon="13.583842416481271"><ele>1032.3333333333333</ele><time>2026-05-03T07:56:32.999Z</time></trkpt><trkpt lat="42.332392789403656" lon="13.584027089449668"><ele>1030.0</ele><time>2026-05-03T07:56:33.999Z</time></trkpt><trkpt lat="42.332413731457805" lon="13.58424054828874"><ele>1028.6666666666665</ele><time>2026-05-03T07:56:34.999Z</time></trkpt><trkpt lat="42.33246219881381" lon="13.584514242393418"><ele>1027.3333333333333</ele><time>2026-05-03T07:56:35.999Z</time></trkpt><trkpt lat="42.33247996024608" lon="13.584744067698182"><ele>1026.0</ele><time>2026-05-03T07:56:36.999Z</time></trkpt><trkpt lat="42.33247800894902" lon="13.58496937493407"><ele>1026.0</ele><time>2026-05-03T07:56:37.999Z</time></trkpt><trkpt lat="42.33247611970549" lon="13.58518542348824"><ele>1026.0</ele><time>2026-05-03T07:56:38.999Z</time></trkpt><trkpt lat="42.33247913519377" lon="13.585394883879587"><ele>1026.0</ele><time>2026-05-03T07:56:39.999Z</time></trkpt><trkpt lat="42.33244892725379" lon="13.585591267409846"><ele>1025.0</ele><time>2026-05-03T07:56:40.999Z</time></trkpt><trkpt lat="42.332393328785585" lon="13.585766666144815"><ele>1024.0</ele><time>2026-05-03T07:56:41.999Z</time></trkpt><trkpt lat="42.33232321519227" lon="13.585936751474412"><ele>1023.0</ele><time>2026-05-03T07:56:42.999Z</time></trkpt><trkpt lat="42.332242966503095" lon="13.58611621346832"><ele>1022.0</ele><time>2026-05-03T07:56:43.999Z</time></trkpt><trkpt lat="42.33217123293965" lon="13.586305783141448"><ele>1018.6666666666667</ele><time>2026-05-03T07:56:44.999Z</time></trkpt><trkpt lat="42.33208517075" lon="13.586484887505216"><ele>1015.3333333333333</ele><time>2026-05-03T07:56:45.999Z</time></trkpt><trkpt lat="42.332005825511054" lon="13.5866685323495"><ele>1012.0</ele><time>2026-05-03T07:56:46.999Z</time></trkpt><trkpt lat="42.33192516261846" lon="13.58683750325714"><ele>1012.0</ele><time>2026-05-03T07:56:47.999Z</time></trkpt><trkpt lat="42.33184305083755" lon="13.586994096783032"><ele>1012.0</ele><time>2026-05-03T07:56:48.999Z</time></trkpt><trkpt lat="42.331789282114" lon="13.587095565841466"><ele>1012.0</ele><time>2026-05-03T07:56:49.999Z</time></trkpt><trkpt lat="42.33173749057631" lon="13.587243355289415"><ele>1012.0</ele><time>2026-05-03T07:56:51.999Z</time></trkpt><trkpt lat="42.33170473075842" lon="13.587327021797895"><ele>1012.0</ele><time>2026-05-03T07:56:52.999Z</time></trkpt><trkpt lat="42.33165854718064" lon="13.58743126079049"><ele>1012.0</ele><time>2026-05-03T07:56:53.999Z</time></trkpt><trkpt lat="42.33160935240222" lon="13.587527162062868"><ele>1012.0</ele><time>2026-05-03T07:56:54.999Z</time></trkpt><trkpt lat="42.3315588415342" lon="13.587632755222822"><ele>1012.0</ele><time>2026-05-03T07:56:55.998Z</time></trkpt><trkpt lat="42.33150661332913" lon="13.587750993131696"><ele>1012.0</ele><time>2026-05-03T07:56:56.998Z</time></trkpt><trkpt lat="42.33145510799476" lon="13.587867986836224"><ele>1012.0</ele><time>2026-05-03T07:56:57.998Z</time></trkpt><trkpt lat="42.33140483954096" lon="13.587979719304105"><ele>1009.4000000000001</ele><time>2026-05-03T07:56:59Z</time></trkpt><trkpt lat="42.331351937764374" lon="13.58808953956787"><ele>1006.8000000000001</ele><time>2026-05-03T07:57:00Z</time></trkpt><trkpt lat="42.331296069838054" lon="13.588207130621976"><ele>1004.2</ele><time>2026-05-03T07:57:01Z</time></trkpt><trkpt lat="42.33125017384703" lon="13.588330599832519"><ele>1001.6</ele><time>2026-05-03T07:57:02Z</time></trkpt><trkpt lat="42.331203529436394" lon="13.588455497452387"><ele>999.0</ele><time>2026-05-03T07:57:03Z</time></trkpt><trkpt lat="42.331165765919295" lon="13.58858864533684"><ele>999.0</ele><time>2026-05-03T07:57:04Z</time></trkpt><trkpt lat="42.33112354041466" lon="13.588728418157881"><ele>999.0000000000001</ele><time>2026-05-03T07:57:05Z</time></trkpt><trkpt lat="42.33108340589949" lon="13.588869153398148"><ele>999.0000000000001</ele><time>2026-05-03T07:57:06Z</time></trkpt><trkpt lat="42.331043623824236" lon="13.589003111371335"><ele>999.0</ele><time>2026-05-03T07:57:07Z</time></trkpt><trkpt lat="42.33100453692253" lon="13.589138007661623"><ele>999.0</ele><time>2026-05-03T07:57:08Z</time></trkpt><trkpt lat="42.33096695534587" lon="13.589264541294924"><ele>999.0</ele><time>2026-05-03T07:57:09Z</time></trkpt><trkpt lat="42.330927141529315" lon="13.589398341881745"><ele>999.0000000000001</ele><time>2026-05-03T07:57:10Z</time></trkpt><trkpt lat="42.33088835884312" lon="13.589530848055869"><ele>999.0000000000001</ele><time>2026-05-03T07:57:11Z</time></trkpt><trkpt lat="42.330838072562436" lon="13.589659547980945"><ele>999.0</ele><time>2026-05-03T07:57:12Z</time></trkpt><trkpt lat="42.33076964583779" lon="13.589778053937927"><ele>999.0</ele><time>2026-05-03T07:57:13Z</time></trkpt><trkpt lat="42.33067590605886" lon="13.589855898236738"><ele>999.2</ele><time>2026-05-03T07:57:14Z</time></trkpt><trkpt lat="42.33058241705324" lon="13.589920015680267"><ele>999.4000000000001</ele><time>2026-05-03T07:57:15Z</time></trkpt><trkpt lat="42.33048735590585" lon="13.58996263291841"><ele>999.6</ele><time>2026-05-03T07:57:16Z</time></trkpt><trkpt lat="42.33039038410223" lon="13.59002050683362"><ele>999.8</ele><time>2026-05-03T07:57:17Z</time></trkpt><trkpt lat="42.33030418810373" lon="13.590090162035766"><ele>1000.0</ele><time>2026-05-03T07:57:18Z</time></trkpt><trkpt lat="42.330214657525936" lon="13.590121563265644"><ele>999.4</ele><time>2026-05-03T07:57:19Z</time></trkpt><trkpt lat="42.330118459628686" lon="13.590149045716293"><ele>998.8</ele><time>2026-05-03T07:57:20Z</time></trkpt><trkpt lat="42.33004023682024" lon="13.590159392330301"><ele>998.2</ele><time>2026-05-03T07:57:21Z</time></trkpt><trkpt lat="42.32996911081438" lon="13.590179514241099"><ele>997.6</ele><time>2026-05-03T07:57:22Z</time></trkpt><trkpt lat="42.32990554910207" lon="13.590191056271347"><ele>997.0</ele><time>2026-05-03T07:57:23Z</time></trkpt><trkpt lat="42.329780552857926" lon="13.590368461917084"><ele>995.0</ele><time>2026-05-03T07:57:25Z</time></trkpt><trkpt lat="42.32970059337509" lon="13.590470461303598"><ele>993.0</ele><time>2026-05-03T07:57:26Z</time></trkpt><trkpt lat="42.32963555555557" lon="13.590602477562273"><ele>991.0</ele><time>2026-05-03T07:57:29Z</time></trkpt><trkpt lat="42.32957637823574" lon="13.590715613627408"><ele>989.0</ele><time>2026-05-03T07:57:30Z</time></trkpt><trkpt lat="42.32953507323831" lon="13.590848663125788"><ele>987.0</ele><time>2026-05-03T07:57:31Z</time></trkpt><trkpt lat="42.32948515796212" lon="13.590941550298707"><ele>987.0</ele><time>2026-05-03T07:57:32Z</time></trkpt><trkpt lat="42.32944842251239" lon="13.591040397908417"><ele>987.0</ele><time>2026-05-03T07:57:34Z</time></trkpt><trkpt lat="42.32941915003321" lon="13.591119164209108"><ele>987.0</ele><time>2026-05-03T07:57:35Z</time></trkpt><trkpt lat="42.32939856962624" lon="13.591200518640811"><ele>987.0</ele><time>2026-05-03T07:57:37Z</time></trkpt><trkpt lat="42.32943639162226" lon="13.591072770538206"><ele>987.0</ele><time>2026-05-03T07:57:44Z</time></trkpt><trkpt lat="42.329515613739645" lon="13.590922227907411"><ele>987.0</ele><time>2026-05-03T07:57:46Z</time></trkpt><trkpt lat="42.32954714130452" lon="13.590817804511351"><ele>987.0</ele><time>2026-05-03T07:57:47Z</time></trkpt><trkpt lat="42.32957828411989" lon="13.5907301582297"><ele>987.0</ele><time>2026-05-03T07:57:47.999Z</time></trkpt><trkpt lat="42.3296447317533" lon="13.590620695904011"><ele>987.0</ele><time>2026-05-03T07:57:49.999Z</time></trkpt><trkpt lat="42.32974782023595" lon="13.590656649054266"><ele>987.0</ele><time>2026-05-03T07:57:51.999Z</time></trkpt><trkpt lat="42.32980958032206" lon="13.590717098561017"><ele>987.0</ele><time>2026-05-03T07:57:52.999Z</time></trkpt><trkpt lat="42.32987904004937" lon="13.590782884137619"><ele>987.0</ele><time>2026-05-03T07:57:53.999Z</time></trkpt><trkpt lat="42.32997142575107" lon="13.590832906804726"><ele>988.6666666666666</ele><time>2026-05-03T07:57:54.999Z</time></trkpt><trkpt lat="42.33005808915671" lon="13.590889083204829"><ele>990.3333333333333</ele><time>2026-05-03T07:57:55.999Z</time></trkpt><trkpt lat="42.330146610537064" lon="13.590950396548164"><ele>992.0</ele><time>2026-05-03T07:57:56.999Z</time></trkpt><trkpt lat="42.33022240055524" lon="13.590995872383802"><ele>993.6666666666666</ele><time>2026-05-03T07:57:57.999Z</time></trkpt><trkpt lat="42.33027695600168" lon="13.59104409655882"><ele>995.3333333333333</ele><time>2026-05-03T07:57:58.999Z</time></trkpt><trkpt lat="42.33035053048792" lon="13.591109263349448"><ele>997.0</ele><time>2026-05-03T07:58:00.999Z</time></trkpt><trkpt lat="42.33039942944758" lon="13.591179371537779"><ele>998.4000000000001</ele><time>2026-05-03T07:58:16.999Z</time></trkpt><trkpt lat="42.33045637372863" lon="13.591237653874249"><ele>999.8000000000001</ele><time>2026-05-03T07:58:17.999Z</time></trkpt><trkpt lat="42.33053673763874" lon="13.591297037860985"><ele>1001.2</ele><time>2026-05-03T07:58:18.999Z</time></trkpt><trkpt lat="42.33061300475286" lon="13.591374277401643"><ele>1002.6</ele><time>2026-05-03T07:58:19.999Z</time></trkpt><trkpt lat="42.33069930285263" lon="13.591466106428618"><ele>1004.0</ele><time>2026-05-03T07:58:20.999Z</time></trkpt><trkpt lat="42.3307866297934" lon="13.591575670137008"><ele>1006.25</ele><time>2026-05-03T07:58:21.999Z</time></trkpt><trkpt lat="42.330881227280464" lon="13.591674380918999"><ele>1008.5</ele><time>2026-05-03T07:58:22.999Z</time></trkpt><trkpt lat="42.33097577802702" lon="13.591779610091788"><ele>1010.75</ele><time>2026-05-03T07:58:23.999Z</time></trkpt><trkpt lat="42.331057415459995" lon="13.591900302983808"><ele>1013.0</ele><time>2026-05-03T07:58:24.999Z</time></trkpt><trkpt lat="42.33114291496421" lon="13.592030849405333"><ele>1014.5</ele><time>2026-05-03T07:58:25.999Z</time></trkpt><trkpt lat="42.33123192639003" lon="13.592138738966174"><ele>1016.0</ele><time>2026-05-03T07:58:26.999Z</time></trkpt><trkpt lat="42.33129060832833" lon="13.59228307291286"><ele>1017.5</ele><time>2026-05-03T07:58:27.999Z</time></trkpt><trkpt lat="42.33136719373763" lon="13.592397919931715"><ele>1019.0</ele><time>2026-05-03T07:58:28.999Z</time></trkpt><trkpt lat="42.33141797296777" lon="13.59253267927952"><ele>1020.75</ele><time>2026-05-03T07:58:29.999Z</time></trkpt><trkpt lat="42.33150199663016" lon="13.592677183545549"><ele>1022.5</ele><time>2026-05-03T07:58:30.999Z</time></trkpt><trkpt lat="42.331573192616716" lon="13.592807044093302"><ele>1024.25</ele><time>2026-05-03T07:58:31.999Z</time></trkpt><trkpt lat="42.33163163227057" lon="13.592948780623296"><ele>1026.0</ele><time>2026-05-03T07:58:32.999Z</time></trkpt><trkpt lat="42.33170168285154" lon="13.59308612131573"><ele>1027.75</ele><time>2026-05-03T07:58:33.999Z</time></trkpt><trkpt lat="42.331782541221166" lon="13.593204761314013"><ele>1029.5</ele><time>2026-05-03T07:58:34.999Z</time></trkpt><trkpt lat="42.331847208101706" lon="13.593340110398918"><ele>1031.25</ele><time>2026-05-03T07:58:35.999Z</time></trkpt><trkpt lat="42.33191320918954" lon="13.593468136102967"><ele>1033.0</ele><time>2026-05-03T07:58:36.999Z</time></trkpt><trkpt lat="42.33197456151733" lon="13.593589910587877"><ele>1035.25</ele><time>2026-05-03T07:58:37.999Z</time></trkpt><trkpt lat="42.3320309298882" lon="13.593697724592618"><ele>1037.5</ele><time>2026-05-03T07:58:38.999Z</time></trkpt><trkpt lat="42.33207944445532" lon="13.59379286930711"><ele>1039.75</ele><time>2026-05-03T07:58:39.999Z</time></trkpt><trkpt lat="42.3321245250381" lon="13.593916676356928"><ele>1042.0</ele><time>2026-05-03T07:58:41.999Z</time></trkpt><trkpt lat="42.33193358148261" lon="13.594212191067477"><ele>1042.0</ele><time>2026-05-03T07:58:46.999Z</time></trkpt><trkpt lat="42.3318883008672" lon="13.594330463210875"><ele>1042.0</ele><time>2026-05-03T07:58:47.999Z</time></trkpt><trkpt lat="42.33182362094201" lon="13.594446418801317"><ele>1042.0</ele><time>2026-05-03T07:58:48.999Z</time></trkpt><trkpt lat="42.331748080211014" lon="13.594558186766383"><ele>1042.0</ele><time>2026-05-03T07:58:49.999Z</time></trkpt><trkpt lat="42.33167264355381" lon="13.594664551509199"><ele>1042.0</ele><time>2026-05-03T07:58:50.999Z</time></trkpt><trkpt lat="42.33161037022659" lon="13.594751742232944"><ele>1041.3333333333333</ele><time>2026-05-03T07:58:51.999Z</time></trkpt><trkpt lat="42.331581131743604" lon="13.594834979113411"><ele>1040.6666666666665</ele><time>2026-05-03T07:58:52.999Z</time></trkpt><trkpt lat="42.33161172773759" lon="13.594944621006265"><ele>1040.0</ele><time>2026-05-03T07:58:54.998Z</time></trkpt><trkpt lat="42.33172941891069" lon="13.594986902802296"><ele>1039.3333333333333</ele><time>2026-05-03T07:58:56.998Z</time></trkpt><trkpt lat="42.331798318360626" lon="13.594973491158314"><ele>1038.6666666666667</ele><time>2026-05-03T07:58:57.998Z</time></trkpt><trkpt lat="42.331857887449466" lon="13.59505304542622"><ele>1038.0</ele><time>2026-05-03T07:58:59.998Z</time></trkpt><trkpt lat="42.33186804269683" lon="13.595143764488567"><ele>1038.0</ele><time>2026-05-03T07:59:00.998Z</time></trkpt><trkpt lat="42.331889693720704" lon="13.595261807163869"><ele>1038.0</ele><time>2026-05-03T07:59:01.998Z</time></trkpt><trkpt lat="42.331901491606956" lon="13.595380003679773"><ele>1038.0</ele><time>2026-05-03T07:59:02.998Z</time></trkpt><trkpt lat="42.33189585771356" lon="13.59549084539613"><ele>1038.0</ele><time>2026-05-03T07:59:03.998Z</time></trkpt><trkpt lat="42.33190432295075" lon="13.595600223630056"><ele>1038.0</ele><time>2026-05-03T07:59:05Z</time></trkpt><trkpt lat="42.33193450682135" lon="13.595697589152595"><ele>1038.0</ele><time>2026-05-03T07:59:06Z</time></trkpt><trkpt lat="42.33191507059298" lon="13.595819809624432"><ele>1037.8</ele><time>2026-05-03T07:59:08Z</time></trkpt><trkpt lat="42.33181986901917" lon="13.595954716895172"><ele>1037.6</ele><time>2026-05-03T07:59:10Z</time></trkpt><trkpt lat="42.3317556584113" lon="13.596039884346014"><ele>1037.4</ele><time>2026-05-03T07:59:11Z</time></trkpt><trkpt lat="42.33170647141833" lon="13.596118186602416"><ele>1037.2</ele><time>2026-05-03T07:59:12Z</time></trkpt><trkpt lat="42.331661075613916" lon="13.596193956903734"><ele>1037.0</ele><time>2026-05-03T07:59:13Z</time></trkpt><trkpt lat="42.3315663421708" lon="13.596274643051373"><ele>1037.0</ele><time>2026-05-03T07:59:15Z</time></trkpt><trkpt lat="42.331454748351476" lon="13.596204916431118"><ele>1037.0</ele><time>2026-05-03T07:59:17Z</time></trkpt><trkpt lat="42.33139799433373" lon="13.596162009573826"><ele>1037.0</ele><time>2026-05-03T07:59:18Z</time></trkpt><trkpt lat="42.331257204614005" lon="13.596169227526099"><ele>1037.0</ele><time>2026-05-03T07:59:20Z</time></trkpt><trkpt lat="42.331166358306334" lon="13.59619169007968"><ele>1037.0</ele><time>2026-05-03T07:59:21Z</time></trkpt><trkpt lat="42.33108520413183" lon="13.59621367948108"><ele>1035.3333333333335</ele><time>2026-05-03T07:59:22Z</time></trkpt><trkpt lat="42.331010860115846" lon="13.596247657152958"><ele>1033.6666666666667</ele><time>2026-05-03T07:59:23Z</time></trkpt><trkpt lat="42.33094133135599" lon="13.596297255526796"><ele>1032.0</ele><time>2026-05-03T07:59:24Z</time></trkpt><trkpt lat="42.33087906781719" lon="13.596377546387771"><ele>1030.3333333333333</ele><time>2026-05-03T07:59:25Z</time></trkpt><trkpt lat="42.33082688095481" lon="13.596486239425856"><ele>1028.6666666666665</ele><time>2026-05-03T07:59:26Z</time></trkpt><trkpt lat="42.33077816301888" lon="13.596602461670422"><ele>1027.0</ele><time>2026-05-03T07:59:27Z</time></trkpt><trkpt lat="42.330729469529714" lon="13.596695854468766"><ele>1027.0</ele><time>2026-05-03T07:59:28Z</time></trkpt><trkpt lat="42.33069668933097" lon="13.596785252610346"><ele>1027.0</ele><time>2026-05-03T07:59:29Z</time></trkpt><trkpt lat="42.33068299044438" lon="13.596894322061999"><ele>1027.0</ele><time>2026-05-03T07:59:30Z</time></trkpt><trkpt lat="42.33067510606834" lon="13.59701197426488"><ele>1027.0</ele><time>2026-05-03T07:59:31Z</time></trkpt><trkpt lat="42.330662669237064" lon="13.597133343811745"><ele>1027.0</ele><time>2026-05-03T07:59:32Z</time></trkpt><trkpt lat="42.330659291686466" lon="13.597232843304301"><ele>1027.0</ele><time>2026-05-03T07:59:33Z</time></trkpt><trkpt lat="42.3306528369731" lon="13.597325936488685"><ele>1027.1666666666665</ele><time>2026-05-03T07:59:34Z</time></trkpt><trkpt lat="42.33062308707708" lon="13.5974214170257"><ele>1027.3333333333333</ele><time>2026-05-03T07:59:35Z</time></trkpt><trkpt lat="42.330573311051786" lon="13.597482190834313"><ele>1027.5</ele><time>2026-05-03T07:59:36Z</time></trkpt><trkpt lat="42.33050237885537" lon="13.597523403597716"><ele>1027.6666666666667</ele><time>2026-05-03T07:59:37Z</time></trkpt><trkpt lat="42.33042194551877" lon="13.59757981651415"><ele>1027.8333333333335</ele><time>2026-05-03T07:59:38Z</time></trkpt><trkpt lat="42.33036367872087" lon="13.597645616394106"><ele>1028.0</ele><time>2026-05-03T07:59:39Z</time></trkpt><trkpt lat="42.33031461409343" lon="13.597727612067905"><ele>1027.3333333333335</ele><time>2026-05-03T07:59:40Z</time></trkpt><trkpt lat="42.33025135303768" lon="13.5978197320032"><ele>1026.6666666666667</ele><time>2026-05-03T07:59:41Z</time></trkpt><trkpt lat="42.33018800531547" lon="13.597900821451818"><ele>1026.0</ele><time>2026-05-03T07:59:42Z</time></trkpt><trkpt lat="42.3301262455467" lon="13.597970783219385"><ele>1025.3333333333333</ele><time>2026-05-03T07:59:43Z</time></trkpt><trkpt lat="42.330058444190925" lon="13.59800863731101"><ele>1024.6666666666665</ele><time>2026-05-03T07:59:44Z</time></trkpt><trkpt lat="42.32998146269972" lon="13.59801911074348"><ele>1024.0</ele><time>2026-05-03T07:59:45Z</time></trkpt><trkpt lat="42.329897616228045" lon="13.59802886737822"><ele>1023.9999999999999</ele><time>2026-05-03T07:59:46Z</time></trkpt><trkpt lat="42.329815187073535" lon="13.598072587236203"><ele>1024.0</ele><time>2026-05-03T07:59:47Z</time></trkpt><trkpt lat="42.32975446020857" lon="13.598132682221372"><ele>1024.0</ele><time>2026-05-03T07:59:48Z</time></trkpt><trkpt lat="42.32968539991828" lon="13.59820248718357"><ele>1024.0</ele><time>2026-05-03T07:59:49Z</time></trkpt><trkpt lat="42.329609375173455" lon="13.598267110809868"><ele>1023.9999999999999</ele><time>2026-05-03T07:59:50Z</time></trkpt><trkpt lat="42.32953861368399" lon="13.5983254783106"><ele>1024.0</ele><time>2026-05-03T07:59:51Z</time></trkpt><trkpt lat="42.329473015162954" lon="13.598394504587917"><ele>1024.4</ele><time>2026-05-03T07:59:52Z</time></trkpt><trkpt lat="42.329409566283644" lon="13.598478128726105"><ele>1024.8000000000002</ele><time>2026-05-03T07:59:53Z</time></trkpt><trkpt lat="42.32935328865503" lon="13.598560415549818"><ele>1025.1999999999998</ele><time>2026-05-03T07:59:54Z</time></trkpt><trkpt lat="42.32927914627134" lon="13.598637974011352"><ele>1025.6</ele><time>2026-05-03T07:59:56Z</time></trkpt><trkpt lat="42.32915949624094" lon="13.598660170168149"><ele>1026.0</ele><time>2026-05-03T07:59:58Z</time></trkpt><trkpt lat="42.32909188297396" lon="13.598688414149402"><ele>1026.0</ele><time>2026-05-03T07:59:59Z</time></trkpt><trkpt lat="42.32903507036823" lon="13.598748905989655"><ele>1026.0</ele><time>2026-05-03T07:59:59.999Z</time></trkpt><trkpt lat="42.32898431020599" lon="13.59883418984718"><ele>1026.0</ele><time>2026-05-03T08:00:00.999Z</time></trkpt><trkpt lat="42.32892183868719" lon="13.598930663590748"><ele>1026.0</ele><time>2026-05-03T08:00:01.999Z</time></trkpt><trkpt lat="42.32885795847218" lon="13.599018105739118"><ele>1026.0</ele><time>2026-05-03T08:00:02.999Z</time></trkpt><trkpt lat="42.328814822677074" lon="13.59908540602101"><ele>1026.0</ele><time>2026-05-03T08:00:03.999Z</time></trkpt><trkpt lat="42.32874598223983" lon="13.599186905124466"><ele>1025.1666666666667</ele><time>2026-05-03T08:00:05.999Z</time></trkpt><trkpt lat="42.32870240173051" lon="13.599257413375597"><ele>1024.3333333333333</ele><time>2026-05-03T08:00:06.999Z</time></trkpt><trkpt lat="42.32865511261824" lon="13.599344593499751"><ele>1023.5</ele><time>2026-05-03T08:00:07.999Z</time></trkpt><trkpt lat="42.328614604831266" lon="13.599435509364378"><ele>1022.6666666666666</ele><time>2026-05-03T08:00:08.999Z</time></trkpt><trkpt lat="42.328572814984085" lon="13.59951938102076"><ele>1021.8333333333333</ele><time>2026-05-03T08:00:09.999Z</time></trkpt><trkpt lat="42.32852770590761" lon="13.599584861111037"><ele>1021.0</ele><time>2026-05-03T08:00:10.999Z</time></trkpt><trkpt lat="42.32842380692367" lon="13.599682827893082"><ele>1020.9999999999999</ele><time>2026-05-03T08:00:12.999Z</time></trkpt><trkpt lat="42.32835442476167" lon="13.599755373936507"><ele>1021.0</ele><time>2026-05-03T08:00:13.999Z</time></trkpt><trkpt lat="42.32828662577573" lon="13.599821128519748"><ele>1021.0</ele><time>2026-05-03T08:00:14.999Z</time></trkpt><trkpt lat="42.32822703115846" lon="13.599872117650058"><ele>1021.0</ele><time>2026-05-03T08:00:15.999Z</time></trkpt><trkpt lat="42.32815874868809" lon="13.599974456042432"><ele>1020.9999999999999</ele><time>2026-05-03T08:00:17.999Z</time></trkpt><trkpt lat="42.32811141415091" lon="13.600033022807466"><ele>1021.0</ele><time>2026-05-03T08:00:18.999Z</time></trkpt><trkpt lat="42.328063096448616" lon="13.600107070294406"><ele>1020.5999999999999</ele><time>2026-05-03T08:00:19.999Z</time></trkpt><trkpt lat="42.32801888672484" lon="13.600216874946623"><ele>1020.1999999999999</ele><time>2026-05-03T08:00:20.999Z</time></trkpt><trkpt lat="42.327967653469685" lon="13.600331218008106"><ele>1019.8000000000001</ele><time>2026-05-03T08:00:21.999Z</time></trkpt><trkpt lat="42.3279058907297" lon="13.60042678247736"><ele>1019.4000000000001</ele><time>2026-05-03T08:00:22.999Z</time></trkpt><trkpt lat="42.327830339073316" lon="13.600493095855656"><ele>1019.0</ele><time>2026-05-03T08:00:23.999Z</time></trkpt><trkpt lat="42.327746238989654" lon="13.60056505696368"><ele>1018.8000000000001</ele><time>2026-05-03T08:00:24.999Z</time></trkpt><trkpt lat="42.32768768229538" lon="13.60064493254223"><ele>1018.6000000000001</ele><time>2026-05-03T08:00:25.999Z</time></trkpt><trkpt lat="42.327627083064364" lon="13.600745949549209"><ele>1018.4</ele><time>2026-05-03T08:00:26.999Z</time></trkpt><trkpt lat="42.32755951022344" lon="13.600851719654965"><ele>1018.2</ele><time>2026-05-03T08:00:27.999Z</time></trkpt><trkpt lat="42.32751073057884" lon="13.60096628414735"><ele>1018.0</ele><time>2026-05-03T08:00:28.999Z</time></trkpt><trkpt lat="42.32748467833563" lon="13.601072815661725"><ele>1017.8</ele><time>2026-05-03T08:00:29.999Z</time></trkpt><trkpt lat="42.327439781200525" lon="13.601174626787516"><ele>1017.5999999999999</ele><time>2026-05-03T08:00:30.999Z</time></trkpt><trkpt lat="42.32738746397598" lon="13.60126883758108"><ele>1017.4000000000001</ele><time>2026-05-03T08:00:31.999Z</time></trkpt><trkpt lat="42.32732551845172" lon="13.601375963257723"><ele>1017.2</ele><time>2026-05-03T08:00:32.999Z</time></trkpt><trkpt lat="42.32726389282937" lon="13.60147618586538"><ele>1017.0</ele><time>2026-05-03T08:00:33.999Z</time></trkpt><trkpt lat="42.32721140503685" lon="13.601589206112855"><ele>1017.0</ele><time>2026-05-03T08:00:34.999Z</time></trkpt><trkpt lat="42.327172859003596" lon="13.601714822658847"><ele>1017.0</ele><time>2026-05-03T08:00:35.999Z</time></trkpt><trkpt lat="42.32712278730301" lon="13.601822211652165"><ele>1017.0</ele><time>2026-05-03T08:00:36.999Z</time></trkpt><trkpt lat="42.32706690662522" lon="13.601913343607434"><ele>1017.0</ele><time>2026-05-03T08:00:37.999Z</time></trkpt><trkpt lat="42.32702014574202" lon="13.602003775067221"><ele>1017.0</ele><time>2026-05-03T08:00:38.999Z</time></trkpt><trkpt lat="42.326989063690235" lon="13.602097214028817"><ele>1017.0</ele><time>2026-05-03T08:00:39.999Z</time></trkpt><trkpt lat="42.32695975978914" lon="13.602201847202991"><ele>1016.2</ele><time>2026-05-03T08:00:40.999Z</time></trkpt><trkpt lat="42.326925564010075" lon="13.602316123223314"><ele>1015.4000000000001</ele><time>2026-05-03T08:00:41.999Z</time></trkpt><trkpt lat="42.32689455801686" lon="13.602424341765234"><ele>1014.5999999999999</ele><time>2026-05-03T08:00:42.999Z</time></trkpt><trkpt lat="42.32687798634621" lon="13.602546209468745"><ele>1013.8</ele><time>2026-05-03T08:00:43.999Z</time></trkpt><trkpt lat="42.326860444325966" lon="13.602675572093379"><ele>1013.0</ele><time>2026-05-03T08:00:44.999Z</time></trkpt><trkpt lat="42.326823019402276" lon="13.602786052054807"><ele>1013.6666666666667</ele><time>2026-05-03T08:00:45.999Z</time></trkpt><trkpt lat="42.32677459931561" lon="13.602879515735776"><ele>1014.3333333333334</ele><time>2026-05-03T08:00:46.999Z</time></trkpt><trkpt lat="42.32671557270993" lon="13.602975537305815"><ele>1015.0</ele><time>2026-05-03T08:00:47.999Z</time></trkpt><trkpt lat="42.32666600305323" lon="13.603074915273243"><ele>1015.6666666666667</ele><time>2026-05-03T08:00:48.999Z</time></trkpt><trkpt lat="42.326619785183354" lon="13.60317130063898"><ele>1016.3333333333334</ele><time>2026-05-03T08:00:49.999Z</time></trkpt><trkpt lat="42.32656497615354" lon="13.603252980934563"><ele>1017.0</ele><time>2026-05-03T08:00:50.999Z</time></trkpt><trkpt lat="42.326499698495994" lon="13.603327907817361"><ele>1017.0</ele><time>2026-05-03T08:00:51.999Z</time></trkpt><trkpt lat="42.326430893539154" lon="13.603408365495305"><ele>1017.0</ele><time>2026-05-03T08:00:52.999Z</time></trkpt><trkpt lat="42.32637231832391" lon="13.603483345660008"><ele>1017.0</ele><time>2026-05-03T08:00:53.999Z</time></trkpt><trkpt lat="42.326300721369755" lon="13.603565251192776"><ele>1017.0</ele><time>2026-05-03T08:00:54.999Z</time></trkpt><trkpt lat="42.326227297938" lon="13.603665248589992"><ele>1017.0</ele><time>2026-05-03T08:00:55.999Z</time></trkpt><trkpt lat="42.326172262539124" lon="13.603747423190061"><ele>1016.1666666666666</ele><time>2026-05-03T08:00:56.999Z</time></trkpt><trkpt lat="42.32610653090287" lon="13.603827795522651"><ele>1015.3333333333333</ele><time>2026-05-03T08:00:57.999Z</time></trkpt><trkpt lat="42.32604540115342" lon="13.603913826209306"><ele>1014.5</ele><time>2026-05-03T08:00:58.999Z</time></trkpt><trkpt lat="42.32598669488593" lon="13.603983473923558"><ele>1013.6666666666666</ele><time>2026-05-03T08:00:59.999Z</time></trkpt><trkpt lat="42.32593331070166" lon="13.604062296284507"><ele>1012.8333333333333</ele><time>2026-05-03T08:01:00.999Z</time></trkpt><trkpt lat="42.32588432715681" lon="13.604148970664673"><ele>1012.0</ele><time>2026-05-03T08:01:01.999Z</time></trkpt><trkpt lat="42.325842412781014" lon="13.604245306012718"><ele>1011.9999999999999</ele><time>2026-05-03T08:01:02.999Z</time></trkpt><trkpt lat="42.32580861923843" lon="13.604341895516683"><ele>1012.0</ele><time>2026-05-03T08:01:03.999Z</time></trkpt><trkpt lat="42.325773299934795" lon="13.604422547602056"><ele>1012.0</ele><time>2026-05-03T08:01:04.999Z</time></trkpt><trkpt lat="42.32571839370782" lon="13.604489333196724"><ele>1012.0</ele><time>2026-05-03T08:01:05.999Z</time></trkpt><trkpt lat="42.32565268692367" lon="13.604547959233223"><ele>1011.9999999999999</ele><time>2026-05-03T08:01:06.998Z</time></trkpt><trkpt lat="42.32559211436035" lon="13.60462089138064"><ele>1012.0</ele><time>2026-05-03T08:01:07.998Z</time></trkpt><trkpt lat="42.325530232398286" lon="13.604731937525997"><ele>1011.8333333333333</ele><time>2026-05-03T08:01:08.998Z</time></trkpt><trkpt lat="42.32547615754796" lon="13.60484842564952"><ele>1011.6666666666666</ele><time>2026-05-03T08:01:10Z</time></trkpt><trkpt lat="42.325439305995495" lon="13.6049563444918"><ele>1011.5</ele><time>2026-05-03T08:01:11Z</time></trkpt><trkpt lat="42.3254013766461" lon="13.605050276982782"><ele>1011.3333333333333</ele><time>2026-05-03T08:01:12Z</time></trkpt><trkpt lat="42.3253488942014" lon="13.605126460437795"><ele>1011.1666666666666</ele><time>2026-05-03T08:01:13Z</time></trkpt><trkpt lat="42.32529241035195" lon="13.605193742681033"><ele>1011.0</ele><time>2026-05-03T08:01:14Z</time></trkpt><trkpt lat="42.32524581667862" lon="13.605275238807856"><ele>1009.8</ele><time>2026-05-03T08:01:15Z</time></trkpt><trkpt lat="42.32520212459428" lon="13.605375110788419"><ele>1008.5999999999999</ele><time>2026-05-03T08:01:16Z</time></trkpt><trkpt lat="42.32515938642764" lon="13.605491699399172"><ele>1007.4</ele><time>2026-05-03T08:01:17Z</time></trkpt><trkpt lat="42.32511720376345" lon="13.605623491063668"><ele>1006.2</ele><time>2026-05-03T08:01:18Z</time></trkpt><trkpt lat="42.32508151721542" lon="13.605744009286475"><ele>1005.0</ele><time>2026-05-03T08:01:19Z</time></trkpt><trkpt lat="42.325048182781" lon="13.605844328171061"><ele>1005.0</ele><time>2026-05-03T08:01:20Z</time></trkpt><trkpt lat="42.325015967849005" lon="13.605944912779396"><ele>1005.0</ele><time>2026-05-03T08:01:21Z</time></trkpt><trkpt lat="42.324997078960294" lon="13.606033037040556"><ele>1005.0</ele><time>2026-05-03T08:01:22Z</time></trkpt><trkpt lat="42.324996738677065" lon="13.606127047339772"><ele>1005.0</ele><time>2026-05-03T08:01:23Z</time></trkpt><trkpt lat="42.32500225258917" lon="13.606263292833809"><ele>1005.0</ele><time>2026-05-03T08:01:25Z</time></trkpt><trkpt lat="42.32495060236681" lon="13.606360984690557"><ele>1005.0</ele><time>2026-05-03T08:01:27Z</time></trkpt><trkpt lat="42.32490084725572" lon="13.606415062622546"><ele>1005.0</ele><time>2026-05-03T08:01:28Z</time></trkpt><trkpt lat="42.32483573844209" lon="13.606471770162752"><ele>1005.0</ele><time>2026-05-03T08:01:29Z</time></trkpt><trkpt lat="42.324773657198435" lon="13.606527077506865"><ele>1005.0</ele><time>2026-05-03T08:01:30Z</time></trkpt><trkpt lat="42.32469344391543" lon="13.606627660952535"><ele>1005.0</ele><time>2026-05-03T08:01:32Z</time></trkpt><trkpt lat="42.324609014420865" lon="13.606750826153464"><ele>1005.0</ele><time>2026-05-03T08:01:34Z</time></trkpt><trkpt lat="42.32456091839094" lon="13.606809185843153"><ele>1004.3333333333334</ele><time>2026-05-03T08:01:35Z</time></trkpt><trkpt lat="42.32449546055972" lon="13.60684172433094"><ele>1003.6666666666667</ele><time>2026-05-03T08:01:36Z</time></trkpt><trkpt lat="42.32442247660908" lon="13.606878804783529"><ele>1003.0</ele><time>2026-05-03T08:01:37Z</time></trkpt><trkpt lat="42.324360145935024" lon="13.606929583883057"><ele>1002.3333333333334</ele><time>2026-05-03T08:01:38Z</time></trkpt><trkpt lat="42.32426537967938" lon="13.606995318610863"><ele>1001.6666666666667</ele><time>2026-05-03T08:01:40Z</time></trkpt><trkpt lat="42.32419941986954" lon="13.607081445904187"><ele>1001.0</ele><time>2026-05-03T08:01:42Z</time></trkpt><trkpt lat="42.324156106184624" lon="13.607149635991734"><ele>999.0</ele><time>2026-05-03T08:01:43Z</time></trkpt><trkpt lat="42.32406312644885" lon="13.607268684997974"><ele>996.9999999999999</ele><time>2026-05-03T08:01:45Z</time></trkpt><trkpt lat="42.32401627507986" lon="13.607340834941303"><ele>994.9999999999999</ele><time>2026-05-03T08:01:46Z</time></trkpt><trkpt lat="42.32396628795778" lon="13.607412689689946"><ele>993.0</ele><time>2026-05-03T08:01:47Z</time></trkpt><trkpt lat="42.32391917826083" lon="13.607476407744722"><ele>991.0</ele><time>2026-05-03T08:01:48Z</time></trkpt><trkpt lat="42.323867853048846" lon="13.607610120581787"><ele>990.5999999999999</ele><time>2026-05-03T08:01:50Z</time></trkpt><trkpt lat="42.323858879354475" lon="13.60776148108563"><ele>990.1999999999999</ele><time>2026-05-03T08:01:52Z</time></trkpt><trkpt lat="42.32383268955344" lon="13.607851432823558"><ele>989.8000000000001</ele><time>2026-05-03T08:01:53Z</time></trkpt><trkpt lat="42.32380226198165" lon="13.6079288645994"><ele>989.4000000000001</ele><time>2026-05-03T08:01:54Z</time></trkpt><trkpt lat="42.3237513841773" lon="13.608073200328953"><ele>989.0</ele><time>2026-05-03T08:01:56Z</time></trkpt><trkpt lat="42.323678403221344" lon="13.608229302705457"><ele>989.0000000000001</ele><time>2026-05-03T08:01:58Z</time></trkpt><trkpt lat="42.323633371941824" lon="13.608319424160864"><ele>989.0</ele><time>2026-05-03T08:01:59Z</time></trkpt><trkpt lat="42.32359878954367" lon="13.608401470036988"><ele>989.0</ele><time>2026-05-03T08:02:00Z</time></trkpt><trkpt lat="42.32357050239949" lon="13.608482549985208"><ele>989.0</ele><time>2026-05-03T08:02:01Z</time></trkpt><trkpt lat="42.32352287695383" lon="13.608644556606992"><ele>989.0000000000001</ele><time>2026-05-03T08:02:03Z</time></trkpt><trkpt lat="42.32349266421527" lon="13.608724937441501"><ele>989.0</ele><time>2026-05-03T08:02:03.999Z</time></trkpt><trkpt lat="42.32345065520211" lon="13.608838916726581"><ele>986.8333333333334</ele><time>2026-05-03T08:02:04.999Z</time></trkpt><trkpt lat="42.32340894718378" lon="13.608941403416608"><ele>984.6666666666667</ele><time>2026-05-03T08:02:05.999Z</time></trkpt><trkpt lat="42.323350779770266" lon="13.609033097291178"><ele>982.5</ele><time>2026-05-03T08:02:06.999Z</time></trkpt><trkpt lat="42.32328550503056" lon="13.609104799675189"><ele>980.3333333333333</ele><time>2026-05-03T08:02:07.999Z</time></trkpt><trkpt lat="42.32324035964501" lon="13.609193998938599"><ele>978.1666666666666</ele><time>2026-05-03T08:02:08.999Z</time></trkpt><trkpt lat="42.32319792434195" lon="13.609295656511616"><ele>976.0</ele><time>2026-05-03T08:02:09.999Z</time></trkpt><trkpt lat="42.32315279678256" lon="13.60940937114071"><ele>975.9999999999999</ele><time>2026-05-03T08:02:10.999Z</time></trkpt><trkpt lat="42.32310939615963" lon="13.609520692927015"><ele>976.0</ele><time>2026-05-03T08:02:11.999Z</time></trkpt><trkpt lat="42.32306415741042" lon="13.609610939817742"><ele>976.0</ele><time>2026-05-03T08:02:12.999Z</time></trkpt><trkpt lat="42.3230147263374" lon="13.609695350278614"><ele>976.0</ele><time>2026-05-03T08:02:13.999Z</time></trkpt><trkpt lat="42.32297856197655" lon="13.609767181079492"><ele>975.9999999999999</ele><time>2026-05-03T08:02:14.999Z</time></trkpt><trkpt lat="42.3229393237349" lon="13.609847076537239"><ele>976.0</ele><time>2026-05-03T08:02:15.999Z</time></trkpt><trkpt lat="42.32289405868995" lon="13.609926530146554"><ele>975.9999999999999</ele><time>2026-05-03T08:02:16.999Z</time></trkpt><trkpt lat="42.322838809756604" lon="13.610022554024436"><ele>976.0</ele><time>2026-05-03T08:02:17.999Z</time></trkpt><trkpt lat="42.322784603949" lon="13.610119527118849"><ele>976.0</ele><time>2026-05-03T08:02:18.999Z</time></trkpt><trkpt lat="42.322733605823984" lon="13.610197381287378"><ele>976.0</ele><time>2026-05-03T08:02:19.999Z</time></trkpt><trkpt lat="42.3226838823934" lon="13.610278999492778"><ele>975.9999999999999</ele><time>2026-05-03T08:02:20.999Z</time></trkpt><trkpt lat="42.32264364724369" lon="13.610372916223008"><ele>976.0</ele><time>2026-05-03T08:02:21.999Z</time></trkpt><trkpt lat="42.32260426827432" lon="13.610489413516218"><ele>974.1666666666666</ele><time>2026-05-03T08:02:22.999Z</time></trkpt><trkpt lat="42.322568929219514" lon="13.610600109505903"><ele>972.3333333333333</ele><time>2026-05-03T08:02:23.999Z</time></trkpt><trkpt lat="42.322529321732254" lon="13.610679829719524"><ele>970.5</ele><time>2026-05-03T08:02:24.999Z</time></trkpt><trkpt lat="42.322462293777704" lon="13.6107624236695"><ele>968.6666666666667</ele><time>2026-05-03T08:02:25.999Z</time></trkpt><trkpt lat="42.322394280371014" lon="13.610855840380989"><ele>966.8333333333334</ele><time>2026-05-03T08:02:26.999Z</time></trkpt><trkpt lat="42.322318820459756" lon="13.610940686445751"><ele>965.0</ele><time>2026-05-03T08:02:27.999Z</time></trkpt><trkpt lat="42.322252307569215" lon="13.611020963982547"><ele>965.5000000000001</ele><time>2026-05-03T08:02:28.999Z</time></trkpt><trkpt lat="42.32219194706607" lon="13.611100666939295"><ele>966.0</ele><time>2026-05-03T08:02:29.999Z</time></trkpt><trkpt lat="42.32213665880427" lon="13.611189492406492"><ele>966.5</ele><time>2026-05-03T08:02:30.999Z</time></trkpt><trkpt lat="42.32209056745984" lon="13.611272488997608"><ele>967.0</ele><time>2026-05-03T08:02:31.999Z</time></trkpt><trkpt lat="42.322030230915246" lon="13.611327711321064"><ele>967.5000000000001</ele><time>2026-05-03T08:02:32.999Z</time></trkpt><trkpt lat="42.32192087330649" lon="13.611365503727418"><ele>968.0</ele><time>2026-05-03T08:02:34.999Z</time></trkpt><trkpt lat="42.32183944965072" lon="13.611501304887188"><ele>966.0000000000001</ele><time>2026-05-03T08:02:36.999Z</time></trkpt><trkpt lat="42.32179130470502" lon="13.611592943557742"><ele>964.0</ele><time>2026-05-03T08:02:37.999Z</time></trkpt><trkpt lat="42.32173460631776" lon="13.611671987005822"><ele>962.0</ele><time>2026-05-03T08:02:38.999Z</time></trkpt><trkpt lat="42.32168765317092" lon="13.611740079007749"><ele>960.0</ele><time>2026-05-03T08:02:39.999Z</time></trkpt><trkpt lat="42.32164707010639" lon="13.611813714096119"><ele>958.0000000000001</ele><time>2026-05-03T08:02:40.999Z</time></trkpt><trkpt lat="42.32161750625401" lon="13.611902026953702"><ele>956.0</ele><time>2026-05-03T08:02:41.999Z</time></trkpt><trkpt lat="42.32159957292712" lon="13.612014317804874"><ele>955.1666666666667</ele><time>2026-05-03T08:02:42.999Z</time></trkpt><trkpt lat="42.32157884730303" lon="13.612139449326676"><ele>954.3333333333334</ele><time>2026-05-03T08:02:43.999Z</time></trkpt><trkpt lat="42.32155173334323" lon="13.612240136773845"><ele>953.5</ele><time>2026-05-03T08:02:44.999Z</time></trkpt><trkpt lat="42.32152041434066" lon="13.612339718270455"><ele>952.6666666666667</ele><time>2026-05-03T08:02:45.999Z</time></trkpt><trkpt lat="42.321475281228864" lon="13.612425029501496"><ele>951.8333333333334</ele><time>2026-05-03T08:02:46.999Z</time></trkpt><trkpt lat="42.321418048029535" lon="13.612505175894844"><ele>951.0</ele><time>2026-05-03T08:02:47.999Z</time></trkpt><trkpt lat="42.32135910010512" lon="13.612591768021586"><ele>950.0</ele><time>2026-05-03T08:02:48.999Z</time></trkpt><trkpt lat="42.32128925778722" lon="13.612699380062555"><ele>948.9999999999999</ele><time>2026-05-03T08:02:49.999Z</time></trkpt><trkpt lat="42.32123540435515" lon="13.612806839624898"><ele>947.9999999999999</ele><time>2026-05-03T08:02:50.999Z</time></trkpt><trkpt lat="42.32119196689221" lon="13.612898136850088"><ele>947.0</ele><time>2026-05-03T08:02:51.999Z</time></trkpt><trkpt lat="42.32114212895949" lon="13.612989504235388"><ele>946.0</ele><time>2026-05-03T08:02:52.999Z</time></trkpt><trkpt lat="42.32108655133086" lon="13.61307615769452"><ele>945.9999999999999</ele><time>2026-05-03T08:02:53.999Z</time></trkpt><trkpt lat="42.321035204430814" lon="13.613138784538256"><ele>946.0</ele><time>2026-05-03T08:02:54.999Z</time></trkpt><trkpt lat="42.32098727310986" lon="13.613204782433682"><ele>946.0</ele><time>2026-05-03T08:02:55.999Z</time></trkpt><trkpt lat="42.32093688598539" lon="13.61327998829188"><ele>946.0</ele><time>2026-05-03T08:02:56.999Z</time></trkpt><trkpt lat="42.32087537791838" lon="13.613352333667576"><ele>945.9999999999999</ele><time>2026-05-03T08:02:57.999Z</time></trkpt><trkpt lat="42.32080382378972" lon="13.613417817540538"><ele>946.0</ele><time>2026-05-03T08:02:58.999Z</time></trkpt><trkpt lat="42.320703956491215" lon="13.61340353560778"><ele>945.9999999999999</ele><time>2026-05-03T08:03:00.999Z</time></trkpt><trkpt lat="42.32065091743782" lon="13.61334281963017"><ele>946.0</ele><time>2026-05-03T08:03:01.999Z</time></trkpt><trkpt lat="42.32060124463045" lon="13.613257086632013"><ele>946.0</ele><time>2026-05-03T08:03:02.999Z</time></trkpt><trkpt lat="42.320567235742026" lon="13.613176716705185"><ele>946.0</ele><time>2026-05-03T08:03:03.999Z</time></trkpt><trkpt lat="42.320487298883975" lon="13.613131899824198"><ele>945.9999999999999</ele><time>2026-05-03T08:03:05.999Z</time></trkpt><trkpt lat="42.3204370969462" lon="13.613238747506362"><ele>946.0</ele><time>2026-05-03T08:03:07.999Z</time></trkpt><trkpt lat="42.32043232365203" lon="13.613330835447458"><ele>946.4999999999999</ele><time>2026-05-03T08:03:08.999Z</time></trkpt><trkpt lat="42.320410012997094" lon="13.613427300403833"><ele>947.0</ele><time>2026-05-03T08:03:09.999Z</time></trkpt><trkpt lat="42.32035942389217" lon="13.613500529117594"><ele>947.5</ele><time>2026-05-03T08:03:10.999Z</time></trkpt><trkpt lat="42.3202928079867" lon="13.613578985401984"><ele>948.0</ele><time>2026-05-03T08:03:11.998Z</time></trkpt><trkpt lat="42.320247359422574" lon="13.613669546984516"><ele>948.4999999999999</ele><time>2026-05-03T08:03:12.998Z</time></trkpt><trkpt lat="42.32020605953477" lon="13.613793533010787"><ele>949.0</ele><time>2026-05-03T08:03:13.998Z</time></trkpt><trkpt lat="42.320187326718354" lon="13.613877627101248"><ele>949.0</ele><time>2026-05-03T08:03:15Z</time></trkpt><trkpt lat="42.32017595510019" lon="13.61404636002721"><ele>949.0000000000001</ele><time>2026-05-03T08:03:17Z</time></trkpt><trkpt lat="42.32015460023286" lon="13.614165096659924"><ele>949.0000000000001</ele><time>2026-05-03T08:03:18Z</time></trkpt><trkpt lat="42.32011043192297" lon="13.614288172603407"><ele>949.0</ele><time>2026-05-03T08:03:19Z</time></trkpt><trkpt lat="42.32006003297538" lon="13.61435667417481"><ele>949.0</ele><time>2026-05-03T08:03:20Z</time></trkpt><trkpt lat="42.320007238559164" lon="13.614410613185365"><ele>948.9999999999999</ele><time>2026-05-03T08:03:21Z</time></trkpt><trkpt lat="42.31995155546703" lon="13.6144695834298"><ele>949.0</ele><time>2026-05-03T08:03:22Z</time></trkpt><trkpt lat="42.31987817133585" lon="13.614606190896964"><ele>949.0</ele><time>2026-05-03T08:03:24Z</time></trkpt><trkpt lat="42.319837648373145" lon="13.61468674688943"><ele>949.0</ele><time>2026-05-03T08:03:25Z</time></trkpt><trkpt lat="42.31978409311517" lon="13.61477618561234"><ele>948.9999999999999</ele><time>2026-05-03T08:03:26Z</time></trkpt><trkpt lat="42.31974138459645" lon="13.614868718134804"><ele>949.0</ele><time>2026-05-03T08:03:27Z</time></trkpt><trkpt lat="42.319703366023546" lon="13.61495034531383"><ele>949.857142857143</ele><time>2026-05-03T08:03:28Z</time></trkpt><trkpt lat="42.31966009377461" lon="13.615029679147318"><ele>950.7142857142858</ele><time>2026-05-03T08:03:29Z</time></trkpt><trkpt lat="42.31961568508703" lon="13.615115372650363"><ele>951.5714285714286</ele><time>2026-05-03T08:03:30Z</time></trkpt><trkpt lat="42.31957907257191" lon="13.615199892831393"><ele>952.4285714285714</ele><time>2026-05-03T08:03:31Z</time></trkpt><trkpt lat="42.31954482421066" lon="13.615286234021925"><ele>953.2857142857142</ele><time>2026-05-03T08:03:32Z</time></trkpt><trkpt lat="42.31951193447675" lon="13.615363008192288"><ele>954.142857142857</ele><time>2026-05-03T08:03:33Z</time></trkpt><trkpt lat="42.31946439080926" lon="13.615433855284259"><ele>954.9999999999999</ele><time>2026-05-03T08:03:34Z</time></trkpt><trkpt lat="42.31940165364025" lon="13.615509162472312"><ele>954.9999999999999</ele><time>2026-05-03T08:03:35Z</time></trkpt><trkpt lat="42.31933136225288" lon="13.615579408631607"><ele>955.0</ele><time>2026-05-03T08:03:36Z</time></trkpt><trkpt lat="42.31927548558329" lon="13.615650645108488"><ele>955.0</ele><time>2026-05-03T08:03:37Z</time></trkpt><trkpt lat="42.31924031537951" lon="13.615721513463628"><ele>955.0</ele><time>2026-05-03T08:03:38Z</time></trkpt><trkpt lat="42.31917925555997" lon="13.615832788923694"><ele>954.9999999999999</ele><time>2026-05-03T08:03:40Z</time></trkpt><trkpt lat="42.31917262059803" lon="13.615951282371194"><ele>955.0</ele><time>2026-05-03T08:03:42Z</time></trkpt><trkpt lat="42.319170562771205" lon="13.616061466518511"><ele>954.8333333333333</ele><time>2026-05-03T08:03:44Z</time></trkpt><trkpt lat="42.31909771469765" lon="13.616161807443088"><ele>954.6666666666666</ele><time>2026-05-03T08:03:46Z</time></trkpt><trkpt lat="42.31905632989726" lon="13.616236394666174"><ele>954.5</ele><time>2026-05-03T08:03:47Z</time></trkpt><trkpt lat="42.319025715099116" lon="13.61632484278213"><ele>954.3333333333333</ele><time>2026-05-03T08:03:48Z</time></trkpt><trkpt lat="42.31898270940478" lon="13.616443079456191"><ele>954.1666666666666</ele><time>2026-05-03T08:03:50Z</time></trkpt><trkpt lat="42.31890882296196" lon="13.616530102002933"><ele>954.0</ele><time>2026-05-03T08:03:52Z</time></trkpt><trkpt lat="42.318870771662795" lon="13.616598053103818"><ele>954.8333333333334</ele><time>2026-05-03T08:03:53Z</time></trkpt><trkpt lat="42.31881704669032" lon="13.616664102586194"><ele>955.6666666666667</ele><time>2026-05-03T08:03:54Z</time></trkpt><trkpt lat="42.318758906704126" lon="13.616725609436946"><ele>956.5</ele><time>2026-05-03T08:03:55Z</time></trkpt><trkpt lat="42.31870514738563" lon="13.616772149121136"><ele>957.3333333333334</ele><time>2026-05-03T08:03:56Z</time></trkpt><trkpt lat="42.31864072407381" lon="13.616805535674702"><ele>958.1666666666667</ele><time>2026-05-03T08:03:57Z</time></trkpt><trkpt lat="42.31858049690664" lon="13.616896701090498"><ele>959.0</ele><time>2026-05-03T08:03:59Z</time></trkpt><trkpt lat="42.31852797863719" lon="13.617021822144848"><ele>959.0</ele><time>2026-05-03T08:04:01Z</time></trkpt><trkpt lat="42.31847160352524" lon="13.617082765621195"><ele>959.0</ele><time>2026-05-03T08:04:02Z</time></trkpt><trkpt lat="42.31840788780653" lon="13.617142062042875"><ele>959.0</ele><time>2026-05-03T08:04:03Z</time></trkpt><trkpt lat="42.31834983931787" lon="13.617191581224391"><ele>959.0</ele><time>2026-05-03T08:04:04Z</time></trkpt><trkpt lat="42.318287231527016" lon="13.617223747724552"><ele>959.0</ele><time>2026-05-03T08:04:05Z</time></trkpt><trkpt lat="42.3182181173637" lon="13.617280254167328"><ele>959.0</ele><time>2026-05-03T08:04:06Z</time></trkpt><trkpt lat="42.318158668845676" lon="13.617352041435245"><ele>959.0</ele><time>2026-05-03T08:04:07Z</time></trkpt><trkpt lat="42.31810337195548" lon="13.6174167422973"><ele>961.0000000000001</ele><time>2026-05-03T08:04:08Z</time></trkpt><trkpt lat="42.31803092262233" lon="13.617470814342061"><ele>963.0</ele><time>2026-05-03T08:04:09Z</time></trkpt><trkpt lat="42.31795065725782" lon="13.617520554374725"><ele>965.0</ele><time>2026-05-03T08:04:10Z</time></trkpt><trkpt lat="42.31786914962343" lon="13.617586761975438"><ele>967.0</ele><time>2026-05-03T08:04:11Z</time></trkpt><trkpt lat="42.31780417688629" lon="13.617653638759782"><ele>969.0000000000001</ele><time>2026-05-03T08:04:12Z</time></trkpt><trkpt lat="42.31774837253765" lon="13.617712373958486"><ele>971.0</ele><time>2026-05-03T08:04:13Z</time></trkpt><trkpt lat="42.317690400283446" lon="13.617764312720896"><ele>969.5000000000001</ele><time>2026-05-03T08:04:14Z</time></trkpt><trkpt lat="42.31761697302485" lon="13.617829643669639"><ele>968.0</ele><time>2026-05-03T08:04:14.999Z</time></trkpt><trkpt lat="42.317545594996375" lon="13.61789960733478"><ele>966.5</ele><time>2026-05-03T08:04:15.999Z</time></trkpt><trkpt lat="42.31749362553525" lon="13.617973679389463"><ele>965.0</ele><time>2026-05-03T08:04:16.999Z</time></trkpt><trkpt lat="42.31743874382931" lon="13.618032077591968"><ele>963.5000000000001</ele><time>2026-05-03T08:04:17.999Z</time></trkpt><trkpt lat="42.317371464080885" lon="13.618089860436989"><ele>962.0</ele><time>2026-05-03T08:04:18.999Z</time></trkpt><trkpt lat="42.317296005942914" lon="13.618155384682657"><ele>964.6666666666667</ele><time>2026-05-03T08:04:19.999Z</time></trkpt><trkpt lat="42.31722344839346" lon="13.618226840402988"><ele>967.3333333333334</ele><time>2026-05-03T08:04:20.999Z</time></trkpt><trkpt lat="42.31716685419702" lon="13.618287991765431"><ele>970.0</ele><time>2026-05-03T08:04:21.999Z</time></trkpt><trkpt lat="42.31711537882397" lon="13.618339239101886"><ele>972.6666666666667</ele><time>2026-05-03T08:04:22.999Z</time></trkpt><trkpt lat="42.31705178411109" lon="13.618408347122124"><ele>975.3333333333334</ele><time>2026-05-03T08:04:23.999Z</time></trkpt><trkpt lat="42.31698567702404" lon="13.618479128503127"><ele>978.0</ele><time>2026-05-03T08:04:24.999Z</time></trkpt><trkpt lat="42.3169271843527" lon="13.618552574193613"><ele>978.0</ele><time>2026-05-03T08:04:25.999Z</time></trkpt><trkpt lat="42.31687075463861" lon="13.618618114279048"><ele>978.0000000000001</ele><time>2026-05-03T08:04:26.999Z</time></trkpt><trkpt lat="42.31681047994567" lon="13.618671329026864"><ele>978.0</ele><time>2026-05-03T08:04:27.999Z</time></trkpt><trkpt lat="42.3167492185806" lon="13.618707393630364"><ele>978.0</ele><time>2026-05-03T08:04:28.999Z</time></trkpt><trkpt lat="42.316686396429006" lon="13.618748221585788"><ele>978.0000000000001</ele><time>2026-05-03T08:04:29.999Z</time></trkpt><trkpt lat="42.31662949020489" lon="13.618805104390207"><ele>978.0</ele><time>2026-05-03T08:04:30.999Z</time></trkpt><trkpt lat="42.31655504984799" lon="13.618872509398612"><ele>978.0</ele><time>2026-05-03T08:04:32.999Z</time></trkpt><trkpt lat="42.316487163518005" lon="13.618943105207657"><ele>979.0</ele><time>2026-05-03T08:04:36.999Z</time></trkpt><trkpt lat="42.31640119395533" lon="13.619029628002714"><ele>980.0</ele><time>2026-05-03T08:04:38.999Z</time></trkpt><trkpt lat="42.316306642869826" lon="13.619122364166456"><ele>981.0</ele><time>2026-05-03T08:04:40.999Z</time></trkpt><trkpt lat="42.31626251088155" lon="13.619251409977075"><ele>982.0</ele><time>2026-05-03T08:04:42.999Z</time></trkpt><trkpt lat="42.316234339625524" lon="13.619414906510821"><ele>981.4000000000001</ele><time>2026-05-03T08:04:44.999Z</time></trkpt><trkpt lat="42.31620814501958" lon="13.619577234741596"><ele>980.8000000000001</ele><time>2026-05-03T08:04:46.999Z</time></trkpt><trkpt lat="42.31620198398432" lon="13.619674038990192"><ele>980.2</ele><time>2026-05-03T08:04:47.999Z</time></trkpt><trkpt lat="42.3161960825098" lon="13.619766207223293"><ele>979.6</ele><time>2026-05-03T08:04:48.999Z</time></trkpt><trkpt lat="42.31611563439447" lon="13.6198482371545"><ele>979.0</ele><time>2026-05-03T08:04:50.999Z</time></trkpt><trkpt lat="42.31600378520711" lon="13.619887549107842"><ele>978.9999999999999</ele><time>2026-05-03T08:04:52.999Z</time></trkpt><trkpt lat="42.31594120713923" lon="13.6199857072794"><ele>979.0</ele><time>2026-05-03T08:04:54.999Z</time></trkpt><trkpt lat="42.315858841592444" lon="13.62008893536393"><ele>979.0</ele><time>2026-05-03T08:04:56.999Z</time></trkpt><trkpt lat="42.31580317231643" lon="13.620163526218468"><ele>979.0</ele><time>2026-05-03T08:04:57.999Z</time></trkpt><trkpt lat="42.315749950106984" lon="13.620242045488633"><ele>978.9999999999999</ele><time>2026-05-03T08:04:58.999Z</time></trkpt><trkpt lat="42.31570645874962" lon="13.620334210689855"><ele>979.0</ele><time>2026-05-03T08:04:59.999Z</time></trkpt><trkpt lat="42.31567035838958" lon="13.620407582571707"><ele>979.2</ele><time>2026-05-03T08:05:00.999Z</time></trkpt><trkpt lat="42.31558470394581" lon="13.620481217850289"><ele>979.4000000000001</ele><time>2026-05-03T08:05:02.999Z</time></trkpt><trkpt lat="42.31548486947773" lon="13.620458887342675"><ele>979.6</ele><time>2026-05-03T08:05:04.999Z</time></trkpt><trkpt lat="42.3154025770047" lon="13.620503198348036"><ele>979.8</ele><time>2026-05-03T08:05:06.999Z</time></trkpt><trkpt lat="42.31530467173135" lon="13.620588962701028"><ele>980.0</ele><time>2026-05-03T08:05:08.999Z</time></trkpt><trkpt lat="42.315241099021975" lon="13.62063053160242"><ele>980.0000000000001</ele><time>2026-05-03T08:05:09.999Z</time></trkpt><trkpt lat="42.31515370009576" lon="13.62068145681155"><ele>980.0</ele><time>2026-05-03T08:05:10.999Z</time></trkpt><trkpt lat="42.31506909223964" lon="13.62073707438987"><ele>980.0</ele><time>2026-05-03T08:05:11.999Z</time></trkpt><trkpt lat="42.31499015251783" lon="13.620801027454515"><ele>980.0</ele><time>2026-05-03T08:05:12.999Z</time></trkpt><trkpt lat="42.31492833582554" lon="13.62087034057337"><ele>980.0000000000001</ele><time>2026-05-03T08:05:13.999Z</time></trkpt><trkpt lat="42.314878376710226" lon="13.620936779238265"><ele>980.0</ele><time>2026-05-03T08:05:14.999Z</time></trkpt><trkpt lat="42.31480375242792" lon="13.621052496301939"><ele>980.1666666666667</ele><time>2026-05-03T08:05:16.999Z</time></trkpt><trkpt lat="42.31472196270668" lon="13.621140376498653"><ele>980.3333333333334</ele><time>2026-05-03T08:05:18.999Z</time></trkpt><trkpt lat="42.31463581124728" lon="13.62119919020208"><ele>980.5</ele><time>2026-05-03T08:05:19.999Z</time></trkpt><trkpt lat="42.31454804313195" lon="13.621255823328468"><ele>980.6666666666667</ele><time>2026-05-03T08:05:21Z</time></trkpt><trkpt lat="42.314488050409075" lon="13.62130389370634"><ele>980.8333333333334</ele><time>2026-05-03T08:05:22Z</time></trkpt><trkpt lat="42.31443014566638" lon="13.621355961765655"><ele>981.0</ele><time>2026-05-03T08:05:23Z</time></trkpt><trkpt lat="42.314367987856926" lon="13.621413685398478"><ele>981.0</ele><time>2026-05-03T08:05:24Z</time></trkpt><trkpt lat="42.314308950646144" lon="13.621458489575838"><ele>981.0</ele><time>2026-05-03T08:05:25Z</time></trkpt><trkpt lat="42.31424799703632" lon="13.621513578344661"><ele>981.0</ele><time>2026-05-03T08:05:26Z</time></trkpt><trkpt lat="42.314186688396916" lon="13.621568425049396"><ele>981.0</ele><time>2026-05-03T08:05:27Z</time></trkpt><trkpt lat="42.314133299065844" lon="13.62161363540104"><ele>981.0</ele><time>2026-05-03T08:05:28Z</time></trkpt><trkpt lat="42.314074012186445" lon="13.621656234622936"><ele>981.0</ele><time>2026-05-03T08:05:29Z</time></trkpt><trkpt lat="42.31401842667398" lon="13.621705720624469"><ele>981.0</ele><time>2026-05-03T08:05:30Z</time></trkpt><trkpt lat="42.31395097669532" lon="13.621788777779264"><ele>983.0</ele><time>2026-05-03T08:05:32Z</time></trkpt><trkpt lat="42.31388090261149" lon="13.62174076852896"><ele>985.0</ele><time>2026-05-03T08:05:40Z</time></trkpt><trkpt lat="42.31380035887762" lon="13.621689609833817"><ele>987.0</ele><time>2026-05-03T08:05:42Z</time></trkpt><trkpt lat="42.313719746252" lon="13.621711459224759"><ele>989.0</ele><time>2026-05-03T08:05:44Z</time></trkpt><trkpt lat="42.313648212187196" lon="13.621741134396727"><ele>991.0</ele><time>2026-05-03T08:05:46Z</time></trkpt><trkpt lat="42.313581483572875" lon="13.621813400514514"><ele>993.0</ele><time>2026-05-03T08:05:48Z</time></trkpt><trkpt lat="42.31349956482815" lon="13.621879576262467"><ele>993.0</ele><time>2026-05-03T08:05:50Z</time></trkpt><trkpt lat="42.31340188436309" lon="13.621963660814297"><ele>993.0</ele><time>2026-05-03T08:05:52Z</time></trkpt><trkpt lat="42.31332697183618" lon="13.62206127424816"><ele>993.0</ele><time>2026-05-03T08:05:54Z</time></trkpt><trkpt lat="42.31326239881689" lon="13.622159111946257"><ele>993.0</ele><time>2026-05-03T08:05:56Z</time></trkpt><trkpt lat="42.31318339877911" lon="13.622300077707578"><ele>993.0</ele><time>2026-05-03T08:05:58Z</time></trkpt><trkpt lat="42.31313604894945" lon="13.622379944865303"><ele>992.7142857142857</ele><time>2026-05-03T08:05:59Z</time></trkpt><trkpt lat="42.31308898153125" lon="13.622440277687376"><ele>992.4285714285716</ele><time>2026-05-03T08:06:00Z</time></trkpt><trkpt lat="42.31303698584176" lon="13.622498764107883"><ele>992.1428571428572</ele><time>2026-05-03T08:06:01Z</time></trkpt><trkpt lat="42.31297916661177" lon="13.62256179662928"><ele>991.8571428571429</ele><time>2026-05-03T08:06:02Z</time></trkpt><trkpt lat="42.31292329519881" lon="13.622631868697615"><ele>991.5714285714287</ele><time>2026-05-03T08:06:03Z</time></trkpt><trkpt lat="42.31287234761504" lon="13.622710761546358"><ele>991.2857142857144</ele><time>2026-05-03T08:06:04Z</time></trkpt><trkpt lat="42.31281958754834" lon="13.62277848502531"><ele>991.0000000000001</ele><time>2026-05-03T08:06:05Z</time></trkpt><trkpt lat="42.31274827362661" lon="13.622911908031266"><ele>991.0</ele><time>2026-05-03T08:06:07Z</time></trkpt><trkpt lat="42.312672282763984" lon="13.623035416118212"><ele>990.9999999999999</ele><time>2026-05-03T08:06:09Z</time></trkpt><trkpt lat="42.31264772058299" lon="13.623120447790104"><ele>990.9999999999999</ele><time>2026-05-03T08:06:10Z</time></trkpt><trkpt lat="42.312589555302964" lon="13.623254840585037"><ele>991.0</ele><time>2026-05-03T08:06:12Z</time></trkpt><trkpt lat="42.31253310719976" lon="13.623297620448053"><ele>991.0</ele><time>2026-05-03T08:06:13Z</time></trkpt><trkpt lat="42.312439908180885" lon="13.623395892712596"><ele>990.9999999999999</ele><time>2026-05-03T08:06:15Z</time></trkpt><trkpt lat="42.312382488344035" lon="13.623524633093893"><ele>991.0</ele><time>2026-05-03T08:06:17Z</time></trkpt><trkpt lat="42.312351205792375" lon="13.623608129830208"><ele>991.0</ele><time>2026-05-03T08:06:18Z</time></trkpt><trkpt lat="42.31227581442073" lon="13.62372145582766"><ele>991.0</ele><time>2026-05-03T08:06:20Z</time></trkpt><trkpt lat="42.31222781172989" lon="13.623791999836332"><ele>990.9999999999999</ele><time>2026-05-03T08:06:21Z</time></trkpt><trkpt lat="42.31218632202935" lon="13.623861379719783"><ele>991.0</ele><time>2026-05-03T08:06:22Z</time></trkpt><trkpt lat="42.31213404144847" lon="13.623995026089231"><ele>991.4999999999999</ele><time>2026-05-03T08:06:24Z</time></trkpt><trkpt lat="42.31206477205141" lon="13.624132933756533"><ele>992.0</ele><time>2026-05-03T08:06:26Z</time></trkpt><trkpt lat="42.312025962783025" lon="13.624213788312748"><ele>992.5</ele><time>2026-05-03T08:06:27Z</time></trkpt><trkpt lat="42.31198693735262" lon="13.62429997213579"><ele>993.0</ele><time>2026-05-03T08:06:28Z</time></trkpt><trkpt lat="42.311947171894815" lon="13.624389015979492"><ele>993.4999999999999</ele><time>2026-05-03T08:06:29Z</time></trkpt><trkpt lat="42.31191308073803" lon="13.624466598320526"><ele>994.0</ele><time>2026-05-03T08:06:30Z</time></trkpt><trkpt lat="42.31184638484157" lon="13.624609256124616"><ele>994.0</ele><time>2026-05-03T08:06:32Z</time></trkpt><trkpt lat="42.31180910817285" lon="13.624691018699716"><ele>994.0000000000001</ele><time>2026-05-03T08:06:33Z</time></trkpt><trkpt lat="42.31173392217558" lon="13.624818697605315"><ele>994.0000000000001</ele><time>2026-05-03T08:06:34.999Z</time></trkpt><trkpt lat="42.31163075581902" lon="13.624927818383036"><ele>994.0</ele><time>2026-05-03T08:06:36.999Z</time></trkpt><trkpt lat="42.311567287124625" lon="13.624989957682383"><ele>994.0</ele><time>2026-05-03T08:06:37.999Z</time></trkpt><trkpt lat="42.31151474294918" lon="13.625059852301716"><ele>993.9999999999999</ele><time>2026-05-03T08:06:38.999Z</time></trkpt><trkpt lat="42.3114646733775" lon="13.625145127850862"><ele>994.0</ele><time>2026-05-03T08:06:39.999Z</time></trkpt><trkpt lat="42.31141344580952" lon="13.625228719101653"><ele>994.0</ele><time>2026-05-03T08:06:40.999Z</time></trkpt><trkpt lat="42.311366587168806" lon="13.625314955792694"><ele>994.0</ele><time>2026-05-03T08:06:41.999Z</time></trkpt><trkpt lat="42.31131367241498" lon="13.625413080260357"><ele>993.9999999999999</ele><time>2026-05-03T08:06:42.999Z</time></trkpt><trkpt lat="42.31127226917227" lon="13.625505754478876"><ele>994.0</ele><time>2026-05-03T08:06:43.999Z</time></trkpt><trkpt lat="42.311236728014116" lon="13.62560376203204"><ele>995.3333333333333</ele><time>2026-05-03T08:06:44.999Z</time></trkpt><trkpt lat="42.3111884198499" lon="13.625692258964978"><ele>996.6666666666666</ele><time>2026-05-03T08:06:45.999Z</time></trkpt><trkpt lat="42.311140487071114" lon="13.625783446046862"><ele>998.0</ele><time>2026-05-03T08:06:46.999Z</time></trkpt><trkpt lat="42.31108933004536" lon="13.6258857846404"><ele>999.3333333333333</ele><time>2026-05-03T08:06:47.999Z</time></trkpt><trkpt lat="42.311040494094634" lon="13.625988891715734"><ele>1000.6666666666666</ele><time>2026-05-03T08:06:48.999Z</time></trkpt><trkpt lat="42.31099319427103" lon="13.626082302653682"><ele>1002.0</ele><time>2026-05-03T08:06:49.999Z</time></trkpt><trkpt lat="42.31096245778825" lon="13.626180188634335"><ele>1002.0</ele><time>2026-05-03T08:06:50.999Z</time></trkpt><trkpt lat="42.310912816489" lon="13.626289249679889"><ele>1002.0</ele><time>2026-05-03T08:06:51.999Z</time></trkpt><trkpt lat="42.310863581201765" lon="13.6263929716449"><ele>1002.0</ele><time>2026-05-03T08:06:52.999Z</time></trkpt><trkpt lat="42.3108219881741" lon="13.626488535337822"><ele>1002.0</ele><time>2026-05-03T08:06:53.999Z</time></trkpt><trkpt lat="42.310790246366274" lon="13.626562227394166"><ele>1002.0</ele><time>2026-05-03T08:06:54.999Z</time></trkpt><trkpt lat="42.3107509429112" lon="13.626639388254183"><ele>1002.0</ele><time>2026-05-03T08:06:55.999Z</time></trkpt><trkpt lat="42.310701617297354" lon="13.626732376153129"><ele>1002.0</ele><time>2026-05-03T08:06:56.999Z</time></trkpt><trkpt lat="42.310650981609875" lon="13.62682143987083"><ele>1002.0</ele><time>2026-05-03T08:06:57.999Z</time></trkpt><trkpt lat="42.31059742579222" lon="13.626905359564635"><ele>1002.0</ele><time>2026-05-03T08:06:58.999Z</time></trkpt><trkpt lat="42.310533805018956" lon="13.626986360214145"><ele>1002.0</ele><time>2026-05-03T08:06:59.999Z</time></trkpt><trkpt lat="42.31049536589873" lon="13.62706107097736"><ele>1002.0</ele><time>2026-05-03T08:07:00.999Z</time></trkpt><trkpt lat="42.31045975863543" lon="13.627145472226932"><ele>1002.0</ele><time>2026-05-03T08:07:01.999Z</time></trkpt><trkpt lat="42.310410749631686" lon="13.627242781581833"><ele>1003.0</ele><time>2026-05-03T08:07:02.999Z</time></trkpt><trkpt lat="42.3103748464261" lon="13.627333550447585"><ele>1004.0</ele><time>2026-05-03T08:07:03.999Z</time></trkpt><trkpt lat="42.31033105992513" lon="13.627472303730563"><ele>1005.0</ele><time>2026-05-03T08:07:05.999Z</time></trkpt><trkpt lat="42.31025309664866" lon="13.627602835436898"><ele>1006.0</ele><time>2026-05-03T08:07:07.999Z</time></trkpt><trkpt lat="42.31015893993793" lon="13.627699435589957"><ele>1007.0</ele><time>2026-05-03T08:07:09.999Z</time></trkpt><trkpt lat="42.310076320058" lon="13.627796153597682"><ele>1005.4000000000001</ele><time>2026-05-03T08:07:11.999Z</time></trkpt><trkpt lat="42.31003625772326" lon="13.627883333274877"><ele>1003.8000000000001</ele><time>2026-05-03T08:07:12.999Z</time></trkpt><trkpt lat="42.30999624330164" lon="13.627993494114936"><ele>1002.2</ele><time>2026-05-03T08:07:13.999Z</time></trkpt><trkpt lat="42.30995043398704" lon="13.628099764432513"><ele>1000.6</ele><time>2026-05-03T08:07:14.999Z</time></trkpt><trkpt lat="42.30991706166947" lon="13.628188002324755"><ele>999.0</ele><time>2026-05-03T08:07:15.999Z</time></trkpt><trkpt lat="42.30984645624434" lon="13.628332437358674"><ele>999.0</ele><time>2026-05-03T08:07:17.999Z</time></trkpt><trkpt lat="42.30980714115557" lon="13.628415262130572"><ele>999.0</ele><time>2026-05-03T08:07:18.999Z</time></trkpt><trkpt lat="42.30976270898976" lon="13.628506947926658"><ele>999.0</ele><time>2026-05-03T08:07:19.999Z</time></trkpt><trkpt lat="42.30972188497414" lon="13.628590374620748"><ele>999.0</ele><time>2026-05-03T08:07:20.999Z</time></trkpt><trkpt lat="42.30968070738001" lon="13.628670558987652"><ele>999.0</ele><time>2026-05-03T08:07:21.999Z</time></trkpt><trkpt lat="42.30963434626206" lon="13.628760755940979"><ele>999.0</ele><time>2026-05-03T08:07:22.999Z</time></trkpt><trkpt lat="42.309580926745376" lon="13.628853204578425"><ele>1001.3333333333334</ele><time>2026-05-03T08:07:23.999Z</time></trkpt><trkpt lat="42.309532354487175" lon="13.628939402697199"><ele>1003.6666666666667</ele><time>2026-05-03T08:07:24.999Z</time></trkpt><trkpt lat="42.309508860019704" lon="13.629036636839423"><ele>1006.0</ele><time>2026-05-03T08:07:25.999Z</time></trkpt><trkpt lat="42.30948305345199" lon="13.629137721687686"><ele>1008.3333333333334</ele><time>2026-05-03T08:07:27Z</time></trkpt><trkpt lat="42.3094589655392" lon="13.629225270183664"><ele>1010.6666666666667</ele><time>2026-05-03T08:07:28Z</time></trkpt><trkpt lat="42.30938404924531" lon="13.629357288084103"><ele>1013.0</ele><time>2026-05-03T08:07:30Z</time></trkpt><trkpt lat="42.30933697344716" lon="13.629423185466285"><ele>1012.5000000000001</ele><time>2026-05-03T08:07:31Z</time></trkpt><trkpt lat="42.30928017595018" lon="13.629497625631958"><ele>1012.0</ele><time>2026-05-03T08:07:32Z</time></trkpt><trkpt lat="42.30923421889681" lon="13.629580089489693"><ele>1011.5</ele><time>2026-05-03T08:07:33Z</time></trkpt><trkpt lat="42.309178861746894" lon="13.629670995115623"><ele>1011.0</ele><time>2026-05-03T08:07:34Z</time></trkpt><trkpt lat="42.30912161139356" lon="13.629763448868284"><ele>1010.5000000000001</ele><time>2026-05-03T08:07:35Z</time></trkpt><trkpt lat="42.309059926702936" lon="13.629854761369343"><ele>1010.0</ele><time>2026-05-03T08:07:36Z</time></trkpt><trkpt lat="42.3090073514568" lon="13.629932610461308"><ele>1010.0000000000001</ele><time>2026-05-03T08:07:37Z</time></trkpt><trkpt lat="42.30895866278622" lon="13.630039225690581"><ele>1010.0</ele><time>2026-05-03T08:07:39Z</time></trkpt><trkpt lat="42.30894687877809" lon="13.63014342864141"><ele>1010.0</ele><time>2026-05-03T08:07:40Z</time></trkpt><trkpt lat="42.30892281018183" lon="13.630242169094808"><ele>1010.0</ele><time>2026-05-03T08:07:41Z</time></trkpt><trkpt lat="42.30889757635821" lon="13.630333341368932"><ele>1010.0000000000001</ele><time>2026-05-03T08:07:42Z</time></trkpt><trkpt lat="42.30887361605917" lon="13.630417111187919"><ele>1010.0</ele><time>2026-05-03T08:07:43Z</time></trkpt><trkpt lat="42.308850355567" lon="13.630503947429242"><ele>1009.8333333333334</ele><time>2026-05-03T08:07:44Z</time></trkpt><trkpt lat="42.30884011096425" lon="13.630591725666662"><ele>1009.6666666666667</ele><time>2026-05-03T08:07:45Z</time></trkpt><trkpt lat="42.30884154238134" lon="13.630690322308332"><ele>1009.5</ele><time>2026-05-03T08:07:46Z</time></trkpt><trkpt lat="42.308855693416206" lon="13.630791508828398"><ele>1009.3333333333333</ele><time>2026-05-03T08:07:47Z</time></trkpt><trkpt lat="42.308877607103696" lon="13.630898710895659"><ele>1009.1666666666666</ele><time>2026-05-03T08:07:48Z</time></trkpt><trkpt lat="42.30891249457962" lon="13.63099693072096"><ele>1009.0</ele><time>2026-05-03T08:07:49Z</time></trkpt><trkpt lat="42.308953287684226" lon="13.631134405302225"><ele>1009.8000000000001</ele><time>2026-05-03T08:07:51Z</time></trkpt><trkpt lat="42.308943959575544" lon="13.631269410061238"><ele>1010.6000000000001</ele><time>2026-05-03T08:07:53Z</time></trkpt><trkpt lat="42.30889379558565" lon="13.631427251292319"><ele>1011.4</ele><time>2026-05-03T08:07:55Z</time></trkpt><trkpt lat="42.30885717610431" lon="13.631514931149976"><ele>1012.2</ele><time>2026-05-03T08:07:56Z</time></trkpt><trkpt lat="42.30883601920995" lon="13.631611995907857"><ele>1013.0</ele><time>2026-05-03T08:07:57Z</time></trkpt><trkpt lat="42.308811697887776" lon="13.631705952904413"><ele>1010.6666666666667</ele><time>2026-05-03T08:07:58Z</time></trkpt><trkpt lat="42.30878884562302" lon="13.631811877356693"><ele>1008.3333333333334</ele><time>2026-05-03T08:07:59Z</time></trkpt><trkpt lat="42.30876843131716" lon="13.631917064328235"><ele>1006.0</ele><time>2026-05-03T08:08:00Z</time></trkpt><trkpt lat="42.30873870693938" lon="13.632019772596458"><ele>1003.6666666666667</ele><time>2026-05-03T08:08:01Z</time></trkpt><trkpt lat="42.30869915810596" lon="13.632125387089758"><ele>1001.3333333333334</ele><time>2026-05-03T08:08:02Z</time></trkpt><trkpt lat="42.30865334379973" lon="13.632236855617336"><ele>999.0</ele><time>2026-05-03T08:08:03Z</time></trkpt><trkpt lat="42.308624308117274" lon="13.632326245292548"><ele>999.0</ele><time>2026-05-03T08:08:04Z</time></trkpt><trkpt lat="42.308589866905166" lon="13.63241348947025"><ele>999.0</ele><time>2026-05-03T08:08:05Z</time></trkpt><trkpt lat="42.30853475272095" lon="13.632502472138926"><ele>999.0</ele><time>2026-05-03T08:08:06Z</time></trkpt><trkpt lat="42.30847814325503" lon="13.632614606401432"><ele>999.0</ele><time>2026-05-03T08:08:07Z</time></trkpt><trkpt lat="42.30842450295114" lon="13.632718846034107"><ele>999.0</ele><time>2026-05-03T08:08:08Z</time></trkpt><trkpt lat="42.30837550200181" lon="13.632822663383944"><ele>999.0</ele><time>2026-05-03T08:08:09Z</time></trkpt><trkpt lat="42.308323628492445" lon="13.632922335154097"><ele>999.0</ele><time>2026-05-03T08:08:10Z</time></trkpt><trkpt lat="42.30827054476271" lon="13.633016071628102"><ele>999.0</ele><time>2026-05-03T08:08:11Z</time></trkpt><trkpt lat="42.308232186320275" lon="13.633094414398844"><ele>999.0</ele><time>2026-05-03T08:08:12Z</time></trkpt><trkpt lat="42.30818370220605" lon="13.633182058938615"><ele>999.0</ele><time>2026-05-03T08:08:13Z</time></trkpt><trkpt lat="42.308140389563384" lon="13.633290716276875"><ele>999.0</ele><time>2026-05-03T08:08:14Z</time></trkpt><trkpt lat="42.3080911504013" lon="13.633388547780037"><ele>999.0</ele><time>2026-05-03T08:08:15Z</time></trkpt><trkpt lat="42.3080383757588" lon="13.633474281111114"><ele>997.3333333333334</ele><time>2026-05-03T08:08:16Z</time></trkpt><trkpt lat="42.30799064199873" lon="13.63356880556806"><ele>995.6666666666667</ele><time>2026-05-03T08:08:17Z</time></trkpt><trkpt lat="42.30796143038048" lon="13.633667075807923"><ele>994.0</ele><time>2026-05-03T08:08:18Z</time></trkpt><trkpt lat="42.30793393468745" lon="13.633744938994127"><ele>992.3333333333334</ele><time>2026-05-03T08:08:19Z</time></trkpt><trkpt lat="42.30786779190981" lon="13.633891256059522"><ele>990.6666666666667</ele><time>2026-05-03T08:08:21Z</time></trkpt><trkpt lat="42.30781523565771" lon="13.633952482645293"><ele>989.0</ele><time>2026-05-03T08:08:22Z</time></trkpt><trkpt lat="42.30774613260126" lon="13.63398554505088"><ele>988.8333333333334</ele><time>2026-05-03T08:08:23Z</time></trkpt><trkpt lat="42.30767709890934" lon="13.634003447286226"><ele>988.6666666666667</ele><time>2026-05-03T08:08:24Z</time></trkpt><trkpt lat="42.307607599051416" lon="13.634037286858064"><ele>988.5</ele><time>2026-05-03T08:08:25Z</time></trkpt><trkpt lat="42.307555241046366" lon="13.634105839778275"><ele>988.3333333333333</ele><time>2026-05-03T08:08:26Z</time></trkpt><trkpt lat="42.30749920371605" lon="13.634208017630556"><ele>988.1666666666666</ele><time>2026-05-03T08:08:27Z</time></trkpt><trkpt lat="42.30744375080171" lon="13.63430286789058"><ele>988.0</ele><time>2026-05-03T08:08:28Z</time></trkpt><trkpt lat="42.307375827039905" lon="13.634401023117217"><ele>987.4</ele><time>2026-05-03T08:08:29Z</time></trkpt><trkpt lat="42.3073191261381" lon="13.634482887965572"><ele>986.8</ele><time>2026-05-03T08:08:30Z</time></trkpt><trkpt lat="42.3072524592672" lon="13.634577418281525"><ele>986.2</ele><time>2026-05-03T08:08:30.999Z</time></trkpt><trkpt lat="42.30718321319888" lon="13.634679279787242"><ele>985.6</ele><time>2026-05-03T08:08:31.999Z</time></trkpt><trkpt lat="42.3071227887476" lon="13.634819942437687"><ele>985.0</ele><time>2026-05-03T08:08:32.999Z</time></trkpt><trkpt lat="42.307061872566386" lon="13.634938899280316"><ele>985.0</ele><time>2026-05-03T08:08:33.999Z</time></trkpt><trkpt lat="42.30700099723112" lon="13.635066521005205"><ele>985.0</ele><time>2026-05-03T08:08:34.999Z</time></trkpt><trkpt lat="42.30693664721503" lon="13.635183740497565"><ele>985.0</ele><time>2026-05-03T08:08:35.999Z</time></trkpt><trkpt lat="42.306864326233104" lon="13.635305815662656"><ele>985.0</ele><time>2026-05-03T08:08:36.999Z</time></trkpt><trkpt lat="42.30681264609755" lon="13.635438085723692"><ele>985.0</ele><time>2026-05-03T08:08:37.999Z</time></trkpt><trkpt lat="42.30675161382798" lon="13.635555654263898"><ele>984.2</ele><time>2026-05-03T08:08:38.999Z</time></trkpt><trkpt lat="42.306691181747006" lon="13.635652738273455"><ele>983.4</ele><time>2026-05-03T08:08:39.999Z</time></trkpt><trkpt lat="42.30663893222666" lon="13.635739974266002"><ele>982.5999999999999</ele><time>2026-05-03T08:08:40.999Z</time></trkpt><trkpt lat="42.306586714267404" lon="13.63583466561029"><ele>981.8</ele><time>2026-05-03T08:08:41.999Z</time></trkpt><trkpt lat="42.30653862951973" lon="13.635941683134117"><ele>981.0</ele><time>2026-05-03T08:08:42.999Z</time></trkpt><trkpt lat="42.30648582462055" lon="13.636060340389719"><ele>981.5999999999999</ele><time>2026-05-03T08:08:43.999Z</time></trkpt><trkpt lat="42.306423122099716" lon="13.636181209522498"><ele>982.1999999999999</ele><time>2026-05-03T08:08:44.999Z</time></trkpt><trkpt lat="42.306361729471604" lon="13.636298946524722"><ele>982.8000000000001</ele><time>2026-05-03T08:08:45.999Z</time></trkpt><trkpt lat="42.306311232983866" lon="13.636418112706359"><ele>983.4000000000001</ele><time>2026-05-03T08:08:46.999Z</time></trkpt><trkpt lat="42.30627203796838" lon="13.636538487204058"><ele>984.0</ele><time>2026-05-03T08:08:47.999Z</time></trkpt><trkpt lat="42.30622875135296" lon="13.63666484825943"><ele>982.8000000000001</ele><time>2026-05-03T08:08:48.999Z</time></trkpt><trkpt lat="42.30619614547272" lon="13.63680345851026"><ele>981.6000000000001</ele><time>2026-05-03T08:08:49.999Z</time></trkpt><trkpt lat="42.30616260670066" lon="13.636944225046868"><ele>980.4</ele><time>2026-05-03T08:08:50.999Z</time></trkpt><trkpt lat="42.306115363060094" lon="13.637065898559344"><ele>979.2</ele><time>2026-05-03T08:08:51.999Z</time></trkpt><trkpt lat="42.30607284177913" lon="13.63718983596877"><ele>978.0</ele><time>2026-05-03T08:08:52.999Z</time></trkpt><trkpt lat="42.306040083317214" lon="13.637321641599899"><ele>977.1666666666666</ele><time>2026-05-03T08:08:53.999Z</time></trkpt><trkpt lat="42.30600698545686" lon="13.637445685707121"><ele>976.3333333333333</ele><time>2026-05-03T08:08:54.999Z</time></trkpt><trkpt lat="42.30597689474664" lon="13.637561553684634"><ele>975.5</ele><time>2026-05-03T08:08:55.999Z</time></trkpt><trkpt lat="42.305940430039875" lon="13.637674151180242"><ele>974.6666666666666</ele><time>2026-05-03T08:08:56.999Z</time></trkpt><trkpt lat="42.30590352037475" lon="13.637771805121679"><ele>973.8333333333333</ele><time>2026-05-03T08:08:57.999Z</time></trkpt><trkpt lat="42.30587501467145" lon="13.63787157738426"><ele>973.0</ele><time>2026-05-03T08:08:58.999Z</time></trkpt><trkpt lat="42.30584853185738" lon="13.637979593816329"><ele>972.3333333333333</ele><time>2026-05-03T08:08:59.999Z</time></trkpt><trkpt lat="42.30582772446009" lon="13.63808265866229"><ele>971.6666666666666</ele><time>2026-05-03T08:09:00.999Z</time></trkpt><trkpt lat="42.305813425583466" lon="13.638205518965528"><ele>971.0</ele><time>2026-05-03T08:09:01.999Z</time></trkpt><trkpt lat="42.305809793477934" lon="13.638325080311597"><ele>970.3333333333333</ele><time>2026-05-03T08:09:02.999Z</time></trkpt><trkpt lat="42.305805584451875" lon="13.638423483463654"><ele>969.6666666666666</ele><time>2026-05-03T08:09:03.999Z</time></trkpt><trkpt lat="42.305779485587934" lon="13.638504654787324"><ele>969.0</ele><time>2026-05-03T08:09:04.999Z</time></trkpt><trkpt lat="42.30573549026445" lon="13.638574770364"><ele>968.1666666666666</ele><time>2026-05-03T08:09:05.999Z</time></trkpt><trkpt lat="42.30569068222758" lon="13.638636909727989"><ele>967.3333333333333</ele><time>2026-05-03T08:09:06.999Z</time></trkpt><trkpt lat="42.30566313870343" lon="13.638726271774098"><ele>966.5</ele><time>2026-05-03T08:09:07.999Z</time></trkpt><trkpt lat="42.30565023340735" lon="13.638838120249831"><ele>965.6666666666666</ele><time>2026-05-03T08:09:08.999Z</time></trkpt><trkpt lat="42.30563866250479" lon="13.638939971411466"><ele>964.8333333333333</ele><time>2026-05-03T08:09:09.999Z</time></trkpt><trkpt lat="42.305610482890636" lon="13.63909102664129"><ele>964.0</ele><time>2026-05-03T08:09:11.999Z</time></trkpt><trkpt lat="42.305581137719166" lon="13.639168573782433"><ele>964.6666666666666</ele><time>2026-05-03T08:09:12.999Z</time></trkpt><trkpt lat="42.30551565123681" lon="13.639291104374282"><ele>965.3333333333333</ele><time>2026-05-03T08:09:14.999Z</time></trkpt><trkpt lat="42.305479502886556" lon="13.639362535389399"><ele>966.0</ele><time>2026-05-03T08:09:15.999Z</time></trkpt><trkpt lat="42.305421331881476" lon="13.639490173966822"><ele>966.6666666666667</ele><time>2026-05-03T08:09:17.999Z</time></trkpt><trkpt lat="42.305391568917884" lon="13.639567875292155"><ele>967.3333333333334</ele><time>2026-05-03T08:09:18.999Z</time></trkpt><trkpt lat="42.305368895889664" lon="13.639654417371354"><ele>968.0</ele><time>2026-05-03T08:09:19.999Z</time></trkpt><trkpt lat="42.305357659659954" lon="13.639740724829835"><ele>965.6666666666667</ele><time>2026-05-03T08:09:20.999Z</time></trkpt><trkpt lat="42.30533798636728" lon="13.639837340294582"><ele>963.3333333333334</ele><time>2026-05-03T08:09:21.999Z</time></trkpt><trkpt lat="42.305285002414244" lon="13.639991472862775"><ele>961.0</ele><time>2026-05-03T08:09:23.999Z</time></trkpt><trkpt lat="42.30525966524066" lon="13.640075634627829"><ele>958.6666666666667</ele><time>2026-05-03T08:09:24.999Z</time></trkpt><trkpt lat="42.30524417892869" lon="13.640159635578314"><ele>956.3333333333334</ele><time>2026-05-03T08:09:25.999Z</time></trkpt><trkpt lat="42.30523325815593" lon="13.640245476620455"><ele>954.0</ele><time>2026-05-03T08:09:26.999Z</time></trkpt><trkpt lat="42.30521419576595" lon="13.640333205423314"><ele>951.0</ele><time>2026-05-03T08:09:27.999Z</time></trkpt><trkpt lat="42.30516570311162" lon="13.640474475683856"><ele>948.0</ele><time>2026-05-03T08:09:29.999Z</time></trkpt><trkpt lat="42.305121739771444" lon="13.64059637501187"><ele>945.0</ele><time>2026-05-03T08:09:31.999Z</time></trkpt><trkpt lat="42.3050414856568" lon="13.640722005358748"><ele>942.0</ele><time>2026-05-03T08:09:34Z</time></trkpt><trkpt lat="42.3049786512753" lon="13.640852605757559"><ele>942.0</ele><time>2026-05-03T08:09:36Z</time></trkpt><trkpt lat="42.30497351486729" lon="13.640990043068484"><ele>942.0</ele><time>2026-05-03T08:09:38Z</time></trkpt><trkpt lat="42.30497270946621" lon="13.641113041190152"><ele>942.0</ele><time>2026-05-03T08:09:40Z</time></trkpt><trkpt lat="42.30496212720231" lon="13.64127302506491"><ele>942.0</ele><time>2026-05-03T08:09:42Z</time></trkpt><trkpt lat="42.30492051671775" lon="13.64141234052668"><ele>942.0</ele><time>2026-05-03T08:09:44Z</time></trkpt><trkpt lat="42.30488350518222" lon="13.64148249550666"><ele>940.6</ele><time>2026-05-03T08:09:45Z</time></trkpt><trkpt lat="42.30484839775105" lon="13.641636981350105"><ele>939.2</ele><time>2026-05-03T08:09:47Z</time></trkpt><trkpt lat="42.30482630529466" lon="13.641784119425779"><ele>937.8</ele><time>2026-05-03T08:09:49Z</time></trkpt><trkpt lat="42.30479613352843" lon="13.641928386076271"><ele>936.4</ele><time>2026-05-03T08:09:51Z</time></trkpt><trkpt lat="42.304750748999446" lon="13.642056831352226"><ele>935.0</ele><time>2026-05-03T08:09:53Z</time></trkpt><trkpt lat="42.304661307026386" lon="13.642152913190149"><ele>931.6</ele><time>2026-05-03T08:09:55Z</time></trkpt><trkpt lat="42.30456561166314" lon="13.642243032474697"><ele>928.2</ele><time>2026-05-03T08:09:57Z</time></trkpt><trkpt lat="42.30446913333603" lon="13.642367336403796"><ele>924.8</ele><time>2026-05-03T08:09:59Z</time></trkpt><trkpt lat="42.304408693860196" lon="13.642455629670303"><ele>921.4</ele><time>2026-05-03T08:10:00Z</time></trkpt><trkpt lat="42.30434551988562" lon="13.642541269509534"><ele>918.0</ele><time>2026-05-03T08:10:01Z</time></trkpt><trkpt lat="42.304293248285894" lon="13.642627383610968"><ele>918.0</ele><time>2026-05-03T08:10:02Z</time></trkpt><trkpt lat="42.30424277193489" lon="13.64270278744357"><ele>918.0</ele><time>2026-05-03T08:10:03Z</time></trkpt><trkpt lat="42.30414055407293" lon="13.642791402733856"><ele>918.0</ele><time>2026-05-03T08:10:05Z</time></trkpt><trkpt lat="42.30404609979418" lon="13.64281643429654"><ele>918.0</ele><time>2026-05-03T08:10:07Z</time></trkpt><trkpt lat="42.30395321759811" lon="13.642857028977593"><ele>918.0</ele><time>2026-05-03T08:10:10Z</time></trkpt><trkpt lat="42.303830329378165" lon="13.642924380713028"><ele>916.1666666666666</ele><time>2026-05-03T08:10:12Z</time></trkpt><trkpt lat="42.303762473499226" lon="13.64295931832028"><ele>914.3333333333333</ele><time>2026-05-03T08:10:13Z</time></trkpt><trkpt lat="42.30368877825237" lon="13.642984275929912"><ele>912.5</ele><time>2026-05-03T08:10:14Z</time></trkpt><trkpt lat="42.3035816881555" lon="13.643013294166584"><ele>910.6666666666666</ele><time>2026-05-03T08:10:16Z</time></trkpt><trkpt lat="42.30350136423228" lon="13.6430337003506"><ele>908.8333333333333</ele><time>2026-05-03T08:10:18Z</time></trkpt><trkpt lat="42.30341162255691" lon="13.643061324557086"><ele>907.0</ele><time>2026-05-03T08:10:20Z</time></trkpt><trkpt lat="42.30333147173899" lon="13.643100378704144"><ele>906.9999999999999</ele><time>2026-05-03T08:10:22Z</time></trkpt><trkpt lat="42.30325897329139" lon="13.643128449184598"><ele>907.0</ele><time>2026-05-03T08:10:24Z</time></trkpt><trkpt lat="42.30317771487608" lon="13.643162701331176"><ele>907.0</ele><time>2026-05-03T08:10:26Z</time></trkpt><trkpt lat="42.3030914379971" lon="13.64319050221106"><ele>907.0</ele><time>2026-05-03T08:10:28Z</time></trkpt><trkpt lat="42.30301207954732" lon="13.643212888795926"><ele>906.9999999999999</ele><time>2026-05-03T08:10:30Z</time></trkpt><trkpt lat="42.302928778297044" lon="13.643226788837138"><ele>907.0</ele><time>2026-05-03T08:10:32Z</time></trkpt><trkpt lat="42.302856232701835" lon="13.64322069641242"><ele>904.3333333333333</ele><time>2026-05-03T08:10:33.999Z</time></trkpt><trkpt lat="42.30277666092427" lon="13.643218958144951"><ele>901.6666666666666</ele><time>2026-05-03T08:10:35.999Z</time></trkpt><trkpt lat="42.302693900423684" lon="13.643218252482164"><ele>899.0</ele><time>2026-05-03T08:10:37.999Z</time></trkpt><trkpt lat="42.302608296756404" lon="13.64318534767697"><ele>896.3333333333333</ele><time>2026-05-03T08:10:39.999Z</time></trkpt><trkpt lat="42.30253027481397" lon="13.643142260102112"><ele>893.6666666666666</ele><time>2026-05-03T08:10:41.999Z</time></trkpt><trkpt lat="42.30245457765125" lon="13.643114750260484"><ele>891.0</ele><time>2026-05-03T08:10:43.999Z</time></trkpt><trkpt lat="42.302358840347345" lon="13.643114105525727"><ele>891.0</ele><time>2026-05-03T08:10:45.999Z</time></trkpt><trkpt lat="42.30225500634834" lon="13.643144180934655"><ele>890.9999999999999</ele><time>2026-05-03T08:10:47.999Z</time></trkpt><trkpt lat="42.302171436442116" lon="13.64320363923784"><ele>890.9999999999999</ele><time>2026-05-03T08:10:49.999Z</time></trkpt><trkpt lat="42.302086651938296" lon="13.643279780228347"><ele>891.0</ele><time>2026-05-03T08:10:51.999Z</time></trkpt><trkpt lat="42.30197622267704" lon="13.643311997152713"><ele>891.0</ele><time>2026-05-03T08:10:53.999Z</time></trkpt><trkpt lat="42.30186060312165" lon="13.643330300915224"><ele>889.0</ele><time>2026-05-03T08:10:55.999Z</time></trkpt><trkpt lat="42.301741557506205" lon="13.643351219541714"><ele>886.9999999999999</ele><time>2026-05-03T08:10:57.999Z</time></trkpt><trkpt lat="42.301678107976684" lon="13.643365264019737"><ele>884.9999999999999</ele><time>2026-05-03T08:10:58.999Z</time></trkpt><trkpt lat="42.301612712995436" lon="13.643375542822682"><ele>883.0</ele><time>2026-05-03T08:10:59.999Z</time></trkpt><trkpt lat="42.301491768443185" lon="13.643414783491593"><ele>881.0</ele><time>2026-05-03T08:11:01.999Z</time></trkpt><trkpt lat="42.3013811686329" lon="13.643461506750493"><ele>879.25</ele><time>2026-05-03T08:11:03.999Z</time></trkpt><trkpt lat="42.301271317137555" lon="13.64351487373695"><ele>877.5</ele><time>2026-05-03T08:11:05.999Z</time></trkpt><trkpt lat="42.301166262263635" lon="13.643563664738211"><ele>875.75</ele><time>2026-05-03T08:11:07.999Z</time></trkpt><trkpt lat="42.301060123235075" lon="13.643595781274902"><ele>874.0</ele><time>2026-05-03T08:11:09.999Z</time></trkpt><trkpt lat="42.30094897054606" lon="13.64364266189033"><ele>873.5714285714286</ele><time>2026-05-03T08:11:11.999Z</time></trkpt><trkpt lat="42.30088529410978" lon="13.643669060871664"><ele>873.1428571428572</ele><time>2026-05-03T08:11:12.999Z</time></trkpt><trkpt lat="42.300822301419124" lon="13.643690053286768"><ele>872.7142857142858</ele><time>2026-05-03T08:11:13.999Z</time></trkpt><trkpt lat="42.3007549167621" lon="13.643717586396283"><ele>872.2857142857142</ele><time>2026-05-03T08:11:14.999Z</time></trkpt><trkpt lat="42.300688325208526" lon="13.643744699114722"><ele>871.8571428571429</ele><time>2026-05-03T08:11:15.999Z</time></trkpt><trkpt lat="42.30062082712765" lon="13.643784224193348"><ele>871.4285714285714</ele><time>2026-05-03T08:11:16.999Z</time></trkpt><trkpt lat="42.30055996270352" lon="13.643827786146018"><ele>871.0</ele><time>2026-05-03T08:11:17.999Z</time></trkpt><trkpt lat="42.3004816528525" lon="13.643852994353288"><ele>870.1428571428571</ele><time>2026-05-03T08:11:18.999Z</time></trkpt><trkpt lat="42.30040518477718" lon="13.643863422520726"><ele>869.2857142857142</ele><time>2026-05-03T08:11:19.999Z</time></trkpt><trkpt lat="42.300329494566334" lon="13.643874275400005"><ele>868.4285714285714</ele><time>2026-05-03T08:11:20.999Z</time></trkpt><trkpt lat="42.30025872968871" lon="13.64388416295099"><ele>867.5714285714286</ele><time>2026-05-03T08:11:21.999Z</time></trkpt><trkpt lat="42.30018347270465" lon="13.643896533763153"><ele>866.7142857142858</ele><time>2026-05-03T08:11:22.999Z</time></trkpt><trkpt lat="42.300117118537095" lon="13.643915182118656"><ele>865.8571428571429</ele><time>2026-05-03T08:11:23.999Z</time></trkpt><trkpt lat="42.300049728228295" lon="13.643918941722633"><ele>865.0</ele><time>2026-05-03T08:11:24.999Z</time></trkpt><trkpt lat="42.29997551290083" lon="13.643914031504973"><ele>864.9999999999999</ele><time>2026-05-03T08:11:25.999Z</time></trkpt><trkpt lat="42.29990825391147" lon="13.643901589959027"><ele>865.0</ele><time>2026-05-03T08:11:26.999Z</time></trkpt><trkpt lat="42.299817368181664" lon="13.643882201927713"><ele>865.0</ele><time>2026-05-03T08:11:28.999Z</time></trkpt><trkpt lat="42.29974632161944" lon="13.643883101876014"><ele>865.0</ele><time>2026-05-03T08:11:31.999Z</time></trkpt><trkpt lat="42.29967026865938" lon="13.643848546033086"><ele>864.9999999999999</ele><time>2026-05-03T08:12:21Z</time></trkpt><trkpt lat="42.29961006351969" lon="13.643783265434175"><ele>865.0</ele><time>2026-05-03T08:12:22Z</time></trkpt><trkpt lat="42.299555469060756" lon="13.643725614558"><ele>864.3333333333333</ele><time>2026-05-03T08:12:23Z</time></trkpt><trkpt lat="42.29950300556339" lon="13.643671497685002"><ele>863.6666666666666</ele><time>2026-05-03T08:12:24Z</time></trkpt><trkpt lat="42.29944142595852" lon="13.643615299297595"><ele>863.0</ele><time>2026-05-03T08:12:25Z</time></trkpt><trkpt lat="42.29936982513354" lon="13.643551646880296"><ele>862.3333333333333</ele><time>2026-05-03T08:12:26Z</time></trkpt><trkpt lat="42.2992830416736" lon="13.643477205515769"><ele>861.6666666666666</ele><time>2026-05-03T08:12:27Z</time></trkpt><trkpt lat="42.29919365822162" lon="13.643398029379947"><ele>861.0</ele><time>2026-05-03T08:12:28Z</time></trkpt><trkpt lat="42.29910128407592" lon="13.643306586404155"><ele>859.75</ele><time>2026-05-03T08:12:29Z</time></trkpt><trkpt lat="42.298998984448346" lon="13.643211866141002"><ele>858.5</ele><time>2026-05-03T08:12:30Z</time></trkpt><trkpt lat="42.29889588257831" lon="13.643120197945864"><ele>857.25</ele><time>2026-05-03T08:12:31Z</time></trkpt><trkpt lat="42.298799142389704" lon="13.64302558802404"><ele>856.0</ele><time>2026-05-03T08:12:32Z</time></trkpt><trkpt lat="42.29870517081195" lon="13.642921918086403"><ele>854.25</ele><time>2026-05-03T08:12:33Z</time></trkpt><trkpt lat="42.29862159078233" lon="13.642804425673615"><ele>852.5</ele><time>2026-05-03T08:12:34Z</time></trkpt><trkpt lat="42.29854655110821" lon="13.64267884460577"><ele>850.75</ele><time>2026-05-03T08:12:34.999Z</time></trkpt><trkpt lat="42.29846993062015" lon="13.642548535165252"><ele>849.0</ele><time>2026-05-03T08:12:35.999Z</time></trkpt><trkpt lat="42.29838707333977" lon="13.64241672217781"><ele>847.5</ele><time>2026-05-03T08:12:36.999Z</time></trkpt><trkpt lat="42.29829923122008" lon="13.642290042774304"><ele>846.0</ele><time>2026-05-03T08:12:37.999Z</time></trkpt><trkpt lat="42.29821837752367" lon="13.642161071831762"><ele>844.5</ele><time>2026-05-03T08:12:38.999Z</time></trkpt><trkpt lat="42.29813431490077" lon="13.642056183649332"><ele>843.0</ele><time>2026-05-03T08:12:39.999Z</time></trkpt><trkpt lat="42.29807357462075" lon="13.641971748121389"><ele>841.2857142857142</ele><time>2026-05-03T08:12:40.999Z</time></trkpt><trkpt lat="42.29801445157239" lon="13.64191246892571"><ele>839.5714285714286</ele><time>2026-05-03T08:12:41.999Z</time></trkpt><trkpt lat="42.29795471039668" lon="13.641871512555332"><ele>837.8571428571429</ele><time>2026-05-03T08:12:42.999Z</time></trkpt><trkpt lat="42.29788614475146" lon="13.641834443961747"><ele>836.1428571428571</ele><time>2026-05-03T08:12:43.999Z</time></trkpt><trkpt lat="42.297819632975425" lon="13.641792296039862"><ele>834.4285714285714</ele><time>2026-05-03T08:12:44.999Z</time></trkpt><trkpt lat="42.297757224795745" lon="13.641750597627626"><ele>832.7142857142857</ele><time>2026-05-03T08:12:45.999Z</time></trkpt><trkpt lat="42.29769154444683" lon="13.641709469007399"><ele>831.0</ele><time>2026-05-03T08:12:46.999Z</time></trkpt><trkpt lat="42.29761944665811" lon="13.641676494786605"><ele>831.0</ele><time>2026-05-03T08:12:47.999Z</time></trkpt><trkpt lat="42.29753417811931" lon="13.641647882500017"><ele>831.0</ele><time>2026-05-03T08:12:48.999Z</time></trkpt><trkpt lat="42.2974405739377" lon="13.641639174795733"><ele>831.0</ele><time>2026-05-03T08:12:49.999Z</time></trkpt><trkpt lat="42.297347468072644" lon="13.641639674059723"><ele>831.0</ele><time>2026-05-03T08:12:50.999Z</time></trkpt><trkpt lat="42.29726242856999" lon="13.641638562310279"><ele>831.0</ele><time>2026-05-03T08:12:51.999Z</time></trkpt><trkpt lat="42.29718289549449" lon="13.6416332366144"><ele>831.0</ele><time>2026-05-03T08:12:52.999Z</time></trkpt><trkpt lat="42.297093591939195" lon="13.641610190760803"><ele>829.5</ele><time>2026-05-03T08:12:53.999Z</time></trkpt><trkpt lat="42.29701695689663" lon="13.641595358527326"><ele>828.0</ele><time>2026-05-03T08:12:54.999Z</time></trkpt><trkpt lat="42.29694000316251" lon="13.641579846207591"><ele>826.5</ele><time>2026-05-03T08:12:55.999Z</time></trkpt><trkpt lat="42.296871229941246" lon="13.641562043973634"><ele>825.0</ele><time>2026-05-03T08:12:56.999Z</time></trkpt><trkpt lat="42.296799976648394" lon="13.641537618598061"><ele>823.5</ele><time>2026-05-03T08:12:57.999Z</time></trkpt><trkpt lat="42.29673475393137" lon="13.64151364267162"><ele>822.0</ele><time>2026-05-03T08:12:58.999Z</time></trkpt><trkpt lat="42.2966092839064" lon="13.641548609593695"><ele>822.0</ele><time>2026-05-03T08:13:00.999Z</time></trkpt><trkpt lat="42.29652883540006" lon="13.64157810915052"><ele>822.0</ele><time>2026-05-03T08:13:01.999Z</time></trkpt><trkpt lat="42.29643384008962" lon="13.641583420765151"><ele>822.0</ele><time>2026-05-03T08:13:02.999Z</time></trkpt><trkpt lat="42.29633751069603" lon="13.641570956499914"><ele>822.0</ele><time>2026-05-03T08:13:03.999Z</time></trkpt><trkpt lat="42.29624877172262" lon="13.641554034288738"><ele>822.0</ele><time>2026-05-03T08:13:04.999Z</time></trkpt><trkpt lat="42.29616704658024" lon="13.641536978203604"><ele>822.0</ele><time>2026-05-03T08:13:05.999Z</time></trkpt><trkpt lat="42.29610075396657" lon="13.64151553461619"><ele>820.5</ele><time>2026-05-03T08:13:06.999Z</time></trkpt><trkpt lat="42.29603295791664" lon="13.641485793477921"><ele>819.0</ele><time>2026-05-03T08:13:07.999Z</time></trkpt><trkpt lat="42.295963887919385" lon="13.641444681721248"><ele>817.5</ele><time>2026-05-03T08:13:08.999Z</time></trkpt><trkpt lat="42.29588867441378" lon="13.64139422884244"><ele>816.0</ele><time>2026-05-03T08:13:09.999Z</time></trkpt><trkpt lat="42.295800545790144" lon="13.641350035227715"><ele>814.5</ele><time>2026-05-03T08:13:10.999Z</time></trkpt><trkpt lat="42.29570287273247" lon="13.641315136784675"><ele>813.0</ele><time>2026-05-03T08:13:11.999Z</time></trkpt><trkpt lat="42.295615779604226" lon="13.641306971798908"><ele>811.5</ele><time>2026-05-03T08:13:12.999Z</time></trkpt><trkpt lat="42.29553305954297" lon="13.641302844152108"><ele>810.0</ele><time>2026-05-03T08:13:13.999Z</time></trkpt><trkpt lat="42.295452521888826" lon="13.641294014858378"><ele>808.5</ele><time>2026-05-03T08:13:14.999Z</time></trkpt><trkpt lat="42.29537052101895" lon="13.641283798452045"><ele>807.0</ele><time>2026-05-03T08:13:15.999Z</time></trkpt><trkpt lat="42.29527976184404" lon="13.641272520168329"><ele>805.5</ele><time>2026-05-03T08:13:16.999Z</time></trkpt><trkpt lat="42.29519193141573" lon="13.641263120726302"><ele>804.0</ele><time>2026-05-03T08:13:17.999Z</time></trkpt><trkpt lat="42.295102535401206" lon="13.641257569809408"><ele>804.0</ele><time>2026-05-03T08:13:18.999Z</time></trkpt><trkpt lat="42.29501001841481" lon="13.64125580714257"><ele>804.0</ele><time>2026-05-03T08:13:19.999Z</time></trkpt><trkpt lat="42.29493988248761" lon="13.64126258336964"><ele>804.0</ele><time>2026-05-03T08:13:20.999Z</time></trkpt><trkpt lat="42.294807387501216" lon="13.64125686083032"><ele>804.0</ele><time>2026-05-03T08:13:22.999Z</time></trkpt><trkpt lat="42.29474074631064" lon="13.64124143349215"><ele>804.0</ele><time>2026-05-03T08:13:23.999Z</time></trkpt><trkpt lat="42.29467084228886" lon="13.641217984524154"><ele>804.0</ele><time>2026-05-03T08:13:24.999Z</time></trkpt><trkpt lat="42.29456028208408" lon="13.64115109179475"><ele>803.0</ele><time>2026-05-03T08:13:26.999Z</time></trkpt><trkpt lat="42.29447468937481" lon="13.64110804679654"><ele>802.0</ele><time>2026-05-03T08:13:28.999Z</time></trkpt><trkpt lat="42.29441390686548" lon="13.641085616295404"><ele>801.0</ele><time>2026-05-03T08:13:30.999Z</time></trkpt><trkpt lat="42.29433687992679" lon="13.64111371337516"><ele>800.0</ele><time>2026-05-03T08:13:32.999Z</time></trkpt><trkpt lat="42.294291263692486" lon="13.641174722817034"><ele>799.0</ele><time>2026-05-03T08:13:33.999Z</time></trkpt><trkpt lat="42.2942403601356" lon="13.64125089166638"><ele>798.0</ele><time>2026-05-03T08:13:34.999Z</time></trkpt><trkpt lat="42.29417124623032" lon="13.641334075532027"><ele>798.0</ele><time>2026-05-03T08:13:35.999Z</time></trkpt><trkpt lat="42.2940923490366" lon="13.641414224553486"><ele>798.0</ele><time>2026-05-03T08:13:36.999Z</time></trkpt><trkpt lat="42.29400516383834" lon="13.64150207182893"><ele>798.0</ele><time>2026-05-03T08:13:37.999Z</time></trkpt><trkpt lat="42.29391784192185" lon="13.641603994154385"><ele>798.0</ele><time>2026-05-03T08:13:38.999Z</time></trkpt><trkpt lat="42.29383669061496" lon="13.641725151045653"><ele>798.0</ele><time>2026-05-03T08:13:39.999Z</time></trkpt><trkpt lat="42.29376796932395" lon="13.641858566988548"><ele>798.0</ele><time>2026-05-03T08:13:40.999Z</time></trkpt><trkpt lat="42.29371268248557" lon="13.642001119448533"><ele>798.0</ele><time>2026-05-03T08:13:41.998Z</time></trkpt><trkpt lat="42.29366512196137" lon="13.64214092261996"><ele>798.0</ele><time>2026-05-03T08:13:42.998Z</time></trkpt><trkpt lat="42.29359956690601" lon="13.64226383305237"><ele>798.0</ele><time>2026-05-03T08:13:44Z</time></trkpt><trkpt lat="42.293505222731866" lon="13.642360998026131"><ele>798.0</ele><time>2026-05-03T08:13:45Z</time></trkpt><trkpt lat="42.29339020720388" lon="13.642431278554362"><ele>798.0</ele><time>2026-05-03T08:13:46Z</time></trkpt><trkpt lat="42.293261955724724" lon="13.64248855396443"><ele>798.0</ele><time>2026-05-03T08:13:47Z</time></trkpt><trkpt lat="42.29312625044807" lon="13.642556477668887"><ele>798.0</ele><time>2026-05-03T08:13:48Z</time></trkpt><trkpt lat="42.29298714441098" lon="13.642637979977438"><ele>797.6666666666667</ele><time>2026-05-03T08:13:49Z</time></trkpt><trkpt lat="42.29284020094904" lon="13.642724013335823"><ele>797.3333333333334</ele><time>2026-05-03T08:13:50Z</time></trkpt><trkpt lat="42.292686608802335" lon="13.642800613819782"><ele>797.0</ele><time>2026-05-03T08:13:51Z</time></trkpt><trkpt lat="42.292531720351796" lon="13.642874446731744"><ele>797.0</ele><time>2026-05-03T08:13:52Z</time></trkpt><trkpt lat="42.29237943139465" lon="13.64294891975017"><ele>797.0</ele><time>2026-05-03T08:13:53Z</time></trkpt><trkpt lat="42.29222737894367" lon="13.643018616198649"><ele>797.0</ele><time>2026-05-03T08:13:54Z</time></trkpt><trkpt lat="42.29206863611788" lon="13.64308857699483"><ele>796.5</ele><time>2026-05-03T08:13:55Z</time></trkpt><trkpt lat="42.29191289238062" lon="13.643106762799079"><ele>796.0</ele><time>2026-05-03T08:13:56Z</time></trkpt><trkpt lat="42.29177124020622" lon="13.643146096303203"><ele>795.5</ele><time>2026-05-03T08:13:57Z</time></trkpt><trkpt lat="42.2916339803442" lon="13.643168495306835"><ele>795.0</ele><time>2026-05-03T08:13:58Z</time></trkpt><trkpt lat="42.291514162616714" lon="13.643155457955014"><ele>794.0</ele><time>2026-05-03T08:13:59Z</time></trkpt><trkpt lat="42.2914090321034" lon="13.64308473030536"><ele>793.0</ele><time>2026-05-03T08:14:00Z</time></trkpt><trkpt lat="42.2912890232719" lon="13.643033756760133"><ele>792.0</ele><time>2026-05-03T08:14:01Z</time></trkpt><trkpt lat="42.29116526675133" lon="13.64303840809157"><ele>791.0</ele><time>2026-05-03T08:14:02Z</time></trkpt><trkpt lat="42.291030461901144" lon="13.643067448124615"><ele>791.0</ele><time>2026-05-03T08:14:03Z</time></trkpt><trkpt lat="42.29088612934767" lon="13.643086580029316"><ele>791.0</ele><time>2026-05-03T08:14:04Z</time></trkpt><trkpt lat="42.29074540798478" lon="13.643124216527369"><ele>791.0</ele><time>2026-05-03T08:14:05Z</time></trkpt><trkpt lat="42.290608513814064" lon="13.643157980549685"><ele>791.0</ele><time>2026-05-03T08:14:06Z</time></trkpt><trkpt lat="42.29047647729168" lon="13.643178687537256"><ele>789.75</ele><time>2026-05-03T08:14:07Z</time></trkpt><trkpt lat="42.29034269389974" lon="13.643189463173025"><ele>788.5</ele><time>2026-05-03T08:14:08Z</time></trkpt><trkpt lat="42.290207681356165" lon="13.643200990416522"><ele>787.25</ele><time>2026-05-03T08:14:09Z</time></trkpt><trkpt lat="42.29007408139183" lon="13.643217677597777"><ele>786.0</ele><time>2026-05-03T08:14:10Z</time></trkpt><trkpt lat="42.289942481828106" lon="13.643238429924267"><ele>786.0</ele><time>2026-05-03T08:14:11Z</time></trkpt><trkpt lat="42.28983205071153" lon="13.643295129043988"><ele>786.0</ele><time>2026-05-03T08:14:12Z</time></trkpt><trkpt lat="42.28974383938922" lon="13.643349582801163"><ele>786.0</ele><time>2026-05-03T08:14:13Z</time></trkpt><trkpt lat="42.28968252009709" lon="13.64344286238778"><ele>786.0</ele><time>2026-05-03T08:14:14Z</time></trkpt><trkpt lat="42.28966637340017" lon="13.643572179894317"><ele>786.0</ele><time>2026-05-03T08:14:15Z</time></trkpt><trkpt lat="42.289697563674345" lon="13.643708964466873"><ele>787.25</ele><time>2026-05-03T08:14:16Z</time></trkpt><trkpt lat="42.28974798614013" lon="13.643835465395906"><ele>788.5</ele><time>2026-05-03T08:14:17Z</time></trkpt><trkpt lat="42.28977708131463" lon="13.643979543629897"><ele>789.75</ele><time>2026-05-03T08:14:18Z</time></trkpt><trkpt lat="42.28979867472908" lon="13.64413214258066"><ele>791.0</ele><time>2026-05-03T08:14:19Z</time></trkpt><trkpt lat="42.289816683097094" lon="13.644292838249578"><ele>791.0</ele><time>2026-05-03T08:14:20Z</time></trkpt><trkpt lat="42.2898342346327" lon="13.644459806656775"><ele>791.0</ele><time>2026-05-03T08:14:21Z</time></trkpt><trkpt lat="42.289852083848075" lon="13.644627027215892"><ele>791.0</ele><time>2026-05-03T08:14:22Z</time></trkpt><trkpt lat="42.289885407630166" lon="13.644793782329803"><ele>791.0</ele><time>2026-05-03T08:14:23Z</time></trkpt><trkpt lat="42.289943878828645" lon="13.644945493966139"><ele>792.0</ele><time>2026-05-03T08:14:24Z</time></trkpt><trkpt lat="42.289990209717196" lon="13.645104005306266"><ele>793.0</ele><time>2026-05-03T08:14:25Z</time></trkpt><trkpt lat="42.290021383630894" lon="13.64527611362198"><ele>794.0</ele><time>2026-05-03T08:14:26Z</time></trkpt><trkpt lat="42.29006477588857" lon="13.645437933889795"><ele>795.0</ele><time>2026-05-03T08:14:27Z</time></trkpt><trkpt lat="42.29008773360687" lon="13.645597893951456"><ele>795.25</ele><time>2026-05-03T08:14:28Z</time></trkpt><trkpt lat="42.2900889313397" lon="13.645762350637384"><ele>795.5</ele><time>2026-05-03T08:14:29Z</time></trkpt><trkpt lat="42.290078854349986" lon="13.645935200763834"><ele>795.75</ele><time>2026-05-03T08:14:30Z</time></trkpt><trkpt lat="42.29005765873405" lon="13.646114418393795"><ele>796.0</ele><time>2026-05-03T08:14:31Z</time></trkpt><trkpt lat="42.2900194651179" lon="13.646287693206943"><ele>797.5</ele><time>2026-05-03T08:14:32Z</time></trkpt><trkpt lat="42.28995980579584" lon="13.6464426127078"><ele>799.0</ele><time>2026-05-03T08:14:33Z</time></trkpt><trkpt lat="42.289876982080486" lon="13.646587272096165"><ele>800.5</ele><time>2026-05-03T08:14:34Z</time></trkpt><trkpt lat="42.28978927734542" lon="13.64673371149767"><ele>802.0</ele><time>2026-05-03T08:14:35Z</time></trkpt><trkpt lat="42.289712634629225" lon="13.646882171193862"><ele>799.25</ele><time>2026-05-03T08:14:36Z</time></trkpt><trkpt lat="42.28964975147635" lon="13.64703125064754"><ele>796.5</ele><time>2026-05-03T08:14:37Z</time></trkpt><trkpt lat="42.28960236671351" lon="13.64718982876473"><ele>793.75</ele><time>2026-05-03T08:14:37.999Z</time></trkpt><trkpt lat="42.28957088868375" lon="13.647340548395936"><ele>791.0</ele><time>2026-05-03T08:14:38.999Z</time></trkpt><trkpt lat="42.28954345829751" lon="13.647469655208187"><ele>791.0</ele><time>2026-05-03T08:14:39.999Z</time></trkpt><trkpt lat="42.289506457165295" lon="13.647606768272672"><ele>791.0</ele><time>2026-05-03T08:14:40.999Z</time></trkpt><trkpt lat="42.28945423972472" lon="13.647737635720947"><ele>791.0</ele><time>2026-05-03T08:14:41.999Z</time></trkpt><trkpt lat="42.28937651557552" lon="13.64786764113243"><ele>791.0</ele><time>2026-05-03T08:14:42.999Z</time></trkpt><trkpt lat="42.28928664373747" lon="13.648000414129642"><ele>792.25</ele><time>2026-05-03T08:14:43.999Z</time></trkpt><trkpt lat="42.28919184025628" lon="13.648133716002324"><ele>793.5</ele><time>2026-05-03T08:14:44.999Z</time></trkpt><trkpt lat="42.289098467136895" lon="13.648264186326935"><ele>794.75</ele><time>2026-05-03T08:14:45.999Z</time></trkpt><trkpt lat="42.289003414272685" lon="13.648393838901454"><ele>796.0</ele><time>2026-05-03T08:14:46.999Z</time></trkpt><trkpt lat="42.28888884349941" lon="13.6484944433169"><ele>794.0</ele><time>2026-05-03T08:14:47.999Z</time></trkpt><trkpt lat="42.28881865399583" lon="13.648661423996742"><ele>792.0</ele><time>2026-05-03T08:14:48.999Z</time></trkpt><trkpt lat="42.288718230306536" lon="13.64877610523281"><ele>790.0</ele><time>2026-05-03T08:14:49.999Z</time></trkpt><trkpt lat="42.288608797047964" lon="13.648880923530427"><ele>788.0</ele><time>2026-05-03T08:14:50.999Z</time></trkpt><trkpt lat="42.288493936765505" lon="13.648988586521947"><ele>788.0</ele><time>2026-05-03T08:14:51.999Z</time></trkpt><trkpt lat="42.288376536132304" lon="13.649095232048085"><ele>788.0</ele><time>2026-05-03T08:14:52.999Z</time></trkpt><trkpt lat="42.28826214927668" lon="13.649211899685678"><ele>788.0</ele><time>2026-05-03T08:14:53.999Z</time></trkpt><trkpt lat="42.28815228614461" lon="13.64933800789841"><ele>788.0</ele><time>2026-05-03T08:14:54.999Z</time></trkpt><trkpt lat="42.2880318337257" lon="13.649449315354946"><ele>786.0</ele><time>2026-05-03T08:14:55.999Z</time></trkpt><trkpt lat="42.28794425612705" lon="13.64961023270187"><ele>784.0</ele><time>2026-05-03T08:14:56.999Z</time></trkpt><trkpt lat="42.287860610106556" lon="13.649771477281636"><ele>782.0</ele><time>2026-05-03T08:14:57.999Z</time></trkpt><trkpt lat="42.28777583590437" lon="13.6499424865705"><ele>780.0</ele><time>2026-05-03T08:14:58.999Z</time></trkpt><trkpt lat="42.28770335685116" lon="13.650131113931458"><ele>781.25</ele><time>2026-05-03T08:14:59.999Z</time></trkpt><trkpt lat="42.2876395945742" lon="13.650317055357588"><ele>782.5</ele><time>2026-05-03T08:15:00.999Z</time></trkpt><trkpt lat="42.28758780366211" lon="13.650485264016362"><ele>783.75</ele><time>2026-05-03T08:15:01.999Z</time></trkpt><trkpt lat="42.28754218895992" lon="13.650659810860505"><ele>785.0</ele><time>2026-05-03T08:15:02.999Z</time></trkpt><trkpt lat="42.28750628880677" lon="13.650830050568908"><ele>785.0</ele><time>2026-05-03T08:15:03.999Z</time></trkpt><trkpt lat="42.28747931115996" lon="13.6509966446123"><ele>785.0</ele><time>2026-05-03T08:15:04.999Z</time></trkpt><trkpt lat="42.287458771392146" lon="13.651168633987524"><ele>785.0</ele><time>2026-05-03T08:15:05.999Z</time></trkpt><trkpt lat="42.28744738295585" lon="13.651343788907884"><ele>785.0</ele><time>2026-05-03T08:15:06.999Z</time></trkpt><trkpt lat="42.287453275767824" lon="13.651527262014746"><ele>785.75</ele><time>2026-05-03T08:15:07.999Z</time></trkpt><trkpt lat="42.287484148866454" lon="13.651709626201079"><ele>786.5</ele><time>2026-05-03T08:15:08.999Z</time></trkpt><trkpt lat="42.28751215514752" lon="13.651887375370078"><ele>787.25</ele><time>2026-05-03T08:15:09.999Z</time></trkpt><trkpt lat="42.287513824687714" lon="13.652043033832093"><ele>788.0</ele><time>2026-05-03T08:15:10.999Z</time></trkpt><trkpt lat="42.28747465870515" lon="13.652177031790469"><ele>789.25</ele><time>2026-05-03T08:15:11.999Z</time></trkpt><trkpt lat="42.287409508521165" lon="13.652296613371343"><ele>790.5</ele><time>2026-05-03T08:15:12.999Z</time></trkpt><trkpt lat="42.28732977721363" lon="13.652424267404324"><ele>791.75</ele><time>2026-05-03T08:15:13.999Z</time></trkpt><trkpt lat="42.28725233747964" lon="13.652561118828425"><ele>793.0</ele><time>2026-05-03T08:15:14.999Z</time></trkpt><trkpt lat="42.287177372300356" lon="13.652701101053944"><ele>789.75</ele><time>2026-05-03T08:15:15.999Z</time></trkpt><trkpt lat="42.28711442231582" lon="13.652851588039127"><ele>786.5</ele><time>2026-05-03T08:15:16.999Z</time></trkpt><trkpt lat="42.28707534692981" lon="13.653023043795564"><ele>783.25</ele><time>2026-05-03T08:15:17.999Z</time></trkpt><trkpt lat="42.287045463710456" lon="13.653203261536369"><ele>780.0</ele><time>2026-05-03T08:15:18.999Z</time></trkpt><trkpt lat="42.28701975897208" lon="13.653382180283574"><ele>780.0</ele><time>2026-05-03T08:15:19.999Z</time></trkpt><trkpt lat="42.28699630673672" lon="13.653553101497799"><ele>780.0</ele><time>2026-05-03T08:15:20.999Z</time></trkpt><trkpt lat="42.28696594507391" lon="13.653708714999263"><ele>780.0</ele><time>2026-05-03T08:15:21.999Z</time></trkpt><trkpt lat="42.28693325462206" lon="13.653860357102133"><ele>780.0</ele><time>2026-05-03T08:15:22.999Z</time></trkpt><trkpt lat="42.28689870933255" lon="13.653991125189997"><ele>781.4</ele><time>2026-05-03T08:15:23.999Z</time></trkpt><trkpt lat="42.28685618019837" lon="13.654103146021916"><ele>782.8</ele><time>2026-05-03T08:15:24.999Z</time></trkpt><trkpt lat="42.286800629761416" lon="13.654199732814067"><ele>784.2</ele><time>2026-05-03T08:15:25.999Z</time></trkpt><trkpt lat="42.28673847304516" lon="13.654291390882213"><ele>785.6</ele><time>2026-05-03T08:15:26.999Z</time></trkpt><trkpt lat="42.28666504066084" lon="13.654378205431222"><ele>787.0</ele><time>2026-05-03T08:15:27.999Z</time></trkpt><trkpt lat="42.28659306040774" lon="13.654486478345085"><ele>787.8333333333333</ele><time>2026-05-03T08:15:28.999Z</time></trkpt><trkpt lat="42.28653720553148" lon="13.654591697632885"><ele>788.6666666666666</ele><time>2026-05-03T08:15:29.999Z</time></trkpt><trkpt lat="42.286480399976206" lon="13.654683276420084"><ele>789.5</ele><time>2026-05-03T08:15:30.999Z</time></trkpt><trkpt lat="42.28641997290878" lon="13.654764211488896"><ele>790.3333333333333</ele><time>2026-05-03T08:15:31.999Z</time></trkpt><trkpt lat="42.286366593752646" lon="13.6548621237551"><ele>791.1666666666666</ele><time>2026-05-03T08:15:32.999Z</time></trkpt><trkpt lat="42.28630658861537" lon="13.654949298939979"><ele>792.0</ele><time>2026-05-03T08:15:33.999Z</time></trkpt><trkpt lat="42.286255616287974" lon="13.655027468851843"><ele>790.2</ele><time>2026-05-03T08:15:34.999Z</time></trkpt><trkpt lat="42.286198830856804" lon="13.655134023472872"><ele>788.4000000000001</ele><time>2026-05-03T08:15:36.999Z</time></trkpt><trkpt lat="42.28618834721606" lon="13.655260755584745"><ele>786.5999999999999</ele><time>2026-05-03T08:15:39.999Z</time></trkpt><trkpt lat="42.28628031759376" lon="13.65529627083906"><ele>784.8</ele><time>2026-05-03T08:15:40.999Z</time></trkpt><trkpt lat="42.286373328605826" lon="13.65539394987814"><ele>783.0</ele><time>2026-05-03T08:15:42.999Z</time></trkpt><trkpt lat="42.286402055439325" lon="13.655475866004192"><ele>783.0</ele><time>2026-05-03T08:15:43.998Z</time></trkpt><trkpt lat="42.28640704331303" lon="13.655570198861234"><ele>783.0</ele><time>2026-05-03T08:15:44.998Z</time></trkpt><trkpt lat="42.286403735471325" lon="13.655665581462944"><ele>783.0</ele><time>2026-05-03T08:15:45.998Z</time></trkpt><trkpt lat="42.28639182527124" lon="13.655775018220767"><ele>783.0</ele><time>2026-05-03T08:15:46.998Z</time></trkpt><trkpt lat="42.286381553956126" lon="13.655898555587648"><ele>783.0</ele><time>2026-05-03T08:15:47.998Z</time></trkpt><trkpt lat="42.28637471178945" lon="13.656032080333441"><ele>783.0</ele><time>2026-05-03T08:15:48.998Z</time></trkpt><trkpt lat="42.286366708383845" lon="13.656158553694379"><ele>783.6666666666666</ele><time>2026-05-03T08:15:50Z</time></trkpt><trkpt lat="42.28634354759261" lon="13.656272796963782"><ele>784.3333333333333</ele><time>2026-05-03T08:15:51Z</time></trkpt><trkpt lat="42.28635138313542" lon="13.656367567125066"><ele>785.0</ele><time>2026-05-03T08:15:52Z</time></trkpt><trkpt lat="42.286363713213824" lon="13.656459618469967"><ele>785.6666666666666</ele><time>2026-05-03T08:15:53Z</time></trkpt><trkpt lat="42.286392623048975" lon="13.656552624539012"><ele>786.3333333333333</ele><time>2026-05-03T08:15:54Z</time></trkpt><trkpt lat="42.286462066911966" lon="13.656605025279699"><ele>787.0</ele><time>2026-05-03T08:15:56Z</time></trkpt><trkpt lat="42.28653307194172" lon="13.656665418995432"><ele>790.6</ele><time>2026-05-03T08:15:58Z</time></trkpt><trkpt lat="42.28661437229884" lon="13.656751336241179"><ele>794.2</ele><time>2026-05-03T08:16:00Z</time></trkpt><trkpt lat="42.28667673363977" lon="13.656815556340169"><ele>797.8</ele><time>2026-05-03T08:16:02Z</time></trkpt><trkpt lat="42.28658910146026" lon="13.656942082219926"><ele>801.4</ele><time>2026-05-03T08:16:04Z</time></trkpt><trkpt lat="42.28654219917739" lon="13.657025817397026"><ele>805.0</ele><time>2026-05-03T08:16:05Z</time></trkpt><trkpt lat="42.286478007991576" lon="13.657100470829056"><ele>803.4999999999999</ele><time>2026-05-03T08:16:06Z</time></trkpt><trkpt lat="42.286412597591536" lon="13.657182878909943"><ele>802.0</ele><time>2026-05-03T08:16:07Z</time></trkpt><trkpt lat="42.2863509014412" lon="13.657275223260724"><ele>800.5</ele><time>2026-05-03T08:16:08Z</time></trkpt><trkpt lat="42.28629369983352" lon="13.657364649046666"><ele>799.0</ele><time>2026-05-03T08:16:09Z</time></trkpt><trkpt lat="42.28623820811331" lon="13.657451127785514"><ele>797.4999999999999</ele><time>2026-05-03T08:16:10Z</time></trkpt><trkpt lat="42.286189088738396" lon="13.657527675869645"><ele>796.0</ele><time>2026-05-03T08:16:11Z</time></trkpt><trkpt lat="42.28613997055924" lon="13.657599705099361"><ele>795.9999999999999</ele><time>2026-05-03T08:16:12Z</time></trkpt><trkpt lat="42.28609446384095" lon="13.657665177544997"><ele>796.0</ele><time>2026-05-03T08:16:13Z</time></trkpt><trkpt lat="42.286048017540516" lon="13.657732001818927"><ele>796.0</ele><time>2026-05-03T08:16:14Z</time></trkpt><trkpt lat="42.28599930040953" lon="13.657802093193673"><ele>796.0</ele><time>2026-05-03T08:16:15Z</time></trkpt><trkpt lat="42.28594428511669" lon="13.657880984987463"><ele>795.9999999999999</ele><time>2026-05-03T08:16:16Z</time></trkpt><trkpt lat="42.28588644778322" lon="13.657963329678488"><ele>796.0</ele><time>2026-05-03T08:16:17Z</time></trkpt><trkpt lat="42.2858306116343" lon="13.658044434957331"><ele>794.5999999999999</ele><time>2026-05-03T08:16:18Z</time></trkpt><trkpt lat="42.28577150198939" lon="13.658136757267872"><ele>793.2</ele><time>2026-05-03T08:16:19Z</time></trkpt><trkpt lat="42.28572814244557" lon="13.65824603446242"><ele>791.8</ele><time>2026-05-03T08:16:20Z</time></trkpt><trkpt lat="42.285677717048614" lon="13.658302869296552"><ele>790.4000000000001</ele><time>2026-05-03T08:16:21Z</time></trkpt><trkpt lat="42.28562640151212" lon="13.658390362755293"><ele>789.0</ele><time>2026-05-03T08:16:23Z</time></trkpt><trkpt lat="42.28553937209374" lon="13.65852839543297"><ele>789.0</ele><time>2026-05-03T08:16:25Z</time></trkpt><trkpt lat="42.28549370211413" lon="13.658599627383595"><ele>789.0</ele><time>2026-05-03T08:16:26Z</time></trkpt><trkpt lat="42.28545221331958" lon="13.6586705954156"><ele>789.0</ele><time>2026-05-03T08:16:27Z</time></trkpt><trkpt lat="42.28541507950917" lon="13.658739768822487"><ele>789.0</ele><time>2026-05-03T08:16:28Z</time></trkpt><trkpt lat="42.28534846837641" lon="13.658857727293062"><ele>789.0</ele><time>2026-05-03T08:16:30Z</time></trkpt><trkpt lat="42.28528196289635" lon="13.65896940047782"><ele>789.0</ele><time>2026-05-03T08:16:32Z</time></trkpt><trkpt lat="42.28520464180372" lon="13.659050049725797"><ele>790.8000000000001</ele><time>2026-05-03T08:16:34Z</time></trkpt><trkpt lat="42.28512452694864" lon="13.659146856604545"><ele>792.6</ele><time>2026-05-03T08:16:36Z</time></trkpt><trkpt lat="42.28503683439645" lon="13.659263233718734"><ele>794.4</ele><time>2026-05-03T08:16:38Z</time></trkpt><trkpt lat="42.28498920319735" lon="13.659334027433516"><ele>796.2</ele><time>2026-05-03T08:16:39Z</time></trkpt><trkpt lat="42.28494640291589" lon="13.659410413690605"><ele>798.0</ele><time>2026-05-03T08:16:40Z</time></trkpt><trkpt lat="42.2848892647925" lon="13.65955716060225"><ele>797.5</ele><time>2026-05-03T08:16:42Z</time></trkpt><trkpt lat="42.284872333398425" lon="13.6597343178864"><ele>797.0</ele><time>2026-05-03T08:16:43.999Z</time></trkpt><trkpt lat="42.284842403428904" lon="13.659831933756987"><ele>796.5</ele><time>2026-05-03T08:16:44.999Z</time></trkpt><trkpt lat="42.28480265819459" lon="13.659915509842735"><ele>796.0</ele><time>2026-05-03T08:16:45.999Z</time></trkpt><trkpt lat="42.28475421937663" lon="13.660004285017314"><ele>795.5</ele><time>2026-05-03T08:16:46.999Z</time></trkpt><trkpt lat="42.28469514592741" lon="13.660075141753518"><ele>795.0</ele><time>2026-05-03T08:16:47.999Z</time></trkpt><trkpt lat="42.28462871596889" lon="13.660162238449436"><ele>795.0</ele><time>2026-05-03T08:16:48.999Z</time></trkpt><trkpt lat="42.28455237555305" lon="13.66025055592801"><ele>795.0</ele><time>2026-05-03T08:16:49.999Z</time></trkpt><trkpt lat="42.28447092059752" lon="13.66033032859531"><ele>795.0</ele><time>2026-05-03T08:16:50.999Z</time></trkpt><trkpt lat="42.28438202070678" lon="13.660396995347028"><ele>795.0</ele><time>2026-05-03T08:16:51.999Z</time></trkpt><trkpt lat="42.284299109904595" lon="13.66047272841166"><ele>795.0</ele><time>2026-05-03T08:16:52.999Z</time></trkpt><trkpt lat="42.2842126781851" lon="13.66056102965327"><ele>800.25</ele><time>2026-05-03T08:16:53.999Z</time></trkpt><trkpt lat="42.28412975714084" lon="13.660664260685103"><ele>805.5</ele><time>2026-05-03T08:16:54.999Z</time></trkpt><trkpt lat="42.28405405955781" lon="13.660777626235083"><ele>810.75</ele><time>2026-05-03T08:16:55.999Z</time></trkpt><trkpt lat="42.28398960222239" lon="13.660905249659487"><ele>816.0</ele><time>2026-05-03T08:16:56.999Z</time></trkpt><trkpt lat="42.283931978817385" lon="13.661037933955434"><ele>814.75</ele><time>2026-05-03T08:16:57.999Z</time></trkpt><trkpt lat="42.28387479095578" lon="13.661175176204251"><ele>813.5</ele><time>2026-05-03T08:16:58.999Z</time></trkpt><trkpt lat="42.28381878882452" lon="13.661311134976943"><ele>812.25</ele><time>2026-05-03T08:16:59.999Z</time></trkpt><trkpt lat="42.283762542511965" lon="13.661447687006104"><ele>811.0</ele><time>2026-05-03T08:17:00.999Z</time></trkpt><trkpt lat="42.28370765969211" lon="13.661580928816113"><ele>811.0</ele><time>2026-05-03T08:17:01.999Z</time></trkpt><trkpt lat="42.28365213770067" lon="13.661715722371602"><ele>811.0</ele><time>2026-05-03T08:17:02.999Z</time></trkpt><trkpt lat="42.28366421558005" lon="13.661906768768471"><ele>811.0</ele><time>2026-05-03T08:17:03.999Z</time></trkpt><trkpt lat="42.28361975301416" lon="13.662056167271814"><ele>811.0</ele><time>2026-05-03T08:17:04.999Z</time></trkpt><trkpt lat="42.2835684371731" lon="13.662194686855335"><ele>815.75</ele><time>2026-05-03T08:17:05.999Z</time></trkpt><trkpt lat="42.28352231025034" lon="13.662340963865255"><ele>820.5</ele><time>2026-05-03T08:17:06.999Z</time></trkpt><trkpt lat="42.28346541715001" lon="13.662478769791267"><ele>825.25</ele><time>2026-05-03T08:17:07.999Z</time></trkpt><trkpt lat="42.28341148881177" lon="13.662613084941775"><ele>830.0</ele><time>2026-05-03T08:17:08.999Z</time></trkpt><trkpt lat="42.28336244563959" lon="13.66275483157648"><ele>834.0</ele><time>2026-05-03T08:17:09.999Z</time></trkpt><trkpt lat="42.28331631420005" lon="13.662900077490752"><ele>838.0</ele><time>2026-05-03T08:17:10.999Z</time></trkpt><trkpt lat="42.283268724631874" lon="13.663037172645723"><ele>842.0</ele><time>2026-05-03T08:17:11.999Z</time></trkpt><trkpt lat="42.28321415860181" lon="13.663164482672963"><ele>846.0</ele><time>2026-05-03T08:17:12.999Z</time></trkpt><trkpt lat="42.28315241157351" lon="13.663297913544884"><ele>841.5</ele><time>2026-05-03T08:17:13.999Z</time></trkpt><trkpt lat="42.28308611123734" lon="13.663438068169832"><ele>837.0</ele><time>2026-05-03T08:17:14.999Z</time></trkpt><trkpt lat="42.28302528949769" lon="13.663583688615716"><ele>832.5</ele><time>2026-05-03T08:17:15.999Z</time></trkpt><trkpt lat="42.282963920975604" lon="13.663730315124859"><ele>828.0</ele><time>2026-05-03T08:17:16.999Z</time></trkpt><trkpt lat="42.28289613548821" lon="13.66387238554713"><ele>828.0</ele><time>2026-05-03T08:17:17.999Z</time></trkpt><trkpt lat="42.28283150855725" lon="13.664020615408923"><ele>828.0</ele><time>2026-05-03T08:17:18.999Z</time></trkpt><trkpt lat="42.282764495335755" lon="13.664167171551128"><ele>828.0</ele><time>2026-05-03T08:17:19.999Z</time></trkpt><trkpt lat="42.28270022519901" lon="13.664315843487769"><ele>828.0</ele><time>2026-05-03T08:17:20.999Z</time></trkpt><trkpt lat="42.28264238323263" lon="13.664453697516969"><ele>831.75</ele><time>2026-05-03T08:17:21.999Z</time></trkpt><trkpt lat="42.28258433156556" lon="13.664592386493624"><ele>835.5</ele><time>2026-05-03T08:17:22.999Z</time></trkpt><trkpt lat="42.28252953188501" lon="13.664727722783832"><ele>839.25</ele><time>2026-05-03T08:17:23.999Z</time></trkpt><trkpt lat="42.28247222950508" lon="13.664861268803143"><ele>843.0</ele><time>2026-05-03T08:17:24.999Z</time></trkpt><trkpt lat="42.28241597549722" lon="13.665000704728651"><ele>843.0</ele><time>2026-05-03T08:17:25.999Z</time></trkpt><trkpt lat="42.282359354999144" lon="13.66513783481995"><ele>843.0</ele><time>2026-05-03T08:17:26.999Z</time></trkpt><trkpt lat="42.282300103949474" lon="13.665276363170044"><ele>843.0</ele><time>2026-05-03T08:17:27.999Z</time></trkpt><trkpt lat="42.28224004046555" lon="13.665411284266682"><ele>843.0</ele><time>2026-05-03T08:17:28.999Z</time></trkpt><trkpt lat="42.28217176668186" lon="13.665554185439902"><ele>842.75</ele><time>2026-05-03T08:17:29.999Z</time></trkpt><trkpt lat="42.282110792326755" lon="13.665707027393243"><ele>842.5</ele><time>2026-05-03T08:17:30.999Z</time></trkpt><trkpt lat="42.28204459231072" lon="13.665859536850089"><ele>842.25</ele><time>2026-05-03T08:17:31.999Z</time></trkpt><trkpt lat="42.28198251142514" lon="13.66601614814592"><ele>842.0</ele><time>2026-05-03T08:17:32.999Z</time></trkpt><trkpt lat="42.28192473171002" lon="13.666164386230685"><ele>842.0</ele><time>2026-05-03T08:17:33.999Z</time></trkpt><trkpt lat="42.2818656591889" lon="13.666308568787198"><ele>842.0</ele><time>2026-05-03T08:17:34.999Z</time></trkpt><trkpt lat="42.28180462993614" lon="13.666444736614375"><ele>842.0</ele><time>2026-05-03T08:17:35.999Z</time></trkpt><trkpt lat="42.28174688192452" lon="13.666579205819753"><ele>842.0</ele><time>2026-05-03T08:17:36.999Z</time></trkpt><trkpt lat="42.28169062917402" lon="13.66671682800289"><ele>842.0</ele><time>2026-05-03T08:17:37.999Z</time></trkpt><trkpt lat="42.28162743916266" lon="13.666842627826151"><ele>842.0</ele><time>2026-05-03T08:17:38.999Z</time></trkpt><trkpt lat="42.28157036941684" lon="13.66696352375979"><ele>842.0</ele><time>2026-05-03T08:17:39.999Z</time></trkpt><trkpt lat="42.281505185937874" lon="13.667095643019234"><ele>842.0</ele><time>2026-05-03T08:17:40.999Z</time></trkpt><trkpt lat="42.28144323083161" lon="13.66722555856762"><ele>842.2</ele><time>2026-05-03T08:17:41.999Z</time></trkpt><trkpt lat="42.281386656026754" lon="13.667361675794734"><ele>842.4000000000001</ele><time>2026-05-03T08:17:42.999Z</time></trkpt><trkpt lat="42.281332399232404" lon="13.667491496933742"><ele>842.5999999999999</ele><time>2026-05-03T08:17:43.999Z</time></trkpt><trkpt lat="42.28128191644211" lon="13.667619054272116"><ele>842.8</ele><time>2026-05-03T08:17:44.999Z</time></trkpt><trkpt lat="42.28122696533982" lon="13.667751200200486"><ele>843.0</ele><time>2026-05-03T08:17:45.999Z</time></trkpt><trkpt lat="42.28116704687846" lon="13.667875403395724"><ele>843.0</ele><time>2026-05-03T08:17:46.999Z</time></trkpt><trkpt lat="42.281108585925914" lon="13.667996535657684"><ele>843.0</ele><time>2026-05-03T08:17:47.999Z</time></trkpt><trkpt lat="42.2810518386909" lon="13.668122391869757"><ele>843.0</ele><time>2026-05-03T08:17:48.999Z</time></trkpt><trkpt lat="42.28098673861975" lon="13.668236682905395"><ele>843.0</ele><time>2026-05-03T08:17:49.998Z</time></trkpt><trkpt lat="42.28091926636967" lon="13.668361954504675"><ele>843.0</ele><time>2026-05-03T08:17:50.998Z</time></trkpt><trkpt lat="42.28085375129225" lon="13.668483177888314"><ele>843.0</ele><time>2026-05-03T08:17:51.998Z</time></trkpt><trkpt lat="42.280784330234624" lon="13.668600509593189"><ele>843.0</ele><time>2026-05-03T08:17:52.998Z</time></trkpt><trkpt lat="42.280710541011146" lon="13.668719676864631"><ele>843.0</ele><time>2026-05-03T08:17:53.998Z</time></trkpt><trkpt lat="42.28063066539431" lon="13.668837892527108"><ele>843.0</ele><time>2026-05-03T08:17:55Z</time></trkpt><trkpt lat="42.28055237383534" lon="13.668957734924708"><ele>841.4</ele><time>2026-05-03T08:17:56Z</time></trkpt><trkpt lat="42.280476238096405" lon="13.669064248816657"><ele>839.8</ele><time>2026-05-03T08:17:57Z</time></trkpt><trkpt lat="42.2803984086835" lon="13.669175440269445"><ele>838.2</ele><time>2026-05-03T08:17:58Z</time></trkpt><trkpt lat="42.28032247566894" lon="13.66928543833555"><ele>836.6</ele><time>2026-05-03T08:17:59Z</time></trkpt><trkpt lat="42.28025055578972" lon="13.669403224705174"><ele>835.0</ele><time>2026-05-03T08:18:00Z</time></trkpt><trkpt lat="42.280179460318486" lon="13.669517920886681"><ele>838.2</ele><time>2026-05-03T08:18:01Z</time></trkpt><trkpt lat="42.28010496564267" lon="13.669628903489865"><ele>841.4</ele><time>2026-05-03T08:18:02Z</time></trkpt><trkpt lat="42.28003846530846" lon="13.669739344150004"><ele>844.5999999999999</ele><time>2026-05-03T08:18:03Z</time></trkpt><trkpt lat="42.27996944694289" lon="13.66984455813627"><ele>847.8</ele><time>2026-05-03T08:18:04Z</time></trkpt><trkpt lat="42.279895340728054" lon="13.669950460167268"><ele>851.0</ele><time>2026-05-03T08:18:05Z</time></trkpt><trkpt lat="42.27981725051588" lon="13.670065521093369"><ele>849.0</ele><time>2026-05-03T08:18:06Z</time></trkpt><trkpt lat="42.279742571044615" lon="13.670182230592763"><ele>847.0</ele><time>2026-05-03T08:18:07Z</time></trkpt><trkpt lat="42.27966739329897" lon="13.670294653274633"><ele>845.0</ele><time>2026-05-03T08:18:08Z</time></trkpt><trkpt lat="42.279583069075166" lon="13.670412708212133"><ele>843.0</ele><time>2026-05-03T08:18:09Z</time></trkpt><trkpt lat="42.279502073172814" lon="13.670535545851614"><ele>843.0</ele><time>2026-05-03T08:18:10Z</time></trkpt><trkpt lat="42.27941871413163" lon="13.670660842365734"><ele>843.0</ele><time>2026-05-03T08:18:11Z</time></trkpt><trkpt lat="42.279338994013656" lon="13.670784577747176"><ele>843.0</ele><time>2026-05-03T08:18:12Z</time></trkpt><trkpt lat="42.27925491925677" lon="13.670900750398976"><ele>843.0</ele><time>2026-05-03T08:18:13Z</time></trkpt><trkpt lat="42.27916892274792" lon="13.671019264516778"><ele>841.5</ele><time>2026-05-03T08:18:14Z</time></trkpt><trkpt lat="42.27908818322633" lon="13.671146793105825"><ele>840.0</ele><time>2026-05-03T08:18:15Z</time></trkpt><trkpt lat="42.279000640331645" lon="13.671258501632712"><ele>838.5</ele><time>2026-05-03T08:18:16Z</time></trkpt><trkpt lat="42.27891364758259" lon="13.671378205616335"><ele>837.0</ele><time>2026-05-03T08:18:17Z</time></trkpt><trkpt lat="42.278829172903876" lon="13.67150189410137"><ele>837.0</ele><time>2026-05-03T08:18:18Z</time></trkpt><trkpt lat="42.27874918799741" lon="13.67162303491652"><ele>837.0</ele><time>2026-05-03T08:18:19Z</time></trkpt><trkpt lat="42.27866953520155" lon="13.671737908307266"><ele>837.0</ele><time>2026-05-03T08:18:20Z</time></trkpt><trkpt lat="42.27858980897465" lon="13.671855527522581"><ele>837.0</ele><time>2026-05-03T08:18:21Z</time></trkpt><trkpt lat="42.27850882132244" lon="13.67198306430786"><ele>840.75</ele><time>2026-05-03T08:18:22Z</time></trkpt><trkpt lat="42.27843400208901" lon="13.67210543457136"><ele>844.5</ele><time>2026-05-03T08:18:23Z</time></trkpt><trkpt lat="42.278359408333706" lon="13.672231145694038"><ele>848.25</ele><time>2026-05-03T08:18:24Z</time></trkpt><trkpt lat="42.278286363420456" lon="13.672349096972445"><ele>852.0</ele><time>2026-05-03T08:18:25Z</time></trkpt><trkpt lat="42.278209333892754" lon="13.672469334686719"><ele>852.0</ele><time>2026-05-03T08:18:26Z</time></trkpt><trkpt lat="42.27812815323987" lon="13.672586263917712"><ele>852.0</ele><time>2026-05-03T08:18:27Z</time></trkpt><trkpt lat="42.278042748906266" lon="13.672714620805817"><ele>852.0</ele><time>2026-05-03T08:18:28Z</time></trkpt><trkpt lat="42.27795676875251" lon="13.67284203497638"><ele>852.0</ele><time>2026-05-03T08:18:29Z</time></trkpt><trkpt lat="42.27786990693065" lon="13.672972731770779"><ele>849.25</ele><time>2026-05-03T08:18:30Z</time></trkpt><trkpt lat="42.277789040171314" lon="13.673097274947432"><ele>846.5</ele><time>2026-05-03T08:18:31Z</time></trkpt><trkpt lat="42.277707286316755" lon="13.673217078777745"><ele>843.75</ele><time>2026-05-03T08:18:32Z</time></trkpt><trkpt lat="42.27762023091257" lon="13.67333015284734"><ele>841.0</ele><time>2026-05-03T08:18:33Z</time></trkpt><trkpt lat="42.2775388870644" lon="13.673445604337843"><ele>841.0</ele><time>2026-05-03T08:18:34Z</time></trkpt><trkpt lat="42.27745855264545" lon="13.673562983869175"><ele>841.0</ele><time>2026-05-03T08:18:35Z</time></trkpt><trkpt lat="42.27737571170518" lon="13.673685458669448"><ele>841.0</ele><time>2026-05-03T08:18:36Z</time></trkpt><trkpt lat="42.27729263630816" lon="13.67380310404055"><ele>841.0</ele><time>2026-05-03T08:18:37Z</time></trkpt><trkpt lat="42.27720502815508" lon="13.67392701566977"><ele>840.5</ele><time>2026-05-03T08:18:38Z</time></trkpt><trkpt lat="42.27712337071992" lon="13.674052221828587"><ele>840.0</ele><time>2026-05-03T08:18:39Z</time></trkpt><trkpt lat="42.27704402967618" lon="13.674181348967958"><ele>839.5</ele><time>2026-05-03T08:18:40Z</time></trkpt><trkpt lat="42.27696547895946" lon="13.67431194186017"><ele>839.0</ele><time>2026-05-03T08:18:41Z</time></trkpt><trkpt lat="42.27688423634514" lon="13.674426999494369"><ele>842.25</ele><time>2026-05-03T08:18:42Z</time></trkpt><trkpt lat="42.276804365920675" lon="13.674538876523126"><ele>845.5</ele><time>2026-05-03T08:18:43Z</time></trkpt><trkpt lat="42.276726458358155" lon="13.674651384600876"><ele>848.75</ele><time>2026-05-03T08:18:43.999Z</time></trkpt><trkpt lat="42.27664513250871" lon="13.674761984810395"><ele>852.0</ele><time>2026-05-03T08:18:44.999Z</time></trkpt><trkpt lat="42.27655962518305" lon="13.674878894660651"><ele>852.0</ele><time>2026-05-03T08:18:45.999Z</time></trkpt><trkpt lat="42.27647701143851" lon="13.674997305673031"><ele>852.0</ele><time>2026-05-03T08:18:46.999Z</time></trkpt><trkpt lat="42.276387367691385" lon="13.675109270992968"><ele>852.0</ele><time>2026-05-03T08:18:47.999Z</time></trkpt><trkpt lat="42.27629725938027" lon="13.675223245893791"><ele>852.0</ele><time>2026-05-03T08:18:48.999Z</time></trkpt><trkpt lat="42.27620903949125" lon="13.675338630839041"><ele>851.0</ele><time>2026-05-03T08:18:49.999Z</time></trkpt><trkpt lat="42.276123241402104" lon="13.675464095815176"><ele>850.0</ele><time>2026-05-03T08:18:50.999Z</time></trkpt><trkpt lat="42.27603531067459" lon="13.675581958875968"><ele>849.0</ele><time>2026-05-03T08:18:51.999Z</time></trkpt><trkpt lat="42.275948878775196" lon="13.675699611885884"><ele>848.0</ele><time>2026-05-03T08:18:52.999Z</time></trkpt><trkpt lat="42.27585733416323" lon="13.675812087862665"><ele>848.0</ele><time>2026-05-03T08:18:53.999Z</time></trkpt><trkpt lat="42.275770067035694" lon="13.675934849753823"><ele>848.0</ele><time>2026-05-03T08:18:54.999Z</time></trkpt><trkpt lat="42.27568447504603" lon="13.676049974919376"><ele>848.0</ele><time>2026-05-03T08:18:55.999Z</time></trkpt><trkpt lat="42.275592588654845" lon="13.676166608110544"><ele>848.0</ele><time>2026-05-03T08:18:56.999Z</time></trkpt><trkpt lat="42.275501743170985" lon="13.676292772741968"><ele>847.5</ele><time>2026-05-03T08:18:57.999Z</time></trkpt><trkpt lat="42.275411159640385" lon="13.676414054736833"><ele>847.0</ele><time>2026-05-03T08:18:58.999Z</time></trkpt><trkpt lat="42.27532386286293" lon="13.67653525904778"><ele>846.5</ele><time>2026-05-03T08:18:59.999Z</time></trkpt><trkpt lat="42.275233428897195" lon="13.676644665027975"><ele>846.0</ele><time>2026-05-03T08:19:00.999Z</time></trkpt><trkpt lat="42.275151645150046" lon="13.676758681797182"><ele>846.0</ele><time>2026-05-03T08:19:01.999Z</time></trkpt><trkpt lat="42.27507077743962" lon="13.676877200510958"><ele>846.0</ele><time>2026-05-03T08:19:02.999Z</time></trkpt><trkpt lat="42.2749863831603" lon="13.676991842855095"><ele>846.0</ele><time>2026-05-03T08:19:03.999Z</time></trkpt><trkpt lat="42.274898707692245" lon="13.677106998154184"><ele>846.0</ele><time>2026-05-03T08:19:04.999Z</time></trkpt><trkpt lat="42.274824505778135" lon="13.677215302642914"><ele>846.5999999999999</ele><time>2026-05-03T08:19:05.999Z</time></trkpt><trkpt lat="42.27475693239665" lon="13.67730949583241"><ele>847.2</ele><time>2026-05-03T08:19:06.999Z</time></trkpt><trkpt lat="42.27468355225874" lon="13.67741201326101"><ele>847.8</ele><time>2026-05-03T08:19:07.999Z</time></trkpt><trkpt lat="42.27460543453685" lon="13.677508802909246"><ele>848.4000000000001</ele><time>2026-05-03T08:19:08.999Z</time></trkpt><trkpt lat="42.27451994483018" lon="13.677610451897813"><ele>849.0</ele><time>2026-05-03T08:19:09.999Z</time></trkpt><trkpt lat="42.274437705714156" lon="13.677720099517618"><ele>852.8000000000001</ele><time>2026-05-03T08:19:10.999Z</time></trkpt><trkpt lat="42.27435492851718" lon="13.677823655893965"><ele>856.6</ele><time>2026-05-03T08:19:11.999Z</time></trkpt><trkpt lat="42.27427615618178" lon="13.677916663163874"><ele>860.4</ele><time>2026-05-03T08:19:12.999Z</time></trkpt><trkpt lat="42.27420335746496" lon="13.678001897089986"><ele>864.2</ele><time>2026-05-03T08:19:13.999Z</time></trkpt><trkpt lat="42.274124976290125" lon="13.678112208635778"><ele>868.0</ele><time>2026-05-03T08:19:14.999Z</time></trkpt><trkpt lat="42.27404325075911" lon="13.678221353282542"><ele>868.0</ele><time>2026-05-03T08:19:15.999Z</time></trkpt><trkpt lat="42.27396259962398" lon="13.678326628044182"><ele>868.0</ele><time>2026-05-03T08:19:16.999Z</time></trkpt><trkpt lat="42.27388446905498" lon="13.678429192560042"><ele>868.0</ele><time>2026-05-03T08:19:17.999Z</time></trkpt><trkpt lat="42.27380528523142" lon="13.678531478644567"><ele>868.0</ele><time>2026-05-03T08:19:18.999Z</time></trkpt><trkpt lat="42.27372740306778" lon="13.678638774584941"><ele>868.0</ele><time>2026-05-03T08:19:19.999Z</time></trkpt><trkpt lat="42.27365035643332" lon="13.678750674861158"><ele>867.25</ele><time>2026-05-03T08:19:20.999Z</time></trkpt><trkpt lat="42.27357273695248" lon="13.678867709768832"><ele>866.5</ele><time>2026-05-03T08:19:21.999Z</time></trkpt><trkpt lat="42.273487498828544" lon="13.678989658373897"><ele>865.75</ele><time>2026-05-03T08:19:22.999Z</time></trkpt><trkpt lat="42.2734101793644" lon="13.67911626121616"><ele>865.0</ele><time>2026-05-03T08:19:23.999Z</time></trkpt><trkpt lat="42.273340593157435" lon="13.67925092232968"><ele>865.0</ele><time>2026-05-03T08:19:24.999Z</time></trkpt><trkpt lat="42.27327571596496" lon="13.679382970630648"><ele>865.0</ele><time>2026-05-03T08:19:25.999Z</time></trkpt><trkpt lat="42.27321051876158" lon="13.679518201498187"><ele>865.0</ele><time>2026-05-03T08:19:26.999Z</time></trkpt><trkpt lat="42.273145849047616" lon="13.679663836687336"><ele>865.0</ele><time>2026-05-03T08:19:27.999Z</time></trkpt><trkpt lat="42.27309157534926" lon="13.679816019846072"><ele>864.5</ele><time>2026-05-03T08:19:28.999Z</time></trkpt><trkpt lat="42.27303621865754" lon="13.679976849884422"><ele>864.0</ele><time>2026-05-03T08:19:29.999Z</time></trkpt><trkpt lat="42.27298464747119" lon="13.68013478676449"><ele>863.5</ele><time>2026-05-03T08:19:30.999Z</time></trkpt><trkpt lat="42.272926296460156" lon="13.680300900691806"><ele>863.0</ele><time>2026-05-03T08:19:31.999Z</time></trkpt><trkpt lat="42.2728700083864" lon="13.680466004073022"><ele>863.0</ele><time>2026-05-03T08:19:32.999Z</time></trkpt><trkpt lat="42.27281254740546" lon="13.680625390368554"><ele>863.0</ele><time>2026-05-03T08:19:33.999Z</time></trkpt><trkpt lat="42.27274705787078" lon="13.680778893826933"><ele>863.0</ele><time>2026-05-03T08:19:34.999Z</time></trkpt><trkpt lat="42.272687047310534" lon="13.680937105981204"><ele>863.0</ele><time>2026-05-03T08:19:35.999Z</time></trkpt><trkpt lat="42.27262433572679" lon="13.681094326431834"><ele>865.75</ele><time>2026-05-03T08:19:36.999Z</time></trkpt><trkpt lat="42.27256525792859" lon="13.681253317944432"><ele>868.5</ele><time>2026-05-03T08:19:37.999Z</time></trkpt><trkpt lat="42.27250178363583" lon="13.681407816758314"><ele>871.25</ele><time>2026-05-03T08:19:38.999Z</time></trkpt><trkpt lat="42.27243803008661" lon="13.681564700109185"><ele>874.0</ele><time>2026-05-03T08:19:39.999Z</time></trkpt><trkpt lat="42.27237834772364" lon="13.68172322077339"><ele>874.0</ele><time>2026-05-03T08:19:40.999Z</time></trkpt><trkpt lat="42.27231741574323" lon="13.681881955907027"><ele>874.0</ele><time>2026-05-03T08:19:41.999Z</time></trkpt><trkpt lat="42.272254198616146" lon="13.682030061622322"><ele>874.0</ele><time>2026-05-03T08:19:42.999Z</time></trkpt><trkpt lat="42.272199182768624" lon="13.682176400509265"><ele>874.0</ele><time>2026-05-03T08:19:43.999Z</time></trkpt><trkpt lat="42.272140209869406" lon="13.682328029600484"><ele>873.5</ele><time>2026-05-03T08:19:44.999Z</time></trkpt><trkpt lat="42.27208218965926" lon="13.682475121604735"><ele>873.0</ele><time>2026-05-03T08:19:45.999Z</time></trkpt><trkpt lat="42.27202488587755" lon="13.682618371735868"><ele>872.5</ele><time>2026-05-03T08:19:46.999Z</time></trkpt><trkpt lat="42.27197001848829" lon="13.682760196658894"><ele>872.0</ele><time>2026-05-03T08:19:47.999Z</time></trkpt><trkpt lat="42.2719173423475" lon="13.682902947753714"><ele>872.0</ele><time>2026-05-03T08:19:48.999Z</time></trkpt><trkpt lat="42.27186288614469" lon="13.683038486096484"><ele>872.0</ele><time>2026-05-03T08:19:49.999Z</time></trkpt><trkpt lat="42.27181718707812" lon="13.683177668074416"><ele>872.0</ele><time>2026-05-03T08:19:50.999Z</time></trkpt><trkpt lat="42.27177578441696" lon="13.683316787511432"><ele>872.0</ele><time>2026-05-03T08:19:51.999Z</time></trkpt><trkpt lat="42.2717335370142" lon="13.683460343996215"><ele>875.4000000000001</ele><time>2026-05-03T08:19:52.999Z</time></trkpt><trkpt lat="42.27169466178235" lon="13.683601077700446"><ele>878.8000000000001</ele><time>2026-05-03T08:19:53.998Z</time></trkpt><trkpt lat="42.27165989249239" lon="13.68373052020843"><ele>882.2</ele><time>2026-05-03T08:19:54.998Z</time></trkpt><trkpt lat="42.2716221228648" lon="13.683856950524342"><ele>885.6</ele><time>2026-05-03T08:19:55.998Z</time></trkpt><trkpt lat="42.271586253967435" lon="13.68395802556767"><ele>889.0</ele><time>2026-05-03T08:19:56.998Z</time></trkpt><trkpt lat="42.27155180744159" lon="13.684063790324931"><ele>889.0</ele><time>2026-05-03T08:19:57.998Z</time></trkpt><trkpt lat="42.27150479155376" lon="13.684163495612092"><ele>889.0000000000001</ele><time>2026-05-03T08:19:58.998Z</time></trkpt><trkpt lat="42.2714498393673" lon="13.684262108531463"><ele>889.0000000000001</ele><time>2026-05-03T08:20:00Z</time></trkpt><trkpt lat="42.27139400741981" lon="13.684357466816039"><ele>889.0</ele><time>2026-05-03T08:20:01Z</time></trkpt><trkpt lat="42.27133222644008" lon="13.684458103124165"><ele>889.0</ele><time>2026-05-03T08:20:02Z</time></trkpt><trkpt lat="42.27126980094734" lon="13.684553712351654"><ele>888.4999999999999</ele><time>2026-05-03T08:20:03Z</time></trkpt><trkpt lat="42.27120993870235" lon="13.684641908506372"><ele>888.0</ele><time>2026-05-03T08:20:04Z</time></trkpt><trkpt lat="42.271155396137004" lon="13.684736101194805"><ele>887.5</ele><time>2026-05-03T08:20:05Z</time></trkpt><trkpt lat="42.27110841497278" lon="13.6848279549337"><ele>887.0</ele><time>2026-05-03T08:20:06Z</time></trkpt><trkpt lat="42.27105987225395" lon="13.684911545548344"><ele>886.4999999999999</ele><time>2026-05-03T08:20:07Z</time></trkpt><trkpt lat="42.27101282364658" lon="13.684975919235388"><ele>886.0</ele><time>2026-05-03T08:20:08Z</time></trkpt><trkpt lat="42.270949074117645" lon="13.685088545817042"><ele>886.0</ele><time>2026-05-03T08:20:10Z</time></trkpt><trkpt lat="42.270904444564145" lon="13.685165422155816"><ele>886.0</ele><time>2026-05-03T08:20:11Z</time></trkpt><trkpt lat="42.27086634801022" lon="13.685257741405621"><ele>886.0</ele><time>2026-05-03T08:20:12Z</time></trkpt><trkpt lat="42.270829029442865" lon="13.685355610613867"><ele>886.0</ele><time>2026-05-03T08:20:13Z</time></trkpt><trkpt lat="42.27079183171338" lon="13.685439011578483"><ele>886.0</ele><time>2026-05-03T08:20:14Z</time></trkpt><trkpt lat="42.27075240717817" lon="13.685505810670133"><ele>886.0</ele><time>2026-05-03T08:20:15Z</time></trkpt><trkpt lat="42.27071567130384" lon="13.685581958538513"><ele>886.0</ele><time>2026-05-03T08:20:16Z</time></trkpt><trkpt lat="42.270694626357184" lon="13.685669278841946"><ele>885.6666666666666</ele><time>2026-05-03T08:20:17Z</time></trkpt><trkpt lat="42.270672182734" lon="13.68575644028145"><ele>885.3333333333333</ele><time>2026-05-03T08:20:18Z</time></trkpt><trkpt lat="42.27064077710791" lon="13.685843382511214"><ele>885.0</ele><time>2026-05-03T08:20:19Z</time></trkpt><trkpt lat="42.27061668949737" lon="13.685940227267238"><ele>884.6666666666667</ele><time>2026-05-03T08:20:20Z</time></trkpt><trkpt lat="42.27059732194677" lon="13.686037418009573"><ele>884.3333333333334</ele><time>2026-05-03T08:20:21Z</time></trkpt><trkpt lat="42.270591734418744" lon="13.686146405007264"><ele>884.0</ele><time>2026-05-03T08:20:22Z</time></trkpt><trkpt lat="42.27059740777504" lon="13.68626393102894"><ele>889.5000000000001</ele><time>2026-05-03T08:20:23Z</time></trkpt><trkpt lat="42.270608552764266" lon="13.686371138230378"><ele>895.0</ele><time>2026-05-03T08:20:24Z</time></trkpt><trkpt lat="42.270620282451" lon="13.686481902382656"><ele>900.5</ele><time>2026-05-03T08:20:25Z</time></trkpt><trkpt lat="42.27063743946727" lon="13.686593005898137"><ele>906.0</ele><time>2026-05-03T08:20:26Z</time></trkpt><trkpt lat="42.27066515475608" lon="13.686697178827814"><ele>911.5000000000001</ele><time>2026-05-03T08:20:27Z</time></trkpt><trkpt lat="42.27070097753752" lon="13.686788872869888"><ele>917.0</ele><time>2026-05-03T08:20:28Z</time></trkpt><trkpt lat="42.27073961759352" lon="13.68688771760245"><ele>918.1666666666667</ele><time>2026-05-03T08:20:29Z</time></trkpt><trkpt lat="42.27076858313939" lon="13.68699375492621"><ele>919.3333333333334</ele><time>2026-05-03T08:20:30Z</time></trkpt><trkpt lat="42.27077401342932" lon="13.687101007662571"><ele>920.5</ele><time>2026-05-03T08:20:31Z</time></trkpt><trkpt lat="42.27077668713612" lon="13.687198509112937"><ele>921.6666666666667</ele><time>2026-05-03T08:20:32Z</time></trkpt><trkpt lat="42.27077646819189" lon="13.687331284934428"><ele>922.8333333333334</ele><time>2026-05-03T08:20:33Z</time></trkpt><trkpt lat="42.2707800758031" lon="13.68746142398572"><ele>924.0</ele><time>2026-05-03T08:20:34Z</time></trkpt><trkpt lat="42.27077037298192" lon="13.68758011702564"><ele>924.0</ele><time>2026-05-03T08:20:35Z</time></trkpt><trkpt lat="42.27075194567693" lon="13.687710125295034"><ele>924.0</ele><time>2026-05-03T08:20:36Z</time></trkpt><trkpt lat="42.27072654092059" lon="13.687834058357888"><ele>924.0</ele><time>2026-05-03T08:20:37Z</time></trkpt><trkpt lat="42.27072034992016" lon="13.687945090049002"><ele>924.0</ele><time>2026-05-03T08:20:38Z</time></trkpt><trkpt lat="42.270726247748506" lon="13.688039563013573"><ele>924.0</ele><time>2026-05-03T08:20:39Z</time></trkpt><trkpt lat="42.27075246072399" lon="13.688123124139803"><ele>924.0</ele><time>2026-05-03T08:20:40Z</time></trkpt><trkpt lat="42.27080627645461" lon="13.688182655930717"><ele>924.0</ele><time>2026-05-03T08:20:41Z</time></trkpt><trkpt lat="42.27087393552228" lon="13.688192836203832"><ele>924.0000000000001</ele><time>2026-05-03T08:20:42Z</time></trkpt><trkpt lat="42.27095475371231" lon="13.688099535769206"><ele>924.0000000000001</ele><time>2026-05-03T08:20:44Z</time></trkpt><trkpt lat="42.27100602636049" lon="13.687938011632347"><ele>924.0</ele><time>2026-05-03T08:20:46Z</time></trkpt><trkpt lat="42.27102505476881" lon="13.687767989372443"><ele>924.0</ele><time>2026-05-03T08:20:48Z</time></trkpt><trkpt lat="42.27105571985075" lon="13.687683583613104"><ele>924.0</ele><time>2026-05-03T08:20:49Z</time></trkpt><trkpt lat="42.27107265057587" lon="13.687576295296878"><ele>924.0000000000001</ele><time>2026-05-03T08:20:50Z</time></trkpt><trkpt lat="42.271123964464095" lon="13.687378653644304"><ele>924.0000000000001</ele><time>2026-05-03T08:20:52Z</time></trkpt><trkpt lat="42.271158067564784" lon="13.687264703161663"><ele>924.0</ele><time>2026-05-03T08:20:53Z</time></trkpt><trkpt lat="42.27118100741864" lon="13.687153270558444"><ele>924.0</ele><time>2026-05-03T08:20:54Z</time></trkpt><trkpt lat="42.27121430835886" lon="13.687065310076537"><ele>924.0</ele><time>2026-05-03T08:20:55Z</time></trkpt><trkpt lat="42.271243664794525" lon="13.686977081862914"><ele>924.0</ele><time>2026-05-03T08:20:55.999Z</time></trkpt><trkpt lat="42.27129747861963" lon="13.6868987471849"><ele>924.0</ele><time>2026-05-03T08:20:56.999Z</time></trkpt><trkpt lat="42.2713478566142" lon="13.686843799477671"><ele>924.0</ele><time>2026-05-03T08:20:57.999Z</time></trkpt><trkpt lat="42.271422695731836" lon="13.686849742123686"><ele>924.0</ele><time>2026-05-03T08:20:59.999Z</time></trkpt><trkpt lat="42.271475555381" lon="13.686980967228632"><ele>924.0</ele><time>2026-05-03T08:21:01.999Z</time></trkpt><trkpt lat="42.27143334884084" lon="13.687138009848853"><ele>924.0</ele><time>2026-05-03T08:21:03.999Z</time></trkpt><trkpt lat="42.271389455777964" lon="13.687218013463704"><ele>924.0</ele><time>2026-05-03T08:21:04.999Z</time></trkpt><trkpt lat="42.2713611990533" lon="13.687312401336529"><ele>924.0</ele><time>2026-05-03T08:21:05.999Z</time></trkpt><trkpt lat="42.27134680132892" lon="13.68741163821855"><ele>924.0</ele><time>2026-05-03T08:21:06.999Z</time></trkpt><trkpt lat="42.27134494100253" lon="13.68750693601104"><ele>924.0</ele><time>2026-05-03T08:21:07.999Z</time></trkpt><trkpt lat="42.271360635867204" lon="13.687633749206167"><ele>924.0</ele><time>2026-05-03T08:21:08.999Z</time></trkpt><trkpt lat="42.271375084486905" lon="13.687749754140194"><ele>923.3333333333334</ele><time>2026-05-03T08:21:09.999Z</time></trkpt><trkpt lat="42.271395024865036" lon="13.687874243767748"><ele>922.6666666666667</ele><time>2026-05-03T08:21:10.999Z</time></trkpt><trkpt lat="42.27142829932206" lon="13.687984841164411"><ele>922.0</ele><time>2026-05-03T08:21:11.999Z</time></trkpt><trkpt lat="42.2714745708825" lon="13.688084489126208"><ele>921.3333333333334</ele><time>2026-05-03T08:21:12.999Z</time></trkpt><trkpt lat="42.27153187059454" lon="13.688166498052377"><ele>920.6666666666667</ele><time>2026-05-03T08:21:13.999Z</time></trkpt><trkpt lat="42.27160460377224" lon="13.68823766732972"><ele>920.0</ele><time>2026-05-03T08:21:14.999Z</time></trkpt><trkpt lat="42.27168778739541" lon="13.688285790518902"><ele>924.4</ele><time>2026-05-03T08:21:15.999Z</time></trkpt><trkpt lat="42.27178387449822" lon="13.68832682713573"><ele>928.8</ele><time>2026-05-03T08:21:16.999Z</time></trkpt><trkpt lat="42.271885292073875" lon="13.688353387365172"><ele>933.2</ele><time>2026-05-03T08:21:17.999Z</time></trkpt><trkpt lat="42.27198787735196" lon="13.688388401514063"><ele>937.6</ele><time>2026-05-03T08:21:18.999Z</time></trkpt><trkpt lat="42.27208531748511" lon="13.688452548860466"><ele>942.0</ele><time>2026-05-03T08:21:19.999Z</time></trkpt><trkpt lat="42.272187409279226" lon="13.688506719748364"><ele>940.8</ele><time>2026-05-03T08:21:20.999Z</time></trkpt><trkpt lat="42.27228665704649" lon="13.68855372939406"><ele>939.6</ele><time>2026-05-03T08:21:21.999Z</time></trkpt><trkpt lat="42.27237510436147" lon="13.68859439372701"><ele>938.3999999999999</ele><time>2026-05-03T08:21:22.999Z</time></trkpt><trkpt lat="42.27246123787212" lon="13.688636952390661"><ele>937.1999999999999</ele><time>2026-05-03T08:21:23.999Z</time></trkpt><trkpt lat="42.27255204274276" lon="13.688700221332628"><ele>936.0</ele><time>2026-05-03T08:21:24.999Z</time></trkpt><trkpt lat="42.27264324483086" lon="13.688770548579742"><ele>936.0</ele><time>2026-05-03T08:21:25.999Z</time></trkpt><trkpt lat="42.27273827450442" lon="13.68883775060754"><ele>935.9999999999999</ele><time>2026-05-03T08:21:26.999Z</time></trkpt><trkpt lat="42.272834012995375" lon="13.688915284898954"><ele>935.9999999999999</ele><time>2026-05-03T08:21:27.999Z</time></trkpt><trkpt lat="42.2729242343316" lon="13.689006998698783"><ele>936.0</ele><time>2026-05-03T08:21:28.999Z</time></trkpt><trkpt lat="42.27301366658604" lon="13.689085777087291"><ele>936.0</ele><time>2026-05-03T08:21:29.999Z</time></trkpt><trkpt lat="42.27309517584641" lon="13.689180082690893"><ele>936.1999999999999</ele><time>2026-05-03T08:21:30.999Z</time></trkpt><trkpt lat="42.27313717656287" lon="13.689306694631611"><ele>936.3999999999999</ele><time>2026-05-03T08:21:31.999Z</time></trkpt><trkpt lat="42.2732627204202" lon="13.68936791364104"><ele>936.6</ele><time>2026-05-03T08:21:32.999Z</time></trkpt><trkpt lat="42.27334779689848" lon="13.689446451564942"><ele>936.8</ele><time>2026-05-03T08:21:33.999Z</time></trkpt><trkpt lat="42.273434680511784" lon="13.689515779332016"><ele>937.0</ele><time>2026-05-03T08:21:34.999Z</time></trkpt><trkpt lat="42.27352077729575" lon="13.689541601906654"><ele>937.0</ele><time>2026-05-03T08:21:35.999Z</time></trkpt><trkpt lat="42.27360937865074" lon="13.68953606590122"><ele>937.0</ele><time>2026-05-03T08:21:36.999Z</time></trkpt><trkpt lat="42.27371124387741" lon="13.689520567999883"><ele>937.0</ele><time>2026-05-03T08:21:37.999Z</time></trkpt><trkpt lat="42.273810237418715" lon="13.689490558516539"><ele>937.0</ele><time>2026-05-03T08:21:38.999Z</time></trkpt><trkpt lat="42.27389200488439" lon="13.689442056325731"><ele>937.0</ele><time>2026-05-03T08:21:39.999Z</time></trkpt><trkpt lat="42.273958988020276" lon="13.689388706133707"><ele>941.4000000000001</ele><time>2026-05-03T08:21:40.999Z</time></trkpt><trkpt lat="42.2740412654164" lon="13.689314266935087"><ele>945.8000000000001</ele><time>2026-05-03T08:21:41.999Z</time></trkpt><trkpt lat="42.274128366421884" lon="13.689223150722237"><ele>950.2</ele><time>2026-05-03T08:21:42.999Z</time></trkpt><trkpt lat="42.27420856530463" lon="13.689144485834479"><ele>954.6</ele><time>2026-05-03T08:21:43.999Z</time></trkpt><trkpt lat="42.27427810117233" lon="13.689064358471152"><ele>959.0</ele><time>2026-05-03T08:21:44.999Z</time></trkpt><trkpt lat="42.274349942444495" lon="13.689000872970398"><ele>959.0</ele><time>2026-05-03T08:21:45.999Z</time></trkpt><trkpt lat="42.274428014588345" lon="13.688937988436225"><ele>959.0000000000001</ele><time>2026-05-03T08:21:46.999Z</time></trkpt><trkpt lat="42.274515406345394" lon="13.688876165517886"><ele>959.0000000000001</ele><time>2026-05-03T08:21:47.999Z</time></trkpt><trkpt lat="42.274609178964525" lon="13.688826466359451"><ele>959.0</ele><time>2026-05-03T08:21:48.999Z</time></trkpt><trkpt lat="42.2747095179879" lon="13.688776574438169"><ele>959.0</ele><time>2026-05-03T08:21:49.999Z</time></trkpt><trkpt lat="42.274808387183995" lon="13.688723129192322"><ele>958.6</ele><time>2026-05-03T08:21:50.999Z</time></trkpt><trkpt lat="42.274908464973706" lon="13.688674167000409"><ele>958.2</ele><time>2026-05-03T08:21:51.999Z</time></trkpt><trkpt lat="42.27500154883132" lon="13.68863387894848"><ele>957.8000000000001</ele><time>2026-05-03T08:21:52.999Z</time></trkpt><trkpt lat="42.27509123258324" lon="13.688575628498237"><ele>957.4000000000001</ele><time>2026-05-03T08:21:53.999Z</time></trkpt><trkpt lat="42.275194568614666" lon="13.688508950092498"><ele>957.0</ele><time>2026-05-03T08:21:54.999Z</time></trkpt><trkpt lat="42.275306783637966" lon="13.688449532738066"><ele>958.25</ele><time>2026-05-03T08:21:55.999Z</time></trkpt><trkpt lat="42.27542338660046" lon="13.688390494363142"><ele>959.5</ele><time>2026-05-03T08:21:56.999Z</time></trkpt><trkpt lat="42.27553711246911" lon="13.688341344876655"><ele>960.75</ele><time>2026-05-03T08:21:57.999Z</time></trkpt><trkpt lat="42.275646625354646" lon="13.688297382654596"><ele>962.0</ele><time>2026-05-03T08:21:58.999Z</time></trkpt><trkpt lat="42.275752570164" lon="13.688257610325032"><ele>962.0</ele><time>2026-05-03T08:21:59.999Z</time></trkpt><trkpt lat="42.27584880409859" lon="13.688213977514225"><ele>962.0</ele><time>2026-05-03T08:22:00.999Z</time></trkpt><trkpt lat="42.275936945740284" lon="13.688155396330792"><ele>962.0</ele><time>2026-05-03T08:22:01.999Z</time></trkpt><trkpt lat="42.276024537294" lon="13.688085838352873"><ele>962.0</ele><time>2026-05-03T08:22:02.999Z</time></trkpt><trkpt lat="42.27611928588032" lon="13.688005536829671"><ele>962.0</ele><time>2026-05-03T08:22:03.999Z</time></trkpt><trkpt lat="42.27622095183972" lon="13.687919996493996"><ele>962.0</ele><time>2026-05-03T08:22:04.999Z</time></trkpt><trkpt lat="42.27633098274344" lon="13.687839531736769"><ele>962.0</ele><time>2026-05-03T08:22:06Z</time></trkpt><trkpt lat="42.27643999519009" lon="13.687758693951393"><ele>962.0</ele><time>2026-05-03T08:22:07Z</time></trkpt><trkpt lat="42.27654566376225" lon="13.687679148535691"><ele>962.0</ele><time>2026-05-03T08:22:08Z</time></trkpt><trkpt lat="42.27665263940855" lon="13.687602315114823"><ele>963.75</ele><time>2026-05-03T08:22:09Z</time></trkpt><trkpt lat="42.27675965695773" lon="13.687523331010864"><ele>965.5</ele><time>2026-05-03T08:22:10Z</time></trkpt><trkpt lat="42.27687242179871" lon="13.687442975947322"><ele>967.25</ele><time>2026-05-03T08:22:11Z</time></trkpt><trkpt lat="42.27698413986901" lon="13.6873682887382"><ele>969.0</ele><time>2026-05-03T08:22:12Z</time></trkpt><trkpt lat="42.27709656379753" lon="13.687298562921049"><ele>969.0</ele><time>2026-05-03T08:22:13Z</time></trkpt><trkpt lat="42.277202913492076" lon="13.687231940741064"><ele>969.0000000000001</ele><time>2026-05-03T08:22:14Z</time></trkpt><trkpt lat="42.27730418703529" lon="13.68716524768439"><ele>969.0000000000001</ele><time>2026-05-03T08:22:15Z</time></trkpt><trkpt lat="42.27738755073518" lon="13.687110461491272"><ele>969.0</ele><time>2026-05-03T08:22:16Z</time></trkpt><trkpt lat="42.277448541529346" lon="13.68706041561274"><ele>969.0</ele><time>2026-05-03T08:22:17Z</time></trkpt><trkpt lat="42.27750369273181" lon="13.687000914829099"><ele>968.0</ele><time>2026-05-03T08:22:18Z</time></trkpt><trkpt lat="42.27757379286558" lon="13.686919733351488"><ele>967.0000000000001</ele><time>2026-05-03T08:22:20Z</time></trkpt><trkpt lat="42.2776591944269" lon="13.686881780940835"><ele>966.0000000000001</ele><time>2026-05-03T08:22:23Z</time></trkpt><trkpt lat="42.2777117991038" lon="13.686954721164886"><ele>965.0</ele><time>2026-05-03T08:22:26Z</time></trkpt><trkpt lat="42.277704489753184" lon="13.687094710500503"><ele>964.0</ele><time>2026-05-03T08:22:28Z</time></trkpt><trkpt lat="42.27771492873101" lon="13.687216782437945"><ele>964.0</ele><time>2026-05-03T08:22:30Z</time></trkpt><trkpt lat="42.27776145007945" lon="13.68732291368723"><ele>964.0000000000001</ele><time>2026-05-03T08:22:32Z</time></trkpt><trkpt lat="42.277725823211874" lon="13.687444301462957"><ele>964.0000000000001</ele><time>2026-05-03T08:22:34Z</time></trkpt><trkpt lat="42.277654868186254" lon="13.68759324875599"><ele>964.0</ele><time>2026-05-03T08:22:36Z</time></trkpt><trkpt lat="42.27763660187455" lon="13.687683448785922"><ele>964.0</ele><time>2026-05-03T08:22:37Z</time></trkpt><trkpt lat="42.277618504439864" lon="13.687772005725206"><ele>963.0</ele><time>2026-05-03T08:22:38Z</time></trkpt><trkpt lat="42.27757372970116" lon="13.68791238191807"><ele>962.0000000000001</ele><time>2026-05-03T08:22:40Z</time></trkpt><trkpt lat="42.277492785755605" lon="13.68803351344978"><ele>961.0000000000001</ele><time>2026-05-03T08:22:42Z</time></trkpt><trkpt lat="42.27744733148324" lon="13.688104016842972"><ele>960.0</ele><time>2026-05-03T08:22:43Z</time></trkpt><trkpt lat="42.277416501085504" lon="13.688178850763588"><ele>959.0</ele><time>2026-05-03T08:22:44Z</time></trkpt><trkpt lat="42.2773967868046" lon="13.688294267147345"><ele>959.0</ele><time>2026-05-03T08:22:46Z</time></trkpt><trkpt lat="42.27745718553349" lon="13.688330639641922"><ele>959.0000000000001</ele><time>2026-05-03T08:27:21.999Z</time></trkpt><trkpt lat="42.27755705584416" lon="13.688371584695215"><ele>959.0000000000001</ele><time>2026-05-03T08:27:23.999Z</time></trkpt><trkpt lat="42.277675129187415" lon="13.688379108875809"><ele>959.0</ele><time>2026-05-03T08:27:25.999Z</time></trkpt><trkpt lat="42.2777973083325" lon="13.688427714810237"><ele>959.0</ele><time>2026-05-03T08:27:27.999Z</time></trkpt><trkpt lat="42.27785506121534" lon="13.688471045675392"><ele>959.0000000000001</ele><time>2026-05-03T08:27:28.999Z</time></trkpt><trkpt lat="42.27791393074738" lon="13.688504027986763"><ele>959.0</ele><time>2026-05-03T08:27:29.999Z</time></trkpt><trkpt lat="42.278027325883215" lon="13.688551434470835"><ele>959.0</ele><time>2026-05-03T08:27:31.999Z</time></trkpt><trkpt lat="42.278092267412184" lon="13.688567665060054"><ele>959.0</ele><time>2026-05-03T08:27:32.999Z</time></trkpt><trkpt lat="42.27816269499015" lon="13.688589248771224"><ele>959.0000000000001</ele><time>2026-05-03T08:27:33.999Z</time></trkpt><trkpt lat="42.27823609069096" lon="13.688617661663216"><ele>959.0</ele><time>2026-05-03T08:27:34.999Z</time></trkpt><trkpt lat="42.278315287327445" lon="13.68866624165043"><ele>958.3333333333334</ele><time>2026-05-03T08:27:35.999Z</time></trkpt><trkpt lat="42.278387099941014" lon="13.688719684034002"><ele>957.6666666666667</ele><time>2026-05-03T08:27:36.999Z</time></trkpt><trkpt lat="42.27845220341207" lon="13.688770241384738"><ele>957.0</ele><time>2026-05-03T08:27:37.999Z</time></trkpt><trkpt lat="42.27850961917015" lon="13.688834182108826"><ele>956.3333333333333</ele><time>2026-05-03T08:27:38.999Z</time></trkpt><trkpt lat="42.278569756042714" lon="13.688913783147086"><ele>955.6666666666666</ele><time>2026-05-03T08:27:39.999Z</time></trkpt><trkpt lat="42.278630751245224" lon="13.689004836086713"><ele>955.0</ele><time>2026-05-03T08:27:40.999Z</time></trkpt><trkpt lat="42.27868977520133" lon="13.6890878900927"><ele>954.9999999999999</ele><time>2026-05-03T08:27:41.999Z</time></trkpt><trkpt lat="42.27875484230385" lon="13.689169426803073"><ele>955.0</ele><time>2026-05-03T08:27:42.999Z</time></trkpt><trkpt lat="42.27881906550987" lon="13.689255279572398"><ele>955.0</ele><time>2026-05-03T08:27:43.999Z</time></trkpt><trkpt lat="42.278882231817725" lon="13.689346633677564"><ele>955.0</ele><time>2026-05-03T08:27:44.999Z</time></trkpt><trkpt lat="42.278941785884456" lon="13.689419733500948"><ele>954.9999999999999</ele><time>2026-05-03T08:27:45.999Z</time></trkpt><trkpt lat="42.27901107769903" lon="13.689498146655648"><ele>955.0</ele><time>2026-05-03T08:27:46.999Z</time></trkpt><trkpt lat="42.27906903949165" lon="13.689577681198273"><ele>955.6666666666666</ele><time>2026-05-03T08:27:47.999Z</time></trkpt><trkpt lat="42.27912503381817" lon="13.689671244358772"><ele>956.3333333333333</ele><time>2026-05-03T08:27:48.999Z</time></trkpt><trkpt lat="42.27919362081568" lon="13.689745480869357"><ele>957.0</ele><time>2026-05-03T08:27:49.999Z</time></trkpt><trkpt lat="42.27926938039157" lon="13.689791544014863"><ele>957.6666666666667</ele><time>2026-05-03T08:27:50.999Z</time></trkpt><trkpt lat="42.279337305213915" lon="13.689814221512924"><ele>958.3333333333334</ele><time>2026-05-03T08:27:51.999Z</time></trkpt><trkpt lat="42.27941646130938" lon="13.68981902154045"><ele>959.0</ele><time>2026-05-03T08:27:52.999Z</time></trkpt><trkpt lat="42.27949246563095" lon="13.689820907272383"><ele>959.0</ele><time>2026-05-03T08:27:53.999Z</time></trkpt><trkpt lat="42.27956203780193" lon="13.689834335086687"><ele>959.0</ele><time>2026-05-03T08:27:54.999Z</time></trkpt><trkpt lat="42.27961517544007" lon="13.689884679121416"><ele>959.0</ele><time>2026-05-03T08:27:55.999Z</time></trkpt><trkpt lat="42.27965783361826" lon="13.689968339899586"><ele>959.0</ele><time>2026-05-03T08:27:56.999Z</time></trkpt><trkpt lat="42.27969328448971" lon="13.690055938199881"><ele>959.0</ele><time>2026-05-03T08:27:57.999Z</time></trkpt><trkpt lat="42.279734022010025" lon="13.690135410476021"><ele>959.0</ele><time>2026-05-03T08:27:58.999Z</time></trkpt><trkpt lat="42.279793113440356" lon="13.690193446411351"><ele>959.0</ele><time>2026-05-03T08:27:59.999Z</time></trkpt><trkpt lat="42.27986856114388" lon="13.690230073365472"><ele>959.6</ele><time>2026-05-03T08:28:00.999Z</time></trkpt><trkpt lat="42.279946944967314" lon="13.690262652749377"><ele>960.2</ele><time>2026-05-03T08:28:01.999Z</time></trkpt><trkpt lat="42.28000634502969" lon="13.69029089342755"><ele>960.8000000000001</ele><time>2026-05-03T08:28:02.999Z</time></trkpt><trkpt lat="42.280145404068946" lon="13.69029468006411"><ele>961.4000000000001</ele><time>2026-05-03T08:28:04.999Z</time></trkpt><trkpt lat="42.28022247565043" lon="13.690306821221007"><ele>962.0</ele><time>2026-05-03T08:28:05.999Z</time></trkpt><trkpt lat="42.28034723136845" lon="13.690342639296968"><ele>962.0000000000001</ele><time>2026-05-03T08:28:07.999Z</time></trkpt><trkpt lat="42.280401648609775" lon="13.690404324564089"><ele>962.0</ele><time>2026-05-03T08:28:08.999Z</time></trkpt><trkpt lat="42.280442319195664" lon="13.69048492436527"><ele>962.0</ele><time>2026-05-03T08:28:09.999Z</time></trkpt><trkpt lat="42.280484139727314" lon="13.690570594028475"><ele>962.0</ele><time>2026-05-03T08:28:10.999Z</time></trkpt><trkpt lat="42.28051925158871" lon="13.690666601584624"><ele>962.0000000000001</ele><time>2026-05-03T08:28:11.999Z</time></trkpt><trkpt lat="42.28054027142372" lon="13.690773994178938"><ele>962.0</ele><time>2026-05-03T08:28:12.999Z</time></trkpt><trkpt lat="42.28055219167024" lon="13.690878895381184"><ele>962.0</ele><time>2026-05-03T08:28:13.999Z</time></trkpt><trkpt lat="42.28055864090594" lon="13.69100570521467"><ele>962.0</ele><time>2026-05-03T08:28:14.999Z</time></trkpt><trkpt lat="42.28055501149666" lon="13.691146381596845"><ele>962.0</ele><time>2026-05-03T08:28:15.999Z</time></trkpt><trkpt lat="42.280537606254974" lon="13.691275510363045"><ele>962.0</ele><time>2026-05-03T08:28:16.999Z</time></trkpt><trkpt lat="42.280520436643734" lon="13.691395700032169"><ele>962.0</ele><time>2026-05-03T08:28:17.999Z</time></trkpt><trkpt lat="42.28049823721284" lon="13.691513537969426"><ele>962.6</ele><time>2026-05-03T08:28:18.999Z</time></trkpt><trkpt lat="42.2804707893606" lon="13.691619560161886"><ele>963.2</ele><time>2026-05-03T08:28:19.999Z</time></trkpt><trkpt lat="42.280427251914524" lon="13.691722463175743"><ele>963.8</ele><time>2026-05-03T08:28:20.999Z</time></trkpt><trkpt lat="42.28038487064455" lon="13.691834340010969"><ele>964.4</ele><time>2026-05-03T08:28:21.999Z</time></trkpt><trkpt lat="42.280346041328684" lon="13.69195134549072"><ele>965.0</ele><time>2026-05-03T08:28:23Z</time></trkpt><trkpt lat="42.28031173096926" lon="13.692075722795506"><ele>967.6</ele><time>2026-05-03T08:28:24Z</time></trkpt><trkpt lat="42.28027213894397" lon="13.692188587017657"><ele>970.2</ele><time>2026-05-03T08:28:25Z</time></trkpt><trkpt lat="42.2802233032452" lon="13.69231014998778"><ele>972.8</ele><time>2026-05-03T08:28:26Z</time></trkpt><trkpt lat="42.28018530142312" lon="13.692426080922793"><ele>975.4</ele><time>2026-05-03T08:28:27Z</time></trkpt><trkpt lat="42.2801369216929" lon="13.692533084317928"><ele>978.0</ele><time>2026-05-03T08:28:28Z</time></trkpt><trkpt lat="42.28008904611183" lon="13.692632482154917"><ele>978.0</ele><time>2026-05-03T08:28:29Z</time></trkpt><trkpt lat="42.280051407825376" lon="13.692735662324058"><ele>978.0</ele><time>2026-05-03T08:28:30Z</time></trkpt><trkpt lat="42.28001521717029" lon="13.692824591559715"><ele>978.0</ele><time>2026-05-03T08:28:31Z</time></trkpt><trkpt lat="42.279995064045366" lon="13.692994577626335"><ele>978.0</ele><time>2026-05-03T08:28:33Z</time></trkpt><trkpt lat="42.280009825157805" lon="13.693103361588234"><ele>978.0</ele><time>2026-05-03T08:28:34Z</time></trkpt><trkpt lat="42.28002917298424" lon="13.693214636960265"><ele>978.6666666666666</ele><time>2026-05-03T08:28:35Z</time></trkpt><trkpt lat="42.28004074151339" lon="13.693306027660661"><ele>979.3333333333333</ele><time>2026-05-03T08:28:36Z</time></trkpt><trkpt lat="42.280045703426445" lon="13.693490176463508"><ele>980.0</ele><time>2026-05-03T08:28:38Z</time></trkpt><trkpt lat="42.28005220940725" lon="13.693597748380942"><ele>980.6666666666666</ele><time>2026-05-03T08:28:39Z</time></trkpt><trkpt lat="42.2800545562399" lon="13.693708379694048"><ele>981.3333333333333</ele><time>2026-05-03T08:28:40Z</time></trkpt><trkpt lat="42.28005370364599" lon="13.693813383208532"><ele>982.0</ele><time>2026-05-03T08:28:41Z</time></trkpt><trkpt lat="42.28005763068232" lon="13.693912635117423"><ele>982.0</ele><time>2026-05-03T08:28:42Z</time></trkpt><trkpt lat="42.28005964449929" lon="13.69401262316708"><ele>981.9999999999999</ele><time>2026-05-03T08:28:43Z</time></trkpt><trkpt lat="42.28006566175402" lon="13.694099702637159"><ele>982.0</ele><time>2026-05-03T08:28:44Z</time></trkpt><trkpt lat="42.28006430575699" lon="13.694187507633641"><ele>982.0</ele><time>2026-05-03T08:28:45Z</time></trkpt><trkpt lat="42.28005716352869" lon="13.694275976820235"><ele>981.9999999999999</ele><time>2026-05-03T08:28:46Z</time></trkpt><trkpt lat="42.280049495367535" lon="13.694366618749683"><ele>982.0</ele><time>2026-05-03T08:28:47Z</time></trkpt><trkpt lat="42.280046063585765" lon="13.694460875724094"><ele>982.0</ele><time>2026-05-03T08:28:48Z</time></trkpt><trkpt lat="42.280046513115195" lon="13.69456088003682"><ele>981.0</ele><time>2026-05-03T08:28:49Z</time></trkpt><trkpt lat="42.28004166049087" lon="13.694666784675709"><ele>980.0</ele><time>2026-05-03T08:28:50Z</time></trkpt><trkpt lat="42.28002276192713" lon="13.694756131151319"><ele>979.0</ele><time>2026-05-03T08:28:51Z</time></trkpt><trkpt lat="42.27999383706618" lon="13.694908795013275"><ele>978.0</ele><time>2026-05-03T08:28:53Z</time></trkpt><trkpt lat="42.27998035058073" lon="13.695086114806344"><ele>977.0</ele><time>2026-05-03T08:28:55Z</time></trkpt><trkpt lat="42.27999589565469" lon="13.695174065092779"><ele>976.0000000000001</ele><time>2026-05-03T08:28:56Z</time></trkpt><trkpt lat="42.28002203573761" lon="13.695262085017474"><ele>975.0</ele><time>2026-05-03T08:28:57Z</time></trkpt><trkpt lat="42.28005192854257" lon="13.695343487533632"><ele>974.0000000000001</ele><time>2026-05-03T08:28:58Z</time></trkpt><trkpt lat="42.280082026924504" lon="13.695424401061977"><ele>973.0000000000001</ele><time>2026-05-03T08:28:59Z</time></trkpt><trkpt lat="42.280122298449356" lon="13.695491667497421"><ele>972.0</ele><time>2026-05-03T08:29:00Z</time></trkpt><trkpt lat="42.2801742093007" lon="13.69554951959416"><ele>971.0000000000001</ele><time>2026-05-03T08:29:01Z</time></trkpt><trkpt lat="42.28023584248744" lon="13.695602083545124"><ele>970.0000000000001</ele><time>2026-05-03T08:29:02Z</time></trkpt><trkpt lat="42.280310471632426" lon="13.695652759325284"><ele>969.9999999999999</ele><time>2026-05-03T08:29:03Z</time></trkpt><trkpt lat="42.280377165687376" lon="13.695715305992996"><ele>970.0</ele><time>2026-05-03T08:29:04Z</time></trkpt><trkpt lat="42.28045215098241" lon="13.695798862624585"><ele>970.0</ele><time>2026-05-03T08:29:06Z</time></trkpt><trkpt lat="42.28051390526422" lon="13.695852825741257"><ele>970.0</ele><time>2026-05-03T08:29:07Z</time></trkpt><trkpt lat="42.2805840349223" lon="13.695901951613928"><ele>969.9999999999999</ele><time>2026-05-03T08:29:08Z</time></trkpt><trkpt lat="42.280680937878955" lon="13.695971751460426"><ele>970.0</ele><time>2026-05-03T08:29:10Z</time></trkpt><trkpt lat="42.28079261233074" lon="13.69596023790972"><ele>973.2</ele><time>2026-05-03T08:29:12Z</time></trkpt><trkpt lat="42.280919443887825" lon="13.695922906258966"><ele>976.4</ele><time>2026-05-03T08:29:14Z</time></trkpt><trkpt lat="42.28099076551079" lon="13.695888814330617"><ele>979.5999999999999</ele><time>2026-05-03T08:29:15Z</time></trkpt><trkpt lat="42.28107172963922" lon="13.695851951085213"><ele>982.8</ele><time>2026-05-03T08:29:16Z</time></trkpt><trkpt lat="42.281155538034746" lon="13.695806374931362"><ele>986.0</ele><time>2026-05-03T08:29:17Z</time></trkpt><trkpt lat="42.281235148159766" lon="13.695754212197182"><ele>986.0</ele><time>2026-05-03T08:29:18Z</time></trkpt><trkpt lat="42.28135011547178" lon="13.695742062800822"><ele>985.9999999999999</ele><time>2026-05-03T08:29:20Z</time></trkpt><trkpt lat="42.281412177201794" lon="13.69585946366748"><ele>985.9999999999999</ele><time>2026-05-03T08:29:21.999Z</time></trkpt><trkpt lat="42.28143359740808" lon="13.695948028203956"><ele>986.0</ele><time>2026-05-03T08:29:22.999Z</time></trkpt><trkpt lat="42.28146791203829" lon="13.696042181151755"><ele>986.0</ele><time>2026-05-03T08:29:23.999Z</time></trkpt><trkpt lat="42.281517769126125" lon="13.696138159487711"><ele>986.6666666666667</ele><time>2026-05-03T08:29:24.999Z</time></trkpt><trkpt lat="42.28156612853387" lon="13.696233264794444"><ele>987.3333333333334</ele><time>2026-05-03T08:29:25.999Z</time></trkpt><trkpt lat="42.28161172330083" lon="13.69633201505224"><ele>988.0</ele><time>2026-05-03T08:29:26.999Z</time></trkpt><trkpt lat="42.28165947628076" lon="13.696413467599813"><ele>988.6666666666667</ele><time>2026-05-03T08:29:27.999Z</time></trkpt><trkpt lat="42.281712349576665" lon="13.696483677134351"><ele>989.3333333333334</ele><time>2026-05-03T08:29:28.999Z</time></trkpt><trkpt lat="42.28178092727714" lon="13.696548683235303"><ele>990.0</ele><time>2026-05-03T08:29:29.999Z</time></trkpt><trkpt lat="42.281855651619" lon="13.696619790741885"><ele>990.0</ele><time>2026-05-03T08:29:30.999Z</time></trkpt><trkpt lat="42.28191460586789" lon="13.696695190064752"><ele>990.0</ele><time>2026-05-03T08:29:31.999Z</time></trkpt><trkpt lat="42.28196811678935" lon="13.69677008371938"><ele>990.0</ele><time>2026-05-03T08:29:32.999Z</time></trkpt><trkpt lat="42.28203667220225" lon="13.696884173513297"><ele>990.0</ele><time>2026-05-03T08:29:34.999Z</time></trkpt><trkpt lat="42.282112695444276" lon="13.696909667950482"><ele>990.0</ele><time>2026-05-03T08:29:36.999Z</time></trkpt><trkpt lat="42.28215068917454" lon="13.696781162982857"><ele>990.0</ele><time>2026-05-03T08:29:38.999Z</time></trkpt><trkpt lat="42.2820868447859" lon="13.696639184941244"><ele>990.0</ele><time>2026-05-03T08:29:40.999Z</time></trkpt><trkpt lat="42.28204372160416" lon="13.696558081670554"><ele>990.0</ele><time>2026-05-03T08:29:41.999Z</time></trkpt><trkpt lat="42.28205528020912" lon="13.696400176921262"><ele>990.0</ele><time>2026-05-03T08:29:43.999Z</time></trkpt><trkpt lat="42.28210133026236" lon="13.69633470008011"><ele>990.0</ele><time>2026-05-03T08:29:44.999Z</time></trkpt><trkpt lat="42.28215901225344" lon="13.696267523470214"><ele>990.0</ele><time>2026-05-03T08:29:45.999Z</time></trkpt><trkpt lat="42.28221773731393" lon="13.696186940907767"><ele>990.0</ele><time>2026-05-03T08:29:46.999Z</time></trkpt><trkpt lat="42.28226000209621" lon="13.69609590326901"><ele>986.3333333333334</ele><time>2026-05-03T08:29:47.999Z</time></trkpt><trkpt lat="42.28228419984115" lon="13.695999908028575"><ele>982.6666666666667</ele><time>2026-05-03T08:29:48.999Z</time></trkpt><trkpt lat="42.282290538108974" lon="13.695893399885799"><ele>979.0</ele><time>2026-05-03T08:29:49.999Z</time></trkpt><trkpt lat="42.2822924813027" lon="13.695790355546688"><ele>975.3333333333334</ele><time>2026-05-03T08:29:50.999Z</time></trkpt><trkpt lat="42.282304347248285" lon="13.69567948259003"><ele>971.6666666666667</ele><time>2026-05-03T08:29:51.999Z</time></trkpt><trkpt lat="42.28231320239844" lon="13.695570628180503"><ele>968.0</ele><time>2026-05-03T08:29:52.999Z</time></trkpt><trkpt lat="42.28231818249823" lon="13.69545715352625"><ele>968.0000000000001</ele><time>2026-05-03T08:29:53.999Z</time></trkpt><trkpt lat="42.28232402439776" lon="13.695347811041373"><ele>968.0</ele><time>2026-05-03T08:29:54.999Z</time></trkpt><trkpt lat="42.28233107794537" lon="13.695233096178848"><ele>968.0</ele><time>2026-05-03T08:29:55.999Z</time></trkpt><trkpt lat="42.282338087510624" lon="13.695118972307249"><ele>968.0</ele><time>2026-05-03T08:29:56.999Z</time></trkpt><trkpt lat="42.28234364569869" lon="13.695000774717665"><ele>968.0000000000001</ele><time>2026-05-03T08:29:57.999Z</time></trkpt><trkpt lat="42.28234545865058" lon="13.694892146530998"><ele>968.0</ele><time>2026-05-03T08:29:58.999Z</time></trkpt><trkpt lat="42.28233574360884" lon="13.694777171809493"><ele>967.5714285714286</ele><time>2026-05-03T08:29:59.999Z</time></trkpt><trkpt lat="42.28231950223562" lon="13.694660736292336"><ele>967.1428571428571</ele><time>2026-05-03T08:30:00.999Z</time></trkpt><trkpt lat="42.282305286770494" lon="13.694554519631591"><ele>966.7142857142857</ele><time>2026-05-03T08:30:01.999Z</time></trkpt><trkpt lat="42.28228570685044" lon="13.694459566713824"><ele>966.2857142857142</ele><time>2026-05-03T08:30:02.999Z</time></trkpt><trkpt lat="42.28226751308069" lon="13.694375103462864"><ele>965.8571428571429</ele><time>2026-05-03T08:30:03.999Z</time></trkpt><trkpt lat="42.282249949405674" lon="13.694285522007153"><ele>965.4285714285713</ele><time>2026-05-03T08:30:04.999Z</time></trkpt><trkpt lat="42.28223247141583" lon="13.694189119834121"><ele>965.0</ele><time>2026-05-03T08:30:05.999Z</time></trkpt><trkpt lat="42.28222420317236" lon="13.694084649000578"><ele>963.8571428571429</ele><time>2026-05-03T08:30:06.999Z</time></trkpt><trkpt lat="42.28222907116483" lon="13.693983945385197"><ele>962.7142857142858</ele><time>2026-05-03T08:30:07.999Z</time></trkpt><trkpt lat="42.28224820587622" lon="13.693887832507409"><ele>961.5714285714287</ele><time>2026-05-03T08:30:08.999Z</time></trkpt><trkpt lat="42.282276234192146" lon="13.693796342263628"><ele>960.4285714285714</ele><time>2026-05-03T08:30:09.999Z</time></trkpt><trkpt lat="42.282311837055104" lon="13.693719943500009"><ele>959.2857142857144</ele><time>2026-05-03T08:30:10.999Z</time></trkpt><trkpt lat="42.282339283082855" lon="13.693635621191342"><ele>958.1428571428572</ele><time>2026-05-03T08:30:11.999Z</time></trkpt><trkpt lat="42.28234987152243" lon="13.693533452423988"><ele>957.0</ele><time>2026-05-03T08:30:12.999Z</time></trkpt><trkpt lat="42.28236086176201" lon="13.6934352964148"><ele>957.1428571428572</ele><time>2026-05-03T08:30:13.999Z</time></trkpt><trkpt lat="42.282367117606654" lon="13.693334412165136"><ele>957.2857142857144</ele><time>2026-05-03T08:30:14.999Z</time></trkpt><trkpt lat="42.282376853347216" lon="13.693235854293057"><ele>957.4285714285714</ele><time>2026-05-03T08:30:15.999Z</time></trkpt><trkpt lat="42.28238840015443" lon="13.693132753474849"><ele>957.5714285714287</ele><time>2026-05-03T08:30:16.999Z</time></trkpt><trkpt lat="42.28240391030277" lon="13.693037563648774"><ele>957.7142857142858</ele><time>2026-05-03T08:30:17.999Z</time></trkpt><trkpt lat="42.28242360031539" lon="13.69293884700038"><ele>957.8571428571429</ele><time>2026-05-03T08:30:18.999Z</time></trkpt><trkpt lat="42.28245270604761" lon="13.692848096011666"><ele>958.0</ele><time>2026-05-03T08:30:19.999Z</time></trkpt><trkpt lat="42.28248832521629" lon="13.692753561397016"><ele>957.9999999999999</ele><time>2026-05-03T08:30:20.999Z</time></trkpt><trkpt lat="42.28252211175153" lon="13.692652681197528"><ele>958.0</ele><time>2026-05-03T08:30:21.999Z</time></trkpt><trkpt lat="42.28255758304232" lon="13.692549829695823"><ele>958.0</ele><time>2026-05-03T08:30:22.999Z</time></trkpt><trkpt lat="42.2825891716403" lon="13.692450969985137"><ele>958.0</ele><time>2026-05-03T08:30:23.999Z</time></trkpt><trkpt lat="42.282624668899786" lon="13.692361358472708"><ele>957.9999999999999</ele><time>2026-05-03T08:30:24.999Z</time></trkpt><trkpt lat="42.28266569493697" lon="13.69226750962949"><ele>958.0</ele><time>2026-05-03T08:30:25.999Z</time></trkpt><trkpt lat="42.28271128922823" lon="13.692181392509692"><ele>957.9999999999999</ele><time>2026-05-03T08:30:26.999Z</time></trkpt><trkpt lat="42.282764348941186" lon="13.692091176697886"><ele>958.0</ele><time>2026-05-03T08:30:27.999Z</time></trkpt><trkpt lat="42.282817796897845" lon="13.692010633596782"><ele>958.0</ele><time>2026-05-03T08:30:29Z</time></trkpt><trkpt lat="42.28286612030465" lon="13.691926169278668"><ele>958.0</ele><time>2026-05-03T08:30:30Z</time></trkpt><trkpt lat="42.28291427901414" lon="13.69184556896862"><ele>957.9999999999999</ele><time>2026-05-03T08:30:31Z</time></trkpt><trkpt lat="42.282962180174486" lon="13.691765863072266"><ele>958.0</ele><time>2026-05-03T08:30:32Z</time></trkpt><trkpt lat="42.28301722534611" lon="13.691690053638716"><ele>961.2</ele><time>2026-05-03T08:30:33Z</time></trkpt><trkpt lat="42.283085955466596" lon="13.691609707946895"><ele>964.4</ele><time>2026-05-03T08:30:34Z</time></trkpt><trkpt lat="42.2831560670564" lon="13.691534339713142"><ele>967.6000000000001</ele><time>2026-05-03T08:30:35Z</time></trkpt><trkpt lat="42.283236751718746" lon="13.691482737579506"><ele>970.8000000000001</ele><time>2026-05-03T08:30:36Z</time></trkpt><trkpt lat="42.28332154444403" lon="13.691430600572193"><ele>974.0</ele><time>2026-05-03T08:30:37Z</time></trkpt><trkpt lat="42.28340714928087" lon="13.691374174771441"><ele>967.0</ele><time>2026-05-03T08:30:38Z</time></trkpt><trkpt lat="42.28349143084815" lon="13.691317888603843"><ele>960.0000000000001</ele><time>2026-05-03T08:30:39Z</time></trkpt><trkpt lat="42.28357257662239" lon="13.691266982987694"><ele>953.0000000000001</ele><time>2026-05-03T08:30:40Z</time></trkpt><trkpt lat="42.28365273654276" lon="13.69121281802328"><ele>946.0</ele><time>2026-05-03T08:30:41Z</time></trkpt><trkpt lat="42.2837350541365" lon="13.691158508891192"><ele>939.0</ele><time>2026-05-03T08:30:42Z</time></trkpt><trkpt lat="42.283811904793254" lon="13.691104492851705"><ele>939.6666666666666</ele><time>2026-05-03T08:30:43Z</time></trkpt><trkpt lat="42.283887306450715" lon="13.6910485789834"><ele>940.3333333333333</ele><time>2026-05-03T08:30:44Z</time></trkpt><trkpt lat="42.2839695204174" lon="13.690992816699401"><ele>941.0</ele><time>2026-05-03T08:30:45Z</time></trkpt><trkpt lat="42.28404472406846" lon="13.690949680223023"><ele>941.6666666666666</ele><time>2026-05-03T08:30:46Z</time></trkpt><trkpt lat="42.28411991028929" lon="13.690910952283446"><ele>942.3333333333333</ele><time>2026-05-03T08:30:47Z</time></trkpt><trkpt lat="42.284191614229165" lon="13.690890609284951"><ele>943.0</ele><time>2026-05-03T08:30:48Z</time></trkpt><trkpt lat="42.28426526530335" lon="13.690899585830028"><ele>943.0</ele><time>2026-05-03T08:30:49Z</time></trkpt><trkpt lat="42.28434439900675" lon="13.690932382252583"><ele>943.0</ele><time>2026-05-03T08:30:50Z</time></trkpt><trkpt lat="42.28443085896279" lon="13.690977665942738"><ele>943.0</ele><time>2026-05-03T08:30:51Z</time></trkpt><trkpt lat="42.28452603747232" lon="13.691026106739542"><ele>943.0</ele><time>2026-05-03T08:30:52Z</time></trkpt><trkpt lat="42.284638038482335" lon="13.691057996741813"><ele>943.0</ele><time>2026-05-03T08:30:53Z</time></trkpt><trkpt lat="42.28474585554497" lon="13.69108216130167"><ele>934.5</ele><time>2026-05-03T08:30:54Z</time></trkpt><trkpt lat="42.284848513257415" lon="13.691133767100796"><ele>926.0</ele><time>2026-05-03T08:30:55Z</time></trkpt><trkpt lat="42.284955121955015" lon="13.691172193117197"><ele>917.5</ele><time>2026-05-03T08:30:56Z</time></trkpt><trkpt lat="42.28507114344777" lon="13.691215023157824"><ele>909.0</ele><time>2026-05-03T08:30:57Z</time></trkpt><trkpt lat="42.28518298735921" lon="13.691243943499734"><ele>909.0</ele><time>2026-05-03T08:30:58Z</time></trkpt><trkpt lat="42.28528630523299" lon="13.691264961638625"><ele>909.0000000000001</ele><time>2026-05-03T08:30:59Z</time></trkpt><trkpt lat="42.285379310363766" lon="13.691277230489547"><ele>909.0000000000001</ele><time>2026-05-03T08:31:00Z</time></trkpt><trkpt lat="42.285471647284446" lon="13.691288626208268"><ele>909.0</ele><time>2026-05-03T08:31:01Z</time></trkpt><trkpt lat="42.285570902456456" lon="13.691291182428978"><ele>909.0</ele><time>2026-05-03T08:31:02Z</time></trkpt><trkpt lat="42.2856843540051" lon="13.691273752815746"><ele>909.5</ele><time>2026-05-03T08:31:03Z</time></trkpt><trkpt lat="42.28580152261843" lon="13.69125067183533"><ele>910.0</ele><time>2026-05-03T08:31:04Z</time></trkpt><trkpt lat="42.28592662364121" lon="13.691224712869866"><ele>910.5</ele><time>2026-05-03T08:31:05Z</time></trkpt><trkpt lat="42.286060091271864" lon="13.691186817851912"><ele>911.0</ele><time>2026-05-03T08:31:06Z</time></trkpt><trkpt lat="42.28618622171336" lon="13.69115015471808"><ele>911.0</ele><time>2026-05-03T08:31:07Z</time></trkpt><trkpt lat="42.28630771088117" lon="13.691111732535461"><ele>911.0</ele><time>2026-05-03T08:31:08Z</time></trkpt><trkpt lat="42.28642476732815" lon="13.691084181935874"><ele>911.0</ele><time>2026-05-03T08:31:09Z</time></trkpt><trkpt lat="42.28654071032879" lon="13.691054243254683"><ele>911.0</ele><time>2026-05-03T08:31:10Z</time></trkpt><trkpt lat="42.28665291278525" lon="13.691030750282767"><ele>918.0</ele><time>2026-05-03T08:31:11Z</time></trkpt><trkpt lat="42.28676752105986" lon="13.691006831633963"><ele>925.0</ele><time>2026-05-03T08:31:12Z</time></trkpt><trkpt lat="42.28688919872748" lon="13.690972475250623"><ele>932.0</ele><time>2026-05-03T08:31:13Z</time></trkpt><trkpt lat="42.28700990994902" lon="13.690930786675503"><ele>939.0</ele><time>2026-05-03T08:31:14Z</time></trkpt><trkpt lat="42.287124173925676" lon="13.690887478285848"><ele>939.0</ele><time>2026-05-03T08:31:15Z</time></trkpt><trkpt lat="42.28723211051319" lon="13.690836629653749"><ele>939.0000000000001</ele><time>2026-05-03T08:31:16Z</time></trkpt><trkpt lat="42.28733306776659" lon="13.690787656035601"><ele>939.0000000000001</ele><time>2026-05-03T08:31:17Z</time></trkpt><trkpt lat="42.287425841392" lon="13.690744942797618"><ele>939.0</ele><time>2026-05-03T08:31:18Z</time></trkpt><trkpt lat="42.287506892295816" lon="13.690715174504389"><ele>939.0</ele><time>2026-05-03T08:31:19Z</time></trkpt><trkpt lat="42.2876068423395" lon="13.690681886387102"><ele>935.8000000000001</ele><time>2026-05-03T08:31:20Z</time></trkpt><trkpt lat="42.28769664926002" lon="13.690654653114727"><ele>932.6000000000001</ele><time>2026-05-03T08:31:21Z</time></trkpt><trkpt lat="42.28778012381549" lon="13.690629366148666"><ele>929.4</ele><time>2026-05-03T08:31:22Z</time></trkpt><trkpt lat="42.28785967911035" lon="13.690604688146255"><ele>926.2</ele><time>2026-05-03T08:31:23Z</time></trkpt><trkpt lat="42.2879536715738" lon="13.690566236327587"><ele>923.0</ele><time>2026-05-03T08:31:23.999Z</time></trkpt><trkpt lat="42.288043174496664" lon="13.690527229562862"><ele>919.5999999999999</ele><time>2026-05-03T08:31:24.999Z</time></trkpt><trkpt lat="42.28813372055599" lon="13.690477773063312"><ele>916.1999999999999</ele><time>2026-05-03T08:31:25.999Z</time></trkpt><trkpt lat="42.28822874609165" lon="13.690428112190242"><ele>912.8</ele><time>2026-05-03T08:31:26.999Z</time></trkpt><trkpt lat="42.28831835147875" lon="13.690382059694999"><ele>909.4</ele><time>2026-05-03T08:31:27.999Z</time></trkpt><trkpt lat="42.28840119309789" lon="13.690352347948632"><ele>906.0</ele><time>2026-05-03T08:31:28.999Z</time></trkpt><trkpt lat="42.288481168432" lon="13.690341848013219"><ele>906.0</ele><time>2026-05-03T08:31:29.999Z</time></trkpt><trkpt lat="42.28856328622209" lon="13.690345839959189"><ele>906.0</ele><time>2026-05-03T08:31:30.999Z</time></trkpt><trkpt lat="42.28863981598315" lon="13.690359710077006"><ele>906.0</ele><time>2026-05-03T08:31:31.999Z</time></trkpt><trkpt lat="42.28872067992623" lon="13.690384978439564"><ele>906.0</ele><time>2026-05-03T08:31:32.999Z</time></trkpt><trkpt lat="42.288786108672724" lon="13.690420856805867"><ele>906.0</ele><time>2026-05-03T08:31:33.999Z</time></trkpt><trkpt lat="42.28889858300929" lon="13.690487761208269"><ele>906.0</ele><time>2026-05-03T08:31:35.999Z</time></trkpt><trkpt lat="42.28902509555424" lon="13.690536797225004"><ele>905.1666666666666</ele><time>2026-05-03T08:31:37.999Z</time></trkpt><trkpt lat="42.28915029600299" lon="13.690544809304583"><ele>904.3333333333333</ele><time>2026-05-03T08:31:39.999Z</time></trkpt><trkpt lat="42.28927191543927" lon="13.690523448091836"><ele>903.5</ele><time>2026-05-03T08:31:41.999Z</time></trkpt><trkpt lat="42.28933540827661" lon="13.690506174679204"><ele>902.6666666666666</ele><time>2026-05-03T08:31:42.999Z</time></trkpt><trkpt lat="42.28939897619019" lon="13.690488420167837"><ele>901.8333333333333</ele><time>2026-05-03T08:31:43.999Z</time></trkpt><trkpt lat="42.28946639802415" lon="13.690477229354359"><ele>901.0</ele><time>2026-05-03T08:31:44.999Z</time></trkpt><trkpt lat="42.28953498429329" lon="13.69047936841215"><ele>901.0</ele><time>2026-05-03T08:31:45.999Z</time></trkpt><trkpt lat="42.28960156110471" lon="13.690491941635283"><ele>901.0</ele><time>2026-05-03T08:31:46.999Z</time></trkpt><trkpt lat="42.28973366991865" lon="13.690532190953117"><ele>901.0</ele><time>2026-05-03T08:31:48.999Z</time></trkpt><trkpt lat="42.28985057066034" lon="13.690587712004543"><ele>901.0</ele><time>2026-05-03T08:31:50.999Z</time></trkpt><trkpt lat="42.28997770981674" lon="13.690618038667509"><ele>900.3333333333333</ele><time>2026-05-03T08:31:52.999Z</time></trkpt><trkpt lat="42.290040832475576" lon="13.69062183866967"><ele>899.6666666666666</ele><time>2026-05-03T08:31:53.999Z</time></trkpt><trkpt lat="42.29010932197785" lon="13.690627549534597"><ele>899.0</ele><time>2026-05-03T08:31:54.999Z</time></trkpt><trkpt lat="42.290180803989585" lon="13.690617737399608"><ele>898.3333333333333</ele><time>2026-05-03T08:31:55.999Z</time></trkpt><trkpt lat="42.29025134263117" lon="13.69060380503482"><ele>897.6666666666666</ele><time>2026-05-03T08:31:56.999Z</time></trkpt><trkpt lat="42.29031651443045" lon="13.690584510294528"><ele>897.0</ele><time>2026-05-03T08:31:57.999Z</time></trkpt><trkpt lat="42.29043954138632" lon="13.69054649034048"><ele>897.0</ele><time>2026-05-03T08:31:59.999Z</time></trkpt><trkpt lat="42.29055765828298" lon="13.690521931344842"><ele>897.0</ele><time>2026-05-03T08:32:01.999Z</time></trkpt><trkpt lat="42.290672582830105" lon="13.69050684387182"><ele>897.0</ele><time>2026-05-03T08:32:03.999Z</time></trkpt><trkpt lat="42.2907375700288" lon="13.690507650250183"><ele>897.0</ele><time>2026-05-03T08:32:04.999Z</time></trkpt><trkpt lat="42.29080309614768" lon="13.690522929763873"><ele>897.0</ele><time>2026-05-03T08:32:05.999Z</time></trkpt><trkpt lat="42.290870360252995" lon="13.69053589293235"><ele>897.0</ele><time>2026-05-03T08:32:06.999Z</time></trkpt><trkpt lat="42.29093490874991" lon="13.690533411839807"><ele>895.5714285714286</ele><time>2026-05-03T08:32:07.999Z</time></trkpt><trkpt lat="42.29099929906609" lon="13.69052913781612"><ele>894.1428571428571</ele><time>2026-05-03T08:32:08.999Z</time></trkpt><trkpt lat="42.29106784117931" lon="13.69051467326815"><ele>892.7142857142857</ele><time>2026-05-03T08:32:09.999Z</time></trkpt><trkpt lat="42.291132661296324" lon="13.690494478760932"><ele>891.2857142857142</ele><time>2026-05-03T08:32:10.999Z</time></trkpt><trkpt lat="42.291198503885425" lon="13.690462934488371"><ele>889.8571428571429</ele><time>2026-05-03T08:32:11.999Z</time></trkpt><trkpt lat="42.29126564523712" lon="13.690423230154636"><ele>888.4285714285713</ele><time>2026-05-03T08:32:12.999Z</time></trkpt><trkpt lat="42.29132843861896" lon="13.690368252691728"><ele>887.0</ele><time>2026-05-03T08:32:13.999Z</time></trkpt><trkpt lat="42.29138651481447" lon="13.690307722067155"><ele>885.3333333333334</ele><time>2026-05-03T08:32:14.999Z</time></trkpt><trkpt lat="42.29143777898012" lon="13.690247203966459"><ele>883.6666666666667</ele><time>2026-05-03T08:32:15.999Z</time></trkpt><trkpt lat="42.29148940899087" lon="13.69019050316443"><ele>882.0</ele><time>2026-05-03T08:32:16.999Z</time></trkpt><trkpt lat="42.29154719393388" lon="13.690125600195119"><ele>880.3333333333333</ele><time>2026-05-03T08:32:17.999Z</time></trkpt><trkpt lat="42.29159536875164" lon="13.690068271852677"><ele>878.6666666666666</ele><time>2026-05-03T08:32:18.999Z</time></trkpt><trkpt lat="42.29168220238293" lon="13.68996195625734"><ele>877.0</ele><time>2026-05-03T08:32:20.999Z</time></trkpt><trkpt lat="42.2917613793959" lon="13.68988223164377"><ele>877.0</ele><time>2026-05-03T08:32:22.999Z</time></trkpt><trkpt lat="42.2918842333709" lon="13.689829466576123"><ele>877.0</ele><time>2026-05-03T08:32:24.999Z</time></trkpt><trkpt lat="42.29196643550219" lon="13.689782482399648"><ele>877.0</ele><time>2026-05-03T08:32:25.999Z</time></trkpt><trkpt lat="42.29204835402405" lon="13.689738471108377"><ele>877.0</ele><time>2026-05-03T08:32:26.999Z</time></trkpt><trkpt lat="42.29212068037861" lon="13.689681058021362"><ele>877.0</ele><time>2026-05-03T08:32:27.999Z</time></trkpt><trkpt lat="42.29218009686507" lon="13.689599591434588"><ele>877.0</ele><time>2026-05-03T08:32:28.999Z</time></trkpt><trkpt lat="42.29223684168887" lon="13.68949527561984"><ele>877.0</ele><time>2026-05-03T08:32:29.999Z</time></trkpt><trkpt lat="42.29230446342338" lon="13.689387032845973"><ele>877.0</ele><time>2026-05-03T08:32:30.999Z</time></trkpt><trkpt lat="42.29236807007231" lon="13.689297958117566"><ele>877.0</ele><time>2026-05-03T08:32:31.999Z</time></trkpt><trkpt lat="42.29242798033696" lon="13.689199854225409"><ele>877.0</ele><time>2026-05-03T08:32:32.999Z</time></trkpt><trkpt lat="42.292492875124715" lon="13.689104423502894"><ele>875.6666666666666</ele><time>2026-05-03T08:32:33.999Z</time></trkpt><trkpt lat="42.29256853162367" lon="13.689016484194417"><ele>874.3333333333333</ele><time>2026-05-03T08:32:35Z</time></trkpt><trkpt lat="42.292646356469255" lon="13.68894274974747"><ele>873.0</ele><time>2026-05-03T08:32:36Z</time></trkpt><trkpt lat="42.29271535469936" lon="13.688873572201187"><ele>871.6666666666667</ele><time>2026-05-03T08:32:37Z</time></trkpt><trkpt lat="42.292783548780214" lon="13.68882348201997"><ele>870.3333333333334</ele><time>2026-05-03T08:32:38Z</time></trkpt><trkpt lat="42.29285423245507" lon="13.688785197639517"><ele>869.0</ele><time>2026-05-03T08:32:39Z</time></trkpt><trkpt lat="42.292927480040646" lon="13.688747522551534"><ele>869.0000000000001</ele><time>2026-05-03T08:32:40Z</time></trkpt><trkpt lat="42.29299788948841" lon="13.688710200042436"><ele>869.0</ele><time>2026-05-03T08:32:41Z</time></trkpt><trkpt lat="42.2930715110513" lon="13.688660494146273"><ele>869.0</ele><time>2026-05-03T08:32:42Z</time></trkpt><trkpt lat="42.293138713548984" lon="13.688615473442855"><ele>869.0</ele><time>2026-05-03T08:32:43Z</time></trkpt><trkpt lat="42.29320042958587" lon="13.688583712927631"><ele>869.0000000000001</ele><time>2026-05-03T08:32:44Z</time></trkpt><trkpt lat="42.29331428718413" lon="13.688580138646492"><ele>869.0</ele><time>2026-05-03T08:32:46Z</time></trkpt><trkpt lat="42.29340122298546" lon="13.68858364787012"><ele>865.0</ele><time>2026-05-03T08:32:48Z</time></trkpt><trkpt lat="42.29342260283204" lon="13.688686567148649"><ele>861.0000000000001</ele><time>2026-05-03T08:32:51Z</time></trkpt><trkpt lat="42.293323874960116" lon="13.688798032214551"><ele>857.0</ele><time>2026-05-03T08:32:53Z</time></trkpt><trkpt lat="42.293247680431094" lon="13.688870170463955"><ele>853.0</ele><time>2026-05-03T08:32:54Z</time></trkpt><trkpt lat="42.29316925102492" lon="13.688979413473932"><ele>849.0</ele><time>2026-05-03T08:32:55Z</time></trkpt><trkpt lat="42.293091326494874" lon="13.68911162475986"><ele>851.5</ele><time>2026-05-03T08:32:56Z</time></trkpt><trkpt lat="42.293007420053556" lon="13.689256500313522"><ele>854.0</ele><time>2026-05-03T08:32:57Z</time></trkpt><trkpt lat="42.29291789665875" lon="13.689408202333276"><ele>856.5</ele><time>2026-05-03T08:32:58Z</time></trkpt><trkpt lat="42.292818947223246" lon="13.689549846593895"><ele>859.0</ele><time>2026-05-03T08:32:59Z</time></trkpt><trkpt lat="42.292770745161" lon="13.68975717812649"><ele>859.0</ele><time>2026-05-03T08:33:00Z</time></trkpt><trkpt lat="42.292693550523424" lon="13.689939067721921"><ele>859.0</ele><time>2026-05-03T08:33:01Z</time></trkpt><trkpt lat="42.292623738313225" lon="13.690124655459986"><ele>859.0</ele><time>2026-05-03T08:33:02Z</time></trkpt><trkpt lat="42.29256241379024" lon="13.69028783536007"><ele>859.0</ele><time>2026-05-03T08:33:03Z</time></trkpt><trkpt lat="42.29250253293845" lon="13.690434879687611"><ele>858.25</ele><time>2026-05-03T08:33:04Z</time></trkpt><trkpt lat="42.29245891944026" lon="13.690588598040327"><ele>857.5</ele><time>2026-05-03T08:33:05Z</time></trkpt><trkpt lat="42.29243314230649" lon="13.690752477778886"><ele>856.75</ele><time>2026-05-03T08:33:06Z</time></trkpt><trkpt lat="42.292435087044886" lon="13.690895466670181"><ele>856.0</ele><time>2026-05-03T08:33:07Z</time></trkpt><trkpt lat="42.292435539840426" lon="13.69103968490491"><ele>857.0</ele><time>2026-05-03T08:33:08Z</time></trkpt><trkpt lat="42.292423200037355" lon="13.691164522813356"><ele>857.9999999999999</ele><time>2026-05-03T08:33:09Z</time></trkpt><trkpt lat="42.29239516571632" lon="13.691306875807578"><ele>858.9999999999999</ele><time>2026-05-03T08:33:10Z</time></trkpt><trkpt lat="42.29235288443185" lon="13.691450598090036"><ele>860.0</ele><time>2026-05-03T08:33:11Z</time></trkpt><trkpt lat="42.292297447865906" lon="13.691597101405248"><ele>861.0</ele><time>2026-05-03T08:33:12Z</time></trkpt><trkpt lat="42.29223124678822" lon="13.691748231773955"><ele>861.25</ele><time>2026-05-03T08:33:13Z</time></trkpt><trkpt lat="42.292151611290926" lon="13.69188037424666"><ele>861.5</ele><time>2026-05-03T08:33:14Z</time></trkpt><trkpt lat="42.29205155000592" lon="13.691999980961171"><ele>861.75</ele><time>2026-05-03T08:33:15Z</time></trkpt><trkpt lat="42.291941954709344" lon="13.692118443928514"><ele>862.0</ele><time>2026-05-03T08:33:16Z</time></trkpt><trkpt lat="42.291822861155794" lon="13.692235358914647"><ele>862.0</ele><time>2026-05-03T08:33:17Z</time></trkpt><trkpt lat="42.29169773965047" lon="13.692359406390217"><ele>862.0</ele><time>2026-05-03T08:33:18Z</time></trkpt><trkpt lat="42.29157249009906" lon="13.69248757235265"><ele>862.0</ele><time>2026-05-03T08:33:19Z</time></trkpt><trkpt lat="42.291442845572185" lon="13.692611311957506"><ele>862.0</ele><time>2026-05-03T08:33:20Z</time></trkpt><trkpt lat="42.29132490623957" lon="13.692748754557504"><ele>862.0</ele><time>2026-05-03T08:33:21Z</time></trkpt><trkpt lat="42.2912413769294" lon="13.692897123419723"><ele>862.0</ele><time>2026-05-03T08:33:22Z</time></trkpt><trkpt lat="42.291167247068636" lon="13.693035935252322"><ele>862.0</ele><time>2026-05-03T08:33:23Z</time></trkpt><trkpt lat="42.29109224315823" lon="13.69316363819297"><ele>862.0</ele><time>2026-05-03T08:33:24Z</time></trkpt><trkpt lat="42.29103021390523" lon="13.69327339390575"><ele>862.0</ele><time>2026-05-03T08:33:25Z</time></trkpt><trkpt lat="42.29095610263791" lon="13.693360067298538"><ele>862.0</ele><time>2026-05-03T08:33:26Z</time></trkpt><trkpt lat="42.29087250488313" lon="13.69345117989693"><ele>862.0</ele><time>2026-05-03T08:33:28Z</time></trkpt><trkpt lat="42.2907852162554" lon="13.693538101219193"><ele>862.0</ele><time>2026-05-03T08:33:30Z</time></trkpt><trkpt lat="42.2907293666395" lon="13.693588934049098"><ele>862.1666666666666</ele><time>2026-05-03T08:33:31Z</time></trkpt><trkpt lat="42.29066776269665" lon="13.693644059854565"><ele>862.3333333333333</ele><time>2026-05-03T08:33:32Z</time></trkpt><trkpt lat="42.290620363899805" lon="13.693704262584145"><ele>862.5</ele><time>2026-05-03T08:33:33Z</time></trkpt><trkpt lat="42.29058486341514" lon="13.693780698746012"><ele>862.6666666666667</ele><time>2026-05-03T08:33:34.999Z</time></trkpt><trkpt lat="42.29053831975277" lon="13.69388414694243"><ele>862.8333333333334</ele><time>2026-05-03T08:33:45.999Z</time></trkpt><trkpt lat="42.290495709537986" lon="13.693959745425026"><ele>863.0</ele><time>2026-05-03T08:33:46.999Z</time></trkpt><trkpt lat="42.29044388501205" lon="13.694068964749656"><ele>860.8</ele><time>2026-05-03T08:33:47.999Z</time></trkpt><trkpt lat="42.29039371594596" lon="13.69418372237496"><ele>858.5999999999999</ele><time>2026-05-03T08:33:48.999Z</time></trkpt><trkpt lat="42.2903493170555" lon="13.694312735840258"><ele>856.4000000000001</ele><time>2026-05-03T08:33:49.999Z</time></trkpt><trkpt lat="42.29030902815669" lon="13.694432120204546"><ele>854.2</ele><time>2026-05-03T08:33:50.999Z</time></trkpt><trkpt lat="42.29026224548266" lon="13.6945557343326"><ele>852.0</ele><time>2026-05-03T08:33:51.999Z</time></trkpt><trkpt lat="42.29021387739473" lon="13.694695303689791"><ele>852.0</ele><time>2026-05-03T08:33:52.999Z</time></trkpt><trkpt lat="42.290173848843274" lon="13.69482800017333"><ele>852.0</ele><time>2026-05-03T08:33:53.999Z</time></trkpt><trkpt lat="42.29012356805078" lon="13.694995942639734"><ele>852.0</ele><time>2026-05-03T08:33:54.999Z</time></trkpt><trkpt lat="42.29006478359937" lon="13.695175868910654"><ele>852.0</ele><time>2026-05-03T08:33:55.999Z</time></trkpt><trkpt lat="42.290008877621986" lon="13.695353018312584"><ele>852.0</ele><time>2026-05-03T08:33:56.999Z</time></trkpt><trkpt lat="42.28993045595713" lon="13.695498599334657"><ele>852.0</ele><time>2026-05-03T08:33:57.999Z</time></trkpt><trkpt lat="42.28988086776673" lon="13.69563691462135"><ele>852.0</ele><time>2026-05-03T08:33:58.999Z</time></trkpt><trkpt lat="42.289832410165076" lon="13.69577028377711"><ele>852.0</ele><time>2026-05-03T08:33:59.999Z</time></trkpt><trkpt lat="42.2897844844448" lon="13.69590162855143"><ele>848.2</ele><time>2026-05-03T08:34:00.999Z</time></trkpt><trkpt lat="42.289737933718754" lon="13.696029205056918"><ele>844.4000000000001</ele><time>2026-05-03T08:34:01.999Z</time></trkpt><trkpt lat="42.2896921774576" lon="13.69615270138717"><ele>840.5999999999999</ele><time>2026-05-03T08:34:02.999Z</time></trkpt><trkpt lat="42.28966294595789" lon="13.696279330560186"><ele>836.8</ele><time>2026-05-03T08:34:03.999Z</time></trkpt><trkpt lat="42.289610527442626" lon="13.69640328120774"><ele>833.0</ele><time>2026-05-03T08:34:04.999Z</time></trkpt><trkpt lat="42.289556867156364" lon="13.696539875074269"><ele>832.75</ele><time>2026-05-03T08:34:05.999Z</time></trkpt><trkpt lat="42.28949809962208" lon="13.69667941514135"><ele>832.5</ele><time>2026-05-03T08:34:06.999Z</time></trkpt><trkpt lat="42.28944420343993" lon="13.696830173435902"><ele>832.25</ele><time>2026-05-03T08:34:07.999Z</time></trkpt><trkpt lat="42.289400196555576" lon="13.696978719399672"><ele>832.0</ele><time>2026-05-03T08:34:08.999Z</time></trkpt><trkpt lat="42.2893594970211" lon="13.697122369920374"><ele>831.8</ele><time>2026-05-03T08:34:09.999Z</time></trkpt><trkpt lat="42.289322146928306" lon="13.697263207625356"><ele>831.6</ele><time>2026-05-03T08:34:10.999Z</time></trkpt><trkpt lat="42.28928731883604" lon="13.697403152196019"><ele>831.4</ele><time>2026-05-03T08:34:11.999Z</time></trkpt><trkpt lat="42.289255263768304" lon="13.697533425527354"><ele>831.1999999999999</ele><time>2026-05-03T08:34:12.999Z</time></trkpt><trkpt lat="42.289228612444866" lon="13.697648964137201"><ele>831.0</ele><time>2026-05-03T08:34:13.999Z</time></trkpt><trkpt lat="42.289204301620934" lon="13.697750408923078"><ele>830.1666666666666</ele><time>2026-05-03T08:34:14.999Z</time></trkpt><trkpt lat="42.2891668145782" lon="13.697839964504976"><ele>829.3333333333333</ele><time>2026-05-03T08:34:15.999Z</time></trkpt><trkpt lat="42.28914945441853" lon="13.697943521969297"><ele>828.5</ele><time>2026-05-03T08:34:16.999Z</time></trkpt><trkpt lat="42.28911859032786" lon="13.698057105394966"><ele>827.6666666666666</ele><time>2026-05-03T08:34:17.999Z</time></trkpt><trkpt lat="42.28908678520219" lon="13.698162169478044"><ele>826.8333333333333</ele><time>2026-05-03T08:34:18.999Z</time></trkpt><trkpt lat="42.28906105954816" lon="13.698260755481614"><ele>826.0</ele><time>2026-05-03T08:34:19.999Z</time></trkpt><trkpt lat="42.28905063258746" lon="13.698351522140445"><ele>825.9999999999999</ele><time>2026-05-03T08:34:20.999Z</time></trkpt><trkpt lat="42.289027972906354" lon="13.698441959115831"><ele>826.0</ele><time>2026-05-03T08:34:21.999Z</time></trkpt><trkpt lat="42.289015989194404" lon="13.698531780273857"><ele>826.0</ele><time>2026-05-03T08:34:22.999Z</time></trkpt><trkpt lat="42.288995053762044" lon="13.698621121221361"><ele>826.0</ele><time>2026-05-03T08:34:23.999Z</time></trkpt><trkpt lat="42.28897798057998" lon="13.698733210817492"><ele>825.9999999999999</ele><time>2026-05-03T08:34:24.999Z</time></trkpt><trkpt lat="42.288964684613894" lon="13.698861419677593"><ele>826.0</ele><time>2026-05-03T08:34:25.999Z</time></trkpt><trkpt lat="42.28894928908311" lon="13.698981443421829"><ele>824.8333333333333</ele><time>2026-05-03T08:34:26.999Z</time></trkpt><trkpt lat="42.288938434522315" lon="13.699088132983146"><ele>823.6666666666666</ele><time>2026-05-03T08:34:27.999Z</time></trkpt><trkpt lat="42.28893567021725" lon="13.699195735203798"><ele>822.5</ele><time>2026-05-03T08:34:28.999Z</time></trkpt><trkpt lat="42.288925660615945" lon="13.69931067500938"><ele>821.3333333333333</ele><time>2026-05-03T08:34:29.999Z</time></trkpt><trkpt lat="42.28892397719049" lon="13.69942105401395"><ele>820.1666666666666</ele><time>2026-05-03T08:34:30.999Z</time></trkpt><trkpt lat="42.28892304832732" lon="13.699527896086972"><ele>819.0</ele><time>2026-05-03T08:34:31.999Z</time></trkpt><trkpt lat="42.28891974673955" lon="13.69962685433078"><ele>816.6</ele><time>2026-05-03T08:34:32.999Z</time></trkpt><trkpt lat="42.28891687766686" lon="13.699716715159676"><ele>814.2</ele><time>2026-05-03T08:34:33.999Z</time></trkpt><trkpt lat="42.28891454629238" lon="13.69980548527086"><ele>811.8000000000001</ele><time>2026-05-03T08:34:34.999Z</time></trkpt><trkpt lat="42.28890791458274" lon="13.699930029353002"><ele>809.4000000000001</ele><time>2026-05-03T08:34:36.999Z</time></trkpt><trkpt lat="42.28869213393873" lon="13.69997779577008"><ele>807.0</ele><time>2026-05-03T08:34:42Z</time></trkpt><trkpt lat="42.28862843927926" lon="13.699966411926052"><ele>807.0</ele><time>2026-05-03T08:34:43Z</time></trkpt><trkpt lat="42.28851791501035" lon="13.699928293055361"><ele>807.0</ele><time>2026-05-03T08:34:45Z</time></trkpt><trkpt lat="42.28841477064923" lon="13.699871314874091"><ele>807.0</ele><time>2026-05-03T08:34:47Z</time></trkpt><trkpt lat="42.28830506681691" lon="13.699800761825479"><ele>807.0</ele><time>2026-05-03T08:34:49Z</time></trkpt><trkpt lat="42.28820352202022" lon="13.699708765394062"><ele>807.0</ele><time>2026-05-03T08:34:51Z</time></trkpt><trkpt lat="42.28815501453903" lon="13.69964759357281"><ele>807.0</ele><time>2026-05-03T08:34:52Z</time></trkpt><trkpt lat="42.28811518424594" lon="13.699577254450062"><ele>807.0</ele><time>2026-05-03T08:34:53Z</time></trkpt><trkpt lat="42.28806668242912" lon="13.699438165086832"><ele>807.0</ele><time>2026-05-03T08:34:55Z</time></trkpt><trkpt lat="42.28801601442931" lon="13.699303823591993"><ele>807.0</ele><time>2026-05-03T08:34:57Z</time></trkpt><trkpt lat="42.28795127023778" lon="13.699179016664482"><ele>805.1666666666666</ele><time>2026-05-03T08:34:59Z</time></trkpt><trkpt lat="42.287871017648875" lon="13.699157590063738"><ele>803.3333333333333</ele><time>2026-05-03T08:35:01Z</time></trkpt><trkpt lat="42.28779611044619" lon="13.699234358143299"><ele>801.5</ele><time>2026-05-03T08:35:03Z</time></trkpt><trkpt lat="42.28775681744717" lon="13.699349779603951"><ele>799.6666666666666</ele><time>2026-05-03T08:35:05Z</time></trkpt><trkpt lat="42.287740577362335" lon="13.699467718315711"><ele>797.8333333333333</ele><time>2026-05-03T08:35:07Z</time></trkpt><trkpt lat="42.28771818338058" lon="13.699553690401636"><ele>796.0</ele><time>2026-05-03T08:35:08Z</time></trkpt><trkpt lat="42.28767969491353" lon="13.699644124426763"><ele>795.4999999999999</ele><time>2026-05-03T08:35:09Z</time></trkpt><trkpt lat="42.28763266201638" lon="13.699725644915222"><ele>795.0</ele><time>2026-05-03T08:35:10Z</time></trkpt><trkpt lat="42.287591988230474" lon="13.69980843465738"><ele>794.5</ele><time>2026-05-03T08:35:11Z</time></trkpt><trkpt lat="42.28754331893111" lon="13.699883041438385"><ele>794.0</ele><time>2026-05-03T08:35:12Z</time></trkpt><trkpt lat="42.28749551216986" lon="13.699969358029472"><ele>793.4999999999999</ele><time>2026-05-03T08:35:13Z</time></trkpt><trkpt lat="42.287450610923834" lon="13.700057059487483"><ele>793.0</ele><time>2026-05-03T08:35:14Z</time></trkpt><trkpt lat="42.287406694182344" lon="13.70013661685842"><ele>793.0000000000001</ele><time>2026-05-03T08:35:15Z</time></trkpt><trkpt lat="42.287373058024585" lon="13.70021442728026"><ele>793.0</ele><time>2026-05-03T08:35:16Z</time></trkpt><trkpt lat="42.287334407606245" lon="13.700285222540161"><ele>793.0</ele><time>2026-05-03T08:35:17Z</time></trkpt><trkpt lat="42.28730025143802" lon="13.70035765820476"><ele>793.0</ele><time>2026-05-03T08:35:18Z</time></trkpt><trkpt lat="42.28726021405906" lon="13.700448971998712"><ele>793.0</ele><time>2026-05-03T08:35:19Z</time></trkpt><trkpt lat="42.287219176032586" lon="13.700552893824167"><ele>793.0000000000001</ele><time>2026-05-03T08:35:20Z</time></trkpt><trkpt lat="42.28718241298432" lon="13.70066105675503"><ele>793.0</ele><time>2026-05-03T08:35:21Z</time></trkpt><trkpt lat="42.287153599033246" lon="13.700763110839072"><ele>791.0</ele><time>2026-05-03T08:35:22Z</time></trkpt><trkpt lat="42.28713056549814" lon="13.700876081356267"><ele>789.0</ele><time>2026-05-03T08:35:23Z</time></trkpt><trkpt lat="42.2871294503288" lon="13.701000279434858"><ele>787.0</ele><time>2026-05-03T08:35:24Z</time></trkpt><trkpt lat="42.28713818118262" lon="13.701133633073416"><ele>785.0</ele><time>2026-05-03T08:35:25Z</time></trkpt><trkpt lat="42.28715449164586" lon="13.701281741669362"><ele>783.0</ele><time>2026-05-03T08:35:26Z</time></trkpt><trkpt lat="42.2871509186087" lon="13.701415330956237"><ele>783.0</ele><time>2026-05-03T08:35:27Z</time></trkpt><trkpt lat="42.287136473410705" lon="13.701544541025552"><ele>783.0</ele><time>2026-05-03T08:35:28Z</time></trkpt><trkpt lat="42.28711438922513" lon="13.701679240927579"><ele>783.0</ele><time>2026-05-03T08:35:29Z</time></trkpt><trkpt lat="42.28707505908761" lon="13.701812675082087"><ele>783.0</ele><time>2026-05-03T08:35:30Z</time></trkpt><trkpt lat="42.28702204681963" lon="13.701935420896529"><ele>783.0</ele><time>2026-05-03T08:35:31Z</time></trkpt><trkpt lat="42.286957613909735" lon="13.702063195358772"><ele>782.75</ele><time>2026-05-03T08:35:32Z</time></trkpt><trkpt lat="42.286908083820556" lon="13.702194678827595"><ele>782.5</ele><time>2026-05-03T08:35:33Z</time></trkpt><trkpt lat="42.28685606081361" lon="13.702322017181388"><ele>782.25</ele><time>2026-05-03T08:35:34Z</time></trkpt><trkpt lat="42.28679217243072" lon="13.70249238373752"><ele>782.0</ele><time>2026-05-03T08:35:35Z</time></trkpt><trkpt lat="42.28673124893276" lon="13.702660414673742"><ele>783.0</ele><time>2026-05-03T08:35:36Z</time></trkpt><trkpt lat="42.286676996935846" lon="13.702815086842707"><ele>784.0</ele><time>2026-05-03T08:35:37Z</time></trkpt><trkpt lat="42.28661500300801" lon="13.702957165111563"><ele>785.0</ele><time>2026-05-03T08:35:38Z</time></trkpt><trkpt lat="42.286554462695214" lon="13.703080636124717"><ele>786.0</ele><time>2026-05-03T08:35:39Z</time></trkpt><trkpt lat="42.286499093473985" lon="13.703202036095394"><ele>786.0</ele><time>2026-05-03T08:35:40Z</time></trkpt><trkpt lat="42.28645665851925" lon="13.703320566881413"><ele>786.0</ele><time>2026-05-03T08:35:41Z</time></trkpt><trkpt lat="42.28641795259972" lon="13.70344461015075"><ele>786.0</ele><time>2026-05-03T08:35:42Z</time></trkpt><trkpt lat="42.286385730086266" lon="13.703567121839619"><ele>786.0</ele><time>2026-05-03T08:35:43Z</time></trkpt><trkpt lat="42.28635677992441" lon="13.703679958990318"><ele>786.0</ele><time>2026-05-03T08:35:44Z</time></trkpt><trkpt lat="42.28632998391685" lon="13.703773103216168"><ele>784.0</ele><time>2026-05-03T08:35:44.999Z</time></trkpt><trkpt lat="42.28625696114659" lon="13.703883264153443"><ele>782.0</ele><time>2026-05-03T08:35:46.999Z</time></trkpt><trkpt lat="42.28614119070911" lon="13.703881925585957"><ele>780.0</ele><time>2026-05-03T08:35:48.999Z</time></trkpt><trkpt lat="42.2860562680451" lon="13.703846179597692"><ele>778.0</ele><time>2026-05-03T08:35:49.999Z</time></trkpt><trkpt lat="42.285961939276035" lon="13.703809709914474"><ele>776.0</ele><time>2026-05-03T08:35:50.999Z</time></trkpt><trkpt lat="42.28586561758083" lon="13.703783212199276"><ele>776.0000000000001</ele><time>2026-05-03T08:35:51.999Z</time></trkpt><trkpt lat="42.28578303306677" lon="13.703767780393658"><ele>776.0</ele><time>2026-05-03T08:35:52.999Z</time></trkpt><trkpt lat="42.28570357585344" lon="13.70377220651216"><ele>776.0</ele><time>2026-05-03T08:35:53.999Z</time></trkpt><trkpt lat="42.28562585946032" lon="13.703781935703962"><ele>776.0</ele><time>2026-05-03T08:35:54.999Z</time></trkpt><trkpt lat="42.285558065011315" lon="13.703818589897834"><ele>776.0000000000001</ele><time>2026-05-03T08:35:55.999Z</time></trkpt><trkpt lat="42.28550446036909" lon="13.703893400675875"><ele>776.0</ele><time>2026-05-03T08:35:56.999Z</time></trkpt><trkpt lat="42.28545191802065" lon="13.703996674632677"><ele>778.8</ele><time>2026-05-03T08:35:57.999Z</time></trkpt><trkpt lat="42.28539323802377" lon="13.704101509592967"><ele>781.5999999999999</ele><time>2026-05-03T08:35:58.999Z</time></trkpt><trkpt lat="42.28532925050353" lon="13.704201012138729"><ele>784.4</ele><time>2026-05-03T08:35:59.999Z</time></trkpt><trkpt lat="42.285266745363444" lon="13.704306118031097"><ele>787.2</ele><time>2026-05-03T08:36:00.999Z</time></trkpt><trkpt lat="42.28521053116839" lon="13.704423008206058"><ele>790.0</ele><time>2026-05-03T08:36:01.999Z</time></trkpt><trkpt lat="42.285176453426" lon="13.70454084725943"><ele>790.0</ele><time>2026-05-03T08:36:02.999Z</time></trkpt><trkpt lat="42.285144327454816" lon="13.70466753848086"><ele>790.0</ele><time>2026-05-03T08:36:03.999Z</time></trkpt><trkpt lat="42.285118986444466" lon="13.704795447587683"><ele>790.0</ele><time>2026-05-03T08:36:04.999Z</time></trkpt><trkpt lat="42.28508496546139" lon="13.704920913816927"><ele>790.0</ele><time>2026-05-03T08:36:05.999Z</time></trkpt><trkpt lat="42.285052203362326" lon="13.705050219973426"><ele>790.0</ele><time>2026-05-03T08:36:06.999Z</time></trkpt><trkpt lat="42.28502692580557" lon="13.705178692106056"><ele>789.0</ele><time>2026-05-03T08:36:07.999Z</time></trkpt><trkpt lat="42.28499352283671" lon="13.705305767717332"><ele>788.0</ele><time>2026-05-03T08:36:08.999Z</time></trkpt><trkpt lat="42.28495649782644" lon="13.705436926665875"><ele>787.0</ele><time>2026-05-03T08:36:09.999Z</time></trkpt><trkpt lat="42.28490685861703" lon="13.705556823959297"><ele>786.0</ele><time>2026-05-03T08:36:10.999Z</time></trkpt><trkpt lat="42.28485952950025" lon="13.705671905516946"><ele>785.0</ele><time>2026-05-03T08:36:11.999Z</time></trkpt><trkpt lat="42.28481894739717" lon="13.70580577768681"><ele>785.0</ele><time>2026-05-03T08:36:12.999Z</time></trkpt><trkpt lat="42.284787164532226" lon="13.70593551968542"><ele>785.0</ele><time>2026-05-03T08:36:13.999Z</time></trkpt><trkpt lat="42.284758800440216" lon="13.7060693704422"><ele>785.0</ele><time>2026-05-03T08:36:14.999Z</time></trkpt><trkpt lat="42.28472838140857" lon="13.706193427279706"><ele>785.0</ele><time>2026-05-03T08:36:15.999Z</time></trkpt><trkpt lat="42.284690357295574" lon="13.70630496004993"><ele>785.0</ele><time>2026-05-03T08:36:16.999Z</time></trkpt><trkpt lat="42.2846387568869" lon="13.706420874100443"><ele>789.0</ele><time>2026-05-03T08:36:17.999Z</time></trkpt><trkpt lat="42.28457919172789" lon="13.7065431018826"><ele>793.0</ele><time>2026-05-03T08:36:18.999Z</time></trkpt><trkpt lat="42.2845129095673" lon="13.706663733684913"><ele>797.0</ele><time>2026-05-03T08:36:19.999Z</time></trkpt><trkpt lat="42.28444268648564" lon="13.706780565623506"><ele>801.0</ele><time>2026-05-03T08:36:20.999Z</time></trkpt><trkpt lat="42.284360513584424" lon="13.706879637828758"><ele>805.0</ele><time>2026-05-03T08:36:21.999Z</time></trkpt><trkpt lat="42.28427591684885" lon="13.70697260812413"><ele>805.0</ele><time>2026-05-03T08:36:22.999Z</time></trkpt><trkpt lat="42.28421011847405" lon="13.707047919126186"><ele>805.0</ele><time>2026-05-03T08:36:23.999Z</time></trkpt><trkpt lat="42.28414854608369" lon="13.707130153545569"><ele>805.0</ele><time>2026-05-03T08:36:24.999Z</time></trkpt><trkpt lat="42.284071375777835" lon="13.707212946699372"><ele>805.0</ele><time>2026-05-03T08:36:25.999Z</time></trkpt><trkpt lat="42.28400251696141" lon="13.707305514255928"><ele>805.0</ele><time>2026-05-03T08:36:26.999Z</time></trkpt><trkpt lat="42.28394761363527" lon="13.707397111995556"><ele>807.6</ele><time>2026-05-03T08:36:27.999Z</time></trkpt><trkpt lat="42.28387816060079" lon="13.707489506695174"><ele>810.2</ele><time>2026-05-03T08:36:28.999Z</time></trkpt><trkpt lat="42.28381804294256" lon="13.707583707136084"><ele>812.8</ele><time>2026-05-03T08:36:29.999Z</time></trkpt><trkpt lat="42.28375266674049" lon="13.707695593020134"><ele>815.4</ele><time>2026-05-03T08:36:30.999Z</time></trkpt><trkpt lat="42.28368895441109" lon="13.707815990504514"><ele>818.0</ele><time>2026-05-03T08:36:31.999Z</time></trkpt><trkpt lat="42.28363148563159" lon="13.707922041364114"><ele>818.0</ele><time>2026-05-03T08:36:32.999Z</time></trkpt><trkpt lat="42.283576926176345" lon="13.708057234936149"><ele>818.0</ele><time>2026-05-03T08:36:33.999Z</time></trkpt><trkpt lat="42.28351548550615" lon="13.70816353436364"><ele>818.0</ele><time>2026-05-03T08:36:34.999Z</time></trkpt><trkpt lat="42.28344540302541" lon="13.708256788208221"><ele>818.0</ele><time>2026-05-03T08:36:35.999Z</time></trkpt><trkpt lat="42.28336510631703" lon="13.708355993632875"><ele>818.0</ele><time>2026-05-03T08:36:36.999Z</time></trkpt><trkpt lat="42.28328388348204" lon="13.708452305313608"><ele>818.0</ele><time>2026-05-03T08:36:37.999Z</time></trkpt><trkpt lat="42.283198146397474" lon="13.70854516489565"><ele>818.0</ele><time>2026-05-03T08:36:38.999Z</time></trkpt><trkpt lat="42.28312103580967" lon="13.708640492729879"><ele>818.0</ele><time>2026-05-03T08:36:39.999Z</time></trkpt><trkpt lat="42.28304929309082" lon="13.70873360444076"><ele>818.0</ele><time>2026-05-03T08:36:40.999Z</time></trkpt><trkpt lat="42.283001304532874" lon="13.708816687439194"><ele>818.0</ele><time>2026-05-03T08:36:41.999Z</time></trkpt><trkpt lat="42.28288717284149" lon="13.70886759108846"><ele>818.5999999999999</ele><time>2026-05-03T08:36:42.999Z</time></trkpt><trkpt lat="42.282810861214344" lon="13.708884984688313"><ele>819.1999999999999</ele><time>2026-05-03T08:36:43.999Z</time></trkpt><trkpt lat="42.28272691695907" lon="13.70890237296473"><ele>819.8</ele><time>2026-05-03T08:36:44.999Z</time></trkpt><trkpt lat="42.282643519900965" lon="13.708945134605809"><ele>820.4</ele><time>2026-05-03T08:36:45.999Z</time></trkpt><trkpt lat="42.2825524775156" lon="13.709008730427113"><ele>821.0</ele><time>2026-05-03T08:36:47Z</time></trkpt><trkpt lat="42.28246357495975" lon="13.709085240903708"><ele>821.0</ele><time>2026-05-03T08:36:48Z</time></trkpt><trkpt lat="42.28237091089264" lon="13.709156512854573"><ele>821.0</ele><time>2026-05-03T08:36:49Z</time></trkpt><trkpt lat="42.28227421163501" lon="13.709227636515637"><ele>821.0</ele><time>2026-05-03T08:36:50Z</time></trkpt><trkpt lat="42.282174426635144" lon="13.70929743977016"><ele>821.0</ele><time>2026-05-03T08:36:51Z</time></trkpt><trkpt lat="42.28208094849323" lon="13.709362808807745"><ele>821.0</ele><time>2026-05-03T08:36:52Z</time></trkpt><trkpt lat="42.28198378954931" lon="13.709432327398986"><ele>821.1999999999999</ele><time>2026-05-03T08:36:53Z</time></trkpt><trkpt lat="42.28189789834262" lon="13.709498899981789"><ele>821.4</ele><time>2026-05-03T08:36:54Z</time></trkpt><trkpt lat="42.28181391522011" lon="13.709556202189717"><ele>821.6</ele><time>2026-05-03T08:36:55Z</time></trkpt><trkpt lat="42.28172236994215" lon="13.709607197890845"><ele>821.8</ele><time>2026-05-03T08:36:56Z</time></trkpt><trkpt lat="42.28161915340048" lon="13.709646535868664"><ele>822.0</ele><time>2026-05-03T08:36:57Z</time></trkpt><trkpt lat="42.28153306262051" lon="13.709719019839687"><ele>822.0</ele><time>2026-05-03T08:36:58Z</time></trkpt><trkpt lat="42.28145623956355" lon="13.709800817226999"><ele>822.0</ele><time>2026-05-03T08:36:59Z</time></trkpt><trkpt lat="42.2813737497278" lon="13.709874672776952"><ele>822.0</ele><time>2026-05-03T08:37:00Z</time></trkpt><trkpt lat="42.28129288533878" lon="13.709920242606506"><ele>822.0</ele><time>2026-05-03T08:37:01Z</time></trkpt><trkpt lat="42.28120168278532" lon="13.709960412659512"><ele>822.0</ele><time>2026-05-03T08:37:02Z</time></trkpt><trkpt lat="42.28110784641015" lon="13.709979216942317"><ele>825.5</ele><time>2026-05-03T08:37:03Z</time></trkpt><trkpt lat="42.281013380157724" lon="13.70999624003366"><ele>829.0</ele><time>2026-05-03T08:37:04Z</time></trkpt><trkpt lat="42.28092403414858" lon="13.710029096330459"><ele>832.5</ele><time>2026-05-03T08:37:05Z</time></trkpt><trkpt lat="42.2808463225872" lon="13.710077519710802"><ele>836.0</ele><time>2026-05-03T08:37:06Z</time></trkpt><trkpt lat="42.280759655342436" lon="13.710106961742488"><ele>839.5</ele><time>2026-05-03T08:37:07Z</time></trkpt><trkpt lat="42.28068114339365" lon="13.710121624421271"><ele>843.0</ele><time>2026-05-03T08:37:08Z</time></trkpt><trkpt lat="42.28059142790715" lon="13.710130081342571"><ele>845.2</ele><time>2026-05-03T08:37:09Z</time></trkpt><trkpt lat="42.280503420487946" lon="13.71014434250162"><ele>847.4</ele><time>2026-05-03T08:37:10Z</time></trkpt><trkpt lat="42.280401207126125" lon="13.710160376826463"><ele>849.6000000000001</ele><time>2026-05-03T08:37:11Z</time></trkpt><trkpt lat="42.28031418417469" lon="13.710145007563842"><ele>851.8000000000001</ele><time>2026-05-03T08:37:12Z</time></trkpt><trkpt lat="42.28022382359906" lon="13.710132926222185"><ele>854.0</ele><time>2026-05-03T08:37:13Z</time></trkpt><trkpt lat="42.2801427831411" lon="13.710128881519722"><ele>854.0</ele><time>2026-05-03T08:37:14Z</time></trkpt><trkpt lat="42.28006325924585" lon="13.710162835619531"><ele>854.0000000000001</ele><time>2026-05-03T08:37:15Z</time></trkpt><trkpt lat="42.279983501650875" lon="13.710208170256605"><ele>854.0000000000001</ele><time>2026-05-03T08:37:16Z</time></trkpt><trkpt lat="42.27989804302339" lon="13.710228009116477"><ele>854.0</ele><time>2026-05-03T08:37:17Z</time></trkpt><trkpt lat="42.279791435260854" lon="13.710219020771861"><ele>854.0</ele><time>2026-05-03T08:37:18Z</time></trkpt><trkpt lat="42.27970074550921" lon="13.710224188883958"><ele>855.4000000000001</ele><time>2026-05-03T08:37:19Z</time></trkpt><trkpt lat="42.279605180767504" lon="13.710224374553153"><ele>856.8000000000001</ele><time>2026-05-03T08:37:20Z</time></trkpt><trkpt lat="42.279513563121604" lon="13.710207577416396"><ele>858.1999999999999</ele><time>2026-05-03T08:37:21Z</time></trkpt><trkpt lat="42.27941168516306" lon="13.710195413125856"><ele>859.5999999999999</ele><time>2026-05-03T08:37:22Z</time></trkpt><trkpt lat="42.2793158337262" lon="13.71020570688748"><ele>861.0</ele><time>2026-05-03T08:37:23Z</time></trkpt><trkpt lat="42.279237897105006" lon="13.710205785658196"><ele>861.0</ele><time>2026-05-03T08:37:24Z</time></trkpt><trkpt lat="42.279170968460505" lon="13.71017820228344"><ele>861.0</ele><time>2026-05-03T08:37:25Z</time></trkpt><trkpt lat="42.27910163737772" lon="13.710122557359758"><ele>861.0</ele><time>2026-05-03T08:37:26Z</time></trkpt><trkpt lat="42.27903077339782" lon="13.71007712209101"><ele>861.0</ele><time>2026-05-03T08:37:27Z</time></trkpt><trkpt lat="42.278948427495266" lon="13.710064961453549"><ele>861.0</ele><time>2026-05-03T08:37:28Z</time></trkpt><trkpt lat="42.27885778596106" lon="13.710086286325701"><ele>861.0</ele><time>2026-05-03T08:37:29Z</time></trkpt><trkpt lat="42.278762538488394" lon="13.710110152346271"><ele>863.5999999999999</ele><time>2026-05-03T08:37:30Z</time></trkpt><trkpt lat="42.27866367948154" lon="13.710130756610782"><ele>866.1999999999999</ele><time>2026-05-03T08:37:31Z</time></trkpt><trkpt lat="42.278564050310756" lon="13.71015603900527"><ele>868.8000000000001</ele><time>2026-05-03T08:37:32Z</time></trkpt><trkpt lat="42.27848160045492" lon="13.710165248175848"><ele>871.4000000000001</ele><time>2026-05-03T08:37:33Z</time></trkpt><trkpt lat="42.2783925294055" lon="13.71016979944831"><ele>874.0</ele><time>2026-05-03T08:37:34Z</time></trkpt><trkpt lat="42.278293806044" lon="13.710187372079709"><ele>874.0</ele><time>2026-05-03T08:37:35Z</time></trkpt><trkpt lat="42.27819518837762" lon="13.710226113408726"><ele>874.0000000000001</ele><time>2026-05-03T08:37:36Z</time></trkpt><trkpt lat="42.27810156991172" lon="13.710262772149228"><ele>874.0000000000001</ele><time>2026-05-03T08:37:37Z</time></trkpt><trkpt lat="42.27801338264745" lon="13.710289013477565"><ele>874.0</ele><time>2026-05-03T08:37:38Z</time></trkpt><trkpt lat="42.277929142198374" lon="13.71030948344245"><ele>874.0</ele><time>2026-05-03T08:37:39Z</time></trkpt><trkpt lat="42.27784954551176" lon="13.710322991874007"><ele>874.9999999999999</ele><time>2026-05-03T08:37:40Z</time></trkpt><trkpt lat="42.27777558636868" lon="13.710332317431705"><ele>876.0</ele><time>2026-05-03T08:37:41Z</time></trkpt><trkpt lat="42.277709081313134" lon="13.710341011333515"><ele>877.0</ele><time>2026-05-03T08:37:42Z</time></trkpt><trkpt lat="42.277636524567946" lon="13.71034586569855"><ele>878.0</ele><time>2026-05-03T08:37:43Z</time></trkpt><trkpt lat="42.27754687319885" lon="13.710358918471425"><ele>878.9999999999999</ele><time>2026-05-03T08:37:44Z</time></trkpt><trkpt lat="42.27746148647946" lon="13.710386070791603"><ele>880.0</ele><time>2026-05-03T08:37:45Z</time></trkpt><trkpt lat="42.277399092922664" lon="13.710420130889434"><ele>879.9999999999999</ele><time>2026-05-03T08:37:46Z</time></trkpt><trkpt lat="42.277324294619895" lon="13.710529430859003"><ele>880.0</ele><time>2026-05-03T08:37:48Z</time></trkpt><trkpt lat="42.277263044093154" lon="13.710592198220644"><ele>880.0</ele><time>2026-05-03T08:37:50Z</time></trkpt><trkpt lat="42.277170175596474" lon="13.710615947527891"><ele>880.0</ele><time>2026-05-03T08:37:55.999Z</time></trkpt><trkpt lat="42.27710828081205" lon="13.710632736954977"><ele>879.9999999999999</ele><time>2026-05-03T08:37:56.999Z</time></trkpt><trkpt lat="42.277026101914714" lon="13.710650691124343"><ele>880.0</ele><time>2026-05-03T08:37:57.999Z</time></trkpt><trkpt lat="42.27695071421775" lon="13.710671845253293"><ele>879.0</ele><time>2026-05-03T08:37:58.999Z</time></trkpt><trkpt lat="42.276881912153954" lon="13.710701270438916"><ele>878.0</ele><time>2026-05-03T08:37:59.999Z</time></trkpt><trkpt lat="42.27676669436059" lon="13.710755387422255"><ele>877.0</ele><time>2026-05-03T08:38:01.999Z</time></trkpt><trkpt lat="42.27664515135499" lon="13.710774160412267"><ele>876.0</ele><time>2026-05-03T08:38:03.999Z</time></trkpt><trkpt lat="42.276531090895" lon="13.710723045181652"><ele>875.0</ele><time>2026-05-03T08:38:05.999Z</time></trkpt><trkpt lat="42.27642999310302" lon="13.71070710447242"><ele>873.4</ele><time>2026-05-03T08:38:07.999Z</time></trkpt><trkpt lat="42.27631094446678" lon="13.710688924646893"><ele>871.8</ele><time>2026-05-03T08:38:09.999Z</time></trkpt><trkpt lat="42.27619532427414" lon="13.710707844381478"><ele>870.2</ele><time>2026-05-03T08:38:11.999Z</time></trkpt><trkpt lat="42.27614244366474" lon="13.71076679327128"><ele>868.6</ele><time>2026-05-03T08:38:12.999Z</time></trkpt><trkpt lat="42.27608479481468" lon="13.710845260443289"><ele>867.0</ele><time>2026-05-03T08:38:13.999Z</time></trkpt><trkpt lat="42.276023551623474" lon="13.71091668242072"><ele>867.0</ele><time>2026-05-03T08:38:14.999Z</time></trkpt><trkpt lat="42.275960757908884" lon="13.710967272253658"><ele>867.0</ele><time>2026-05-03T08:38:15.999Z</time></trkpt><trkpt lat="42.27589759902025" lon="13.710995169047816"><ele>867.0</ele><time>2026-05-03T08:38:16.999Z</time></trkpt><trkpt lat="42.27582566224386" lon="13.711018685227605"><ele>867.0</ele><time>2026-05-03T08:38:17.999Z</time></trkpt><trkpt lat="42.27574663216867" lon="13.711047473218956"><ele>867.0</ele><time>2026-05-03T08:38:18.999Z</time></trkpt><trkpt lat="42.27566570202856" lon="13.71107142926153"><ele>867.0</ele><time>2026-05-03T08:38:19.999Z</time></trkpt><trkpt lat="42.27557905520593" lon="13.711102077226194"><ele>868.0</ele><time>2026-05-03T08:38:20.999Z</time></trkpt><trkpt lat="42.275508316350184" lon="13.711156029952576"><ele>869.0</ele><time>2026-05-03T08:38:21.999Z</time></trkpt><trkpt lat="42.27543229053861" lon="13.711216970856954"><ele>870.0</ele><time>2026-05-03T08:38:22.999Z</time></trkpt><trkpt lat="42.27533834351321" lon="13.711267935105148"><ele>871.0</ele><time>2026-05-03T08:38:23.999Z</time></trkpt><trkpt lat="42.27525680765613" lon="13.711310583700778"><ele>872.0</ele><time>2026-05-03T08:38:24.999Z</time></trkpt><trkpt lat="42.27518102302655" lon="13.711364304583038"><ele>873.0</ele><time>2026-05-03T08:38:25.999Z</time></trkpt><trkpt lat="42.27511582521238" lon="13.711433991701838"><ele>873.0</ele><time>2026-05-03T08:38:26.999Z</time></trkpt><trkpt lat="42.27505282164304" lon="13.711507006512615"><ele>873.0</ele><time>2026-05-03T08:38:27.999Z</time></trkpt><trkpt lat="42.27499038046014" lon="13.711594082275653"><ele>873.0</ele><time>2026-05-03T08:38:28.999Z</time></trkpt><trkpt lat="42.27493134186191" lon="13.71166363114886"><ele>873.0</ele><time>2026-05-03T08:38:29.999Z</time></trkpt><trkpt lat="42.27487628296426" lon="13.711726788421544"><ele>873.0</ele><time>2026-05-03T08:38:30.999Z</time></trkpt><trkpt lat="42.27481710008566" lon="13.711799350633358"><ele>873.0</ele><time>2026-05-03T08:38:31.999Z</time></trkpt><trkpt lat="42.274753151551025" lon="13.71187620788175"><ele>873.2</ele><time>2026-05-03T08:38:32.999Z</time></trkpt><trkpt lat="42.274680210358945" lon="13.711942164076412"><ele>873.4</ele><time>2026-05-03T08:38:33.999Z</time></trkpt><trkpt lat="42.274615785122" lon="13.711990314540893"><ele>873.6000000000001</ele><time>2026-05-03T08:38:34.999Z</time></trkpt><trkpt lat="42.27456226701408" lon="13.712039145731511"><ele>873.8000000000001</ele><time>2026-05-03T08:38:35.999Z</time></trkpt><trkpt lat="42.27444742646764" lon="13.712151363228841"><ele>874.0</ele><time>2026-05-03T08:38:37.999Z</time></trkpt><trkpt lat="42.274369371126156" lon="13.712211503293279"><ele>873.9999999999999</ele><time>2026-05-03T08:38:38.999Z</time></trkpt><trkpt lat="42.27430386310902" lon="13.712245523332022"><ele>874.0</ele><time>2026-05-03T08:38:39.999Z</time></trkpt><trkpt lat="42.27421994969387" lon="13.712223140125651"><ele>874.0</ele><time>2026-05-03T08:38:41.999Z</time></trkpt><trkpt lat="42.274155066380345" lon="13.712195469181664"><ele>874.0</ele><time>2026-05-03T08:38:43.999Z</time></trkpt><trkpt lat="42.274096543971645" lon="13.712250412170338"><ele>873.9999999999999</ele><time>2026-05-03T08:38:45.999Z</time></trkpt><trkpt lat="42.27403468228651" lon="13.712354942209057"><ele>874.0</ele><time>2026-05-03T08:38:47.999Z</time></trkpt><trkpt lat="42.27399301968607" lon="13.712432351546708"><ele>873.9999999999999</ele><time>2026-05-03T08:38:48.999Z</time></trkpt><trkpt lat="42.27395818930086" lon="13.712525908343663"><ele>874.0</ele><time>2026-05-03T08:38:49.999Z</time></trkpt><trkpt lat="42.27389552563336" lon="13.712589997063018"><ele>874.0</ele><time>2026-05-03T08:38:51.999Z</time></trkpt><trkpt lat="42.27385619755954" lon="13.712518736529043"><ele>874.0</ele><time>2026-05-03T08:38:54Z</time></trkpt><trkpt lat="42.27385534427825" lon="13.712386030819768"><ele>873.9999999999999</ele><time>2026-05-03T08:38:56Z</time></trkpt><trkpt lat="42.27384980097487" lon="13.712257590827575"><ele>874.0</ele><time>2026-05-03T08:38:58Z</time></trkpt><trkpt lat="42.27383083215496" lon="13.712107377580208"><ele>874.9999999999999</ele><time>2026-05-03T08:40:13.999Z</time></trkpt><trkpt lat="42.273812295109536" lon="13.712014916775868"><ele>876.0</ele><time>2026-05-03T08:40:14.999Z</time></trkpt><trkpt lat="42.2737834885189" lon="13.711909316652418"><ele>877.0</ele><time>2026-05-03T08:40:15.999Z</time></trkpt><trkpt lat="42.27375127486424" lon="13.711805775018322"><ele>878.0</ele><time>2026-05-03T08:40:16.999Z</time></trkpt><trkpt lat="42.27371960396367" lon="13.711699184345687"><ele>878.9999999999999</ele><time>2026-05-03T08:40:17.999Z</time></trkpt><trkpt lat="42.27367924366142" lon="13.711595576593648"><ele>880.0</ele><time>2026-05-03T08:40:18.999Z</time></trkpt><trkpt lat="42.273644160657845" lon="13.711496696584986"><ele>879.9999999999999</ele><time>2026-05-03T08:40:19.999Z</time></trkpt><trkpt lat="42.273608654138876" lon="13.711387592567224"><ele>880.0</ele><time>2026-05-03T08:40:20.999Z</time></trkpt><trkpt lat="42.273574982301014" lon="13.711294821636297"><ele>880.0</ele><time>2026-05-03T08:40:21.999Z</time></trkpt><trkpt lat="42.27354458910497" lon="13.711204337068915"><ele>880.0</ele><time>2026-05-03T08:40:22.999Z</time></trkpt><trkpt lat="42.27350407680895" lon="13.711124014702394"><ele>879.9999999999999</ele><time>2026-05-03T08:40:23.999Z</time></trkpt><trkpt lat="42.27345118582343" lon="13.711028391870155"><ele>880.0</ele><time>2026-05-03T08:40:24.999Z</time></trkpt><trkpt lat="42.273402360001825" lon="13.710924080401785"><ele>880.4999999999999</ele><time>2026-05-03T08:40:25.999Z</time></trkpt><trkpt lat="42.273359404271055" lon="13.710819779427043"><ele>881.0</ele><time>2026-05-03T08:40:26.999Z</time></trkpt><trkpt lat="42.27331422182135" lon="13.710723206590634"><ele>881.5</ele><time>2026-05-03T08:40:27.999Z</time></trkpt><trkpt lat="42.27327070370734" lon="13.710631097181128"><ele>882.0</ele><time>2026-05-03T08:40:28.999Z</time></trkpt><trkpt lat="42.27322651793428" lon="13.710549840964372"><ele>882.4999999999999</ele><time>2026-05-03T08:40:29.999Z</time></trkpt><trkpt lat="42.27317709765084" lon="13.710483276323432"><ele>883.0</ele><time>2026-05-03T08:40:30.999Z</time></trkpt><trkpt lat="42.27307002758055" lon="13.71039371892506"><ele>882.9999999999999</ele><time>2026-05-03T08:40:32.999Z</time></trkpt><trkpt lat="42.272998252418965" lon="13.710368514883728"><ele>883.0</ele><time>2026-05-03T08:40:33.999Z</time></trkpt><trkpt lat="42.2729279015655" lon="13.710372529056002"><ele>883.0</ele><time>2026-05-03T08:40:34.999Z</time></trkpt><trkpt lat="42.272855934074016" lon="13.710393402458456"><ele>883.0</ele><time>2026-05-03T08:40:35.999Z</time></trkpt><trkpt lat="42.27278123083317" lon="13.710401116038716"><ele>882.9999999999999</ele><time>2026-05-03T08:40:36.999Z</time></trkpt><trkpt lat="42.272705964149175" lon="13.710413844363513"><ele>883.0</ele><time>2026-05-03T08:40:37.999Z</time></trkpt><trkpt lat="42.27262080593293" lon="13.71042827195138"><ele>883.0</ele><time>2026-05-03T08:40:38.999Z</time></trkpt><trkpt lat="42.27253685639146" lon="13.710441751106947"><ele>883.0</ele><time>2026-05-03T08:40:39.999Z</time></trkpt><trkpt lat="42.27246739344507" lon="13.710443432645683"><ele>883.0</ele><time>2026-05-03T08:40:40.999Z</time></trkpt><trkpt lat="42.272397702686824" lon="13.710370882062508"><ele>883.0</ele><time>2026-05-03T08:40:42.999Z</time></trkpt><trkpt lat="42.27235953497034" lon="13.71021101156344"><ele>883.0</ele><time>2026-05-03T08:40:44.999Z</time></trkpt><trkpt lat="42.27230275714676" lon="13.71009029191971"><ele>882.2</ele><time>2026-05-03T08:40:46.999Z</time></trkpt><trkpt lat="42.27221190963433" lon="13.710061296578493"><ele>881.4</ele><time>2026-05-03T08:40:48.999Z</time></trkpt><trkpt lat="42.27210865639833" lon="13.710039828672723"><ele>880.6000000000001</ele><time>2026-05-03T08:40:50.999Z</time></trkpt><trkpt lat="42.27204135481545" lon="13.709967702927925"><ele>879.8000000000001</ele><time>2026-05-03T08:40:52.999Z</time></trkpt><trkpt lat="42.27197433235134" lon="13.709865585947096"><ele>879.0</ele><time>2026-05-03T08:40:54.999Z</time></trkpt><trkpt lat="42.27192923043387" lon="13.709801032695282"><ele>879.0</ele><time>2026-05-03T08:40:55.999Z</time></trkpt><trkpt lat="42.27187298080495" lon="13.709715220059987"><ele>879.0</ele><time>2026-05-03T08:40:56.999Z</time></trkpt><trkpt lat="42.271819324493336" lon="13.70962346142511"><ele>879.0</ele><time>2026-05-03T08:40:57.999Z</time></trkpt><trkpt lat="42.271780424853354" lon="13.709531445829763"><ele>879.0</ele><time>2026-05-03T08:40:59Z</time></trkpt><trkpt lat="42.271751167058305" lon="13.709424595738055"><ele>879.0</ele><time>2026-05-03T08:41:00Z</time></trkpt><trkpt lat="42.27173497245617" lon="13.709319351148851"><ele>879.0</ele><time>2026-05-03T08:41:01Z</time></trkpt><trkpt lat="42.271718594493606" lon="13.709223203523624"><ele>878.8571428571429</ele><time>2026-05-03T08:41:02Z</time></trkpt><trkpt lat="42.27170918430858" lon="13.70913088372086"><ele>878.7142857142858</ele><time>2026-05-03T08:41:03Z</time></trkpt><trkpt lat="42.271696918916135" lon="13.709044473640342"><ele>878.5714285714286</ele><time>2026-05-03T08:41:04Z</time></trkpt><trkpt lat="42.27167607336245" lon="13.708953989490663"><ele>878.4285714285714</ele><time>2026-05-03T08:41:05Z</time></trkpt><trkpt lat="42.27165563431074" lon="13.70885860755408"><ele>878.2857142857142</ele><time>2026-05-03T08:41:06Z</time></trkpt><trkpt lat="42.27163815683205" lon="13.708757643590724"><ele>878.1428571428571</ele><time>2026-05-03T08:41:07Z</time></trkpt><trkpt lat="42.27161970552115" lon="13.708660921623968"><ele>878.0</ele><time>2026-05-03T08:41:08Z</time></trkpt><trkpt lat="42.27160692796571" lon="13.70856207489802"><ele>877.5000000000001</ele><time>2026-05-03T08:41:09Z</time></trkpt><trkpt lat="42.27160179185357" lon="13.708461652686397"><ele>877.0</ele><time>2026-05-03T08:41:10Z</time></trkpt><trkpt lat="42.27160242305307" lon="13.708350591944402"><ele>876.5</ele><time>2026-05-03T08:41:11Z</time></trkpt><trkpt lat="42.27159977244195" lon="13.708229417060661"><ele>876.0</ele><time>2026-05-03T08:41:12Z</time></trkpt><trkpt lat="42.27159422112112" lon="13.708102188433445"><ele>875.5000000000001</ele><time>2026-05-03T08:41:13Z</time></trkpt><trkpt lat="42.271587876278645" lon="13.707980128012998"><ele>875.0</ele><time>2026-05-03T08:41:14Z</time></trkpt><trkpt lat="42.271578151452374" lon="13.707860160788305"><ele>874.1666666666667</ele><time>2026-05-03T08:41:15Z</time></trkpt><trkpt lat="42.271567120264784" lon="13.707731703133751"><ele>873.3333333333334</ele><time>2026-05-03T08:41:16Z</time></trkpt><trkpt lat="42.27155653572927" lon="13.707632237976304"><ele>872.5</ele><time>2026-05-03T08:41:17Z</time></trkpt><trkpt lat="42.27155771036142" lon="13.70752221619514"><ele>871.6666666666667</ele><time>2026-05-03T08:41:18Z</time></trkpt><trkpt lat="42.271578303441835" lon="13.707419275780826"><ele>870.8333333333334</ele><time>2026-05-03T08:41:19Z</time></trkpt><trkpt lat="42.27160668656918" lon="13.7073312379471"><ele>870.0</ele><time>2026-05-03T08:41:20Z</time></trkpt><trkpt lat="42.27162993992797" lon="13.707241190233866"><ele>870.0</ele><time>2026-05-03T08:41:21Z</time></trkpt><trkpt lat="42.271644467650205" lon="13.707148484308531"><ele>870.0</ele><time>2026-05-03T08:41:22Z</time></trkpt><trkpt lat="42.27165026222286" lon="13.707056430330011"><ele>870.0</ele><time>2026-05-03T08:41:23Z</time></trkpt><trkpt lat="42.27165192847958" lon="13.706957869497018"><ele>870.0</ele><time>2026-05-03T08:41:24Z</time></trkpt><trkpt lat="42.27165892641838" lon="13.70686176671231"><ele>870.0</ele><time>2026-05-03T08:41:25Z</time></trkpt><trkpt lat="42.27168466619509" lon="13.706694903244358"><ele>870.0</ele><time>2026-05-03T08:41:27Z</time></trkpt><trkpt lat="42.27169895026506" lon="13.706531166477546"><ele>867.75</ele><time>2026-05-03T08:41:29Z</time></trkpt><trkpt lat="42.27171720423657" lon="13.70637341225408"><ele>865.5</ele><time>2026-05-03T08:41:31Z</time></trkpt><trkpt lat="42.271717861427845" lon="13.706228696450541"><ele>863.25</ele><time>2026-05-03T08:41:33Z</time></trkpt><trkpt lat="42.27171971306984" lon="13.706082215107283"><ele>861.0</ele><time>2026-05-03T08:41:35Z</time></trkpt><trkpt lat="42.271720764047615" lon="13.705922218212068"><ele>859.5999999999999</ele><time>2026-05-03T08:41:37Z</time></trkpt><trkpt lat="42.27171323059948" lon="13.7057643882854"><ele>858.1999999999999</ele><time>2026-05-03T08:41:39Z</time></trkpt><trkpt lat="42.27170433117987" lon="13.705601819725322"><ele>856.8000000000001</ele><time>2026-05-03T08:41:41Z</time></trkpt><trkpt lat="42.271672199351734" lon="13.705470358824703"><ele>855.4000000000001</ele><time>2026-05-03T08:41:43Z</time></trkpt><trkpt lat="42.271648284024764" lon="13.705376380109623"><ele>854.0</ele><time>2026-05-03T08:41:45Z</time></trkpt><trkpt lat="42.27161298362095" lon="13.705283251043802"><ele>853.0</ele><time>2026-05-03T08:41:48Z</time></trkpt><trkpt lat="42.27158080391079" lon="13.705193363991695"><ele>852.0000000000001</ele><time>2026-05-03T08:41:50Z</time></trkpt><trkpt lat="42.27150203686019" lon="13.705138450451434"><ele>851.0</ele><time>2026-05-03T08:41:52Z</time></trkpt><trkpt lat="42.27140436332974" lon="13.705099842033944"><ele>850.0</ele><time>2026-05-03T08:41:53.999Z</time></trkpt><trkpt lat="42.27133604237475" lon="13.704999965879763"><ele>849.0</ele><time>2026-05-03T08:41:55.999Z</time></trkpt><trkpt lat="42.27123921389201" lon="13.704915559779336"><ele>848.0</ele><time>2026-05-03T08:41:57.999Z</time></trkpt><trkpt lat="42.27116489479632" lon="13.704836399700742"><ele>847.0</ele><time>2026-05-03T08:41:59.999Z</time></trkpt><trkpt lat="42.27109432974365" lon="13.704716450826941"><ele>846.0</ele><time>2026-05-03T08:42:01.999Z</time></trkpt><trkpt lat="42.27103874449264" lon="13.704593219236898"><ele>845.0</ele><time>2026-05-03T08:42:03.999Z</time></trkpt><trkpt lat="42.2709737221063" lon="13.704451992955741"><ele>844.0</ele><time>2026-05-03T08:42:05.999Z</time></trkpt><trkpt lat="42.27094465454934" lon="13.704367985402156"><ele>842.8333333333333</ele><time>2026-05-03T08:42:06.999Z</time></trkpt><trkpt lat="42.270881636005555" lon="13.70420286375726"><ele>841.6666666666666</ele><time>2026-05-03T08:42:08.999Z</time></trkpt><trkpt lat="42.27084436884265" lon="13.704116622376597"><ele>840.5</ele><time>2026-05-03T08:42:09.999Z</time></trkpt><trkpt lat="42.27079871265635" lon="13.70405308420692"><ele>839.3333333333333</ele><time>2026-05-03T08:42:10.999Z</time></trkpt><trkpt lat="42.27074200137745" lon="13.704014984100722"><ele>838.1666666666666</ele><time>2026-05-03T08:42:11.999Z</time></trkpt><trkpt lat="42.27067282402639" lon="13.704003175919679"><ele>837.0</ele><time>2026-05-03T08:42:12.999Z</time></trkpt><trkpt lat="42.270601259971436" lon="13.70399405228908"><ele>836.6</ele><time>2026-05-03T08:42:13.999Z</time></trkpt><trkpt lat="42.270508705685096" lon="13.703958098322234"><ele>836.2</ele><time>2026-05-03T08:42:15.999Z</time></trkpt><trkpt lat="42.270417972577455" lon="13.703949122675462"><ele>835.8</ele><time>2026-05-03T08:42:18.999Z</time></trkpt><trkpt lat="42.27028246926551" lon="13.703959613100698"><ele>835.4</ele><time>2026-05-03T08:42:20.999Z</time></trkpt><trkpt lat="42.27019877159597" lon="13.70395807457367"><ele>835.0</ele><time>2026-05-03T08:42:21.999Z</time></trkpt><trkpt lat="42.270127109776034" lon="13.703956880769772"><ele>835.0</ele><time>2026-05-03T08:42:22.999Z</time></trkpt><trkpt lat="42.27003660665553" lon="13.703923651002897"><ele>835.0</ele><time>2026-05-03T08:42:24.999Z</time></trkpt><trkpt lat="42.269971058308364" lon="13.70381699672518"><ele>835.0</ele><time>2026-05-03T08:42:26.999Z</time></trkpt><trkpt lat="42.269933148614044" lon="13.703746257222852"><ele>835.0</ele><time>2026-05-03T08:42:27.999Z</time></trkpt><trkpt lat="42.26982152488499" lon="13.703665336058485"><ele>835.0</ele><time>2026-05-03T08:42:29.999Z</time></trkpt><trkpt lat="42.26974906827584" lon="13.703634217850816"><ele>834.4999999999999</ele><time>2026-05-03T08:42:30.999Z</time></trkpt><trkpt lat="42.269671954185426" lon="13.703599512467115"><ele>834.0</ele><time>2026-05-03T08:42:31.999Z</time></trkpt><trkpt lat="42.26958962636213" lon="13.703567082755564"><ele>833.5</ele><time>2026-05-03T08:42:32.999Z</time></trkpt><trkpt lat="42.26951194773195" lon="13.703532878337642"><ele>833.0</ele><time>2026-05-03T08:42:33.999Z</time></trkpt><trkpt lat="42.26943206107423" lon="13.70350538065919"><ele>832.4999999999999</ele><time>2026-05-03T08:42:34.999Z</time></trkpt><trkpt lat="42.26935340178336" lon="13.703493283025452"><ele>832.0</ele><time>2026-05-03T08:42:35.999Z</time></trkpt><trkpt lat="42.26928247587638" lon="13.703478661289761"><ele>830.8333333333333</ele><time>2026-05-03T08:42:36.999Z</time></trkpt><trkpt lat="42.26917766959734" lon="13.703417157682928"><ele>829.6666666666666</ele><time>2026-05-03T08:42:38.999Z</time></trkpt><trkpt lat="42.269081697695306" lon="13.703312928179821"><ele>828.5</ele><time>2026-05-03T08:42:40.999Z</time></trkpt><trkpt lat="42.26902297958429" lon="13.703268306804395"><ele>827.3333333333333</ele><time>2026-05-03T08:42:41.999Z</time></trkpt><trkpt lat="42.2689577998768" lon="13.703240907165002"><ele>826.1666666666666</ele><time>2026-05-03T08:42:42.999Z</time></trkpt><trkpt lat="42.268896614310094" lon="13.703210129593888"><ele>825.0</ele><time>2026-05-03T08:42:43.999Z</time></trkpt><trkpt lat="42.26879167754013" lon="13.70316316638896"><ele>823.4</ele><time>2026-05-03T08:42:45.999Z</time></trkpt><trkpt lat="42.26870508055654" lon="13.703169687932759"><ele>821.8</ele><time>2026-05-03T08:42:47.999Z</time></trkpt><trkpt lat="42.268647480909145" lon="13.703250405056126"><ele>820.2</ele><time>2026-05-03T08:42:50.999Z</time></trkpt><trkpt lat="42.26858398834708" lon="13.70335869652717"><ele>818.6</ele><time>2026-05-03T08:42:52.999Z</time></trkpt><trkpt lat="42.268495650336824" lon="13.70344546950108"><ele>817.0</ele><time>2026-05-03T08:42:54.999Z</time></trkpt><trkpt lat="42.268448783517364" lon="13.703515129694209"><ele>817.6</ele><time>2026-05-03T08:42:56.999Z</time></trkpt><trkpt lat="42.268393714388615" lon="13.70362106168992"><ele>818.2</ele><time>2026-05-03T08:43:07Z</time></trkpt><trkpt lat="42.268351198843" lon="13.703703059909161"><ele>818.8</ele><time>2026-05-03T08:43:09Z</time></trkpt><trkpt lat="42.26830379810354" lon="13.703814635574378"><ele>819.4</ele><time>2026-05-03T08:43:11Z</time></trkpt><trkpt lat="42.26822917175753" lon="13.703953597817513"><ele>820.0</ele><time>2026-05-03T08:43:13Z</time></trkpt><trkpt lat="42.268161199416426" lon="13.704096719807552"><ele>819.9999999999999</ele><time>2026-05-03T08:43:15Z</time></trkpt><trkpt lat="42.26813435196253" lon="13.704184665136681"><ele>820.0</ele><time>2026-05-03T08:43:16Z</time></trkpt><trkpt lat="42.26812080731383" lon="13.704281248991864"><ele>820.0</ele><time>2026-05-03T08:43:17Z</time></trkpt><trkpt lat="42.26810078879796" lon="13.704368311581222"><ele>820.0</ele><time>2026-05-03T08:43:18Z</time></trkpt><trkpt lat="42.26804798469924" lon="13.704511053664902"><ele>819.9999999999999</ele><time>2026-05-03T08:43:20Z</time></trkpt><trkpt lat="42.26801641060345" lon="13.704632497738046"><ele>820.0</ele><time>2026-05-03T08:43:22Z</time></trkpt><trkpt lat="42.26800163609537" lon="13.704754367470601"><ele>819.4999999999999</ele><time>2026-05-03T08:43:24Z</time></trkpt><trkpt lat="42.26799348595436" lon="13.704844527291606"><ele>819.0</ele><time>2026-05-03T08:43:26Z</time></trkpt><trkpt lat="42.26793646671439" lon="13.704892479465315"><ele>818.5</ele><time>2026-05-03T08:43:31Z</time></trkpt><trkpt lat="42.267912314612836" lon="13.70479186743201"><ele>818.0</ele><time>2026-05-03T08:43:34Z</time></trkpt><trkpt lat="42.26791387671305" lon="13.704611362935434"><ele>817.4999999999999</ele><time>2026-05-03T08:43:36Z</time></trkpt><trkpt lat="42.26790457108264" lon="13.704522075472747"><ele>817.0</ele><time>2026-05-03T08:43:37Z</time></trkpt><trkpt lat="42.26788366064536" lon="13.704375740742815"><ele>817.0</ele><time>2026-05-03T08:43:39Z</time></trkpt><trkpt lat="42.267864282016525" lon="13.704270874339874"><ele>817.0</ele><time>2026-05-03T08:43:41Z</time></trkpt><trkpt lat="42.26780795719983" lon="13.70417279446167"><ele>817.0</ele><time>2026-05-03T08:43:44Z</time></trkpt><trkpt lat="42.26771466158369" lon="13.704145237295878"><ele>817.0</ele><time>2026-05-03T08:43:46Z</time></trkpt><trkpt lat="42.26759431430285" lon="13.704147066876175"><ele>817.0</ele><time>2026-05-03T08:43:48Z</time></trkpt><trkpt lat="42.2674883388134" lon="13.704055704652184"><ele>817.0</ele><time>2026-05-03T08:43:50Z</time></trkpt><trkpt lat="42.26743524564143" lon="13.7039837406681"><ele>817.0</ele><time>2026-05-03T08:43:51Z</time></trkpt><trkpt lat="42.26738162397903" lon="13.703910427629426"><ele>817.0</ele><time>2026-05-03T08:43:52Z</time></trkpt><trkpt lat="42.267313670846214" lon="13.703835409039005"><ele>817.0</ele><time>2026-05-03T08:43:53Z</time></trkpt><trkpt lat="42.2672347781276" lon="13.703741910932393"><ele>817.0</ele><time>2026-05-03T08:43:54Z</time></trkpt><trkpt lat="42.267144883842015" lon="13.703647530172121"><ele>816.0</ele><time>2026-05-03T08:43:55Z</time></trkpt><trkpt lat="42.26706700371813" lon="13.703549648840376"><ele>815.0</ele><time>2026-05-03T08:43:56Z</time></trkpt><trkpt lat="42.266994405177016" lon="13.703457529550022"><ele>814.0</ele><time>2026-05-03T08:43:57Z</time></trkpt><trkpt lat="42.26693279683272" lon="13.703382881085963"><ele>813.0</ele><time>2026-05-03T08:43:58Z</time></trkpt><trkpt lat="42.266871029923195" lon="13.703302202401712"><ele>812.0</ele><time>2026-05-03T08:43:59Z</time></trkpt><trkpt lat="42.266817375322326" lon="13.703212888473557"><ele>812.0</ele><time>2026-05-03T08:44:00Z</time></trkpt><trkpt lat="42.26676825017225" lon="13.703121141689744"><ele>812.0</ele><time>2026-05-03T08:44:01Z</time></trkpt><trkpt lat="42.2667336548618" lon="13.703030461851144"><ele>812.0</ele><time>2026-05-03T08:44:02Z</time></trkpt><trkpt lat="42.26665922669619" lon="13.702910512232586"><ele>812.0</ele><time>2026-05-03T08:44:04Z</time></trkpt><trkpt lat="42.266565493397096" lon="13.702885300460917"><ele>812.0</ele><time>2026-05-03T08:44:05.999Z</time></trkpt><trkpt lat="42.26649177037471" lon="13.702948087167478"><ele>811.0000000000001</ele><time>2026-05-03T08:44:07.999Z</time></trkpt><trkpt lat="42.266437297882746" lon="13.702992881775153"><ele>810.0</ele><time>2026-05-03T08:44:08.999Z</time></trkpt><trkpt lat="42.266372825213466" lon="13.703049462306206"><ele>809.0</ele><time>2026-05-03T08:44:09.999Z</time></trkpt><trkpt lat="42.26629011030439" lon="13.703107621141681"><ele>808.0</ele><time>2026-05-03T08:44:10.999Z</time></trkpt><trkpt lat="42.266207213985155" lon="13.703167302062926"><ele>807.0000000000001</ele><time>2026-05-03T08:44:11.999Z</time></trkpt><trkpt lat="42.26612704676008" lon="13.703229086469982"><ele>806.0</ele><time>2026-05-03T08:44:12.999Z</time></trkpt><trkpt lat="42.26604385028783" lon="13.703300196068696"><ele>806.0</ele><time>2026-05-03T08:44:13.999Z</time></trkpt><trkpt lat="42.26595861544227" lon="13.703372992658926"><ele>806.0</ele><time>2026-05-03T08:44:14.999Z</time></trkpt><trkpt lat="42.26587119370416" lon="13.703425718085873"><ele>806.0</ele><time>2026-05-03T08:44:15.999Z</time></trkpt><trkpt lat="42.26577003570114" lon="13.703462564186049"><ele>806.0</ele><time>2026-05-03T08:44:16.999Z</time></trkpt><trkpt lat="42.26565464094909" lon="13.70346544524108"><ele>806.0</ele><time>2026-05-03T08:44:17.999Z</time></trkpt><trkpt lat="42.26552668564219" lon="13.703457156509023"><ele>805.75</ele><time>2026-05-03T08:44:18.999Z</time></trkpt><trkpt lat="42.265390611028444" lon="13.70346462854736"><ele>805.5</ele><time>2026-05-03T08:44:19.999Z</time></trkpt><trkpt lat="42.265251901150755" lon="13.703465945758866"><ele>805.25</ele><time>2026-05-03T08:44:20.999Z</time></trkpt><trkpt lat="42.26511134945824" lon="13.703471230621954"><ele>805.0</ele><time>2026-05-03T08:44:21.999Z</time></trkpt><trkpt lat="42.264987406874006" lon="13.703487059614835"><ele>805.0</ele><time>2026-05-03T08:44:22.999Z</time></trkpt><trkpt lat="42.26487254826393" lon="13.703491970105059"><ele>805.0</ele><time>2026-05-03T08:44:23.999Z</time></trkpt><trkpt lat="42.26475527696986" lon="13.703484634245148"><ele>805.0</ele><time>2026-05-03T08:44:24.999Z</time></trkpt><trkpt lat="42.264644540888625" lon="13.703456791709215"><ele>805.0</ele><time>2026-05-03T08:44:25.999Z</time></trkpt><trkpt lat="42.264534079684346" lon="13.703395633619701"><ele>805.4</ele><time>2026-05-03T08:44:26.999Z</time></trkpt><trkpt lat="42.26442042564324" lon="13.70334007366419"><ele>805.8</ele><time>2026-05-03T08:44:27.999Z</time></trkpt><trkpt lat="42.26431605075631" lon="13.70327666758433"><ele>806.2</ele><time>2026-05-03T08:44:28.999Z</time></trkpt><trkpt lat="42.264228749485774" lon="13.703220757485484"><ele>806.6</ele><time>2026-05-03T08:44:29.999Z</time></trkpt><trkpt lat="42.26415144479057" lon="13.70315608604086"><ele>807.0</ele><time>2026-05-03T08:44:30.999Z</time></trkpt><trkpt lat="42.264081640219466" lon="13.703088295552227"><ele>807.0</ele><time>2026-05-03T08:44:31.999Z</time></trkpt><trkpt lat="42.26401569655991" lon="13.70301416522372"><ele>807.0</ele><time>2026-05-03T08:44:32.999Z</time></trkpt><trkpt lat="42.263973304090136" lon="13.702931436504688"><ele>807.0</ele><time>2026-05-03T08:44:33.999Z</time></trkpt><trkpt lat="42.26392990894364" lon="13.702828684026374"><ele>807.0</ele><time>2026-05-03T08:44:34.999Z</time></trkpt><trkpt lat="42.26388879476088" lon="13.702711477745702"><ele>807.0</ele><time>2026-05-03T08:44:35.999Z</time></trkpt><trkpt lat="42.26384155253982" lon="13.702579853569036"><ele>806.6</ele><time>2026-05-03T08:44:36.999Z</time></trkpt><trkpt lat="42.26379798661419" lon="13.702446609226907"><ele>806.2</ele><time>2026-05-03T08:44:37.999Z</time></trkpt><trkpt lat="42.26376306702729" lon="13.702329741073404"><ele>805.8</ele><time>2026-05-03T08:44:38.999Z</time></trkpt><trkpt lat="42.26372618867664" lon="13.702214927022744"><ele>805.4</ele><time>2026-05-03T08:44:39.999Z</time></trkpt><trkpt lat="42.263680026208256" lon="13.702110073392438"><ele>805.0</ele><time>2026-05-03T08:44:40.999Z</time></trkpt><trkpt lat="42.26362311485474" lon="13.702013386460358"><ele>804.6666666666666</ele><time>2026-05-03T08:44:41.999Z</time></trkpt><trkpt lat="42.26355311672836" lon="13.70191255520941"><ele>804.3333333333333</ele><time>2026-05-03T08:44:42.999Z</time></trkpt><trkpt lat="42.26348455767446" lon="13.701808585860867"><ele>804.0</ele><time>2026-05-03T08:44:43.999Z</time></trkpt><trkpt lat="42.263424699852784" lon="13.701721923153727"><ele>803.6666666666667</ele><time>2026-05-03T08:44:44.999Z</time></trkpt><trkpt lat="42.2633693929038" lon="13.701656775102077"><ele>803.3333333333334</ele><time>2026-05-03T08:44:45.999Z</time></trkpt><trkpt lat="42.26330600207604" lon="13.70163104287735"><ele>803.0</ele><time>2026-05-03T08:44:46.999Z</time></trkpt><trkpt lat="42.2632371883034" lon="13.701643440205133"><ele>803.0000000000001</ele><time>2026-05-03T08:44:47.999Z</time></trkpt><trkpt lat="42.263161857857796" lon="13.701666418608683"><ele>803.0</ele><time>2026-05-03T08:44:48.999Z</time></trkpt><trkpt lat="42.26307363108494" lon="13.701677938272708"><ele>803.0</ele><time>2026-05-03T08:44:49.999Z</time></trkpt><trkpt lat="42.262992091641976" lon="13.701680426899278"><ele>803.0</ele><time>2026-05-03T08:44:50.999Z</time></trkpt><trkpt lat="42.26292430373499" lon="13.701698721156855"><ele>803.0000000000001</ele><time>2026-05-03T08:44:51.999Z</time></trkpt><trkpt lat="42.26286305169254" lon="13.701746785414148"><ele>803.0</ele><time>2026-05-03T08:44:52.999Z</time></trkpt><trkpt lat="42.262800552202165" lon="13.701809660070486"><ele>804.0</ele><time>2026-05-03T08:44:53.999Z</time></trkpt><trkpt lat="42.26274646216644" lon="13.701855509553138"><ele>805.0</ele><time>2026-05-03T08:44:54.999Z</time></trkpt><trkpt lat="42.26266255896391" lon="13.701947770742658"><ele>806.0</ele><time>2026-05-03T08:44:56.999Z</time></trkpt><trkpt lat="42.26255691400139" lon="13.702031815914971"><ele>807.0</ele><time>2026-05-03T08:44:58.999Z</time></trkpt><trkpt lat="42.262452850112695" lon="13.702116858600393"><ele>808.0</ele><time>2026-05-03T08:45:00.999Z</time></trkpt><trkpt lat="42.26239412414461" lon="13.70215270653732"><ele>807.9999999999999</ele><time>2026-05-03T08:45:01.999Z</time></trkpt><trkpt lat="42.26232679877696" lon="13.702185295421314"><ele>808.0</ele><time>2026-05-03T08:45:02.999Z</time></trkpt><trkpt lat="42.262254735981685" lon="13.702214839039325"><ele>808.0</ele><time>2026-05-03T08:45:03.999Z</time></trkpt><trkpt lat="42.262190133618176" lon="13.702255593338247"><ele>808.0</ele><time>2026-05-03T08:45:04.999Z</time></trkpt><trkpt lat="42.262124492030196" lon="13.702310979950044"><ele>807.9999999999999</ele><time>2026-05-03T08:45:05.999Z</time></trkpt><trkpt lat="42.26205875510119" lon="13.702375661459833"><ele>808.0</ele><time>2026-05-03T08:45:06.999Z</time></trkpt><trkpt lat="42.26199462568805" lon="13.70244221796557"><ele>808.9999999999999</ele><time>2026-05-03T08:45:07.999Z</time></trkpt><trkpt lat="42.26193450658741" lon="13.702507037676137"><ele>810.0</ele><time>2026-05-03T08:45:08.999Z</time></trkpt><trkpt lat="42.2618661340196" lon="13.702589810633132"><ele>811.0</ele><time>2026-05-03T08:45:10Z</time></trkpt><trkpt lat="42.26180178466538" lon="13.702657722510228"><ele>812.0</ele><time>2026-05-03T08:45:11Z</time></trkpt><trkpt lat="42.26174311548124" lon="13.702711926876239"><ele>812.9999999999999</ele><time>2026-05-03T08:45:12Z</time></trkpt><trkpt lat="42.26168993209251" lon="13.70276924409697"><ele>814.0</ele><time>2026-05-03T08:45:13Z</time></trkpt><trkpt lat="42.26162646744473" lon="13.702830350504023"><ele>813.9999999999999</ele><time>2026-05-03T08:45:14Z</time></trkpt><trkpt lat="42.26155966885742" lon="13.702885843620484"><ele>814.0</ele><time>2026-05-03T08:45:15Z</time></trkpt><trkpt lat="42.26148966313913" lon="13.702938757679107"><ele>814.0</ele><time>2026-05-03T08:45:16Z</time></trkpt><trkpt lat="42.26141704991502" lon="13.70299068681075"><ele>814.0</ele><time>2026-05-03T08:45:17Z</time></trkpt><trkpt lat="42.26134545413135" lon="13.703041657479856"><ele>813.9999999999999</ele><time>2026-05-03T08:45:18Z</time></trkpt><trkpt lat="42.26127187356699" lon="13.703089020252243"><ele>814.0</ele><time>2026-05-03T08:45:19Z</time></trkpt><trkpt lat="42.261201603005965" lon="13.703131808105555"><ele>816.6666666666666</ele><time>2026-05-03T08:45:20Z</time></trkpt><trkpt lat="42.26112797841074" lon="13.703185845496801"><ele>819.3333333333333</ele><time>2026-05-03T08:45:21Z</time></trkpt><trkpt lat="42.26105817195577" lon="13.70323703455897"><ele>822.0</ele><time>2026-05-03T08:45:22Z</time></trkpt><trkpt lat="42.26099406701629" lon="13.703269101601542"><ele>824.6666666666667</ele><time>2026-05-03T08:45:23Z</time></trkpt><trkpt lat="42.260929193794965" lon="13.703309607377392"><ele>827.3333333333334</ele><time>2026-05-03T08:45:24Z</time></trkpt><trkpt lat="42.260854619256705" lon="13.703356335510835"><ele>830.0</ele><time>2026-05-03T08:45:25Z</time></trkpt><trkpt lat="42.26077400462439" lon="13.703395932185929"><ele>830.0000000000001</ele><time>2026-05-03T08:45:26Z</time></trkpt><trkpt lat="42.26069106964819" lon="13.703430154125186"><ele>830.0</ele><time>2026-05-03T08:45:27Z</time></trkpt><trkpt lat="42.26061460900677" lon="13.703455783343164"><ele>830.0</ele><time>2026-05-03T08:45:28Z</time></trkpt><trkpt lat="42.260531999267606" lon="13.703481775522475"><ele>830.0</ele><time>2026-05-03T08:45:29Z</time></trkpt><trkpt lat="42.260447188296396" lon="13.703508795419628"><ele>830.0000000000001</ele><time>2026-05-03T08:45:30Z</time></trkpt><trkpt lat="42.26036008569912" lon="13.703522436826217"><ele>830.0</ele><time>2026-05-03T08:45:31Z</time></trkpt><trkpt lat="42.260276025107125" lon="13.703545254024268"><ele>830.0000000000001</ele><time>2026-05-03T08:45:32Z</time></trkpt><trkpt lat="42.26018087944369" lon="13.703556574477552"><ele>830.0</ele><time>2026-05-03T08:45:33Z</time></trkpt><trkpt lat="42.26010289157108" lon="13.703569616330762"><ele>830.0</ele><time>2026-05-03T08:45:34Z</time></trkpt><trkpt lat="42.26003141308733" lon="13.703577252102273"><ele>830.0</ele><time>2026-05-03T08:45:35Z</time></trkpt><trkpt lat="42.2599456084115" lon="13.70348462051117"><ele>830.0000000000001</ele><time>2026-05-03T08:45:37Z</time></trkpt><trkpt lat="42.25993605597714" lon="13.703387660300788"><ele>830.0</ele><time>2026-05-03T08:45:38Z</time></trkpt><trkpt lat="42.259926843052966" lon="13.703286494141102"><ele>830.0000000000001</ele><time>2026-05-03T08:45:39Z</time></trkpt><trkpt lat="42.259914678953045" lon="13.703177842318508"><ele>830.0</ele><time>2026-05-03T08:45:40Z</time></trkpt><trkpt lat="42.2599040973679" lon="13.70306839030637"><ele>830.0</ele><time>2026-05-03T08:45:41Z</time></trkpt><trkpt lat="42.2598933515297" lon="13.702953313301286"><ele>830.0</ele><time>2026-05-03T08:45:42Z</time></trkpt><trkpt lat="42.259886174174994" lon="13.70283538985795"><ele>830.0000000000001</ele><time>2026-05-03T08:45:43Z</time></trkpt><trkpt lat="42.259879254899964" lon="13.702718830572648"><ele>830.0</ele><time>2026-05-03T08:45:44Z</time></trkpt><trkpt lat="42.259870677404805" lon="13.702608997317006"><ele>831.4</ele><time>2026-05-03T08:45:45Z</time></trkpt><trkpt lat="42.25986692323645" lon="13.702484864997903"><ele>832.8</ele><time>2026-05-03T08:45:46Z</time></trkpt><trkpt lat="42.25985988272852" lon="13.70234125438782"><ele>834.2</ele><time>2026-05-03T08:45:47Z</time></trkpt><trkpt lat="42.259869974037635" lon="13.702199942171768"><ele>835.6</ele><time>2026-05-03T08:45:48Z</time></trkpt><trkpt lat="42.25989598415252" lon="13.702035663571147"><ele>837.0</ele><time>2026-05-03T08:45:49Z</time></trkpt><trkpt lat="42.25991586574352" lon="13.701882968042051"><ele>835.8</ele><time>2026-05-03T08:45:50Z</time></trkpt><trkpt lat="42.25992467481652" lon="13.701742615365763"><ele>834.6</ele><time>2026-05-03T08:45:51Z</time></trkpt><trkpt lat="42.25990777818103" lon="13.701609932470404"><ele>833.4</ele><time>2026-05-03T08:45:52Z</time></trkpt><trkpt lat="42.25986566034667" lon="13.701480608970378"><ele>832.1999999999999</ele><time>2026-05-03T08:45:53Z</time></trkpt><trkpt lat="42.259794222396216" lon="13.701386966902705"><ele>831.0</ele><time>2026-05-03T08:45:54Z</time></trkpt><trkpt lat="42.25969861166316" lon="13.70131899626322"><ele>831.0</ele><time>2026-05-03T08:45:55Z</time></trkpt><trkpt lat="42.25958490622217" lon="13.70126945311253"><ele>831.0</ele><time>2026-05-03T08:45:56Z</time></trkpt><trkpt lat="42.25946589122124" lon="13.701211542108462"><ele>831.0</ele><time>2026-05-03T08:45:57Z</time></trkpt><trkpt lat="42.25934921895584" lon="13.701136991816641"><ele>831.0</ele><time>2026-05-03T08:45:58Z</time></trkpt><trkpt lat="42.25922856997771" lon="13.701052912679646"><ele>836.0</ele><time>2026-05-03T08:45:59Z</time></trkpt><trkpt lat="42.25910466748026" lon="13.700980150223812"><ele>841.0</ele><time>2026-05-03T08:46:00Z</time></trkpt><trkpt lat="42.258972835262284" lon="13.700913945047038"><ele>846.0</ele><time>2026-05-03T08:46:01Z</time></trkpt><trkpt lat="42.258841539608035" lon="13.700857065742122"><ele>851.0</ele><time>2026-05-03T08:46:02Z</time></trkpt><trkpt lat="42.25871226047161" lon="13.700797961730112"><ele>851.0</ele><time>2026-05-03T08:46:03Z</time></trkpt><trkpt lat="42.258580883106205" lon="13.700744000910271"><ele>851.0</ele><time>2026-05-03T08:46:04Z</time></trkpt><trkpt lat="42.2584417402482" lon="13.70076699644091"><ele>851.0</ele><time>2026-05-03T08:46:05Z</time></trkpt><trkpt lat="42.25833273891094" lon="13.700621417550066"><ele>851.0</ele><time>2026-05-03T08:46:06Z</time></trkpt><trkpt lat="42.258206415363595" lon="13.70059289085141"><ele>853.0</ele><time>2026-05-03T08:46:06.999Z</time></trkpt><trkpt lat="42.25808231322094" lon="13.700557007848092"><ele>855.0</ele><time>2026-05-03T08:46:07.999Z</time></trkpt><trkpt lat="42.25795486854498" lon="13.700545885942121"><ele>857.0</ele><time>2026-05-03T08:46:08.999Z</time></trkpt><trkpt lat="42.2578348910594" lon="13.700542887661387"><ele>859.0</ele><time>2026-05-03T08:46:09.999Z</time></trkpt><trkpt lat="42.25772119177155" lon="13.700559550784872"><ele>859.0</ele><time>2026-05-03T08:46:10.999Z</time></trkpt><trkpt lat="42.25761631821687" lon="13.700596723694924"><ele>859.0000000000001</ele><time>2026-05-03T08:46:11.999Z</time></trkpt><trkpt lat="42.257512932095985" lon="13.700657376867243"><ele>859.0000000000001</ele><time>2026-05-03T08:46:12.999Z</time></trkpt><trkpt lat="42.257410847546645" lon="13.70072449168872"><ele>859.0</ele><time>2026-05-03T08:46:13.999Z</time></trkpt><trkpt lat="42.25731031163331" lon="13.70078462072602"><ele>859.0</ele><time>2026-05-03T08:46:14.999Z</time></trkpt><trkpt lat="42.257227390226895" lon="13.700839812926342"><ele>860.8000000000001</ele><time>2026-05-03T08:46:15.999Z</time></trkpt><trkpt lat="42.25716295264524" lon="13.700864996038826"><ele>862.6000000000001</ele><time>2026-05-03T08:46:16.999Z</time></trkpt><trkpt lat="42.257113474321145" lon="13.700765469879352"><ele>864.4</ele><time>2026-05-03T08:46:18.999Z</time></trkpt><trkpt lat="42.25714100635049" lon="13.700580248664561"><ele>866.2</ele><time>2026-05-03T08:46:20.999Z</time></trkpt><trkpt lat="42.25711702080058" lon="13.70046530091406"><ele>868.0</ele><time>2026-05-03T08:46:21.999Z</time></trkpt><trkpt lat="42.25708167978354" lon="13.700352090206477"><ele>867.9999999999999</ele><time>2026-05-03T08:46:22.999Z</time></trkpt><trkpt lat="42.25705314184031" lon="13.700245337002897"><ele>868.0</ele><time>2026-05-03T08:46:23.999Z</time></trkpt><trkpt lat="42.25702122991076" lon="13.700159472628043"><ele>868.0</ele><time>2026-05-03T08:46:24.999Z</time></trkpt><trkpt lat="42.25696483870855" lon="13.700111377927966"><ele>868.0</ele><time>2026-05-03T08:46:25.999Z</time></trkpt><trkpt lat="42.256887419673994" lon="13.700126500678158"><ele>867.9999999999999</ele><time>2026-05-03T08:46:26.999Z</time></trkpt><trkpt lat="42.256797625748895" lon="13.700192107023637"><ele>868.0</ele><time>2026-05-03T08:46:27.999Z</time></trkpt><trkpt lat="42.25670010708177" lon="13.700260353427357"><ele>868.0</ele><time>2026-05-03T08:46:28.999Z</time></trkpt><trkpt lat="42.256597854885946" lon="13.700307483037067"><ele>868.0</ele><time>2026-05-03T08:46:29.999Z</time></trkpt><trkpt lat="42.25648534000466" lon="13.700344397477549"><ele>868.0</ele><time>2026-05-03T08:46:30.999Z</time></trkpt><trkpt lat="42.25636791458962" lon="13.70040197156039"><ele>868.0</ele><time>2026-05-03T08:46:31.999Z</time></trkpt><trkpt lat="42.25625392866701" lon="13.700482505130955"><ele>864.0</ele><time>2026-05-03T08:46:32.999Z</time></trkpt><trkpt lat="42.25613954664024" lon="13.700570146886497"><ele>860.0</ele><time>2026-05-03T08:46:33.999Z</time></trkpt><trkpt lat="42.25602849749011" lon="13.700653432996269"><ele>856.0</ele><time>2026-05-03T08:46:34.999Z</time></trkpt><trkpt lat="42.255919650357995" lon="13.700740684181328"><ele>852.0</ele><time>2026-05-03T08:46:35.999Z</time></trkpt><trkpt lat="42.25581723203303" lon="13.700822439036608"><ele>852.0</ele><time>2026-05-03T08:46:36.999Z</time></trkpt><trkpt lat="42.25571833985822" lon="13.700891896174165"><ele>852.0</ele><time>2026-05-03T08:46:37.999Z</time></trkpt><trkpt lat="42.255617937797076" lon="13.700958408433744"><ele>852.0</ele><time>2026-05-03T08:46:38.999Z</time></trkpt><trkpt lat="42.25551840180384" lon="13.701023329206457"><ele>852.0</ele><time>2026-05-03T08:46:39.999Z</time></trkpt><trkpt lat="42.25541919617584" lon="13.701089299124435"><ele>852.0</ele><time>2026-05-03T08:46:40.999Z</time></trkpt><trkpt lat="42.2553185707498" lon="13.70115404161972"><ele>854.25</ele><time>2026-05-03T08:46:41.999Z</time></trkpt><trkpt lat="42.25521905491604" lon="13.701205570819273"><ele>856.5</ele><time>2026-05-03T08:46:42.999Z</time></trkpt><trkpt lat="42.25511301225606" lon="13.70123982552671"><ele>858.75</ele><time>2026-05-03T08:46:43.999Z</time></trkpt><trkpt lat="42.25499577416594" lon="13.7012673538366"><ele>861.0</ele><time>2026-05-03T08:46:44.999Z</time></trkpt><trkpt lat="42.254874003029734" lon="13.701296482857137"><ele>858.25</ele><time>2026-05-03T08:46:45.999Z</time></trkpt><trkpt lat="42.2547490226623" lon="13.701317867008383"><ele>855.5</ele><time>2026-05-03T08:46:46.999Z</time></trkpt><trkpt lat="42.254625357372426" lon="13.701332989626694"><ele>852.75</ele><time>2026-05-03T08:46:47.999Z</time></trkpt><trkpt lat="42.25450852888947" lon="13.701331880306764"><ele>850.0</ele><time>2026-05-03T08:46:48.999Z</time></trkpt><trkpt lat="42.25439655771033" lon="13.701333639114427"><ele>850.0</ele><time>2026-05-03T08:46:49.999Z</time></trkpt><trkpt lat="42.25428157501577" lon="13.701319581268521"><ele>850.0</ele><time>2026-05-03T08:46:50.999Z</time></trkpt><trkpt lat="42.25417519639607" lon="13.701306639968454"><ele>850.0</ele><time>2026-05-03T08:46:51.999Z</time></trkpt><trkpt lat="42.2540699170803" lon="13.70130433034387"><ele>850.0</ele><time>2026-05-03T08:46:52.999Z</time></trkpt><trkpt lat="42.253966014895745" lon="13.701306977400478"><ele>850.0</ele><time>2026-05-03T08:46:53.999Z</time></trkpt><trkpt lat="42.25386879188362" lon="13.701310939651133"><ele>846.0</ele><time>2026-05-03T08:46:54.999Z</time></trkpt><trkpt lat="42.25377599082262" lon="13.70133765901084"><ele>842.0</ele><time>2026-05-03T08:46:55.999Z</time></trkpt><trkpt lat="42.25369251203122" lon="13.701394374455106"><ele>838.0</ele><time>2026-05-03T08:46:56.999Z</time></trkpt><trkpt lat="42.25359919950557" lon="13.701454063025176"><ele>834.0</ele><time>2026-05-03T08:46:57.999Z</time></trkpt><trkpt lat="42.2534986434102" lon="13.701494054986492"><ele>830.0</ele><time>2026-05-03T08:46:58.999Z</time></trkpt><trkpt lat="42.25340419465944" lon="13.701537655855091"><ele>830.0</ele><time>2026-05-03T08:46:59.999Z</time></trkpt><trkpt lat="42.253318451924514" lon="13.701602131699008"><ele>830.0</ele><time>2026-05-03T08:47:00.999Z</time></trkpt><trkpt lat="42.2532437386034" lon="13.701690482914561"><ele>830.0</ele><time>2026-05-03T08:47:01.999Z</time></trkpt><trkpt lat="42.253162671654785" lon="13.701783568242975"><ele>830.0</ele><time>2026-05-03T08:47:02.999Z</time></trkpt><trkpt lat="42.25307680160246" lon="13.701865316759616"><ele>830.0</ele><time>2026-05-03T08:47:03.999Z</time></trkpt><trkpt lat="42.25297986511584" lon="13.701941131274273"><ele>828.25</ele><time>2026-05-03T08:47:04.999Z</time></trkpt><trkpt lat="42.25288721854879" lon="13.702028705747608"><ele>826.5</ele><time>2026-05-03T08:47:05.999Z</time></trkpt><trkpt lat="42.25279126829729" lon="13.702120874525455"><ele>824.75</ele><time>2026-05-03T08:47:06.999Z</time></trkpt><trkpt lat="42.25269018176038" lon="13.702211922987079"><ele>823.0</ele><time>2026-05-03T08:47:07.999Z</time></trkpt><trkpt lat="42.252589340877094" lon="13.702303565126934"><ele>823.0</ele><time>2026-05-03T08:47:08.999Z</time></trkpt><trkpt lat="42.25249073978009" lon="13.702396180335546"><ele>823.0</ele><time>2026-05-03T08:47:09.999Z</time></trkpt><trkpt lat="42.252393352089" lon="13.702487223326704"><ele>823.0</ele><time>2026-05-03T08:47:10.999Z</time></trkpt><trkpt lat="42.252299153198706" lon="13.702581170848442"><ele>823.0</ele><time>2026-05-03T08:47:11.999Z</time></trkpt><trkpt lat="42.25220482452529" lon="13.702672082947432"><ele>822.5999999999999</ele><time>2026-05-03T08:47:12.999Z</time></trkpt><trkpt lat="42.25210817067677" lon="13.7027590824018"><ele>822.1999999999999</ele><time>2026-05-03T08:47:13.999Z</time></trkpt><trkpt lat="42.252015480715876" lon="13.702833987279684"><ele>821.8</ele><time>2026-05-03T08:47:14.999Z</time></trkpt><trkpt lat="42.25191946313525" lon="13.702897907187841"><ele>821.4</ele><time>2026-05-03T08:47:16Z</time></trkpt><trkpt lat="42.25181797378778" lon="13.702945825318368"><ele>821.0</ele><time>2026-05-03T08:47:17Z</time></trkpt><trkpt lat="42.25171146028507" lon="13.702973522645028"><ele>821.0</ele><time>2026-05-03T08:47:18Z</time></trkpt><trkpt lat="42.25159938902375" lon="13.70299526467224"><ele>821.0</ele><time>2026-05-03T08:47:19Z</time></trkpt><trkpt lat="42.251483170622436" lon="13.703013257281558"><ele>821.0</ele><time>2026-05-03T08:47:20Z</time></trkpt><trkpt lat="42.2513737910521" lon="13.703026598931647"><ele>821.0</ele><time>2026-05-03T08:47:21Z</time></trkpt><trkpt lat="42.251274577711705" lon="13.703031057607157"><ele>821.0</ele><time>2026-05-03T08:47:22Z</time></trkpt><trkpt lat="42.251180883836156" lon="13.70302770019581"><ele>819.4</ele><time>2026-05-03T08:47:23Z</time></trkpt><trkpt lat="42.25109131936669" lon="13.703038036281834"><ele>817.8</ele><time>2026-05-03T08:47:24Z</time></trkpt><trkpt lat="42.250997268153284" lon="13.703079538413403"><ele>816.1999999999999</ele><time>2026-05-03T08:47:25Z</time></trkpt><trkpt lat="42.25089861235485" lon="13.703148776795402"><ele>814.5999999999999</ele><time>2026-05-03T08:47:26Z</time></trkpt><trkpt lat="42.250794855725374" lon="13.703231553001814"><ele>813.0</ele><time>2026-05-03T08:47:27Z</time></trkpt><trkpt lat="42.25068616437635" lon="13.703320997380223"><ele>811.75</ele><time>2026-05-03T08:47:28Z</time></trkpt><trkpt lat="42.25058680756576" lon="13.703405440962898"><ele>810.5</ele><time>2026-05-03T08:47:29Z</time></trkpt><trkpt lat="42.25047965320649" lon="13.703491317072636"><ele>809.25</ele><time>2026-05-03T08:47:30Z</time></trkpt><trkpt lat="42.25038270363918" lon="13.703603620155407"><ele>808.0</ele><time>2026-05-03T08:47:31Z</time></trkpt><trkpt lat="42.25029162338735" lon="13.703721007148161"><ele>807.9999999999999</ele><time>2026-05-03T08:47:32Z</time></trkpt><trkpt lat="42.250220586871365" lon="13.703824644036846"><ele>808.0</ele><time>2026-05-03T08:47:33Z</time></trkpt><trkpt lat="42.25017185934026" lon="13.703896778047152"><ele>808.0</ele><time>2026-05-03T08:47:34Z</time></trkpt><trkpt lat="42.250108080148856" lon="13.70400849745854"><ele>808.0</ele><time>2026-05-03T08:47:36Z</time></trkpt><trkpt lat="42.250082051506084" lon="13.704090335500675"><ele>807.9999999999999</ele><time>2026-05-03T08:47:37Z</time></trkpt><trkpt lat="42.25005457959259" lon="13.704171182838525"><ele>808.0</ele><time>2026-05-03T08:47:38Z</time></trkpt><trkpt lat="42.25001908573898" lon="13.704270108320207"><ele>807.9999999999999</ele><time>2026-05-03T08:47:40Z</time></trkpt><trkpt lat="42.249978445783626" lon="13.704366866595395"><ele>808.0</ele><time>2026-05-03T08:47:58Z</time></trkpt><trkpt lat="42.24993067388348" lon="13.704466191229075"><ele>808.0</ele><time>2026-05-03T08:48:00Z</time></trkpt><trkpt lat="42.24987230634006" lon="13.704618965942428"><ele>808.0</ele><time>2026-05-03T08:48:02Z</time></trkpt><trkpt lat="42.24984842971629" lon="13.704700156539158"><ele>807.9999999999999</ele><time>2026-05-03T08:48:03Z</time></trkpt><trkpt lat="42.24983277766122" lon="13.704799729888716"><ele>808.0</ele><time>2026-05-03T08:48:04Z</time></trkpt><trkpt lat="42.24981186169829" lon="13.704887628208693"><ele>807.8333333333333</ele><time>2026-05-03T08:48:05Z</time></trkpt><trkpt lat="42.24978828868749" lon="13.704976713008717"><ele>807.6666666666666</ele><time>2026-05-03T08:48:06Z</time></trkpt><trkpt lat="42.24974550331599" lon="13.705124504135332"><ele>807.5</ele><time>2026-05-03T08:48:08Z</time></trkpt><trkpt lat="42.2497053598498" lon="13.705203400229776"><ele>807.3333333333333</ele><time>2026-05-03T08:48:09Z</time></trkpt><trkpt lat="42.24965075378285" lon="13.705292729916493"><ele>807.1666666666666</ele><time>2026-05-03T08:48:10Z</time></trkpt><trkpt lat="42.249579916583414" lon="13.705382683032559"><ele>807.0</ele><time>2026-05-03T08:48:11Z</time></trkpt><trkpt lat="42.24949985783931" lon="13.705462253699787"><ele>809.6666666666666</ele><time>2026-05-03T08:48:12Z</time></trkpt><trkpt lat="42.24941814913868" lon="13.70553468978303"><ele>812.3333333333333</ele><time>2026-05-03T08:48:13Z</time></trkpt><trkpt lat="42.24934181751317" lon="13.705607834661885"><ele>815.0</ele><time>2026-05-03T08:48:13.999Z</time></trkpt><trkpt lat="42.24926929030967" lon="13.705671844033736"><ele>817.6666666666666</ele><time>2026-05-03T08:48:14.999Z</time></trkpt><trkpt lat="42.24918226668205" lon="13.705709994205554"><ele>820.3333333333333</ele><time>2026-05-03T08:48:15.999Z</time></trkpt><trkpt lat="42.24912041909647" lon="13.70575779095787"><ele>823.0</ele><time>2026-05-03T08:48:16.999Z</time></trkpt><trkpt lat="42.24904799431433" lon="13.705823841449293"><ele>823.0</ele><time>2026-05-03T08:48:17.999Z</time></trkpt><trkpt lat="42.24896952373286" lon="13.705901342574972"><ele>823.0</ele><time>2026-05-03T08:48:18.999Z</time></trkpt><trkpt lat="42.2488912202163" lon="13.705972592865479"><ele>823.0</ele><time>2026-05-03T08:48:19.999Z</time></trkpt><trkpt lat="42.24881560990971" lon="13.706040017299024"><ele>823.0</ele><time>2026-05-03T08:48:20.999Z</time></trkpt><trkpt lat="42.24873367769178" lon="13.706119098217794"><ele>823.0</ele><time>2026-05-03T08:48:21.999Z</time></trkpt><trkpt lat="42.24864526684818" lon="13.706195539398827"><ele>824.4999999999999</ele><time>2026-05-03T08:48:22.999Z</time></trkpt><trkpt lat="42.24856836120071" lon="13.706271090882247"><ele>826.0</ele><time>2026-05-03T08:48:23.999Z</time></trkpt><trkpt lat="42.24851071030818" lon="13.706317553095817"><ele>827.5</ele><time>2026-05-03T08:48:24.999Z</time></trkpt><trkpt lat="42.2484204161319" lon="13.706399920113242"><ele>829.0</ele><time>2026-05-03T08:48:26.999Z</time></trkpt><trkpt lat="42.24837277374374" lon="13.70646947566616"><ele>830.4999999999999</ele><time>2026-05-03T08:48:27.999Z</time></trkpt><trkpt lat="42.24832940955767" lon="13.706550577979334"><ele>832.0</ele><time>2026-05-03T08:48:28.999Z</time></trkpt><trkpt lat="42.24830192726127" lon="13.706634723038654"><ele>831.9999999999999</ele><time>2026-05-03T08:48:29.999Z</time></trkpt><trkpt lat="42.24827821142192" lon="13.706730763805659"><ele>832.0</ele><time>2026-05-03T08:48:30.999Z</time></trkpt><trkpt lat="42.248252840626314" lon="13.70683914546289"><ele>832.0</ele><time>2026-05-03T08:48:31.999Z</time></trkpt><trkpt lat="42.248254102398505" lon="13.70694272503612"><ele>832.0</ele><time>2026-05-03T08:48:32.999Z</time></trkpt><trkpt lat="42.24827905473056" lon="13.707029673970972"><ele>831.9999999999999</ele><time>2026-05-03T08:48:33.999Z</time></trkpt><trkpt lat="42.24830331611053" lon="13.707112233125118"><ele>832.0</ele><time>2026-05-03T08:48:34.999Z</time></trkpt><trkpt lat="42.24831646236238" lon="13.70724916120194"><ele>831.9999999999999</ele><time>2026-05-03T08:48:36.999Z</time></trkpt><trkpt lat="42.24830640994953" lon="13.707355104617498"><ele>832.0</ele><time>2026-05-03T08:48:38.999Z</time></trkpt><trkpt lat="42.24828681315642" lon="13.707464935927698"><ele>832.0</ele><time>2026-05-03T08:48:40.999Z</time></trkpt><trkpt lat="42.24827039854077" lon="13.707563136219923"><ele>832.0</ele><time>2026-05-03T08:48:42.999Z</time></trkpt><trkpt lat="42.24824505293335" lon="13.70766442028219"><ele>831.9999999999999</ele><time>2026-05-03T08:48:44.999Z</time></trkpt><trkpt lat="42.24821150603603" lon="13.707767680104334"><ele>832.0</ele><time>2026-05-03T08:48:46.999Z</time></trkpt><trkpt lat="42.248185006247304" lon="13.707851886063281"><ele>830.1666666666666</ele><time>2026-05-03T08:48:48.999Z</time></trkpt><trkpt lat="42.248156594944824" lon="13.707930668866716"><ele>828.3333333333333</ele><time>2026-05-03T08:48:50.999Z</time></trkpt><trkpt lat="42.24811535937648" lon="13.708031769780138"><ele>826.5</ele><time>2026-05-03T08:48:52.999Z</time></trkpt><trkpt lat="42.24806849034737" lon="13.70816239061335"><ele>824.6666666666667</ele><time>2026-05-03T08:48:54.999Z</time></trkpt><trkpt lat="42.24798986586484" lon="13.708268793011516"><ele>822.8333333333334</ele><time>2026-05-03T08:48:56.999Z</time></trkpt><trkpt lat="42.24793340014761" lon="13.708310809190289"><ele>821.0</ele><time>2026-05-03T08:48:57.999Z</time></trkpt><trkpt lat="42.247873850268626" lon="13.708347466505879"><ele>820.4</ele><time>2026-05-03T08:48:58.999Z</time></trkpt><trkpt lat="42.24776989410187" lon="13.708417642751034"><ele>819.8</ele><time>2026-05-03T08:49:00.999Z</time></trkpt><trkpt lat="42.247669276790916" lon="13.708505830894797"><ele>819.1999999999999</ele><time>2026-05-03T08:49:02.999Z</time></trkpt><trkpt lat="42.24758467243194" lon="13.708585273238272"><ele>818.5999999999999</ele><time>2026-05-03T08:49:04.999Z</time></trkpt><trkpt lat="42.24751440993563" lon="13.708639564681919"><ele>818.0</ele><time>2026-05-03T08:49:06.999Z</time></trkpt><trkpt lat="42.24744868202458" lon="13.708653293052977"><ele>818.0000000000001</ele><time>2026-05-03T08:49:08.999Z</time></trkpt><trkpt lat="42.247382793430646" lon="13.708633410227264"><ele>818.0</ele><time>2026-05-03T08:49:10.999Z</time></trkpt><trkpt lat="42.24730350426703" lon="13.708531894672126"><ele>818.0</ele><time>2026-05-03T08:49:13.999Z</time></trkpt><trkpt lat="42.24732056866955" lon="13.708434714567078"><ele>818.0</ele><time>2026-05-03T08:49:14.999Z</time></trkpt><trkpt lat="42.24726596177652" lon="13.708343907493132"><ele>818.0000000000001</ele><time>2026-05-03T08:49:16.999Z</time></trkpt><trkpt lat="42.247206085228854" lon="13.708254137573135"><ele>818.0</ele><time>2026-05-03T08:49:18.999Z</time></trkpt><trkpt lat="42.24719919380597" lon="13.708103208360141"><ele>816.0000000000001</ele><time>2026-05-03T08:49:20.999Z</time></trkpt><trkpt lat="42.24719520534559" lon="13.70800485167469"><ele>814.0</ele><time>2026-05-03T08:49:22Z</time></trkpt><trkpt lat="42.24718064461166" lon="13.70790737771874"><ele>812.0</ele><time>2026-05-03T08:49:23Z</time></trkpt><trkpt lat="42.24717126457176" lon="13.707800920005075"><ele>810.0</ele><time>2026-05-03T08:49:24Z</time></trkpt><trkpt lat="42.2471683690798" lon="13.70769426811399"><ele>808.0000000000001</ele><time>2026-05-03T08:49:25Z</time></trkpt><trkpt lat="42.24716138199937" lon="13.707582344508813"><ele>806.0</ele><time>2026-05-03T08:49:26Z</time></trkpt><trkpt lat="42.24716577662667" lon="13.707473939999817"><ele>806.0000000000001</ele><time>2026-05-03T08:49:27Z</time></trkpt><trkpt lat="42.24711152082339" lon="13.707320926544517"><ele>806.0</ele><time>2026-05-03T08:49:29Z</time></trkpt><trkpt lat="42.24704203705371" lon="13.707273725337744"><ele>806.0</ele><time>2026-05-03T08:49:30Z</time></trkpt><trkpt lat="42.24703754641132" lon="13.70717133813523"><ele>806.0</ele><time>2026-05-03T08:49:33Z</time></trkpt><trkpt lat="42.246982318768545" lon="13.70712323242294"><ele>806.0000000000001</ele><time>2026-05-03T08:49:34Z</time></trkpt><trkpt lat="42.24689909101742" lon="13.707116828749779"><ele>806.0</ele><time>2026-05-03T08:49:35Z</time></trkpt><trkpt lat="42.246825444102186" lon="13.70712312999438"><ele>806.0</ele><time>2026-05-03T08:49:36Z</time></trkpt><trkpt lat="42.24673086280632" lon="13.707120611102907"><ele>806.0</ele><time>2026-05-03T08:49:38Z</time></trkpt><trkpt lat="42.246686491158464" lon="13.707022643504922"><ele>806.0</ele><time>2026-05-03T08:49:41Z</time></trkpt><trkpt lat="42.246669497055954" lon="13.706896376923964"><ele>806.0</ele><time>2026-05-03T08:49:43Z</time></trkpt><trkpt lat="42.246697880442184" lon="13.706753627459564"><ele>806.0</ele><time>2026-05-03T08:49:45Z</time></trkpt><trkpt lat="42.24665134358637" lon="13.706655266206464"><ele>806.0</ele><time>2026-05-03T08:49:47Z</time></trkpt><trkpt lat="42.24658547304592" lon="13.706633876990987"><ele>806.0</ele><time>2026-05-03T08:49:49Z</time></trkpt><trkpt lat="42.246485075224555" lon="13.706806869610036"><ele>806.0</ele><time>2026-05-03T08:49:53Z</time></trkpt><trkpt lat="42.246472455738676" lon="13.706909884846356"><ele>806.0</ele><time>2026-05-03T08:49:54Z</time></trkpt><trkpt lat="42.24647013904912" lon="13.70703022873674"><ele>806.0</ele><time>2026-05-03T08:49:56Z</time></trkpt><trkpt lat="42.246412024993525" lon="13.70709980089588"><ele>803.8333333333334</ele><time>2026-05-03T08:49:59Z</time></trkpt><trkpt lat="42.24632608008467" lon="13.707057085872227"><ele>801.6666666666667</ele><time>2026-05-03T08:50:01Z</time></trkpt><trkpt lat="42.24625543403171" lon="13.707033943914285"><ele>799.5</ele><time>2026-05-03T08:50:03Z</time></trkpt><trkpt lat="42.246168971215326" lon="13.707026744097497"><ele>797.3333333333333</ele><time>2026-05-03T08:50:06Z</time></trkpt><trkpt lat="42.24612248192957" lon="13.707110759319317"><ele>795.1666666666666</ele><time>2026-05-03T08:50:11Z</time></trkpt><trkpt lat="42.24614339389465" lon="13.707229105995696"><ele>793.0</ele><time>2026-05-03T08:50:13Z</time></trkpt><trkpt lat="42.24614130733985" lon="13.707360862340819"><ele>792.9999999999999</ele><time>2026-05-03T08:50:21Z</time></trkpt><trkpt lat="42.24609470979507" lon="13.707455835387016"><ele>793.0</ele><time>2026-05-03T08:50:22Z</time></trkpt><trkpt lat="42.24609137955813" lon="13.707563029125385"><ele>793.0</ele><time>2026-05-03T08:50:23Z</time></trkpt><trkpt lat="42.24608525412865" lon="13.707692529335059"><ele>793.0</ele><time>2026-05-03T08:50:24Z</time></trkpt><trkpt lat="42.24608017868862" lon="13.707791824290064"><ele>792.9999999999999</ele><time>2026-05-03T08:50:25Z</time></trkpt><trkpt lat="42.24607399688281" lon="13.707900109406172"><ele>793.0</ele><time>2026-05-03T08:50:26Z</time></trkpt><trkpt lat="42.24606789326548" lon="13.708007024896121"><ele>792.4</ele><time>2026-05-03T08:50:27Z</time></trkpt><trkpt lat="42.24606164118704" lon="13.708116826617584"><ele>791.8</ele><time>2026-05-03T08:50:28Z</time></trkpt><trkpt lat="42.24605375203869" lon="13.708238758884166"><ele>791.2</ele><time>2026-05-03T08:50:29Z</time></trkpt><trkpt lat="42.24604306072528" lon="13.708361055431233"><ele>790.6</ele><time>2026-05-03T08:50:30Z</time></trkpt><trkpt lat="42.24603049603072" lon="13.708504208819116"><ele>790.0</ele><time>2026-05-03T08:50:31Z</time></trkpt><trkpt lat="42.24601687159724" lon="13.708643127034401"><ele>789.2</ele><time>2026-05-03T08:50:31.999Z</time></trkpt><trkpt lat="42.24600398524178" lon="13.708773659321011"><ele>788.4</ele><time>2026-05-03T08:50:32.999Z</time></trkpt><trkpt lat="42.245993871886675" lon="13.708902708868319"><ele>787.5999999999999</ele><time>2026-05-03T08:50:33.999Z</time></trkpt><trkpt lat="42.24598829303781" lon="13.709034488523798"><ele>786.8</ele><time>2026-05-03T08:50:34.999Z</time></trkpt><trkpt lat="42.24599280878493" lon="13.709165905816526"><ele>786.0</ele><time>2026-05-03T08:50:35.999Z</time></trkpt><trkpt lat="42.246011225484025" lon="13.709295157672752"><ele>785.8</ele><time>2026-05-03T08:50:36.999Z</time></trkpt><trkpt lat="42.24603672702686" lon="13.709415053008408"><ele>785.5999999999999</ele><time>2026-05-03T08:50:37.999Z</time></trkpt><trkpt lat="42.24607275767123" lon="13.709525798355283"><ele>785.4</ele><time>2026-05-03T08:50:38.999Z</time></trkpt><trkpt lat="42.24613106108849" lon="13.709621731871945"><ele>785.2</ele><time>2026-05-03T08:50:39.999Z</time></trkpt><trkpt lat="42.24617100210356" lon="13.709743628804565"><ele>785.0</ele><time>2026-05-03T08:50:40.999Z</time></trkpt><trkpt lat="42.246248620852676" lon="13.709845364886254"><ele>785.0</ele><time>2026-05-03T08:50:41.999Z</time></trkpt><trkpt lat="42.24632470951623" lon="13.709925721388528"><ele>785.0</ele><time>2026-05-03T08:50:42.999Z</time></trkpt><trkpt lat="42.2464179050789" lon="13.709975761348847"><ele>785.0</ele><time>2026-05-03T08:50:43.999Z</time></trkpt><trkpt lat="42.246512976452095" lon="13.710051744501662"><ele>785.0</ele><time>2026-05-03T08:50:44.999Z</time></trkpt><trkpt lat="42.2466153813251" lon="13.710114646126943"><ele>785.0</ele><time>2026-05-03T08:50:45.999Z</time></trkpt><trkpt lat="42.246725494045215" lon="13.710151211384867"><ele>785.75</ele><time>2026-05-03T08:50:46.999Z</time></trkpt><trkpt lat="42.24683927481173" lon="13.710158307741057"><ele>786.5</ele><time>2026-05-03T08:50:47.999Z</time></trkpt><trkpt lat="42.246956020772394" lon="13.710126834589772"><ele>787.25</ele><time>2026-05-03T08:50:48.999Z</time></trkpt><trkpt lat="42.24707486333395" lon="13.710084842415835"><ele>788.0</ele><time>2026-05-03T08:50:49.999Z</time></trkpt><trkpt lat="42.24719610881774" lon="13.710041421007778"><ele>786.75</ele><time>2026-05-03T08:50:50.999Z</time></trkpt><trkpt lat="42.247315794946374" lon="13.709996661662263"><ele>785.5</ele><time>2026-05-03T08:50:51.999Z</time></trkpt><trkpt lat="42.24743980235823" lon="13.70995076482209"><ele>784.25</ele><time>2026-05-03T08:50:52.999Z</time></trkpt><trkpt lat="42.247570131112425" lon="13.709921872499494"><ele>783.0</ele><time>2026-05-03T08:50:53.999Z</time></trkpt><trkpt lat="42.247697602840056" lon="13.709893636540997"><ele>783.0</ele><time>2026-05-03T08:50:54.999Z</time></trkpt><trkpt lat="42.24782125826684" lon="13.70987781374723"><ele>783.0</ele><time>2026-05-03T08:50:55.999Z</time></trkpt><trkpt lat="42.247938992218074" lon="13.709898508282023"><ele>783.0</ele><time>2026-05-03T08:50:56.999Z</time></trkpt><trkpt lat="42.24803703262374" lon="13.709985351275009"><ele>783.0</ele><time>2026-05-03T08:50:57.999Z</time></trkpt><trkpt lat="42.24811391872989" lon="13.710080711586466"><ele>783.5999999999999</ele><time>2026-05-03T08:50:58.999Z</time></trkpt><trkpt lat="42.24814994990854" lon="13.710204108119664"><ele>784.1999999999999</ele><time>2026-05-03T08:50:59.999Z</time></trkpt><trkpt lat="42.24815900802999" lon="13.71033624580599"><ele>784.8</ele><time>2026-05-03T08:51:00.999Z</time></trkpt><trkpt lat="42.24813853362294" lon="13.710482197111942"><ele>785.4</ele><time>2026-05-03T08:51:01.999Z</time></trkpt><trkpt lat="42.24809477370634" lon="13.71064665315129"><ele>786.0</ele><time>2026-05-03T08:51:02.999Z</time></trkpt><trkpt lat="42.24802787522032" lon="13.710856727866561"><ele>778.6666666666666</ele><time>2026-05-03T08:51:03.999Z</time></trkpt><trkpt lat="42.247954863792565" lon="13.711087129410501"><ele>771.3333333333333</ele><time>2026-05-03T08:51:04.999Z</time></trkpt><trkpt lat="42.24788301654719" lon="13.711321719122692"><ele>764.0</ele><time>2026-05-03T08:51:05.999Z</time></trkpt><trkpt lat="42.24781722976611" lon="13.711547781463763"><ele>764.0</ele><time>2026-05-03T08:51:06.999Z</time></trkpt><trkpt lat="42.247766963424596" lon="13.711728909078506"><ele>764.0</ele><time>2026-05-03T08:51:07.999Z</time></trkpt><trkpt lat="42.24772999238568" lon="13.71186212894993"><ele>764.0</ele><time>2026-05-03T08:51:08.999Z</time></trkpt><trkpt lat="42.24770062719621" lon="13.711978340162961"><ele>764.0</ele><time>2026-05-03T08:51:09.999Z</time></trkpt><trkpt lat="42.247679683096884" lon="13.712062565042809"><ele>764.0</ele><time>2026-05-03T08:51:10.999Z</time></trkpt><trkpt lat="42.24771405506817" lon="13.712157587704116"><ele>764.6</ele><time>2026-05-03T08:51:11.999Z</time></trkpt><trkpt lat="42.24773480162624" lon="13.712261418641074"><ele>765.2</ele><time>2026-05-03T08:51:12.999Z</time></trkpt><trkpt lat="42.2477488361468" lon="13.712387435525391"><ele>765.8000000000001</ele><time>2026-05-03T08:51:13.999Z</time></trkpt><trkpt lat="42.24773912332415" lon="13.712512894627206"><ele>766.4000000000001</ele><time>2026-05-03T08:51:14.999Z</time></trkpt><trkpt lat="42.24771800009721" lon="13.712640107626637"><ele>767.0</ele><time>2026-05-03T08:51:15.999Z</time></trkpt><trkpt lat="42.24771019373975" lon="13.712756962191325"><ele>767.2</ele><time>2026-05-03T08:51:16.999Z</time></trkpt><trkpt lat="42.24771229614104" lon="13.712875188123462"><ele>767.4000000000001</ele><time>2026-05-03T08:51:17.999Z</time></trkpt><trkpt lat="42.247709848392745" lon="13.713014341215878"><ele>767.5999999999999</ele><time>2026-05-03T08:51:18.999Z</time></trkpt><trkpt lat="42.247697233210125" lon="13.713170680055569"><ele>767.8</ele><time>2026-05-03T08:51:19.999Z</time></trkpt><trkpt lat="42.24767885961325" lon="13.713330462089639"><ele>768.0</ele><time>2026-05-03T08:51:20.999Z</time></trkpt><trkpt lat="42.24765333774474" lon="13.713485175838787"><ele>767.5</ele><time>2026-05-03T08:51:21.999Z</time></trkpt><trkpt lat="42.247637411920756" lon="13.71363236237966"><ele>767.0</ele><time>2026-05-03T08:51:22.999Z</time></trkpt><trkpt lat="42.24763457449626" lon="13.713777929348872"><ele>766.5</ele><time>2026-05-03T08:51:23.999Z</time></trkpt><trkpt lat="42.24764439507814" lon="13.713932721452252"><ele>766.0</ele><time>2026-05-03T08:51:24.999Z</time></trkpt><trkpt lat="42.24766311142525" lon="13.714098935670632"><ele>766.0</ele><time>2026-05-03T08:51:25.999Z</time></trkpt><trkpt lat="42.24768277174948" lon="13.714277698552165"><ele>766.0</ele><time>2026-05-03T08:51:26.999Z</time></trkpt><trkpt lat="42.24773058091331" lon="13.714452642348423"><ele>766.0</ele><time>2026-05-03T08:51:28Z</time></trkpt><trkpt lat="42.24780233609243" lon="13.71461697019596"><ele>766.0</ele><time>2026-05-03T08:51:29Z</time></trkpt><trkpt lat="42.24786882179401" lon="13.714789337211515"><ele>764.0</ele><time>2026-05-03T08:51:30Z</time></trkpt><trkpt lat="42.247927320774984" lon="13.714974206556281"><ele>762.0</ele><time>2026-05-03T08:51:31Z</time></trkpt><trkpt lat="42.24801360532403" lon="13.715121692660857"><ele>760.0</ele><time>2026-05-03T08:51:32Z</time></trkpt><trkpt lat="42.24806388986186" lon="13.715259982821026"><ele>758.0</ele><time>2026-05-03T08:51:33Z</time></trkpt><trkpt lat="42.248121774319976" lon="13.71536063949173"><ele>760.0</ele><time>2026-05-03T08:51:34Z</time></trkpt><trkpt lat="42.24818646938263" lon="13.715429056397628"><ele>762.0</ele><time>2026-05-03T08:51:35Z</time></trkpt><trkpt lat="42.24825374993498" lon="13.715507115749539"><ele>764.0</ele><time>2026-05-03T08:51:36Z</time></trkpt><trkpt lat="42.24834371874417" lon="13.715591237583066"><ele>766.0</ele><time>2026-05-03T08:51:37Z</time></trkpt><trkpt lat="42.2484481629797" lon="13.715688228659854"><ele>768.0</ele><time>2026-05-03T08:51:38Z</time></trkpt><trkpt lat="42.248562925407114" lon="13.715788356225033"><ele>768.0</ele><time>2026-05-03T08:51:39Z</time></trkpt><trkpt lat="42.24867094297594" lon="13.71589678058782"><ele>768.0</ele><time>2026-05-03T08:51:40Z</time></trkpt><trkpt lat="42.248776015636295" lon="13.715991511542287"><ele>768.0</ele><time>2026-05-03T08:51:41Z</time></trkpt><trkpt lat="42.24887602468344" lon="13.71608674705071"><ele>768.0</ele><time>2026-05-03T08:51:42Z</time></trkpt><trkpt lat="42.248986928116246" lon="13.71617573057422"><ele>767.4</ele><time>2026-05-03T08:51:43Z</time></trkpt><trkpt lat="42.24909979430191" lon="13.716249368111173"><ele>766.8</ele><time>2026-05-03T08:51:44Z</time></trkpt><trkpt lat="42.249197486446356" lon="13.716337373150798"><ele>766.2</ele><time>2026-05-03T08:51:45Z</time></trkpt><trkpt lat="42.24928521567044" lon="13.71640564528923"><ele>765.6</ele><time>2026-05-03T08:51:46Z</time></trkpt><trkpt lat="42.249354927635494" lon="13.716475325479207"><ele>765.0</ele><time>2026-05-03T08:51:47Z</time></trkpt><trkpt lat="42.24937884917164" lon="13.716571319270933"><ele>765.0</ele><time>2026-05-03T08:51:48Z</time></trkpt><trkpt lat="42.24935363164943" lon="13.716678644762474"><ele>765.0</ele><time>2026-05-03T08:51:49Z</time></trkpt><trkpt lat="42.249376972139544" lon="13.71680375003324"><ele>765.0</ele><time>2026-05-03T08:51:50Z</time></trkpt><trkpt lat="42.24941823662845" lon="13.71694312449836"><ele>765.0</ele><time>2026-05-03T08:51:51Z</time></trkpt><trkpt lat="42.24948214947885" lon="13.717074720814106"><ele>765.0</ele><time>2026-05-03T08:51:52Z</time></trkpt><trkpt lat="42.24957149618066" lon="13.717185823369759"><ele>764.0</ele><time>2026-05-03T08:51:53Z</time></trkpt><trkpt lat="42.24966356419935" lon="13.717295833201721"><ele>763.0</ele><time>2026-05-03T08:51:54Z</time></trkpt><trkpt lat="42.2497647286986" lon="13.717390831352901"><ele>762.0</ele><time>2026-05-03T08:51:55Z</time></trkpt><trkpt lat="42.249842224698355" lon="13.717518778242349"><ele>761.0</ele><time>2026-05-03T08:51:56Z</time></trkpt><trkpt lat="42.24988637143336" lon="13.717655490818355"><ele>764.0</ele><time>2026-05-03T08:51:57Z</time></trkpt><trkpt lat="42.24993472133571" lon="13.717804757819104"><ele>767.0</ele><time>2026-05-03T08:51:58Z</time></trkpt><trkpt lat="42.24999336478396" lon="13.717921194125298"><ele>770.0</ele><time>2026-05-03T08:51:59Z</time></trkpt><trkpt lat="42.25005168048234" lon="13.71804941790211"><ele>773.0</ele><time>2026-05-03T08:52:00Z</time></trkpt><trkpt lat="42.25012400602925" lon="13.718168734510645"><ele>773.0</ele><time>2026-05-03T08:52:01Z</time></trkpt><trkpt lat="42.25020982361251" lon="13.7182785446749"><ele>773.0</ele><time>2026-05-03T08:52:02Z</time></trkpt><trkpt lat="42.250287750700515" lon="13.718400506796282"><ele>773.0</ele><time>2026-05-03T08:52:03Z</time></trkpt><trkpt lat="42.25036764372463" lon="13.718532980584287"><ele>773.0</ele><time>2026-05-03T08:52:04Z</time></trkpt><trkpt lat="42.25047689608908" lon="13.718617787946222"><ele>773.0</ele><time>2026-05-03T08:52:05Z</time></trkpt><trkpt lat="42.250573990661884" lon="13.718714838502166"><ele>773.0</ele><time>2026-05-03T08:52:06Z</time></trkpt><trkpt lat="42.250675955382874" lon="13.718782219359877"><ele>773.0</ele><time>2026-05-03T08:52:07Z</time></trkpt><trkpt lat="42.25078495228672" lon="13.718825419071875"><ele>773.0</ele><time>2026-05-03T08:52:08Z</time></trkpt><trkpt lat="42.25089863021561" lon="13.71886296656548"><ele>773.0</ele><time>2026-05-03T08:52:09Z</time></trkpt><trkpt lat="42.25101458828372" lon="13.71890820242044"><ele>773.0</ele><time>2026-05-03T08:52:10Z</time></trkpt><trkpt lat="42.25112598704162" lon="13.718977464980942"><ele>773.0</ele><time>2026-05-03T08:52:11Z</time></trkpt><trkpt lat="42.251220162201705" lon="13.719091389418795"><ele>773.0</ele><time>2026-05-03T08:52:12Z</time></trkpt><trkpt lat="42.25130565084175" lon="13.719206773178936"><ele>773.0</ele><time>2026-05-03T08:52:13Z</time></trkpt><trkpt lat="42.25138765801026" lon="13.719335695813909"><ele>773.0</ele><time>2026-05-03T08:52:14Z</time></trkpt><trkpt lat="42.251472328655105" lon="13.719460390908793"><ele>773.0</ele><time>2026-05-03T08:52:15Z</time></trkpt><trkpt lat="42.25156644952565" lon="13.719554837929715"><ele>773.0</ele><time>2026-05-03T08:52:16Z</time></trkpt><trkpt lat="42.25166292935738" lon="13.719652223091698"><ele>774.75</ele><time>2026-05-03T08:52:17Z</time></trkpt><trkpt lat="42.251776756216216" lon="13.719720064469863"><ele>776.5</ele><time>2026-05-03T08:52:18Z</time></trkpt><trkpt lat="42.2518769552251" lon="13.719822099780014"><ele>778.25</ele><time>2026-05-03T08:52:19Z</time></trkpt><trkpt lat="42.25198538081291" lon="13.719902195125265"><ele>780.0</ele><time>2026-05-03T08:52:20Z</time></trkpt><trkpt lat="42.25208096536805" lon="13.720006879070485"><ele>780.0</ele><time>2026-05-03T08:52:21Z</time></trkpt><trkpt lat="42.25217848586295" lon="13.720103900119978"><ele>780.0</ele><time>2026-05-03T08:52:22Z</time></trkpt><trkpt lat="42.25228102709071" lon="13.72019506545914"><ele>780.0</ele><time>2026-05-03T08:52:23Z</time></trkpt><trkpt lat="42.25238089579589" lon="13.720297101011841"><ele>780.0</ele><time>2026-05-03T08:52:24Z</time></trkpt><trkpt lat="42.25248550831519" lon="13.72039432224669"><ele>779.25</ele><time>2026-05-03T08:52:25Z</time></trkpt><trkpt lat="42.252586166983285" lon="13.72048636619137"><ele>778.5</ele><time>2026-05-03T08:52:26Z</time></trkpt><trkpt lat="42.252685575502824" lon="13.720584000334702"><ele>777.75</ele><time>2026-05-03T08:52:27Z</time></trkpt><trkpt lat="42.2528104375609" lon="13.720649513992932"><ele>777.0</ele><time>2026-05-03T08:52:28Z</time></trkpt><trkpt lat="42.25293656107929" lon="13.720715153618116"><ele>777.0</ele><time>2026-05-03T08:52:29Z</time></trkpt><trkpt lat="42.25306074621294" lon="13.720782324125677"><ele>777.0</ele><time>2026-05-03T08:52:30Z</time></trkpt><trkpt lat="42.253180417199204" lon="13.720836646606294"><ele>777.0</ele><time>2026-05-03T08:52:31Z</time></trkpt><trkpt lat="42.253289518800784" lon="13.720887290720716"><ele>777.0</ele><time>2026-05-03T08:52:32Z</time></trkpt><trkpt lat="42.25338586293367" lon="13.720927194065185"><ele>777.6</ele><time>2026-05-03T08:52:33Z</time></trkpt><trkpt lat="42.253479446875495" lon="13.720945839552302"><ele>778.2</ele><time>2026-05-03T08:52:34Z</time></trkpt><trkpt lat="42.25355834937132" lon="13.720990706365203"><ele>778.8</ele><time>2026-05-03T08:52:35Z</time></trkpt><trkpt lat="42.2536214716637" lon="13.721072788792787"><ele>779.4</ele><time>2026-05-03T08:52:36Z</time></trkpt><trkpt lat="42.25362681089837" lon="13.721217103282124"><ele>780.0</ele><time>2026-05-03T08:52:37Z</time></trkpt><trkpt lat="42.25366531999357" lon="13.721337716075244"><ele>780.0</ele><time>2026-05-03T08:52:38Z</time></trkpt><trkpt lat="42.25369006757966" lon="13.721440928168116"><ele>780.0</ele><time>2026-05-03T08:52:38.999Z</time></trkpt><trkpt lat="42.25367383574126" lon="13.721604647803105"><ele>780.0</ele><time>2026-05-03T08:52:40.999Z</time></trkpt><trkpt lat="42.253624938310885" lon="13.72168114548733"><ele>780.0</ele><time>2026-05-03T08:52:41.999Z</time></trkpt><trkpt lat="42.253555328672604" lon="13.721788005796547"><ele>780.0</ele><time>2026-05-03T08:52:42.999Z</time></trkpt><trkpt lat="42.25348302685644" lon="13.721904008137583"><ele>781.0</ele><time>2026-05-03T08:52:43.999Z</time></trkpt><trkpt lat="42.253419552303804" lon="13.722028182652767"><ele>782.0</ele><time>2026-05-03T08:52:44.999Z</time></trkpt><trkpt lat="42.253364343434896" lon="13.722163452685974"><ele>783.0</ele><time>2026-05-03T08:52:45.999Z</time></trkpt><trkpt lat="42.25334537413962" lon="13.722304265128486"><ele>784.0</ele><time>2026-05-03T08:52:46.999Z</time></trkpt><trkpt lat="42.253362465924816" lon="13.722440270145917"><ele>785.0</ele><time>2026-05-03T08:52:47.999Z</time></trkpt><trkpt lat="42.253411071841434" lon="13.722560279634036"><ele>785.0</ele><time>2026-05-03T08:52:48.999Z</time></trkpt><trkpt lat="42.253447835632755" lon="13.722691646996632"><ele>785.0</ele><time>2026-05-03T08:52:49.999Z</time></trkpt><trkpt lat="42.253494284100675" lon="13.722810235918011"><ele>785.0</ele><time>2026-05-03T08:52:50.999Z</time></trkpt><trkpt lat="42.25354962636982" lon="13.72290805894215"><ele>785.0</ele><time>2026-05-03T08:52:51.999Z</time></trkpt><trkpt lat="42.25358408824055" lon="13.723036986364274"><ele>785.0</ele><time>2026-05-03T08:52:52.999Z</time></trkpt><trkpt lat="42.25363176111624" lon="13.723162570337966"><ele>786.0</ele><time>2026-05-03T08:52:53.999Z</time></trkpt><trkpt lat="42.25367944210309" lon="13.723288175681734"><ele>787.0</ele><time>2026-05-03T08:52:54.999Z</time></trkpt><trkpt lat="42.253737064117395" lon="13.72340123048445"><ele>788.0</ele><time>2026-05-03T08:52:55.999Z</time></trkpt><trkpt lat="42.253766990831814" lon="13.723529208696183"><ele>789.0</ele><time>2026-05-03T08:52:56.999Z</time></trkpt><trkpt lat="42.25380798094074" lon="13.723655378043018"><ele>790.0</ele><time>2026-05-03T08:52:57.999Z</time></trkpt><trkpt lat="42.253843808220545" lon="13.723769994000248"><ele>790.4999999999999</ele><time>2026-05-03T08:52:58.999Z</time></trkpt><trkpt lat="42.2538711383999" lon="13.72386941879909"><ele>791.0</ele><time>2026-05-03T08:52:59.999Z</time></trkpt><trkpt lat="42.25390113365962" lon="13.723967155488946"><ele>791.5</ele><time>2026-05-03T08:53:00.999Z</time></trkpt><trkpt lat="42.253940257048065" lon="13.724061535672774"><ele>792.0</ele><time>2026-05-03T08:53:01.999Z</time></trkpt><trkpt lat="42.253989817142475" lon="13.724142689583482"><ele>792.4999999999999</ele><time>2026-05-03T08:53:02.999Z</time></trkpt><trkpt lat="42.2540712579407" lon="13.724183334999163"><ele>793.0</ele><time>2026-05-03T08:53:03.999Z</time></trkpt><trkpt lat="42.25413835795744" lon="13.724212658013816"><ele>790.75</ele><time>2026-05-03T08:53:04.999Z</time></trkpt><trkpt lat="42.25424947099356" lon="13.724182774391481"><ele>788.5</ele><time>2026-05-03T08:53:06.999Z</time></trkpt><trkpt lat="42.25436714758923" lon="13.724187775794865"><ele>786.25</ele><time>2026-05-03T08:53:08.999Z</time></trkpt><trkpt lat="42.25447980085125" lon="13.724185528722625"><ele>784.0</ele><time>2026-05-03T08:53:10.999Z</time></trkpt><trkpt lat="42.25459017607573" lon="13.724171615058188"><ele>784.0</ele><time>2026-05-03T08:53:12.999Z</time></trkpt><trkpt lat="42.25474107237221" lon="13.724144213221825"><ele>784.0</ele><time>2026-05-03T08:53:14.999Z</time></trkpt><trkpt lat="42.25481565540626" lon="13.724140358818314"><ele>784.0</ele><time>2026-05-03T08:53:15.999Z</time></trkpt><trkpt lat="42.25488566189862" lon="13.724137447476359"><ele>784.0</ele><time>2026-05-03T08:53:16.999Z</time></trkpt><trkpt lat="42.25495840644815" lon="13.724137090026776"><ele>784.0</ele><time>2026-05-03T08:53:17.999Z</time></trkpt><trkpt lat="42.25509431843204" lon="13.724140961836872"><ele>784.3333333333333</ele><time>2026-05-03T08:53:19.999Z</time></trkpt><trkpt lat="42.25522345570542" lon="13.724147771456323"><ele>784.6666666666667</ele><time>2026-05-03T08:53:21.999Z</time></trkpt><trkpt lat="42.25529214990098" lon="13.72417064120137"><ele>785.0</ele><time>2026-05-03T08:53:22.999Z</time></trkpt><trkpt lat="42.255325751373235" lon="13.72497706135419"><ele>781.8333333333334</ele><time>2026-05-03T08:53:24.999Z</time></trkpt><trkpt lat="42.25534593359069" lon="13.72509136764206"><ele>778.6666666666667</ele><time>2026-05-03T08:53:25.999Z</time></trkpt><trkpt lat="42.255365195011805" lon="13.72521435238711"><ele>775.5</ele><time>2026-05-03T08:53:26.999Z</time></trkpt><trkpt lat="42.255390958826666" lon="13.72532002776463"><ele>772.3333333333334</ele><time>2026-05-03T08:53:27.999Z</time></trkpt><trkpt lat="42.25542540599644" lon="13.72544584461163"><ele>769.1666666666667</ele><time>2026-05-03T08:53:28.999Z</time></trkpt><trkpt lat="42.25545606904225" lon="13.725557055419543"><ele>766.0</ele><time>2026-05-03T08:53:29.999Z</time></trkpt><trkpt lat="42.25549364401417" lon="13.725674334358239"><ele>765.8</ele><time>2026-05-03T08:53:30.999Z</time></trkpt><trkpt lat="42.25553194429137" lon="13.725792779316077"><ele>765.5999999999999</ele><time>2026-05-03T08:53:31.999Z</time></trkpt><trkpt lat="42.25556651489595" lon="13.725919481183379"><ele>765.4</ele><time>2026-05-03T08:53:32.999Z</time></trkpt><trkpt lat="42.255619226219274" lon="13.726031203839353"><ele>765.2</ele><time>2026-05-03T08:53:34Z</time></trkpt><trkpt lat="42.255672213815906" lon="13.726141052062397"><ele>765.0</ele><time>2026-05-03T08:53:35Z</time></trkpt><trkpt lat="42.25570862084852" lon="13.72627046154718"><ele>765.0</ele><time>2026-05-03T08:53:36Z</time></trkpt><trkpt lat="42.25573284345551" lon="13.72637788862675"><ele>765.0</ele><time>2026-05-03T08:53:37Z</time></trkpt><trkpt lat="42.255737459133535" lon="13.726468631469594"><ele>765.0</ele><time>2026-05-03T08:53:38Z</time></trkpt><trkpt lat="42.255721116507964" lon="13.726562626788327"><ele>765.0</ele><time>2026-05-03T08:53:39Z</time></trkpt><trkpt lat="42.255693629919094" lon="13.726644902447298"><ele>765.0</ele><time>2026-05-03T08:53:40Z</time></trkpt><trkpt lat="42.25560436427817" lon="13.726750726758452"><ele>765.0</ele><time>2026-05-03T08:53:42Z</time></trkpt><trkpt lat="42.255510109869824" lon="13.726853651291563"><ele>761.8</ele><time>2026-05-03T08:53:44Z</time></trkpt><trkpt lat="42.25547994130049" lon="13.7270326299491"><ele>758.6</ele><time>2026-05-03T08:53:46Z</time></trkpt><trkpt lat="42.255487001931556" lon="13.727154910750809"><ele>755.4000000000001</ele><time>2026-05-03T08:53:47Z</time></trkpt><trkpt lat="42.255473972503395" lon="13.727265946297067"><ele>752.2</ele><time>2026-05-03T08:53:48Z</time></trkpt><trkpt lat="42.25545379964778" lon="13.727377815288174"><ele>749.0</ele><time>2026-05-03T08:53:49Z</time></trkpt><trkpt lat="42.255446866671505" lon="13.727470683664723"><ele>749.0</ele><time>2026-05-03T08:53:50Z</time></trkpt><trkpt lat="42.255467141252616" lon="13.72755974069972"><ele>749.0</ele><time>2026-05-03T08:53:51Z</time></trkpt><trkpt lat="42.25552292053803" lon="13.727617218678537"><ele>749.0</ele><time>2026-05-03T08:53:53Z</time></trkpt><trkpt lat="42.255588376966855" lon="13.727589561719183"><ele>749.0</ele><time>2026-05-03T08:53:55Z</time></trkpt><trkpt lat="42.255670297270505" lon="13.727549032703298"><ele>749.0</ele><time>2026-05-03T08:53:57Z</time></trkpt><trkpt lat="42.25575023508072" lon="13.727534190412284"><ele>749.0</ele><time>2026-05-03T08:53:59Z</time></trkpt><trkpt lat="42.25584875643784" lon="13.72754703872246"><ele>750.0</ele><time>2026-05-03T08:54:01Z</time></trkpt><trkpt lat="42.25594360708954" lon="13.727610985031296"><ele>751.0</ele><time>2026-05-03T08:54:03Z</time></trkpt><trkpt lat="42.256045058046375" lon="13.727673674568521"><ele>752.0</ele><time>2026-05-03T08:54:05Z</time></trkpt><trkpt lat="42.25614576638635" lon="13.72774512649259"><ele>753.0</ele><time>2026-05-03T08:54:07Z</time></trkpt><trkpt lat="42.25623628717032" lon="13.727826337778453"><ele>754.0</ele><time>2026-05-03T08:54:09Z</time></trkpt><trkpt lat="42.25629060343315" lon="13.727872291181177"><ele>750.5</ele><time>2026-05-03T08:54:10Z</time></trkpt><trkpt lat="42.2563442329861" lon="13.727917787427645"><ele>747.0</ele><time>2026-05-03T08:54:11Z</time></trkpt><trkpt lat="42.25639972039296" lon="13.727964824203045"><ele>743.5</ele><time>2026-05-03T08:54:12Z</time></trkpt><trkpt lat="42.25650507653964" lon="13.728053667874953"><ele>740.0</ele><time>2026-05-03T08:54:14Z</time></trkpt><trkpt lat="42.256558295307336" lon="13.7281008204992"><ele>736.5</ele><time>2026-05-03T08:54:15Z</time></trkpt><trkpt lat="42.2566643671921" lon="13.728185715854911"><ele>733.0</ele><time>2026-05-03T08:54:17Z</time></trkpt><trkpt lat="42.25675443774042" lon="13.72825410626866"><ele>733.0</ele><time>2026-05-03T08:54:19Z</time></trkpt><trkpt lat="42.256835891988075" lon="13.72832956706334"><ele>733.0</ele><time>2026-05-03T08:54:21Z</time></trkpt><trkpt lat="42.25690677435304" lon="13.72842917116477"><ele>733.0</ele><time>2026-05-03T08:54:23Z</time></trkpt><trkpt lat="42.25697475689055" lon="13.728535697582018"><ele>733.0</ele><time>2026-05-03T08:54:25Z</time></trkpt><trkpt lat="42.25706156334596" lon="13.728629996501514"><ele>733.0</ele><time>2026-05-03T08:54:27Z</time></trkpt><trkpt lat="42.25714731849602" lon="13.72871611904722"><ele>730.6666666666667</ele><time>2026-05-03T08:54:29Z</time></trkpt><trkpt lat="42.257209745825314" lon="13.728825550330045"><ele>728.3333333333334</ele><time>2026-05-03T08:54:31Z</time></trkpt><trkpt lat="42.257256492513555" lon="13.728903537470245"><ele>726.0</ele><time>2026-05-03T08:54:34Z</time></trkpt><trkpt lat="42.25728037595403" lon="13.72901502485069"><ele>723.6666666666666</ele><time>2026-05-03T08:54:38Z</time></trkpt><trkpt lat="42.2573127007957" lon="13.729090940543566"><ele>721.3333333333333</ele><time>2026-05-03T08:54:40Z</time></trkpt><trkpt lat="42.25733663784087" lon="13.729170563918872"><ele>719.0</ele><time>2026-05-03T08:54:42Z</time></trkpt><trkpt lat="42.25737025344749" lon="13.729261465449072"><ele>719.0</ele><time>2026-05-03T08:54:44Z</time></trkpt><trkpt lat="42.25741392075127" lon="13.729346847010696"><ele>719.0</ele><time>2026-05-03T08:54:46Z</time></trkpt><trkpt lat="42.25747985639042" lon="13.729411360630033"><ele>719.0</ele><time>2026-05-03T08:54:49Z</time></trkpt><trkpt lat="42.25754657683188" lon="13.729459966730513"><ele>719.0</ele><time>2026-05-03T08:54:51Z</time></trkpt><trkpt lat="42.25762588112907" lon="13.729480315182164"><ele>719.0</ele><time>2026-05-03T08:54:52.999Z</time></trkpt><trkpt lat="42.25771195696129" lon="13.729493315101669"><ele>719.0</ele><time>2026-05-03T08:54:55.999Z</time></trkpt><trkpt lat="42.257780112086316" lon="13.729510856821996"><ele>714.3333333333333</ele><time>2026-05-03T08:54:57.999Z</time></trkpt><trkpt lat="42.25785947923192" lon="13.729538021779161"><ele>709.6666666666666</ele><time>2026-05-03T08:54:59.999Z</time></trkpt><trkpt lat="42.257938447760104" lon="13.72955088303734"><ele>705.0</ele><time>2026-05-03T08:55:02.999Z</time></trkpt><trkpt lat="42.25800587357769" lon="13.72956849954181"><ele>700.3333333333334</ele><time>2026-05-03T08:55:04.999Z</time></trkpt><trkpt lat="42.258084727062865" lon="13.729590822497144"><ele>695.6666666666667</ele><time>2026-05-03T08:55:06.999Z</time></trkpt><trkpt lat="42.25815753846338" lon="13.729612559443474"><ele>691.0</ele><time>2026-05-03T08:55:08.999Z</time></trkpt><trkpt lat="42.25823927257591" lon="13.729640251847819"><ele>691.0</ele><time>2026-05-03T08:55:10.999Z</time></trkpt><trkpt lat="42.258319982191914" lon="13.729685370774261"><ele>691.0</ele><time>2026-05-03T08:55:12.999Z</time></trkpt><trkpt lat="42.258414121264046" lon="13.729751917150438"><ele>691.0</ele><time>2026-05-03T08:55:14.999Z</time></trkpt><trkpt lat="42.25850005387407" lon="13.729814266533445"><ele>691.0</ele><time>2026-05-03T08:55:16.999Z</time></trkpt><trkpt lat="42.258593146266534" lon="13.729875403734733"><ele>691.0</ele><time>2026-05-03T08:55:18.999Z</time></trkpt><trkpt lat="42.25867091241482" lon="13.729924942802874"><ele>691.0</ele><time>2026-05-03T08:55:20.999Z</time></trkpt><trkpt lat="42.258727810133045" lon="13.729965791526912"><ele>691.0</ele><time>2026-05-03T08:55:22.999Z</time></trkpt><trkpt lat="42.25879463947885" lon="13.730010068742631"><ele>691.0</ele><time>2026-05-03T08:55:24.999Z</time></trkpt><trkpt lat="42.25888312690397" lon="13.730047492595858"><ele>691.0</ele><time>2026-05-03T08:55:26.999Z</time></trkpt><trkpt lat="42.258968863284764" lon="13.730089646564771"><ele>691.0</ele><time>2026-05-03T08:55:28.999Z</time></trkpt><trkpt lat="42.25906152892408" lon="13.730129542355705"><ele>691.0</ele><time>2026-05-03T08:55:30.999Z</time></trkpt><trkpt lat="42.259177763160636" lon="13.73017543076745"><ele>692.3333333333334</ele><time>2026-05-03T08:55:32.999Z</time></trkpt><trkpt lat="42.25924563792224" lon="13.73020050694282"><ele>693.6666666666667</ele><time>2026-05-03T08:55:33.999Z</time></trkpt><trkpt lat="42.25931624768881" lon="13.73022753321559"><ele>695.0</ele><time>2026-05-03T08:55:34.999Z</time></trkpt><trkpt lat="42.25938521850179" lon="13.730253154827363"><ele>696.3333333333334</ele><time>2026-05-03T08:55:35.999Z</time></trkpt><trkpt lat="42.259493582296926" lon="13.730303022037866"><ele>697.6666666666666</ele><time>2026-05-03T08:55:37.999Z</time></trkpt><trkpt lat="42.25957948259207" lon="13.730347416657949"><ele>699.0</ele><time>2026-05-03T08:55:40Z</time></trkpt><trkpt lat="42.259674163245414" lon="13.730400295185817"><ele>693.2</ele><time>2026-05-03T08:55:42Z</time></trkpt><trkpt lat="42.25977486736582" lon="13.730446158603563"><ele>687.4000000000001</ele><time>2026-05-03T08:55:44Z</time></trkpt><trkpt lat="42.25987248831306" lon="13.73049554645239"><ele>681.6</ele><time>2026-05-03T08:55:46Z</time></trkpt><trkpt lat="42.259961003116544" lon="13.73053779209933"><ele>675.8</ele><time>2026-05-03T08:55:48Z</time></trkpt><trkpt lat="42.26002496673269" lon="13.730569614144894"><ele>670.0</ele><time>2026-05-03T08:55:50Z</time></trkpt><trkpt lat="42.26009387227521" lon="13.73061756060066"><ele>670.0</ele><time>2026-05-03T08:55:53Z</time></trkpt><trkpt lat="42.2601589863774" lon="13.730661551043674"><ele>670.0</ele><time>2026-05-03T08:55:55Z</time></trkpt><trkpt lat="42.2602207756038" lon="13.730709440245384"><ele>670.0</ele><time>2026-05-03T08:55:57Z</time></trkpt><trkpt lat="42.26027596438043" lon="13.730754917098569"><ele>670.0</ele><time>2026-05-03T08:55:59Z</time></trkpt><trkpt lat="42.260343465103816" lon="13.73078509804596"><ele>670.0</ele><time>2026-05-03T08:56:02Z</time></trkpt><trkpt lat="42.26042220743102" lon="13.730849876389524"><ele>670.0</ele><time>2026-05-03T08:56:05Z</time></trkpt><trkpt lat="42.260499691482124" lon="13.730913822699707"><ele>670.0</ele><time>2026-05-03T08:56:07Z</time></trkpt><trkpt lat="42.26057129270124" lon="13.73097976638591"><ele>670.0</ele><time>2026-05-03T08:56:09Z</time></trkpt><trkpt lat="42.26063597839709" lon="13.731039027568357"><ele>670.0</ele><time>2026-05-03T08:56:11Z</time></trkpt><trkpt lat="42.260714722215454" lon="13.731104353011625"><ele>670.0</ele><time>2026-05-03T08:56:13Z</time></trkpt><trkpt lat="42.260795701363094" lon="13.73119097119981"><ele>670.0</ele><time>2026-05-03T08:56:15Z</time></trkpt><trkpt lat="42.26085384745286" lon="13.731270461925586"><ele>670.0</ele><time>2026-05-03T08:56:17Z</time></trkpt><trkpt lat="42.260906355432994" lon="13.731357163995096"><ele>667.0</ele><time>2026-05-03T08:56:19Z</time></trkpt><trkpt lat="42.2609471536303" lon="13.73146043547085"><ele>664.0</ele><time>2026-05-03T08:56:21Z</time></trkpt><trkpt lat="42.2609720191876" lon="13.73155319810149"><ele>661.0</ele><time>2026-05-03T08:56:23Z</time></trkpt><trkpt lat="42.260998597294545" lon="13.731644080216112"><ele>658.0</ele><time>2026-05-03T08:56:25Z</time></trkpt><trkpt lat="42.26106853086064" lon="13.731763887127737"><ele>655.0</ele><time>2026-05-03T08:56:27Z</time></trkpt><trkpt lat="42.26113348380821" lon="13.731867743051518"><ele>652.0</ele><time>2026-05-03T08:56:29Z</time></trkpt><trkpt lat="42.26120561373278" lon="13.731955820874825"><ele>651.4000000000001</ele><time>2026-05-03T08:56:31Z</time></trkpt><trkpt lat="42.26130233680681" lon="13.731980887638025"><ele>650.8000000000001</ele><time>2026-05-03T08:56:33Z</time></trkpt><trkpt lat="42.26140972590585" lon="13.731977638838654"><ele>650.2</ele><time>2026-05-03T08:56:35Z</time></trkpt><trkpt lat="42.26151453034027" lon="13.7320286884365"><ele>649.6</ele><time>2026-05-03T08:56:37Z</time></trkpt><trkpt lat="42.26158676317255" lon="13.732156334891954"><ele>649.0</ele><time>2026-05-03T08:56:39Z</time></trkpt><trkpt lat="42.261618288215004" lon="13.732278606696072"><ele>649.0</ele><time>2026-05-03T08:56:41Z</time></trkpt><trkpt lat="42.26161981492028" lon="13.73241660889482"><ele>649.0</ele><time>2026-05-03T08:56:43Z</time></trkpt><trkpt lat="42.261613660335826" lon="13.732547583921187"><ele>649.0</ele><time>2026-05-03T08:56:45Z</time></trkpt><trkpt lat="42.261604493197204" lon="13.73269602941465"><ele>649.0</ele><time>2026-05-03T08:56:47Z</time></trkpt><trkpt lat="42.2616093943888" lon="13.732849772151797"><ele>649.0</ele><time>2026-05-03T08:56:49Z</time></trkpt><trkpt lat="42.26162470508639" lon="13.732940101792142"><ele>646.5</ele><time>2026-05-03T08:56:50Z</time></trkpt><trkpt lat="42.261642238957066" lon="13.733058768990396"><ele>644.0</ele><time>2026-05-03T08:56:51Z</time></trkpt><trkpt lat="42.26165463243971" lon="13.733175283643964"><ele>641.5</ele><time>2026-05-03T08:56:52Z</time></trkpt><trkpt lat="42.26166445343127" lon="13.733286320052564"><ele>639.0</ele><time>2026-05-03T08:56:53Z</time></trkpt><trkpt lat="42.261677711872366" lon="13.733399572689903"><ele>636.5</ele><time>2026-05-03T08:56:54Z</time></trkpt><trkpt lat="42.261701646886436" lon="13.733519735652969"><ele>634.0</ele><time>2026-05-03T08:56:55Z</time></trkpt><trkpt lat="42.261729741757435" lon="13.73362804156898"><ele>633.0</ele><time>2026-05-03T08:56:56Z</time></trkpt><trkpt lat="42.261757371887434" lon="13.733729941210832"><ele>632.0</ele><time>2026-05-03T08:56:57Z</time></trkpt><trkpt lat="42.261777491146745" lon="13.733832749737626"><ele>631.0</ele><time>2026-05-03T08:56:58Z</time></trkpt><trkpt lat="42.26178294566987" lon="13.73393900985955"><ele>630.0</ele><time>2026-05-03T08:56:58.999Z</time></trkpt><trkpt lat="42.261777247499715" lon="13.73404200974935"><ele>629.0</ele><time>2026-05-03T08:56:59.999Z</time></trkpt><trkpt lat="42.26177048066147" lon="13.73413389370112"><ele>628.0</ele><time>2026-05-03T08:57:00.999Z</time></trkpt><trkpt lat="42.261762151604074" lon="13.7342347909148"><ele>627.9999999999999</ele><time>2026-05-03T08:57:01.999Z</time></trkpt><trkpt lat="42.261738958348516" lon="13.734321423863976"><ele>628.0</ele><time>2026-05-03T08:57:02.999Z</time></trkpt><trkpt lat="42.261706407204684" lon="13.734407103088431"><ele>628.0</ele><time>2026-05-03T08:57:03.999Z</time></trkpt><trkpt lat="42.26167581990569" lon="13.734495584247236"><ele>628.0</ele><time>2026-05-03T08:57:04.999Z</time></trkpt><trkpt lat="42.26164133915514" lon="13.734591472115149"><ele>628.0</ele><time>2026-05-03T08:57:05.999Z</time></trkpt><trkpt lat="42.261606448274" lon="13.734680807070676"><ele>627.9999999999999</ele><time>2026-05-03T08:57:06.999Z</time></trkpt><trkpt lat="42.26156107644807" lon="13.734761226710145"><ele>628.0</ele><time>2026-05-03T08:57:07.999Z</time></trkpt><trkpt lat="42.26151171961538" lon="13.734826979019408"><ele>628.1428571428571</ele><time>2026-05-03T08:57:08.999Z</time></trkpt><trkpt lat="42.26145588322623" lon="13.73488996864108"><ele>628.2857142857142</ele><time>2026-05-03T08:57:09.999Z</time></trkpt><trkpt lat="42.26139895836615" lon="13.734960862658447"><ele>628.4285714285713</ele><time>2026-05-03T08:57:10.999Z</time></trkpt><trkpt lat="42.26134759550757" lon="13.735031539070947"><ele>628.5714285714286</ele><time>2026-05-03T08:57:11.999Z</time></trkpt><trkpt lat="42.26129596703152" lon="13.735097447932786"><ele>628.7142857142858</ele><time>2026-05-03T08:57:12.999Z</time></trkpt><trkpt lat="42.261251651484244" lon="13.73516904395058"><ele>628.8571428571428</ele><time>2026-05-03T08:57:13.999Z</time></trkpt><trkpt lat="42.26121194678619" lon="13.73524010536697"><ele>629.0</ele><time>2026-05-03T08:57:14.999Z</time></trkpt><trkpt lat="42.26117785644619" lon="13.735377770617205"><ele>624.8333333333333</ele><time>2026-05-03T08:57:16.999Z</time></trkpt><trkpt lat="42.26116146061137" lon="13.73547854942008"><ele>620.6666666666666</ele><time>2026-05-03T08:57:17.999Z</time></trkpt><trkpt lat="42.26113256781589" lon="13.735577882367972"><ele>616.5</ele><time>2026-05-03T08:57:18.999Z</time></trkpt><trkpt lat="42.26110383923659" lon="13.735674337242378"><ele>612.3333333333334</ele><time>2026-05-03T08:57:19.999Z</time></trkpt><trkpt lat="42.26108397248729" lon="13.735770282400585"><ele>608.1666666666667</ele><time>2026-05-03T08:57:20.999Z</time></trkpt><trkpt lat="42.261066492592754" lon="13.735887189339596"><ele>604.0</ele><time>2026-05-03T08:57:21.999Z</time></trkpt><trkpt lat="42.261046038699725" lon="13.736007718615122"><ele>602.6666666666667</ele><time>2026-05-03T08:57:23.999Z</time></trkpt><trkpt lat="42.26102036430979" lon="13.736133501276475"><ele>601.3333333333334</ele><time>2026-05-03T08:57:25.999Z</time></trkpt><trkpt lat="42.26099777411316" lon="13.736242379399854"><ele>600.0</ele><time>2026-05-03T08:57:27.999Z</time></trkpt><trkpt lat="42.26097267320723" lon="13.736323777961882"><ele>598.6666666666666</ele><time>2026-05-03T08:57:29.999Z</time></trkpt><trkpt lat="42.2609865651477" lon="13.736414578998113"><ele>597.3333333333333</ele><time>2026-05-03T08:57:32.999Z</time></trkpt><trkpt lat="42.261052794979186" lon="13.7364806250154"><ele>596.0</ele><time>2026-05-03T08:57:34.999Z</time></trkpt><trkpt lat="42.261137667523506" lon="13.736560361682145"><ele>596.0</ele><time>2026-05-03T08:57:36.999Z</time></trkpt><trkpt lat="42.261200740984705" lon="13.736642080875145"><ele>596.0</ele><time>2026-05-03T08:57:38.999Z</time></trkpt><trkpt lat="42.26128333608503" lon="13.736736169091996"><ele>596.0</ele><time>2026-05-03T08:57:40.999Z</time></trkpt><trkpt lat="42.26137520787985" lon="13.736838280487051"><ele>596.0</ele><time>2026-05-03T08:57:42.999Z</time></trkpt><trkpt lat="42.26147329106237" lon="13.736916347170688"><ele>596.0</ele><time>2026-05-03T08:57:44.999Z</time></trkpt><trkpt lat="42.26156587310016" lon="13.73696216723302"><ele>593.0</ele><time>2026-05-03T08:57:47Z</time></trkpt><trkpt lat="42.26165514972527" lon="13.736983101552163"><ele>590.0</ele><time>2026-05-03T08:57:49Z</time></trkpt><trkpt lat="42.26175697941947" lon="13.737011649123415"><ele>587.0</ele><time>2026-05-03T08:57:51Z</time></trkpt><trkpt lat="42.26185874817883" lon="13.73704578320427"><ele>584.0</ele><time>2026-05-03T08:57:53Z</time></trkpt><trkpt lat="42.26195546419995" lon="13.737085758271384"><ele>581.0</ele><time>2026-05-03T08:57:55Z</time></trkpt><trkpt lat="42.26204773759248" lon="13.737147653596685"><ele>581.0</ele><time>2026-05-03T08:57:57Z</time></trkpt><trkpt lat="42.262148082252864" lon="13.73722910003319"><ele>581.0</ele><time>2026-05-03T08:57:59Z</time></trkpt><trkpt lat="42.26225018166521" lon="13.737313722298373"><ele>581.0</ele><time>2026-05-03T08:58:01Z</time></trkpt><trkpt lat="42.26236276656444" lon="13.737394066974522"><ele>581.0</ele><time>2026-05-03T08:58:03Z</time></trkpt><trkpt lat="42.26242183957565" lon="13.737439021949617"><ele>581.0</ele><time>2026-05-03T08:58:04Z</time></trkpt><trkpt lat="42.26248055203241" lon="13.737477407384569"><ele>581.8333333333333</ele><time>2026-05-03T08:58:05Z</time></trkpt><trkpt lat="42.26254436270851" lon="13.737516890394339"><ele>582.6666666666666</ele><time>2026-05-03T08:58:06Z</time></trkpt><trkpt lat="42.262618313333725" lon="13.737548255315941"><ele>583.5</ele><time>2026-05-03T08:58:07Z</time></trkpt><trkpt lat="42.26269724794605" lon="13.7375601055294"><ele>584.3333333333334</ele><time>2026-05-03T08:58:08Z</time></trkpt><trkpt lat="42.26277212230903" lon="13.737567515910984"><ele>585.1666666666667</ele><time>2026-05-03T08:58:09Z</time></trkpt><trkpt lat="42.26290081781159" lon="13.737595609815964"><ele>586.0</ele><time>2026-05-03T08:58:11Z</time></trkpt><trkpt lat="42.26301655686707" lon="13.737630524774026"><ele>577.3333333333334</ele><time>2026-05-03T08:58:13Z</time></trkpt><trkpt lat="42.26307053227366" lon="13.738023875299048"><ele>568.6666666666666</ele><time>2026-05-03T08:58:14Z</time></trkpt><trkpt lat="42.26317430537237" lon="13.73802824204064"><ele>560.0</ele><time>2026-05-03T08:58:16Z</time></trkpt><trkpt lat="42.26325961177058" lon="13.738031831733984"><ele>560.0</ele><time>2026-05-03T08:58:18Z</time></trkpt><trkpt lat="42.263335385918076" lon="13.738035020302089"><ele>560.0</ele><time>2026-05-03T08:58:20Z</time></trkpt><trkpt lat="42.263404424450584" lon="13.738037925431945"><ele>560.0</ele><time>2026-05-03T08:58:22Z</time></trkpt><trkpt lat="42.26346898693605" lon="13.738040642224293"><ele>560.0</ele><time>2026-05-03T08:58:35Z</time></trkpt><trkpt lat="42.26355242805646" lon="13.738044153420685"><ele>560.0</ele><time>2026-05-03T08:58:38Z</time></trkpt><trkpt lat="42.26362423062346" lon="13.738047174867416"><ele>560.0</ele><time>2026-05-03T08:58:42Z</time></trkpt><trkpt lat="42.26370665490525" lon="13.738050643278894"><ele>560.0</ele><time>2026-05-03T08:58:45Z</time></trkpt><trkpt lat="42.26379266148187" lon="13.738054262431316"><ele>560.0</ele><time>2026-05-03T08:58:48Z</time></trkpt><trkpt lat="42.26386990142005" lon="13.738057512679475"><ele>560.0</ele><time>2026-05-03T08:58:51Z</time></trkpt><trkpt lat="42.26396166482134" lon="13.738061374082973"><ele>560.0</ele><time>2026-05-03T08:58:54Z</time></trkpt><trkpt lat="42.264044416682566" lon="13.738064856279369"><ele>560.0</ele><time>2026-05-03T08:58:57Z</time></trkpt><trkpt lat="42.26411368428899" lon="13.738067772735016"><ele>560.0</ele><time>2026-05-03T08:59:00Z</time></trkpt><trkpt lat="42.26419061016153" lon="13.738071009772845"><ele>560.0</ele><time>2026-05-03T08:59:03Z</time></trkpt><trkpt lat="42.26426997077383" lon="13.73807434926427"><ele>559.4285714285714</ele><time>2026-05-03T08:59:05.999Z</time></trkpt><trkpt lat="42.26434414425065" lon="13.738077470480771"><ele>558.8571428571429</ele><time>2026-05-03T08:59:08.999Z</time></trkpt><trkpt lat="42.264411635240435" lon="13.738080310495553"><ele>558.2857142857142</ele><time>2026-05-03T08:59:11.999Z</time></trkpt><trkpt lat="42.26448746829507" lon="13.738083501545557"><ele>557.7142857142858</ele><time>2026-05-03T08:59:14.999Z</time></trkpt><trkpt lat="42.26455309826651" lon="13.738086263249548"><ele>557.1428571428571</ele><time>2026-05-03T08:59:17.999Z</time></trkpt><trkpt lat="42.264633109375474" lon="13.738089630112906"><ele>556.5714285714286</ele><time>2026-05-03T08:59:21.999Z</time></trkpt><trkpt lat="42.26469745115324" lon="13.738092337610537"><ele>556.0</ele><time>2026-05-03T08:59:25.999Z</time></trkpt><trkpt lat="42.264765327588044" lon="13.738095193846949"><ele>555.3333333333334</ele><time>2026-05-03T08:59:29.999Z</time></trkpt><trkpt lat="42.26483209562011" lon="13.738098003443136"><ele>554.6666666666667</ele><time>2026-05-03T08:59:33.999Z</time></trkpt><trkpt lat="42.26491374259722" lon="13.73810126047732"><ele>554.0</ele><time>2026-05-03T08:59:36.999Z</time></trkpt><trkpt lat="42.26503139882305" lon="13.738104884355963"><ele>553.3333333333334</ele><time>2026-05-03T08:59:38.999Z</time></trkpt><trkpt lat="42.26509799563425" lon="13.738123335076208"><ele>552.6666666666666</ele><time>2026-05-03T08:59:39.999Z</time></trkpt><trkpt lat="42.265207502971435" lon="13.738134865836685"><ele>552.0</ele><time>2026-05-03T08:59:41.999Z</time></trkpt><trkpt lat="42.265281874997406" lon="13.738131984295658"><ele>552.0</ele><time>2026-05-03T08:59:43.999Z</time></trkpt><trkpt lat="42.26539507641993" lon="13.738133554746328"><ele>552.0</ele><time>2026-05-03T08:59:45.999Z</time></trkpt><trkpt lat="42.26549354416374" lon="13.738141236557484"><ele>552.0</ele><time>2026-05-03T08:59:46.999Z</time></trkpt><trkpt lat="42.265599300153404" lon="13.738153507547434"><ele>552.0</ele><time>2026-05-03T08:59:47.999Z</time></trkpt><trkpt lat="42.26572720780817" lon="13.738159163969886"><ele>552.0</ele><time>2026-05-03T08:59:48.999Z</time></trkpt><trkpt lat="42.26586526065806" lon="13.738166813036555"><ele>551.5</ele><time>2026-05-03T08:59:49.999Z</time></trkpt><trkpt lat="42.26599847642178" lon="13.738179393895475"><ele>551.0</ele><time>2026-05-03T08:59:50.999Z</time></trkpt><trkpt lat="42.26613450099305" lon="13.738200774303822"><ele>550.5</ele><time>2026-05-03T08:59:52Z</time></trkpt><trkpt lat="42.26624968082187" lon="13.738145729472535"><ele>550.0</ele><time>2026-05-03T08:59:53Z</time></trkpt><trkpt lat="42.26640735603175" lon="13.73816291197898"><ele>549.0</ele><time>2026-05-03T08:59:54Z</time></trkpt><trkpt lat="42.26657666522331" lon="13.73817026654227"><ele>548.0</ele><time>2026-05-03T08:59:55Z</time></trkpt><trkpt lat="42.266763969402" lon="13.73816075781283"><ele>547.0</ele><time>2026-05-03T08:59:56Z</time></trkpt><trkpt lat="42.26694880523428" lon="13.738171547170106"><ele>547.0</ele><time>2026-05-03T08:59:57Z</time></trkpt><trkpt lat="42.26711866860989" lon="13.73818564730179"><ele>547.0</ele><time>2026-05-03T08:59:58Z</time></trkpt><trkpt lat="42.26727905560631" lon="13.738201961985522"><ele>547.0</ele><time>2026-05-03T08:59:59Z</time></trkpt><trkpt lat="42.26743644506765" lon="13.738210193262493"><ele>546.0</ele><time>2026-05-03T09:00:00Z</time></trkpt><trkpt lat="42.267586967246785" lon="13.738214101525566"><ele>545.0</ele><time>2026-05-03T09:00:01Z</time></trkpt><trkpt lat="42.26772758763485" lon="13.738218176609022"><ele>544.0</ele><time>2026-05-03T09:00:02Z</time></trkpt><trkpt lat="42.267861843213495" lon="13.73822433153138"><ele>543.0</ele><time>2026-05-03T09:00:03Z</time></trkpt><trkpt lat="42.26799266521072" lon="13.73824751746422"><ele>542.0</ele><time>2026-05-03T09:00:04Z</time></trkpt><trkpt lat="42.268117472746475" lon="13.738257815449654"><ele>541.0</ele><time>2026-05-03T09:00:05Z</time></trkpt><trkpt lat="42.26823497231279" lon="13.738261371313916"><ele>540.0</ele><time>2026-05-03T09:00:06Z</time></trkpt><trkpt lat="42.26834280889603" lon="13.73825910513651"><ele>539.0</ele><time>2026-05-03T09:00:07Z</time></trkpt><trkpt lat="42.26843859100671" lon="13.738266984715125"><ele>538.0</ele><time>2026-05-03T09:00:08Z</time></trkpt><trkpt lat="42.26851925192657" lon="13.738280135585605"><ele>538.0</ele><time>2026-05-03T09:00:09Z</time></trkpt><trkpt lat="42.26858958681208" lon="13.738303342323285"><ele>538.0</ele><time>2026-05-03T09:00:10Z</time></trkpt><trkpt lat="42.268655045837285" lon="13.738327749168704"><ele>538.0</ele><time>2026-05-03T09:00:11Z</time></trkpt><trkpt lat="42.268740097610696" lon="13.73835492377472"><ele>538.0</ele><time>2026-05-03T09:00:12Z</time></trkpt><trkpt lat="42.26883616133971" lon="13.738375743385289"><ele>538.0</ele><time>2026-05-03T09:00:13Z</time></trkpt><trkpt lat="42.268927101371304" lon="13.738366576792965"><ele>538.0</ele><time>2026-05-03T09:00:14Z</time></trkpt><trkpt lat="42.26900895653388" lon="13.738370022599357"><ele>538.3333333333334</ele><time>2026-05-03T09:00:15Z</time></trkpt><trkpt lat="42.26909052934829" lon="13.738373447107755"><ele>538.6666666666667</ele><time>2026-05-03T09:00:16Z</time></trkpt><trkpt lat="42.26917248367093" lon="13.738376887630125"><ele>539.0</ele><time>2026-05-03T09:00:17Z</time></trkpt><trkpt lat="42.26923797279259" lon="13.738379641724151"><ele>539.3333333333334</ele><time>2026-05-03T09:00:18Z</time></trkpt><trkpt lat="42.26935067073304" lon="13.738384381708528"><ele>539.6666666666666</ele><time>2026-05-03T09:00:20Z</time></trkpt><trkpt lat="42.26942850884678" lon="13.738387655522853"><ele>540.0</ele><time>2026-05-03T09:00:22Z</time></trkpt><trkpt lat="42.269437000292164" lon="13.738867816364955"><ele>537.6666666666666</ele><time>2026-05-03T09:00:24Z</time></trkpt><trkpt lat="42.26942127384617" lon="13.738958253392415"><ele>535.3333333333334</ele><time>2026-05-03T09:00:25Z</time></trkpt><trkpt lat="42.26939442883363" lon="13.739068754170107"><ele>533.0</ele><time>2026-05-03T09:00:26Z</time></trkpt><trkpt lat="42.26937034588668" lon="13.739179698366383"><ele>530.6666666666667</ele><time>2026-05-03T09:00:27Z</time></trkpt><trkpt lat="42.26935587998646" lon="13.739277998766717"><ele>528.3333333333334</ele><time>2026-05-03T09:00:28Z</time></trkpt><trkpt lat="42.26934168666924" lon="13.739378475187825"><ele>526.0</ele><time>2026-05-03T09:00:29Z</time></trkpt><trkpt lat="42.269326752944266" lon="13.739473710303747"><ele>524.8571428571429</ele><time>2026-05-03T09:00:30Z</time></trkpt><trkpt lat="42.26930971213805" lon="13.739564375853812"><ele>523.7142857142857</ele><time>2026-05-03T09:00:31Z</time></trkpt><trkpt lat="42.26929343267019" lon="13.739656111768145"><ele>522.5714285714286</ele><time>2026-05-03T09:00:32Z</time></trkpt><trkpt lat="42.269272364468286" lon="13.739742786352569"><ele>521.4285714285714</ele><time>2026-05-03T09:00:33Z</time></trkpt><trkpt lat="42.26924973342622" lon="13.739831904102425"><ele>520.2857142857142</ele><time>2026-05-03T09:00:34Z</time></trkpt><trkpt lat="42.26922398311134" lon="13.739923568196668"><ele>519.1428571428571</ele><time>2026-05-03T09:00:35Z</time></trkpt><trkpt lat="42.26921142102426" lon="13.740007930757708"><ele>518.0</ele><time>2026-05-03T09:00:36Z</time></trkpt><trkpt lat="42.2692136295605" lon="13.740150464941522"><ele>514.6</ele><time>2026-05-03T09:00:38Z</time></trkpt><trkpt lat="42.26917390155585" lon="13.740269939947668"><ele>511.19999999999993</ele><time>2026-05-03T09:00:40Z</time></trkpt><trkpt lat="42.26908949768264" lon="13.740353593496286"><ele>507.8</ele><time>2026-05-03T09:00:42Z</time></trkpt><trkpt lat="42.26899382197375" lon="13.740435579261385"><ele>504.4</ele><time>2026-05-03T09:00:44Z</time></trkpt><trkpt lat="42.26888963226629" lon="13.740499685573115"><ele>501.0</ele><time>2026-05-03T09:00:46Z</time></trkpt><trkpt lat="42.268797071992175" lon="13.740561118325955"><ele>501.0</ele><time>2026-05-03T09:00:48Z</time></trkpt><trkpt lat="42.26870625142873" lon="13.74059372469451"><ele>501.0</ele><time>2026-05-03T09:00:50Z</time></trkpt><trkpt lat="42.26862693982922" lon="13.740581920097252"><ele>501.0</ele><time>2026-05-03T09:00:52Z</time></trkpt><trkpt lat="42.26857894422114" lon="13.74051704240206"><ele>501.0</ele><time>2026-05-03T09:00:54Z</time></trkpt><trkpt lat="42.26856017013668" lon="13.740421520780316"><ele>501.0</ele><time>2026-05-03T09:00:56Z</time></trkpt><trkpt lat="42.268561823997345" lon="13.740294589818825"><ele>501.0</ele><time>2026-05-03T09:00:58Z</time></trkpt><trkpt lat="42.26855385750736" lon="13.74015856053489"><ele>501.0</ele><time>2026-05-03T09:01:00Z</time></trkpt><trkpt lat="42.26851908369685" lon="13.740059504658491"><ele>501.0</ele><time>2026-05-03T09:01:02Z</time></trkpt><trkpt lat="42.26843341044705" lon="13.740032807755012"><ele>501.0</ele><time>2026-05-03T09:01:03.999Z</time></trkpt><trkpt lat="42.26835728552876" lon="13.740081930287925"><ele>501.0</ele><time>2026-05-03T09:01:05.999Z</time></trkpt><trkpt lat="42.26830958529129" lon="13.740199798197985"><ele>501.0</ele><time>2026-05-03T09:01:07.999Z</time></trkpt><trkpt lat="42.26824366027846" lon="13.740312886626855"><ele>501.0</ele><time>2026-05-03T09:01:09.999Z</time></trkpt><trkpt lat="42.26814187375005" lon="13.740383011832167"><ele>501.0</ele><time>2026-05-03T09:01:11.999Z</time></trkpt><trkpt lat="42.268073455439826" lon="13.74041343894722"><ele>501.0</ele><time>2026-05-03T09:01:12.999Z</time></trkpt><trkpt lat="42.26799764519627" lon="13.740437622058577"><ele>501.0</ele><time>2026-05-03T09:01:13.999Z</time></trkpt><trkpt lat="42.267916819108166" lon="13.740466342404407"><ele>501.0</ele><time>2026-05-03T09:01:14.999Z</time></trkpt><trkpt lat="42.2678474442728" lon="13.740491116015061"><ele>501.0</ele><time>2026-05-03T09:01:15.999Z</time></trkpt><trkpt lat="42.26774020226684" lon="13.740505588202739"><ele>499.4</ele><time>2026-05-03T09:01:17.999Z</time></trkpt><trkpt lat="42.267613956438545" lon="13.740457852115153"><ele>497.8</ele><time>2026-05-03T09:01:19.999Z</time></trkpt><trkpt lat="42.267548607584565" lon="13.740439611681564"><ele>496.19999999999993</ele><time>2026-05-03T09:01:20.999Z</time></trkpt><trkpt lat="42.267441680584035" lon="13.740365899100201"><ele>494.59999999999997</ele><time>2026-05-03T09:01:22.999Z</time></trkpt><trkpt lat="42.267374273608375" lon="13.74031245627917"><ele>493.0</ele><time>2026-05-03T09:01:23.999Z</time></trkpt><trkpt lat="42.26730310395995" lon="13.74026316021823"><ele>491.83333333333337</ele><time>2026-05-03T09:01:24.999Z</time></trkpt><trkpt lat="42.26724028862877" lon="13.740220891350846"><ele>490.6666666666667</ele><time>2026-05-03T09:01:25.999Z</time></trkpt><trkpt lat="42.26713829081334" lon="13.74019030022545"><ele>489.5</ele><time>2026-05-03T09:01:27.999Z</time></trkpt><trkpt lat="42.26706174129791" lon="13.740215981273954"><ele>488.33333333333337</ele><time>2026-05-03T09:01:29.999Z</time></trkpt><trkpt lat="42.266970320664925" lon="13.740209906749072"><ele>487.1666666666667</ele><time>2026-05-03T09:01:31.999Z</time></trkpt><trkpt lat="42.26690220207097" lon="13.740180474590213"><ele>486.0</ele><time>2026-05-03T09:01:32.999Z</time></trkpt><trkpt lat="42.26681777787956" lon="13.740165043859404"><ele>486.0</ele><time>2026-05-03T09:01:33.999Z</time></trkpt><trkpt lat="42.26674551383751" lon="13.740163712884684"><ele>486.0</ele><time>2026-05-03T09:01:34.999Z</time></trkpt><trkpt lat="42.26667913481835" lon="13.740183258923919"><ele>486.0</ele><time>2026-05-03T09:01:35.999Z</time></trkpt><trkpt lat="42.266611168450346" lon="13.740196576882482"><ele>486.0</ele><time>2026-05-03T09:01:36.999Z</time></trkpt><trkpt lat="42.266541583402606" lon="13.740207835222916"><ele>486.0</ele><time>2026-05-03T09:01:37.999Z</time></trkpt><trkpt lat="42.26646250110035" lon="13.740230195835197"><ele>486.0</ele><time>2026-05-03T09:01:38.999Z</time></trkpt><trkpt lat="42.26638372763621" lon="13.740248831019928"><ele>486.0</ele><time>2026-05-03T09:01:39.999Z</time></trkpt><trkpt lat="42.26627065754299" lon="13.740284024670721"><ele>486.1666666666667</ele><time>2026-05-03T09:01:41.999Z</time></trkpt><trkpt lat="42.266188908338066" lon="13.74037453594779"><ele>486.33333333333337</ele><time>2026-05-03T09:01:43.999Z</time></trkpt><trkpt lat="42.2661427482464" lon="13.74043874786878"><ele>486.5</ele><time>2026-05-03T09:01:44.999Z</time></trkpt><trkpt lat="42.26609694781457" lon="13.740506994771062"><ele>486.6666666666667</ele><time>2026-05-03T09:01:45.999Z</time></trkpt><trkpt lat="42.26603382669014" lon="13.740577652842058"><ele>486.83333333333337</ele><time>2026-05-03T09:01:46.999Z</time></trkpt><trkpt lat="42.26596450178343" lon="13.740644377287877"><ele>487.0</ele><time>2026-05-03T09:01:47.999Z</time></trkpt><trkpt lat="42.26589638198936" lon="13.740704909795477"><ele>487.0</ele><time>2026-05-03T09:01:48.999Z</time></trkpt><trkpt lat="42.26584064358112" lon="13.740771153491822"><ele>487.0</ele><time>2026-05-03T09:01:49.999Z</time></trkpt><trkpt lat="42.26578473392875" lon="13.740840206842938"><ele>487.0</ele><time>2026-05-03T09:01:50.999Z</time></trkpt><trkpt lat="42.26573119640505" lon="13.740886626578105"><ele>487.0</ele><time>2026-05-03T09:01:51.999Z</time></trkpt><trkpt lat="42.26566936724702" lon="13.740925507998845"><ele>487.0</ele><time>2026-05-03T09:01:52.999Z</time></trkpt><trkpt lat="42.26559815331624" lon="13.740953560099666"><ele>487.0</ele><time>2026-05-03T09:01:53.999Z</time></trkpt><trkpt lat="42.26552425127493" lon="13.74097463309581"><ele>487.0</ele><time>2026-05-03T09:01:54.999Z</time></trkpt><trkpt lat="42.265452728430105" lon="13.74098700039982"><ele>487.00000000000006</ele><time>2026-05-03T09:01:55.999Z</time></trkpt><trkpt lat="42.26537888664087" lon="13.741001742212521"><ele>487.0</ele><time>2026-05-03T09:01:56.999Z</time></trkpt><trkpt lat="42.265253351505635" lon="13.741002013920655"><ele>487.0</ele><time>2026-05-03T09:01:59Z</time></trkpt><trkpt lat="42.26518082342577" lon="13.740994297446901"><ele>487.0</ele><time>2026-05-03T09:02:00Z</time></trkpt><trkpt lat="42.265104115943934" lon="13.740980056620367"><ele>487.00000000000006</ele><time>2026-05-03T09:02:01Z</time></trkpt><trkpt lat="42.26502507243234" lon="13.740960443218437"><ele>487.0</ele><time>2026-05-03T09:02:02Z</time></trkpt><trkpt lat="42.264944120570654" lon="13.740948740062338"><ele>487.00000000000006</ele><time>2026-05-03T09:02:03Z</time></trkpt><trkpt lat="42.26486657530042" lon="13.74095963552006"><ele>487.0</ele><time>2026-05-03T09:02:04Z</time></trkpt><trkpt lat="42.26479233558299" lon="13.740975709761257"><ele>487.0</ele><time>2026-05-03T09:02:05Z</time></trkpt><trkpt lat="42.26472097006425" lon="13.741002307564164"><ele>487.0</ele><time>2026-05-03T09:02:06Z</time></trkpt><trkpt lat="42.264643772979575" lon="13.74105850481384"><ele>487.00000000000006</ele><time>2026-05-03T09:02:07Z</time></trkpt><trkpt lat="42.26457108696503" lon="13.741119226733694"><ele>487.0</ele><time>2026-05-03T09:02:08Z</time></trkpt><trkpt lat="42.26448578987924" lon="13.741169051929402"><ele>484.83333333333337</ele><time>2026-05-03T09:02:09Z</time></trkpt><trkpt lat="42.264401871647934" lon="13.741193834717484"><ele>482.6666666666667</ele><time>2026-05-03T09:02:10Z</time></trkpt><trkpt lat="42.26432297949747" lon="13.741218118493558"><ele>480.5</ele><time>2026-05-03T09:02:11Z</time></trkpt><trkpt lat="42.26423677621217" lon="13.741241134967106"><ele>478.33333333333337</ele><time>2026-05-03T09:02:12Z</time></trkpt><trkpt lat="42.264149639290146" lon="13.741257636953987"><ele>476.1666666666667</ele><time>2026-05-03T09:02:13Z</time></trkpt><trkpt lat="42.264057261722066" lon="13.741259740223736"><ele>474.0</ele><time>2026-05-03T09:02:14Z</time></trkpt><trkpt lat="42.26396998716867" lon="13.741253576065995"><ele>474.0</ele><time>2026-05-03T09:02:15Z</time></trkpt><trkpt lat="42.26387680461896" lon="13.741253867471181"><ele>474.0</ele><time>2026-05-03T09:02:16Z</time></trkpt><trkpt lat="42.26378630060687" lon="13.741253167155477"><ele>474.0</ele><time>2026-05-03T09:02:17Z</time></trkpt><trkpt lat="42.26371006314855" lon="13.741247946268334"><ele>474.0</ele><time>2026-05-03T09:02:18Z</time></trkpt><trkpt lat="42.26364244200543" lon="13.741254596396603"><ele>474.0</ele><time>2026-05-03T09:02:19Z</time></trkpt><trkpt lat="42.263549631469544" lon="13.741270230113916"><ele>474.0</ele><time>2026-05-03T09:02:21Z</time></trkpt><trkpt lat="42.26349203053588" lon="13.74137924784304"><ele>474.0</ele><time>2026-05-03T09:02:24Z</time></trkpt><trkpt lat="42.263406372842795" lon="13.74148318417147"><ele>474.0</ele><time>2026-05-03T09:02:26Z</time></trkpt><trkpt lat="42.263365133924296" lon="13.741580189405601"><ele>474.0</ele><time>2026-05-03T09:02:28Z</time></trkpt><trkpt lat="42.2633531372116" lon="13.741675196919498"><ele>474.0</ele><time>2026-05-03T09:02:30Z</time></trkpt><trkpt lat="42.263265818394146" lon="13.741740138290282"><ele>474.0</ele><time>2026-05-03T09:02:32Z</time></trkpt><trkpt lat="42.263166367427644" lon="13.741767232136425"><ele>474.0</ele><time>2026-05-03T09:02:34Z</time></trkpt><trkpt lat="42.263138199777515" lon="13.74186282094788"><ele>474.0</ele><time>2026-05-03T09:02:36Z</time></trkpt><trkpt lat="42.263177184377824" lon="13.742009834748183"><ele>474.0</ele><time>2026-05-03T09:02:38Z</time></trkpt><trkpt lat="42.263172949530826" lon="13.742129165153143"><ele>474.0</ele><time>2026-05-03T09:02:40Z</time></trkpt><trkpt lat="42.26308606548656" lon="13.742193799390396"><ele>474.0</ele><time>2026-05-03T09:02:42Z</time></trkpt><trkpt lat="42.26301575225511" lon="13.742258819224526"><ele>472.0</ele><time>2026-05-03T09:02:44Z</time></trkpt><trkpt lat="42.263038241126054" lon="13.742440855244519"><ele>470.0</ele><time>2026-05-03T09:02:46Z</time></trkpt><trkpt lat="42.26305906316072" lon="13.742553129818804"><ele>468.0</ele><time>2026-05-03T09:02:47Z</time></trkpt><trkpt lat="42.26305986022694" lon="13.742645968086084"><ele>466.0</ele><time>2026-05-03T09:02:48Z</time></trkpt><trkpt lat="42.26301660006394" lon="13.742757213573222"><ele>464.0</ele><time>2026-05-03T09:02:50Z</time></trkpt><trkpt lat="42.26290151457694" lon="13.742808591224456"><ele>462.8333333333333</ele><time>2026-05-03T09:02:52Z</time></trkpt><trkpt lat="42.26282412898211" lon="13.742827653233268"><ele>461.66666666666663</ele><time>2026-05-03T09:02:53Z</time></trkpt><trkpt lat="42.2627581846688" lon="13.742863467782733"><ele>460.5</ele><time>2026-05-03T09:02:54Z</time></trkpt><trkpt lat="42.262696501203365" lon="13.742921425066934"><ele>459.33333333333337</ele><time>2026-05-03T09:02:55Z</time></trkpt><trkpt lat="42.26261387719173" lon="13.74298702323757"><ele>458.1666666666667</ele><time>2026-05-03T09:02:56Z</time></trkpt><trkpt lat="42.262545715309926" lon="13.74304250599242"><ele>457.0</ele><time>2026-05-03T09:02:57Z</time></trkpt><trkpt lat="42.262479972964094" lon="13.74308214835358"><ele>457.00000000000006</ele><time>2026-05-03T09:02:58Z</time></trkpt><trkpt lat="42.262361805059875" lon="13.743107432973298"><ele>457.0</ele><time>2026-05-03T09:03:00Z</time></trkpt><trkpt lat="42.26230657404496" lon="13.743154150845964"><ele>457.0</ele><time>2026-05-03T09:03:01Z</time></trkpt><trkpt lat="42.26226148268924" lon="13.743235370318905"><ele>457.0</ele><time>2026-05-03T09:03:02Z</time></trkpt><trkpt lat="42.26222924732576" lon="13.743321576428789"><ele>457.00000000000006</ele><time>2026-05-03T09:03:03Z</time></trkpt><trkpt lat="42.26220306962269" lon="13.743408868031215"><ele>457.0</ele><time>2026-05-03T09:03:04Z</time></trkpt><trkpt lat="42.26218583721573" lon="13.743495659165514"><ele>457.00000000000006</ele><time>2026-05-03T09:03:05Z</time></trkpt><trkpt lat="42.26212560709699" lon="13.74361152930043"><ele>457.0</ele><time>2026-05-03T09:03:07Z</time></trkpt><trkpt lat="42.26210633353591" lon="13.743700883807003"><ele>457.0</ele><time>2026-05-03T09:03:09.999Z</time></trkpt><trkpt lat="42.2621573417669" lon="13.7437700904256"><ele>457.0</ele><time>2026-05-03T09:03:11.999Z</time></trkpt><trkpt lat="42.262200475350895" lon="13.743835852428502"><ele>457.00000000000006</ele><time>2026-05-03T09:04:37Z</time></trkpt><trkpt lat="42.26226461119728" lon="13.743951457015598"><ele>457.0</ele><time>2026-05-03T09:04:39Z</time></trkpt><trkpt lat="42.26233610176384" lon="13.743979797549535"><ele>456.20000000000005</ele><time>2026-05-03T09:04:40Z</time></trkpt><trkpt lat="42.26241727167597" lon="13.743987794753386"><ele>455.40000000000003</ele><time>2026-05-03T09:04:41Z</time></trkpt><trkpt lat="42.26250750581771" lon="13.743986279902353"><ele>454.59999999999997</ele><time>2026-05-03T09:04:42Z</time></trkpt><trkpt lat="42.262610452740894" lon="13.743974962917886"><ele>453.79999999999995</ele><time>2026-05-03T09:04:43Z</time></trkpt><trkpt lat="42.26272636952582" lon="13.743962133064155"><ele>453.0</ele><time>2026-05-03T09:04:44Z</time></trkpt><trkpt lat="42.26284978943043" lon="13.743943001370258"><ele>453.0</ele><time>2026-05-03T09:04:45Z</time></trkpt><trkpt lat="42.262971607987055" lon="13.743931771314838"><ele>453.0</ele><time>2026-05-03T09:04:46Z</time></trkpt><trkpt lat="42.263092079545885" lon="13.743928018122725"><ele>453.0</ele><time>2026-05-03T09:04:47Z</time></trkpt><trkpt lat="42.26320834868463" lon="13.743909623296943"><ele>453.0</ele><time>2026-05-03T09:04:48Z</time></trkpt><trkpt lat="42.26331982984575" lon="13.743895075102175"><ele>452.25</ele><time>2026-05-03T09:04:49Z</time></trkpt><trkpt lat="42.26342474132187" lon="13.743892905111371"><ele>451.5</ele><time>2026-05-03T09:04:50Z</time></trkpt><trkpt lat="42.26354152580553" lon="13.743901165183594"><ele>450.75</ele><time>2026-05-03T09:04:51Z</time></trkpt><trkpt lat="42.26366555360483" lon="13.743925770245037"><ele>450.0</ele><time>2026-05-03T09:04:52Z</time></trkpt><trkpt lat="42.263801356842734" lon="13.743973829354985"><ele>450.0</ele><time>2026-05-03T09:04:53Z</time></trkpt><trkpt lat="42.263929437694486" lon="13.744017297295727"><ele>450.0</ele><time>2026-05-03T09:04:54Z</time></trkpt><trkpt lat="42.26405380496944" lon="13.744038034281918"><ele>450.0</ele><time>2026-05-03T09:04:55Z</time></trkpt><trkpt lat="42.264182093619" lon="13.744051891009816"><ele>450.0</ele><time>2026-05-03T09:04:56Z</time></trkpt><trkpt lat="42.2643054967269" lon="13.744076402113796"><ele>449.5</ele><time>2026-05-03T09:04:57Z</time></trkpt><trkpt lat="42.26441992553944" lon="13.744099423037488"><ele>449.0</ele><time>2026-05-03T09:04:58Z</time></trkpt><trkpt lat="42.26452828702442" lon="13.74410180796941"><ele>448.5</ele><time>2026-05-03T09:04:59Z</time></trkpt><trkpt lat="42.264637608210386" lon="13.74407432857878"><ele>448.0</ele><time>2026-05-03T09:05:00Z</time></trkpt><trkpt lat="42.264746522980936" lon="13.74402507429161"><ele>448.0</ele><time>2026-05-03T09:05:01Z</time></trkpt><trkpt lat="42.26485389246037" lon="13.743954780743502"><ele>448.0</ele><time>2026-05-03T09:05:02Z</time></trkpt><trkpt lat="42.264952452606146" lon="13.74386415363052"><ele>448.0</ele><time>2026-05-03T09:05:03Z</time></trkpt><trkpt lat="42.26504626980605" lon="13.743768585713612"><ele>448.0</ele><time>2026-05-03T09:05:04Z</time></trkpt><trkpt lat="42.2651491260327" lon="13.743691276869496"><ele>448.0</ele><time>2026-05-03T09:05:05Z</time></trkpt><trkpt lat="42.26525122257792" lon="13.743629646097286"><ele>447.99999999999994</ele><time>2026-05-03T09:05:06Z</time></trkpt><trkpt lat="42.26535318397752" lon="13.743579846722277"><ele>447.99999999999994</ele><time>2026-05-03T09:05:07Z</time></trkpt><trkpt lat="42.26545741424416" lon="13.743531892129068"><ele>448.0</ele><time>2026-05-03T09:05:08Z</time></trkpt><trkpt lat="42.26556373604482" lon="13.743503466826187"><ele>448.0</ele><time>2026-05-03T09:05:09Z</time></trkpt><trkpt lat="42.26567117296437" lon="13.743508654112068"><ele>448.0</ele><time>2026-05-03T09:05:10Z</time></trkpt><trkpt lat="42.26578406137627" lon="13.743524338182906"><ele>448.0</ele><time>2026-05-03T09:05:11Z</time></trkpt><trkpt lat="42.265905004184994" lon="13.743523148662222"><ele>448.0</ele><time>2026-05-03T09:05:12Z</time></trkpt><trkpt lat="42.266025449636984" lon="13.743509258644705"><ele>448.0</ele><time>2026-05-03T09:05:13Z</time></trkpt><trkpt lat="42.26613969578614" lon="13.743504290839232"><ele>448.0</ele><time>2026-05-03T09:05:14Z</time></trkpt><trkpt lat="42.26626192976018" lon="13.743522270245194"><ele>448.0</ele><time>2026-05-03T09:05:15Z</time></trkpt><trkpt lat="42.26638638787471" lon="13.743553607971126"><ele>448.0</ele><time>2026-05-03T09:05:16Z</time></trkpt><trkpt lat="42.26651329037396" lon="13.743587161385953"><ele>448.0</ele><time>2026-05-03T09:05:17Z</time></trkpt><trkpt lat="42.266626879674504" lon="13.743600153831524"><ele>447.59999999999997</ele><time>2026-05-03T09:05:18Z</time></trkpt><trkpt lat="42.266730017167816" lon="13.74359900235609"><ele>447.19999999999993</ele><time>2026-05-03T09:05:19Z</time></trkpt><trkpt lat="42.26682594234726" lon="13.743581371368915"><ele>446.8</ele><time>2026-05-03T09:05:20Z</time></trkpt><trkpt lat="42.26692567835419" lon="13.74355733133842"><ele>446.4</ele><time>2026-05-03T09:05:21Z</time></trkpt><trkpt lat="42.26701854750978" lon="13.743510865805304"><ele>446.0</ele><time>2026-05-03T09:05:22Z</time></trkpt><trkpt lat="42.26712248916268" lon="13.743440990892957"><ele>446.0</ele><time>2026-05-03T09:05:23Z</time></trkpt><trkpt lat="42.26723598601364" lon="13.743398688608055"><ele>446.0</ele><time>2026-05-03T09:05:24Z</time></trkpt><trkpt lat="42.26734117119521" lon="13.743380937638728"><ele>446.0</ele><time>2026-05-03T09:05:25Z</time></trkpt><trkpt lat="42.267431614693734" lon="13.743377658675207"><ele>446.0</ele><time>2026-05-03T09:05:26Z</time></trkpt><trkpt lat="42.267506733348654" lon="13.743370110511831"><ele>446.0</ele><time>2026-05-03T09:05:27Z</time></trkpt><trkpt lat="42.26757940459273" lon="13.74335767930711"><ele>444.6</ele><time>2026-05-03T09:05:28Z</time></trkpt><trkpt lat="42.26766212252583" lon="13.743369360179084"><ele>443.20000000000005</ele><time>2026-05-03T09:05:28.999Z</time></trkpt><trkpt lat="42.26775941253189" lon="13.743399443304078"><ele>441.79999999999995</ele><time>2026-05-03T09:05:29.999Z</time></trkpt><trkpt lat="42.267855139699144" lon="13.743443657747834"><ele>440.4</ele><time>2026-05-03T09:05:30.999Z</time></trkpt><trkpt lat="42.26794980186657" lon="13.743502402734396"><ele>439.0</ele><time>2026-05-03T09:05:31.999Z</time></trkpt><trkpt lat="42.2680338251602" lon="13.743553879811616"><ele>439.83333333333337</ele><time>2026-05-03T09:05:32.999Z</time></trkpt><trkpt lat="42.2681149514201" lon="13.743613573238981"><ele>440.6666666666667</ele><time>2026-05-03T09:05:33.999Z</time></trkpt><trkpt lat="42.268209096136914" lon="13.743675523409669"><ele>441.5</ele><time>2026-05-03T09:05:34.999Z</time></trkpt><trkpt lat="42.26829661947358" lon="13.743722038598168"><ele>442.33333333333337</ele><time>2026-05-03T09:05:35.999Z</time></trkpt><trkpt lat="42.26837378205322" lon="13.743748270712416"><ele>443.1666666666667</ele><time>2026-05-03T09:05:36.999Z</time></trkpt><trkpt lat="42.26844757360934" lon="13.743755089739892"><ele>444.0</ele><time>2026-05-03T09:05:37.999Z</time></trkpt><trkpt lat="42.2685457386896" lon="13.743765166376079"><ele>444.0</ele><time>2026-05-03T09:05:38.999Z</time></trkpt><trkpt lat="42.268620266254864" lon="13.74378128070459"><ele>444.0</ele><time>2026-05-03T09:05:39.999Z</time></trkpt><trkpt lat="42.268692747350414" lon="13.743795643326877"><ele>444.0</ele><time>2026-05-03T09:05:40.999Z</time></trkpt><trkpt lat="42.26876689442544" lon="13.74377302583507"><ele>444.0</ele><time>2026-05-03T09:05:41.999Z</time></trkpt><trkpt lat="42.268849007951005" lon="13.743709318021086"><ele>444.0</ele><time>2026-05-03T09:05:42.999Z</time></trkpt><trkpt lat="42.26891389420097" lon="13.743623406106417"><ele>444.0</ele><time>2026-05-03T09:05:43.999Z</time></trkpt><trkpt lat="42.2689702045591" lon="13.743554055340375"><ele>442.2</ele><time>2026-05-03T09:05:44.999Z</time></trkpt><trkpt lat="42.26902277701159" lon="13.74349476877297"><ele>440.4</ele><time>2026-05-03T09:05:45.999Z</time></trkpt><trkpt lat="42.26906478116297" lon="13.74334038083588"><ele>438.6</ele><time>2026-05-03T09:05:47.999Z</time></trkpt><trkpt lat="42.26910107172203" lon="13.743266515100737"><ele>436.8</ele><time>2026-05-03T09:05:48.999Z</time></trkpt><trkpt lat="42.26921710041794" lon="13.743212459156554"><ele>435.0</ele><time>2026-05-03T09:05:50.999Z</time></trkpt><trkpt lat="42.26929074198858" lon="13.74320202254921"><ele>435.0</ele><time>2026-05-03T09:05:51.999Z</time></trkpt><trkpt lat="42.26937539546156" lon="13.743195731624898"><ele>435.0</ele><time>2026-05-03T09:05:52.999Z</time></trkpt><trkpt lat="42.26945809796844" lon="13.74319773505744"><ele>435.0</ele><time>2026-05-03T09:05:53.999Z</time></trkpt><trkpt lat="42.269541592758166" lon="13.743220664526733"><ele>435.0</ele><time>2026-05-03T09:05:54.999Z</time></trkpt><trkpt lat="42.2696382982008" lon="13.743261882420564"><ele>435.0</ele><time>2026-05-03T09:05:55.999Z</time></trkpt><trkpt lat="42.26973649071268" lon="13.743312404719868"><ele>434.8</ele><time>2026-05-03T09:05:56.999Z</time></trkpt><trkpt lat="42.269829465000974" lon="13.743368902878283"><ele>434.6</ele><time>2026-05-03T09:05:57.999Z</time></trkpt><trkpt lat="42.26991301860374" lon="13.743423738629755"><ele>434.4</ele><time>2026-05-03T09:05:58.999Z</time></trkpt><trkpt lat="42.26998353989257" lon="13.743502251982257"><ele>434.2</ele><time>2026-05-03T09:05:59.999Z</time></trkpt><trkpt lat="42.270058513285" lon="13.743576493348169"><ele>434.0</ele><time>2026-05-03T09:06:00.999Z</time></trkpt><trkpt lat="42.27014509821642" lon="13.743645543912228"><ele>432.99999999999994</ele><time>2026-05-03T09:06:01.999Z</time></trkpt><trkpt lat="42.27023272573681" lon="13.743700722540712"><ele>432.0</ele><time>2026-05-03T09:06:02.999Z</time></trkpt><trkpt lat="42.27032363849978" lon="13.743757536952788"><ele>431.0</ele><time>2026-05-03T09:06:03.999Z</time></trkpt><trkpt lat="42.27040521414882" lon="13.743820141644383"><ele>430.0</ele><time>2026-05-03T09:06:04.999Z</time></trkpt><trkpt lat="42.27047603263793" lon="13.743866060369358"><ele>428.99999999999994</ele><time>2026-05-03T09:06:05.999Z</time></trkpt><trkpt lat="42.2705424000209" lon="13.743888363262734"><ele>428.0</ele><time>2026-05-03T09:06:06.999Z</time></trkpt><trkpt lat="42.27063569178376" lon="13.743909070716793"><ele>427.8333333333333</ele><time>2026-05-03T09:06:07.999Z</time></trkpt><trkpt lat="42.27072879240511" lon="13.743945508984783"><ele>427.66666666666663</ele><time>2026-05-03T09:06:09Z</time></trkpt><trkpt lat="42.27080418363789" lon="13.743984333334966"><ele>427.5</ele><time>2026-05-03T09:06:10Z</time></trkpt><trkpt lat="42.27086304174755" lon="13.744030740597724"><ele>427.33333333333337</ele><time>2026-05-03T09:06:11Z</time></trkpt><trkpt lat="42.270926985955576" lon="13.744132974825993"><ele>427.1666666666667</ele><time>2026-05-03T09:06:13Z</time></trkpt><trkpt lat="42.27094290744175" lon="13.744239755526825"><ele>427.0</ele><time>2026-05-03T09:06:16Z</time></trkpt><trkpt lat="42.27094462058827" lon="13.74433289017534"><ele>426.40000000000003</ele><time>2026-05-03T09:06:17Z</time></trkpt><trkpt lat="42.27096225192211" lon="13.744432731730459"><ele>425.80000000000007</ele><time>2026-05-03T09:06:18Z</time></trkpt><trkpt lat="42.270968501425116" lon="13.744550550743075"><ele>425.2</ele><time>2026-05-03T09:06:19Z</time></trkpt><trkpt lat="42.271017827843416" lon="13.744668634916321"><ele>424.6</ele><time>2026-05-03T09:06:20Z</time></trkpt><trkpt lat="42.27107704207685" lon="13.744783777503457"><ele>424.0</ele><time>2026-05-03T09:06:21Z</time></trkpt><trkpt lat="42.27114900461296" lon="13.744903245229553"><ele>424.0</ele><time>2026-05-03T09:06:22Z</time></trkpt><trkpt lat="42.27120521317915" lon="13.745055266043112"><ele>424.0</ele><time>2026-05-03T09:06:23Z</time></trkpt><trkpt lat="42.2712679423125" lon="13.745180526798778"><ele>424.0</ele><time>2026-05-03T09:06:24Z</time></trkpt><trkpt lat="42.27133492677274" lon="13.745274266716208"><ele>424.0</ele><time>2026-05-03T09:06:25Z</time></trkpt><trkpt lat="42.27136674688877" lon="13.745394756558529"><ele>424.0</ele><time>2026-05-03T09:06:26Z</time></trkpt><trkpt lat="42.27139834157812" lon="13.745511214223468"><ele>423.79999999999995</ele><time>2026-05-03T09:06:27Z</time></trkpt><trkpt lat="42.27141791454718" lon="13.745638100531401"><ele>423.59999999999997</ele><time>2026-05-03T09:06:28Z</time></trkpt><trkpt lat="42.27142893324916" lon="13.745756074471078"><ele>423.4</ele><time>2026-05-03T09:06:29Z</time></trkpt><trkpt lat="42.2714413869428" lon="13.745886409423564"><ele>423.2</ele><time>2026-05-03T09:06:30Z</time></trkpt><trkpt lat="42.271456585343415" lon="13.745998554010542"><ele>423.0</ele><time>2026-05-03T09:06:31Z</time></trkpt><trkpt lat="42.27148171502707" lon="13.746128705320531"><ele>423.0</ele><time>2026-05-03T09:06:32Z</time></trkpt><trkpt lat="42.27153109160824" lon="13.74624877761766"><ele>423.0</ele><time>2026-05-03T09:06:33Z</time></trkpt><trkpt lat="42.27156991114719" lon="13.74637537519782"><ele>423.0</ele><time>2026-05-03T09:06:34Z</time></trkpt><trkpt lat="42.27160969657817" lon="13.746525183703898"><ele>423.0</ele><time>2026-05-03T09:06:35Z</time></trkpt><trkpt lat="42.271677400226935" lon="13.746660247819351"><ele>423.0</ele><time>2026-05-03T09:06:36Z</time></trkpt><trkpt lat="42.27174550589266" lon="13.746812479101624"><ele>425.0</ele><time>2026-05-03T09:06:37Z</time></trkpt><trkpt lat="42.27183092250358" lon="13.74694397666729"><ele>427.0</ele><time>2026-05-03T09:06:38Z</time></trkpt><trkpt lat="42.271900175291776" lon="13.747074194043794"><ele>429.0</ele><time>2026-05-03T09:06:39Z</time></trkpt><trkpt lat="42.271960802148286" lon="13.747193670332313"><ele>431.0</ele><time>2026-05-03T09:06:40Z</time></trkpt><trkpt lat="42.27201877293287" lon="13.747304049635188"><ele>431.0</ele><time>2026-05-03T09:06:41Z</time></trkpt><trkpt lat="42.27208563899203" lon="13.747415486690299"><ele>431.0</ele><time>2026-05-03T09:06:42Z</time></trkpt><trkpt lat="42.272154722950276" lon="13.747540449558397"><ele>431.0</ele><time>2026-05-03T09:06:43Z</time></trkpt><trkpt lat="42.27221045434022" lon="13.747657447539275"><ele>431.0</ele><time>2026-05-03T09:06:44Z</time></trkpt><trkpt lat="42.272266797996565" lon="13.74774862699037"><ele>431.0</ele><time>2026-05-03T09:06:45Z</time></trkpt><trkpt lat="42.27231920249571" lon="13.747818181273868"><ele>430.0</ele><time>2026-05-03T09:06:46Z</time></trkpt><trkpt lat="42.27243186455036" lon="13.747895225259187"><ele>429.0</ele><time>2026-05-03T09:06:48Z</time></trkpt><trkpt lat="42.272509882143545" lon="13.747938749510123"><ele>428.0</ele><time>2026-05-03T09:06:49Z</time></trkpt><trkpt lat="42.27259144908158" lon="13.748036433864781"><ele>427.0</ele><time>2026-05-03T09:06:50Z</time></trkpt><trkpt lat="42.27267440364357" lon="13.748124657554373"><ele>426.0</ele><time>2026-05-03T09:06:51Z</time></trkpt><trkpt lat="42.27274663504092" lon="13.74820819879764"><ele>426.0</ele><time>2026-05-03T09:06:52Z</time></trkpt><trkpt lat="42.272823747655224" lon="13.748302799932654"><ele>426.0</ele><time>2026-05-03T09:06:53Z</time></trkpt><trkpt lat="42.27289872091051" lon="13.748406872231927"><ele>426.0</ele><time>2026-05-03T09:06:54Z</time></trkpt><trkpt lat="42.27297351101647" lon="13.74852275208672"><ele>426.0</ele><time>2026-05-03T09:06:55Z</time></trkpt><trkpt lat="42.273053046005174" lon="13.748618812986999"><ele>426.0</ele><time>2026-05-03T09:06:56Z</time></trkpt><trkpt lat="42.273132969131325" lon="13.748739149303734"><ele>424.6</ele><time>2026-05-03T09:06:57Z</time></trkpt><trkpt lat="42.273221351218886" lon="13.748843380724832"><ele>423.20000000000005</ele><time>2026-05-03T09:06:58Z</time></trkpt><trkpt lat="42.27330185409459" lon="13.748935952795657"><ele>421.79999999999995</ele><time>2026-05-03T09:06:59Z</time></trkpt><trkpt lat="42.273378406303834" lon="13.7490207695437"><ele>420.4</ele><time>2026-05-03T09:07:00Z</time></trkpt><trkpt lat="42.27346263591494" lon="13.749107325613652"><ele>419.0</ele><time>2026-05-03T09:07:01Z</time></trkpt><trkpt lat="42.27354850058419" lon="13.749192594787633"><ele>418.99999999999994</ele><time>2026-05-03T09:07:02Z</time></trkpt><trkpt lat="42.273644972699415" lon="13.749269277733086"><ele>419.0</ele><time>2026-05-03T09:07:03Z</time></trkpt><trkpt lat="42.27373985518175" lon="13.749327204274385"><ele>419.0</ele><time>2026-05-03T09:07:04Z</time></trkpt><trkpt lat="42.273819226727674" lon="13.749381202496714"><ele>419.0</ele><time>2026-05-03T09:07:05Z</time></trkpt><trkpt lat="42.27387072528747" lon="13.749449277965459"><ele>418.99999999999994</ele><time>2026-05-03T09:07:06Z</time></trkpt><trkpt lat="42.27391195372218" lon="13.74951794297625"><ele>419.0</ele><time>2026-05-03T09:07:07Z</time></trkpt><trkpt lat="42.273932263251574" lon="13.749655950378939"><ele>419.0</ele><time>2026-05-03T09:07:09Z</time></trkpt><trkpt lat="42.27388077508891" lon="13.749816177774445"><ele>419.0</ele><time>2026-05-03T09:07:11Z</time></trkpt><trkpt lat="42.27383842651934" lon="13.749932127655866"><ele>419.0</ele><time>2026-05-03T09:07:12Z</time></trkpt><trkpt lat="42.27380075484502" lon="13.750070759059996"><ele>419.0</ele><time>2026-05-03T09:07:13Z</time></trkpt><trkpt lat="42.27373618028297" lon="13.750186335323196"><ele>419.0</ele><time>2026-05-03T09:07:14Z</time></trkpt><trkpt lat="42.273692620005555" lon="13.750293505040915"><ele>419.0</ele><time>2026-05-03T09:07:15Z</time></trkpt><trkpt lat="42.273668255464514" lon="13.750398709172188"><ele>419.0</ele><time>2026-05-03T09:07:16Z</time></trkpt><trkpt lat="42.27363072461481" lon="13.750490085532562"><ele>419.0</ele><time>2026-05-03T09:07:17Z</time></trkpt><trkpt lat="42.27360611309884" lon="13.750653125934049"><ele>419.0</ele><time>2026-05-03T09:07:19Z</time></trkpt><trkpt lat="42.273603465434086" lon="13.750754673947252"><ele>419.0</ele><time>2026-05-03T09:07:20Z</time></trkpt><trkpt lat="42.27366357494323" lon="13.750871039307315"><ele>418.99999999999994</ele><time>2026-05-03T09:07:21Z</time></trkpt><trkpt lat="42.27371841578188" lon="13.75099344864887"><ele>419.0</ele><time>2026-05-03T09:07:22Z</time></trkpt><trkpt lat="42.27377821262537" lon="13.751106361891912"><ele>419.0</ele><time>2026-05-03T09:07:23Z</time></trkpt><trkpt lat="42.273841029032695" lon="13.751182832042025"><ele>419.0</ele><time>2026-05-03T09:07:24Z</time></trkpt><trkpt lat="42.273905701070824" lon="13.751222734313956"><ele>418.99999999999994</ele><time>2026-05-03T09:07:25Z</time></trkpt><trkpt lat="42.273984813405654" lon="13.751224670825247"><ele>419.0</ele><time>2026-05-03T09:07:26Z</time></trkpt><trkpt lat="42.27407346182866" lon="13.75119166461077"><ele>418.25</ele><time>2026-05-03T09:07:27Z</time></trkpt><trkpt lat="42.27417548408295" lon="13.75114134667462"><ele>417.5</ele><time>2026-05-03T09:07:28Z</time></trkpt><trkpt lat="42.27428520885221" lon="13.751081817771128"><ele>416.75</ele><time>2026-05-03T09:07:29Z</time></trkpt><trkpt lat="42.27440228367492" lon="13.75103152735579"><ele>416.0</ele><time>2026-05-03T09:07:30Z</time></trkpt><trkpt lat="42.274510526295785" lon="13.750995400675057"><ele>416.0</ele><time>2026-05-03T09:07:31Z</time></trkpt><trkpt lat="42.27462195925841" lon="13.750972936184569"><ele>416.0</ele><time>2026-05-03T09:07:32Z</time></trkpt><trkpt lat="42.27473293481868" lon="13.750952194024439"><ele>416.0</ele><time>2026-05-03T09:07:33Z</time></trkpt><trkpt lat="42.27485076576607" lon="13.750966816500997"><ele>416.0</ele><time>2026-05-03T09:07:34Z</time></trkpt><trkpt lat="42.27496960460182" lon="13.750970316659403"><ele>415.0</ele><time>2026-05-03T09:07:35Z</time></trkpt><trkpt lat="42.275089412957406" lon="13.750975937360352"><ele>414.0</ele><time>2026-05-03T09:07:36Z</time></trkpt><trkpt lat="42.27521363623443" lon="13.750984415771761"><ele>413.0</ele><time>2026-05-03T09:07:37Z</time></trkpt><trkpt lat="42.27534372034545" lon="13.750994414776965"><ele>412.0</ele><time>2026-05-03T09:07:38Z</time></trkpt><trkpt lat="42.27546945836937" lon="13.751004079717584"><ele>412.0</ele><time>2026-05-03T09:07:39Z</time></trkpt><trkpt lat="42.27558274310146" lon="13.750993883387798"><ele>412.0</ele><time>2026-05-03T09:07:40Z</time></trkpt><trkpt lat="42.275693115394816" lon="13.75101902859152"><ele>412.0</ele><time>2026-05-03T09:07:41Z</time></trkpt><trkpt lat="42.27579587953317" lon="13.751002396142953"><ele>412.0</ele><time>2026-05-03T09:07:42Z</time></trkpt><trkpt lat="42.27589753216979" lon="13.75101365078236"><ele>412.0</ele><time>2026-05-03T09:07:42.999Z</time></trkpt><trkpt lat="42.27598780992378" lon="13.75105241523116"><ele>410.83333333333337</ele><time>2026-05-03T09:07:43.999Z</time></trkpt><trkpt lat="42.276068863189906" lon="13.751098035175938"><ele>409.6666666666667</ele><time>2026-05-03T09:07:44.999Z</time></trkpt><trkpt lat="42.2761432872291" lon="13.751149879813067"><ele>408.5</ele><time>2026-05-03T09:07:45.999Z</time></trkpt><trkpt lat="42.27618522559348" lon="13.751232029366031"><ele>407.33333333333337</ele><time>2026-05-03T09:07:46.999Z</time></trkpt><trkpt lat="42.2762557263302" lon="13.751328727954391"><ele>406.1666666666667</ele><time>2026-05-03T09:07:47.999Z</time></trkpt><trkpt lat="42.276322548804224" lon="13.75141801839767"><ele>405.0</ele><time>2026-05-03T09:07:48.999Z</time></trkpt><trkpt lat="42.276398280137535" lon="13.751510902671333"><ele>404.4</ele><time>2026-05-03T09:07:49.999Z</time></trkpt><trkpt lat="42.27649124913528" lon="13.751567768781458"><ele>403.8</ele><time>2026-05-03T09:07:50.999Z</time></trkpt><trkpt lat="42.276576454406104" lon="13.751619178180606"><ele>403.20000000000005</ele><time>2026-05-03T09:07:51.999Z</time></trkpt><trkpt lat="42.27667389908552" lon="13.751660233419704"><ele>402.6</ele><time>2026-05-03T09:07:52.999Z</time></trkpt><trkpt lat="42.27678643227957" lon="13.751693613144058"><ele>402.0</ele><time>2026-05-03T09:07:53.999Z</time></trkpt><trkpt lat="42.27690935251032" lon="13.75172268606935"><ele>402.0</ele><time>2026-05-03T09:07:54.999Z</time></trkpt><trkpt lat="42.277028364771326" lon="13.75176935225607"><ele>402.0</ele><time>2026-05-03T09:07:55.999Z</time></trkpt><trkpt lat="42.27714002484479" lon="13.751774713384778"><ele>402.0</ele><time>2026-05-03T09:07:56.999Z</time></trkpt><trkpt lat="42.277247604067085" lon="13.751789449786271"><ele>402.0</ele><time>2026-05-03T09:07:57.999Z</time></trkpt><trkpt lat="42.277333279672185" lon="13.751815778694503"><ele>402.0</ele><time>2026-05-03T09:07:58.999Z</time></trkpt><trkpt lat="42.277402518472215" lon="13.7518315997318"><ele>401.75</ele><time>2026-05-03T09:07:59.999Z</time></trkpt><trkpt lat="42.27750369105377" lon="13.75186073222893"><ele>401.5</ele><time>2026-05-03T09:08:01.999Z</time></trkpt><trkpt lat="42.27757683092266" lon="13.751959632479222"><ele>401.25</ele><time>2026-05-03T09:08:03.999Z</time></trkpt><trkpt lat="42.277719271793025" lon="13.751997633587283"><ele>401.0</ele><time>2026-05-03T09:08:05.999Z</time></trkpt><trkpt lat="42.27781935984296" lon="13.752032570465637"><ele>401.25</ele><time>2026-05-03T09:08:06.999Z</time></trkpt><trkpt lat="42.277924987176235" lon="13.752070068662093"><ele>401.5</ele><time>2026-05-03T09:08:07.999Z</time></trkpt><trkpt lat="42.2780410968884" lon="13.752115249510458"><ele>401.75</ele><time>2026-05-03T09:08:08.999Z</time></trkpt><trkpt lat="42.27816485525067" lon="13.752156372257641"><ele>402.0</ele><time>2026-05-03T09:08:09.999Z</time></trkpt><trkpt lat="42.27828459920248" lon="13.752185083949279"><ele>402.0</ele><time>2026-05-03T09:08:10.999Z</time></trkpt><trkpt lat="42.2784112252914" lon="13.75220168364255"><ele>402.0</ele><time>2026-05-03T09:08:11.999Z</time></trkpt><trkpt lat="42.27855102769443" lon="13.752207347811368"><ele>402.0</ele><time>2026-05-03T09:08:12.999Z</time></trkpt><trkpt lat="42.27870068732206" lon="13.752205807934258"><ele>402.0</ele><time>2026-05-03T09:08:13.999Z</time></trkpt><trkpt lat="42.27884817387896" lon="13.752200787627974"><ele>400.66666666666663</ele><time>2026-05-03T09:08:15Z</time></trkpt><trkpt lat="42.27900091046744" lon="13.752198576012795"><ele>399.3333333333333</ele><time>2026-05-03T09:08:16Z</time></trkpt><trkpt lat="42.27915253156407" lon="13.752201561688326"><ele>398.0</ele><time>2026-05-03T09:08:17Z</time></trkpt><trkpt lat="42.27930361986545" lon="13.752201511970968"><ele>398.0</ele><time>2026-05-03T09:08:18Z</time></trkpt><trkpt lat="42.27945244827967" lon="13.75219521828982"><ele>398.0</ele><time>2026-05-03T09:08:19Z</time></trkpt><trkpt lat="42.279606272528795" lon="13.752185286721563"><ele>398.0</ele><time>2026-05-03T09:08:20Z</time></trkpt><trkpt lat="42.279760921476694" lon="13.752169877777158"><ele>395.66666666666663</ele><time>2026-05-03T09:08:21Z</time></trkpt><trkpt lat="42.27991840875188" lon="13.752156592233128"><ele>393.33333333333337</ele><time>2026-05-03T09:08:22Z</time></trkpt><trkpt lat="42.2800690334937" lon="13.752158141559084"><ele>391.0</ele><time>2026-05-03T09:08:23Z</time></trkpt><trkpt lat="42.28021551770203" lon="13.752175747514773"><ele>391.0</ele><time>2026-05-03T09:08:24Z</time></trkpt><trkpt lat="42.280358600621916" lon="13.752204009988516"><ele>391.0</ele><time>2026-05-03T09:08:25Z</time></trkpt><trkpt lat="42.28050170803777" lon="13.752248020485288"><ele>391.0</ele><time>2026-05-03T09:08:26Z</time></trkpt><trkpt lat="42.28064257417014" lon="13.752309203952503"><ele>391.0</ele><time>2026-05-03T09:08:27Z</time></trkpt><trkpt lat="42.28077569719788" lon="13.752409438108868"><ele>390.33333333333337</ele><time>2026-05-03T09:08:28Z</time></trkpt><trkpt lat="42.280906762617825" lon="13.752516708849825"><ele>389.66666666666663</ele><time>2026-05-03T09:08:29Z</time></trkpt><trkpt lat="42.281029493000524" lon="13.752625434264866"><ele>389.0</ele><time>2026-05-03T09:08:30Z</time></trkpt><trkpt lat="42.28115284989871" lon="13.752745645241792"><ele>389.0</ele><time>2026-05-03T09:08:31Z</time></trkpt><trkpt lat="42.28126731536133" lon="13.752876038223908"><ele>389.0</ele><time>2026-05-03T09:08:32Z</time></trkpt><trkpt lat="42.28137989530486" lon="13.753005504317505"><ele>389.0</ele><time>2026-05-03T09:08:33Z</time></trkpt><trkpt lat="42.28149252022874" lon="13.753137914697488"><ele>389.0</ele><time>2026-05-03T09:08:34Z</time></trkpt><trkpt lat="42.281605823373575" lon="13.753271122445193"><ele>389.0</ele><time>2026-05-03T09:08:35Z</time></trkpt><trkpt lat="42.2817203235754" lon="13.753398710605298"><ele>389.0</ele><time>2026-05-03T09:08:36Z</time></trkpt><trkpt lat="42.281838950837596" lon="13.753509032264438"><ele>389.0</ele><time>2026-05-03T09:08:37Z</time></trkpt><trkpt lat="42.28195201789174" lon="13.753636409807788"><ele>389.0</ele><time>2026-05-03T09:08:38Z</time></trkpt><trkpt lat="42.28207486055434" lon="13.753746140193863"><ele>389.5</ele><time>2026-05-03T09:08:39Z</time></trkpt><trkpt lat="42.28220187669684" lon="13.753840293041568"><ele>390.0</ele><time>2026-05-03T09:08:40Z</time></trkpt><trkpt lat="42.2823339272179" lon="13.75392866800862"><ele>390.5</ele><time>2026-05-03T09:08:41Z</time></trkpt><trkpt lat="42.28246543535343" lon="13.754015270859814"><ele>391.0</ele><time>2026-05-03T09:08:42Z</time></trkpt><trkpt lat="42.28259503295294" lon="13.754098885758566"><ele>391.0</ele><time>2026-05-03T09:08:43Z</time></trkpt><trkpt lat="42.282726870100596" lon="13.754175732475383"><ele>391.0</ele><time>2026-05-03T09:08:44Z</time></trkpt><trkpt lat="42.28285962664688" lon="13.754252406074631"><ele>391.0</ele><time>2026-05-03T09:08:45Z</time></trkpt><trkpt lat="42.282991051360156" lon="13.754328159359394"><ele>391.0</ele><time>2026-05-03T09:08:46Z</time></trkpt><trkpt lat="42.28310692775545" lon="13.754397677169317"><ele>390.20000000000005</ele><time>2026-05-03T09:08:47Z</time></trkpt><trkpt lat="42.283219170206564" lon="13.75444737169871"><ele>389.40000000000003</ele><time>2026-05-03T09:08:48Z</time></trkpt><trkpt lat="42.28330220931545" lon="13.754507842635952"><ele>388.6</ele><time>2026-05-03T09:08:49Z</time></trkpt><trkpt lat="42.28338043574455" lon="13.754527970702604"><ele>387.8</ele><time>2026-05-03T09:08:50Z</time></trkpt><trkpt lat="42.28344298398215" lon="13.75454945514836"><ele>387.0</ele><time>2026-05-03T09:08:51Z</time></trkpt><trkpt lat="42.28354658438985" lon="13.7545736182179"><ele>387.0</ele><time>2026-05-03T09:08:53Z</time></trkpt><trkpt lat="42.28362600196021" lon="13.754547529082094"><ele>387.0</ele><time>2026-05-03T09:08:56Z</time></trkpt><trkpt lat="42.28362215945455" lon="13.754412337162996"><ele>387.0</ele><time>2026-05-03T09:08:57Z</time></trkpt><trkpt lat="42.283597066668726" lon="13.754307659838174"><ele>387.0</ele><time>2026-05-03T09:08:58Z</time></trkpt><trkpt lat="42.283565900792084" lon="13.754197279681282"><ele>387.0</ele><time>2026-05-03T09:08:59Z</time></trkpt><trkpt lat="42.28354030368512" lon="13.754061046410841"><ele>386.5</ele><time>2026-05-03T09:09:00Z</time></trkpt><trkpt lat="42.28352483620367" lon="13.753911479794656"><ele>386.0</ele><time>2026-05-03T09:09:01Z</time></trkpt><trkpt lat="42.283504132159806" lon="13.753754353404647"><ele>385.5</ele><time>2026-05-03T09:09:02Z</time></trkpt><trkpt lat="42.2834788390624" lon="13.75359637150468"><ele>385.0</ele><time>2026-05-03T09:09:03Z</time></trkpt><trkpt lat="42.28345239079153" lon="13.75344472506244"><ele>385.0</ele><time>2026-05-03T09:09:04Z</time></trkpt><trkpt lat="42.283424188095076" lon="13.753282166347832"><ele>385.0</ele><time>2026-05-03T09:09:05Z</time></trkpt><trkpt lat="42.283416075056614" lon="13.753139584637072"><ele>385.0</ele><time>2026-05-03T09:09:06Z</time></trkpt><trkpt lat="42.28340223498056" lon="13.752986243791423"><ele>385.0</ele><time>2026-05-03T09:09:07Z</time></trkpt><trkpt lat="42.28339215568789" lon="13.752837951628246"><ele>385.2</ele><time>2026-05-03T09:09:08Z</time></trkpt><trkpt lat="42.28338639303809" lon="13.752690727386351"><ele>385.4</ele><time>2026-05-03T09:09:09Z</time></trkpt><trkpt lat="42.283382868553254" lon="13.752555471554743"><ele>385.6</ele><time>2026-05-03T09:09:10Z</time></trkpt><trkpt lat="42.28338425837116" lon="13.752452848701036"><ele>385.8</ele><time>2026-05-03T09:09:11Z</time></trkpt><trkpt lat="42.28341813470377" lon="13.752336111976495"><ele>386.0</ele><time>2026-05-03T09:09:13Z</time></trkpt><trkpt lat="42.28340577836629" lon="13.752219488647428"><ele>386.0</ele><time>2026-05-03T09:09:14Z</time></trkpt><trkpt lat="42.28351790201684" lon="13.752233778329618"><ele>386.0</ele><time>2026-05-03T09:09:15Z</time></trkpt><trkpt lat="42.28361048550281" lon="13.752247566420072"><ele>386.0</ele><time>2026-05-03T09:09:16Z</time></trkpt><trkpt lat="42.28371782885603" lon="13.752247844311102"><ele>386.0</ele><time>2026-05-03T09:09:17Z</time></trkpt><trkpt lat="42.28383020074528" lon="13.752278478453052"><ele>386.0</ele><time>2026-05-03T09:09:18Z</time></trkpt><trkpt lat="42.283951467588" lon="13.752310247677018"><ele>385.5</ele><time>2026-05-03T09:09:19Z</time></trkpt><trkpt lat="42.284083276408815" lon="13.752344661396684"><ele>385.0</ele><time>2026-05-03T09:09:20Z</time></trkpt><trkpt lat="42.28422085693938" lon="13.752377905112859"><ele>384.5</ele><time>2026-05-03T09:09:21Z</time></trkpt><trkpt lat="42.28435450300409" lon="13.752420930998428"><ele>384.0</ele><time>2026-05-03T09:09:22Z</time></trkpt><trkpt lat="42.284494625550685" lon="13.752456722602322"><ele>384.0</ele><time>2026-05-03T09:09:23Z</time></trkpt><trkpt lat="42.28463161142878" lon="13.75252032118475"><ele>384.0</ele><time>2026-05-03T09:09:24Z</time></trkpt><trkpt lat="42.284739925736034" lon="13.752559799634346"><ele>384.0</ele><time>2026-05-03T09:09:25Z</time></trkpt><trkpt lat="42.28482568511392" lon="13.752645662045726"><ele>384.0</ele><time>2026-05-03T09:09:26Z</time></trkpt><trkpt lat="42.28492701352004" lon="13.752686706836462"><ele>383.5</ele><time>2026-05-03T09:09:27Z</time></trkpt><trkpt lat="42.28505346598463" lon="13.752735525967578"><ele>383.0</ele><time>2026-05-03T09:09:28Z</time></trkpt><trkpt lat="42.28516312707523" lon="13.752791851864135"><ele>382.5</ele><time>2026-05-03T09:09:29Z</time></trkpt><trkpt lat="42.28527583080805" lon="13.752841693259727"><ele>382.0</ele><time>2026-05-03T09:09:30Z</time></trkpt><trkpt lat="42.28539020062906" lon="13.75288704953568"><ele>382.0</ele><time>2026-05-03T09:09:31Z</time></trkpt><trkpt lat="42.28549380479083" lon="13.752922584952888"><ele>382.0</ele><time>2026-05-03T09:09:32Z</time></trkpt><trkpt lat="42.28559042094912" lon="13.752955498780647"><ele>382.0</ele><time>2026-05-03T09:09:33Z</time></trkpt><trkpt lat="42.28568271391744" lon="13.752987347038658"><ele>382.0</ele><time>2026-05-03T09:09:34Z</time></trkpt><trkpt lat="42.28578349860543" lon="13.753024088203953"><ele>382.0</ele><time>2026-05-03T09:09:35Z</time></trkpt><trkpt lat="42.28587324349856" lon="13.753055425771448"><ele>381.7142857142857</ele><time>2026-05-03T09:09:36Z</time></trkpt><trkpt lat="42.28595390271825" lon="13.753078877308335"><ele>381.4285714285714</ele><time>2026-05-03T09:09:37Z</time></trkpt><trkpt lat="42.28602261957294" lon="13.753098453506933"><ele>381.1428571428571</ele><time>2026-05-03T09:09:38Z</time></trkpt><trkpt lat="42.28608710091025" lon="13.753114375177379"><ele>380.8571428571429</ele><time>2026-05-03T09:09:39Z</time></trkpt><trkpt lat="42.28616136651969" lon="13.753153320931258"><ele>380.57142857142856</ele><time>2026-05-03T09:09:41Z</time></trkpt><trkpt lat="42.28622618507789" lon="13.753170083348058"><ele>380.2857142857143</ele><time>2026-05-03T09:09:43Z</time></trkpt><trkpt lat="42.28629911557965" lon="13.753185930353336"><ele>380.0</ele><time>2026-05-03T09:09:44Z</time></trkpt><trkpt lat="42.286392204717565" lon="13.753207983989913"><ele>379.5</ele><time>2026-05-03T09:09:45Z</time></trkpt><trkpt lat="42.286501741942956" lon="13.753221154499036"><ele>379.0</ele><time>2026-05-03T09:09:46Z</time></trkpt><trkpt lat="42.28662017251448" lon="13.753261364024983"><ele>378.5</ele><time>2026-05-03T09:09:47Z</time></trkpt><trkpt lat="42.286747236833044" lon="13.753293885517751"><ele>378.0</ele><time>2026-05-03T09:09:48Z</time></trkpt><trkpt lat="42.28688109064582" lon="13.753317284141822"><ele>378.0</ele><time>2026-05-03T09:09:49Z</time></trkpt><trkpt lat="42.28700584922191" lon="13.753369560543376"><ele>378.0</ele><time>2026-05-03T09:09:50Z</time></trkpt><trkpt lat="42.28713114385836" lon="13.753400606019108"><ele>378.0</ele><time>2026-05-03T09:09:51Z</time></trkpt><trkpt lat="42.287246672817446" lon="13.753479317612992"><ele>378.0</ele><time>2026-05-03T09:09:52Z</time></trkpt><trkpt lat="42.28736450322339" lon="13.753551235272944"><ele>377.4</ele><time>2026-05-03T09:09:53Z</time></trkpt><trkpt lat="42.28747659089026" lon="13.753621085650238"><ele>376.79999999999995</ele><time>2026-05-03T09:09:54Z</time></trkpt><trkpt lat="42.287576565949124" lon="13.753681820507541"><ele>376.2</ele><time>2026-05-03T09:09:55Z</time></trkpt><trkpt lat="42.28766362053035" lon="13.75374400311487"><ele>375.6</ele><time>2026-05-03T09:09:56Z</time></trkpt><trkpt lat="42.287734893598284" lon="13.753791454822347"><ele>375.0</ele><time>2026-05-03T09:09:57Z</time></trkpt><trkpt lat="42.287801134541" lon="13.753833310030199"><ele>375.0</ele><time>2026-05-03T09:09:57.999Z</time></trkpt><trkpt lat="42.28788181171958" lon="13.753805680839834"><ele>375.0</ele><time>2026-05-03T09:09:58.999Z</time></trkpt><trkpt lat="42.287948705275035" lon="13.753699977058131"><ele>375.0</ele><time>2026-05-03T09:09:59.999Z</time></trkpt><trkpt lat="42.28800925320104" lon="13.753592225884173"><ele>375.0</ele><time>2026-05-03T09:10:00.999Z</time></trkpt><trkpt lat="42.28806597414701" lon="13.753488028631521"><ele>375.0</ele><time>2026-05-03T09:10:01.999Z</time></trkpt><trkpt lat="42.28815757671702" lon="13.753433303804478"><ele>374.75</ele><time>2026-05-03T09:10:02.999Z</time></trkpt><trkpt lat="42.28821814223302" lon="13.753287407577753"><ele>374.5</ele><time>2026-05-03T09:10:03.999Z</time></trkpt><trkpt lat="42.28829296018935" lon="13.753186333960011"><ele>374.25</ele><time>2026-05-03T09:10:04.999Z</time></trkpt><trkpt lat="42.28837334004738" lon="13.753074315309277"><ele>374.0</ele><time>2026-05-03T09:10:05.999Z</time></trkpt><trkpt lat="42.288446812583274" lon="13.752955668773819"><ele>374.0</ele><time>2026-05-03T09:10:06.999Z</time></trkpt><trkpt lat="42.28852399237871" lon="13.75282854953152"><ele>374.0</ele><time>2026-05-03T09:10:07.999Z</time></trkpt><trkpt lat="42.288601897699" lon="13.752701940291754"><ele>374.0</ele><time>2026-05-03T09:10:08.999Z</time></trkpt><trkpt lat="42.288676391104495" lon="13.75257596094877"><ele>374.0</ele><time>2026-05-03T09:10:09.999Z</time></trkpt><trkpt lat="42.288754430431325" lon="13.752441668871251"><ele>374.75</ele><time>2026-05-03T09:10:10.999Z</time></trkpt><trkpt lat="42.288826437100724" lon="13.752300754896593"><ele>375.5</ele><time>2026-05-03T09:10:11.999Z</time></trkpt><trkpt lat="42.2888957912349" lon="13.752154865801003"><ele>376.25</ele><time>2026-05-03T09:10:12.999Z</time></trkpt><trkpt lat="42.28896090207814" lon="13.752010513800442"><ele>377.0</ele><time>2026-05-03T09:10:13.999Z</time></trkpt><trkpt lat="42.28902935869365" lon="13.75186750129827"><ele>378.25</ele><time>2026-05-03T09:10:14.999Z</time></trkpt><trkpt lat="42.28910665151118" lon="13.751737913407835"><ele>379.5</ele><time>2026-05-03T09:10:15.999Z</time></trkpt><trkpt lat="42.28915573390876" lon="13.751583141430288"><ele>380.75</ele><time>2026-05-03T09:10:16.999Z</time></trkpt><trkpt lat="42.289218675232576" lon="13.751430987322843"><ele>382.0</ele><time>2026-05-03T09:10:17.999Z</time></trkpt><trkpt lat="42.28927727440955" lon="13.751277232646071"><ele>382.0</ele><time>2026-05-03T09:10:18.999Z</time></trkpt><trkpt lat="42.28933451438421" lon="13.751119963904086"><ele>382.0</ele><time>2026-05-03T09:10:20Z</time></trkpt><trkpt lat="42.289398301503866" lon="13.750972815225644"><ele>382.0</ele><time>2026-05-03T09:10:21Z</time></trkpt><trkpt lat="42.289451656770446" lon="13.75083504048068"><ele>382.0</ele><time>2026-05-03T09:10:22Z</time></trkpt><trkpt lat="42.28950386083815" lon="13.750692106859155"><ele>382.0</ele><time>2026-05-03T09:10:23Z</time></trkpt><trkpt lat="42.289569143130926" lon="13.750554473607137"><ele>382.0</ele><time>2026-05-03T09:10:24Z</time></trkpt><trkpt lat="42.28964059273282" lon="13.750427954348565"><ele>382.0</ele><time>2026-05-03T09:10:25Z</time></trkpt><trkpt lat="42.28972447341017" lon="13.750307109166092"><ele>382.0</ele><time>2026-05-03T09:10:26Z</time></trkpt><trkpt lat="42.289807926732536" lon="13.750177163872493"><ele>381.75</ele><time>2026-05-03T09:10:27Z</time></trkpt><trkpt lat="42.28988857228591" lon="13.750039600170956"><ele>381.5</ele><time>2026-05-03T09:10:28Z</time></trkpt><trkpt lat="42.289956502386936" lon="13.749886456958953"><ele>381.25</ele><time>2026-05-03T09:10:29Z</time></trkpt><trkpt lat="42.29002056910294" lon="13.749735638619075"><ele>381.0</ele><time>2026-05-03T09:10:30Z</time></trkpt><trkpt lat="42.29007856459565" lon="13.749594480246945"><ele>381.0</ele><time>2026-05-03T09:10:31Z</time></trkpt><trkpt lat="42.29012958763604" lon="13.749459634017239"><ele>381.0</ele><time>2026-05-03T09:10:32Z</time></trkpt><trkpt lat="42.290191343241986" lon="13.749319859872253"><ele>381.0</ele><time>2026-05-03T09:10:33Z</time></trkpt><trkpt lat="42.29027003456221" lon="13.74919841120389"><ele>381.0</ele><time>2026-05-03T09:10:34Z</time></trkpt><trkpt lat="42.29034006103078" lon="13.749057368668886"><ele>381.0</ele><time>2026-05-03T09:10:35Z</time></trkpt><trkpt lat="42.29043090049626" lon="13.748933318035704"><ele>381.0</ele><time>2026-05-03T09:10:36Z</time></trkpt><trkpt lat="42.2905160847564" lon="13.748804278876758"><ele>381.0</ele><time>2026-05-03T09:10:37Z</time></trkpt><trkpt lat="42.29059100632632" lon="13.74867922650216"><ele>381.0</ele><time>2026-05-03T09:10:38Z</time></trkpt><trkpt lat="42.29066346223809" lon="13.748557239569159"><ele>381.25</ele><time>2026-05-03T09:10:39Z</time></trkpt><trkpt lat="42.290730760928426" lon="13.748436692136375"><ele>381.5</ele><time>2026-05-03T09:10:40Z</time></trkpt><trkpt lat="42.290804739127346" lon="13.748316385501601"><ele>381.75</ele><time>2026-05-03T09:10:41Z</time></trkpt><trkpt lat="42.2908863422193" lon="13.748189094266948"><ele>382.0</ele><time>2026-05-03T09:10:42Z</time></trkpt><trkpt lat="42.290964207863276" lon="13.74804561597813"><ele>382.0</ele><time>2026-05-03T09:10:43Z</time></trkpt><trkpt lat="42.291041134580965" lon="13.747905015039969"><ele>382.0</ele><time>2026-05-03T09:10:44Z</time></trkpt><trkpt lat="42.29112128174943" lon="13.747774100460518"><ele>382.0</ele><time>2026-05-03T09:10:45Z</time></trkpt><trkpt lat="42.29119448129421" lon="13.747645150926656"><ele>382.0</ele><time>2026-05-03T09:10:46Z</time></trkpt><trkpt lat="42.291261257207715" lon="13.747516042423394"><ele>382.40000000000003</ele><time>2026-05-03T09:10:47Z</time></trkpt><trkpt lat="42.29132641994776" lon="13.747389686850772"><ele>382.8</ele><time>2026-05-03T09:10:48Z</time></trkpt><trkpt lat="42.291389623972776" lon="13.747268985097405"><ele>383.2</ele><time>2026-05-03T09:10:49Z</time></trkpt><trkpt lat="42.2914545857604" lon="13.747172464714126"><ele>383.6</ele><time>2026-05-03T09:10:50Z</time></trkpt><trkpt lat="42.29152028409968" lon="13.747089491665957"><ele>384.0</ele><time>2026-05-03T09:10:51Z</time></trkpt><trkpt lat="42.29158159898424" lon="13.746999222603819"><ele>384.1666666666667</ele><time>2026-05-03T09:10:52Z</time></trkpt><trkpt lat="42.291636032607116" lon="13.746894855622507"><ele>384.33333333333337</ele><time>2026-05-03T09:10:53Z</time></trkpt><trkpt lat="42.29168015511857" lon="13.746801177335305"><ele>384.5</ele><time>2026-05-03T09:10:54Z</time></trkpt><trkpt lat="42.29171590414063" lon="13.746720578011102"><ele>384.6666666666667</ele><time>2026-05-03T09:10:55Z</time></trkpt><trkpt lat="42.29175734278448" lon="13.746653243863413"><ele>384.83333333333337</ele><time>2026-05-03T09:10:56Z</time></trkpt><trkpt lat="42.291850764020545" lon="13.746567671083666"><ele>385.0</ele><time>2026-05-03T09:10:58Z</time></trkpt><trkpt lat="42.291933119683435" lon="13.746660389407644"><ele>385.4</ele><time>2026-05-03T09:11:00Z</time></trkpt><trkpt lat="42.29200739714191" lon="13.74670496626126"><ele>385.8</ele><time>2026-05-03T09:11:01Z</time></trkpt><trkpt lat="42.29209006167503" lon="13.746783587199358"><ele>386.20000000000005</ele><time>2026-05-03T09:11:02Z</time></trkpt><trkpt lat="42.29219200074939" lon="13.746856100890604"><ele>386.6</ele><time>2026-05-03T09:11:03Z</time></trkpt><trkpt lat="42.29230547391478" lon="13.746933385275346"><ele>387.0</ele><time>2026-05-03T09:11:04Z</time></trkpt><trkpt lat="42.292422923207134" lon="13.747014881337062"><ele>385.75</ele><time>2026-05-03T09:11:05Z</time></trkpt><trkpt lat="42.29254123628983" lon="13.747090589218514"><ele>384.5</ele><time>2026-05-03T09:11:06Z</time></trkpt><trkpt lat="42.29265114552628" lon="13.747158128775043"><ele>383.25</ele><time>2026-05-03T09:11:07Z</time></trkpt><trkpt lat="42.29276370111853" lon="13.747215740555855"><ele>382.0</ele><time>2026-05-03T09:11:08Z</time></trkpt><trkpt lat="42.29288194567913" lon="13.747271383579262"><ele>382.0</ele><time>2026-05-03T09:11:09Z</time></trkpt><trkpt lat="42.29300654643064" lon="13.747319177103869"><ele>382.0</ele><time>2026-05-03T09:11:10Z</time></trkpt><trkpt lat="42.2931212886823" lon="13.747369487987873"><ele>382.0</ele><time>2026-05-03T09:11:11Z</time></trkpt><trkpt lat="42.29322386132691" lon="13.747422701800055"><ele>382.0</ele><time>2026-05-03T09:11:12Z</time></trkpt><trkpt lat="42.293326563024976" lon="13.747478512244497"><ele>382.0</ele><time>2026-05-03T09:11:13Z</time></trkpt><trkpt lat="42.293429339903064" lon="13.747555067524832"><ele>382.0</ele><time>2026-05-03T09:11:14Z</time></trkpt><trkpt lat="42.29354611107802" lon="13.747640868580485"><ele>382.0</ele><time>2026-05-03T09:11:15Z</time></trkpt><trkpt lat="42.29367116552998" lon="13.747715062337697"><ele>382.0</ele><time>2026-05-03T09:11:16Z</time></trkpt><trkpt lat="42.29379802574162" lon="13.747786102904893"><ele>383.25</ele><time>2026-05-03T09:11:17Z</time></trkpt><trkpt lat="42.293927403299016" lon="13.747852514881524"><ele>384.5</ele><time>2026-05-03T09:11:18Z</time></trkpt><trkpt lat="42.29405664075693" lon="13.74790822609589"><ele>385.75</ele><time>2026-05-03T09:11:19Z</time></trkpt><trkpt lat="42.29417932750134" lon="13.747980700123097"><ele>387.0</ele><time>2026-05-03T09:11:20Z</time></trkpt><trkpt lat="42.294298622069185" lon="13.748052990536323"><ele>387.0</ele><time>2026-05-03T09:11:21Z</time></trkpt><trkpt lat="42.29441765879994" lon="13.74812123289162"><ele>387.0</ele><time>2026-05-03T09:11:22Z</time></trkpt><trkpt lat="42.2945339899997" lon="13.74818947158256"><ele>387.0</ele><time>2026-05-03T09:11:23Z</time></trkpt><trkpt lat="42.29465542316116" lon="13.748259169449478"><ele>387.0</ele><time>2026-05-03T09:11:24Z</time></trkpt><trkpt lat="42.29477582293154" lon="13.748335750412204"><ele>388.6</ele><time>2026-05-03T09:11:25Z</time></trkpt><trkpt lat="42.29489421411906" lon="13.748415424823198"><ele>390.20000000000005</ele><time>2026-05-03T09:11:26Z</time></trkpt><trkpt lat="42.294996233026055" lon="13.748478464152374"><ele>391.8</ele><time>2026-05-03T09:11:27Z</time></trkpt><trkpt lat="42.295076077753336" lon="13.748530210456202"><ele>393.4</ele><time>2026-05-03T09:11:28Z</time></trkpt><trkpt lat="42.29512043321888" lon="13.748608455316717"><ele>395.0</ele><time>2026-05-03T09:11:29Z</time></trkpt><trkpt lat="42.295173459759596" lon="13.748681992511493"><ele>395.4</ele><time>2026-05-03T09:11:34Z</time></trkpt><trkpt lat="42.29529730151339" lon="13.748751220762726"><ele>395.8</ele><time>2026-05-03T09:11:36Z</time></trkpt><trkpt lat="42.295374729284326" lon="13.748790730998751"><ele>396.20000000000005</ele><time>2026-05-03T09:11:37Z</time></trkpt><trkpt lat="42.29546958727675" lon="13.748829296247495"><ele>396.6</ele><time>2026-05-03T09:11:38Z</time></trkpt><trkpt lat="42.29557963069865" lon="13.748871504498247"><ele>397.0</ele><time>2026-05-03T09:11:39Z</time></trkpt><trkpt lat="42.2956834379576" lon="13.748921745993025"><ele>399.40000000000003</ele><time>2026-05-03T09:11:40Z</time></trkpt><trkpt lat="42.29578692037412" lon="13.748964750390996"><ele>401.8</ele><time>2026-05-03T09:11:41Z</time></trkpt><trkpt lat="42.29586161698949" lon="13.749043093864799"><ele>404.2</ele><time>2026-05-03T09:11:42Z</time></trkpt><trkpt lat="42.2959365045835" lon="13.749113016999509"><ele>406.6</ele><time>2026-05-03T09:11:43Z</time></trkpt><trkpt lat="42.296022779173136" lon="13.749178306580275"><ele>409.0</ele><time>2026-05-03T09:11:44Z</time></trkpt><trkpt lat="42.29608898942164" lon="13.74928724041375"><ele>411.0</ele><time>2026-05-03T09:11:45Z</time></trkpt><trkpt lat="42.29616346864407" lon="13.74939223901794"><ele>413.0</ele><time>2026-05-03T09:11:46Z</time></trkpt><trkpt lat="42.29624917263413" lon="13.749468890098328"><ele>415.0</ele><time>2026-05-03T09:11:47Z</time></trkpt><trkpt lat="42.29632462804576" lon="13.749563304578734"><ele>417.0</ele><time>2026-05-03T09:11:48Z</time></trkpt><trkpt lat="42.296413094405224" lon="13.749616683525074"><ele>419.0</ele><time>2026-05-03T09:11:49Z</time></trkpt><trkpt lat="42.29650224494871" lon="13.749690251852048"><ele>420.0</ele><time>2026-05-03T09:11:50Z</time></trkpt><trkpt lat="42.29659819288537" lon="13.749726085561127"><ele>421.0</ele><time>2026-05-03T09:11:51Z</time></trkpt><trkpt lat="42.29666814053536" lon="13.749786272101357"><ele>422.0</ele><time>2026-05-03T09:11:52Z</time></trkpt><trkpt lat="42.29673957790587" lon="13.749848870576363"><ele>423.0</ele><time>2026-05-03T09:11:53Z</time></trkpt><trkpt lat="42.29682600180196" lon="13.74993360984789"><ele>424.0</ele><time>2026-05-03T09:11:54Z</time></trkpt><trkpt lat="42.29690126878706" lon="13.75002769137198"><ele>424.00000000000006</ele><time>2026-05-03T09:11:55Z</time></trkpt><trkpt lat="42.29696446479656" lon="13.750113660646376"><ele>424.0</ele><time>2026-05-03T09:11:56Z</time></trkpt><trkpt lat="42.297015393546715" lon="13.750189566986803"><ele>424.0</ele><time>2026-05-03T09:11:57Z</time></trkpt><trkpt lat="42.297073122449774" lon="13.750255871647052"><ele>424.0</ele><time>2026-05-03T09:11:58Z</time></trkpt><trkpt lat="42.297153952594" lon="13.75031867760917"><ele>424.00000000000006</ele><time>2026-05-03T09:11:59Z</time></trkpt><trkpt lat="42.29724317415497" lon="13.750368569450776"><ele>424.0</ele><time>2026-05-03T09:12:00Z</time></trkpt><trkpt lat="42.29733353912924" lon="13.750413369270502"><ele>424.25</ele><time>2026-05-03T09:12:01Z</time></trkpt><trkpt lat="42.29740944279312" lon="13.750480605397119"><ele>424.5</ele><time>2026-05-03T09:12:02Z</time></trkpt><trkpt lat="42.29748038326553" lon="13.750528189138947"><ele>424.75</ele><time>2026-05-03T09:12:04Z</time></trkpt><trkpt lat="42.297596122584686" lon="13.750221945434005"><ele>425.0</ele><time>2026-05-03T09:12:53Z</time></trkpt><trkpt lat="42.29764691073213" lon="13.750143680544676"><ele>425.6</ele><time>2026-05-03T09:12:54Z</time></trkpt><trkpt lat="42.29771250286735" lon="13.750090712174599"><ele>426.2</ele><time>2026-05-03T09:12:55Z</time></trkpt><trkpt lat="42.297800917398824" lon="13.750058330917845"><ele>426.79999999999995</ele><time>2026-05-03T09:12:56Z</time></trkpt><trkpt lat="42.29789652532746" lon="13.750023302740523"><ele>427.4</ele><time>2026-05-03T09:12:57Z</time></trkpt><trkpt lat="42.29800095170185" lon="13.750006878847934"><ele>428.0</ele><time>2026-05-03T09:12:58Z</time></trkpt><trkpt lat="42.29811085062563" lon="13.749999440002558"><ele>428.3333333333333</ele><time>2026-05-03T09:12:59Z</time></trkpt><trkpt lat="42.298206323467994" lon="13.74999925534086"><ele>428.66666666666663</ele><time>2026-05-03T09:13:00Z</time></trkpt><trkpt lat="42.29829845483825" lon="13.750005618270887"><ele>429.0</ele><time>2026-05-03T09:13:01Z</time></trkpt><trkpt lat="42.29837744729399" lon="13.750015073063572"><ele>429.33333333333337</ele><time>2026-05-03T09:13:02Z</time></trkpt><trkpt lat="42.29845695274426" lon="13.750022456086443"><ele>429.6666666666667</ele><time>2026-05-03T09:13:03Z</time></trkpt><trkpt lat="42.29854454690445" lon="13.750012071738965"><ele>430.0</ele><time>2026-05-03T09:13:04Z</time></trkpt><trkpt lat="42.29865985759291" lon="13.74998745031951"><ele>430.0</ele><time>2026-05-03T09:13:05Z</time></trkpt><trkpt lat="42.29879294787676" lon="13.749960391778218"><ele>430.0</ele><time>2026-05-03T09:13:06Z</time></trkpt><trkpt lat="42.29892899737094" lon="13.749926386547019"><ele>430.0</ele><time>2026-05-03T09:13:07Z</time></trkpt><trkpt lat="42.29906615836846" lon="13.749896254669125"><ele>430.0</ele><time>2026-05-03T09:13:08Z</time></trkpt><trkpt lat="42.29918647094014" lon="13.749880714402286"><ele>429.4</ele><time>2026-05-03T09:13:09Z</time></trkpt><trkpt lat="42.29929903036772" lon="13.749862146217716"><ele>428.8</ele><time>2026-05-03T09:13:10Z</time></trkpt><trkpt lat="42.29940216999265" lon="13.749851069701528"><ele>428.20000000000005</ele><time>2026-05-03T09:13:11Z</time></trkpt><trkpt lat="42.29949177797005" lon="13.749851676724376"><ele>427.6</ele><time>2026-05-03T09:13:12Z</time></trkpt><trkpt lat="42.29957919671763" lon="13.749852590470507"><ele>427.0</ele><time>2026-05-03T09:13:13Z</time></trkpt><trkpt lat="42.29967622141634" lon="13.749823391315193"><ele>426.0</ele><time>2026-05-03T09:13:14Z</time></trkpt><trkpt lat="42.299781772449215" lon="13.749761177415248"><ele>425.0</ele><time>2026-05-03T09:13:15Z</time></trkpt><trkpt lat="42.299900035117" lon="13.749694728150402"><ele>424.0</ele><time>2026-05-03T09:13:16Z</time></trkpt><trkpt lat="42.30001159381128" lon="13.749632151547425"><ele>423.0</ele><time>2026-05-03T09:13:17Z</time></trkpt><trkpt lat="42.30011841472732" lon="13.749603014145457"><ele>423.0</ele><time>2026-05-03T09:13:18Z</time></trkpt><trkpt lat="42.300229535793164" lon="13.749578309397203"><ele>423.0</ele><time>2026-05-03T09:13:19Z</time></trkpt><trkpt lat="42.30032760108478" lon="13.749549357824263"><ele>423.0</ele><time>2026-05-03T09:13:20Z</time></trkpt><trkpt lat="42.30040071186491" lon="13.749530447003051"><ele>423.0</ele><time>2026-05-03T09:13:21Z</time></trkpt><trkpt lat="42.300468942001814" lon="13.749501906332181"><ele>423.0</ele><time>2026-05-03T09:13:22Z</time></trkpt><trkpt lat="42.300559266636256" lon="13.74946495759265"><ele>421.5</ele><time>2026-05-03T09:13:23Z</time></trkpt><trkpt lat="42.300670380571695" lon="13.74942876479569"><ele>420.0</ele><time>2026-05-03T09:13:24Z</time></trkpt><trkpt lat="42.30078858517464" lon="13.74940119962408"><ele>418.5</ele><time>2026-05-03T09:13:25Z</time></trkpt><trkpt lat="42.30092191816152" lon="13.74937726933119"><ele>417.0</ele><time>2026-05-03T09:13:26Z</time></trkpt><trkpt lat="42.30105720548454" lon="13.749349958488184"><ele>419.8</ele><time>2026-05-03T09:13:27Z</time></trkpt><trkpt lat="42.301178085581014" lon="13.749318416516095"><ele>422.6</ele><time>2026-05-03T09:13:28Z</time></trkpt><trkpt lat="42.30127659217247" lon="13.749267726001937"><ele>425.40000000000003</ele><time>2026-05-03T09:13:29Z</time></trkpt><trkpt lat="42.30135812683498" lon="13.749202602045555"><ele>428.20000000000005</ele><time>2026-05-03T09:13:30Z</time></trkpt><trkpt lat="42.30142251869926" lon="13.749122532911564"><ele>431.0</ele><time>2026-05-03T09:13:31Z</time></trkpt><trkpt lat="42.30147347831107" lon="13.7490285639508"><ele>431.0</ele><time>2026-05-03T09:13:32Z</time></trkpt><trkpt lat="42.30152527143831" lon="13.748917212976034"><ele>431.0</ele><time>2026-05-03T09:13:33Z</time></trkpt><trkpt lat="42.30158929047112" lon="13.748795596894508"><ele>431.0</ele><time>2026-05-03T09:13:34Z</time></trkpt><trkpt lat="42.301658905196796" lon="13.748695269562202"><ele>431.0</ele><time>2026-05-03T09:13:35Z</time></trkpt><trkpt lat="42.30173774268738" lon="13.7486054662227"><ele>431.0</ele><time>2026-05-03T09:13:36Z</time></trkpt><trkpt lat="42.30180990335382" lon="13.74851898808231"><ele>435.8</ele><time>2026-05-03T09:13:37Z</time></trkpt><trkpt lat="42.301877838110286" lon="13.748430648012757"><ele>440.6</ele><time>2026-05-03T09:13:38Z</time></trkpt><trkpt lat="42.30195741613701" lon="13.748359742311747"><ele>445.4</ele><time>2026-05-03T09:13:39Z</time></trkpt><trkpt lat="42.30204009995151" lon="13.748310067756071"><ele>450.2</ele><time>2026-05-03T09:13:40Z</time></trkpt><trkpt lat="42.30212412251173" lon="13.74825281704161"><ele>455.0</ele><time>2026-05-03T09:13:41Z</time></trkpt><trkpt lat="42.30220386367967" lon="13.748187678453222"><ele>454.0</ele><time>2026-05-03T09:13:42Z</time></trkpt><trkpt lat="42.30228096399534" lon="13.74812071826429"><ele>453.0</ele><time>2026-05-03T09:13:43Z</time></trkpt><trkpt lat="42.302367608893135" lon="13.748053063945786"><ele>452.0</ele><time>2026-05-03T09:13:44Z</time></trkpt><trkpt lat="42.30245533176916" lon="13.747993287701554"><ele>451.0</ele><time>2026-05-03T09:13:45Z</time></trkpt><trkpt lat="42.302541890248584" lon="13.74794512841543"><ele>450.0</ele><time>2026-05-03T09:13:46Z</time></trkpt><trkpt lat="42.302617486364035" lon="13.747901762369006"><ele>450.0</ele><time>2026-05-03T09:13:47Z</time></trkpt><trkpt lat="42.302699180743126" lon="13.74787105440189"><ele>450.0</ele><time>2026-05-03T09:13:48Z</time></trkpt><trkpt lat="42.302775824787425" lon="13.747852273338077"><ele>450.0</ele><time>2026-05-03T09:13:49Z</time></trkpt><trkpt lat="42.3028539653105" lon="13.747853189624877"><ele>450.0</ele><time>2026-05-03T09:13:50Z</time></trkpt><trkpt lat="42.30294236838416" lon="13.747857516137296"><ele>450.0</ele><time>2026-05-03T09:13:51Z</time></trkpt><trkpt lat="42.30303972132592" lon="13.747865009542823"><ele>450.0</ele><time>2026-05-03T09:13:52Z</time></trkpt><trkpt lat="42.30314459624824" lon="13.7478780489872"><ele>451.5</ele><time>2026-05-03T09:13:53Z</time></trkpt><trkpt lat="42.303254557636365" lon="13.747898547628772"><ele>453.0</ele><time>2026-05-03T09:13:54Z</time></trkpt><trkpt lat="42.30336159846025" lon="13.747928908248383"><ele>454.5</ele><time>2026-05-03T09:13:55Z</time></trkpt><trkpt lat="42.30347637626305" lon="13.747958497292272"><ele>456.0</ele><time>2026-05-03T09:13:56Z</time></trkpt><trkpt lat="42.30359477710898" lon="13.747979102988197"><ele>456.0</ele><time>2026-05-03T09:13:57Z</time></trkpt><trkpt lat="42.30370709020747" lon="13.74800148262125"><ele>456.0</ele><time>2026-05-03T09:13:58Z</time></trkpt><trkpt lat="42.30380895763597" lon="13.74802442715242"><ele>456.0</ele><time>2026-05-03T09:13:59Z</time></trkpt><trkpt lat="42.30390504869778" lon="13.748048192075762"><ele>456.0</ele><time>2026-05-03T09:14:00Z</time></trkpt><trkpt lat="42.30399333459819" lon="13.74807577484674"><ele>456.0</ele><time>2026-05-03T09:14:01Z</time></trkpt><trkpt lat="42.304081324449335" lon="13.748115205492613"><ele>459.20000000000005</ele><time>2026-05-03T09:14:02Z</time></trkpt><trkpt lat="42.30417010163805" lon="13.748167535492655"><ele>462.40000000000003</ele><time>2026-05-03T09:14:03Z</time></trkpt><trkpt lat="42.30427149998204" lon="13.748229536671825"><ele>465.6</ele><time>2026-05-03T09:14:04Z</time></trkpt><trkpt lat="42.30437638098192" lon="13.748283530272923"><ele>468.8</ele><time>2026-05-03T09:14:05Z</time></trkpt><trkpt lat="42.304479698636776" lon="13.74833440003711"><ele>472.0</ele><time>2026-05-03T09:14:06Z</time></trkpt><trkpt lat="42.30457584517312" lon="13.748375514954168"><ele>472.00000000000006</ele><time>2026-05-03T09:14:07Z</time></trkpt><trkpt lat="42.304661371228434" lon="13.74839126921026"><ele>472.0</ele><time>2026-05-03T09:14:08Z</time></trkpt><trkpt lat="42.304746429001206" lon="13.748386999347133"><ele>472.0</ele><time>2026-05-03T09:14:09Z</time></trkpt><trkpt lat="42.30483455091662" lon="13.748362587130876"><ele>472.0</ele><time>2026-05-03T09:14:10Z</time></trkpt><trkpt lat="42.304916329458365" lon="13.748329283959501"><ele>472.00000000000006</ele><time>2026-05-03T09:14:11Z</time></trkpt><trkpt lat="42.30499022029835" lon="13.74830853170406"><ele>472.0</ele><time>2026-05-03T09:14:12Z</time></trkpt><trkpt lat="42.30505534883313" lon="13.748306574609243"><ele>474.50000000000006</ele><time>2026-05-03T09:14:13Z</time></trkpt><trkpt lat="42.30512306214843" lon="13.748327806385234"><ele>477.0</ele><time>2026-05-03T09:14:14Z</time></trkpt><trkpt lat="42.30518125215777" lon="13.74840161183712"><ele>479.5</ele><time>2026-05-03T09:14:16Z</time></trkpt><trkpt lat="42.30525730443145" lon="13.748472673062546"><ele>482.0</ele><time>2026-05-03T09:14:18Z</time></trkpt><trkpt lat="42.30533523465009" lon="13.748506474768078"><ele>484.50000000000006</ele><time>2026-05-03T09:14:19Z</time></trkpt><trkpt lat="42.305413551796896" lon="13.748505237875786"><ele>487.0</ele><time>2026-05-03T09:14:20Z</time></trkpt><trkpt lat="42.30550712258651" lon="13.748480540764373"><ele>488.20000000000005</ele><time>2026-05-03T09:14:22Z</time></trkpt><trkpt lat="42.30563343489547" lon="13.748480060631085"><ele>489.40000000000003</ele><time>2026-05-03T09:14:24Z</time></trkpt><trkpt lat="42.30571509620887" lon="13.748474829865414"><ele>490.59999999999997</ele><time>2026-05-03T09:14:25Z</time></trkpt><trkpt lat="42.30579859446623" lon="13.748444668638546"><ele>491.79999999999995</ele><time>2026-05-03T09:14:26Z</time></trkpt><trkpt lat="42.30588344810618" lon="13.748387244654873"><ele>493.0</ele><time>2026-05-03T09:14:27Z</time></trkpt><trkpt lat="42.305960955954845" lon="13.748328690099768"><ele>493.0</ele><time>2026-05-03T09:14:28Z</time></trkpt><trkpt lat="42.30603504109148" lon="13.748283350565078"><ele>492.99999999999994</ele><time>2026-05-03T09:14:29Z</time></trkpt><trkpt lat="42.306112219732185" lon="13.74825750490916"><ele>492.99999999999994</ele><time>2026-05-03T09:14:30Z</time></trkpt><trkpt lat="42.30620458875198" lon="13.748224063494849"><ele>493.0</ele><time>2026-05-03T09:14:30.999Z</time></trkpt><trkpt lat="42.306303664427865" lon="13.748185952483981"><ele>493.0</ele><time>2026-05-03T09:14:32.001Z</time></trkpt><trkpt lat="42.30639747366563" lon="13.748143392470826"><ele>492.50000000000006</ele><time>2026-05-03T09:14:33.001Z</time></trkpt><trkpt lat="42.306486091421945" lon="13.748102415706528"><ele>492.0</ele><time>2026-05-03T09:14:34.001Z</time></trkpt><trkpt lat="42.30656526121142" lon="13.74806045008702"><ele>491.5</ele><time>2026-05-03T09:14:35.001Z</time></trkpt><trkpt lat="42.30664207474212" lon="13.748021093845821"><ele>491.0</ele><time>2026-05-03T09:14:36.001Z</time></trkpt><trkpt lat="42.306723348767704" lon="13.747985959330267"><ele>490.50000000000006</ele><time>2026-05-03T09:14:37.001Z</time></trkpt><trkpt lat="42.30680626210627" lon="13.747957768299072"><ele>490.0</ele><time>2026-05-03T09:14:38.001Z</time></trkpt><trkpt lat="42.30689248937676" lon="13.747938676864477"><ele>490.00000000000006</ele><time>2026-05-03T09:14:39.001Z</time></trkpt><trkpt lat="42.30697830614806" lon="13.747930046117583"><ele>490.0</ele><time>2026-05-03T09:14:40.001Z</time></trkpt><trkpt lat="42.30706109838736" lon="13.747917817313152"><ele>490.0</ele><time>2026-05-03T09:14:41.001Z</time></trkpt><trkpt lat="42.30713893870558" lon="13.747900373431028"><ele>490.0</ele><time>2026-05-03T09:14:42.001Z</time></trkpt><trkpt lat="42.30720623950461" lon="13.747909175222166"><ele>490.00000000000006</ele><time>2026-05-03T09:14:43.001Z</time></trkpt><trkpt lat="42.307289105468584" lon="13.747929162690879"><ele>490.0</ele><time>2026-05-03T09:14:44.001Z</time></trkpt><trkpt lat="42.30738757554617" lon="13.747935058477307"><ele>489.2</ele><time>2026-05-03T09:14:45.001Z</time></trkpt><trkpt lat="42.307480142431515" lon="13.747927394086641"><ele>488.4</ele><time>2026-05-03T09:14:46.001Z</time></trkpt><trkpt lat="42.30757890444448" lon="13.747926363884519"><ele>487.6</ele><time>2026-05-03T09:14:47.001Z</time></trkpt><trkpt lat="42.3076887057758" lon="13.747914654969202"><ele>486.8</ele><time>2026-05-03T09:14:48.001Z</time></trkpt><trkpt lat="42.30777693373827" lon="13.747911143740765"><ele>486.0</ele><time>2026-05-03T09:14:49.001Z</time></trkpt><trkpt lat="42.30786668218772" lon="13.747907489465682"><ele>486.0</ele><time>2026-05-03T09:14:50.001Z</time></trkpt><trkpt lat="42.30795451571523" lon="13.747895863141114"><ele>486.0</ele><time>2026-05-03T09:14:51.001Z</time></trkpt><trkpt lat="42.308048256899745" lon="13.747889391150096"><ele>486.0</ele><time>2026-05-03T09:14:52.001Z</time></trkpt><trkpt lat="42.30813929828374" lon="13.747878212485297"><ele>486.0</ele><time>2026-05-03T09:14:53.001Z</time></trkpt><trkpt lat="42.308232586429895" lon="13.747874814787655"><ele>486.0</ele><time>2026-05-03T09:14:54.001Z</time></trkpt><trkpt lat="42.3083192240787" lon="13.747848542922249"><ele>486.1666666666667</ele><time>2026-05-03T09:14:55.001Z</time></trkpt><trkpt lat="42.30840135030369" lon="13.74780407337762"><ele>486.33333333333337</ele><time>2026-05-03T09:14:56.001Z</time></trkpt><trkpt lat="42.30847034578253" lon="13.747785060559664"><ele>486.5</ele><time>2026-05-03T09:14:57.001Z</time></trkpt><trkpt lat="42.308597941386346" lon="13.747799954829286"><ele>486.6666666666667</ele><time>2026-05-03T09:14:59Z</time></trkpt><trkpt lat="42.308679261602656" lon="13.747805021991356"><ele>486.83333333333337</ele><time>2026-05-03T09:15:00Z</time></trkpt><trkpt lat="42.30875259593052" lon="13.747802076499807"><ele>487.0</ele><time>2026-05-03T09:15:01Z</time></trkpt><trkpt lat="42.30882162899421" lon="13.747794438598293"><ele>485.40000000000003</ele><time>2026-05-03T09:15:02Z</time></trkpt><trkpt lat="42.30892606295276" lon="13.7477456723701"><ele>483.80000000000007</ele><time>2026-05-03T09:15:04Z</time></trkpt><trkpt lat="42.30895978520625" lon="13.747622307219263"><ele>482.2</ele><time>2026-05-03T09:15:06Z</time></trkpt><trkpt lat="42.308971807361225" lon="13.74752733164999"><ele>480.6</ele><time>2026-05-03T09:15:07Z</time></trkpt><trkpt lat="42.30899457791909" lon="13.747365194748905"><ele>479.0</ele><time>2026-05-03T09:15:09Z</time></trkpt><trkpt lat="42.30902823966292" lon="13.74728133045604"><ele>482.2</ele><time>2026-05-03T09:15:10Z</time></trkpt><trkpt lat="42.30908381816175" lon="13.747189768763024"><ele>485.4</ele><time>2026-05-03T09:15:11Z</time></trkpt><trkpt lat="42.30915268926232" lon="13.747095230972613"><ele>488.6</ele><time>2026-05-03T09:15:12Z</time></trkpt><trkpt lat="42.3092179381916" lon="13.746988540147814"><ele>491.8</ele><time>2026-05-03T09:15:13Z</time></trkpt><trkpt lat="42.309278489762406" lon="13.746888446517131"><ele>495.0</ele><time>2026-05-03T09:15:14Z</time></trkpt><trkpt lat="42.30933530260072" lon="13.746785067607432"><ele>498.6666666666667</ele><time>2026-05-03T09:15:15Z</time></trkpt><trkpt lat="42.309389333983034" lon="13.746696088850854"><ele>502.33333333333337</ele><time>2026-05-03T09:15:16Z</time></trkpt><trkpt lat="42.309451092416616" lon="13.746602886995804"><ele>506.0</ele><time>2026-05-03T09:15:17Z</time></trkpt><trkpt lat="42.309523440576655" lon="13.746522514912751"><ele>509.6666666666667</ele><time>2026-05-03T09:15:18Z</time></trkpt><trkpt lat="42.30958455730563" lon="13.746458628683797"><ele>513.3333333333334</ele><time>2026-05-03T09:15:19Z</time></trkpt><trkpt lat="42.309658700931955" lon="13.746412474749524"><ele>517.0</ele><time>2026-05-03T09:15:21Z</time></trkpt><trkpt lat="42.30972484756646" lon="13.746458281539269"><ele>516.8571428571429</ele><time>2026-05-03T09:15:23Z</time></trkpt><trkpt lat="42.30977557666727" lon="13.746511413286246"><ele>516.7142857142858</ele><time>2026-05-03T09:15:24Z</time></trkpt><trkpt lat="42.30984174364508" lon="13.746566746964229"><ele>516.5714285714286</ele><time>2026-05-03T09:15:25Z</time></trkpt><trkpt lat="42.30991404943154" lon="13.746620898074491"><ele>516.4285714285714</ele><time>2026-05-03T09:15:26Z</time></trkpt><trkpt lat="42.3099785611253" lon="13.746669854825305"><ele>516.2857142857142</ele><time>2026-05-03T09:15:27Z</time></trkpt><trkpt lat="42.31003752033097" lon="13.746710655356734"><ele>516.1428571428571</ele><time>2026-05-03T09:15:28Z</time></trkpt><trkpt lat="42.31010946006884" lon="13.746757281690181"><ele>516.0</ele><time>2026-05-03T09:15:29Z</time></trkpt><trkpt lat="42.31019177813523" lon="13.74681027222587"><ele>516.0</ele><time>2026-05-03T09:15:30Z</time></trkpt><trkpt lat="42.31027686739341" lon="13.746858233456592"><ele>516.0</ele><time>2026-05-03T09:15:31Z</time></trkpt><trkpt lat="42.310353389617674" lon="13.74689195007381"><ele>516.0</ele><time>2026-05-03T09:15:32Z</time></trkpt><trkpt lat="42.310425948545024" lon="13.746928497776471"><ele>516.0</ele><time>2026-05-03T09:15:33Z</time></trkpt><trkpt lat="42.31049668051053" lon="13.746970658398627"><ele>516.0</ele><time>2026-05-03T09:15:34Z</time></trkpt><trkpt lat="42.310571268375256" lon="13.747007932391895"><ele>516.0</ele><time>2026-05-03T09:15:35Z</time></trkpt><trkpt lat="42.310646948183575" lon="13.747046733534983"><ele>512.5</ele><time>2026-05-03T09:15:36Z</time></trkpt><trkpt lat="42.31072068176623" lon="13.747081565713371"><ele>509.0</ele><time>2026-05-03T09:15:37Z</time></trkpt><trkpt lat="42.31079232150225" lon="13.747123290445668"><ele>505.5</ele><time>2026-05-03T09:15:38Z</time></trkpt><trkpt lat="42.31087132440046" lon="13.747155937300466"><ele>502.0</ele><time>2026-05-03T09:15:39Z</time></trkpt><trkpt lat="42.31095320222779" lon="13.74719661730535"><ele>498.5</ele><time>2026-05-03T09:15:40Z</time></trkpt><trkpt lat="42.311020111276" lon="13.74722860422106"><ele>495.0</ele><time>2026-05-03T09:15:41Z</time></trkpt><trkpt lat="42.3110930295983" lon="13.747263369672407"><ele>494.99999999999994</ele><time>2026-05-03T09:15:42Z</time></trkpt><trkpt lat="42.31115317139845" lon="13.747295709319573"><ele>495.0</ele><time>2026-05-03T09:15:43Z</time></trkpt><trkpt lat="42.31121536675114" lon="13.747327232423142"><ele>494.99999999999994</ele><time>2026-05-03T09:15:44Z</time></trkpt><trkpt lat="42.31127638298394" lon="13.747356138232316"><ele>494.99999999999994</ele><time>2026-05-03T09:15:45Z</time></trkpt><trkpt lat="42.31134037969187" lon="13.74739065361707"><ele>495.0</ele><time>2026-05-03T09:15:46Z</time></trkpt><trkpt lat="42.31140579055613" lon="13.747422378973871"><ele>494.99999999999994</ele><time>2026-05-03T09:15:47Z</time></trkpt><trkpt lat="42.31147352261471" lon="13.747454872535956"><ele>494.99999999999994</ele><time>2026-05-03T09:15:48Z</time></trkpt><trkpt lat="42.31153563763074" lon="13.747483988390808"><ele>496.42857142857133</ele><time>2026-05-03T09:15:49Z</time></trkpt><trkpt lat="42.31159742375774" lon="13.747512586627183"><ele>497.85714285714283</ele><time>2026-05-03T09:15:50Z</time></trkpt><trkpt lat="42.31166229995198" lon="13.747549100083658"><ele>499.2857142857142</ele><time>2026-05-03T09:15:51Z</time></trkpt><trkpt lat="42.31172161447064" lon="13.747580948897781"><ele>500.71428571428567</ele><time>2026-05-03T09:15:52Z</time></trkpt><trkpt lat="42.31178027757073" lon="13.747612363395369"><ele>502.1428571428571</ele><time>2026-05-03T09:15:53Z</time></trkpt><trkpt lat="42.31183764297826" lon="13.747649596395805"><ele>503.57142857142856</ele><time>2026-05-03T09:15:54Z</time></trkpt><trkpt lat="42.31195299477098" lon="13.747707881302503"><ele>505.0</ele><time>2026-05-03T09:15:56Z</time></trkpt><trkpt lat="42.31201794816882" lon="13.747738928007594"><ele>500.1666666666667</ele><time>2026-05-03T09:15:57Z</time></trkpt><trkpt lat="42.31207696144271" lon="13.747773706460663"><ele>495.33333333333337</ele><time>2026-05-03T09:15:58Z</time></trkpt><trkpt lat="42.312139743292086" lon="13.74780473790963"><ele>490.5</ele><time>2026-05-03T09:15:59Z</time></trkpt><trkpt lat="42.312200766689145" lon="13.747834507809332"><ele>485.66666666666663</ele><time>2026-05-03T09:16:00Z</time></trkpt><trkpt lat="42.31232063426216" lon="13.747887543422134"><ele>480.8333333333333</ele><time>2026-05-03T09:16:02Z</time></trkpt><trkpt lat="42.31238044112501" lon="13.74791419707709"><ele>476.0</ele><time>2026-05-03T09:16:03Z</time></trkpt><trkpt lat="42.312495036743016" lon="13.747972590305647"><ele>475.6</ele><time>2026-05-03T09:16:05Z</time></trkpt><trkpt lat="42.31255445653361" lon="13.748003059804198"><ele>475.20000000000005</ele><time>2026-05-03T09:16:06Z</time></trkpt><trkpt lat="42.31261990556572" lon="13.748035410748068"><ele>474.79999999999995</ele><time>2026-05-03T09:16:07Z</time></trkpt><trkpt lat="42.31273020499279" lon="13.748099790641714"><ele>474.4</ele><time>2026-05-03T09:16:09Z</time></trkpt><trkpt lat="42.31283759915316" lon="13.748155273151825"><ele>474.0</ele><time>2026-05-03T09:16:11Z</time></trkpt><trkpt lat="42.31295161845502" lon="13.7482257758776"><ele>473.99999999999994</ele><time>2026-05-03T09:16:13Z</time></trkpt><trkpt lat="42.31301258183713" lon="13.748265722150698"><ele>474.0</ele><time>2026-05-03T09:16:14Z</time></trkpt><trkpt lat="42.31307379466769" lon="13.748300833792495"><ele>473.99999999999994</ele><time>2026-05-03T09:16:15Z</time></trkpt><trkpt lat="42.31313516921599" lon="13.748330320125833"><ele>473.99999999999994</ele><time>2026-05-03T09:16:16Z</time></trkpt><trkpt lat="42.31319730085288" lon="13.748357330774184"><ele>474.0</ele><time>2026-05-03T09:16:17Z</time></trkpt><trkpt lat="42.31326694615382" lon="13.748387414531528"><ele>473.99999999999994</ele><time>2026-05-03T09:16:18Z</time></trkpt><trkpt lat="42.313336288478354" lon="13.748422369757686"><ele>473.99999999999994</ele><time>2026-05-03T09:16:19Z</time></trkpt><trkpt lat="42.31340383421289" lon="13.748457773320897"><ele>473.6</ele><time>2026-05-03T09:16:20Z</time></trkpt><trkpt lat="42.313470132714656" lon="13.74849317640802"><ele>473.2</ele><time>2026-05-03T09:16:21Z</time></trkpt><trkpt lat="42.313537254404366" lon="13.748529025683483"><ele>472.80000000000007</ele><time>2026-05-03T09:16:22Z</time></trkpt><trkpt lat="42.31360003316378" lon="13.74856346554573"><ele>472.40000000000003</ele><time>2026-05-03T09:16:23Z</time></trkpt><trkpt lat="42.31372097765968" lon="13.748596532444092"><ele>472.0</ele><time>2026-05-03T09:16:25Z</time></trkpt><trkpt lat="42.31384988424794" lon="13.74859043717038"><ele>467.40000000000003</ele><time>2026-05-03T09:16:27Z</time></trkpt><trkpt lat="42.31394616314488" lon="13.748588816365361"><ele>462.80000000000007</ele><time>2026-05-03T09:16:28Z</time></trkpt><trkpt lat="42.314048352656215" lon="13.748588362578143"><ele>458.2</ele><time>2026-05-03T09:16:29Z</time></trkpt><trkpt lat="42.31414589512998" lon="13.748587870533775"><ele>453.6</ele><time>2026-05-03T09:16:30Z</time></trkpt><trkpt lat="42.314232866765636" lon="13.74858960363344"><ele>449.0</ele><time>2026-05-03T09:16:31Z</time></trkpt><trkpt lat="42.314328981352084" lon="13.748596267976476"><ele>449.0</ele><time>2026-05-03T09:16:32Z</time></trkpt><trkpt lat="42.314436088445596" lon="13.748604187511772"><ele>449.0</ele><time>2026-05-03T09:16:33Z</time></trkpt><trkpt lat="42.31454491721324" lon="13.748599285963737"><ele>449.0</ele><time>2026-05-03T09:16:34Z</time></trkpt><trkpt lat="42.31463311952003" lon="13.748603152634978"><ele>449.0</ele><time>2026-05-03T09:16:35Z</time></trkpt><trkpt lat="42.31471388997681" lon="13.748602186666963"><ele>449.0</ele><time>2026-05-03T09:16:36Z</time></trkpt><trkpt lat="42.31479243725128" lon="13.748614091976364"><ele>448.8333333333333</ele><time>2026-05-03T09:16:36.999Z</time></trkpt><trkpt lat="42.31487579475418" lon="13.748619239093237"><ele>448.66666666666663</ele><time>2026-05-03T09:16:38.001Z</time></trkpt><trkpt lat="42.3149608789708" lon="13.748614587480992"><ele>448.5</ele><time>2026-05-03T09:16:39.001Z</time></trkpt><trkpt lat="42.31505810613988" lon="13.748615939686234"><ele>448.33333333333337</ele><time>2026-05-03T09:16:40.001Z</time></trkpt><trkpt lat="42.31513999743434" lon="13.748616255166306"><ele>448.1666666666667</ele><time>2026-05-03T09:16:41.001Z</time></trkpt><trkpt lat="42.31522070068755" lon="13.74862186420816"><ele>448.0</ele><time>2026-05-03T09:16:42.001Z</time></trkpt><trkpt lat="42.3153064179918" lon="13.748620880491924"><ele>448.0</ele><time>2026-05-03T09:16:43.001Z</time></trkpt><trkpt lat="42.31538632053636" lon="13.748620534112655"><ele>447.99999999999994</ele><time>2026-05-03T09:16:44.001Z</time></trkpt><trkpt lat="42.31547429489527" lon="13.7486182536298"><ele>447.99999999999994</ele><time>2026-05-03T09:16:45.001Z</time></trkpt><trkpt lat="42.315571634835756" lon="13.748613626576649"><ele>448.0</ele><time>2026-05-03T09:16:46Z</time></trkpt><trkpt lat="42.31566984694222" lon="13.748606554089529"><ele>448.0</ele><time>2026-05-03T09:16:47Z</time></trkpt><trkpt lat="42.31576854210774" lon="13.748596215036715"><ele>448.59999999999997</ele><time>2026-05-03T09:16:48.001Z</time></trkpt><trkpt lat="42.31586271626252" lon="13.748594957938874"><ele>449.19999999999993</ele><time>2026-05-03T09:16:49Z</time></trkpt><trkpt lat="42.315953180026746" lon="13.748614038384975"><ele>449.8</ele><time>2026-05-03T09:16:50Z</time></trkpt><trkpt lat="42.31604454056755" lon="13.748631596248565"><ele>450.4</ele><time>2026-05-03T09:16:51Z</time></trkpt><trkpt lat="42.31613848945682" lon="13.748638641151414"><ele>451.0</ele><time>2026-05-03T09:16:52Z</time></trkpt><trkpt lat="42.31622029889472" lon="13.748644193773229"><ele>451.00000000000006</ele><time>2026-05-03T09:16:53Z</time></trkpt><trkpt lat="42.31629737433229" lon="13.74865835686718"><ele>451.0</ele><time>2026-05-03T09:16:54Z</time></trkpt><trkpt lat="42.31638068323539" lon="13.74868421738433"><ele>451.0</ele><time>2026-05-03T09:16:55Z</time></trkpt><trkpt lat="42.316454960429425" lon="13.748729190256936"><ele>451.0</ele><time>2026-05-03T09:16:56Z</time></trkpt><trkpt lat="42.31651064877028" lon="13.748775851148828"><ele>451.00000000000006</ele><time>2026-05-03T09:16:57Z</time></trkpt><trkpt lat="42.31662291144264" lon="13.748880843515197"><ele>451.0</ele><time>2026-05-03T09:16:59Z</time></trkpt><trkpt lat="42.3166723194211" lon="13.748958869104387"><ele>450.20000000000005</ele><time>2026-05-03T09:17:00Z</time></trkpt><trkpt lat="42.3167209408998" lon="13.74903185868006"><ele>449.40000000000003</ele><time>2026-05-03T09:17:01Z</time></trkpt><trkpt lat="42.31680101912798" lon="13.749143254665103"><ele>448.6</ele><time>2026-05-03T09:17:03Z</time></trkpt><trkpt lat="42.316853687892355" lon="13.749200543812309"><ele>447.8</ele><time>2026-05-03T09:17:04Z</time></trkpt><trkpt lat="42.31695263452274" lon="13.749300520885633"><ele>447.0</ele><time>2026-05-03T09:17:06Z</time></trkpt><trkpt lat="42.31705966389729" lon="13.749393886373632"><ele>447.0</ele><time>2026-05-03T09:17:08Z</time></trkpt><trkpt lat="42.31711858326662" lon="13.749430039353161"><ele>447.0</ele><time>2026-05-03T09:17:09Z</time></trkpt><trkpt lat="42.31719578475038" lon="13.749477822089133"><ele>447.0</ele><time>2026-05-03T09:17:10Z</time></trkpt><trkpt lat="42.3172770459427" lon="13.749537447751234"><ele>447.0</ele><time>2026-05-03T09:17:11Z</time></trkpt><trkpt lat="42.31734778423811" lon="13.749600809940329"><ele>447.0</ele><time>2026-05-03T09:17:12Z</time></trkpt><trkpt lat="42.3174127546145" lon="13.749658301247436"><ele>447.0</ele><time>2026-05-03T09:17:13Z</time></trkpt><trkpt lat="42.317476683507266" lon="13.74971293473645"><ele>448.0</ele><time>2026-05-03T09:17:14Z</time></trkpt><trkpt lat="42.31753430018972" lon="13.749749251598223"><ele>449.0</ele><time>2026-05-03T09:17:15Z</time></trkpt><trkpt lat="42.317648253962716" lon="13.749778367622383"><ele>450.0</ele><time>2026-05-03T09:17:17Z</time></trkpt><trkpt lat="42.31772909804283" lon="13.749853371920613"><ele>451.0</ele><time>2026-05-03T09:17:19Z</time></trkpt><trkpt lat="42.31777409498542" lon="13.74992393229207"><ele>452.0</ele><time>2026-05-03T09:17:20Z</time></trkpt><trkpt lat="42.317838608914464" lon="13.749979087303016"><ele>453.0</ele><time>2026-05-03T09:17:21Z</time></trkpt><trkpt lat="42.31790758426621" lon="13.750017157695975"><ele>453.0</ele><time>2026-05-03T09:17:22Z</time></trkpt><trkpt lat="42.31797815999666" lon="13.750057718895656"><ele>453.0</ele><time>2026-05-03T09:17:23Z</time></trkpt><trkpt lat="42.318034784991774" lon="13.750098772727965"><ele>453.0</ele><time>2026-05-03T09:17:24Z</time></trkpt><trkpt lat="42.31813268434791" lon="13.750155158166653"><ele>453.0</ele><time>2026-05-03T09:17:26Z</time></trkpt><trkpt lat="42.31819531998366" lon="13.750212011378983"><ele>453.0</ele><time>2026-05-03T09:17:28Z</time></trkpt><trkpt lat="42.31816623648437" lon="13.75033841908206"><ele>453.0</ele><time>2026-05-03T09:17:31Z</time></trkpt><trkpt lat="42.31808624663386" lon="13.750445747670511"><ele>451.3333333333333</ele><time>2026-05-03T09:17:33Z</time></trkpt><trkpt lat="42.31799313540855" lon="13.750571852960718"><ele>449.66666666666663</ele><time>2026-05-03T09:17:35Z</time></trkpt><trkpt lat="42.317952095967016" lon="13.750658858347244"><ele>448.0</ele><time>2026-05-03T09:17:36Z</time></trkpt><trkpt lat="42.317919612795066" lon="13.750755524566463"><ele>446.3333333333333</ele><time>2026-05-03T09:17:37Z</time></trkpt><trkpt lat="42.31788692585983" lon="13.75083420799623"><ele>444.66666666666663</ele><time>2026-05-03T09:17:38Z</time></trkpt><trkpt lat="42.31784775472653" lon="13.75091736077389"><ele>443.0</ele><time>2026-05-03T09:17:39Z</time></trkpt><trkpt lat="42.31780407969959" lon="13.750999027175903"><ele>441.99999999999994</ele><time>2026-05-03T09:17:40Z</time></trkpt><trkpt lat="42.3177653635023" lon="13.751078222641505"><ele>441.0</ele><time>2026-05-03T09:17:41Z</time></trkpt><trkpt lat="42.31773179129021" lon="13.751157153182287"><ele>440.0</ele><time>2026-05-03T09:17:42Z</time></trkpt><trkpt lat="42.31770388327174" lon="13.751237272218896"><ele>439.0</ele><time>2026-05-03T09:17:43Z</time></trkpt><trkpt lat="42.31766955260053" lon="13.751375295510925"><ele>437.99999999999994</ele><time>2026-05-03T09:17:45Z</time></trkpt><trkpt lat="42.31765285775846" lon="13.751462116352299"><ele>437.0</ele><time>2026-05-03T09:17:47Z</time></trkpt><trkpt lat="42.3176876746406" lon="13.751573418468574"><ele>436.99999999999994</ele><time>2026-05-03T09:17:52Z</time></trkpt><trkpt lat="42.31776096137785" lon="13.75158693399839"><ele>437.0</ele><time>2026-05-03T09:17:52.999Z</time></trkpt><trkpt lat="42.317855405072706" lon="13.751565640836883"><ele>437.0</ele><time>2026-05-03T09:17:53.999Z</time></trkpt><trkpt lat="42.31794417791362" lon="13.751544677397787"><ele>437.0</ele><time>2026-05-03T09:17:54.999Z</time></trkpt><trkpt lat="42.31802858236292" lon="13.751518127520619"><ele>436.99999999999994</ele><time>2026-05-03T09:17:55.999Z</time></trkpt><trkpt lat="42.31811349398131" lon="13.75147400517877"><ele>437.0</ele><time>2026-05-03T09:17:56.999Z</time></trkpt><trkpt lat="42.31820542731587" lon="13.751416959019393"><ele>437.6</ele><time>2026-05-03T09:17:57.999Z</time></trkpt><trkpt lat="42.31831226984669" lon="13.751363319558617"><ele>438.20000000000005</ele><time>2026-05-03T09:17:58.999Z</time></trkpt><trkpt lat="42.31842196372055" lon="13.751327896159546"><ele>438.8</ele><time>2026-05-03T09:17:59.999Z</time></trkpt><trkpt lat="42.318534662314754" lon="13.751297708076823"><ele>439.4</ele><time>2026-05-03T09:18:00.999Z</time></trkpt><trkpt lat="42.318635416145035" lon="13.751273134673784"><ele>440.0</ele><time>2026-05-03T09:18:01.999Z</time></trkpt><trkpt lat="42.31870880067557" lon="13.751258056206344"><ele>439.99999999999994</ele><time>2026-05-03T09:18:02.999Z</time></trkpt><trkpt lat="42.31877565417993" lon="13.751251803093709"><ele>440.0</ele><time>2026-05-03T09:18:06.999Z</time></trkpt><trkpt lat="42.31872034298167" lon="13.751206960253858"><ele>440.0</ele><time>2026-05-03T09:18:17.999Z</time></trkpt><trkpt lat="42.31866411083072" lon="13.751260114045893"><ele>440.0</ele><time>2026-05-03T09:18:19.999Z</time></trkpt><trkpt lat="42.318785706957044" lon="13.751334632944369"><ele>439.99999999999994</ele><time>2026-05-03T09:18:23.999Z</time></trkpt><trkpt lat="42.31886303967124" lon="13.751348264978155"><ele>440.0</ele><time>2026-05-03T09:18:24.999Z</time></trkpt><trkpt lat="42.31895435520989" lon="13.751356601477662"><ele>441.2</ele><time>2026-05-03T09:18:25.999Z</time></trkpt><trkpt lat="42.31904766836147" lon="13.751369128115405"><ele>442.4</ele><time>2026-05-03T09:18:26.999Z</time></trkpt><trkpt lat="42.319137736572905" lon="13.751379152815272"><ele>443.6</ele><time>2026-05-03T09:18:28.999Z</time></trkpt><trkpt lat="42.3191995718936" lon="13.751472549187577"><ele>444.8</ele><time>2026-05-03T09:18:30.999Z</time></trkpt><trkpt lat="42.31922452527257" lon="13.751570538186265"><ele>446.0</ele><time>2026-05-03T09:18:31.999Z</time></trkpt><trkpt lat="42.31925906466011" lon="13.751694463510203"><ele>446.0</ele><time>2026-05-03T09:18:32.998Z</time></trkpt><trkpt lat="42.319302157260765" lon="13.751820029541989"><ele>446.0</ele><time>2026-05-03T09:18:33.998Z</time></trkpt><trkpt lat="42.31934602606139" lon="13.751933239650832"><ele>446.0</ele><time>2026-05-03T09:18:34.998Z</time></trkpt><trkpt lat="42.31939795667957" lon="13.752033497394441"><ele>446.0</ele><time>2026-05-03T09:18:35.998Z</time></trkpt><trkpt lat="42.319457845783134" lon="13.75212848527359"><ele>446.0</ele><time>2026-05-03T09:18:36.998Z</time></trkpt><trkpt lat="42.3195130385457" lon="13.752225937213076"><ele>443.8333333333333</ele><time>2026-05-03T09:18:37.998Z</time></trkpt><trkpt lat="42.3195570505949" lon="13.752323861880676"><ele>441.66666666666663</ele><time>2026-05-03T09:18:38.998Z</time></trkpt><trkpt lat="42.31959769583356" lon="13.75243066386462"><ele>439.5</ele><time>2026-05-03T09:18:39.998Z</time></trkpt><trkpt lat="42.319629428378065" lon="13.752544097017388"><ele>437.33333333333337</ele><time>2026-05-03T09:18:40.998Z</time></trkpt><trkpt lat="42.319653114810144" lon="13.752664232024092"><ele>435.1666666666667</ele><time>2026-05-03T09:18:41.998Z</time></trkpt><trkpt lat="42.31968146891396" lon="13.752783106521958"><ele>433.0</ele><time>2026-05-03T09:18:42.998Z</time></trkpt><trkpt lat="42.31971409420743" lon="13.75291725131451"><ele>432.6666666666667</ele><time>2026-05-03T09:18:43.999Z</time></trkpt><trkpt lat="42.31975161368319" lon="13.753045271183744"><ele>432.33333333333337</ele><time>2026-05-03T09:18:44.999Z</time></trkpt><trkpt lat="42.31978580313478" lon="13.75316148371055"><ele>432.0</ele><time>2026-05-03T09:18:45.999Z</time></trkpt><trkpt lat="42.319812528969116" lon="13.753269563866667"><ele>431.66666666666663</ele><time>2026-05-03T09:18:46.999Z</time></trkpt><trkpt lat="42.31983628634516" lon="13.753371856004133"><ele>431.3333333333333</ele><time>2026-05-03T09:18:47.999Z</time></trkpt><trkpt lat="42.319865205847464" lon="13.753481410821465"><ele>431.0</ele><time>2026-05-03T09:18:48.999Z</time></trkpt><trkpt lat="42.31989834704565" lon="13.753606616076748"><ele>431.0</ele><time>2026-05-03T09:18:49.999Z</time></trkpt><trkpt lat="42.31994443106478" lon="13.75374735127391"><ele>431.0</ele><time>2026-05-03T09:18:50.999Z</time></trkpt><trkpt lat="42.31997859493747" lon="13.753875108478802"><ele>431.0</ele><time>2026-05-03T09:18:51.999Z</time></trkpt><trkpt lat="42.32000681824154" lon="13.753996297374872"><ele>431.0</ele><time>2026-05-03T09:18:52.999Z</time></trkpt><trkpt lat="42.320031313841376" lon="13.754111697162518"><ele>431.0</ele><time>2026-05-03T09:18:53.999Z</time></trkpt><trkpt lat="42.320062970654014" lon="13.754206578136987"><ele>431.0</ele><time>2026-05-03T09:18:54.999Z</time></trkpt><trkpt lat="42.320103659048364" lon="13.754307940747683"><ele>431.0</ele><time>2026-05-03T09:18:55.999Z</time></trkpt><trkpt lat="42.320155486195404" lon="13.754405528859825"><ele>431.0</ele><time>2026-05-03T09:18:56.999Z</time></trkpt><trkpt lat="42.320207921592" lon="13.754504336400055"><ele>431.0</ele><time>2026-05-03T09:18:57.999Z</time></trkpt><trkpt lat="42.32026326789924" lon="13.754609113195272"><ele>431.0</ele><time>2026-05-03T09:18:58.999Z</time></trkpt><trkpt lat="42.320312837128895" lon="13.754723127736767"><ele>431.0</ele><time>2026-05-03T09:18:59.999Z</time></trkpt><trkpt lat="42.32034773121718" lon="13.754857884660122"><ele>431.0</ele><time>2026-05-03T09:19:00.999Z</time></trkpt><trkpt lat="42.320370587497116" lon="13.755001145259282"><ele>431.0</ele><time>2026-05-03T09:19:01.999Z</time></trkpt><trkpt lat="42.32042444501889" lon="13.755091601159068"><ele>431.0</ele><time>2026-05-03T09:19:02.999Z</time></trkpt><trkpt lat="42.320430992515185" lon="13.75518216197773"><ele>431.0</ele><time>2026-05-03T09:19:04.999Z</time></trkpt><trkpt lat="42.320530066072585" lon="13.755389662776595"><ele>431.99999999999994</ele><time>2026-05-03T09:19:06.999Z</time></trkpt><trkpt lat="42.32057697435547" lon="13.75545235131769"><ele>433.0</ele><time>2026-05-03T09:19:07.999Z</time></trkpt><trkpt lat="42.32064060557903" lon="13.75551673945067"><ele>434.0</ele><time>2026-05-03T09:19:08.999Z</time></trkpt><trkpt lat="42.320706544203134" lon="13.755574781502638"><ele>435.0</ele><time>2026-05-03T09:19:09.999Z</time></trkpt><trkpt lat="42.32077698580215" lon="13.755640863031678"><ele>435.99999999999994</ele><time>2026-05-03T09:19:10.999Z</time></trkpt><trkpt lat="42.32084927898544" lon="13.755711321637131"><ele>437.0</ele><time>2026-05-03T09:19:11.999Z</time></trkpt><trkpt lat="42.32091529947049" lon="13.755773507116073"><ele>437.0</ele><time>2026-05-03T09:19:12.999Z</time></trkpt><trkpt lat="42.32103133279762" lon="13.755856264852516"><ele>437.00000000000006</ele><time>2026-05-03T09:19:14.999Z</time></trkpt><trkpt lat="42.32110255950517" lon="13.755902534933185"><ele>437.00000000000006</ele><time>2026-05-03T09:19:15.999Z</time></trkpt><trkpt lat="42.321164726758255" lon="13.755986077757434"><ele>437.0</ele><time>2026-05-03T09:19:16.999Z</time></trkpt><trkpt lat="42.32121925113916" lon="13.756088154091529"><ele>437.0</ele><time>2026-05-03T09:19:17.999Z</time></trkpt><trkpt lat="42.32127547762209" lon="13.756199135070268"><ele>437.8</ele><time>2026-05-03T09:19:18.999Z</time></trkpt><trkpt lat="42.32133612142526" lon="13.756300757089267"><ele>438.6</ele><time>2026-05-03T09:19:19.999Z</time></trkpt><trkpt lat="42.32140799525949" lon="13.756388350034893"><ele>439.40000000000003</ele><time>2026-05-03T09:19:20.999Z</time></trkpt><trkpt lat="42.32149004705268" lon="13.756467785240057"><ele>440.20000000000005</ele><time>2026-05-03T09:19:21.999Z</time></trkpt><trkpt lat="42.32157271269582" lon="13.756535479209484"><ele>441.0</ele><time>2026-05-03T09:19:22.999Z</time></trkpt><trkpt lat="42.321657196645184" lon="13.7566120973176"><ele>442.0</ele><time>2026-05-03T09:19:23.999Z</time></trkpt><trkpt lat="42.32173979982763" lon="13.756694114537796"><ele>443.0</ele><time>2026-05-03T09:19:24.999Z</time></trkpt><trkpt lat="42.32182090324431" lon="13.756780559566879"><ele>444.0</ele><time>2026-05-03T09:19:25.999Z</time></trkpt><trkpt lat="42.321895079944234" lon="13.756853013396425"><ele>445.0</ele><time>2026-05-03T09:19:26.999Z</time></trkpt><trkpt lat="42.32196515887855" lon="13.756909841767655"><ele>446.0</ele><time>2026-05-03T09:19:27.999Z</time></trkpt><trkpt lat="42.32203109326892" lon="13.75693599473487"><ele>447.0</ele><time>2026-05-03T09:19:28.999Z</time></trkpt><trkpt lat="42.32210958207489" lon="13.756953208541605"><ele>447.6666666666667</ele><time>2026-05-03T09:19:29.999Z</time></trkpt><trkpt lat="42.32218843918161" lon="13.75698450005408"><ele>448.33333333333337</ele><time>2026-05-03T09:19:30.999Z</time></trkpt><trkpt lat="42.3222502956435" lon="13.75704472531459"><ele>449.0</ele><time>2026-05-03T09:19:31.999Z</time></trkpt><trkpt lat="42.32230972715634" lon="13.757137511369976"><ele>449.6666666666667</ele><time>2026-05-03T09:19:32.999Z</time></trkpt><trkpt lat="42.32237672048765" lon="13.757240934507221"><ele>450.33333333333337</ele><time>2026-05-03T09:19:33.999Z</time></trkpt><trkpt lat="42.322443456984786" lon="13.757333477898355"><ele>451.0</ele><time>2026-05-03T09:19:34.999Z</time></trkpt><trkpt lat="42.32248915650798" lon="13.757408337100642"><ele>452.4</ele><time>2026-05-03T09:19:35.999Z</time></trkpt><trkpt lat="42.32253304973788" lon="13.757503115766008"><ele>453.8</ele><time>2026-05-03T09:19:36.999Z</time></trkpt><trkpt lat="42.32256945043455" lon="13.757608093879815"><ele>455.19999999999993</ele><time>2026-05-03T09:19:37.999Z</time></trkpt><trkpt lat="42.32259961386824" lon="13.757730991947126"><ele>456.59999999999997</ele><time>2026-05-03T09:19:38.999Z</time></trkpt><trkpt lat="42.322636772379845" lon="13.757850063727641"><ele>458.0</ele><time>2026-05-03T09:19:39.999Z</time></trkpt><trkpt lat="42.32266969141257" lon="13.757966411085727"><ele>458.49999999999994</ele><time>2026-05-03T09:19:40.999Z</time></trkpt><trkpt lat="42.32269825757819" lon="13.758048768769886"><ele>459.0</ele><time>2026-05-03T09:19:41.999Z</time></trkpt><trkpt lat="42.322728554229485" lon="13.758124743578895"><ele>459.5</ele><time>2026-05-03T09:19:42.999Z</time></trkpt><trkpt lat="42.32278140193489" lon="13.758193236409554"><ele>460.0</ele><time>2026-05-03T09:19:44.999Z</time></trkpt><trkpt lat="42.32287564220183" lon="13.758210190366272"><ele>460.49999999999994</ele><time>2026-05-03T09:19:46.999Z</time></trkpt><trkpt lat="42.32294947367927" lon="13.758202314186194"><ele>461.0</ele><time>2026-05-03T09:19:47.999Z</time></trkpt><trkpt lat="42.32303197400492" lon="13.758223250762175"><ele>463.0</ele><time>2026-05-03T09:19:48.999Z</time></trkpt><trkpt lat="42.323120381234006" lon="13.758265020533337"><ele>465.0</ele><time>2026-05-03T09:19:49.999Z</time></trkpt><trkpt lat="42.32319258972431" lon="13.75830699785153"><ele>467.0</ele><time>2026-05-03T09:19:50.999Z</time></trkpt><trkpt lat="42.323329395030356" lon="13.758360825752613"><ele>469.0</ele><time>2026-05-03T09:19:52.999Z</time></trkpt><trkpt lat="42.32343216252228" lon="13.758419589529682"><ele>471.0</ele><time>2026-05-03T09:19:53.999Z</time></trkpt><trkpt lat="42.323526920585586" lon="13.758476475941903"><ele>471.0</ele><time>2026-05-03T09:19:54.999Z</time></trkpt><trkpt lat="42.323614329805494" lon="13.758525981711054"><ele>471.0</ele><time>2026-05-03T09:19:55.999Z</time></trkpt><trkpt lat="42.32369921703318" lon="13.75857942249492"><ele>471.0</ele><time>2026-05-03T09:19:56.999Z</time></trkpt><trkpt lat="42.32377434990239" lon="13.758654023796455"><ele>471.0</ele><time>2026-05-03T09:19:57.999Z</time></trkpt><trkpt lat="42.32384182471062" lon="13.758759779161188"><ele>471.0</ele><time>2026-05-03T09:19:58.999Z</time></trkpt><trkpt lat="42.32390002049127" lon="13.758870329297013"><ele>472.8</ele><time>2026-05-03T09:19:59.999Z</time></trkpt><trkpt lat="42.323942079891054" lon="13.758997950015761"><ele>474.6</ele><time>2026-05-03T09:20:00.999Z</time></trkpt><trkpt lat="42.32395320390121" lon="13.75913499922485"><ele>476.4</ele><time>2026-05-03T09:20:01.999Z</time></trkpt><trkpt lat="42.32395385960407" lon="13.759288451039192"><ele>478.2</ele><time>2026-05-03T09:20:02.999Z</time></trkpt><trkpt lat="42.323959599903034" lon="13.759390527198239"><ele>480.0</ele><time>2026-05-03T09:20:03.999Z</time></trkpt><trkpt lat="42.32401578013604" lon="13.759533032006736"><ele>481.1666666666667</ele><time>2026-05-03T09:20:05.999Z</time></trkpt><trkpt lat="42.324058984354046" lon="13.75962361809439"><ele>482.33333333333337</ele><time>2026-05-03T09:20:06.999Z</time></trkpt><trkpt lat="42.324095894370316" lon="13.759732599272718"><ele>483.5</ele><time>2026-05-03T09:20:07.999Z</time></trkpt><trkpt lat="42.324135934056905" lon="13.759835822518854"><ele>484.6666666666667</ele><time>2026-05-03T09:20:08.999Z</time></trkpt><trkpt lat="42.32417250087407" lon="13.759930535661702"><ele>485.83333333333337</ele><time>2026-05-03T09:20:09.999Z</time></trkpt><trkpt lat="42.32423931490398" lon="13.760026672028689"><ele>487.0</ele><time>2026-05-03T09:20:11.999Z</time></trkpt><trkpt lat="42.32431379799306" lon="13.759964038153493"><ele>487.0</ele><time>2026-05-03T09:20:15.999Z</time></trkpt><trkpt lat="42.32435235246182" lon="13.759883842470956"><ele>487.00000000000006</ele><time>2026-05-03T09:20:16.999Z</time></trkpt><trkpt lat="42.324416130628926" lon="13.759811481697485"><ele>487.00000000000006</ele><time>2026-05-03T09:20:17.999Z</time></trkpt><trkpt lat="42.3245066600543" lon="13.759736238198675"><ele>487.0</ele><time>2026-05-03T09:20:18.999Z</time></trkpt><trkpt lat="42.32459953247771" lon="13.75965167532853"><ele>487.0</ele><time>2026-05-03T09:20:19.999Z</time></trkpt><trkpt lat="42.32468012804669" lon="13.759545233846355"><ele>487.0</ele><time>2026-05-03T09:20:20.999Z</time></trkpt><trkpt lat="42.32472096023837" lon="13.759382074776452"><ele>487.0</ele><time>2026-05-03T09:20:21.999Z</time></trkpt><trkpt lat="42.324750524371176" lon="13.759212635566058"><ele>487.0</ele><time>2026-05-03T09:20:22.999Z</time></trkpt><trkpt lat="42.32487497684662" lon="13.759241846263304"><ele>487.0</ele><time>2026-05-03T09:20:23.999Z</time></trkpt><trkpt lat="42.32491962342647" lon="13.759115632404747"><ele>487.6666666666667</ele><time>2026-05-03T09:20:24.999Z</time></trkpt><trkpt lat="42.324937535540734" lon="13.759007631518815"><ele>488.33333333333337</ele><time>2026-05-03T09:20:25.999Z</time></trkpt><trkpt lat="42.324938411724396" lon="13.75891313027215"><ele>489.0</ele><time>2026-05-03T09:20:26.999Z</time></trkpt><trkpt lat="42.32496176932194" lon="13.758804752844075"><ele>489.66666666666663</ele><time>2026-05-03T09:20:28.998Z</time></trkpt><trkpt lat="42.325026867225745" lon="13.758805623451138"><ele>490.3333333333333</ele><time>2026-05-03T09:20:30.998Z</time></trkpt><trkpt lat="42.32504175586304" lon="13.758935458909098"><ele>491.0</ele><time>2026-05-03T09:20:32.998Z</time></trkpt><trkpt lat="42.3250175015082" lon="13.759033279389271"><ele>490.99999999999994</ele><time>2026-05-03T09:20:33.998Z</time></trkpt><trkpt lat="42.324991751780075" lon="13.759146279462733"><ele>491.0</ele><time>2026-05-03T09:20:34.998Z</time></trkpt><trkpt lat="42.324978769272185" lon="13.759277565750036"><ele>491.0</ele><time>2026-05-03T09:20:35.998Z</time></trkpt><trkpt lat="42.324985158594664" lon="13.75938516145154"><ele>491.0</ele><time>2026-05-03T09:20:36.998Z</time></trkpt><trkpt lat="42.324994349539445" lon="13.75947646426118"><ele>490.99999999999994</ele><time>2026-05-03T09:20:37.998Z</time></trkpt><trkpt lat="42.325009431433834" lon="13.75962272223765"><ele>491.0</ele><time>2026-05-03T09:20:39.998Z</time></trkpt><trkpt lat="42.32496940501736" lon="13.759707016583135"><ele>491.57142857142856</ele><time>2026-05-03T09:20:42.998Z</time></trkpt><trkpt lat="42.32492102981253" lon="13.759792299950822"><ele>492.1428571428571</ele><time>2026-05-03T09:20:46.998Z</time></trkpt><trkpt lat="42.32498259041499" lon="13.759834494790491"><ele>492.71428571428567</ele><time>2026-05-03T09:21:58.999Z</time></trkpt><trkpt lat="42.32504781456837" lon="13.75978719719864"><ele>493.2857142857142</ele><time>2026-05-03T09:22:06.999Z</time></trkpt><trkpt lat="42.32511771383386" lon="13.759733192856407"><ele>493.85714285714283</ele><time>2026-05-03T09:26:11.999Z</time></trkpt><trkpt lat="42.32518472714234" lon="13.759691819500288"><ele>494.42857142857133</ele><time>2026-05-03T09:26:22.999Z</time></trkpt><trkpt lat="42.325121857131" lon="13.759737685825298"><ele>494.99999999999994</ele><time>2026-05-03T09:29:40Z</time></trkpt><trkpt lat="42.325052662096205" lon="13.759747473757274"><ele>494.99999999999994</ele><time>2026-05-03T09:30:10.999Z</time></trkpt><trkpt lat="42.325002861878886" lon="13.759799814602578"><ele>495.0</ele><time>2026-05-03T09:30:18.999Z</time></trkpt><trkpt lat="42.32495458963957" lon="13.759858769415244"><ele>494.99999999999994</ele><time>2026-05-03T09:30:41.999Z</time></trkpt><trkpt lat="42.32489019545495" lon="13.759805901664167"><ele>494.99999999999994</ele><time>2026-05-03T09:33:11.998Z</time></trkpt><trkpt lat="42.324939799531236" lon="13.759749699647067"><ele>495.0</ele><time>2026-05-03T09:34:23.999Z</time></trkpt><trkpt lat="42.324969315615476" lon="13.759655110436555"><ele>494.99999999999994</ele><time>2026-05-03T09:34:34.999Z</time></trkpt><trkpt lat="42.32504323355519" lon="13.759593348546796"><ele>494.99999999999994</ele><time>2026-05-03T09:34:36.999Z</time></trkpt><trkpt lat="42.32515929468776" lon="13.759604718475783"><ele>495.0</ele><time>2026-05-03T09:34:38.998Z</time></trkpt><trkpt lat="42.325242593549326" lon="13.759648445780202"><ele>495.0</ele><time>2026-05-03T09:34:40.998Z</time></trkpt><trkpt lat="42.325302405797125" lon="13.759787738052003"><ele>495.0</ele><time>2026-05-03T09:34:42.998Z</time></trkpt><trkpt lat="42.32533881913046" lon="13.759874579283485"><ele>495.0</ele><time>2026-05-03T09:34:43.998Z</time></trkpt><trkpt lat="42.32537953985192" lon="13.759972176376436"><ele>495.0</ele><time>2026-05-03T09:34:44.998Z</time></trkpt><trkpt lat="42.32540501851505" lon="13.76006522919967"><ele>495.0</ele><time>2026-05-03T09:34:45.998Z</time></trkpt><trkpt lat="42.32544418070638" lon="13.760147294716154"><ele>496.0</ele><time>2026-05-03T09:34:46.998Z</time></trkpt><trkpt lat="42.32548562277673" lon="13.76023046523276"><ele>497.0</ele><time>2026-05-03T09:34:47.998Z</time></trkpt><trkpt lat="42.32556239036403" lon="13.760338481504498"><ele>498.0</ele><time>2026-05-03T09:34:49.998Z</time></trkpt><trkpt lat="42.325618215851655" lon="13.760393510303164"><ele>499.0</ele><time>2026-05-03T09:34:53.998Z</time></trkpt><trkpt lat="42.32547808405072" lon="13.760480971383338"><ele>500.0</ele><time>2026-05-03T09:34:58.998Z</time></trkpt><trkpt lat="42.32539868097205" lon="13.760490391700484"><ele>499.99999999999994</ele><time>2026-05-03T09:34:59.998Z</time></trkpt><trkpt lat="42.3253276918287" lon="13.760520205231263"><ele>500.0</ele><time>2026-05-03T09:35:00.998Z</time></trkpt><trkpt lat="42.325253920314125" lon="13.760518218287995"><ele>500.0</ele><time>2026-05-03T09:35:01.998Z</time></trkpt><trkpt lat="42.32518407027124" lon="13.760490100270182"><ele>500.0</ele><time>2026-05-03T09:35:02.998Z</time></trkpt><trkpt lat="42.32511982218461" lon="13.760476591790521"><ele>499.99999999999994</ele><time>2026-05-03T09:35:03.998Z</time></trkpt><trkpt lat="42.32502278693396" lon="13.760444783031106"><ele>500.0</ele><time>2026-05-03T09:35:05.998Z</time></trkpt><trkpt lat="42.324863327663856" lon="13.760651641831734"><ele>500.0</ele><time>2026-05-03T09:35:08.998Z</time></trkpt><trkpt lat="42.324797762886675" lon="13.760736803302066"><ele>500.0</ele><time>2026-05-03T09:35:09.998Z</time></trkpt><trkpt lat="42.3247215702672" lon="13.76079849627543"><ele>500.0</ele><time>2026-05-03T09:35:10.998Z</time></trkpt><trkpt lat="42.324632826883594" lon="13.76083800510424"><ele>500.0</ele><time>2026-05-03T09:35:11.998Z</time></trkpt><trkpt lat="42.32453844845649" lon="13.76084769966058"><ele>500.0</ele><time>2026-05-03T09:35:12.998Z</time></trkpt><trkpt lat="42.32443925309875" lon="13.76084571648105"><ele>500.0</ele><time>2026-05-03T09:35:13.998Z</time></trkpt><trkpt lat="42.32433584196544" lon="13.760836400505646"><ele>500.0</ele><time>2026-05-03T09:35:14.998Z</time></trkpt><trkpt lat="42.32422822913895" lon="13.760834550412255"><ele>500.0</ele><time>2026-05-03T09:35:15.998Z</time></trkpt><trkpt lat="42.32412246435979" lon="13.760819891621638"><ele>500.0</ele><time>2026-05-03T09:35:16.998Z</time></trkpt><trkpt lat="42.32401703956835" lon="13.760787092595734"><ele>500.0</ele><time>2026-05-03T09:35:17.998Z</time></trkpt><trkpt lat="42.32390768936275" lon="13.760790779558503"><ele>499.8</ele><time>2026-05-03T09:35:18.998Z</time></trkpt><trkpt lat="42.32380704779971" lon="13.760799727740403"><ele>499.6</ele><time>2026-05-03T09:35:19.998Z</time></trkpt><trkpt lat="42.32370665610837" lon="13.760800740596322"><ele>499.4</ele><time>2026-05-03T09:35:20.998Z</time></trkpt><trkpt lat="42.32359098548608" lon="13.760798186233066"><ele>499.2</ele><time>2026-05-03T09:35:21.998Z</time></trkpt><trkpt lat="42.32346949947132" lon="13.760795503447817"><ele>499.0</ele><time>2026-05-03T09:35:22.998Z</time></trkpt><trkpt lat="42.32334520146409" lon="13.760802522144646"><ele>499.0</ele><time>2026-05-03T09:35:23.998Z</time></trkpt><trkpt lat="42.32322334047095" lon="13.760822755081247"><ele>499.0</ele><time>2026-05-03T09:35:24.998Z</time></trkpt><trkpt lat="42.32310389425057" lon="13.76086040162013"><ele>499.0</ele><time>2026-05-03T09:35:25.998Z</time></trkpt><trkpt lat="42.32298740156758" lon="13.760916378940529"><ele>499.0</ele><time>2026-05-03T09:35:26.998Z</time></trkpt><trkpt lat="42.32287137853254" lon="13.760992924980801"><ele>498.5</ele><time>2026-05-03T09:35:27.998Z</time></trkpt><trkpt lat="42.32274890952053" lon="13.761080041918273"><ele>498.0</ele><time>2026-05-03T09:35:28.998Z</time></trkpt><trkpt lat="42.322627921687506" lon="13.76117634167734"><ele>497.5</ele><time>2026-05-03T09:35:29.999Z</time></trkpt><trkpt lat="42.32250380599467" lon="13.76126931331358"><ele>497.0</ele><time>2026-05-03T09:35:30.999Z</time></trkpt><trkpt lat="42.32237925554083" lon="13.761353032458537"><ele>497.0</ele><time>2026-05-03T09:35:31.999Z</time></trkpt><trkpt lat="42.32224901969374" lon="13.761435302834489"><ele>497.0</ele><time>2026-05-03T09:35:32.999Z</time></trkpt><trkpt lat="42.322127651233394" lon="13.761511212250314"><ele>497.0</ele><time>2026-05-03T09:35:33.999Z</time></trkpt><trkpt lat="42.32201358431519" lon="13.761584648413457"><ele>497.0</ele><time>2026-05-03T09:35:34.999Z</time></trkpt><trkpt lat="42.321911211967304" lon="13.761651827823894"><ele>495.16666666666663</ele><time>2026-05-03T09:35:35.999Z</time></trkpt><trkpt lat="42.321826582158685" lon="13.761710718770667"><ele>493.3333333333333</ele><time>2026-05-03T09:35:36.999Z</time></trkpt><trkpt lat="42.32175870110412" lon="13.761756216717746"><ele>491.5</ele><time>2026-05-03T09:35:37.999Z</time></trkpt><trkpt lat="42.321665509376096" lon="13.761806856576325"><ele>489.66666666666663</ele><time>2026-05-03T09:35:39.999Z</time></trkpt><trkpt lat="42.321608826236215" lon="13.761714294433007"><ele>487.8333333333333</ele><time>2026-05-03T09:35:41.999Z</time></trkpt><trkpt lat="42.321549842486554" lon="13.76164474392086"><ele>486.0</ele><time>2026-05-03T09:35:42.999Z</time></trkpt><trkpt lat="42.321492201097186" lon="13.761565518240403"><ele>486.0</ele><time>2026-05-03T09:35:43.999Z</time></trkpt><trkpt lat="42.32145203746096" lon="13.761491394353369"><ele>486.0</ele><time>2026-05-03T09:35:44.999Z</time></trkpt><trkpt lat="42.321423518443154" lon="13.761351024539188"><ele>486.0</ele><time>2026-05-03T09:35:46.999Z</time></trkpt><trkpt lat="42.32140289886367" lon="13.761180880414026"><ele>486.0</ele><time>2026-05-03T09:35:48.999Z</time></trkpt><trkpt lat="42.321400541600354" lon="13.761090187851286"><ele>486.0</ele><time>2026-05-03T09:35:49.999Z</time></trkpt><trkpt lat="42.32137594091288" lon="13.760940195394573"><ele>482.8</ele><time>2026-05-03T09:35:51.999Z</time></trkpt><trkpt lat="42.32133797006495" lon="13.760802781325848"><ele>479.6</ele><time>2026-05-03T09:35:53.999Z</time></trkpt><trkpt lat="42.32129612763155" lon="13.760695975908424"><ele>476.4</ele><time>2026-05-03T09:35:55.999Z</time></trkpt><trkpt lat="42.32125739805905" lon="13.760566268757461"><ele>473.2</ele><time>2026-05-03T09:35:57.999Z</time></trkpt><trkpt lat="42.3212441609911" lon="13.760449050238789"><ele>470.0</ele><time>2026-05-03T09:35:59.999Z</time></trkpt><trkpt lat="42.32111516051821" lon="13.760419938103537"><ele>469.99999999999994</ele><time>2026-05-03T09:36:04.999Z</time></trkpt><trkpt lat="42.321045050190335" lon="13.76045387952724"><ele>470.0</ele><time>2026-05-03T09:36:05.999Z</time></trkpt><trkpt lat="42.320968110438564" lon="13.760498994694562"><ele>470.0</ele><time>2026-05-03T09:36:06.999Z</time></trkpt><trkpt lat="42.32088672945636" lon="13.760553021112502"><ele>470.0</ele><time>2026-05-03T09:36:07.999Z</time></trkpt><trkpt lat="42.32081346896443" lon="13.76060319040847"><ele>469.99999999999994</ele><time>2026-05-03T09:36:08.999Z</time></trkpt><trkpt lat="42.320747474433546" lon="13.760670871086411"><ele>470.0</ele><time>2026-05-03T09:36:09.999Z</time></trkpt><trkpt lat="42.320674117125456" lon="13.760702056863463"><ele>469.99999999999994</ele><time>2026-05-03T09:36:10.999Z</time></trkpt><trkpt lat="42.32060188123834" lon="13.760753172861588"><ele>470.0</ele><time>2026-05-03T09:36:11.999Z</time></trkpt><trkpt lat="42.32053829659195" lon="13.760798167715665"><ele>470.0</ele><time>2026-05-03T09:36:12.999Z</time></trkpt><trkpt lat="42.32046751397185" lon="13.760846845649361"><ele>470.0</ele><time>2026-05-03T09:36:13.999Z</time></trkpt><trkpt lat="42.320388906896675" lon="13.76090953165355"><ele>469.99999999999994</ele><time>2026-05-03T09:36:14.999Z</time></trkpt><trkpt lat="42.320310700687614" lon="13.760981781389395"><ele>470.0</ele><time>2026-05-03T09:36:15.999Z</time></trkpt><trkpt lat="42.320235775108074" lon="13.761063117205095"><ele>469.2</ele><time>2026-05-03T09:36:16.999Z</time></trkpt><trkpt lat="42.32016340676253" lon="13.761161383003527"><ele>468.4</ele><time>2026-05-03T09:36:17.999Z</time></trkpt><trkpt lat="42.3201040695724" lon="13.7612615164154"><ele>467.6</ele><time>2026-05-03T09:36:18.999Z</time></trkpt><trkpt lat="42.32002523568208" lon="13.761356920882058"><ele>466.8</ele><time>2026-05-03T09:36:19.999Z</time></trkpt><trkpt lat="42.3199490792416" lon="13.76143391299803"><ele>466.0</ele><time>2026-05-03T09:36:20.999Z</time></trkpt><trkpt lat="42.31985916522763" lon="13.76151237702853"><ele>466.0</ele><time>2026-05-03T09:36:21.999Z</time></trkpt><trkpt lat="42.319770180377915" lon="13.761583166175328"><ele>466.0</ele><time>2026-05-03T09:36:22.999Z</time></trkpt><trkpt lat="42.31967284807683" lon="13.76165929245982"><ele>466.0</ele><time>2026-05-03T09:36:23.999Z</time></trkpt><trkpt lat="42.31958249965876" lon="13.761730276926322"><ele>466.0</ele><time>2026-05-03T09:36:24.999Z</time></trkpt><trkpt lat="42.31949553815775" lon="13.761800496753033"><ele>466.0</ele><time>2026-05-03T09:36:25.999Z</time></trkpt><trkpt lat="42.319407710994746" lon="13.761871415584508"><ele>465.6</ele><time>2026-05-03T09:36:26.999Z</time></trkpt><trkpt lat="42.31932987868328" lon="13.761958619913736"><ele>465.20000000000005</ele><time>2026-05-03T09:36:27.999Z</time></trkpt><trkpt lat="42.319241492386126" lon="13.76202599898853"><ele>464.79999999999995</ele><time>2026-05-03T09:36:28.999Z</time></trkpt><trkpt lat="42.31914345167912" lon="13.762071231382933"><ele>464.4</ele><time>2026-05-03T09:36:29.999Z</time></trkpt><trkpt lat="42.31904889093207" lon="13.762132959194043"><ele>464.0</ele><time>2026-05-03T09:36:30.999Z</time></trkpt><trkpt lat="42.3189496907958" lon="13.762198314157171"><ele>461.5</ele><time>2026-05-03T09:36:31.999Z</time></trkpt><trkpt lat="42.31884589776762" lon="13.762272066880014"><ele>459.0</ele><time>2026-05-03T09:36:32.999Z</time></trkpt><trkpt lat="42.31873728562121" lon="13.762355129997738"><ele>456.5</ele><time>2026-05-03T09:36:33.999Z</time></trkpt><trkpt lat="42.31862850748053" lon="13.762443535424731"><ele>454.0</ele><time>2026-05-03T09:36:34.999Z</time></trkpt><trkpt lat="42.318515686792985" lon="13.762543417410404"><ele>454.0</ele><time>2026-05-03T09:36:35.999Z</time></trkpt><trkpt lat="42.31840679626953" lon="13.762655950901502"><ele>454.0</ele><time>2026-05-03T09:36:36.999Z</time></trkpt><trkpt lat="42.3183066447316" lon="13.762759874839071"><ele>454.0</ele><time>2026-05-03T09:36:37.999Z</time></trkpt><trkpt lat="42.318204915193235" lon="13.762853710199725"><ele>454.0</ele><time>2026-05-03T09:36:38.999Z</time></trkpt><trkpt lat="42.31810193388321" lon="13.762946061579255"><ele>454.75</ele><time>2026-05-03T09:36:39.999Z</time></trkpt><trkpt lat="42.31799757353919" lon="13.763037685115878"><ele>455.5</ele><time>2026-05-03T09:36:40.999Z</time></trkpt><trkpt lat="42.317895901682576" lon="13.763133303446807"><ele>456.25</ele><time>2026-05-03T09:36:41.999Z</time></trkpt><trkpt lat="42.31780977903496" lon="13.763228969793847"><ele>457.0</ele><time>2026-05-03T09:36:42.999Z</time></trkpt><trkpt lat="42.317736340244345" lon="13.763328854430624"><ele>457.0</ele><time>2026-05-03T09:36:43.998Z</time></trkpt><trkpt lat="42.317659994231704" lon="13.763420656248691"><ele>457.00000000000006</ele><time>2026-05-03T09:36:44.998Z</time></trkpt><trkpt lat="42.317594948075865" lon="13.763512507777852"><ele>457.00000000000006</ele><time>2026-05-03T09:36:45.998Z</time></trkpt><trkpt lat="42.31753671424209" lon="13.763615217812015"><ele>457.0</ele><time>2026-05-03T09:36:46.998Z</time></trkpt><trkpt lat="42.31747860607063" lon="13.763730190683576"><ele>457.0</ele><time>2026-05-03T09:36:47.998Z</time></trkpt><trkpt lat="42.31740853444817" lon="13.763845938209238"><ele>457.5</ele><time>2026-05-03T09:36:48.998Z</time></trkpt><trkpt lat="42.31732531919873" lon="13.763977330413509"><ele>458.0</ele><time>2026-05-03T09:36:49.998Z</time></trkpt><trkpt lat="42.31723948008703" lon="13.764114452377527"><ele>458.5</ele><time>2026-05-03T09:36:50.998Z</time></trkpt><trkpt lat="42.31715600082086" lon="13.764255853831282"><ele>459.0</ele><time>2026-05-03T09:36:51.998Z</time></trkpt><trkpt lat="42.31707209622175" lon="13.76440103641846"><ele>457.75</ele><time>2026-05-03T09:36:52.998Z</time></trkpt><trkpt lat="42.31698889224205" lon="13.764531611137475"><ele>456.5</ele><time>2026-05-03T09:36:53.998Z</time></trkpt><trkpt lat="42.31690241205831" lon="13.764658514779684"><ele>455.25</ele><time>2026-05-03T09:36:54.998Z</time></trkpt><trkpt lat="42.31681283677375" lon="13.764776888347003"><ele>454.0</ele><time>2026-05-03T09:36:55.998Z</time></trkpt><trkpt lat="42.316712314225825" lon="13.764902713962975"><ele>454.0</ele><time>2026-05-03T09:36:56.998Z</time></trkpt><trkpt lat="42.316598086968725" lon="13.765013001204997"><ele>454.0</ele><time>2026-05-03T09:36:57.998Z</time></trkpt><trkpt lat="42.31646502611283" lon="13.765060329689588"><ele>454.0</ele><time>2026-05-03T09:36:58.998Z</time></trkpt><trkpt lat="42.31635543677963" lon="13.765160031629192"><ele>454.0</ele><time>2026-05-03T09:36:59.998Z</time></trkpt><trkpt lat="42.316245967409195" lon="13.765278547263428"><ele>454.75</ele><time>2026-05-03T09:37:00.998Z</time></trkpt><trkpt lat="42.3161238239609" lon="13.765357266227612"><ele>455.5</ele><time>2026-05-03T09:37:01.998Z</time></trkpt><trkpt lat="42.316020048879615" lon="13.76546386370915"><ele>456.25</ele><time>2026-05-03T09:37:02.998Z</time></trkpt><trkpt lat="42.31592829375591" lon="13.76558001455022"><ele>457.0</ele><time>2026-05-03T09:37:03.998Z</time></trkpt><trkpt lat="42.31585374160629" lon="13.76569657627889"><ele>457.0</ele><time>2026-05-03T09:37:04.998Z</time></trkpt><trkpt lat="42.315788597265005" lon="13.765823657451087"><ele>457.0</ele><time>2026-05-03T09:37:05.998Z</time></trkpt><trkpt lat="42.31573188694656" lon="13.765976511003291"><ele>457.0</ele><time>2026-05-03T09:37:06.998Z</time></trkpt><trkpt lat="42.31567314805901" lon="13.766127770481468"><ele>457.0</ele><time>2026-05-03T09:37:07.998Z</time></trkpt><trkpt lat="42.31558772217333" lon="13.766257905422515"><ele>458.0</ele><time>2026-05-03T09:37:08.998Z</time></trkpt><trkpt lat="42.31552960924742" lon="13.766411123312693"><ele>459.0</ele><time>2026-05-03T09:37:09.998Z</time></trkpt><trkpt lat="42.3154450452936" lon="13.766535724639661"><ele>460.0</ele><time>2026-05-03T09:37:10.998Z</time></trkpt><trkpt lat="42.31535116160001" lon="13.76663796482661"><ele>461.0</ele><time>2026-05-03T09:37:11.998Z</time></trkpt><trkpt lat="42.31524640064482" lon="13.766712132083681"><ele>461.0</ele><time>2026-05-03T09:37:12.998Z</time></trkpt><trkpt lat="42.31514308107801" lon="13.766796847115888"><ele>461.0</ele><time>2026-05-03T09:37:13.998Z</time></trkpt><trkpt lat="42.315044246412214" lon="13.76690698780992"><ele>461.0</ele><time>2026-05-03T09:37:14.998Z</time></trkpt><trkpt lat="42.31494398576526" lon="13.767006666368673"><ele>461.0</ele><time>2026-05-03T09:37:15.998Z</time></trkpt><trkpt lat="42.31484472998618" lon="13.7671018079039"><ele>461.75</ele><time>2026-05-03T09:37:16.998Z</time></trkpt><trkpt lat="42.31475368172171" lon="13.76722149773537"><ele>462.5</ele><time>2026-05-03T09:37:17.998Z</time></trkpt><trkpt lat="42.31467042991092" lon="13.76735569463449"><ele>463.25</ele><time>2026-05-03T09:37:18.998Z</time></trkpt><trkpt lat="42.31458020502588" lon="13.767477264082988"><ele>464.0</ele><time>2026-05-03T09:37:19.998Z</time></trkpt><trkpt lat="42.314484411835004" lon="13.767556901412577"><ele>464.0</ele><time>2026-05-03T09:37:20.998Z</time></trkpt><trkpt lat="42.31440489155065" lon="13.76761794572049"><ele>464.0</ele><time>2026-05-03T09:37:21.998Z</time></trkpt><trkpt lat="42.31440526524977" lon="13.767846550173065"><ele>464.0</ele><time>2026-05-03T09:37:22.998Z</time></trkpt><trkpt lat="42.31438933379241" lon="13.76800582047934"><ele>464.0</ele><time>2026-05-03T09:37:23.998Z</time></trkpt><trkpt lat="42.31437653927741" lon="13.768184044822958"><ele>465.25</ele><time>2026-05-03T09:37:24.998Z</time></trkpt><trkpt lat="42.31435723383787" lon="13.768371729128209"><ele>466.5</ele><time>2026-05-03T09:37:25.998Z</time></trkpt><trkpt lat="42.31431146321512" lon="13.768558669516535"><ele>467.75</ele><time>2026-05-03T09:37:26.998Z</time></trkpt><trkpt lat="42.314297285275316" lon="13.768752557269545"><ele>469.0</ele><time>2026-05-03T09:37:27.998Z</time></trkpt><trkpt lat="42.31427034432971" lon="13.768941245648284"><ele>470.5</ele><time>2026-05-03T09:37:28.998Z</time></trkpt><trkpt lat="42.314253778269574" lon="13.76912813396164"><ele>472.0</ele><time>2026-05-03T09:37:29.998Z</time></trkpt><trkpt lat="42.31424510667232" lon="13.769309190262316"><ele>473.5</ele><time>2026-05-03T09:37:30.998Z</time></trkpt><trkpt lat="42.31425029742207" lon="13.769486327181012"><ele>475.0</ele><time>2026-05-03T09:37:31.998Z</time></trkpt><trkpt lat="42.3142404954236" lon="13.769637317849591"><ele>475.1666666666667</ele><time>2026-05-03T09:37:32.998Z</time></trkpt><trkpt lat="42.31423541971688" lon="13.76976028357099"><ele>475.33333333333337</ele><time>2026-05-03T09:37:33.998Z</time></trkpt><trkpt lat="42.31422998429207" lon="13.769858618583122"><ele>475.5</ele><time>2026-05-03T09:37:34.998Z</time></trkpt><trkpt lat="42.314229352564894" lon="13.769945202929296"><ele>475.66666666666663</ele><time>2026-05-03T09:37:35.999Z</time></trkpt><trkpt lat="42.31423393931311" lon="13.770105282954438"><ele>475.8333333333333</ele><time>2026-05-03T09:37:37.999Z</time></trkpt><trkpt lat="42.31423806535972" lon="13.770199388154865"><ele>476.0</ele><time>2026-05-03T09:37:38.999Z</time></trkpt><trkpt lat="42.31424380339255" lon="13.770307018735243"><ele>476.8</ele><time>2026-05-03T09:37:39.999Z</time></trkpt><trkpt lat="42.314250218999724" lon="13.770428058726115"><ele>477.6</ele><time>2026-05-03T09:37:40.999Z</time></trkpt><trkpt lat="42.31425251043685" lon="13.770549791217032"><ele>478.4</ele><time>2026-05-03T09:37:41.999Z</time></trkpt><trkpt lat="42.31425320448617" lon="13.77067197537742"><ele>479.2</ele><time>2026-05-03T09:37:42.999Z</time></trkpt><trkpt lat="42.314253368583614" lon="13.77079271217711"><ele>480.0</ele><time>2026-05-03T09:37:43.999Z</time></trkpt><trkpt lat="42.31424550037876" lon="13.770918292684362"><ele>482.0</ele><time>2026-05-03T09:37:44.999Z</time></trkpt><trkpt lat="42.314226049187646" lon="13.771025797506283"><ele>484.0</ele><time>2026-05-03T09:37:45.999Z</time></trkpt><trkpt lat="42.31419152887217" lon="13.771119401011688"><ele>486.0</ele><time>2026-05-03T09:37:46.999Z</time></trkpt><trkpt lat="42.31414973404013" lon="13.771210087626654"><ele>488.0</ele><time>2026-05-03T09:37:47.999Z</time></trkpt><trkpt lat="42.31410391192973" lon="13.771322941792192"><ele>490.0</ele><time>2026-05-03T09:37:48.999Z</time></trkpt><trkpt lat="42.31405283244155" lon="13.771447072552071"><ele>492.0</ele><time>2026-05-03T09:37:49.999Z</time></trkpt><trkpt lat="42.313992487965926" lon="13.771577277766628"><ele>492.0</ele><time>2026-05-03T09:37:50.999Z</time></trkpt><trkpt lat="42.313938162390905" lon="13.771716388100202"><ele>492.00000000000006</ele><time>2026-05-03T09:37:51.999Z</time></trkpt><trkpt lat="42.313891007560564" lon="13.771851211485346"><ele>492.00000000000006</ele><time>2026-05-03T09:37:52.999Z</time></trkpt><trkpt lat="42.31382292451085" lon="13.771953179813744"><ele>492.0</ele><time>2026-05-03T09:37:53.999Z</time></trkpt><trkpt lat="42.31376209214272" lon="13.772047639282878"><ele>492.0</ele><time>2026-05-03T09:37:54.999Z</time></trkpt><trkpt lat="42.31369624068999" lon="13.772136335813558"><ele>491.6</ele><time>2026-05-03T09:37:55.999Z</time></trkpt><trkpt lat="42.313615530685674" lon="13.772210349815518"><ele>491.20000000000005</ele><time>2026-05-03T09:37:56.999Z</time></trkpt><trkpt lat="42.313524286275815" lon="13.772291219769185"><ele>490.8</ele><time>2026-05-03T09:37:57.999Z</time></trkpt><trkpt lat="42.313422248913845" lon="13.772346167958839"><ele>490.4</ele><time>2026-05-03T09:37:58.999Z</time></trkpt><trkpt lat="42.31332391315771" lon="13.772446109875913"><ele>490.0</ele><time>2026-05-03T09:37:59.999Z</time></trkpt><trkpt lat="42.31324501916117" lon="13.77256866175702"><ele>490.25</ele><time>2026-05-03T09:38:00.999Z</time></trkpt><trkpt lat="42.31316306415216" lon="13.772691308717777"><ele>490.5</ele><time>2026-05-03T09:38:01.999Z</time></trkpt><trkpt lat="42.31308184851913" lon="13.772817786663527"><ele>490.75</ele><time>2026-05-03T09:38:02.999Z</time></trkpt><trkpt lat="42.31302619057854" lon="13.772961350314267"><ele>491.0</ele><time>2026-05-03T09:38:03.999Z</time></trkpt><trkpt lat="42.31298145728006" lon="13.773107916932398"><ele>491.0</ele><time>2026-05-03T09:38:04.999Z</time></trkpt><trkpt lat="42.31296061380549" lon="13.773256974495643"><ele>491.0</ele><time>2026-05-03T09:38:05.999Z</time></trkpt><trkpt lat="42.312954457027395" lon="13.773405544030394"><ele>491.0</ele><time>2026-05-03T09:38:06.999Z</time></trkpt><trkpt lat="42.3129352089165" lon="13.773532440733195"><ele>491.0</ele><time>2026-05-03T09:38:07.999Z</time></trkpt><trkpt lat="42.31289016580658" lon="13.773648541521938"><ele>491.0</ele><time>2026-05-03T09:38:08.999Z</time></trkpt><trkpt lat="42.31284088957453" lon="13.773748864596952"><ele>494.0</ele><time>2026-05-03T09:38:09.999Z</time></trkpt><trkpt lat="42.31278554575668" lon="13.773830822020805"><ele>497.0</ele><time>2026-05-03T09:38:10.999Z</time></trkpt><trkpt lat="42.31271594316858" lon="13.773883340061968"><ele>500.0</ele><time>2026-05-03T09:38:11.999Z</time></trkpt><trkpt lat="42.31262827390902" lon="13.773923685522856"><ele>503.0</ele><time>2026-05-03T09:38:12.999Z</time></trkpt><trkpt lat="42.3125345832407" lon="13.773966489182035"><ele>506.0</ele><time>2026-05-03T09:38:13.999Z</time></trkpt><trkpt lat="42.3124319928231" lon="13.774015168313676"><ele>506.0</ele><time>2026-05-03T09:38:14.999Z</time></trkpt><trkpt lat="42.312338087534094" lon="13.774075479196291"><ele>506.0</ele><time>2026-05-03T09:38:15.999Z</time></trkpt><trkpt lat="42.31224273756249" lon="13.774146269750519"><ele>506.0</ele><time>2026-05-03T09:38:16.999Z</time></trkpt><trkpt lat="42.31216291221244" lon="13.774234735702215"><ele>506.0</ele><time>2026-05-03T09:38:17.999Z</time></trkpt><trkpt lat="42.31209079988475" lon="13.774348359698406"><ele>506.0</ele><time>2026-05-03T09:38:18.999Z</time></trkpt><trkpt lat="42.31200013809263" lon="13.774467181688186"><ele>506.75</ele><time>2026-05-03T09:38:19.999Z</time></trkpt><trkpt lat="42.31192705673553" lon="13.77460246892655"><ele>507.5</ele><time>2026-05-03T09:38:20.999Z</time></trkpt><trkpt lat="42.31186644317189" lon="13.774753150578498"><ele>508.25</ele><time>2026-05-03T09:38:21.999Z</time></trkpt><trkpt lat="42.31178799906686" lon="13.774890877380907"><ele>509.0</ele><time>2026-05-03T09:38:22.999Z</time></trkpt><trkpt lat="42.31171473884118" lon="13.775029524692238"><ele>509.0</ele><time>2026-05-03T09:38:23.999Z</time></trkpt><trkpt lat="42.31164213317333" lon="13.775170570932348"><ele>509.0</ele><time>2026-05-03T09:38:24.999Z</time></trkpt><trkpt lat="42.31156198153303" lon="13.775312976630383"><ele>509.0</ele><time>2026-05-03T09:38:25.999Z</time></trkpt><trkpt lat="42.31147536083539" lon="13.775451050091727"><ele>509.0</ele><time>2026-05-03T09:38:26.999Z</time></trkpt><trkpt lat="42.3113945061035" lon="13.775603873067945"><ele>508.75</ele><time>2026-05-03T09:38:27.999Z</time></trkpt><trkpt lat="42.31131200820056" lon="13.775759615432007"><ele>508.5</ele><time>2026-05-03T09:38:28.999Z</time></trkpt><trkpt lat="42.31121453921546" lon="13.775903695151895"><ele>508.25</ele><time>2026-05-03T09:38:29.999Z</time></trkpt><trkpt lat="42.31111714194548" lon="13.776035823179559"><ele>508.0</ele><time>2026-05-03T09:38:30.999Z</time></trkpt><trkpt lat="42.31102564495837" lon="13.776174718951467"><ele>508.0</ele><time>2026-05-03T09:38:31.999Z</time></trkpt><trkpt lat="42.31090337171511" lon="13.776314435183586"><ele>508.0</ele><time>2026-05-03T09:38:32.999Z</time></trkpt><trkpt lat="42.310834309771444" lon="13.776431283322527"><ele>508.0</ele><time>2026-05-03T09:38:33.999Z</time></trkpt><trkpt lat="42.310742095494426" lon="13.7765653620972"><ele>508.0</ele><time>2026-05-03T09:38:34.999Z</time></trkpt><trkpt lat="42.31065158307981" lon="13.77669730696752"><ele>504.0</ele><time>2026-05-03T09:38:35.999Z</time></trkpt><trkpt lat="42.31056690196148" lon="13.776836033434668"><ele>500.0</ele><time>2026-05-03T09:38:36.999Z</time></trkpt><trkpt lat="42.31049061996957" lon="13.77697980294937"><ele>496.0</ele><time>2026-05-03T09:38:37.999Z</time></trkpt><trkpt lat="42.31042078503724" lon="13.77713130999583"><ele>492.0</ele><time>2026-05-03T09:38:38.999Z</time></trkpt><trkpt lat="42.31034949648548" lon="13.777288106781002"><ele>492.0</ele><time>2026-05-03T09:38:39.999Z</time></trkpt><trkpt lat="42.31028750314403" lon="13.77746013703809"><ele>492.0</ele><time>2026-05-03T09:38:40.999Z</time></trkpt><trkpt lat="42.31022426570007" lon="13.777637281002365"><ele>492.0</ele><time>2026-05-03T09:38:41.999Z</time></trkpt><trkpt lat="42.310163610236216" lon="13.777813369824923"><ele>492.0</ele><time>2026-05-03T09:38:42.999Z</time></trkpt><trkpt lat="42.31011099048824" lon="13.777992048026118"><ele>493.0</ele><time>2026-05-03T09:38:43.999Z</time></trkpt><trkpt lat="42.31005807098705" lon="13.778171678956754"><ele>494.0</ele><time>2026-05-03T09:38:44.999Z</time></trkpt><trkpt lat="42.3100014559375" lon="13.778353133977106"><ele>495.0</ele><time>2026-05-03T09:38:45.999Z</time></trkpt><trkpt lat="42.30992416831385" lon="13.778512225440492"><ele>496.0</ele><time>2026-05-03T09:38:46.999Z</time></trkpt><trkpt lat="42.30987345024215" lon="13.778678203516053"><ele>496.75</ele><time>2026-05-03T09:38:47.999Z</time></trkpt><trkpt lat="42.30979571897348" lon="13.77882095122508"><ele>497.5</ele><time>2026-05-03T09:38:48.999Z</time></trkpt><trkpt lat="42.309723456168435" lon="13.778955318852669"><ele>498.25</ele><time>2026-05-03T09:38:49.999Z</time></trkpt><trkpt lat="42.309657704045804" lon="13.779090817310488"><ele>499.0</ele><time>2026-05-03T09:38:50.999Z</time></trkpt><trkpt lat="42.30959652693587" lon="13.77922442871085"><ele>496.2</ele><time>2026-05-03T09:38:51.999Z</time></trkpt><trkpt lat="42.30954035649073" lon="13.779350436464185"><ele>493.4</ele><time>2026-05-03T09:38:52.999Z</time></trkpt><trkpt lat="42.309491532513164" lon="13.779455422391878"><ele>490.6</ele><time>2026-05-03T09:38:53.999Z</time></trkpt><trkpt lat="42.30942943692965" lon="13.779515664172258"><ele>487.8</ele><time>2026-05-03T09:38:54.999Z</time></trkpt><trkpt lat="42.309382005844355" lon="13.779597468427006"><ele>485.0</ele><time>2026-05-03T09:38:55.999Z</time></trkpt><trkpt lat="42.30929436401316" lon="13.779665212619458"><ele>485.0</ele><time>2026-05-03T09:38:56.999Z</time></trkpt><trkpt lat="42.30920807841335" lon="13.779744539012185"><ele>485.0</ele><time>2026-05-03T09:38:57.999Z</time></trkpt><trkpt lat="42.30913124033321" lon="13.779827757437369"><ele>485.0</ele><time>2026-05-03T09:38:58.999Z</time></trkpt><trkpt lat="42.30905754948711" lon="13.779912941846012"><ele>485.0</ele><time>2026-05-03T09:38:59.999Z</time></trkpt><trkpt lat="42.30899238095999" lon="13.78000300901838"><ele>485.0</ele><time>2026-05-03T09:39:00.999Z</time></trkpt><trkpt lat="42.30893333117326" lon="13.780093263434695"><ele>482.4</ele><time>2026-05-03T09:39:01.999Z</time></trkpt><trkpt lat="42.30886681939803" lon="13.78016803841757"><ele>479.8</ele><time>2026-05-03T09:39:02.999Z</time></trkpt><trkpt lat="42.308819081113896" lon="13.78026856759627"><ele>477.20000000000005</ele><time>2026-05-03T09:39:03.999Z</time></trkpt><trkpt lat="42.30877956988736" lon="13.780377309749335"><ele>474.6</ele><time>2026-05-03T09:39:04.999Z</time></trkpt><trkpt lat="42.30874807224283" lon="13.780503957768074"><ele>472.0</ele><time>2026-05-03T09:39:05.999Z</time></trkpt><trkpt lat="42.30873249358479" lon="13.78064734058004"><ele>472.0</ele><time>2026-05-03T09:39:06.998Z</time></trkpt><trkpt lat="42.308688171320476" lon="13.780787098214033"><ele>472.0</ele><time>2026-05-03T09:39:07.998Z</time></trkpt><trkpt lat="42.308643157821066" lon="13.78093617422649"><ele>472.0</ele><time>2026-05-03T09:39:08.998Z</time></trkpt><trkpt lat="42.308595872164275" lon="13.78108414568638"><ele>472.0</ele><time>2026-05-03T09:39:09.998Z</time></trkpt><trkpt lat="42.30855314590372" lon="13.781236819061881"><ele>472.75</ele><time>2026-05-03T09:39:10.998Z</time></trkpt><trkpt lat="42.30850538724065" lon="13.78138894845975"><ele>473.5</ele><time>2026-05-03T09:39:11.998Z</time></trkpt><trkpt lat="42.30845507569457" lon="13.781539812854465"><ele>474.25</ele><time>2026-05-03T09:39:12.998Z</time></trkpt><trkpt lat="42.30841227712952" lon="13.781695612282808"><ele>475.0</ele><time>2026-05-03T09:39:13.998Z</time></trkpt><trkpt lat="42.308390988725485" lon="13.781863773862026"><ele>475.5</ele><time>2026-05-03T09:39:14.998Z</time></trkpt><trkpt lat="42.30836104181772" lon="13.782036314555521"><ele>476.0</ele><time>2026-05-03T09:39:15.998Z</time></trkpt><trkpt lat="42.3083282732703" lon="13.78220209157955"><ele>476.5</ele><time>2026-05-03T09:39:16.998Z</time></trkpt><trkpt lat="42.308294241201224" lon="13.782365389272119"><ele>477.0</ele><time>2026-05-03T09:39:17.998Z</time></trkpt><trkpt lat="42.308268397940424" lon="13.782511262173317"><ele>477.0</ele><time>2026-05-03T09:39:18.998Z</time></trkpt><trkpt lat="42.308241423399906" lon="13.782655396152965"><ele>477.00000000000006</ele><time>2026-05-03T09:39:19.998Z</time></trkpt><trkpt lat="42.30820913513958" lon="13.782789006257891"><ele>477.00000000000006</ele><time>2026-05-03T09:39:20.998Z</time></trkpt><trkpt lat="42.30816432683175" lon="13.782916390817414"><ele>477.0</ele><time>2026-05-03T09:39:21.998Z</time></trkpt><trkpt lat="42.30811043653011" lon="13.783049325055194"><ele>477.0</ele><time>2026-05-03T09:39:22.998Z</time></trkpt><trkpt lat="42.308046634631786" lon="13.783177288215082"><ele>477.75</ele><time>2026-05-03T09:39:23.998Z</time></trkpt><trkpt lat="42.30797647311201" lon="13.783307291540492"><ele>478.5</ele><time>2026-05-03T09:39:24.998Z</time></trkpt><trkpt lat="42.30790480243906" lon="13.783437224900826"><ele>479.25</ele><time>2026-05-03T09:39:25.998Z</time></trkpt><trkpt lat="42.30782436862675" lon="13.783558605515108"><ele>480.0</ele><time>2026-05-03T09:39:26.998Z</time></trkpt><trkpt lat="42.30773689667115" lon="13.783667866019256"><ele>480.0</ele><time>2026-05-03T09:39:27.998Z</time></trkpt><trkpt lat="42.30765380321589" lon="13.783778954589383"><ele>480.0</ele><time>2026-05-03T09:39:28.998Z</time></trkpt><trkpt lat="42.307570869952684" lon="13.783891785789875"><ele>480.0</ele><time>2026-05-03T09:39:29.998Z</time></trkpt><trkpt lat="42.30749151761164" lon="13.784007048666101"><ele>480.0</ele><time>2026-05-03T09:39:30.998Z</time></trkpt><trkpt lat="42.30741661342524" lon="13.78412613402322"><ele>480.0</ele><time>2026-05-03T09:39:31.998Z</time></trkpt><trkpt lat="42.30734926868444" lon="13.784244155562234"><ele>480.0</ele><time>2026-05-03T09:39:32.998Z</time></trkpt><trkpt lat="42.30727252250992" lon="13.784350386293353"><ele>480.0</ele><time>2026-05-03T09:39:33.998Z</time></trkpt><trkpt lat="42.30718806189476" lon="13.78445224849081"><ele>480.0</ele><time>2026-05-03T09:39:34.998Z</time></trkpt><trkpt lat="42.30710333253911" lon="13.784548058499805"><ele>480.0</ele><time>2026-05-03T09:39:35.998Z</time></trkpt><trkpt lat="42.307018698857576" lon="13.78464123490958"><ele>480.6</ele><time>2026-05-03T09:39:36.998Z</time></trkpt><trkpt lat="42.30693085557902" lon="13.7847308395471"><ele>481.2</ele><time>2026-05-03T09:39:37.998Z</time></trkpt><trkpt lat="42.30684464137775" lon="13.78481515197033"><ele>481.79999999999995</ele><time>2026-05-03T09:39:38.998Z</time></trkpt><trkpt lat="42.306761445980264" lon="13.784903455992868"><ele>482.4</ele><time>2026-05-03T09:39:39.998Z</time></trkpt><trkpt lat="42.306683352696105" lon="13.78499340314498"><ele>483.0</ele><time>2026-05-03T09:39:40.998Z</time></trkpt><trkpt lat="42.30660040145001" lon="13.785055326663224"><ele>483.0</ele><time>2026-05-03T09:39:41.999Z</time></trkpt><trkpt lat="42.30652119210108" lon="13.785130354635863"><ele>482.99999999999994</ele><time>2026-05-03T09:39:42.999Z</time></trkpt><trkpt lat="42.30643796470017" lon="13.78520815145007"><ele>482.99999999999994</ele><time>2026-05-03T09:39:43.999Z</time></trkpt><trkpt lat="42.30635359274921" lon="13.785287018175358"><ele>483.0</ele><time>2026-05-03T09:39:44.999Z</time></trkpt><trkpt lat="42.30626830949201" lon="13.785370164255117"><ele>483.0</ele><time>2026-05-03T09:39:45.999Z</time></trkpt><trkpt lat="42.306182304688214" lon="13.78546787096845"><ele>483.0</ele><time>2026-05-03T09:39:46.999Z</time></trkpt><trkpt lat="42.30611201787618" lon="13.785591359242519"><ele>483.0</ele><time>2026-05-03T09:39:47.999Z</time></trkpt><trkpt lat="42.306049329131866" lon="13.785710413624674"><ele>483.0</ele><time>2026-05-03T09:39:48.999Z</time></trkpt><trkpt lat="42.305997583060375" lon="13.785849832687266"><ele>483.0</ele><time>2026-05-03T09:39:49.999Z</time></trkpt><trkpt lat="42.305953176828034" lon="13.786001515779342"><ele>485.25</ele><time>2026-05-03T09:39:50.999Z</time></trkpt><trkpt lat="42.3059204118162" lon="13.78616772384628"><ele>487.5</ele><time>2026-05-03T09:39:51.999Z</time></trkpt><trkpt lat="42.30587979329881" lon="13.786331759739996"><ele>489.75</ele><time>2026-05-03T09:39:52.999Z</time></trkpt><trkpt lat="42.305838141192986" lon="13.786497915561803"><ele>492.0</ele><time>2026-05-03T09:39:53.999Z</time></trkpt><trkpt lat="42.30578869803714" lon="13.786660847331298"><ele>492.0</ele><time>2026-05-03T09:39:54.999Z</time></trkpt><trkpt lat="42.30572507526663" lon="13.786814447663444"><ele>492.0</ele><time>2026-05-03T09:39:55.999Z</time></trkpt><trkpt lat="42.30565869929133" lon="13.786973773929374"><ele>492.0</ele><time>2026-05-03T09:39:56.999Z</time></trkpt><trkpt lat="42.30558641044168" lon="13.787122894609398"><ele>492.0</ele><time>2026-05-03T09:39:57.999Z</time></trkpt><trkpt lat="42.305508252977226" lon="13.787273751721152"><ele>492.5</ele><time>2026-05-03T09:39:58.999Z</time></trkpt><trkpt lat="42.30543261567518" lon="13.787425087395011"><ele>493.0</ele><time>2026-05-03T09:39:59.999Z</time></trkpt><trkpt lat="42.30534140122821" lon="13.787566194981357"><ele>493.5</ele><time>2026-05-03T09:40:00.999Z</time></trkpt><trkpt lat="42.305248118495605" lon="13.787694575205183"><ele>494.0</ele><time>2026-05-03T09:40:01.999Z</time></trkpt><trkpt lat="42.305168642180746" lon="13.787835585862233"><ele>494.0</ele><time>2026-05-03T09:40:02.999Z</time></trkpt><trkpt lat="42.3050924161628" lon="13.788010045151232"><ele>494.0</ele><time>2026-05-03T09:40:03.999Z</time></trkpt><trkpt lat="42.30501358362626" lon="13.78815330821748"><ele>494.0</ele><time>2026-05-03T09:40:04.999Z</time></trkpt><trkpt lat="42.3049324316196" lon="13.788302515526858"><ele>494.0</ele><time>2026-05-03T09:40:05.999Z</time></trkpt><trkpt lat="42.30485254339069" lon="13.788459646574736"><ele>491.5</ele><time>2026-05-03T09:40:06.999Z</time></trkpt><trkpt lat="42.304762820846435" lon="13.788605618420814"><ele>489.0</ele><time>2026-05-03T09:40:07.999Z</time></trkpt><trkpt lat="42.30467928307113" lon="13.788731104908894"><ele>486.5</ele><time>2026-05-03T09:40:08.999Z</time></trkpt><trkpt lat="42.30459735369622" lon="13.78882281192694"><ele>484.0</ele><time>2026-05-03T09:40:09.999Z</time></trkpt><trkpt lat="42.3045053381538" lon="13.788906685053156"><ele>484.0</ele><time>2026-05-03T09:40:10.999Z</time></trkpt><trkpt lat="42.30440691246294" lon="13.788990990735444"><ele>484.0</ele><time>2026-05-03T09:40:11.999Z</time></trkpt><trkpt lat="42.30431935946891" lon="13.789079743481064"><ele>484.0</ele><time>2026-05-03T09:40:12.999Z</time></trkpt><trkpt lat="42.30425810129621" lon="13.78920401469693"><ele>484.0</ele><time>2026-05-03T09:40:13.999Z</time></trkpt><trkpt lat="42.30418859735055" lon="13.789344045756577"><ele>485.75</ele><time>2026-05-03T09:40:14.999Z</time></trkpt><trkpt lat="42.30413249390351" lon="13.789513505867388"><ele>487.5</ele><time>2026-05-03T09:40:15.999Z</time></trkpt><trkpt lat="42.304075784889314" lon="13.789670991782108"><ele>489.25</ele><time>2026-05-03T09:40:16.999Z</time></trkpt><trkpt lat="42.30401524045758" lon="13.789816200908348"><ele>491.0</ele><time>2026-05-03T09:40:17.999Z</time></trkpt><trkpt lat="42.303951575113246" lon="13.789953676221288"><ele>488.25</ele><time>2026-05-03T09:40:18.999Z</time></trkpt><trkpt lat="42.30386780088263" lon="13.790075171620185"><ele>485.5</ele><time>2026-05-03T09:40:19.999Z</time></trkpt><trkpt lat="42.303778268602386" lon="13.790184967913603"><ele>482.75</ele><time>2026-05-03T09:40:20.999Z</time></trkpt><trkpt lat="42.30369854593269" lon="13.79029355481357"><ele>480.0</ele><time>2026-05-03T09:40:21.999Z</time></trkpt><trkpt lat="42.30362470161595" lon="13.790401807066164"><ele>480.0</ele><time>2026-05-03T09:40:22.999Z</time></trkpt><trkpt lat="42.30356221405963" lon="13.790513453131425"><ele>480.0</ele><time>2026-05-03T09:40:23.999Z</time></trkpt><trkpt lat="42.303510662266376" lon="13.790637451905871"><ele>480.0</ele><time>2026-05-03T09:40:24.999Z</time></trkpt><trkpt lat="42.30346839272023" lon="13.790775981067238"><ele>480.0</ele><time>2026-05-03T09:40:25.999Z</time></trkpt><trkpt lat="42.303421642005816" lon="13.79091517030129"><ele>480.0</ele><time>2026-05-03T09:40:26.999Z</time></trkpt><trkpt lat="42.30336172167311" lon="13.791041443695187"><ele>480.4</ele><time>2026-05-03T09:40:27.999Z</time></trkpt><trkpt lat="42.30330215343636" lon="13.791151926007931"><ele>480.8</ele><time>2026-05-03T09:40:28.999Z</time></trkpt><trkpt lat="42.303233516977286" lon="13.791256027942302"><ele>481.20000000000005</ele><time>2026-05-03T09:40:29.999Z</time></trkpt><trkpt lat="42.30315020995162" lon="13.791350231465158"><ele>481.6</ele><time>2026-05-03T09:40:30.999Z</time></trkpt><trkpt lat="42.3030618845632" lon="13.791417127538832"><ele>482.0</ele><time>2026-05-03T09:40:31.999Z</time></trkpt><trkpt lat="42.30299082346504" lon="13.79143020359897"><ele>482.0</ele><time>2026-05-03T09:40:32.999Z</time></trkpt><trkpt lat="42.30291688806165" lon="13.791426454560911"><ele>482.00000000000006</ele><time>2026-05-03T09:40:33.999Z</time></trkpt><trkpt lat="42.302836033309674" lon="13.791410814127081"><ele>482.00000000000006</ele><time>2026-05-03T09:40:34.999Z</time></trkpt><trkpt lat="42.30272923018645" lon="13.791438866312259"><ele>482.0</ele><time>2026-05-03T09:40:35.999Z</time></trkpt><trkpt lat="42.30261924790587" lon="13.791395115134009"><ele>482.0</ele><time>2026-05-03T09:40:36.999Z</time></trkpt><trkpt lat="42.302506294063164" lon="13.791366050166014"><ele>482.0</ele><time>2026-05-03T09:40:37.999Z</time></trkpt><trkpt lat="42.3023920503184" lon="13.791365514757832"><ele>482.0</ele><time>2026-05-03T09:40:38.999Z</time></trkpt><trkpt lat="42.302286232364274" lon="13.791394442721645"><ele>482.0</ele><time>2026-05-03T09:40:39.999Z</time></trkpt><trkpt lat="42.30217067003055" lon="13.791403258175121"><ele>482.0</ele><time>2026-05-03T09:40:40.999Z</time></trkpt><trkpt lat="42.30205200619635" lon="13.79142931577951"><ele>479.25</ele><time>2026-05-03T09:40:41.999Z</time></trkpt><trkpt lat="42.30193063587293" lon="13.791457625166661"><ele>476.5</ele><time>2026-05-03T09:40:42.999Z</time></trkpt><trkpt lat="42.30180848185807" lon="13.791511951437137"><ele>473.75</ele><time>2026-05-03T09:40:43.999Z</time></trkpt><trkpt lat="42.30167957269208" lon="13.791523751007482"><ele>471.0</ele><time>2026-05-03T09:40:44.999Z</time></trkpt><trkpt lat="42.301551690854396" lon="13.791558456017723"><ele>471.0</ele><time>2026-05-03T09:40:45.999Z</time></trkpt><trkpt lat="42.30142359737505" lon="13.791592813449405"><ele>471.0</ele><time>2026-05-03T09:40:46.999Z</time></trkpt><trkpt lat="42.30129615924967" lon="13.79162543600893"><ele>471.0</ele><time>2026-05-03T09:40:47.999Z</time></trkpt><trkpt lat="42.301171318031365" lon="13.791656561845567"><ele>471.0</ele><time>2026-05-03T09:40:48.999Z</time></trkpt><trkpt lat="42.30105082456049" lon="13.79168716448789"><ele>473.0</ele><time>2026-05-03T09:40:49.999Z</time></trkpt><trkpt lat="42.300930069902506" lon="13.791720443910076"><ele>475.0</ele><time>2026-05-03T09:40:50.999Z</time></trkpt><trkpt lat="42.300811769620786" lon="13.791757437375693"><ele>477.0</ele><time>2026-05-03T09:40:51.999Z</time></trkpt><trkpt lat="42.30071041502842" lon="13.791811085089773"><ele>479.0</ele><time>2026-05-03T09:40:52.999Z</time></trkpt><trkpt lat="42.300610445355204" lon="13.791842275612346"><ele>475.79999999999995</ele><time>2026-05-03T09:40:53.999Z</time></trkpt><trkpt lat="42.30052367009892" lon="13.791881194950987"><ele>472.59999999999997</ele><time>2026-05-03T09:40:54.999Z</time></trkpt><trkpt lat="42.300435417051624" lon="13.791921884206339"><ele>469.4</ele><time>2026-05-03T09:40:55.999Z</time></trkpt><trkpt lat="42.300344304991754" lon="13.791978389567669"><ele>466.2</ele><time>2026-05-03T09:40:56.999Z</time></trkpt><trkpt lat="42.30025077718512" lon="13.792033499143502"><ele>463.0</ele><time>2026-05-03T09:40:57.999Z</time></trkpt><trkpt lat="42.30015549777615" lon="13.792090679954045"><ele>463.0</ele><time>2026-05-03T09:40:58.999Z</time></trkpt><trkpt lat="42.30005870960414" lon="13.792154523986833"><ele>463.0</ele><time>2026-05-03T09:40:59.999Z</time></trkpt><trkpt lat="42.2999551117276" lon="13.792212094441123"><ele>463.0</ele><time>2026-05-03T09:41:00.999Z</time></trkpt><trkpt lat="42.29984749860225" lon="13.792258731281775"><ele>463.0</ele><time>2026-05-03T09:41:01.999Z</time></trkpt><trkpt lat="42.29972592871005" lon="13.792303040040784"><ele>459.0</ele><time>2026-05-03T09:41:02.999Z</time></trkpt><trkpt lat="42.29960095458733" lon="13.792343071916472"><ele>455.0</ele><time>2026-05-03T09:41:03.999Z</time></trkpt><trkpt lat="42.29947472269269" lon="13.79239163134856"><ele>451.0</ele><time>2026-05-03T09:41:04.999Z</time></trkpt><trkpt lat="42.29934471779039" lon="13.792417446963839"><ele>447.0</ele><time>2026-05-03T09:41:05.999Z</time></trkpt><trkpt lat="42.299221725424985" lon="13.792476760694209"><ele>447.0</ele><time>2026-05-03T09:41:06.999Z</time></trkpt><trkpt lat="42.29909729079773" lon="13.792513575344765"><ele>447.0</ele><time>2026-05-03T09:41:07.999Z</time></trkpt><trkpt lat="42.29896822101469" lon="13.79254831670185"><ele>447.0</ele><time>2026-05-03T09:41:08.999Z</time></trkpt><trkpt lat="42.29883838277675" lon="13.79258220252396"><ele>447.0</ele><time>2026-05-03T09:41:09.999Z</time></trkpt><trkpt lat="42.2987140857277" lon="13.792633955284817"><ele>448.25</ele><time>2026-05-03T09:41:10.999Z</time></trkpt><trkpt lat="42.29858667070197" lon="13.792682186771266"><ele>449.5</ele><time>2026-05-03T09:41:11.999Z</time></trkpt><trkpt lat="42.298455787610926" lon="13.792736054490911"><ele>450.75</ele><time>2026-05-03T09:41:12.999Z</time></trkpt><trkpt lat="42.298330575373114" lon="13.792794125018387"><ele>452.0</ele><time>2026-05-03T09:41:13.999Z</time></trkpt><trkpt lat="42.298206005140095" lon="13.792855680157468"><ele>452.0</ele><time>2026-05-03T09:41:14.999Z</time></trkpt><trkpt lat="42.298086304068924" lon="13.792924514356914"><ele>452.0</ele><time>2026-05-03T09:41:15.999Z</time></trkpt><trkpt lat="42.29798125664396" lon="13.79296784544468"><ele>452.0</ele><time>2026-05-03T09:41:16.999Z</time></trkpt><trkpt lat="42.29787719948019" lon="13.792934289262336"><ele>452.0</ele><time>2026-05-03T09:41:17.999Z</time></trkpt><trkpt lat="42.29776821516108" lon="13.7929086927671"><ele>450.25</ele><time>2026-05-03T09:41:18.999Z</time></trkpt><trkpt lat="42.2976455721061" lon="13.792866123689642"><ele>448.5</ele><time>2026-05-03T09:41:19.999Z</time></trkpt><trkpt lat="42.297512551532066" lon="13.79282048029196"><ele>446.75</ele><time>2026-05-03T09:41:20.999Z</time></trkpt><trkpt lat="42.29738177452838" lon="13.792796028365828"><ele>445.0</ele><time>2026-05-03T09:41:21.999Z</time></trkpt><trkpt lat="42.29725843937468" lon="13.792743278219378"><ele>442.25</ele><time>2026-05-03T09:41:22.999Z</time></trkpt><trkpt lat="42.29713753202554" lon="13.79270167285307"><ele>439.5</ele><time>2026-05-03T09:41:23.999Z</time></trkpt><trkpt lat="42.29701791722468" lon="13.792668979938338"><ele>436.75</ele><time>2026-05-03T09:41:24.999Z</time></trkpt><trkpt lat="42.296897138449424" lon="13.792661677103169"><ele>434.0</ele><time>2026-05-03T09:41:25.999Z</time></trkpt><trkpt lat="42.296769932074135" lon="13.792683926289582"><ele>434.0</ele><time>2026-05-03T09:41:26.999Z</time></trkpt><trkpt lat="42.29664203386965" lon="13.792752163560042"><ele>434.0</ele><time>2026-05-03T09:41:27.999Z</time></trkpt><trkpt lat="42.29652550958151" lon="13.792849227636188"><ele>434.0</ele><time>2026-05-03T09:41:28.999Z</time></trkpt><trkpt lat="42.29641573037595" lon="13.792965190166594"><ele>434.0</ele><time>2026-05-03T09:41:29.999Z</time></trkpt><trkpt lat="42.29629574936791" lon="13.793056261026425"><ele>430.5</ele><time>2026-05-03T09:41:30.999Z</time></trkpt><trkpt lat="42.29618357390298" lon="13.79315100663198"><ele>427.0</ele><time>2026-05-03T09:41:31.999Z</time></trkpt><trkpt lat="42.29608275397034" lon="13.793243177111162"><ele>423.5</ele><time>2026-05-03T09:41:32.999Z</time></trkpt><trkpt lat="42.29600197070699" lon="13.793356899365035"><ele>420.0</ele><time>2026-05-03T09:41:33.999Z</time></trkpt><trkpt lat="42.295927595110896" lon="13.79347950440782"><ele>421.0</ele><time>2026-05-03T09:41:34.999Z</time></trkpt><trkpt lat="42.295872620536215" lon="13.793635816768804"><ele>422.0</ele><time>2026-05-03T09:41:35.999Z</time></trkpt><trkpt lat="42.29583830166657" lon="13.793813232725608"><ele>423.0</ele><time>2026-05-03T09:41:36.999Z</time></trkpt><trkpt lat="42.29578339281216" lon="13.793966794959774"><ele>424.0</ele><time>2026-05-03T09:41:37.999Z</time></trkpt><trkpt lat="42.295722296021275" lon="13.794107937298898"><ele>424.0</ele><time>2026-05-03T09:41:38.999Z</time></trkpt><trkpt lat="42.29564947265876" lon="13.794223048805057"><ele>424.0</ele><time>2026-05-03T09:41:39.999Z</time></trkpt><trkpt lat="42.295557782436894" lon="13.794318076554118"><ele>424.0</ele><time>2026-05-03T09:41:40.999Z</time></trkpt><trkpt lat="42.295452188125644" lon="13.794394968167259"><ele>424.0</ele><time>2026-05-03T09:41:41.999Z</time></trkpt><trkpt lat="42.29533541663553" lon="13.794448973927054"><ele>424.2</ele><time>2026-05-03T09:41:42.999Z</time></trkpt><trkpt lat="42.295222935687526" lon="13.794492046219785"><ele>424.4</ele><time>2026-05-03T09:41:43.999Z</time></trkpt><trkpt lat="42.29511846213123" lon="13.794515627634327"><ele>424.6</ele><time>2026-05-03T09:41:44.999Z</time></trkpt><trkpt lat="42.29501109225959" lon="13.79449440401077"><ele>424.8</ele><time>2026-05-03T09:41:45.999Z</time></trkpt><trkpt lat="42.2949031688799" lon="13.794449876605041"><ele>425.0</ele><time>2026-05-03T09:41:47Z</time></trkpt><trkpt lat="42.29478984937008" lon="13.794394365433092"><ele>421.25</ele><time>2026-05-03T09:41:48Z</time></trkpt><trkpt lat="42.294675344739005" lon="13.794326680090826"><ele>417.5</ele><time>2026-05-03T09:41:49Z</time></trkpt><trkpt lat="42.2945578558186" lon="13.794245301993422"><ele>413.75</ele><time>2026-05-03T09:41:50Z</time></trkpt><trkpt lat="42.29444810122604" lon="13.79414818279281"><ele>410.0</ele><time>2026-05-03T09:41:51Z</time></trkpt><trkpt lat="42.29433646698036" lon="13.794042092015676"><ele>410.0</ele><time>2026-05-03T09:41:52Z</time></trkpt><trkpt lat="42.29422899268356" lon="13.793932692600789"><ele>410.0</ele><time>2026-05-03T09:41:53Z</time></trkpt><trkpt lat="42.294131120046345" lon="13.793817714918019"><ele>410.0</ele><time>2026-05-03T09:41:54Z</time></trkpt><trkpt lat="42.2940359352911" lon="13.793711619495642"><ele>410.0</ele><time>2026-05-03T09:41:55Z</time></trkpt><trkpt lat="42.29395980761237" lon="13.793574771850956"><ele>409.0</ele><time>2026-05-03T09:41:56Z</time></trkpt><trkpt lat="42.29389625389734" lon="13.793412092685415"><ele>408.0</ele><time>2026-05-03T09:41:57Z</time></trkpt><trkpt lat="42.2938101627253" lon="13.79326950888037"><ele>407.0</ele><time>2026-05-03T09:41:58Z</time></trkpt><trkpt lat="42.29373150605718" lon="13.793129314198923"><ele>406.0</ele><time>2026-05-03T09:41:59Z</time></trkpt><trkpt lat="42.2936553222403" lon="13.793010918289522"><ele>406.0</ele><time>2026-05-03T09:42:00Z</time></trkpt><trkpt lat="42.29355842161391" lon="13.792916100020417"><ele>406.0</ele><time>2026-05-03T09:42:01Z</time></trkpt><trkpt lat="42.29344165764201" lon="13.79283593505042"><ele>406.0</ele><time>2026-05-03T09:42:02Z</time></trkpt><trkpt lat="42.29331577045561" lon="13.792752697053412"><ele>406.0</ele><time>2026-05-03T09:42:03Z</time></trkpt><trkpt lat="42.293190825215795" lon="13.792667746324174"><ele>403.0</ele><time>2026-05-03T09:42:04Z</time></trkpt><trkpt lat="42.29308380602537" lon="13.792551140757432"><ele>400.0</ele><time>2026-05-03T09:42:05Z</time></trkpt><trkpt lat="42.29294576893258" lon="13.79241879354956"><ele>397.0</ele><time>2026-05-03T09:42:06Z</time></trkpt><trkpt lat="42.292807907587864" lon="13.792284903906644"><ele>397.0</ele><time>2026-05-03T09:42:07Z</time></trkpt><trkpt lat="42.29275014258015" lon="13.79222818728438"><ele>397.0</ele><time>2026-05-03T09:42:08Z</time></trkpt><trkpt lat="42.29263164040993" lon="13.79214893209158"><ele>397.0</ele><time>2026-05-03T09:42:09Z</time></trkpt><trkpt lat="42.29251739319624" lon="13.792068344396405"><ele>397.0</ele><time>2026-05-03T09:42:10Z</time></trkpt><trkpt lat="42.292400530590996" lon="13.79200680135741"><ele>397.0</ele><time>2026-05-03T09:42:11Z</time></trkpt><trkpt lat="42.29227490521444" lon="13.791983242167348"><ele>397.0</ele><time>2026-05-03T09:42:12Z</time></trkpt><trkpt lat="42.29213454041397" lon="13.791982876785722"><ele>397.0</ele><time>2026-05-03T09:42:13Z</time></trkpt><trkpt lat="42.291983519349415" lon="13.791994241878651"><ele>397.0</ele><time>2026-05-03T09:42:14Z</time></trkpt><trkpt lat="42.291827988439636" lon="13.79198446132238"><ele>396.6666666666667</ele><time>2026-05-03T09:42:15Z</time></trkpt><trkpt lat="42.291673890681736" lon="13.791981462225955"><ele>396.33333333333337</ele><time>2026-05-03T09:42:16Z</time></trkpt><trkpt lat="42.29150752119474" lon="13.791975916557028"><ele>396.0</ele><time>2026-05-03T09:42:17Z</time></trkpt><trkpt lat="42.291329699036616" lon="13.791964016150244"><ele>395.0</ele><time>2026-05-03T09:42:18Z</time></trkpt><trkpt lat="42.29116117801599" lon="13.79195986788586"><ele>394.0</ele><time>2026-05-03T09:42:19Z</time></trkpt><trkpt lat="42.29100898654206" lon="13.791979367061245"><ele>393.0</ele><time>2026-05-03T09:42:20Z</time></trkpt><trkpt lat="42.29086711367191" lon="13.791973491367418"><ele>393.0</ele><time>2026-05-03T09:42:21Z</time></trkpt><trkpt lat="42.290727225972354" lon="13.79196749000049"><ele>393.0</ele><time>2026-05-03T09:42:22Z</time></trkpt><trkpt lat="42.29057855230082" lon="13.791963795833777"><ele>393.0</ele><time>2026-05-03T09:42:23Z</time></trkpt><trkpt lat="42.290428528465796" lon="13.79195898756244"><ele>393.0</ele><time>2026-05-03T09:42:24Z</time></trkpt><trkpt lat="42.29028241058041" lon="13.79194696217249"><ele>392.5</ele><time>2026-05-03T09:42:25Z</time></trkpt><trkpt lat="42.29014129598563" lon="13.7919404985971"><ele>392.0</ele><time>2026-05-03T09:42:26Z</time></trkpt><trkpt lat="42.28999975593535" lon="13.791897171299418"><ele>391.5</ele><time>2026-05-03T09:42:26.999Z</time></trkpt><trkpt lat="42.28986068186704" lon="13.791865983776908"><ele>391.0</ele><time>2026-05-03T09:42:27.999Z</time></trkpt><trkpt lat="42.28972128427001" lon="13.79183499464598"><ele>388.75</ele><time>2026-05-03T09:42:28.999Z</time></trkpt><trkpt lat="42.289579430075364" lon="13.791812126436707"><ele>386.5</ele><time>2026-05-03T09:42:29.999Z</time></trkpt><trkpt lat="42.28943652686123" lon="13.791789615194535"><ele>384.25</ele><time>2026-05-03T09:42:30.999Z</time></trkpt><trkpt lat="42.289281200736134" lon="13.791766690746897"><ele>382.0</ele><time>2026-05-03T09:42:31.999Z</time></trkpt><trkpt lat="42.2891270303637" lon="13.791778072779316"><ele>382.0</ele><time>2026-05-03T09:42:32.999Z</time></trkpt><trkpt lat="42.288976462529845" lon="13.791772300587999"><ele>382.0</ele><time>2026-05-03T09:42:33.999Z</time></trkpt><trkpt lat="42.288839296535706" lon="13.791742961317679"><ele>382.0</ele><time>2026-05-03T09:42:34.999Z</time></trkpt><trkpt lat="42.28870762837575" lon="13.791765852816997"><ele>382.0</ele><time>2026-05-03T09:42:35.999Z</time></trkpt><trkpt lat="42.28858312008068" lon="13.791764789521736"><ele>382.0</ele><time>2026-05-03T09:42:36.999Z</time></trkpt><trkpt lat="42.28847058418375" lon="13.79177577710015"><ele>382.0</ele><time>2026-05-03T09:42:37.999Z</time></trkpt><trkpt lat="42.288366632455926" lon="13.791783899059235"><ele>382.0</ele><time>2026-05-03T09:42:38.999Z</time></trkpt><trkpt lat="42.288262205378494" lon="13.79179189256438"><ele>382.0</ele><time>2026-05-03T09:42:39.999Z</time></trkpt><trkpt lat="42.28816145799869" lon="13.791798445383284"><ele>382.0</ele><time>2026-05-03T09:42:40.999Z</time></trkpt><trkpt lat="42.28806759309751" lon="13.791812098488716"><ele>382.40000000000003</ele><time>2026-05-03T09:42:41.999Z</time></trkpt><trkpt lat="42.28795825915758" lon="13.791840937951607"><ele>382.8</ele><time>2026-05-03T09:42:42.999Z</time></trkpt><trkpt lat="42.28785611626717" lon="13.791887086753528"><ele>383.2</ele><time>2026-05-03T09:42:43.999Z</time></trkpt><trkpt lat="42.28775598281809" lon="13.791921457307172"><ele>383.6</ele><time>2026-05-03T09:42:44.999Z</time></trkpt><trkpt lat="42.287681925660344" lon="13.791944886780602"><ele>384.0</ele><time>2026-05-03T09:42:45.999Z</time></trkpt><trkpt lat="42.287617361437576" lon="13.791930471786198"><ele>384.0</ele><time>2026-05-03T09:42:46.999Z</time></trkpt><trkpt lat="42.28750187190855" lon="13.791898353794137"><ele>384.0</ele><time>2026-05-03T09:42:48.999Z</time></trkpt><trkpt lat="42.28742486398821" lon="13.791867078924428"><ele>384.0</ele><time>2026-05-03T09:42:49.999Z</time></trkpt><trkpt lat="42.28733556889443" lon="13.791860276130073"><ele>384.0</ele><time>2026-05-03T09:42:50.999Z</time></trkpt><trkpt lat="42.28724194430434" lon="13.791864481079719"><ele>384.0</ele><time>2026-05-03T09:42:51.999Z</time></trkpt><trkpt lat="42.28716821583932" lon="13.791838378953168"><ele>383.0</ele><time>2026-05-03T09:42:52.999Z</time></trkpt><trkpt lat="42.287102374409905" lon="13.791855806686602"><ele>382.0</ele><time>2026-05-03T09:42:53.999Z</time></trkpt><trkpt lat="42.28701476734838" lon="13.7917965667101"><ele>381.0</ele><time>2026-05-03T09:42:55.999Z</time></trkpt><trkpt lat="42.287012772663346" lon="13.791627081148942"><ele>380.0</ele><time>2026-05-03T09:42:57.999Z</time></trkpt><trkpt lat="42.28698758796185" lon="13.791511310125456"><ele>379.0</ele><time>2026-05-03T09:42:58.999Z</time></trkpt><trkpt lat="42.28697761645112" lon="13.791380624359448"><ele>378.6</ele><time>2026-05-03T09:42:59.999Z</time></trkpt><trkpt lat="42.2869481894228" lon="13.791250207074414"><ele>378.2</ele><time>2026-05-03T09:43:00.999Z</time></trkpt><trkpt lat="42.28691003434657" lon="13.791116210929122"><ele>377.8</ele><time>2026-05-03T09:43:01.999Z</time></trkpt><trkpt lat="42.28686786804684" lon="13.79098266408441"><ele>377.40000000000003</ele><time>2026-05-03T09:43:02.999Z</time></trkpt><trkpt lat="42.28682078446292" lon="13.790846117275041"><ele>377.0</ele><time>2026-05-03T09:43:03.999Z</time></trkpt><trkpt lat="42.28678316066177" lon="13.79071968464516"><ele>376.40000000000003</ele><time>2026-05-03T09:43:04.999Z</time></trkpt><trkpt lat="42.28676339294667" lon="13.790585085069745"><ele>375.8</ele><time>2026-05-03T09:43:05.999Z</time></trkpt><trkpt lat="42.28675315164746" lon="13.790451497415678"><ele>375.2</ele><time>2026-05-03T09:43:06.999Z</time></trkpt><trkpt lat="42.28676512882155" lon="13.790311301501934"><ele>374.6</ele><time>2026-05-03T09:43:07.999Z</time></trkpt><trkpt lat="42.28679243664204" lon="13.79016167719932"><ele>374.0</ele><time>2026-05-03T09:43:08.999Z</time></trkpt><trkpt lat="42.28681023827423" lon="13.79000873690645"><ele>372.75</ele><time>2026-05-03T09:43:09.999Z</time></trkpt><trkpt lat="42.28681396330868" lon="13.789849210031255"><ele>371.5</ele><time>2026-05-03T09:43:10.999Z</time></trkpt><trkpt lat="42.286798169992174" lon="13.789686143080369"><ele>370.25</ele><time>2026-05-03T09:43:11.999Z</time></trkpt><trkpt lat="42.286767516517735" lon="13.789521450818707"><ele>369.0</ele><time>2026-05-03T09:43:12.999Z</time></trkpt><trkpt lat="42.286726678283735" lon="13.789366355500105"><ele>367.6</ele><time>2026-05-03T09:43:13.999Z</time></trkpt><trkpt lat="42.28668189805707" lon="13.789221053278483"><ele>366.2</ele><time>2026-05-03T09:43:14.999Z</time></trkpt><trkpt lat="42.28663790188135" lon="13.78907975009095"><ele>364.8</ele><time>2026-05-03T09:43:15.999Z</time></trkpt><trkpt lat="42.286605936236796" lon="13.78894091585858"><ele>363.40000000000003</ele><time>2026-05-03T09:43:16.999Z</time></trkpt><trkpt lat="42.286580978540755" lon="13.788797154004245"><ele>362.0</ele><time>2026-05-03T09:43:17.999Z</time></trkpt><trkpt lat="42.2865726706666" lon="13.788644551905495"><ele>361.0</ele><time>2026-05-03T09:43:18.999Z</time></trkpt><trkpt lat="42.28657734078344" lon="13.788481070311589"><ele>360.0</ele><time>2026-05-03T09:43:19.999Z</time></trkpt><trkpt lat="42.28657506844994" lon="13.788312489346152"><ele>359.0</ele><time>2026-05-03T09:43:20.999Z</time></trkpt><trkpt lat="42.286561240320836" lon="13.788140248086805"><ele>358.0</ele><time>2026-05-03T09:43:21.999Z</time></trkpt><trkpt lat="42.28654109900317" lon="13.787967812337847"><ele>358.0</ele><time>2026-05-03T09:43:22.999Z</time></trkpt><trkpt lat="42.28651727195532" lon="13.787788747680015"><ele>358.0</ele><time>2026-05-03T09:43:23.999Z</time></trkpt><trkpt lat="42.286496789204264" lon="13.787593990948992"><ele>358.0</ele><time>2026-05-03T09:43:24.999Z</time></trkpt><trkpt lat="42.28647515886736" lon="13.787402050063234"><ele>358.0</ele><time>2026-05-03T09:43:25.999Z</time></trkpt><trkpt lat="42.28645457969438" lon="13.787204466689547"><ele>356.75</ele><time>2026-05-03T09:43:26.999Z</time></trkpt><trkpt lat="42.28643551305723" lon="13.787014609136197"><ele>355.5</ele><time>2026-05-03T09:43:27.999Z</time></trkpt><trkpt lat="42.28640840500731" lon="13.786825098770048"><ele>354.25</ele><time>2026-05-03T09:43:28.999Z</time></trkpt><trkpt lat="42.28638187668923" lon="13.786636737311117"><ele>353.0</ele><time>2026-05-03T09:43:29.999Z</time></trkpt><trkpt lat="42.28635017751182" lon="13.786431180986527"><ele>350.0</ele><time>2026-05-03T09:43:30.999Z</time></trkpt><trkpt lat="42.28631446292469" lon="13.786213340063462"><ele>347.0</ele><time>2026-05-03T09:43:31.999Z</time></trkpt><trkpt lat="42.286279611465034" lon="13.785995110115673"><ele>344.0</ele><time>2026-05-03T09:43:32.999Z</time></trkpt><trkpt lat="42.286252079457654" lon="13.785762447644963"><ele>343.6666666666667</ele><time>2026-05-03T09:43:33.999Z</time></trkpt><trkpt lat="42.28622053594708" lon="13.785548053927446"><ele>343.3333333333333</ele><time>2026-05-03T09:43:34.999Z</time></trkpt><trkpt lat="42.286199156548726" lon="13.785340304463718"><ele>343.0</ele><time>2026-05-03T09:43:35.999Z</time></trkpt><trkpt lat="42.28617452352067" lon="13.785132835042987"><ele>343.0</ele><time>2026-05-03T09:43:36.999Z</time></trkpt><trkpt lat="42.286146848341296" lon="13.784919840533815"><ele>343.0</ele><time>2026-05-03T09:43:37.999Z</time></trkpt><trkpt lat="42.28611817767348" lon="13.784713121040967"><ele>343.0</ele><time>2026-05-03T09:43:38.999Z</time></trkpt><trkpt lat="42.28608915384779" lon="13.784501027629295"><ele>343.66666666666663</ele><time>2026-05-03T09:43:39.999Z</time></trkpt><trkpt lat="42.2860661129983" lon="13.784285220618267"><ele>344.3333333333333</ele><time>2026-05-03T09:43:40.999Z</time></trkpt><trkpt lat="42.286043188434235" lon="13.784068970455678"><ele>345.0</ele><time>2026-05-03T09:43:41.999Z</time></trkpt><trkpt lat="42.286020643728634" lon="13.783849815606947"><ele>345.0</ele><time>2026-05-03T09:43:42.999Z</time></trkpt><trkpt lat="42.285996086825236" lon="13.783625151723433"><ele>345.0</ele><time>2026-05-03T09:43:43.999Z</time></trkpt><trkpt lat="42.28596987845257" lon="13.783413525506912"><ele>345.0</ele><time>2026-05-03T09:43:44.999Z</time></trkpt><trkpt lat="42.285946868280064" lon="13.783187946698568"><ele>345.3333333333333</ele><time>2026-05-03T09:43:45.999Z</time></trkpt><trkpt lat="42.285921092224946" lon="13.78297921971227"><ele>345.66666666666663</ele><time>2026-05-03T09:43:46.999Z</time></trkpt><trkpt lat="42.28589524896639" lon="13.782776012529299"><ele>346.0</ele><time>2026-05-03T09:43:47.999Z</time></trkpt><trkpt lat="42.28586781099628" lon="13.782564427080828"><ele>345.0</ele><time>2026-05-03T09:43:48.999Z</time></trkpt><trkpt lat="42.285822263539714" lon="13.782361542540583"><ele>344.0</ele><time>2026-05-03T09:43:49.999Z</time></trkpt><trkpt lat="42.285765566246226" lon="13.782164047643318"><ele>343.0</ele><time>2026-05-03T09:43:50.999Z</time></trkpt><trkpt lat="42.285689724008485" lon="13.781968868320558"><ele>342.66666666666663</ele><time>2026-05-03T09:43:51.999Z</time></trkpt><trkpt lat="42.28560950120316" lon="13.78177474203742"><ele>342.3333333333333</ele><time>2026-05-03T09:43:53Z</time></trkpt><trkpt lat="42.28554181720551" lon="13.781575007067067"><ele>342.0</ele><time>2026-05-03T09:43:54Z</time></trkpt><trkpt lat="42.285443126674124" lon="13.78137610787056"><ele>342.3333333333333</ele><time>2026-05-03T09:43:55Z</time></trkpt><trkpt lat="42.28537543870452" lon="13.781171897424066"><ele>342.66666666666663</ele><time>2026-05-03T09:43:56Z</time></trkpt><trkpt lat="42.28529056000064" lon="13.780965932020228"><ele>343.0</ele><time>2026-05-03T09:43:57Z</time></trkpt><trkpt lat="42.285191723452265" lon="13.780766564747095"><ele>343.0</ele><time>2026-05-03T09:43:58Z</time></trkpt><trkpt lat="42.28510767184266" lon="13.78056090570181"><ele>343.0</ele><time>2026-05-03T09:43:59Z</time></trkpt><trkpt lat="42.28502529000784" lon="13.780350554787118"><ele>343.0</ele><time>2026-05-03T09:44:00Z</time></trkpt><trkpt lat="42.28493989270665" lon="13.780142547014398"><ele>343.0</ele><time>2026-05-03T09:44:01Z</time></trkpt><trkpt lat="42.28485442412806" lon="13.779930516716863"><ele>343.0</ele><time>2026-05-03T09:44:02Z</time></trkpt><trkpt lat="42.28476823846708" lon="13.7797257213129"><ele>343.0</ele><time>2026-05-03T09:44:03Z</time></trkpt><trkpt lat="42.28468702824195" lon="13.779521668178807"><ele>343.0</ele><time>2026-05-03T09:44:04Z</time></trkpt><trkpt lat="42.28460092668094" lon="13.779308946149309"><ele>343.0</ele><time>2026-05-03T09:44:05Z</time></trkpt><trkpt lat="42.28451342310834" lon="13.779098161678721"><ele>343.0</ele><time>2026-05-03T09:44:06Z</time></trkpt><trkpt lat="42.28442837955751" lon="13.778882941144005"><ele>343.0</ele><time>2026-05-03T09:44:07Z</time></trkpt><trkpt lat="42.28434423035194" lon="13.778671727308502"><ele>343.0</ele><time>2026-05-03T09:44:08Z</time></trkpt><trkpt lat="42.28425932130852" lon="13.778464584186274"><ele>343.0</ele><time>2026-05-03T09:44:09Z</time></trkpt><trkpt lat="42.28417082196174" lon="13.77824854968394"><ele>343.3333333333333</ele><time>2026-05-03T09:44:10Z</time></trkpt><trkpt lat="42.28408294145975" lon="13.778035577084337"><ele>343.6666666666667</ele><time>2026-05-03T09:44:11Z</time></trkpt><trkpt lat="42.283996907719505" lon="13.777825733321976"><ele>344.0</ele><time>2026-05-03T09:44:12Z</time></trkpt><trkpt lat="42.28391167628463" lon="13.777614920268162"><ele>344.33333333333337</ele><time>2026-05-03T09:44:13Z</time></trkpt><trkpt lat="42.28382645094529" lon="13.777415548268475"><ele>344.6666666666667</ele><time>2026-05-03T09:44:14Z</time></trkpt><trkpt lat="42.28374467835785" lon="13.777212150481017"><ele>345.0</ele><time>2026-05-03T09:44:15Z</time></trkpt><trkpt lat="42.283661852136106" lon="13.777006792798131"><ele>345.0</ele><time>2026-05-03T09:44:16Z</time></trkpt><trkpt lat="42.2835812224452" lon="13.776797101762252"><ele>345.0</ele><time>2026-05-03T09:44:17Z</time></trkpt><trkpt lat="42.28349924082979" lon="13.776595403072486"><ele>345.0</ele><time>2026-05-03T09:44:18Z</time></trkpt><trkpt lat="42.28341605245306" lon="13.776394968418776"><ele>345.0</ele><time>2026-05-03T09:44:19Z</time></trkpt><trkpt lat="42.283336763769896" lon="13.776200163017338"><ele>345.0</ele><time>2026-05-03T09:44:20Z</time></trkpt><trkpt lat="42.28325108030279" lon="13.776001427219294"><ele>345.0</ele><time>2026-05-03T09:44:21Z</time></trkpt><trkpt lat="42.28317601150435" lon="13.775814301097425"><ele>345.0</ele><time>2026-05-03T09:44:22Z</time></trkpt><trkpt lat="42.28310124921409" lon="13.77562219384684"><ele>345.0</ele><time>2026-05-03T09:44:23Z</time></trkpt><trkpt lat="42.28303224732568" lon="13.775445923514974"><ele>345.0</ele><time>2026-05-03T09:44:24Z</time></trkpt><trkpt lat="42.282957821335074" lon="13.775276015242492"><ele>345.75</ele><time>2026-05-03T09:44:25Z</time></trkpt><trkpt lat="42.282883387697" lon="13.775116833027809"><ele>346.5</ele><time>2026-05-03T09:44:26Z</time></trkpt><trkpt lat="42.28279028404261" lon="13.774967401399767"><ele>347.25</ele><time>2026-05-03T09:44:27Z</time></trkpt><trkpt lat="42.28268210350675" lon="13.774832113458576"><ele>348.0</ele><time>2026-05-03T09:44:28Z</time></trkpt><trkpt lat="42.28255479827254" lon="13.774732868549465"><ele>348.0</ele><time>2026-05-03T09:44:29Z</time></trkpt><trkpt lat="42.282418629438034" lon="13.774640501007575"><ele>348.0</ele><time>2026-05-03T09:44:30Z</time></trkpt><trkpt lat="42.282259814576555" lon="13.774619529165706"><ele>348.0</ele><time>2026-05-03T09:44:31Z</time></trkpt><trkpt lat="42.282101262235734" lon="13.774600061138694"><ele>348.25</ele><time>2026-05-03T09:44:32Z</time></trkpt><trkpt lat="42.28194400431227" lon="13.774570497366335"><ele>348.5</ele><time>2026-05-03T09:44:33Z</time></trkpt><trkpt lat="42.28180313030442" lon="13.77450316572931"><ele>348.75</ele><time>2026-05-03T09:44:34Z</time></trkpt><trkpt lat="42.281675258164405" lon="13.774431102388874"><ele>349.0</ele><time>2026-05-03T09:44:35Z</time></trkpt><trkpt lat="42.28157421585525" lon="13.774330152338788"><ele>349.5</ele><time>2026-05-03T09:44:36Z</time></trkpt><trkpt lat="42.28147508010893" lon="13.77420145225018"><ele>350.0</ele><time>2026-05-03T09:44:37Z</time></trkpt><trkpt lat="42.28136921191896" lon="13.77405695593267"><ele>350.5</ele><time>2026-05-03T09:44:38Z</time></trkpt><trkpt lat="42.28124847897094" lon="13.773934457626105"><ele>351.0</ele><time>2026-05-03T09:44:39Z</time></trkpt><trkpt lat="42.28114234932293" lon="13.773794780804797"><ele>351.0</ele><time>2026-05-03T09:44:40Z</time></trkpt><trkpt lat="42.28103183551413" lon="13.773653685934635"><ele>351.0</ele><time>2026-05-03T09:44:41Z</time></trkpt><trkpt lat="42.28092672008241" lon="13.773510506336637"><ele>351.0</ele><time>2026-05-03T09:44:42Z</time></trkpt><trkpt lat="42.28083612608105" lon="13.773348049355178"><ele>351.6666666666667</ele><time>2026-05-03T09:44:43Z</time></trkpt><trkpt lat="42.280748731204554" lon="13.773176280467238"><ele>352.33333333333337</ele><time>2026-05-03T09:44:44Z</time></trkpt><trkpt lat="42.280660489621994" lon="13.772999634934774"><ele>353.0</ele><time>2026-05-03T09:44:45Z</time></trkpt><trkpt lat="42.28056987554235" lon="13.77282082562353"><ele>353.5</ele><time>2026-05-03T09:44:46Z</time></trkpt><trkpt lat="42.28047951480708" lon="13.772648749358847"><ele>354.0</ele><time>2026-05-03T09:44:47Z</time></trkpt><trkpt lat="42.28039552746824" lon="13.77248327406577"><ele>354.5</ele><time>2026-05-03T09:44:48Z</time></trkpt><trkpt lat="42.28031782869837" lon="13.772326959268746"><ele>355.0</ele><time>2026-05-03T09:44:49Z</time></trkpt><trkpt lat="42.280231817845866" lon="13.772198994482316"><ele>355.0</ele><time>2026-05-03T09:44:50Z</time></trkpt><trkpt lat="42.28012401757212" lon="13.772110358570833"><ele>355.0</ele><time>2026-05-03T09:44:51Z</time></trkpt><trkpt lat="42.27999948106173" lon="13.772050197291259"><ele>355.0</ele><time>2026-05-03T09:44:52Z</time></trkpt><trkpt lat="42.27989177269342" lon="13.771954153894143"><ele>355.0</ele><time>2026-05-03T09:44:53Z</time></trkpt><trkpt lat="42.27979395681725" lon="13.771856967432894"><ele>355.5</ele><time>2026-05-03T09:44:54Z</time></trkpt><trkpt lat="42.27971319929509" lon="13.771741091679162"><ele>356.0</ele><time>2026-05-03T09:44:55Z</time></trkpt><trkpt lat="42.27964290147709" lon="13.77160081919026"><ele>356.5</ele><time>2026-05-03T09:44:56Z</time></trkpt><trkpt lat="42.27958269430319" lon="13.771437398852777"><ele>357.0</ele><time>2026-05-03T09:44:57Z</time></trkpt><trkpt lat="42.27950601199277" lon="13.771272851194055"><ele>357.0</ele><time>2026-05-03T09:44:58Z</time></trkpt><trkpt lat="42.279447315463116" lon="13.771091401868148"><ele>357.0</ele><time>2026-05-03T09:44:58.999Z</time></trkpt><trkpt lat="42.27938764243661" lon="13.770921238715644"><ele>357.0</ele><time>2026-05-03T09:44:59.999Z</time></trkpt><trkpt lat="42.27933094606602" lon="13.770763621450067"><ele>357.0</ele><time>2026-05-03T09:45:00.999Z</time></trkpt><trkpt lat="42.27928061719795" lon="13.770611397881876"><ele>357.5</ele><time>2026-05-03T09:45:01.999Z</time></trkpt><trkpt lat="42.27923307931563" lon="13.770462666397767"><ele>358.0</ele><time>2026-05-03T09:45:02.999Z</time></trkpt><trkpt lat="42.27918535908935" lon="13.7703171115849"><ele>358.5</ele><time>2026-05-03T09:45:03.999Z</time></trkpt><trkpt lat="42.2791332832852" lon="13.770169757765512"><ele>359.0</ele><time>2026-05-03T09:45:04.999Z</time></trkpt><trkpt lat="42.279084192653954" lon="13.770043986318571"><ele>359.2</ele><time>2026-05-03T09:45:05.999Z</time></trkpt><trkpt lat="42.27903915721255" lon="13.769916639555179"><ele>359.4</ele><time>2026-05-03T09:45:06.999Z</time></trkpt><trkpt lat="42.278994961041484" lon="13.769798215519696"><ele>359.6</ele><time>2026-05-03T09:45:07.999Z</time></trkpt><trkpt lat="42.27895420306448" lon="13.769686248752905"><ele>359.8</ele><time>2026-05-03T09:45:08.999Z</time></trkpt><trkpt lat="42.27891866782841" lon="13.76957792232872"><ele>360.0</ele><time>2026-05-03T09:45:09.999Z</time></trkpt><trkpt lat="42.27889008770104" lon="13.769487170080104"><ele>360.0</ele><time>2026-05-03T09:45:10.999Z</time></trkpt><trkpt lat="42.278840800096866" lon="13.76937583133768"><ele>360.0</ele><time>2026-05-03T09:45:12.999Z</time></trkpt><trkpt lat="42.27865140004229" lon="13.769457114361455"><ele>360.0</ele><time>2026-05-03T09:45:15.999Z</time></trkpt><trkpt lat="42.278554384432624" lon="13.769539100799813"><ele>360.0</ele><time>2026-05-03T09:45:16.999Z</time></trkpt><trkpt lat="42.27846452210955" lon="13.769639368031145"><ele>360.0</ele><time>2026-05-03T09:45:17.999Z</time></trkpt><trkpt lat="42.278364796731886" lon="13.769754043011218"><ele>360.0</ele><time>2026-05-03T09:45:18.999Z</time></trkpt><trkpt lat="42.27825815971884" lon="13.769878869703211"><ele>360.0</ele><time>2026-05-03T09:45:19.999Z</time></trkpt><trkpt lat="42.27814599408713" lon="13.770009204015947"><ele>360.0</ele><time>2026-05-03T09:45:20.999Z</time></trkpt><trkpt lat="42.278029497542235" lon="13.770143185035932"><ele>358.5</ele><time>2026-05-03T09:45:21.999Z</time></trkpt><trkpt lat="42.27792643301715" lon="13.770288810967726"><ele>357.0</ele><time>2026-05-03T09:45:22.999Z</time></trkpt><trkpt lat="42.2778102766421" lon="13.77041528590947"><ele>355.5</ele><time>2026-05-03T09:45:23.999Z</time></trkpt><trkpt lat="42.27770667159573" lon="13.77054328958018"><ele>354.0</ele><time>2026-05-03T09:45:24.999Z</time></trkpt><trkpt lat="42.27758765262481" lon="13.770634318388982"><ele>354.0</ele><time>2026-05-03T09:45:25.999Z</time></trkpt><trkpt lat="42.27747129306129" lon="13.77069484108241"><ele>354.0</ele><time>2026-05-03T09:45:26.999Z</time></trkpt><trkpt lat="42.27735931079944" lon="13.770768845165053"><ele>354.0</ele><time>2026-05-03T09:45:27.999Z</time></trkpt><trkpt lat="42.27722481351692" lon="13.770769272697322"><ele>354.0</ele><time>2026-05-03T09:45:28.999Z</time></trkpt><trkpt lat="42.277080958631274" lon="13.770741902828394"><ele>352.0</ele><time>2026-05-03T09:45:29.999Z</time></trkpt><trkpt lat="42.27693311100814" lon="13.770717372230768"><ele>350.0</ele><time>2026-05-03T09:45:30.999Z</time></trkpt><trkpt lat="42.2767865328702" lon="13.770663467903134"><ele>348.0</ele><time>2026-05-03T09:45:31.999Z</time></trkpt><trkpt lat="42.276635489755606" lon="13.770644739699872"><ele>348.0</ele><time>2026-05-03T09:45:32.999Z</time></trkpt><trkpt lat="42.27648130661357" lon="13.770625623898702"><ele>348.0</ele><time>2026-05-03T09:45:33.999Z</time></trkpt><trkpt lat="42.276330368689614" lon="13.770606048486593"><ele>348.0</ele><time>2026-05-03T09:45:34.999Z</time></trkpt><trkpt lat="42.27617810026963" lon="13.770585607364609"><ele>347.0</ele><time>2026-05-03T09:45:35.999Z</time></trkpt><trkpt lat="42.27603320815793" lon="13.770563460527637"><ele>346.0</ele><time>2026-05-03T09:45:36.999Z</time></trkpt><trkpt lat="42.275892029326236" lon="13.770541881267887"><ele>345.0</ele><time>2026-05-03T09:45:37.999Z</time></trkpt><trkpt lat="42.27575587436752" lon="13.770519870835406"><ele>344.0</ele><time>2026-05-03T09:45:38.999Z</time></trkpt><trkpt lat="42.275620700763994" lon="13.770522892389623"><ele>346.0</ele><time>2026-05-03T09:45:39.999Z</time></trkpt><trkpt lat="42.27548538647233" lon="13.770514802750288"><ele>348.0</ele><time>2026-05-03T09:45:40.999Z</time></trkpt><trkpt lat="42.27535201319036" lon="13.770536964425718"><ele>350.0</ele><time>2026-05-03T09:45:41.999Z</time></trkpt><trkpt lat="42.27521015400006" lon="13.770594870335767"><ele>352.0</ele><time>2026-05-03T09:45:42.999Z</time></trkpt><trkpt lat="42.275073029044364" lon="13.770670852140753"><ele>352.0</ele><time>2026-05-03T09:45:43.999Z</time></trkpt><trkpt lat="42.274961866010834" lon="13.770756595223652"><ele>352.0</ele><time>2026-05-03T09:45:44.999Z</time></trkpt><trkpt lat="42.274890132071405" lon="13.770867634010468"><ele>352.0</ele><time>2026-05-03T09:45:45.999Z</time></trkpt><trkpt lat="42.27486480802792" lon="13.771043482515799"><ele>352.0</ele><time>2026-05-03T09:45:46.999Z</time></trkpt><trkpt lat="42.274822617543805" lon="13.77122253491828"><ele>353.66666666666663</ele><time>2026-05-03T09:45:47.999Z</time></trkpt><trkpt lat="42.27479615143743" lon="13.771419814373148"><ele>355.3333333333333</ele><time>2026-05-03T09:45:48.999Z</time></trkpt><trkpt lat="42.27476475276045" lon="13.771616043436044"><ele>357.0</ele><time>2026-05-03T09:45:49.999Z</time></trkpt><trkpt lat="42.27472396061233" lon="13.771821681820226"><ele>356.25</ele><time>2026-05-03T09:45:50.999Z</time></trkpt><trkpt lat="42.27468203068822" lon="13.772016630520515"><ele>355.5</ele><time>2026-05-03T09:45:51.999Z</time></trkpt><trkpt lat="42.27464252427783" lon="13.772200964337488"><ele>354.75</ele><time>2026-05-03T09:45:52.999Z</time></trkpt><trkpt lat="42.274601841118695" lon="13.772375745524734"><ele>354.0</ele><time>2026-05-03T09:45:53.999Z</time></trkpt><trkpt lat="42.274538462825554" lon="13.772518050656862"><ele>354.0</ele><time>2026-05-03T09:45:54.999Z</time></trkpt><trkpt lat="42.27447450022879" lon="13.772642695689049"><ele>354.0</ele><time>2026-05-03T09:45:55.999Z</time></trkpt><trkpt lat="42.2743867365441" lon="13.772758210646572"><ele>354.0</ele><time>2026-05-03T09:45:56.999Z</time></trkpt><trkpt lat="42.274283108189216" lon="13.772885047667902"><ele>354.0</ele><time>2026-05-03T09:45:57.999Z</time></trkpt><trkpt lat="42.274181768669855" lon="13.77303600821546"><ele>353.3333333333333</ele><time>2026-05-03T09:45:59Z</time></trkpt><trkpt lat="42.2740651721709" lon="13.773172377845428"><ele>352.66666666666663</ele><time>2026-05-03T09:46:00Z</time></trkpt><trkpt lat="42.27394974555051" lon="13.773317792206296"><ele>352.0</ele><time>2026-05-03T09:46:01Z</time></trkpt><trkpt lat="42.273820939498364" lon="13.773443483315111"><ele>352.66666666666663</ele><time>2026-05-03T09:46:02Z</time></trkpt><trkpt lat="42.273703295155066" lon="13.773578564613022"><ele>353.3333333333333</ele><time>2026-05-03T09:46:03Z</time></trkpt><trkpt lat="42.27358271641315" lon="13.773715990690917"><ele>354.0</ele><time>2026-05-03T09:46:04Z</time></trkpt><trkpt lat="42.27346627335849" lon="13.773848703417796"><ele>354.0</ele><time>2026-05-03T09:46:05Z</time></trkpt><trkpt lat="42.27334701188886" lon="13.773984628776592"><ele>354.0</ele><time>2026-05-03T09:46:06Z</time></trkpt><trkpt lat="42.273244806579456" lon="13.774142300315662"><ele>354.0</ele><time>2026-05-03T09:46:07Z</time></trkpt><trkpt lat="42.273136326790045" lon="13.77428679091034"><ele>355.0</ele><time>2026-05-03T09:46:08Z</time></trkpt><trkpt lat="42.27304103659962" lon="13.774447300012287"><ele>356.0</ele><time>2026-05-03T09:46:09Z</time></trkpt><trkpt lat="42.272951721061055" lon="13.774612492049993"><ele>357.0</ele><time>2026-05-03T09:46:10Z</time></trkpt><trkpt lat="42.27286075446632" lon="13.774776188734407"><ele>357.0</ele><time>2026-05-03T09:46:11Z</time></trkpt><trkpt lat="42.27276434249111" lon="13.774935619760017"><ele>357.0</ele><time>2026-05-03T09:46:12Z</time></trkpt><trkpt lat="42.27267442374488" lon="13.77508526188364"><ele>357.0</ele><time>2026-05-03T09:46:13Z</time></trkpt><trkpt lat="42.27258809541474" lon="13.775212407464982"><ele>357.0</ele><time>2026-05-03T09:46:14Z</time></trkpt><trkpt lat="42.2724969620704" lon="13.77532784148101"><ele>356.0</ele><time>2026-05-03T09:46:15Z</time></trkpt><trkpt lat="42.27244280580762" lon="13.775474445463566"><ele>355.0</ele><time>2026-05-03T09:46:16Z</time></trkpt><trkpt lat="42.272379444980814" lon="13.775594230067894"><ele>354.0</ele><time>2026-05-03T09:46:17Z</time></trkpt><trkpt lat="42.27232664046171" lon="13.775729906643587"><ele>353.0</ele><time>2026-05-03T09:46:18Z</time></trkpt><trkpt lat="42.2722801734493" lon="13.775874999519667"><ele>352.5</ele><time>2026-05-03T09:46:19Z</time></trkpt><trkpt lat="42.27224471933042" lon="13.776043067137401"><ele>352.0</ele><time>2026-05-03T09:46:20Z</time></trkpt><trkpt lat="42.272226877587535" lon="13.776230006436188"><ele>351.5</ele><time>2026-05-03T09:46:21Z</time></trkpt><trkpt lat="42.27221386970997" lon="13.77642890261811"><ele>351.0</ele><time>2026-05-03T09:46:22Z</time></trkpt><trkpt lat="42.27219510796771" lon="13.776637757297033"><ele>351.0</ele><time>2026-05-03T09:46:23Z</time></trkpt><trkpt lat="42.272174975981166" lon="13.776850425332794"><ele>351.0</ele><time>2026-05-03T09:46:24Z</time></trkpt><trkpt lat="42.27215408430714" lon="13.777063250641586"><ele>351.0</ele><time>2026-05-03T09:46:25Z</time></trkpt><trkpt lat="42.272133179467296" lon="13.777278149947566"><ele>350.0</ele><time>2026-05-03T09:46:26Z</time></trkpt><trkpt lat="42.272112725103405" lon="13.777510045038188"><ele>349.0</ele><time>2026-05-03T09:46:27Z</time></trkpt><trkpt lat="42.272095844291464" lon="13.777744030984682"><ele>348.0</ele><time>2026-05-03T09:46:28Z</time></trkpt><trkpt lat="42.27207285534254" lon="13.777969481969494"><ele>347.3333333333333</ele><time>2026-05-03T09:46:29Z</time></trkpt><trkpt lat="42.2720515572106" lon="13.7781898759711"><ele>346.66666666666663</ele><time>2026-05-03T09:46:30Z</time></trkpt><trkpt lat="42.27202808025786" lon="13.778409312027422"><ele>346.0</ele><time>2026-05-03T09:46:31Z</time></trkpt><trkpt lat="42.27200633430468" lon="13.778633718516671"><ele>345.0</ele><time>2026-05-03T09:46:32Z</time></trkpt><trkpt lat="42.27198339498913" lon="13.778855172598654"><ele>344.0</ele><time>2026-05-03T09:46:33Z</time></trkpt><trkpt lat="42.271966693876834" lon="13.779079798001298"><ele>343.0</ele><time>2026-05-03T09:46:34Z</time></trkpt><trkpt lat="42.27194438315232" lon="13.779299023144748"><ele>342.25</ele><time>2026-05-03T09:46:35Z</time></trkpt><trkpt lat="42.27190017633055" lon="13.779486662369594"><ele>341.5</ele><time>2026-05-03T09:46:36Z</time></trkpt><trkpt lat="42.27186919012867" lon="13.779624943359533"><ele>340.75</ele><time>2026-05-03T09:46:37Z</time></trkpt><trkpt lat="42.27183035676823" lon="13.779745099754544"><ele>340.0</ele><time>2026-05-03T09:46:38Z</time></trkpt><trkpt lat="42.271769451014194" lon="13.77986261811372"><ele>340.0</ele><time>2026-05-03T09:46:39Z</time></trkpt><trkpt lat="42.2716899660318" lon="13.779984817072915"><ele>340.0</ele><time>2026-05-03T09:46:40Z</time></trkpt><trkpt lat="42.27160056016744" lon="13.780117671194695"><ele>340.0</ele><time>2026-05-03T09:46:41Z</time></trkpt><trkpt lat="42.27150439268494" lon="13.78025865082641"><ele>340.0</ele><time>2026-05-03T09:46:42Z</time></trkpt><trkpt lat="42.27140594990718" lon="13.780405405430168"><ele>340.2</ele><time>2026-05-03T09:46:43Z</time></trkpt><trkpt lat="42.271314212525255" lon="13.780546376627406"><ele>340.4</ele><time>2026-05-03T09:46:44Z</time></trkpt><trkpt lat="42.27123816498681" lon="13.780664122266552"><ele>340.6</ele><time>2026-05-03T09:46:45Z</time></trkpt><trkpt lat="42.271169299841" lon="13.780773716737079"><ele>340.8</ele><time>2026-05-03T09:46:46Z</time></trkpt><trkpt lat="42.27111381434877" lon="13.780864150671997"><ele>341.0</ele><time>2026-05-03T09:46:47Z</time></trkpt><trkpt lat="42.27107363846474" lon="13.780959855508145"><ele>340.0</ele><time>2026-05-03T09:46:48Z</time></trkpt><trkpt lat="42.271004026183" lon="13.78105951385994"><ele>339.0</ele><time>2026-05-03T09:46:50Z</time></trkpt><trkpt lat="42.270902716937634" lon="13.781161252805855"><ele>338.0</ele><time>2026-05-03T09:46:54Z</time></trkpt><trkpt lat="42.27083871891526" lon="13.781233540565598"><ele>337.0</ele><time>2026-05-03T09:46:55Z</time></trkpt><trkpt lat="42.27075658343051" lon="13.781322532642822"><ele>336.0</ele><time>2026-05-03T09:46:56Z</time></trkpt><trkpt lat="42.27066924224217" lon="13.7813857558069"><ele>336.0</ele><time>2026-05-03T09:46:57Z</time></trkpt><trkpt lat="42.27056326463391" lon="13.781420843812798"><ele>336.0</ele><time>2026-05-03T09:46:58Z</time></trkpt><trkpt lat="42.270464930260346" lon="13.781482046425925"><ele>336.0</ele><time>2026-05-03T09:46:59Z</time></trkpt><trkpt lat="42.270365539769934" lon="13.78157416267465"><ele>336.0</ele><time>2026-05-03T09:47:00Z</time></trkpt><trkpt lat="42.270249872823726" lon="13.781663567409803"><ele>336.0</ele><time>2026-05-03T09:47:01Z</time></trkpt><trkpt lat="42.270144829321" lon="13.781752114023176"><ele>336.0</ele><time>2026-05-03T09:47:02Z</time></trkpt><trkpt lat="42.270042981534075" lon="13.78183079441787"><ele>336.0</ele><time>2026-05-03T09:47:03Z</time></trkpt><trkpt lat="42.26994165596018" lon="13.781906376889323"><ele>336.0</ele><time>2026-05-03T09:47:04Z</time></trkpt><trkpt lat="42.269827269732495" lon="13.781941689776136"><ele>336.8</ele><time>2026-05-03T09:47:04.999Z</time></trkpt><trkpt lat="42.269719016648" lon="13.781970199772509"><ele>337.6</ele><time>2026-05-03T09:47:05.999Z</time></trkpt><trkpt lat="42.269610800995736" lon="13.782024953961594"><ele>338.4</ele><time>2026-05-03T09:47:06.999Z</time></trkpt><trkpt lat="42.26950885700382" lon="13.782062375772428"><ele>339.2</ele><time>2026-05-03T09:47:07.999Z</time></trkpt><trkpt lat="42.26942837955355" lon="13.782131812309338"><ele>340.0</ele><time>2026-05-03T09:47:08.999Z</time></trkpt><trkpt lat="42.26936595142043" lon="13.782231840616118"><ele>340.0</ele><time>2026-05-03T09:47:09.999Z</time></trkpt><trkpt lat="42.26935043282759" lon="13.78236682277738"><ele>340.0</ele><time>2026-05-03T09:47:10.999Z</time></trkpt><trkpt lat="42.26932988751887" lon="13.78250549240156"><ele>340.0</ele><time>2026-05-03T09:47:11.999Z</time></trkpt><trkpt lat="42.26931343578078" lon="13.782667478256279"><ele>340.0</ele><time>2026-05-03T09:47:12.999Z</time></trkpt><trkpt lat="42.26929170355931" lon="13.782838836020437"><ele>340.0</ele><time>2026-05-03T09:47:13.999Z</time></trkpt><trkpt lat="42.269263474859684" lon="13.78301812169225"><ele>340.0</ele><time>2026-05-03T09:47:14.999Z</time></trkpt><trkpt lat="42.26923092604633" lon="13.783196553739893"><ele>340.0</ele><time>2026-05-03T09:47:15.999Z</time></trkpt><trkpt lat="42.269187123748694" lon="13.78336926623404"><ele>340.0</ele><time>2026-05-03T09:47:16.999Z</time></trkpt><trkpt lat="42.269135054262506" lon="13.783534204112724"><ele>340.0</ele><time>2026-05-03T09:47:17.999Z</time></trkpt><trkpt lat="42.26907749975712" lon="13.783697119524632"><ele>340.0</ele><time>2026-05-03T09:47:18.999Z</time></trkpt><trkpt lat="42.2690065171559" lon="13.783859002750074"><ele>340.0</ele><time>2026-05-03T09:47:19.999Z</time></trkpt><trkpt lat="42.26893431596604" lon="13.784012648158527"><ele>340.0</ele><time>2026-05-03T09:47:20.999Z</time></trkpt><trkpt lat="42.268849107542515" lon="13.784161778759202"><ele>340.75</ele><time>2026-05-03T09:47:21.999Z</time></trkpt><trkpt lat="42.26876818978949" lon="13.784312137177475"><ele>341.5</ele><time>2026-05-03T09:47:22.999Z</time></trkpt><trkpt lat="42.26868601151044" lon="13.784455909295627"><ele>342.25</ele><time>2026-05-03T09:47:23.999Z</time></trkpt><trkpt lat="42.26859953150016" lon="13.784594332747107"><ele>343.0</ele><time>2026-05-03T09:47:24.999Z</time></trkpt><trkpt lat="42.268510844127015" lon="13.784713249122966"><ele>343.0</ele><time>2026-05-03T09:47:25.999Z</time></trkpt><trkpt lat="42.26842256405559" lon="13.784842916357263"><ele>343.0</ele><time>2026-05-03T09:47:26.999Z</time></trkpt><trkpt lat="42.26831846718651" lon="13.784953431938893"><ele>343.0</ele><time>2026-05-03T09:47:27.999Z</time></trkpt><trkpt lat="42.268213359945214" lon="13.785061984699402"><ele>343.0</ele><time>2026-05-03T09:47:28.999Z</time></trkpt><trkpt lat="42.26809790573102" lon="13.78516914523791"><ele>344.0</ele><time>2026-05-03T09:47:29.999Z</time></trkpt><trkpt lat="42.26796691374316" lon="13.785251422818263"><ele>345.0</ele><time>2026-05-03T09:47:30.999Z</time></trkpt><trkpt lat="42.2678485855204" lon="13.785347543327534"><ele>346.0</ele><time>2026-05-03T09:47:31.999Z</time></trkpt><trkpt lat="42.26772453252182" lon="13.785450231733318"><ele>347.0</ele><time>2026-05-03T09:47:32.999Z</time></trkpt><trkpt lat="42.267609605403884" lon="13.785579348736784"><ele>347.0</ele><time>2026-05-03T09:47:33.999Z</time></trkpt><trkpt lat="42.267491332267234" lon="13.785705654544172"><ele>347.0</ele><time>2026-05-03T09:47:34.999Z</time></trkpt><trkpt lat="42.26737777415693" lon="13.785838883898888"><ele>347.0</ele><time>2026-05-03T09:47:35.999Z</time></trkpt><trkpt lat="42.267268014463006" lon="13.785970957646716"><ele>347.0</ele><time>2026-05-03T09:47:36.999Z</time></trkpt><trkpt lat="42.26716032677637" lon="13.786094947768524"><ele>347.25</ele><time>2026-05-03T09:47:37.999Z</time></trkpt><trkpt lat="42.26705663625909" lon="13.786214865043481"><ele>347.5</ele><time>2026-05-03T09:47:38.999Z</time></trkpt><trkpt lat="42.2669553321591" lon="13.786337371131312"><ele>347.75</ele><time>2026-05-03T09:47:39.999Z</time></trkpt><trkpt lat="42.26685365014614" lon="13.786474089397268"><ele>348.0</ele><time>2026-05-03T09:47:40.999Z</time></trkpt><trkpt lat="42.266747466534376" lon="13.786626733160615"><ele>348.0</ele><time>2026-05-03T09:47:41.999Z</time></trkpt><trkpt lat="42.26664666592434" lon="13.786785881857766"><ele>348.0</ele><time>2026-05-03T09:47:42.999Z</time></trkpt><trkpt lat="42.26655093866664" lon="13.786950638289438"><ele>348.0</ele><time>2026-05-03T09:47:43.999Z</time></trkpt><trkpt lat="42.26644611528396" lon="13.787089727646649"><ele>348.6666666666667</ele><time>2026-05-03T09:47:44.999Z</time></trkpt><trkpt lat="42.266364087490366" lon="13.7872600888895"><ele>349.33333333333337</ele><time>2026-05-03T09:47:45.999Z</time></trkpt><trkpt lat="42.26627013873695" lon="13.787425459309826"><ele>350.0</ele><time>2026-05-03T09:47:46.999Z</time></trkpt><trkpt lat="42.26618609840108" lon="13.787591546142561"><ele>349.25</ele><time>2026-05-03T09:47:47.999Z</time></trkpt><trkpt lat="42.266102314637045" lon="13.787759785791007"><ele>348.5</ele><time>2026-05-03T09:47:48.999Z</time></trkpt><trkpt lat="42.266015238433056" lon="13.787925335784221"><ele>347.75</ele><time>2026-05-03T09:47:49.999Z</time></trkpt><trkpt lat="42.26591034682097" lon="13.788065736660066"><ele>347.0</ele><time>2026-05-03T09:47:50.999Z</time></trkpt><trkpt lat="42.26581625377974" lon="13.788216913585575"><ele>347.0</ele><time>2026-05-03T09:47:51.999Z</time></trkpt><trkpt lat="42.26572391022323" lon="13.788370793810966"><ele>347.0</ele><time>2026-05-03T09:47:52.999Z</time></trkpt><trkpt lat="42.265644665398916" lon="13.788538852326655"><ele>347.0</ele><time>2026-05-03T09:47:53.999Z</time></trkpt><trkpt lat="42.26555368088642" lon="13.78869337414757"><ele>347.0</ele><time>2026-05-03T09:47:54.999Z</time></trkpt><trkpt lat="42.26546798243727" lon="13.788855105812859"><ele>347.0</ele><time>2026-05-03T09:47:55.999Z</time></trkpt><trkpt lat="42.26538508462675" lon="13.789017753852447"><ele>347.0</ele><time>2026-05-03T09:47:56.999Z</time></trkpt><trkpt lat="42.265317956694375" lon="13.789164909420915"><ele>347.0</ele><time>2026-05-03T09:47:57.999Z</time></trkpt><trkpt lat="42.26525773166311" lon="13.78931809041714"><ele>347.0</ele><time>2026-05-03T09:47:58.999Z</time></trkpt><trkpt lat="42.26519551237051" lon="13.789475159690753"><ele>347.0</ele><time>2026-05-03T09:47:59.999Z</time></trkpt><trkpt lat="42.265143988462526" lon="13.789641458654991"><ele>347.0</ele><time>2026-05-03T09:48:00.999Z</time></trkpt><trkpt lat="42.2650867200805" lon="13.789804608148986"><ele>347.0</ele><time>2026-05-03T09:48:01.999Z</time></trkpt><trkpt lat="42.265024460802785" lon="13.789966279652031"><ele>347.0</ele><time>2026-05-03T09:48:02.999Z</time></trkpt><trkpt lat="42.2649638225083" lon="13.790128058701857"><ele>346.33333333333337</ele><time>2026-05-03T09:48:04Z</time></trkpt><trkpt lat="42.26490767385688" lon="13.790292736500831"><ele>345.6666666666667</ele><time>2026-05-03T09:48:05Z</time></trkpt><trkpt lat="42.264854904927894" lon="13.790500587892637"><ele>345.0</ele><time>2026-05-03T09:48:06Z</time></trkpt><trkpt lat="42.2647799483792" lon="13.790685515523473"><ele>346.0</ele><time>2026-05-03T09:48:07Z</time></trkpt><trkpt lat="42.26473643942467" lon="13.79087561295176"><ele>347.0</ele><time>2026-05-03T09:48:08Z</time></trkpt><trkpt lat="42.264677336524635" lon="13.791061156040435"><ele>348.0</ele><time>2026-05-03T09:48:09Z</time></trkpt><trkpt lat="42.26461995715451" lon="13.791252223320793"><ele>349.0</ele><time>2026-05-03T09:48:10Z</time></trkpt><trkpt lat="42.26456036693027" lon="13.7914384003937"><ele>349.0</ele><time>2026-05-03T09:48:11Z</time></trkpt><trkpt lat="42.26450188100223" lon="13.791619039329372"><ele>349.0</ele><time>2026-05-03T09:48:12Z</time></trkpt><trkpt lat="42.264438593312136" lon="13.79180342817518"><ele>349.0</ele><time>2026-05-03T09:48:13Z</time></trkpt><trkpt lat="42.264382900281234" lon="13.791993796862148"><ele>349.0</ele><time>2026-05-03T09:48:14Z</time></trkpt><trkpt lat="42.26433823180428" lon="13.792187656792812"><ele>348.25</ele><time>2026-05-03T09:48:15Z</time></trkpt><trkpt lat="42.26429038331554" lon="13.79238119565353"><ele>347.5</ele><time>2026-05-03T09:48:16Z</time></trkpt><trkpt lat="42.26424840554884" lon="13.79257108731593"><ele>346.75</ele><time>2026-05-03T09:48:17Z</time></trkpt><trkpt lat="42.2642012664201" lon="13.792759491985757"><ele>346.0</ele><time>2026-05-03T09:48:18Z</time></trkpt><trkpt lat="42.26415130232614" lon="13.792937290222538"><ele>346.0</ele><time>2026-05-03T09:48:19Z</time></trkpt><trkpt lat="42.26409372467612" lon="13.793116811411544"><ele>346.0</ele><time>2026-05-03T09:48:20Z</time></trkpt><trkpt lat="42.26402976718256" lon="13.793292876004225"><ele>346.0</ele><time>2026-05-03T09:48:21Z</time></trkpt><trkpt lat="42.26396941583671" lon="13.793468693089697"><ele>346.0</ele><time>2026-05-03T09:48:22Z</time></trkpt><trkpt lat="42.26391041889913" lon="13.793642802621388"><ele>346.0</ele><time>2026-05-03T09:48:23Z</time></trkpt><trkpt lat="42.26385403843366" lon="13.793815305822918"><ele>346.0</ele><time>2026-05-03T09:48:24Z</time></trkpt><trkpt lat="42.26379294426825" lon="13.79396762130258"><ele>346.0</ele><time>2026-05-03T09:48:25Z</time></trkpt><trkpt lat="42.26373534949254" lon="13.794134975520128"><ele>346.0</ele><time>2026-05-03T09:48:26Z</time></trkpt><trkpt lat="42.26369334591372" lon="13.794302764405492"><ele>345.0</ele><time>2026-05-03T09:48:27Z</time></trkpt><trkpt lat="42.26362107866141" lon="13.794453425082677"><ele>344.0</ele><time>2026-05-03T09:48:28Z</time></trkpt><trkpt lat="42.263541033012785" lon="13.794599293314551"><ele>343.0</ele><time>2026-05-03T09:48:29Z</time></trkpt><trkpt lat="42.26344641188892" lon="13.794737564071065"><ele>342.0</ele><time>2026-05-03T09:48:30Z</time></trkpt><trkpt lat="42.26333903677257" lon="13.794882715585423"><ele>342.0</ele><time>2026-05-03T09:48:31Z</time></trkpt><trkpt lat="42.26324023761243" lon="13.79504289696815"><ele>342.0</ele><time>2026-05-03T09:48:32Z</time></trkpt><trkpt lat="42.26314798170047" lon="13.79519748301346"><ele>342.0</ele><time>2026-05-03T09:48:33Z</time></trkpt><trkpt lat="42.26306868537596" lon="13.795360430086758"><ele>342.0</ele><time>2026-05-03T09:48:34Z</time></trkpt><trkpt lat="42.262980735276294" lon="13.795513497077348"><ele>343.0</ele><time>2026-05-03T09:48:35Z</time></trkpt><trkpt lat="42.26290035571216" lon="13.795649600090057"><ele>344.0</ele><time>2026-05-03T09:48:36Z</time></trkpt><trkpt lat="42.262813870427806" lon="13.79575797097917"><ele>345.0</ele><time>2026-05-03T09:48:37Z</time></trkpt><trkpt lat="42.262745804708864" lon="13.795873346172051"><ele>346.0</ele><time>2026-05-03T09:48:38Z</time></trkpt><trkpt lat="42.262699935581445" lon="13.795986553841471"><ele>345.66666666666663</ele><time>2026-05-03T09:48:39Z</time></trkpt><trkpt lat="42.26264223972235" lon="13.796075500041583"><ele>345.3333333333333</ele><time>2026-05-03T09:48:40Z</time></trkpt><trkpt lat="42.26259765582743" lon="13.796152175244526"><ele>345.0</ele><time>2026-05-03T09:48:41Z</time></trkpt><trkpt lat="42.262556006213565" lon="13.796259463551317"><ele>344.6666666666667</ele><time>2026-05-03T09:48:43Z</time></trkpt><trkpt lat="42.26262056368879" lon="13.796352172743068"><ele>344.33333333333337</ele><time>2026-05-03T09:48:46Z</time></trkpt><trkpt lat="42.26268592888721" lon="13.796360914596585"><ele>344.0</ele><time>2026-05-03T09:48:47Z</time></trkpt><trkpt lat="42.26276526129023" lon="13.79635166115268"><ele>344.0</ele><time>2026-05-03T09:48:48Z</time></trkpt><trkpt lat="42.262855418813245" lon="13.796349180411374"><ele>344.0</ele><time>2026-05-03T09:48:49Z</time></trkpt><trkpt lat="42.26296494081657" lon="13.796358022043519"><ele>344.0</ele><time>2026-05-03T09:48:50Z</time></trkpt><trkpt lat="42.26308165084847" lon="13.796381603066564"><ele>344.0</ele><time>2026-05-03T09:48:51Z</time></trkpt><trkpt lat="42.26321486890444" lon="13.79640500399883"><ele>342.75</ele><time>2026-05-03T09:48:52Z</time></trkpt><trkpt lat="42.26335718818452" lon="13.796432822995794"><ele>341.5</ele><time>2026-05-03T09:48:53Z</time></trkpt><trkpt lat="42.26349879970869" lon="13.796460182490083"><ele>340.25</ele><time>2026-05-03T09:48:54Z</time></trkpt><trkpt lat="42.26364554934007" lon="13.796502015905544"><ele>339.0</ele><time>2026-05-03T09:48:55Z</time></trkpt><trkpt lat="42.263783895003755" lon="13.79653491324816"><ele>339.0</ele><time>2026-05-03T09:48:56Z</time></trkpt><trkpt lat="42.26392699752415" lon="13.796562875165462"><ele>339.0</ele><time>2026-05-03T09:48:57Z</time></trkpt><trkpt lat="42.26407165053836" lon="13.796592494647367"><ele>339.0</ele><time>2026-05-03T09:48:58Z</time></trkpt><trkpt lat="42.26422465265356" lon="13.796630051961676"><ele>339.0</ele><time>2026-05-03T09:48:59Z</time></trkpt><trkpt lat="42.26431129551372" lon="13.796660831875084"><ele>338.2</ele><time>2026-05-03T09:49:00Z</time></trkpt><trkpt lat="42.2644158725651" lon="13.796716775501986"><ele>337.4</ele><time>2026-05-03T09:49:01Z</time></trkpt><trkpt lat="42.26449595326868" lon="13.796823649279487"><ele>336.6</ele><time>2026-05-03T09:49:02Z</time></trkpt><trkpt lat="42.264565001994654" lon="13.79691280369812"><ele>335.8</ele><time>2026-05-03T09:49:03Z</time></trkpt><trkpt lat="42.26463457485968" lon="13.796987188173206"><ele>335.0</ele><time>2026-05-03T09:49:04Z</time></trkpt><trkpt lat="42.26469435759658" lon="13.797081008142536"><ele>333.6</ele><time>2026-05-03T09:49:05Z</time></trkpt><trkpt lat="42.26474999511717" lon="13.797181890052657"><ele>332.2</ele><time>2026-05-03T09:49:06Z</time></trkpt><trkpt lat="42.26477591302669" lon="13.797302473938366"><ele>330.79999999999995</ele><time>2026-05-03T09:49:07Z</time></trkpt><trkpt lat="42.26480256053705" lon="13.797416388846168"><ele>329.4</ele><time>2026-05-03T09:49:08Z</time></trkpt><trkpt lat="42.264818869088195" lon="13.797549892175686"><ele>328.0</ele><time>2026-05-03T09:49:09Z</time></trkpt><trkpt lat="42.26483369597592" lon="13.797692719338725"><ele>327.5</ele><time>2026-05-03T09:49:10Z</time></trkpt><trkpt lat="42.26484849252188" lon="13.797841779170088"><ele>327.0</ele><time>2026-05-03T09:49:10.999Z</time></trkpt><trkpt lat="42.26487888928383" lon="13.797991398674123"><ele>326.5</ele><time>2026-05-03T09:49:11.999Z</time></trkpt><trkpt lat="42.264887074603784" lon="13.798152522953112"><ele>326.0</ele><time>2026-05-03T09:49:12.999Z</time></trkpt><trkpt lat="42.2649020083727" lon="13.798300609949147"><ele>326.0</ele><time>2026-05-03T09:49:13.999Z</time></trkpt><trkpt lat="42.26492125513115" lon="13.79843742086361"><ele>326.0</ele><time>2026-05-03T09:49:14.999Z</time></trkpt><trkpt lat="42.26495516846688" lon="13.798559381721473"><ele>326.0</ele><time>2026-05-03T09:49:15.999Z</time></trkpt><trkpt lat="42.26500330852805" lon="13.798667222699853"><ele>326.0</ele><time>2026-05-03T09:49:16.999Z</time></trkpt><trkpt lat="42.265052103735904" lon="13.798779301725355"><ele>326.0</ele><time>2026-05-03T09:49:17.999Z</time></trkpt><trkpt lat="42.265099652743785" lon="13.79888819164277"><ele>326.5</ele><time>2026-05-03T09:49:18.999Z</time></trkpt><trkpt lat="42.26513655050841" lon="13.798983511764181"><ele>327.0</ele><time>2026-05-03T09:49:19.999Z</time></trkpt><trkpt lat="42.265164076570535" lon="13.799061768011473"><ele>327.5</ele><time>2026-05-03T09:49:20.999Z</time></trkpt><trkpt lat="42.26516150735634" lon="13.7991475237978"><ele>328.0</ele><time>2026-05-03T09:49:22.999Z</time></trkpt><trkpt lat="42.265092174890405" lon="13.799225331396244"><ele>328.5</ele><time>2026-05-03T09:49:23.999Z</time></trkpt><trkpt lat="42.26503219166843" lon="13.799278741692033"><ele>329.0</ele><time>2026-05-03T09:49:24.999Z</time></trkpt><trkpt lat="42.2649423545947" lon="13.799291607573137"><ele>329.0</ele><time>2026-05-03T09:49:25.999Z</time></trkpt><trkpt lat="42.26485441054161" lon="13.799292305195648"><ele>329.0</ele><time>2026-05-03T09:49:26.999Z</time></trkpt><trkpt lat="42.26475940466248" lon="13.799268954992248"><ele>329.0</ele><time>2026-05-03T09:49:27.999Z</time></trkpt><trkpt lat="42.264661191253175" lon="13.799270040174662"><ele>329.0</ele><time>2026-05-03T09:49:28.999Z</time></trkpt><trkpt lat="42.26456924196434" lon="13.799305983956744"><ele>329.0</ele><time>2026-05-03T09:49:29.999Z</time></trkpt><trkpt lat="42.26447939833499" lon="13.79933256469765"><ele>330.6</ele><time>2026-05-03T09:49:30.999Z</time></trkpt><trkpt lat="42.26439797665438" lon="13.799404567373376"><ele>332.2</ele><time>2026-05-03T09:49:31.999Z</time></trkpt><trkpt lat="42.264320563062284" lon="13.799491856205934"><ele>333.8</ele><time>2026-05-03T09:49:32.999Z</time></trkpt><trkpt lat="42.2642507923834" lon="13.799592763914534"><ele>335.40000000000003</ele><time>2026-05-03T09:49:33.999Z</time></trkpt><trkpt lat="42.26416212011786" lon="13.799661903426784"><ele>337.0</ele><time>2026-05-03T09:49:34.999Z</time></trkpt><trkpt lat="42.26408231206657" lon="13.79972655156337"><ele>337.0</ele><time>2026-05-03T09:49:35.999Z</time></trkpt><trkpt lat="42.26401109905748" lon="13.799797082662144"><ele>337.0</ele><time>2026-05-03T09:49:36.999Z</time></trkpt><trkpt lat="42.26391867068645" lon="13.79984821181972"><ele>337.0</ele><time>2026-05-03T09:49:37.999Z</time></trkpt><trkpt lat="42.263807711611996" lon="13.79989157171646"><ele>337.0</ele><time>2026-05-03T09:49:38.999Z</time></trkpt><trkpt lat="42.263698568061855" lon="13.799943179204845"><ele>337.0</ele><time>2026-05-03T09:49:39.999Z</time></trkpt><trkpt lat="42.26359706237259" lon="13.799986164167967"><ele>336.40000000000003</ele><time>2026-05-03T09:49:40.999Z</time></trkpt><trkpt lat="42.263486209800845" lon="13.80003042056198"><ele>335.8</ele><time>2026-05-03T09:49:41.999Z</time></trkpt><trkpt lat="42.26338429407196" lon="13.80005944246651"><ele>335.2</ele><time>2026-05-03T09:49:42.999Z</time></trkpt><trkpt lat="42.26327534796743" lon="13.800073038376153"><ele>334.6</ele><time>2026-05-03T09:49:43.999Z</time></trkpt><trkpt lat="42.26317427692722" lon="13.800065233312328"><ele>334.0</ele><time>2026-05-03T09:49:44.999Z</time></trkpt><trkpt lat="42.26308166024053" lon="13.800041116323754"><ele>333.79999999999995</ele><time>2026-05-03T09:49:45.999Z</time></trkpt><trkpt lat="42.26298132791629" lon="13.800017036617552"><ele>333.59999999999997</ele><time>2026-05-03T09:49:46.999Z</time></trkpt><trkpt lat="42.26288508652549" lon="13.799968726895411"><ele>333.4</ele><time>2026-05-03T09:49:47.999Z</time></trkpt><trkpt lat="42.26278832307952" lon="13.799913085533897"><ele>333.2</ele><time>2026-05-03T09:49:48.999Z</time></trkpt><trkpt lat="42.26268481196088" lon="13.799870247012443"><ele>333.0</ele><time>2026-05-03T09:49:49.999Z</time></trkpt><trkpt lat="42.26257164097388" lon="13.79985457280891"><ele>333.0</ele><time>2026-05-03T09:49:50.999Z</time></trkpt><trkpt lat="42.26245374256472" lon="13.799840199818231"><ele>333.0</ele><time>2026-05-03T09:49:51.999Z</time></trkpt><trkpt lat="42.2623521326639" lon="13.799829240948485"><ele>333.0</ele><time>2026-05-03T09:49:52.999Z</time></trkpt><trkpt lat="42.26226200988553" lon="13.79982410360569"><ele>333.0</ele><time>2026-05-03T09:49:53.999Z</time></trkpt><trkpt lat="42.262163470674224" lon="13.799807665679946"><ele>333.0</ele><time>2026-05-03T09:49:54.999Z</time></trkpt><trkpt lat="42.26204079393374" lon="13.799795533624863"><ele>332.79999999999995</ele><time>2026-05-03T09:49:55.999Z</time></trkpt><trkpt lat="42.26192878096507" lon="13.79979721139058"><ele>332.6</ele><time>2026-05-03T09:49:56.999Z</time></trkpt><trkpt lat="42.26182018414778" lon="13.799818722767629"><ele>332.4</ele><time>2026-05-03T09:49:57.999Z</time></trkpt><trkpt lat="42.26175036026285" lon="13.79986626224818"><ele>332.20000000000005</ele><time>2026-05-03T09:49:58.999Z</time></trkpt><trkpt lat="42.261656733642184" lon="13.799927846855187"><ele>332.0</ele><time>2026-05-03T09:49:59.999Z</time></trkpt><trkpt lat="42.26155478502106" lon="13.79998573420606"><ele>332.0</ele><time>2026-05-03T09:50:00.999Z</time></trkpt><trkpt lat="42.26147078252803" lon="13.800078170458294"><ele>332.0</ele><time>2026-05-03T09:50:01.999Z</time></trkpt><trkpt lat="42.2613739959071" lon="13.800134423889965"><ele>332.0</ele><time>2026-05-03T09:50:02.999Z</time></trkpt><trkpt lat="42.261282265963175" lon="13.80021447568995"><ele>332.0</ele><time>2026-05-03T09:50:03.999Z</time></trkpt><trkpt lat="42.26120634108049" lon="13.800288253366423"><ele>332.0</ele><time>2026-05-03T09:50:04.999Z</time></trkpt><trkpt lat="42.26114164623171" lon="13.800388192061586"><ele>332.0</ele><time>2026-05-03T09:50:05.999Z</time></trkpt><trkpt lat="42.26105867863555" lon="13.800485552159797"><ele>332.0</ele><time>2026-05-03T09:50:06.999Z</time></trkpt><trkpt lat="42.26097537079284" lon="13.800564299688043"><ele>332.0</ele><time>2026-05-03T09:50:07.999Z</time></trkpt><trkpt lat="42.260893251173506" lon="13.800669459925338"><ele>332.0</ele><time>2026-05-03T09:50:08.999Z</time></trkpt><trkpt lat="42.26081095080897" lon="13.800781241059303"><ele>332.0</ele><time>2026-05-03T09:50:10Z</time></trkpt><trkpt lat="42.26072314340594" lon="13.800892227651213"><ele>332.0</ele><time>2026-05-03T09:50:11Z</time></trkpt><trkpt lat="42.26062718771385" lon="13.800953713451372"><ele>332.0</ele><time>2026-05-03T09:50:12Z</time></trkpt><trkpt lat="42.2605427571149" lon="13.801021560262829"><ele>332.0</ele><time>2026-05-03T09:50:13Z</time></trkpt><trkpt lat="42.26048569929452" lon="13.801071399323774"><ele>332.0</ele><time>2026-05-03T09:50:14Z</time></trkpt><trkpt lat="42.26039247251139" lon="13.801154003481527"><ele>332.0</ele><time>2026-05-03T09:50:16Z</time></trkpt><trkpt lat="42.26033820782886" lon="13.80120432669933"><ele>331.83333333333337</ele><time>2026-05-03T09:50:17Z</time></trkpt><trkpt lat="42.26028261302778" lon="13.801260044874901"><ele>331.6666666666667</ele><time>2026-05-03T09:50:18Z</time></trkpt><trkpt lat="42.26021433369058" lon="13.80133295405285"><ele>331.5</ele><time>2026-05-03T09:50:19Z</time></trkpt><trkpt lat="42.26014847027682" lon="13.80140987785305"><ele>331.3333333333333</ele><time>2026-05-03T09:50:20Z</time></trkpt><trkpt lat="42.26008023523001" lon="13.801497775802781"><ele>331.16666666666663</ele><time>2026-05-03T09:50:21Z</time></trkpt><trkpt lat="42.26002577037624" lon="13.801597911154197"><ele>331.0</ele><time>2026-05-03T09:50:22Z</time></trkpt><trkpt lat="42.25995007853881" lon="13.801690741828414"><ele>331.0</ele><time>2026-05-03T09:50:23Z</time></trkpt><trkpt lat="42.259884116616874" lon="13.801795437809618"><ele>331.0</ele><time>2026-05-03T09:50:24Z</time></trkpt><trkpt lat="42.259817704991505" lon="13.80189885592674"><ele>331.0</ele><time>2026-05-03T09:50:25Z</time></trkpt><trkpt lat="42.2597527973351" lon="13.802002121548762"><ele>331.0</ele><time>2026-05-03T09:50:26Z</time></trkpt><trkpt lat="42.25966497230241" lon="13.802082918486729"><ele>331.0</ele><time>2026-05-03T09:50:27Z</time></trkpt><trkpt lat="42.259576210991966" lon="13.802158962792424"><ele>331.8</ele><time>2026-05-03T09:50:28Z</time></trkpt><trkpt lat="42.25949045989215" lon="13.802216112452962"><ele>332.6</ele><time>2026-05-03T09:50:29Z</time></trkpt><trkpt lat="42.259398598736254" lon="13.802274525558007"><ele>333.4</ele><time>2026-05-03T09:50:30Z</time></trkpt><trkpt lat="42.25931258923291" lon="13.802321070089922"><ele>334.2</ele><time>2026-05-03T09:50:31Z</time></trkpt><trkpt lat="42.259228391854876" lon="13.80235373307981"><ele>335.0</ele><time>2026-05-03T09:50:32Z</time></trkpt><trkpt lat="42.25913295179997" lon="13.802364644813423"><ele>335.0</ele><time>2026-05-03T09:50:33Z</time></trkpt><trkpt lat="42.25904391258429" lon="13.802356177231745"><ele>335.0</ele><time>2026-05-03T09:50:34Z</time></trkpt><trkpt lat="42.25895407458703" lon="13.802337958083791"><ele>335.0</ele><time>2026-05-03T09:50:35Z</time></trkpt><trkpt lat="42.258848174138116" lon="13.80230676195488"><ele>335.0</ele><time>2026-05-03T09:50:36Z</time></trkpt><trkpt lat="42.25874921179664" lon="13.802272233180958"><ele>335.0</ele><time>2026-05-03T09:50:37Z</time></trkpt><trkpt lat="42.25865172834389" lon="13.802229059047733"><ele>335.6</ele><time>2026-05-03T09:50:38Z</time></trkpt><trkpt lat="42.25855473912205" lon="13.802186160937065"><ele>336.2</ele><time>2026-05-03T09:50:39Z</time></trkpt><trkpt lat="42.25845781733808" lon="13.802143292598494"><ele>336.79999999999995</ele><time>2026-05-03T09:50:40Z</time></trkpt><trkpt lat="42.2583563391644" lon="13.802098408974668"><ele>337.4</ele><time>2026-05-03T09:50:41Z</time></trkpt><trkpt lat="42.25826137124033" lon="13.802062243114465"><ele>338.0</ele><time>2026-05-03T09:50:42Z</time></trkpt><trkpt lat="42.25816920354601" lon="13.802014802937894"><ele>338.79999999999995</ele><time>2026-05-03T09:50:43Z</time></trkpt><trkpt lat="42.2581049430689" lon="13.801935263682594"><ele>339.6</ele><time>2026-05-03T09:50:44Z</time></trkpt><trkpt lat="42.25804974987826" lon="13.801837757109654"><ele>340.4</ele><time>2026-05-03T09:50:45Z</time></trkpt><trkpt lat="42.25799728544287" lon="13.801719152183233"><ele>341.20000000000005</ele><time>2026-05-03T09:50:46Z</time></trkpt><trkpt lat="42.25795097020477" lon="13.80160728042754"><ele>342.0</ele><time>2026-05-03T09:50:47Z</time></trkpt><trkpt lat="42.25789059583423" lon="13.80149777478249"><ele>340.40000000000003</ele><time>2026-05-03T09:50:48Z</time></trkpt><trkpt lat="42.25782549247545" lon="13.801386305351542"><ele>338.8</ele><time>2026-05-03T09:50:49Z</time></trkpt><trkpt lat="42.25776006327683" lon="13.8012893676284"><ele>337.2</ele><time>2026-05-03T09:50:50Z</time></trkpt><trkpt lat="42.257693076178356" lon="13.801206517162548"><ele>335.6</ele><time>2026-05-03T09:50:51Z</time></trkpt><trkpt lat="42.25761806492942" lon="13.801153463209157"><ele>334.0</ele><time>2026-05-03T09:50:52Z</time></trkpt><trkpt lat="42.257527492567064" lon="13.801139234243788"><ele>334.0</ele><time>2026-05-03T09:50:53Z</time></trkpt><trkpt lat="42.257444185927476" lon="13.801144880453954"><ele>334.0</ele><time>2026-05-03T09:50:54Z</time></trkpt><trkpt lat="42.25735532195313" lon="13.801217316440345"><ele>334.0</ele><time>2026-05-03T09:50:55Z</time></trkpt><trkpt lat="42.257261271394825" lon="13.801288849912059"><ele>334.0</ele><time>2026-05-03T09:50:56Z</time></trkpt><trkpt lat="42.25717000833618" lon="13.801363831106908"><ele>334.0</ele><time>2026-05-03T09:50:57Z</time></trkpt><trkpt lat="42.25708321213384" lon="13.801443435517282"><ele>334.2</ele><time>2026-05-03T09:50:58Z</time></trkpt><trkpt lat="42.25700492125289" lon="13.801517463511145"><ele>334.4</ele><time>2026-05-03T09:50:59Z</time></trkpt><trkpt lat="42.256920133051906" lon="13.801623051194646"><ele>334.6</ele><time>2026-05-03T09:51:00Z</time></trkpt><trkpt lat="42.25683752603104" lon="13.80174662251696"><ele>334.8</ele><time>2026-05-03T09:51:01Z</time></trkpt><trkpt lat="42.25676188070262" lon="13.801860211879628"><ele>335.0</ele><time>2026-05-03T09:51:02Z</time></trkpt><trkpt lat="42.25668889558494" lon="13.80196980670723"><ele>335.0</ele><time>2026-05-03T09:51:03Z</time></trkpt><trkpt lat="42.25661198832681" lon="13.802080723535296"><ele>335.0</ele><time>2026-05-03T09:51:04Z</time></trkpt><trkpt lat="42.25653266752421" lon="13.802175810618214"><ele>335.0</ele><time>2026-05-03T09:51:05Z</time></trkpt><trkpt lat="42.256451068542056" lon="13.802249796670843"><ele>335.0</ele><time>2026-05-03T09:51:06Z</time></trkpt><trkpt lat="42.25637054782151" lon="13.802301325171337"><ele>335.0</ele><time>2026-05-03T09:51:07Z</time></trkpt><trkpt lat="42.2562808264943" lon="13.802344284056716"><ele>334.0</ele><time>2026-05-03T09:51:08Z</time></trkpt><trkpt lat="42.256187282253656" lon="13.802379463405272"><ele>333.0</ele><time>2026-05-03T09:51:09Z</time></trkpt><trkpt lat="42.25608177824843" lon="13.802415928016808"><ele>332.0</ele><time>2026-05-03T09:51:10Z</time></trkpt><trkpt lat="42.255971109136226" lon="13.802448578728525"><ele>331.0</ele><time>2026-05-03T09:51:11Z</time></trkpt><trkpt lat="42.255853051395846" lon="13.80248197768621"><ele>330.0</ele><time>2026-05-03T09:51:12Z</time></trkpt><trkpt lat="42.25572197665911" lon="13.802521969711968"><ele>329.0</ele><time>2026-05-03T09:51:13Z</time></trkpt><trkpt lat="42.25559581687507" lon="13.802570254403202"><ele>328.0</ele><time>2026-05-03T09:51:13.999Z</time></trkpt><trkpt lat="42.25548951239696" lon="13.802662885383223"><ele>327.0</ele><time>2026-05-03T09:51:14.999Z</time></trkpt><trkpt lat="42.25536833665144" lon="13.802720977639332"><ele>326.0</ele><time>2026-05-03T09:51:15.999Z</time></trkpt><trkpt lat="42.25525266245801" lon="13.802795922392216"><ele>328.25</ele><time>2026-05-03T09:51:16.999Z</time></trkpt><trkpt lat="42.255136288275736" lon="13.802863614011558"><ele>330.5</ele><time>2026-05-03T09:51:17.999Z</time></trkpt><trkpt lat="42.255022688580105" lon="13.802913775703574"><ele>332.75</ele><time>2026-05-03T09:51:18.999Z</time></trkpt><trkpt lat="42.254904779195535" lon="13.80295313614891"><ele>335.0</ele><time>2026-05-03T09:51:19.999Z</time></trkpt><trkpt lat="42.25479284887266" lon="13.80298711469992"><ele>334.0</ele><time>2026-05-03T09:51:20.999Z</time></trkpt><trkpt lat="42.25469251581263" lon="13.803001161577772"><ele>333.0</ele><time>2026-05-03T09:51:21.999Z</time></trkpt><trkpt lat="42.254597768509896" lon="13.80299318163755"><ele>332.0</ele><time>2026-05-03T09:51:22.999Z</time></trkpt><trkpt lat="42.25449861650251" lon="13.802987782129636"><ele>331.0</ele><time>2026-05-03T09:51:23.999Z</time></trkpt><trkpt lat="42.25438454308281" lon="13.803008348068094"><ele>330.0</ele><time>2026-05-03T09:51:24.999Z</time></trkpt><trkpt lat="42.25426619467765" lon="13.803053439180356"><ele>330.0</ele><time>2026-05-03T09:51:25.999Z</time></trkpt><trkpt lat="42.25414421703666" lon="13.803106307076327"><ele>330.0</ele><time>2026-05-03T09:51:26.999Z</time></trkpt><trkpt lat="42.25402433323839" lon="13.803159838143872"><ele>330.0</ele><time>2026-05-03T09:51:27.999Z</time></trkpt><trkpt lat="42.25391450491004" lon="13.803208592596556"><ele>330.0</ele><time>2026-05-03T09:51:28.999Z</time></trkpt><trkpt lat="42.25381941654074" lon="13.803250608826191"><ele>328.25</ele><time>2026-05-03T09:51:29.999Z</time></trkpt><trkpt lat="42.253714291714026" lon="13.803293407567875"><ele>326.5</ele><time>2026-05-03T09:51:30.999Z</time></trkpt><trkpt lat="42.25360243071563" lon="13.803339425493233"><ele>324.75</ele><time>2026-05-03T09:51:31.999Z</time></trkpt><trkpt lat="42.25349575496669" lon="13.803408810011524"><ele>323.0</ele><time>2026-05-03T09:51:32.999Z</time></trkpt><trkpt lat="42.253387905847774" lon="13.803496381397531"><ele>324.0</ele><time>2026-05-03T09:51:33.999Z</time></trkpt><trkpt lat="42.253278985479945" lon="13.803594677310368"><ele>325.0</ele><time>2026-05-03T09:51:34.999Z</time></trkpt><trkpt lat="42.25317193343468" lon="13.803696497996581"><ele>326.0</ele><time>2026-05-03T09:51:35.999Z</time></trkpt><trkpt lat="42.25306558502023" lon="13.803793894363745"><ele>327.0</ele><time>2026-05-03T09:51:36.999Z</time></trkpt><trkpt lat="42.25296342541494" lon="13.80387454758646"><ele>327.0</ele><time>2026-05-03T09:51:37.999Z</time></trkpt><trkpt lat="42.252860696737685" lon="13.803930402202852"><ele>327.0</ele><time>2026-05-03T09:51:38.999Z</time></trkpt><trkpt lat="42.252749049975634" lon="13.803976332205941"><ele>327.0</ele><time>2026-05-03T09:51:39.999Z</time></trkpt><trkpt lat="42.252626809617354" lon="13.804011760525455"><ele>327.0</ele><time>2026-05-03T09:51:40.999Z</time></trkpt><trkpt lat="42.25250810717914" lon="13.804038541984594"><ele>327.0</ele><time>2026-05-03T09:51:41.999Z</time></trkpt><trkpt lat="42.252406832068" lon="13.804058382452956"><ele>327.0</ele><time>2026-05-03T09:51:42.999Z</time></trkpt><trkpt lat="42.25231626654816" lon="13.804070742905418"><ele>327.0</ele><time>2026-05-03T09:51:43.999Z</time></trkpt><trkpt lat="42.25221765082285" lon="13.804062237812989"><ele>327.0</ele><time>2026-05-03T09:51:44.999Z</time></trkpt><trkpt lat="42.25211013060975" lon="13.804032192173057"><ele>327.0</ele><time>2026-05-03T09:51:45.999Z</time></trkpt><trkpt lat="42.252004243402325" lon="13.80399506289688"><ele>329.0</ele><time>2026-05-03T09:51:46.999Z</time></trkpt><trkpt lat="42.251915727343636" lon="13.803932889944226"><ele>331.0</ele><time>2026-05-03T09:51:47.999Z</time></trkpt><trkpt lat="42.25183154681316" lon="13.803873566640034"><ele>333.0</ele><time>2026-05-03T09:51:48.999Z</time></trkpt><trkpt lat="42.25175333707779" lon="13.803780190330176"><ele>335.0</ele><time>2026-05-03T09:51:49.999Z</time></trkpt><trkpt lat="42.2517083456257" lon="13.803680281171843"><ele>337.0</ele><time>2026-05-03T09:51:50.999Z</time></trkpt><trkpt lat="42.25161820200969" lon="13.803577687230607"><ele>337.0</ele><time>2026-05-03T09:51:52.999Z</time></trkpt><trkpt lat="42.25155202337763" lon="13.803524905964505"><ele>337.0</ele><time>2026-05-03T09:51:53.999Z</time></trkpt><trkpt lat="42.25145432493761" lon="13.803493474347778"><ele>337.0</ele><time>2026-05-03T09:51:54.999Z</time></trkpt><trkpt lat="42.25136061318356" lon="13.803451184405725"><ele>337.0</ele><time>2026-05-03T09:51:55.999Z</time></trkpt><trkpt lat="42.25126797603163" lon="13.803416237274682"><ele>337.0</ele><time>2026-05-03T09:51:56.999Z</time></trkpt><trkpt lat="42.25118003684226" lon="13.803364046029007"><ele>335.6</ele><time>2026-05-03T09:51:57.999Z</time></trkpt><trkpt lat="42.25109127773327" lon="13.803331128565842"><ele>334.20000000000005</ele><time>2026-05-03T09:51:58.999Z</time></trkpt><trkpt lat="42.25100044259208" lon="13.80330341174879"><ele>332.8</ele><time>2026-05-03T09:51:59.999Z</time></trkpt><trkpt lat="42.250907190801904" lon="13.803284823117934"><ele>331.4</ele><time>2026-05-03T09:52:00.999Z</time></trkpt><trkpt lat="42.25079744618284" lon="13.803292976005688"><ele>330.0</ele><time>2026-05-03T09:52:01.999Z</time></trkpt><trkpt lat="42.25069345028336" lon="13.803313420161711"><ele>330.0</ele><time>2026-05-03T09:52:02.999Z</time></trkpt><trkpt lat="42.25059118177341" lon="13.803349547743728"><ele>330.0</ele><time>2026-05-03T09:52:03.999Z</time></trkpt><trkpt lat="42.25049022796192" lon="13.803401493022577"><ele>330.0</ele><time>2026-05-03T09:52:04.999Z</time></trkpt><trkpt lat="42.25039336248557" lon="13.803455956378835"><ele>330.0</ele><time>2026-05-03T09:52:05.999Z</time></trkpt><trkpt lat="42.250296544178205" lon="13.803522480814856"><ele>330.0</ele><time>2026-05-03T09:52:06.999Z</time></trkpt><trkpt lat="42.25020989707604" lon="13.803596280671469"><ele>331.2</ele><time>2026-05-03T09:52:07.999Z</time></trkpt><trkpt lat="42.25012956673346" lon="13.803666418864156"><ele>332.4</ele><time>2026-05-03T09:52:08.999Z</time></trkpt><trkpt lat="42.25003910313663" lon="13.803745282660365"><ele>333.6</ele><time>2026-05-03T09:52:09.999Z</time></trkpt><trkpt lat="42.24994564942547" lon="13.803823586832904"><ele>334.8</ele><time>2026-05-03T09:52:10.999Z</time></trkpt><trkpt lat="42.24986636930316" lon="13.803911376745301"><ele>336.0</ele><time>2026-05-03T09:52:11.999Z</time></trkpt><trkpt lat="42.24979732572631" lon="13.804017347343537"><ele>336.20000000000005</ele><time>2026-05-03T09:52:12.999Z</time></trkpt><trkpt lat="42.24973095552347" lon="13.804132014585264"><ele>336.40000000000003</ele><time>2026-05-03T09:52:13.999Z</time></trkpt><trkpt lat="42.249668443971316" lon="13.80425332128375"><ele>336.6</ele><time>2026-05-03T09:52:15Z</time></trkpt><trkpt lat="42.24961214460343" lon="13.804364016128089"><ele>336.8</ele><time>2026-05-03T09:52:16Z</time></trkpt><trkpt lat="42.24955263160755" lon="13.804459455469752"><ele>337.0</ele><time>2026-05-03T09:52:17Z</time></trkpt><trkpt lat="42.249494057782904" lon="13.804531986880235"><ele>337.0</ele><time>2026-05-03T09:52:18Z</time></trkpt><trkpt lat="42.24946547936581" lon="13.804618284505516"><ele>337.0</ele><time>2026-05-03T09:52:19Z</time></trkpt><trkpt lat="42.24939990364368" lon="13.804734363393326"><ele>337.0</ele><time>2026-05-03T09:52:21Z</time></trkpt><trkpt lat="42.24934484974689" lon="13.80480310140181"><ele>337.0</ele><time>2026-05-03T09:52:22Z</time></trkpt><trkpt lat="42.249278457464484" lon="13.80488324106941"><ele>337.0</ele><time>2026-05-03T09:52:23Z</time></trkpt><trkpt lat="42.24921048602784" lon="13.804974809908035"><ele>337.0</ele><time>2026-05-03T09:52:24Z</time></trkpt><trkpt lat="42.24912204953086" lon="13.805040702859294"><ele>337.0</ele><time>2026-05-03T09:52:25Z</time></trkpt><trkpt lat="42.24903976299709" lon="13.805100776213918"><ele>337.0</ele><time>2026-05-03T09:52:26Z</time></trkpt><trkpt lat="42.24896350709889" lon="13.805139898953898"><ele>337.0</ele><time>2026-05-03T09:52:27Z</time></trkpt><trkpt lat="42.2488906760298" lon="13.805157511014377"><ele>337.0</ele><time>2026-05-03T09:52:28Z</time></trkpt><trkpt lat="42.24880352428167" lon="13.805174728678857"><ele>337.0</ele><time>2026-05-03T09:52:29Z</time></trkpt><trkpt lat="42.2487182546316" lon="13.805195332950486"><ele>337.0</ele><time>2026-05-03T09:52:30Z</time></trkpt><trkpt lat="42.248632861553965" lon="13.805223540196263"><ele>336.6</ele><time>2026-05-03T09:52:31Z</time></trkpt><trkpt lat="42.24854449590695" lon="13.805273090048637"><ele>336.20000000000005</ele><time>2026-05-03T09:52:32Z</time></trkpt><trkpt lat="42.24845877161711" lon="13.805337172882112"><ele>335.8</ele><time>2026-05-03T09:52:33Z</time></trkpt><trkpt lat="42.24838107995179" lon="13.805405189022837"><ele>335.4</ele><time>2026-05-03T09:52:34Z</time></trkpt><trkpt lat="42.248329896097374" lon="13.805496246788778"><ele>335.0</ele><time>2026-05-03T09:52:35Z</time></trkpt><trkpt lat="42.24826460402767" lon="13.805596072874872"><ele>335.0</ele><time>2026-05-03T09:52:37Z</time></trkpt><trkpt lat="42.24821174877563" lon="13.805686751899914"><ele>335.0</ele><time>2026-05-03T09:52:45Z</time></trkpt><trkpt lat="42.24814570143574" lon="13.80581235998073"><ele>335.0</ele><time>2026-05-03T09:52:47Z</time></trkpt><trkpt lat="42.2480693707054" lon="13.80593965478007"><ele>335.0</ele><time>2026-05-03T09:52:49Z</time></trkpt><trkpt lat="42.24802836932746" lon="13.806025786063234"><ele>335.0</ele><time>2026-05-03T09:52:50Z</time></trkpt><trkpt lat="42.247979477881316" lon="13.806124393932702"><ele>333.5</ele><time>2026-05-03T09:52:51Z</time></trkpt><trkpt lat="42.24792692274984" lon="13.806229085050768"><ele>332.0</ele><time>2026-05-03T09:52:52Z</time></trkpt><trkpt lat="42.247877713419264" lon="13.806325121944536"><ele>330.5</ele><time>2026-05-03T09:52:53Z</time></trkpt><trkpt lat="42.24782808044967" lon="13.806424681671949"><ele>329.0</ele><time>2026-05-03T09:52:54Z</time></trkpt><trkpt lat="42.247788110217805" lon="13.806521581200624"><ele>327.5</ele><time>2026-05-03T09:52:55Z</time></trkpt><trkpt lat="42.247754059732166" lon="13.806634360210085"><ele>326.0</ele><time>2026-05-03T09:52:56Z</time></trkpt><trkpt lat="42.24772692778793" lon="13.806778530999942"><ele>326.4</ele><time>2026-05-03T09:52:57Z</time></trkpt><trkpt lat="42.247714561870715" lon="13.806929292525213"><ele>326.8</ele><time>2026-05-03T09:52:58Z</time></trkpt><trkpt lat="42.247695232998154" lon="13.807064464137827"><ele>327.2</ele><time>2026-05-03T09:52:59Z</time></trkpt><trkpt lat="42.24767383171492" lon="13.807170923486943"><ele>327.59999999999997</ele><time>2026-05-03T09:53:00Z</time></trkpt><trkpt lat="42.247609736840836" lon="13.807309492834431"><ele>328.0</ele><time>2026-05-03T09:53:02Z</time></trkpt><trkpt lat="42.247552660911985" lon="13.807370002245438"><ele>328.0</ele><time>2026-05-03T09:53:03Z</time></trkpt><trkpt lat="42.24747752139086" lon="13.807436161600215"><ele>328.0</ele><time>2026-05-03T09:53:04Z</time></trkpt><trkpt lat="42.24739071657847" lon="13.807496418269267"><ele>328.0</ele><time>2026-05-03T09:53:05Z</time></trkpt><trkpt lat="42.247300801119884" lon="13.807566717655844"><ele>328.0</ele><time>2026-05-03T09:53:06Z</time></trkpt><trkpt lat="42.247212664984225" lon="13.807642655028792"><ele>328.0</ele><time>2026-05-03T09:53:07Z</time></trkpt><trkpt lat="42.24712842952888" lon="13.807722292485373"><ele>327.4</ele><time>2026-05-03T09:53:08Z</time></trkpt><trkpt lat="42.24703851042805" lon="13.80781914870884"><ele>326.79999999999995</ele><time>2026-05-03T09:53:09Z</time></trkpt><trkpt lat="42.24695954224616" lon="13.807928628726279"><ele>326.2</ele><time>2026-05-03T09:53:10Z</time></trkpt><trkpt lat="42.246896782409" lon="13.808027921014999"><ele>325.6</ele><time>2026-05-03T09:53:10.999Z</time></trkpt><trkpt lat="42.24684783366833" lon="13.808137515830554"><ele>325.0</ele><time>2026-05-03T09:53:11.999Z</time></trkpt><trkpt lat="42.24681219646002" lon="13.808280805028213"><ele>325.0</ele><time>2026-05-03T09:53:12.999Z</time></trkpt><trkpt lat="42.246801760852925" lon="13.808439507848018"><ele>325.0</ele><time>2026-05-03T09:53:13.999Z</time></trkpt><trkpt lat="42.246771666136894" lon="13.80859823040251"><ele>325.0</ele><time>2026-05-03T09:53:14.999Z</time></trkpt><trkpt lat="42.24672474090588" lon="13.80874976601566"><ele>325.0</ele><time>2026-05-03T09:53:15.999Z</time></trkpt><trkpt lat="42.24669211564852" lon="13.808894486325773"><ele>325.0</ele><time>2026-05-03T09:53:16.999Z</time></trkpt><trkpt lat="42.2466485075505" lon="13.809051268435107"><ele>325.0</ele><time>2026-05-03T09:53:17.999Z</time></trkpt><trkpt lat="42.24661731684676" lon="13.809212173466063"><ele>325.0</ele><time>2026-05-03T09:53:18.999Z</time></trkpt><trkpt lat="42.24655766333858" lon="13.809361675801409"><ele>325.0</ele><time>2026-05-03T09:53:19.999Z</time></trkpt><trkpt lat="42.24652930698126" lon="13.809525959293063"><ele>325.0</ele><time>2026-05-03T09:53:20.999Z</time></trkpt><trkpt lat="42.24648858863816" lon="13.80967906426965"><ele>325.0</ele><time>2026-05-03T09:53:21.999Z</time></trkpt><trkpt lat="42.24642763102875" lon="13.809822346401324"><ele>325.0</ele><time>2026-05-03T09:53:22.999Z</time></trkpt><trkpt lat="42.246381806005594" lon="13.809949522634481"><ele>325.0</ele><time>2026-05-03T09:53:23.999Z</time></trkpt><trkpt lat="42.246336105126495" lon="13.810052989484085"><ele>325.0</ele><time>2026-05-03T09:53:24.999Z</time></trkpt><trkpt lat="42.2462800955461" lon="13.810155445117065"><ele>325.0</ele><time>2026-05-03T09:53:25.999Z</time></trkpt><trkpt lat="42.24622330084443" lon="13.810271394308673"><ele>325.0</ele><time>2026-05-03T09:53:26.999Z</time></trkpt><trkpt lat="42.24616275061014" lon="13.810362674980421"><ele>325.0</ele><time>2026-05-03T09:53:27.999Z</time></trkpt><trkpt lat="42.2461006584844" lon="13.810425586462507"><ele>325.0</ele><time>2026-05-03T09:53:28.999Z</time></trkpt><trkpt lat="42.24604603176302" lon="13.810512030404142"><ele>325.0</ele><time>2026-05-03T09:53:29.999Z</time></trkpt><trkpt lat="42.24597420342247" lon="13.810594704722263"><ele>325.0</ele><time>2026-05-03T09:53:30.999Z</time></trkpt><trkpt lat="42.245887606591175" lon="13.81069676158285"><ele>325.0</ele><time>2026-05-03T09:53:31.999Z</time></trkpt><trkpt lat="42.24580513308997" lon="13.810799806202477"><ele>325.0</ele><time>2026-05-03T09:53:32.999Z</time></trkpt><trkpt lat="42.24572296475551" lon="13.810899985773316"><ele>325.0</ele><time>2026-05-03T09:53:33.999Z</time></trkpt><trkpt lat="42.24562065886964" lon="13.810995855644167"><ele>324.8</ele><time>2026-05-03T09:53:34.999Z</time></trkpt><trkpt lat="42.24552981931076" lon="13.811092744955511"><ele>324.6</ele><time>2026-05-03T09:53:35.999Z</time></trkpt><trkpt lat="42.24543590913697" lon="13.811182532606846"><ele>324.4</ele><time>2026-05-03T09:53:36.999Z</time></trkpt><trkpt lat="42.245343185189064" lon="13.811271292090563"><ele>324.2</ele><time>2026-05-03T09:53:37.999Z</time></trkpt><trkpt lat="42.24527020376874" lon="13.81136582801158"><ele>324.0</ele><time>2026-05-03T09:53:38.999Z</time></trkpt><trkpt lat="42.24518865642277" lon="13.811445566496914"><ele>324.0</ele><time>2026-05-03T09:53:39.999Z</time></trkpt><trkpt lat="42.24512752557557" lon="13.811544421665348"><ele>324.0</ele><time>2026-05-03T09:53:40.999Z</time></trkpt><trkpt lat="42.24507675827065" lon="13.811652505566977"><ele>324.0</ele><time>2026-05-03T09:53:41.999Z</time></trkpt><trkpt lat="42.24503868240558" lon="13.811785051135253"><ele>324.0</ele><time>2026-05-03T09:53:42.999Z</time></trkpt><trkpt lat="42.24503861952762" lon="13.811935438010861"><ele>324.0</ele><time>2026-05-03T09:53:43.999Z</time></trkpt><trkpt lat="42.24502298590735" lon="13.81206952498576"><ele>323.5</ele><time>2026-05-03T09:53:44.999Z</time></trkpt><trkpt lat="42.244996614766826" lon="13.812196585247175"><ele>323.0</ele><time>2026-05-03T09:53:45.999Z</time></trkpt><trkpt lat="42.24496106405047" lon="13.812299924361383"><ele>322.5</ele><time>2026-05-03T09:53:46.999Z</time></trkpt><trkpt lat="42.24489016320905" lon="13.812373478806304"><ele>322.0</ele><time>2026-05-03T09:53:47.999Z</time></trkpt><trkpt lat="42.24482876270564" lon="13.812437774472315"><ele>321.5</ele><time>2026-05-03T09:53:48.999Z</time></trkpt><trkpt lat="42.24476235134972" lon="13.812488549994198"><ele>321.0</ele><time>2026-05-03T09:53:49.999Z</time></trkpt><trkpt lat="42.24469658707857" lon="13.812529035088414"><ele>321.0</ele><time>2026-05-03T09:53:50.999Z</time></trkpt><trkpt lat="42.24459215091275" lon="13.812606636538474"><ele>321.0</ele><time>2026-05-03T09:53:52.999Z</time></trkpt><trkpt lat="42.24451739285447" lon="13.812624060457928"><ele>321.0</ele><time>2026-05-03T09:53:53.999Z</time></trkpt><trkpt lat="42.24444786831932" lon="13.812653743896043"><ele>321.0</ele><time>2026-05-03T09:53:54.999Z</time></trkpt><trkpt lat="42.244365788258406" lon="13.812683237332244"><ele>321.0</ele><time>2026-05-03T09:53:55.999Z</time></trkpt><trkpt lat="42.2442896376263" lon="13.812711423144176"><ele>321.0</ele><time>2026-05-03T09:53:56.999Z</time></trkpt><trkpt lat="42.24421561247062" lon="13.812744573470608"><ele>321.8</ele><time>2026-05-03T09:53:57.999Z</time></trkpt><trkpt lat="42.244141183159265" lon="13.812768889391414"><ele>322.6</ele><time>2026-05-03T09:53:58.999Z</time></trkpt><trkpt lat="42.244053075722974" lon="13.81279724119803"><ele>323.4</ele><time>2026-05-03T09:53:59.999Z</time></trkpt><trkpt lat="42.24397616207308" lon="13.812833795712136"><ele>324.2</ele><time>2026-05-03T09:54:00.999Z</time></trkpt><trkpt lat="42.243898671614296" lon="13.812912939496982"><ele>325.0</ele><time>2026-05-03T09:54:01.999Z</time></trkpt><trkpt lat="42.243794765178244" lon="13.812943830224098"><ele>325.0</ele><time>2026-05-03T09:54:02.999Z</time></trkpt><trkpt lat="42.243703157889826" lon="13.812975433434755"><ele>325.0</ele><time>2026-05-03T09:54:03.999Z</time></trkpt><trkpt lat="42.243617631024485" lon="13.81302610234526"><ele>325.0</ele><time>2026-05-03T09:54:04.999Z</time></trkpt><trkpt lat="42.243519487952284" lon="13.813066076792781"><ele>325.0</ele><time>2026-05-03T09:54:05.999Z</time></trkpt><trkpt lat="42.24344782835513" lon="13.813143537007681"><ele>325.0</ele><time>2026-05-03T09:54:06.999Z</time></trkpt><trkpt lat="42.24337213800954" lon="13.81322388584473"><ele>325.0</ele><time>2026-05-03T09:54:07.999Z</time></trkpt><trkpt lat="42.24329296062483" lon="13.813321690086582"><ele>325.0</ele><time>2026-05-03T09:54:08.999Z</time></trkpt><trkpt lat="42.24322344700159" lon="13.813442029859814"><ele>325.0</ele><time>2026-05-03T09:54:09.999Z</time></trkpt><trkpt lat="42.24314149789345" lon="13.813530950768774"><ele>325.0</ele><time>2026-05-03T09:54:10.999Z</time></trkpt><trkpt lat="42.24306567137037" lon="13.813627477072297"><ele>325.0</ele><time>2026-05-03T09:54:11.999Z</time></trkpt><trkpt lat="42.24299156266218" lon="13.813718018521447"><ele>324.0</ele><time>2026-05-03T09:54:12.999Z</time></trkpt><trkpt lat="42.242914424776316" lon="13.81380678460208"><ele>323.0</ele><time>2026-05-03T09:54:13.999Z</time></trkpt><trkpt lat="42.242840892521286" lon="13.813888882461777"><ele>322.0</ele><time>2026-05-03T09:54:14.999Z</time></trkpt><trkpt lat="42.24276593002686" lon="13.813969653589371"><ele>321.0</ele><time>2026-05-03T09:54:15.999Z</time></trkpt><trkpt lat="42.24269752930001" lon="13.814066917339325"><ele>320.0</ele><time>2026-05-03T09:54:16.999Z</time></trkpt><trkpt lat="42.24261606657305" lon="13.814151687856597"><ele>320.0</ele><time>2026-05-03T09:54:17.999Z</time></trkpt><trkpt lat="42.24253382677607" lon="13.814233176461403"><ele>320.0</ele><time>2026-05-03T09:54:18.999Z</time></trkpt><trkpt lat="42.24245208498431" lon="13.814311187371366"><ele>320.0</ele><time>2026-05-03T09:54:19.999Z</time></trkpt><trkpt lat="42.24236354515951" lon="13.814367035030557"><ele>320.0</ele><time>2026-05-03T09:54:21Z</time></trkpt><trkpt lat="42.24227938138522" lon="13.8144311794361"><ele>320.0</ele><time>2026-05-03T09:54:22Z</time></trkpt><trkpt lat="42.24221442826032" lon="13.814457222748723"><ele>319.8</ele><time>2026-05-03T09:54:23Z</time></trkpt><trkpt lat="42.2420888063396" lon="13.814503212244386"><ele>319.6</ele><time>2026-05-03T09:54:25Z</time></trkpt><trkpt lat="42.24199841898799" lon="13.814517443758941"><ele>319.4</ele><time>2026-05-03T09:54:26Z</time></trkpt><trkpt lat="42.24194276679731" lon="13.814615907720368"><ele>319.2</ele><time>2026-05-03T09:54:27Z</time></trkpt><trkpt lat="42.2419104456963" lon="13.814694027828736"><ele>319.0</ele><time>2026-05-03T09:54:28Z</time></trkpt><trkpt lat="42.241908246778735" lon="13.814820998844267"><ele>319.0</ele><time>2026-05-03T09:54:30Z</time></trkpt><trkpt lat="42.24189974512855" lon="13.814933902952047"><ele>319.0</ele><time>2026-05-03T09:54:31Z</time></trkpt><trkpt lat="42.24189787190884" lon="13.815036609851433"><ele>319.0</ele><time>2026-05-03T09:54:32Z</time></trkpt><trkpt lat="42.24175951391962" lon="13.81514085492203"><ele>319.0</ele><time>2026-05-03T09:54:33Z</time></trkpt><trkpt lat="42.241701956803965" lon="13.815264611967697"><ele>319.0</ele><time>2026-05-03T09:54:34Z</time></trkpt><trkpt lat="42.24166550862025" lon="13.815381385236917"><ele>319.3333333333333</ele><time>2026-05-03T09:54:35Z</time></trkpt><trkpt lat="42.241638506361994" lon="13.815517707542714"><ele>319.66666666666663</ele><time>2026-05-03T09:54:36Z</time></trkpt><trkpt lat="42.24163718365946" lon="13.8156457302416"><ele>320.0</ele><time>2026-05-03T09:54:37Z</time></trkpt><trkpt lat="42.24163794581592" lon="13.815741679383072"><ele>320.3333333333333</ele><time>2026-05-03T09:54:38Z</time></trkpt><trkpt lat="42.24162458188606" lon="13.81583475972986"><ele>320.6666666666667</ele><time>2026-05-03T09:54:39Z</time></trkpt><trkpt lat="42.241582871208735" lon="13.815903708795057"><ele>321.0</ele><time>2026-05-03T09:54:40Z</time></trkpt><trkpt lat="42.241515364216326" lon="13.815994436647028"><ele>322.6</ele><time>2026-05-03T09:54:41Z</time></trkpt><trkpt lat="42.24143299344119" lon="13.816074928046831"><ele>324.20000000000005</ele><time>2026-05-03T09:54:42Z</time></trkpt><trkpt lat="42.24133166626457" lon="13.816140289485334"><ele>325.79999999999995</ele><time>2026-05-03T09:54:43Z</time></trkpt><trkpt lat="42.241225382893234" lon="13.816197935425073"><ele>327.4</ele><time>2026-05-03T09:54:44Z</time></trkpt><trkpt lat="42.24113136324219" lon="13.816239282949269"><ele>329.0</ele><time>2026-05-03T09:54:45Z</time></trkpt><trkpt lat="42.24103893989956" lon="13.816260732036595"><ele>329.0</ele><time>2026-05-03T09:54:46Z</time></trkpt><trkpt lat="42.24092901077428" lon="13.816272735710305"><ele>329.0</ele><time>2026-05-03T09:54:47Z</time></trkpt><trkpt lat="42.24080286048994" lon="13.816276856884079"><ele>329.0</ele><time>2026-05-03T09:54:48Z</time></trkpt><trkpt lat="42.24068050776266" lon="13.816279412957952"><ele>329.0</ele><time>2026-05-03T09:54:49Z</time></trkpt><trkpt lat="42.24055886816184" lon="13.8162812854081"><ele>328.5</ele><time>2026-05-03T09:54:50Z</time></trkpt><trkpt lat="42.24043603312728" lon="13.81628903124547"><ele>328.0</ele><time>2026-05-03T09:54:51Z</time></trkpt><trkpt lat="42.24031411478627" lon="13.816294783485978"><ele>327.5</ele><time>2026-05-03T09:54:52Z</time></trkpt><trkpt lat="42.24019794240772" lon="13.816295746429157"><ele>327.0</ele><time>2026-05-03T09:54:53Z</time></trkpt><trkpt lat="42.24008925105407" lon="13.816302829439147"><ele>327.0</ele><time>2026-05-03T09:54:54Z</time></trkpt><trkpt lat="42.23998292116199" lon="13.816327075866921"><ele>327.0</ele><time>2026-05-03T09:54:55Z</time></trkpt><trkpt lat="42.239887648699515" lon="13.816410657155282"><ele>327.0</ele><time>2026-05-03T09:54:56Z</time></trkpt><trkpt lat="42.239775263184946" lon="13.81643140704331"><ele>327.0</ele><time>2026-05-03T09:54:57Z</time></trkpt><trkpt lat="42.239679359092285" lon="13.81645216411631"><ele>327.0</ele><time>2026-05-03T09:54:58Z</time></trkpt><trkpt lat="42.239596466004684" lon="13.816467413887057"><ele>326.20000000000005</ele><time>2026-05-03T09:54:59Z</time></trkpt><trkpt lat="42.23953003909934" lon="13.816471587298526"><ele>325.4</ele><time>2026-05-03T09:55:00Z</time></trkpt><trkpt lat="42.23944991555895" lon="13.81642640831922"><ele>324.6</ele><time>2026-05-03T09:55:02Z</time></trkpt><trkpt lat="42.23939935252018" lon="13.81632677122028"><ele>323.79999999999995</ele><time>2026-05-03T09:55:04Z</time></trkpt><trkpt lat="42.23936214144561" lon="13.816203376458159"><ele>323.0</ele><time>2026-05-03T09:55:06Z</time></trkpt><trkpt lat="42.239230093080764" lon="13.816150030327156"><ele>323.0</ele><time>2026-05-03T09:55:08Z</time></trkpt><trkpt lat="42.23911921009519" lon="13.816133330465272"><ele>323.0</ele><time>2026-05-03T09:55:10Z</time></trkpt><trkpt lat="42.239039171899385" lon="13.816121276054407"><ele>323.0</ele><time>2026-05-03T09:55:11Z</time></trkpt><trkpt lat="42.23893130001986" lon="13.816102513837434"><ele>323.0</ele><time>2026-05-03T09:55:12Z</time></trkpt><trkpt lat="42.23882011084646" lon="13.816078692421677"><ele>323.0</ele><time>2026-05-03T09:55:13Z</time></trkpt><trkpt lat="42.23869099403469" lon="13.816058866733993"><ele>322.0</ele><time>2026-05-03T09:55:14Z</time></trkpt><trkpt lat="42.23855671353373" lon="13.816057591877279"><ele>321.0</ele><time>2026-05-03T09:55:15Z</time></trkpt><trkpt lat="42.23841604700095" lon="13.816093125334056"><ele>320.0</ele><time>2026-05-03T09:55:15.999Z</time></trkpt><trkpt lat="42.23828028648112" lon="13.816164040468331"><ele>319.0</ele><time>2026-05-03T09:55:16.999Z</time></trkpt><trkpt lat="42.23815632784275" lon="13.816227964608453"><ele>319.0</ele><time>2026-05-03T09:55:17.999Z</time></trkpt><trkpt lat="42.238012272306634" lon="13.81629178197419"><ele>319.0</ele><time>2026-05-03T09:55:18.999Z</time></trkpt><trkpt lat="42.237871046567335" lon="13.816354345685031"><ele>319.0</ele><time>2026-05-03T09:55:19.999Z</time></trkpt><trkpt lat="42.237736537489155" lon="13.816420719155031"><ele>319.0</ele><time>2026-05-03T09:55:20.999Z</time></trkpt><trkpt lat="42.23761078537581" lon="13.816485494911314"><ele>319.0</ele><time>2026-05-03T09:55:21.999Z</time></trkpt><trkpt lat="42.237488232344226" lon="13.81654697845093"><ele>319.0</ele><time>2026-05-03T09:55:22.999Z</time></trkpt><trkpt lat="42.237364608884576" lon="13.816603137628706"><ele>319.0</ele><time>2026-05-03T09:55:23.999Z</time></trkpt><trkpt lat="42.237242670841844" lon="13.816652853215148"><ele>319.0</ele><time>2026-05-03T09:55:24.999Z</time></trkpt><trkpt lat="42.237122131915136" lon="13.816689555252202"><ele>319.25</ele><time>2026-05-03T09:55:25.999Z</time></trkpt><trkpt lat="42.236998176040395" lon="13.816709394982276"><ele>319.5</ele><time>2026-05-03T09:55:26.999Z</time></trkpt><trkpt lat="42.2368650966175" lon="13.816711759175968"><ele>319.75</ele><time>2026-05-03T09:55:27.999Z</time></trkpt><trkpt lat="42.236732313393354" lon="13.816690740732435"><ele>320.0</ele><time>2026-05-03T09:55:28.999Z</time></trkpt><trkpt lat="42.23660408361259" lon="13.816642002637495"><ele>320.0</ele><time>2026-05-03T09:55:29.999Z</time></trkpt><trkpt lat="42.236476682245524" lon="13.816577999645354"><ele>320.0</ele><time>2026-05-03T09:55:30.999Z</time></trkpt><trkpt lat="42.236368679252074" lon="13.816505300074361"><ele>320.0</ele><time>2026-05-03T09:55:31.999Z</time></trkpt><trkpt lat="42.23627095581528" lon="13.81642782706358"><ele>320.0</ele><time>2026-05-03T09:55:32.999Z</time></trkpt><trkpt lat="42.236181524875335" lon="13.81634305250526"><ele>320.4</ele><time>2026-05-03T09:55:33.999Z</time></trkpt><trkpt lat="42.23608294681217" lon="13.816259049082573"><ele>320.8</ele><time>2026-05-03T09:55:34.999Z</time></trkpt><trkpt lat="42.235972510987935" lon="13.816222007122612"><ele>321.20000000000005</ele><time>2026-05-03T09:55:35.999Z</time></trkpt><trkpt lat="42.235866681553574" lon="13.81619247759918"><ele>321.6</ele><time>2026-05-03T09:55:36.999Z</time></trkpt><trkpt lat="42.23575962534116" lon="13.81619921694043"><ele>322.0</ele><time>2026-05-03T09:55:37.999Z</time></trkpt><trkpt lat="42.23564786068442" lon="13.816237376992595"><ele>321.0</ele><time>2026-05-03T09:55:38.999Z</time></trkpt><trkpt lat="42.235533356679525" lon="13.816306934644622"><ele>320.0</ele><time>2026-05-03T09:55:39.999Z</time></trkpt><trkpt lat="42.23541472288088" lon="13.816405018743204"><ele>319.0</ele><time>2026-05-03T09:55:40.999Z</time></trkpt><trkpt lat="42.23532825172415" lon="13.816533167797571"><ele>318.0</ele><time>2026-05-03T09:55:41.999Z</time></trkpt><trkpt lat="42.235262231500016" lon="13.816687237308729"><ele>318.75</ele><time>2026-05-03T09:55:42.999Z</time></trkpt><trkpt lat="42.23519516829203" lon="13.816841398538191"><ele>319.5</ele><time>2026-05-03T09:55:43.999Z</time></trkpt><trkpt lat="42.23510968549075" lon="13.81698767687518"><ele>320.25</ele><time>2026-05-03T09:55:44.999Z</time></trkpt><trkpt lat="42.23503661085076" lon="13.817148962404591"><ele>321.0</ele><time>2026-05-03T09:55:45.999Z</time></trkpt><trkpt lat="42.2349585360128" lon="13.81730922919549"><ele>321.0</ele><time>2026-05-03T09:55:46.999Z</time></trkpt><trkpt lat="42.23487202054493" lon="13.817465373415688"><ele>321.0</ele><time>2026-05-03T09:55:47.999Z</time></trkpt><trkpt lat="42.234780320770156" lon="13.817613590791165"><ele>321.0</ele><time>2026-05-03T09:55:48.999Z</time></trkpt><trkpt lat="42.234690037132694" lon="13.817745347543683"><ele>321.0</ele><time>2026-05-03T09:55:49.999Z</time></trkpt><trkpt lat="42.23460409152802" lon="13.817864877667"><ele>322.25</ele><time>2026-05-03T09:55:50.999Z</time></trkpt><trkpt lat="42.23449676579132" lon="13.817984643686552"><ele>323.5</ele><time>2026-05-03T09:55:51.999Z</time></trkpt><trkpt lat="42.234389432364594" lon="13.818095718238231"><ele>324.75</ele><time>2026-05-03T09:55:52.999Z</time></trkpt><trkpt lat="42.23427804950688" lon="13.81819396449609"><ele>326.0</ele><time>2026-05-03T09:55:53.999Z</time></trkpt><trkpt lat="42.23415935089773" lon="13.818285542283773"><ele>326.0</ele><time>2026-05-03T09:55:54.999Z</time></trkpt><trkpt lat="42.23403540348279" lon="13.818367488878694"><ele>326.0</ele><time>2026-05-03T09:55:55.999Z</time></trkpt><trkpt lat="42.23390822244932" lon="13.818447055496101"><ele>326.0</ele><time>2026-05-03T09:55:56.999Z</time></trkpt><trkpt lat="42.233784903725194" lon="13.818524207265018"><ele>326.0</ele><time>2026-05-03T09:55:57.999Z</time></trkpt><trkpt lat="42.233660330939195" lon="13.818600970897908"><ele>327.25</ele><time>2026-05-03T09:55:58.999Z</time></trkpt><trkpt lat="42.23353250970784" lon="13.818675300332504"><ele>328.5</ele><time>2026-05-03T09:55:59.999Z</time></trkpt><trkpt lat="42.233402926934716" lon="13.818739890812727"><ele>329.75</ele><time>2026-05-03T09:56:00.999Z</time></trkpt><trkpt lat="42.23326694280699" lon="13.818800992171244"><ele>331.0</ele><time>2026-05-03T09:56:01.999Z</time></trkpt><trkpt lat="42.233132470340124" lon="13.818864029252037"><ele>328.5</ele><time>2026-05-03T09:56:02.999Z</time></trkpt><trkpt lat="42.232998961596635" lon="13.818928451269466"><ele>326.0</ele><time>2026-05-03T09:56:03.999Z</time></trkpt><trkpt lat="42.23286121310587" lon="13.818980464221523"><ele>323.5</ele><time>2026-05-03T09:56:04.999Z</time></trkpt><trkpt lat="42.232718630293306" lon="13.81899554407693"><ele>321.0</ele><time>2026-05-03T09:56:05.999Z</time></trkpt><trkpt lat="42.232569173804286" lon="13.819006041443727"><ele>321.0</ele><time>2026-05-03T09:56:06.999Z</time></trkpt><trkpt lat="42.23241442714443" lon="13.819015452808454"><ele>321.0</ele><time>2026-05-03T09:56:07.999Z</time></trkpt><trkpt lat="42.23226170503774" lon="13.819021929368851"><ele>321.0</ele><time>2026-05-03T09:56:08.999Z</time></trkpt><trkpt lat="42.2321102300553" lon="13.819030004846182"><ele>320.6666666666667</ele><time>2026-05-03T09:56:09.999Z</time></trkpt><trkpt lat="42.23196098672519" lon="13.819045476545497"><ele>320.33333333333337</ele><time>2026-05-03T09:56:10.999Z</time></trkpt><trkpt lat="42.23181510879285" lon="13.81906746829177"><ele>320.0</ele><time>2026-05-03T09:56:11.999Z</time></trkpt><trkpt lat="42.23165767672374" lon="13.819108362820563"><ele>320.0</ele><time>2026-05-03T09:56:12.999Z</time></trkpt><trkpt lat="42.23151319261552" lon="13.819205023865276"><ele>320.0</ele><time>2026-05-03T09:56:13.999Z</time></trkpt><trkpt lat="42.23137503109846" lon="13.81929474876737"><ele>320.0</ele><time>2026-05-03T09:56:14.999Z</time></trkpt><trkpt lat="42.231235634745474" lon="13.819372570335519"><ele>321.25</ele><time>2026-05-03T09:56:15.999Z</time></trkpt><trkpt lat="42.23109999992386" lon="13.81945523257856"><ele>322.5</ele><time>2026-05-03T09:56:16.999Z</time></trkpt><trkpt lat="42.23096744568027" lon="13.81951814704386"><ele>323.75</ele><time>2026-05-03T09:56:17.999Z</time></trkpt><trkpt lat="42.23082637900009" lon="13.819540390097321"><ele>325.0</ele><time>2026-05-03T09:56:18.999Z</time></trkpt><trkpt lat="42.23067794861925" lon="13.81955428238753"><ele>322.66666666666663</ele><time>2026-05-03T09:56:19.999Z</time></trkpt><trkpt lat="42.23051772652849" lon="13.819569508456567"><ele>320.3333333333333</ele><time>2026-05-03T09:56:20.999Z</time></trkpt><trkpt lat="42.23035671343594" lon="13.819600418088271"><ele>318.0</ele><time>2026-05-03T09:56:21.999Z</time></trkpt><trkpt lat="42.23019627474802" lon="13.819630756819652"><ele>318.0</ele><time>2026-05-03T09:56:22.999Z</time></trkpt><trkpt lat="42.23003586424359" lon="13.81966002976041"><ele>318.0</ele><time>2026-05-03T09:56:23.999Z</time></trkpt><trkpt lat="42.229878717492525" lon="13.819658112761218"><ele>318.0</ele><time>2026-05-03T09:56:24.999Z</time></trkpt><trkpt lat="42.229718154252666" lon="13.819656318665762"><ele>318.0</ele><time>2026-05-03T09:56:25.999Z</time></trkpt><trkpt lat="42.22955812661014" lon="13.819662795915482"><ele>318.0</ele><time>2026-05-03T09:56:27Z</time></trkpt><trkpt lat="42.229396436760844" lon="13.819674114802519"><ele>318.0</ele><time>2026-05-03T09:56:28Z</time></trkpt><trkpt lat="42.22923566294901" lon="13.81969178865413"><ele>318.0</ele><time>2026-05-03T09:56:29Z</time></trkpt><trkpt lat="42.229084131578006" lon="13.819710292864327"><ele>318.0</ele><time>2026-05-03T09:56:30Z</time></trkpt><trkpt lat="42.228928310394906" lon="13.819722391358187"><ele>318.0</ele><time>2026-05-03T09:56:31Z</time></trkpt><trkpt lat="42.22878599152736" lon="13.81973224886357"><ele>319.75</ele><time>2026-05-03T09:56:32Z</time></trkpt><trkpt lat="42.228640992458516" lon="13.819733251543326"><ele>321.5</ele><time>2026-05-03T09:56:33Z</time></trkpt><trkpt lat="42.228490809872476" lon="13.81972157861013"><ele>323.25</ele><time>2026-05-03T09:56:34Z</time></trkpt><trkpt lat="42.228346764950395" lon="13.819689964883302"><ele>325.0</ele><time>2026-05-03T09:56:35Z</time></trkpt><trkpt lat="42.228205795160825" lon="13.819637827123893"><ele>325.0</ele><time>2026-05-03T09:56:36Z</time></trkpt><trkpt lat="42.22806473996073" lon="13.81959007142417"><ele>325.0</ele><time>2026-05-03T09:56:37Z</time></trkpt><trkpt lat="42.22791804155111" lon="13.819550049705546"><ele>325.0</ele><time>2026-05-03T09:56:38Z</time></trkpt><trkpt lat="42.22776522291721" lon="13.81952795801121"><ele>325.0</ele><time>2026-05-03T09:56:39Z</time></trkpt><trkpt lat="42.22761367397562" lon="13.819526741315592"><ele>325.0</ele><time>2026-05-03T09:56:40Z</time></trkpt><trkpt lat="42.227460692458685" lon="13.81953514462905"><ele>325.0</ele><time>2026-05-03T09:56:41Z</time></trkpt><trkpt lat="42.227313950884216" lon="13.819548374271031"><ele>325.0</ele><time>2026-05-03T09:56:42Z</time></trkpt><trkpt lat="42.22716294670586" lon="13.819570986558993"><ele>324.5</ele><time>2026-05-03T09:56:43Z</time></trkpt><trkpt lat="42.2270200093036" lon="13.819607590119798"><ele>324.0</ele><time>2026-05-03T09:56:44Z</time></trkpt><trkpt lat="42.22689396575954" lon="13.819654190466716"><ele>323.5</ele><time>2026-05-03T09:56:45Z</time></trkpt><trkpt lat="42.226786745861524" lon="13.819703000998935"><ele>323.0</ele><time>2026-05-03T09:56:46Z</time></trkpt><trkpt lat="42.22669157324369" lon="13.819757651988848"><ele>323.0</ele><time>2026-05-03T09:56:47Z</time></trkpt><trkpt lat="42.22660299648609" lon="13.819831145292657"><ele>323.0</ele><time>2026-05-03T09:56:48Z</time></trkpt><trkpt lat="42.22652818095814" lon="13.819902879750744"><ele>323.0</ele><time>2026-05-03T09:56:49Z</time></trkpt><trkpt lat="42.2264762609932" lon="13.819959597110515"><ele>323.0</ele><time>2026-05-03T09:56:50Z</time></trkpt><trkpt lat="42.22642094631822" lon="13.8200231136784"><ele>323.0</ele><time>2026-05-03T09:56:51Z</time></trkpt><trkpt lat="42.22636196660701" lon="13.82010131868942"><ele>323.0</ele><time>2026-05-03T09:56:52Z</time></trkpt><trkpt lat="42.22629436483927" lon="13.820201510563074"><ele>321.75</ele><time>2026-05-03T09:56:53Z</time></trkpt><trkpt lat="42.226219449156176" lon="13.820327546327164"><ele>320.5</ele><time>2026-05-03T09:56:54Z</time></trkpt><trkpt lat="42.22614044352413" lon="13.820481129228414"><ele>319.25</ele><time>2026-05-03T09:56:55Z</time></trkpt><trkpt lat="42.22606363476071" lon="13.820633958789818"><ele>318.0</ele><time>2026-05-03T09:56:56Z</time></trkpt><trkpt lat="42.22599643830283" lon="13.820776545745977"><ele>318.0</ele><time>2026-05-03T09:56:57Z</time></trkpt><trkpt lat="42.22593336096824" lon="13.820919553698221"><ele>318.0</ele><time>2026-05-03T09:56:58Z</time></trkpt><trkpt lat="42.22586424039567" lon="13.82105183744363"><ele>318.0</ele><time>2026-05-03T09:56:59Z</time></trkpt><trkpt lat="42.22577899272098" lon="13.821159822029415"><ele>318.0</ele><time>2026-05-03T09:57:00Z</time></trkpt><trkpt lat="42.22569005950319" lon="13.821266542576845"><ele>318.25</ele><time>2026-05-03T09:57:01Z</time></trkpt><trkpt lat="42.22559079120913" lon="13.821361888166406"><ele>318.5</ele><time>2026-05-03T09:57:02Z</time></trkpt><trkpt lat="42.22548305886383" lon="13.821439000240844"><ele>318.75</ele><time>2026-05-03T09:57:03Z</time></trkpt><trkpt lat="42.22536457124476" lon="13.821514050754903"><ele>319.0</ele><time>2026-05-03T09:57:04Z</time></trkpt><trkpt lat="42.22523915756739" lon="13.821578185865565"><ele>319.0</ele><time>2026-05-03T09:57:05Z</time></trkpt><trkpt lat="42.225097833288075" lon="13.821621827220513"><ele>319.0</ele><time>2026-05-03T09:57:06Z</time></trkpt><trkpt lat="42.22494351741174" lon="13.821661770145809"><ele>319.0</ele><time>2026-05-03T09:57:07Z</time></trkpt><trkpt lat="42.22479190345574" lon="13.82170090102538"><ele>318.66666666666663</ele><time>2026-05-03T09:57:08Z</time></trkpt><trkpt lat="42.22463648981429" lon="13.821753267424608"><ele>318.3333333333333</ele><time>2026-05-03T09:57:09Z</time></trkpt><trkpt lat="42.224481577137034" lon="13.82182884111409"><ele>318.0</ele><time>2026-05-03T09:57:10Z</time></trkpt><trkpt lat="42.22432550092619" lon="13.821915118816907"><ele>318.6666666666667</ele><time>2026-05-03T09:57:11Z</time></trkpt><trkpt lat="42.22418059479956" lon="13.822021537304048"><ele>319.33333333333337</ele><time>2026-05-03T09:57:12Z</time></trkpt><trkpt lat="42.224055135517226" lon="13.822154173979902"><ele>320.0</ele><time>2026-05-03T09:57:13Z</time></trkpt><trkpt lat="42.223909746566896" lon="13.822266906801348"><ele>320.0</ele><time>2026-05-03T09:57:14Z</time></trkpt><trkpt lat="42.22377856470309" lon="13.822387802480618"><ele>320.0</ele><time>2026-05-03T09:57:15Z</time></trkpt><trkpt lat="42.22364839560674" lon="13.822493652283432"><ele>320.0</ele><time>2026-05-03T09:57:16Z</time></trkpt><trkpt lat="42.22351730046774" lon="13.822582420112445"><ele>322.0</ele><time>2026-05-03T09:57:17Z</time></trkpt><trkpt lat="42.223382282137116" lon="13.822655521289565"><ele>324.0</ele><time>2026-05-03T09:57:18Z</time></trkpt><trkpt lat="42.22324180966445" lon="13.82270637385955"><ele>326.0</ele><time>2026-05-03T09:57:19Z</time></trkpt><trkpt lat="42.22310810549329" lon="13.822720084101814"><ele>328.0</ele><time>2026-05-03T09:57:20Z</time></trkpt><trkpt lat="42.222963986277605" lon="13.822694708905692"><ele>328.0</ele><time>2026-05-03T09:57:20.999Z</time></trkpt><trkpt lat="42.222813152913524" lon="13.822661822836645"><ele>328.0</ele><time>2026-05-03T09:57:21.999Z</time></trkpt><trkpt lat="42.222656171963166" lon="13.822621649620023"><ele>328.0</ele><time>2026-05-03T09:57:22.999Z</time></trkpt><trkpt lat="42.22249845534307" lon="13.822581618257628"><ele>327.3333333333333</ele><time>2026-05-03T09:57:23.999Z</time></trkpt><trkpt lat="42.222342116328875" lon="13.82254347533631"><ele>326.6666666666667</ele><time>2026-05-03T09:57:24.999Z</time></trkpt><trkpt lat="42.22218273444889" lon="13.82249846845775"><ele>326.0</ele><time>2026-05-03T09:57:25.999Z</time></trkpt><trkpt lat="42.2220210811402" lon="13.822441799086363"><ele>326.0</ele><time>2026-05-03T09:57:26.999Z</time></trkpt><trkpt lat="42.221874341712386" lon="13.822387671786661"><ele>326.0</ele><time>2026-05-03T09:57:27.999Z</time></trkpt><trkpt lat="42.221739690568754" lon="13.822333735519754"><ele>326.0</ele><time>2026-05-03T09:57:28.999Z</time></trkpt><trkpt lat="42.22161835361566" lon="13.822286705950454"><ele>326.0</ele><time>2026-05-03T09:57:29.999Z</time></trkpt><trkpt lat="42.22150507539652" lon="13.822254914126411"><ele>326.75</ele><time>2026-05-03T09:57:30.999Z</time></trkpt><trkpt lat="42.221381485986775" lon="13.822232422065664"><ele>327.5</ele><time>2026-05-03T09:57:31.999Z</time></trkpt><trkpt lat="42.221252505572615" lon="13.82223477017553"><ele>328.25</ele><time>2026-05-03T09:57:32.999Z</time></trkpt><trkpt lat="42.22112526683639" lon="13.822202541416113"><ele>329.0</ele><time>2026-05-03T09:57:33.999Z</time></trkpt><trkpt lat="42.221007401676836" lon="13.82220394454248"><ele>329.0</ele><time>2026-05-03T09:57:34.999Z</time></trkpt><trkpt lat="42.220886826256915" lon="13.822221805396234"><ele>329.0</ele><time>2026-05-03T09:57:35.999Z</time></trkpt><trkpt lat="42.22078286026887" lon="13.822279519015863"><ele>329.0</ele><time>2026-05-03T09:57:36.999Z</time></trkpt><trkpt lat="42.22070665200343" lon="13.822341559403332"><ele>329.0</ele><time>2026-05-03T09:57:37.999Z</time></trkpt><trkpt lat="42.220633778469626" lon="13.822387758359456"><ele>329.0</ele><time>2026-05-03T09:57:38.999Z</time></trkpt><trkpt lat="42.220571700609064" lon="13.82246984801962"><ele>328.0</ele><time>2026-05-03T09:57:39.999Z</time></trkpt><trkpt lat="42.22050166807421" lon="13.822559529970183"><ele>327.0</ele><time>2026-05-03T09:57:40.999Z</time></trkpt><trkpt lat="42.22043043534436" lon="13.822650812264657"><ele>326.0</ele><time>2026-05-03T09:57:41.999Z</time></trkpt><trkpt lat="42.22035211639938" lon="13.82275325584841"><ele>325.0</ele><time>2026-05-03T09:57:42.999Z</time></trkpt><trkpt lat="42.22027051974699" lon="13.822860346604525"><ele>324.0</ele><time>2026-05-03T09:57:43.999Z</time></trkpt><trkpt lat="42.22017882365102" lon="13.822974893227743"><ele>324.0</ele><time>2026-05-03T09:57:44.999Z</time></trkpt><trkpt lat="42.220083031834086" lon="13.823069560298393"><ele>324.0</ele><time>2026-05-03T09:57:45.999Z</time></trkpt><trkpt lat="42.219982489679225" lon="13.823168162570962"><ele>324.0</ele><time>2026-05-03T09:57:46.999Z</time></trkpt><trkpt lat="42.21989589876628" lon="13.823269670154275"><ele>324.0</ele><time>2026-05-03T09:57:47.999Z</time></trkpt><trkpt lat="42.21981830885165" lon="13.823369027742862"><ele>323.25</ele><time>2026-05-03T09:57:48.999Z</time></trkpt><trkpt lat="42.21974134189049" lon="13.823468198512117"><ele>322.5</ele><time>2026-05-03T09:57:49.999Z</time></trkpt><trkpt lat="42.21967369843424" lon="13.823586004135418"><ele>321.75</ele><time>2026-05-03T09:57:50.999Z</time></trkpt><trkpt lat="42.219573025106335" lon="13.823662947241694"><ele>321.0</ele><time>2026-05-03T09:57:51.999Z</time></trkpt><trkpt lat="42.21946650528924" lon="13.823733629635322"><ele>321.0</ele><time>2026-05-03T09:57:52.999Z</time></trkpt><trkpt lat="42.21934967059497" lon="13.823797793550519"><ele>321.0</ele><time>2026-05-03T09:57:53.999Z</time></trkpt><trkpt lat="42.21922963767599" lon="13.82385107013407"><ele>321.0</ele><time>2026-05-03T09:57:54.999Z</time></trkpt><trkpt lat="42.21910951664985" lon="13.823905309790511"><ele>321.0</ele><time>2026-05-03T09:57:55.999Z</time></trkpt><trkpt lat="42.218993076036696" lon="13.823961864299964"><ele>321.25</ele><time>2026-05-03T09:57:56.999Z</time></trkpt><trkpt lat="42.21888057589659" lon="13.824020385637358"><ele>321.5</ele><time>2026-05-03T09:57:57.999Z</time></trkpt><trkpt lat="42.21877193635047" lon="13.82407522952997"><ele>321.75</ele><time>2026-05-03T09:57:58.999Z</time></trkpt><trkpt lat="42.21866205927839" lon="13.824129009307866"><ele>322.0</ele><time>2026-05-03T09:57:59.999Z</time></trkpt><trkpt lat="42.21855097407313" lon="13.82417871998263"><ele>322.0</ele><time>2026-05-03T09:58:00.999Z</time></trkpt><trkpt lat="42.218441352573166" lon="13.824225697230746"><ele>322.0</ele><time>2026-05-03T09:58:01.999Z</time></trkpt><trkpt lat="42.21832874234124" lon="13.824271961035667"><ele>322.0</ele><time>2026-05-03T09:58:02.999Z</time></trkpt><trkpt lat="42.21822470050242" lon="13.824313769479959"><ele>322.0</ele><time>2026-05-03T09:58:03.999Z</time></trkpt><trkpt lat="42.218120707385545" lon="13.82435508030876"><ele>322.40000000000003</ele><time>2026-05-03T09:58:04.999Z</time></trkpt><trkpt lat="42.218016443534246" lon="13.82439459164406"><ele>322.8</ele><time>2026-05-03T09:58:05.999Z</time></trkpt><trkpt lat="42.21791643243135" lon="13.82442813671724"><ele>323.2</ele><time>2026-05-03T09:58:06.999Z</time></trkpt><trkpt lat="42.217814211418755" lon="13.824470901162279"><ele>323.6</ele><time>2026-05-03T09:58:07.999Z</time></trkpt><trkpt lat="42.21770477047906" lon="13.82452877345726"><ele>324.0</ele><time>2026-05-03T09:58:08.999Z</time></trkpt><trkpt lat="42.217598917410164" lon="13.824592257911934"><ele>324.0</ele><time>2026-05-03T09:58:09.999Z</time></trkpt><trkpt lat="42.21749991944356" lon="13.824653773047592"><ele>324.0</ele><time>2026-05-03T09:58:10.999Z</time></trkpt><trkpt lat="42.21740883061024" lon="13.824713291327841"><ele>324.0</ele><time>2026-05-03T09:58:11.999Z</time></trkpt><trkpt lat="42.2173264531183" lon="13.824766984194373"><ele>324.0</ele><time>2026-05-03T09:58:12.999Z</time></trkpt><trkpt lat="42.217254219858226" lon="13.824835113835455"><ele>324.0</ele><time>2026-05-03T09:58:13.999Z</time></trkpt><trkpt lat="42.2171828688117" lon="13.824873759820901"><ele>323.6</ele><time>2026-05-03T09:58:14.999Z</time></trkpt><trkpt lat="42.21710950578469" lon="13.824905577951439"><ele>323.2</ele><time>2026-05-03T09:58:15.999Z</time></trkpt><trkpt lat="42.21703277307491" lon="13.824903114394594"><ele>322.8</ele><time>2026-05-03T09:58:16.999Z</time></trkpt><trkpt lat="42.21694458757612" lon="13.824703791976393"><ele>322.40000000000003</ele><time>2026-05-03T09:58:18.999Z</time></trkpt><trkpt lat="42.216881031911306" lon="13.824584656359475"><ele>322.0</ele><time>2026-05-03T09:58:19.999Z</time></trkpt><trkpt lat="42.2168266688669" lon="13.824434151297371"><ele>321.25</ele><time>2026-05-03T09:58:20.999Z</time></trkpt><trkpt lat="42.21675968403465" lon="13.824277063033938"><ele>320.5</ele><time>2026-05-03T09:58:21.999Z</time></trkpt><trkpt lat="42.21668980002773" lon="13.824120403545745"><ele>319.75</ele><time>2026-05-03T09:58:22.999Z</time></trkpt><trkpt lat="42.216627258497866" lon="13.82396960517482"><ele>319.0</ele><time>2026-05-03T09:58:23.999Z</time></trkpt><trkpt lat="42.216565110107155" lon="13.823818687610393"><ele>319.0</ele><time>2026-05-03T09:58:24.999Z</time></trkpt><trkpt lat="42.216501541523385" lon="13.823671079307003"><ele>319.0</ele><time>2026-05-03T09:58:25.999Z</time></trkpt><trkpt lat="42.216437022289846" lon="13.823532491364203"><ele>319.0</ele><time>2026-05-03T09:58:26.999Z</time></trkpt><trkpt lat="42.21638339424102" lon="13.823402226502845"><ele>319.0</ele><time>2026-05-03T09:58:27.999Z</time></trkpt><trkpt lat="42.216329997157025" lon="13.823262837744851"><ele>317.5</ele><time>2026-05-03T09:58:28.999Z</time></trkpt><trkpt lat="42.216272604303384" lon="13.823117703976001"><ele>316.0</ele><time>2026-05-03T09:58:29.999Z</time></trkpt><trkpt lat="42.21621539368909" lon="13.822978868095728"><ele>314.5</ele><time>2026-05-03T09:58:30.999Z</time></trkpt><trkpt lat="42.216161686922845" lon="13.822847931732834"><ele>313.0</ele><time>2026-05-03T09:58:31.999Z</time></trkpt><trkpt lat="42.216111759008896" lon="13.8227240353249"><ele>313.4</ele><time>2026-05-03T09:58:33Z</time></trkpt><trkpt lat="42.216058269023016" lon="13.822607461122411"><ele>313.8</ele><time>2026-05-03T09:58:34Z</time></trkpt><trkpt lat="42.21600041842246" lon="13.822497395452915"><ele>314.2</ele><time>2026-05-03T09:58:35Z</time></trkpt><trkpt lat="42.2159260082681" lon="13.82239640871837"><ele>314.6</ele><time>2026-05-03T09:58:36Z</time></trkpt><trkpt lat="42.215826151593106" lon="13.822323669460143"><ele>315.0</ele><time>2026-05-03T09:58:37Z</time></trkpt><trkpt lat="42.21570823072087" lon="13.822282599060916"><ele>315.5</ele><time>2026-05-03T09:58:38Z</time></trkpt><trkpt lat="42.21558695583263" lon="13.82228159062372"><ele>316.0</ele><time>2026-05-03T09:58:39Z</time></trkpt><trkpt lat="42.21546681404185" lon="13.822312748209786"><ele>316.5</ele><time>2026-05-03T09:58:40Z</time></trkpt><trkpt lat="42.21534794640702" lon="13.822367025834861"><ele>317.0</ele><time>2026-05-03T09:58:41Z</time></trkpt><trkpt lat="42.21523787440058" lon="13.822437161250948"><ele>317.0</ele><time>2026-05-03T09:58:42Z</time></trkpt><trkpt lat="42.2151348005775" lon="13.82250087427497"><ele>317.0</ele><time>2026-05-03T09:58:43Z</time></trkpt><trkpt lat="42.215043443456175" lon="13.822549753130668"><ele>317.0</ele><time>2026-05-03T09:58:44Z</time></trkpt><trkpt lat="42.214951476940456" lon="13.82260215182743"><ele>317.0</ele><time>2026-05-03T09:58:45Z</time></trkpt><trkpt lat="42.214867091139396" lon="13.822652836003922"><ele>317.0</ele><time>2026-05-03T09:58:46Z</time></trkpt><trkpt lat="42.214781770284254" lon="13.822706176026005"><ele>317.0</ele><time>2026-05-03T09:58:47Z</time></trkpt><trkpt lat="42.21469624841218" lon="13.822755668914647"><ele>317.0</ele><time>2026-05-03T09:58:48Z</time></trkpt><trkpt lat="42.214608319568285" lon="13.822793462276671"><ele>317.0</ele><time>2026-05-03T09:58:49Z</time></trkpt><trkpt lat="42.2145146578284" lon="13.822803882441809"><ele>317.0</ele><time>2026-05-03T09:58:50Z</time></trkpt><trkpt lat="42.21442705228267" lon="13.822775930341825"><ele>317.0</ele><time>2026-05-03T09:58:51Z</time></trkpt><trkpt lat="42.214350387507025" lon="13.822721764804735"><ele>317.0</ele><time>2026-05-03T09:58:52Z</time></trkpt><trkpt lat="42.21429401815944" lon="13.822654366693857"><ele>317.0</ele><time>2026-05-03T09:58:53Z</time></trkpt><trkpt lat="42.21420136143654" lon="13.822539983643853"><ele>317.0</ele><time>2026-05-03T09:58:55Z</time></trkpt><trkpt lat="42.21415333729933" lon="13.822461420242613"><ele>317.0</ele><time>2026-05-03T09:58:56Z</time></trkpt><trkpt lat="42.21411080662737" lon="13.822374587694622"><ele>317.0</ele><time>2026-05-03T09:58:57Z</time></trkpt><trkpt lat="42.21407296066889" lon="13.822297988015602"><ele>317.0</ele><time>2026-05-03T09:58:58Z</time></trkpt><trkpt lat="42.21403825986912" lon="13.822163195318643"><ele>317.0</ele><time>2026-05-03T09:59:00Z</time></trkpt><trkpt lat="42.21404166036134" lon="13.8220581558035"><ele>317.0</ele><time>2026-05-03T09:59:03Z</time></trkpt><trkpt lat="42.21410261354775" lon="13.821973390069202"><ele>317.0</ele><time>2026-05-03T09:59:05Z</time></trkpt><trkpt lat="42.214172316157494" lon="13.821918000110056"><ele>317.0</ele><time>2026-05-03T09:59:06Z</time></trkpt><trkpt lat="42.214232285601184" lon="13.821858855154387"><ele>317.0</ele><time>2026-05-03T09:59:07Z</time></trkpt><trkpt lat="42.214298985317285" lon="13.82177032250561"><ele>317.0</ele><time>2026-05-03T09:59:08Z</time></trkpt><trkpt lat="42.214379266753454" lon="13.821692851967644"><ele>317.33333333333337</ele><time>2026-05-03T09:59:09Z</time></trkpt><trkpt lat="42.214447899520934" lon="13.821608716268791"><ele>317.6666666666667</ele><time>2026-05-03T09:59:10Z</time></trkpt><trkpt lat="42.214508082437916" lon="13.821516754389943"><ele>318.0</ele><time>2026-05-03T09:59:11Z</time></trkpt><trkpt lat="42.21457349189783" lon="13.821425944428142"><ele>318.3333333333333</ele><time>2026-05-03T09:59:12Z</time></trkpt><trkpt lat="42.21463435260586" lon="13.821340338556091"><ele>318.66666666666663</ele><time>2026-05-03T09:59:13Z</time></trkpt><trkpt lat="42.21468491752977" lon="13.821257371731443"><ele>319.0</ele><time>2026-05-03T09:59:14Z</time></trkpt><trkpt lat="42.21473054566644" lon="13.821180028667076"><ele>319.0</ele><time>2026-05-03T09:59:15Z</time></trkpt><trkpt lat="42.214785689221735" lon="13.821097385442389"><ele>319.0</ele><time>2026-05-03T09:59:16Z</time></trkpt><trkpt lat="42.21484345255314" lon="13.821019149232619"><ele>319.0</ele><time>2026-05-03T09:59:17Z</time></trkpt><trkpt lat="42.21489735379412" lon="13.820944310005393"><ele>319.0</ele><time>2026-05-03T09:59:18Z</time></trkpt><trkpt lat="42.21493771600964" lon="13.820876286265223"><ele>319.0</ele><time>2026-05-03T09:59:19Z</time></trkpt><trkpt lat="42.21498748578977" lon="13.820776025488712"><ele>319.0</ele><time>2026-05-03T09:59:21Z</time></trkpt><trkpt lat="42.21494053603264" lon="13.82061301151952"><ele>319.0</ele><time>2026-05-03T09:59:24Z</time></trkpt><trkpt lat="42.214898763065015" lon="13.820523871680258"><ele>319.0</ele><time>2026-05-03T09:59:25.999Z</time></trkpt><trkpt lat="42.215034598289655" lon="13.820410153934482"><ele>319.0</ele><time>2026-05-03T10:02:08.999Z</time></trkpt><trkpt lat="42.2150964976175" lon="13.820358626975132"><ele>319.0</ele><time>2026-05-03T10:03:56.999Z</time></trkpt><trkpt lat="42.21510362930809" lon="13.820480533057927"><ele>319.0</ele><time>2026-05-03T10:03:58.999Z</time></trkpt><trkpt lat="42.215033117728176" lon="13.820576252941384"><ele>319.0</ele><time>2026-05-03T10:04:00.999Z</time></trkpt><trkpt lat="42.21497832237273" lon="13.82071753595749"><ele>319.0</ele><time>2026-05-03T10:04:02.999Z</time></trkpt><trkpt lat="42.21495957592385" lon="13.820803090613365"><ele>319.0</ele><time>2026-05-03T10:04:03.999Z</time></trkpt><trkpt lat="42.21491202785582" lon="13.820889082950325"><ele>319.0</ele><time>2026-05-03T10:04:04.999Z</time></trkpt><trkpt lat="42.21485397417761" lon="13.82096982944903"><ele>319.0</ele><time>2026-05-03T10:04:05.999Z</time></trkpt><trkpt lat="42.214799366573494" lon="13.821044576650234"><ele>319.0</ele><time>2026-05-03T10:04:06.999Z</time></trkpt><trkpt lat="42.21474957434055" lon="13.821118747837385"><ele>319.0</ele><time>2026-05-03T10:04:07.999Z</time></trkpt><trkpt lat="42.21470482551501" lon="13.821191430191652"><ele>319.0</ele><time>2026-05-03T10:04:08.999Z</time></trkpt><trkpt lat="42.21465963727563" lon="13.821261457909326"><ele>319.0</ele><time>2026-05-03T10:04:09.999Z</time></trkpt><trkpt lat="42.214611544049106" lon="13.82134829063681"><ele>319.0</ele><time>2026-05-03T10:04:10.999Z</time></trkpt><trkpt lat="42.21455892917527" lon="13.82143446448022"><ele>319.0</ele><time>2026-05-03T10:04:11.999Z</time></trkpt><trkpt lat="42.21450140799487" lon="13.821509201770219"><ele>319.0</ele><time>2026-05-03T10:04:12.999Z</time></trkpt><trkpt lat="42.2144393324052" lon="13.82157447781404"><ele>319.0</ele><time>2026-05-03T10:04:13.999Z</time></trkpt><trkpt lat="42.21437772212839" lon="13.821652168696248"><ele>319.0</ele><time>2026-05-03T10:04:14.999Z</time></trkpt><trkpt lat="42.2143178924444" lon="13.82173387710603"><ele>319.0</ele><time>2026-05-03T10:04:15.999Z</time></trkpt><trkpt lat="42.21425104468687" lon="13.821810256485794"><ele>319.0</ele><time>2026-05-03T10:04:16.999Z</time></trkpt><trkpt lat="42.21418182434367" lon="13.821876074040727"><ele>319.0</ele><time>2026-05-03T10:04:17.999Z</time></trkpt><trkpt lat="42.214116528485604" lon="13.821936079101501"><ele>319.0</ele><time>2026-05-03T10:04:18.999Z</time></trkpt><trkpt lat="42.214054129204065" lon="13.821984366318492"><ele>318.66666666666663</ele><time>2026-05-03T10:04:19.999Z</time></trkpt><trkpt lat="42.21399264930646" lon="13.822014586751388"><ele>318.3333333333333</ele><time>2026-05-03T10:04:20.999Z</time></trkpt><trkpt lat="42.21392584638271" lon="13.822039161233878"><ele>318.0</ele><time>2026-05-03T10:04:21.999Z</time></trkpt><trkpt lat="42.2138160487289" lon="13.822078017143705"><ele>317.6666666666667</ele><time>2026-05-03T10:04:23.999Z</time></trkpt><trkpt lat="42.213719210077834" lon="13.822105780363522"><ele>317.33333333333337</ele><time>2026-05-03T10:04:25.999Z</time></trkpt><trkpt lat="42.21365225147204" lon="13.822109497719998"><ele>317.0</ele><time>2026-05-03T10:04:27.999Z</time></trkpt><trkpt lat="42.213597876915514" lon="13.822218510686326"><ele>317.0</ele><time>2026-05-03T10:10:50.999Z</time></trkpt><trkpt lat="42.21352315697368" lon="13.822257525963053"><ele>317.0</ele><time>2026-05-03T10:10:53.999Z</time></trkpt><trkpt lat="42.21345880700293" lon="13.822272100335486"><ele>317.0</ele><time>2026-05-03T10:10:54.999Z</time></trkpt><trkpt lat="42.21338043568016" lon="13.822292414327931"><ele>317.0</ele><time>2026-05-03T10:10:55.999Z</time></trkpt><trkpt lat="42.213283666701905" lon="13.82224255666411"><ele>317.0</ele><time>2026-05-03T10:10:56.999Z</time></trkpt><trkpt lat="42.21321340722237" lon="13.822265279181432"><ele>317.0</ele><time>2026-05-03T10:10:57.999Z</time></trkpt><trkpt lat="42.213118244896236" lon="13.82227508992038"><ele>317.25</ele><time>2026-05-03T10:10:59.999Z</time></trkpt><trkpt lat="42.21313098195456" lon="13.822066083795962"><ele>317.5</ele><time>2026-05-03T10:11:01.999Z</time></trkpt><trkpt lat="42.21314420863371" lon="13.821929156517658"><ele>317.75</ele><time>2026-05-03T10:11:02.999Z</time></trkpt><trkpt lat="42.21314253566457" lon="13.821778324626374"><ele>318.0</ele><time>2026-05-03T10:11:03.999Z</time></trkpt><trkpt lat="42.2131621339156" lon="13.821624601545924"><ele>318.0</ele><time>2026-05-03T10:11:04.999Z</time></trkpt><trkpt lat="42.2131937955064" lon="13.821421726161873"><ele>318.0</ele><time>2026-05-03T10:11:05.999Z</time></trkpt><trkpt lat="42.213208411251365" lon="13.821271143295284"><ele>318.0</ele><time>2026-05-03T10:11:06.999Z</time></trkpt><trkpt lat="42.21322081194724" lon="13.821128808210116"><ele>318.0</ele><time>2026-05-03T10:11:07.999Z</time></trkpt><trkpt lat="42.213216903389124" lon="13.820982470034087"><ele>317.4</ele><time>2026-05-03T10:11:09Z</time></trkpt><trkpt lat="42.213217219027946" lon="13.820839956169396"><ele>316.8</ele><time>2026-05-03T10:11:10Z</time></trkpt><trkpt lat="42.2132038206948" lon="13.820703869097029"><ele>316.2</ele><time>2026-05-03T10:11:11Z</time></trkpt><trkpt lat="42.213187494327144" lon="13.820553153302669"><ele>315.6</ele><time>2026-05-03T10:11:12Z</time></trkpt><trkpt lat="42.21316639935635" lon="13.820421068943002"><ele>315.0</ele><time>2026-05-03T10:11:13Z</time></trkpt><trkpt lat="42.21316114525635" lon="13.82029849706918"><ele>315.0</ele><time>2026-05-03T10:11:14Z</time></trkpt><trkpt lat="42.21317036588923" lon="13.820184817249745"><ele>315.0</ele><time>2026-05-03T10:11:15Z</time></trkpt><trkpt lat="42.21320340378626" lon="13.82008756386665"><ele>315.0</ele><time>2026-05-03T10:11:16Z</time></trkpt><trkpt lat="42.21329456817096" lon="13.82002373230014"><ele>315.0</ele><time>2026-05-03T10:11:17Z</time></trkpt><trkpt lat="42.21338049897675" lon="13.819978200260465"><ele>315.0</ele><time>2026-05-03T10:11:18Z</time></trkpt><trkpt lat="42.21347498367251" lon="13.82000370344484"><ele>315.0</ele><time>2026-05-03T10:11:19Z</time></trkpt><trkpt lat="42.21356406046036" lon="13.82006339153727"><ele>315.0</ele><time>2026-05-03T10:11:20Z</time></trkpt><trkpt lat="42.21358970702721" lon="13.820185865711482"><ele>315.0</ele><time>2026-05-03T10:11:21Z</time></trkpt><trkpt lat="42.21362974243776" lon="13.820280144957406"><ele>315.0</ele><time>2026-05-03T10:11:22Z</time></trkpt><trkpt lat="42.21360867589625" lon="13.820391040626582"><ele>315.0</ele><time>2026-05-03T10:11:23Z</time></trkpt><trkpt lat="42.213487555159304" lon="13.820529580176146"><ele>315.0</ele><time>2026-05-03T10:11:25Z</time></trkpt><trkpt lat="42.213396155505684" lon="13.820577259890241"><ele>315.0</ele><time>2026-05-03T10:11:26Z</time></trkpt><trkpt lat="42.2132974503513" lon="13.820646981996262"><ele>315.0</ele><time>2026-05-03T10:11:27Z</time></trkpt><trkpt lat="42.21318691106502" lon="13.820717509803835"><ele>315.0</ele><time>2026-05-03T10:11:28Z</time></trkpt><trkpt lat="42.21306957273098" lon="13.820796646077238"><ele>315.0</ele><time>2026-05-03T10:11:29Z</time></trkpt><trkpt lat="42.21293706194426" lon="13.8208894138056"><ele>315.0</ele><time>2026-05-03T10:11:30Z</time></trkpt><trkpt lat="42.21279691635833" lon="13.820981642360064"><ele>315.0</ele><time>2026-05-03T10:11:31Z</time></trkpt><trkpt lat="42.21265005026852" lon="13.82108146204101"><ele>315.0</ele><time>2026-05-03T10:11:32Z</time></trkpt><trkpt lat="42.21250445005846" lon="13.821179735958465"><ele>315.0</ele><time>2026-05-03T10:11:33Z</time></trkpt><trkpt lat="42.21234569752924" lon="13.821281980026113"><ele>315.0</ele><time>2026-05-03T10:11:34Z</time></trkpt><trkpt lat="42.21218521024861" lon="13.821384010996045"><ele>315.3333333333333</ele><time>2026-05-03T10:11:35Z</time></trkpt><trkpt lat="42.21202984476453" lon="13.821489369090726"><ele>315.66666666666663</ele><time>2026-05-03T10:11:36Z</time></trkpt><trkpt lat="42.211867622788155" lon="13.82159405039932"><ele>316.0</ele><time>2026-05-03T10:11:37Z</time></trkpt><trkpt lat="42.21170541643382" lon="13.821697329413094"><ele>316.0</ele><time>2026-05-03T10:11:38Z</time></trkpt><trkpt lat="42.211542788268666" lon="13.821797532060495"><ele>316.0</ele><time>2026-05-03T10:11:39Z</time></trkpt><trkpt lat="42.21137600413366" lon="13.821904632665976"><ele>316.0</ele><time>2026-05-03T10:11:40Z</time></trkpt><trkpt lat="42.21120576428636" lon="13.822014444106983"><ele>314.66666666666663</ele><time>2026-05-03T10:11:41Z</time></trkpt><trkpt lat="42.21103765307164" lon="13.82212052729576"><ele>313.3333333333333</ele><time>2026-05-03T10:11:42Z</time></trkpt><trkpt lat="42.21086916264912" lon="13.822231922132879"><ele>312.0</ele><time>2026-05-03T10:11:43Z</time></trkpt><trkpt lat="42.21070296790283" lon="13.822341027969088"><ele>311.6666666666667</ele><time>2026-05-03T10:11:44Z</time></trkpt><trkpt lat="42.21053077042154" lon="13.822448924766064"><ele>311.33333333333337</ele><time>2026-05-03T10:11:45Z</time></trkpt><trkpt lat="42.210365377521484" lon="13.822555817976665"><ele>311.0</ele><time>2026-05-03T10:11:46Z</time></trkpt><trkpt lat="42.210199197352374" lon="13.82266483084077"><ele>311.0</ele><time>2026-05-03T10:11:47Z</time></trkpt><trkpt lat="42.21003228840597" lon="13.822772305519107"><ele>311.0</ele><time>2026-05-03T10:11:48Z</time></trkpt><trkpt lat="42.20987165601361" lon="13.822875404612498"><ele>311.0</ele><time>2026-05-03T10:11:48.999Z</time></trkpt><trkpt lat="42.20971585014115" lon="13.822976622217364"><ele>313.0</ele><time>2026-05-03T10:11:49.999Z</time></trkpt><trkpt lat="42.20956143940583" lon="13.823077650381528"><ele>315.0</ele><time>2026-05-03T10:11:50.999Z</time></trkpt><trkpt lat="42.20940778854568" lon="13.823179612860788"><ele>317.0</ele><time>2026-05-03T10:11:51.999Z</time></trkpt><trkpt lat="42.20925106295603" lon="13.823284897164655"><ele>317.0</ele><time>2026-05-03T10:11:52.999Z</time></trkpt><trkpt lat="42.20909913641917" lon="13.823392837744667"><ele>317.0</ele><time>2026-05-03T10:11:53.999Z</time></trkpt><trkpt lat="42.208952941485414" lon="13.823500484170111"><ele>317.0</ele><time>2026-05-03T10:11:54.999Z</time></trkpt><trkpt lat="42.20881048280582" lon="13.823615476030316"><ele>317.6666666666667</ele><time>2026-05-03T10:11:55.999Z</time></trkpt><trkpt lat="42.208665561830074" lon="13.823744655443322"><ele>318.3333333333333</ele><time>2026-05-03T10:11:56.999Z</time></trkpt><trkpt lat="42.20852650481943" lon="13.823882693168136"><ele>319.0</ele><time>2026-05-03T10:11:57.999Z</time></trkpt><trkpt lat="42.20839516475707" lon="13.824035759168524"><ele>319.0</ele><time>2026-05-03T10:11:58.999Z</time></trkpt><trkpt lat="42.208258294654165" lon="13.824188704326831"><ele>319.0</ele><time>2026-05-03T10:11:59.999Z</time></trkpt><trkpt lat="42.20811506674744" lon="13.824353262575634"><ele>319.0</ele><time>2026-05-03T10:12:00.999Z</time></trkpt><trkpt lat="42.20797933856045" lon="13.824521045672775"><ele>322.3333333333333</ele><time>2026-05-03T10:12:01.999Z</time></trkpt><trkpt lat="42.20785018584315" lon="13.824705974374004"><ele>325.6666666666667</ele><time>2026-05-03T10:12:02.999Z</time></trkpt><trkpt lat="42.20773234679686" lon="13.82490147167959"><ele>329.0</ele><time>2026-05-03T10:12:03.999Z</time></trkpt><trkpt lat="42.207616385963334" lon="13.825115065122183"><ele>332.6666666666667</ele><time>2026-05-03T10:12:04.999Z</time></trkpt><trkpt lat="42.20750765246756" lon="13.825328999841032"><ele>336.3333333333333</ele><time>2026-05-03T10:12:05.999Z</time></trkpt><trkpt lat="42.20740434754007" lon="13.825543140194519"><ele>340.0</ele><time>2026-05-03T10:12:06.999Z</time></trkpt><trkpt lat="42.207295352671956" lon="13.825755907768153"><ele>340.0</ele><time>2026-05-03T10:12:07.999Z</time></trkpt><trkpt lat="42.20718754658593" lon="13.825955387323086"><ele>340.0</ele><time>2026-05-03T10:12:08.999Z</time></trkpt><trkpt lat="42.20706486097269" lon="13.826152754090407"><ele>340.0</ele><time>2026-05-03T10:12:09.999Z</time></trkpt><trkpt lat="42.206939221801214" lon="13.826340748321943"><ele>331.0</ele><time>2026-05-03T10:12:10.999Z</time></trkpt><trkpt lat="42.20680537780899" lon="13.826530853183288"><ele>322.0</ele><time>2026-05-03T10:12:11.999Z</time></trkpt><trkpt lat="42.20666620736701" lon="13.826710850830233"><ele>313.0</ele><time>2026-05-03T10:12:12.999Z</time></trkpt><trkpt lat="42.206523195102974" lon="13.826887621288998"><ele>316.66666666666663</ele><time>2026-05-03T10:12:13.999Z</time></trkpt><trkpt lat="42.206383591214085" lon="13.827058160859613"><ele>320.3333333333333</ele><time>2026-05-03T10:12:14.999Z</time></trkpt><trkpt lat="42.20626799280814" lon="13.827247929188552"><ele>324.0</ele><time>2026-05-03T10:12:15.999Z</time></trkpt><trkpt lat="42.20616334463741" lon="13.827421273472071"><ele>324.0</ele><time>2026-05-03T10:12:16.999Z</time></trkpt><trkpt lat="42.2060394268728" lon="13.827643305919445"><ele>324.0</ele><time>2026-05-03T10:12:17.999Z</time></trkpt><trkpt lat="42.20595005868689" lon="13.827875956401783"><ele>324.0</ele><time>2026-05-03T10:12:18.999Z</time></trkpt><trkpt lat="42.20587480492315" lon="13.828120332617111"><ele>317.6666666666667</ele><time>2026-05-03T10:12:19.999Z</time></trkpt><trkpt lat="42.205813719295975" lon="13.82837817600516"><ele>311.33333333333337</ele><time>2026-05-03T10:12:20.999Z</time></trkpt><trkpt lat="42.20576397098459" lon="13.82864508471683"><ele>305.0</ele><time>2026-05-03T10:12:21.999Z</time></trkpt><trkpt lat="42.205721115511416" lon="13.828917196529327"><ele>308.0</ele><time>2026-05-03T10:12:22.999Z</time></trkpt><trkpt lat="42.205673352783855" lon="13.829185123016371"><ele>311.0</ele><time>2026-05-03T10:12:23.999Z</time></trkpt><trkpt lat="42.20562504193721" lon="13.829463192545093"><ele>314.0</ele><time>2026-05-03T10:12:24.999Z</time></trkpt><trkpt lat="42.20557900906277" lon="13.8297438585627"><ele>314.0</ele><time>2026-05-03T10:12:25.999Z</time></trkpt><trkpt lat="42.20553435525717" lon="13.830015621936445"><ele>314.0</ele><time>2026-05-03T10:12:26.999Z</time></trkpt><trkpt lat="42.205490551722725" lon="13.830286884511349"><ele>314.0</ele><time>2026-05-03T10:12:27.999Z</time></trkpt><trkpt lat="42.205450177781735" lon="13.830553121218921"><ele>310.6666666666667</ele><time>2026-05-03T10:12:28.999Z</time></trkpt><trkpt lat="42.20540846266486" lon="13.830823441314072"><ele>307.3333333333333</ele><time>2026-05-03T10:12:29.999Z</time></trkpt><trkpt lat="42.20536138856433" lon="13.831091105529698"><ele>304.0</ele><time>2026-05-03T10:12:30.999Z</time></trkpt><trkpt lat="42.205308242980294" lon="13.83135343883349"><ele>301.3333333333333</ele><time>2026-05-03T10:12:31.999Z</time></trkpt><trkpt lat="42.20525349471609" lon="13.831619260690994"><ele>298.6666666666667</ele><time>2026-05-03T10:12:32.999Z</time></trkpt><trkpt lat="42.20518516075697" lon="13.831881687665566"><ele>296.0</ele><time>2026-05-03T10:12:33.999Z</time></trkpt><trkpt lat="42.20510919618098" lon="13.832141577632763"><ele>291.33333333333337</ele><time>2026-05-03T10:12:34.999Z</time></trkpt><trkpt lat="42.205028938131456" lon="13.83239533527994"><ele>286.6666666666667</ele><time>2026-05-03T10:12:35.999Z</time></trkpt><trkpt lat="42.20493542707004" lon="13.832643537321959"><ele>282.0</ele><time>2026-05-03T10:12:36.999Z</time></trkpt><trkpt lat="42.20484098641303" lon="13.832887243689116"><ele>282.0</ele><time>2026-05-03T10:12:37.999Z</time></trkpt><trkpt lat="42.20474577401989" lon="13.83312574954158"><ele>282.0</ele><time>2026-05-03T10:12:38.999Z</time></trkpt><trkpt lat="42.20464615929227" lon="13.833365306004465"><ele>282.0</ele><time>2026-05-03T10:12:39.999Z</time></trkpt><trkpt lat="42.20453663963686" lon="13.833601573206465"><ele>282.0</ele><time>2026-05-03T10:12:40.999Z</time></trkpt><trkpt lat="42.204440137262985" lon="13.83384705934082"><ele>282.0</ele><time>2026-05-03T10:12:41.999Z</time></trkpt><trkpt lat="42.20434637331054" lon="13.83409152891057"><ele>282.0</ele><time>2026-05-03T10:12:42.999Z</time></trkpt><trkpt lat="42.20425583975436" lon="13.834339168251605"><ele>286.3333333333333</ele><time>2026-05-03T10:12:43.999Z</time></trkpt><trkpt lat="42.20416494535818" lon="13.834585157210634"><ele>290.66666666666663</ele><time>2026-05-03T10:12:44.999Z</time></trkpt><trkpt lat="42.20406875835064" lon="13.834826651687145"><ele>295.0</ele><time>2026-05-03T10:12:45.999Z</time></trkpt><trkpt lat="42.203969251882526" lon="13.835069041459796"><ele>288.3333333333333</ele><time>2026-05-03T10:12:46.999Z</time></trkpt><trkpt lat="42.20387105172956" lon="13.835303863123277"><ele>281.6666666666667</ele><time>2026-05-03T10:12:47.999Z</time></trkpt><trkpt lat="42.203769388002286" lon="13.835537006527773"><ele>275.0</ele><time>2026-05-03T10:12:48.999Z</time></trkpt><trkpt lat="42.20366109398457" lon="13.835764819606952"><ele>269.0</ele><time>2026-05-03T10:12:49.999Z</time></trkpt><trkpt lat="42.203539838031375" lon="13.83597347482223"><ele>263.0</ele><time>2026-05-03T10:12:50.999Z</time></trkpt><trkpt lat="42.20340171896163" lon="13.836169078846961"><ele>257.0</ele><time>2026-05-03T10:12:51.999Z</time></trkpt><trkpt lat="42.203252255013005" lon="13.83634975890829"><ele>256.0</ele><time>2026-05-03T10:12:52.999Z</time></trkpt><trkpt lat="42.20309802671352" lon="13.836514228431483"><ele>255.0</ele><time>2026-05-03T10:12:53.999Z</time></trkpt><trkpt lat="42.2029377042392" lon="13.836665475191836"><ele>254.0</ele><time>2026-05-03T10:12:54.999Z</time></trkpt><trkpt lat="42.2027675320139" lon="13.836803037797347"><ele>254.0</ele><time>2026-05-03T10:12:55.999Z</time></trkpt><trkpt lat="42.20259073975632" lon="13.836927207439174"><ele>254.0</ele><time>2026-05-03T10:12:56.999Z</time></trkpt><trkpt lat="42.20240371829191" lon="13.837027485450422"><ele>254.0</ele><time>2026-05-03T10:12:57.999Z</time></trkpt><trkpt lat="42.202208424455094" lon="13.837109984335532"><ele>254.0</ele><time>2026-05-03T10:12:58.999Z</time></trkpt><trkpt lat="42.20200997277582" lon="13.837185369751596"><ele>254.0</ele><time>2026-05-03T10:12:59.999Z</time></trkpt><trkpt lat="42.20180822300512" lon="13.837240699286344"><ele>254.0</ele><time>2026-05-03T10:13:00.999Z</time></trkpt><trkpt lat="42.20160092584463" lon="13.837277670506998"><ele>255.0</ele><time>2026-05-03T10:13:01.999Z</time></trkpt><trkpt lat="42.201393061257605" lon="13.83729964458866"><ele>256.0</ele><time>2026-05-03T10:13:02.999Z</time></trkpt><trkpt lat="42.20118566049267" lon="13.837324603908455"><ele>257.0</ele><time>2026-05-03T10:13:03.999Z</time></trkpt><trkpt lat="42.20097394090787" lon="13.83735614118292"><ele>257.0</ele><time>2026-05-03T10:13:04.999Z</time></trkpt><trkpt lat="42.20076756190346" lon="13.837388336715183"><ele>257.0</ele><time>2026-05-03T10:13:05.999Z</time></trkpt><trkpt lat="42.20056347715328" lon="13.837422495234016"><ele>257.0</ele><time>2026-05-03T10:13:06.999Z</time></trkpt><trkpt lat="42.20036022812818" lon="13.837450103165668"><ele>259.0</ele><time>2026-05-03T10:13:07.999Z</time></trkpt><trkpt lat="42.20015887823179" lon="13.837472027154238"><ele>261.0</ele><time>2026-05-03T10:13:08.999Z</time></trkpt><trkpt lat="42.19995961630134" lon="13.83750124504466"><ele>263.0</ele><time>2026-05-03T10:13:09.999Z</time></trkpt><trkpt lat="42.199764240579185" lon="13.837534723051654"><ele>265.0</ele><time>2026-05-03T10:13:10.999Z</time></trkpt><trkpt lat="42.19957836513909" lon="13.837557351839205"><ele>267.0</ele><time>2026-05-03T10:13:11.999Z</time></trkpt><trkpt lat="42.19939548612492" lon="13.83758264282375"><ele>269.0</ele><time>2026-05-03T10:13:12.999Z</time></trkpt><trkpt lat="42.199205659624106" lon="13.83760599128857"><ele>268.0</ele><time>2026-05-03T10:13:13.999Z</time></trkpt><trkpt lat="42.198999316084134" lon="13.83760670525958"><ele>267.0</ele><time>2026-05-03T10:13:14.999Z</time></trkpt><trkpt lat="42.198833988760995" lon="13.837599854074528"><ele>266.0</ele><time>2026-05-03T10:13:15.999Z</time></trkpt><trkpt lat="42.19864885805065" lon="13.837523981574765"><ele>266.0</ele><time>2026-05-03T10:13:16.999Z</time></trkpt><trkpt lat="42.198458765036634" lon="13.837493837313655"><ele>266.0</ele><time>2026-05-03T10:13:17.999Z</time></trkpt><trkpt lat="42.19827354672137" lon="13.83744186862848"><ele>266.0</ele><time>2026-05-03T10:13:18.999Z</time></trkpt><trkpt lat="42.19808076835015" lon="13.837425030001947"><ele>265.33333333333337</ele><time>2026-05-03T10:13:19.999Z</time></trkpt><trkpt lat="42.19789431276683" lon="13.837421162340922"><ele>264.6666666666667</ele><time>2026-05-03T10:13:20.999Z</time></trkpt><trkpt lat="42.1977131134418" lon="13.837400160770922"><ele>264.0</ele><time>2026-05-03T10:13:21.999Z</time></trkpt><trkpt lat="42.19754237140853" lon="13.837392636119883"><ele>264.0</ele><time>2026-05-03T10:13:22.999Z</time></trkpt><trkpt lat="42.19736469132346" lon="13.837584859628084"><ele>264.0</ele><time>2026-05-03T10:13:23.999Z</time></trkpt><trkpt lat="42.197203375090545" lon="13.837687560118937"><ele>264.0</ele><time>2026-05-03T10:13:24.999Z</time></trkpt><trkpt lat="42.197053368547394" lon="13.837799703591916"><ele>265.6666666666667</ele><time>2026-05-03T10:13:25.999Z</time></trkpt><trkpt lat="42.196901610907716" lon="13.837923774699544"><ele>267.33333333333337</ele><time>2026-05-03T10:13:26.999Z</time></trkpt><trkpt lat="42.19675898984128" lon="13.838061807742301"><ele>269.0</ele><time>2026-05-03T10:13:27.999Z</time></trkpt><trkpt lat="42.1966216831116" lon="13.838218691314093"><ele>278.33333333333337</ele><time>2026-05-03T10:13:28.999Z</time></trkpt><trkpt lat="42.19649933590065" lon="13.838396863186198"><ele>287.6666666666667</ele><time>2026-05-03T10:13:29.999Z</time></trkpt><trkpt lat="42.19637977656602" lon="13.838581454337122"><ele>297.0</ele><time>2026-05-03T10:13:30.999Z</time></trkpt><trkpt lat="42.19627596938447" lon="13.838782404801758"><ele>297.0</ele><time>2026-05-03T10:13:31.999Z</time></trkpt><trkpt lat="42.19618775161062" lon="13.838997538710986"><ele>297.0</ele><time>2026-05-03T10:13:32.999Z</time></trkpt><trkpt lat="42.19611366312016" lon="13.839235832258499"><ele>297.0</ele><time>2026-05-03T10:13:33.999Z</time></trkpt><trkpt lat="42.196055185721036" lon="13.839480167926558"><ele>291.6666666666667</ele><time>2026-05-03T10:13:34.999Z</time></trkpt><trkpt lat="42.19601192623342" lon="13.83974572071176"><ele>286.33333333333337</ele><time>2026-05-03T10:13:35.999Z</time></trkpt><trkpt lat="42.1959878246631" lon="13.840021515698037"><ele>281.0</ele><time>2026-05-03T10:13:36.999Z</time></trkpt><trkpt lat="42.19598944235464" lon="13.840320725087915"><ele>279.0</ele><time>2026-05-03T10:13:37.999Z</time></trkpt><trkpt lat="42.19597729883232" lon="13.840597441175541"><ele>277.0</ele><time>2026-05-03T10:13:38.999Z</time></trkpt><trkpt lat="42.19596260661465" lon="13.840871601869098"><ele>275.0</ele><time>2026-05-03T10:13:39.999Z</time></trkpt><trkpt lat="42.19594186864153" lon="13.841134487032274"><ele>272.33333333333337</ele><time>2026-05-03T10:13:40.999Z</time></trkpt><trkpt lat="42.195915523902165" lon="13.841390822419665"><ele>269.6666666666667</ele><time>2026-05-03T10:13:41.999Z</time></trkpt><trkpt lat="42.19587258702393" lon="13.84163349322559"><ele>267.0</ele><time>2026-05-03T10:13:42.999Z</time></trkpt><trkpt lat="42.19581132249905" lon="13.841861036991904"><ele>263.3333333333333</ele><time>2026-05-03T10:13:43.999Z</time></trkpt><trkpt lat="42.195734387672886" lon="13.842092261263069"><ele>259.66666666666663</ele><time>2026-05-03T10:13:44.999Z</time></trkpt><trkpt lat="42.19564179362758" lon="13.842302237760714"><ele>256.0</ele><time>2026-05-03T10:13:45.999Z</time></trkpt><trkpt lat="42.19554038003846" lon="13.842512700563029"><ele>280.66666666666663</ele><time>2026-05-03T10:13:46.999Z</time></trkpt><trkpt lat="42.1954105220569" lon="13.842691333027199"><ele>305.3333333333333</ele><time>2026-05-03T10:13:47.999Z</time></trkpt><trkpt lat="42.19527214249315" lon="13.842850551532768"><ele>330.0</ele><time>2026-05-03T10:13:48.999Z</time></trkpt><trkpt lat="42.19511688485197" lon="13.842982297154869"><ele>330.0</ele><time>2026-05-03T10:13:49.999Z</time></trkpt><trkpt lat="42.194949671550695" lon="13.843112202367346"><ele>330.0</ele><time>2026-05-03T10:13:50.999Z</time></trkpt><trkpt lat="42.19478186744269" lon="13.843248028523389"><ele>330.0</ele><time>2026-05-03T10:13:51.999Z</time></trkpt><trkpt lat="42.19460791682767" lon="13.843391180634507"><ele>340.0</ele><time>2026-05-03T10:13:52.999Z</time></trkpt><trkpt lat="42.194436330206294" lon="13.843581047756341"><ele>350.0</ele><time>2026-05-03T10:13:53.999Z</time></trkpt><trkpt lat="42.19426854915161" lon="13.843731174506344"><ele>360.0</ele><time>2026-05-03T10:13:54.999Z</time></trkpt><trkpt lat="42.19403775435263" lon="13.843929936175778"><ele>352.5</ele><time>2026-05-03T10:13:55.999Z</time></trkpt><trkpt lat="42.1938509163646" lon="13.844084438433223"><ele>345.0</ele><time>2026-05-03T10:13:56.999Z</time></trkpt><trkpt lat="42.19365165571341" lon="13.844250863737921"><ele>339.0</ele><time>2026-05-03T10:13:58.072Z</time></trkpt><trkpt lat="42.193474909092885" lon="13.844396801276433"><ele>333.0</ele><time>2026-05-03T10:13:59.056Z</time></trkpt><trkpt lat="42.19329864903535" lon="13.844532687135045"><ele>327.0</ele><time>2026-05-03T10:14:00.041Z</time></trkpt><trkpt lat="42.19137209257201" lon="13.846171727562682"><ele>287.0</ele><time>2026-05-03T10:14:11.456Z</time></trkpt><trkpt lat="42.191770899764045" lon="13.846441124737604"><ele>247.0</ele><time>2026-05-03T10:14:12.999Z</time></trkpt><trkpt lat="42.1916759300942" lon="13.846522158181987"><ele>247.0</ele><time>2026-05-03T10:14:13.999Z</time></trkpt><trkpt lat="42.191542269790304" lon="13.846668491113252"><ele>247.0</ele><time>2026-05-03T10:14:14.999Z</time></trkpt><trkpt lat="42.19143314949445" lon="13.84677507832487"><ele>247.0</ele><time>2026-05-03T10:14:15.999Z</time></trkpt><trkpt lat="42.19132965631133" lon="13.84688073340839"><ele>247.0</ele><time>2026-05-03T10:14:16.999Z</time></trkpt><trkpt lat="42.191223246050335" lon="13.846981678856961"><ele>246.25</ele><time>2026-05-03T10:14:17.999Z</time></trkpt><trkpt lat="42.191115447305634" lon="13.847092043222414"><ele>245.5</ele><time>2026-05-03T10:14:18.999Z</time></trkpt><trkpt lat="42.19100896071065" lon="13.847204426345444"><ele>244.75</ele><time>2026-05-03T10:14:19.999Z</time></trkpt><trkpt lat="42.19089373785097" lon="13.847317618512475"><ele>244.0</ele><time>2026-05-03T10:14:20.999Z</time></trkpt><trkpt lat="42.19078198232132" lon="13.847417277320055"><ele>244.0</ele><time>2026-05-03T10:14:21.999Z</time></trkpt><trkpt lat="42.19067462518793" lon="13.847500974575826"><ele>244.0</ele><time>2026-05-03T10:14:22.999Z</time></trkpt><trkpt lat="42.190562770683414" lon="13.84755576103545"><ele>244.0</ele><time>2026-05-03T10:14:23.999Z</time></trkpt><trkpt lat="42.1904512601057" lon="13.847587349877006"><ele>244.0</ele><time>2026-05-03T10:14:24.999Z</time></trkpt><trkpt lat="42.190345227915344" lon="13.847601362020425"><ele>245.79999999999998</ele><time>2026-05-03T10:14:25.999Z</time></trkpt><trkpt lat="42.190251167891766" lon="13.847650896690169"><ele>247.59999999999997</ele><time>2026-05-03T10:14:26.999Z</time></trkpt><trkpt lat="42.19018011090377" lon="13.8477417181399"><ele>249.4</ele><time>2026-05-03T10:14:27.999Z</time></trkpt><trkpt lat="42.19013843786693" lon="13.847863332240138"><ele>251.2</ele><time>2026-05-03T10:14:28.999Z</time></trkpt><trkpt lat="42.19015318698996" lon="13.848004728116"><ele>253.0</ele><time>2026-05-03T10:14:29.999Z</time></trkpt><trkpt lat="42.1902129267393" lon="13.848129633491082"><ele>253.0</ele><time>2026-05-03T10:14:30.999Z</time></trkpt><trkpt lat="42.19031412969989" lon="13.848212793159492"><ele>253.0</ele><time>2026-05-03T10:14:31.999Z</time></trkpt><trkpt lat="42.19042828206903" lon="13.848270151095882"><ele>253.0</ele><time>2026-05-03T10:14:32.999Z</time></trkpt><trkpt lat="42.190543071334716" lon="13.848357398788533"><ele>253.0</ele><time>2026-05-03T10:14:33.999Z</time></trkpt><trkpt lat="42.19065040677111" lon="13.848483082542328"><ele>251.0</ele><time>2026-05-03T10:14:34.999Z</time></trkpt><trkpt lat="42.19074033030363" lon="13.848649186933894"><ele>249.0</ele><time>2026-05-03T10:14:35.999Z</time></trkpt><trkpt lat="42.19081950119407" lon="13.848832905492127"><ele>247.0</ele><time>2026-05-03T10:14:36.999Z</time></trkpt><trkpt lat="42.19090684796923" lon="13.849021301512774"><ele>247.0</ele><time>2026-05-03T10:14:37.999Z</time></trkpt><trkpt lat="42.19100561001404" lon="13.849220105438203"><ele>247.0</ele><time>2026-05-03T10:14:38.999Z</time></trkpt><trkpt lat="42.19110744829739" lon="13.849417118398277"><ele>247.0</ele><time>2026-05-03T10:14:39.999Z</time></trkpt><trkpt lat="42.19121473846848" lon="13.849619186601942"><ele>252.0</ele><time>2026-05-03T10:14:40.999Z</time></trkpt><trkpt lat="42.19132547948852" lon="13.849824803865848"><ele>257.0</ele><time>2026-05-03T10:14:41.999Z</time></trkpt><trkpt lat="42.19144339318494" lon="13.85001383180956"><ele>262.0</ele><time>2026-05-03T10:14:42.999Z</time></trkpt><trkpt lat="42.19156974755246" lon="13.85020573534038"><ele>262.0</ele><time>2026-05-03T10:14:43.999Z</time></trkpt><trkpt lat="42.19170418592527" lon="13.8503764124122"><ele>262.0</ele><time>2026-05-03T10:14:44.999Z</time></trkpt><trkpt lat="42.19184051727822" lon="13.850549010775575"><ele>262.0</ele><time>2026-05-03T10:14:45.999Z</time></trkpt><trkpt lat="42.19197795637991" lon="13.850703689373079"><ele>262.0</ele><time>2026-05-03T10:14:46.999Z</time></trkpt><trkpt lat="42.19212403867313" lon="13.850856562655027"><ele>262.0</ele><time>2026-05-03T10:14:47.999Z</time></trkpt><trkpt lat="42.192263869452425" lon="13.850995563685391"><ele>262.0</ele><time>2026-05-03T10:14:48.999Z</time></trkpt><trkpt lat="42.19240826805024" lon="13.851121297195169"><ele>262.25</ele><time>2026-05-03T10:14:49.999Z</time></trkpt><trkpt lat="42.192539070511344" lon="13.851230567922563"><ele>262.5</ele><time>2026-05-03T10:14:50.999Z</time></trkpt><trkpt lat="42.192652955037154" lon="13.851352083584398"><ele>262.75</ele><time>2026-05-03T10:14:51.999Z</time></trkpt><trkpt lat="42.19276003317016" lon="13.851475455984936"><ele>263.0</ele><time>2026-05-03T10:14:52.999Z</time></trkpt><trkpt lat="42.19286782365439" lon="13.85159797047445"><ele>263.0</ele><time>2026-05-03T10:14:53.999Z</time></trkpt><trkpt lat="42.19298375282116" lon="13.851713910555116"><ele>263.0</ele><time>2026-05-03T10:14:54.999Z</time></trkpt><trkpt lat="42.193101751941" lon="13.851840174154027"><ele>263.0</ele><time>2026-05-03T10:14:55.999Z</time></trkpt><trkpt lat="42.193247639101386" lon="13.851928937321144"><ele>268.33333333333337</ele><time>2026-05-03T10:14:56.999Z</time></trkpt><trkpt lat="42.19340654538512" lon="13.85196512181037"><ele>273.6666666666667</ele><time>2026-05-03T10:14:57.999Z</time></trkpt><trkpt lat="42.19356416150516" lon="13.852008738116883"><ele>279.0</ele><time>2026-05-03T10:14:58.999Z</time></trkpt><trkpt lat="42.193720149031954" lon="13.852030072067945"><ele>279.0</ele><time>2026-05-03T10:14:59.999Z</time></trkpt><trkpt lat="42.193869651246466" lon="13.852045440053846"><ele>279.0</ele><time>2026-05-03T10:15:00.999Z</time></trkpt><trkpt lat="42.194017746979064" lon="13.852065517572443"><ele>279.0</ele><time>2026-05-03T10:15:01.999Z</time></trkpt><trkpt lat="42.194168627567024" lon="13.852094412119186"><ele>274.0</ele><time>2026-05-03T10:15:02.999Z</time></trkpt><trkpt lat="42.194313051722816" lon="13.85212090912919"><ele>269.0</ele><time>2026-05-03T10:15:03.999Z</time></trkpt><trkpt lat="42.1944603476437" lon="13.852142750717306"><ele>264.0</ele><time>2026-05-03T10:15:04.999Z</time></trkpt><trkpt lat="42.19460867613717" lon="13.852184905023435"><ele>259.0</ele><time>2026-05-03T10:15:05.999Z</time></trkpt><trkpt lat="42.19474748259302" lon="13.85224876101474"><ele>261.0</ele><time>2026-05-03T10:15:06.999Z</time></trkpt><trkpt lat="42.19487296492857" lon="13.852354020645336"><ele>263.0</ele><time>2026-05-03T10:15:07.999Z</time></trkpt><trkpt lat="42.19499090870028" lon="13.852486633320352"><ele>265.0</ele><time>2026-05-03T10:15:08.999Z</time></trkpt><trkpt lat="42.19509798697782" lon="13.85262642623617"><ele>265.0</ele><time>2026-05-03T10:15:09.999Z</time></trkpt><trkpt lat="42.19519463468068" lon="13.852789680270542"><ele>265.0</ele><time>2026-05-03T10:15:10.999Z</time></trkpt><trkpt lat="42.195274740178185" lon="13.852963879933359"><ele>265.0</ele><time>2026-05-03T10:15:11.999Z</time></trkpt><trkpt lat="42.19534818927271" lon="13.853147709483583"><ele>265.0</ele><time>2026-05-03T10:15:12.999Z</time></trkpt><trkpt lat="42.195409613932114" lon="13.853342504231444"><ele>265.0</ele><time>2026-05-03T10:15:13.999Z</time></trkpt><trkpt lat="42.19546727726487" lon="13.853541883398426"><ele>265.0</ele><time>2026-05-03T10:15:14.999Z</time></trkpt><trkpt lat="42.195523261347276" lon="13.853742647474277"><ele>270.0</ele><time>2026-05-03T10:15:15.999Z</time></trkpt><trkpt lat="42.19558276407403" lon="13.853939767617874"><ele>275.0</ele><time>2026-05-03T10:15:16.999Z</time></trkpt><trkpt lat="42.19564604766169" lon="13.854144156857954"><ele>280.0</ele><time>2026-05-03T10:15:17.999Z</time></trkpt><trkpt lat="42.195706900784565" lon="13.854345184666538"><ele>269.66666666666663</ele><time>2026-05-03T10:15:18.999Z</time></trkpt><trkpt lat="42.195765516056596" lon="13.854537185979023"><ele>259.3333333333333</ele><time>2026-05-03T10:15:19.999Z</time></trkpt><trkpt lat="42.19581731971552" lon="13.854730229738433"><ele>249.0</ele><time>2026-05-03T10:15:20.999Z</time></trkpt><trkpt lat="42.195860681544005" lon="13.854931827441394"><ele>249.0</ele><time>2026-05-03T10:15:21.999Z</time></trkpt><trkpt lat="42.19588713871974" lon="13.855142491717453"><ele>249.0</ele><time>2026-05-03T10:15:22.999Z</time></trkpt><trkpt lat="42.19589031612217" lon="13.85536301693275"><ele>249.0</ele><time>2026-05-03T10:15:23.999Z</time></trkpt><trkpt lat="42.19587691749204" lon="13.855589149786411"><ele>249.0</ele><time>2026-05-03T10:15:24.999Z</time></trkpt><trkpt lat="42.19586343025481" lon="13.855806315037462"><ele>249.0</ele><time>2026-05-03T10:15:25.999Z</time></trkpt><trkpt lat="42.19584940794003" lon="13.856018229873897"><ele>249.0</ele><time>2026-05-03T10:15:26.999Z</time></trkpt><trkpt lat="42.19583990545795" lon="13.856236987514789"><ele>248.66666666666669</ele><time>2026-05-03T10:15:27.999Z</time></trkpt><trkpt lat="42.19582827033081" lon="13.856463494041476"><ele>248.33333333333334</ele><time>2026-05-03T10:15:28.999Z</time></trkpt><trkpt lat="42.19581822085712" lon="13.856688234619396"><ele>248.0</ele><time>2026-05-03T10:15:29.999Z</time></trkpt><trkpt lat="42.19581026391395" lon="13.856923624115748"><ele>248.0</ele><time>2026-05-03T10:15:30.999Z</time></trkpt><trkpt lat="42.195796027127095" lon="13.857162572494383"><ele>248.0</ele><time>2026-05-03T10:15:31.999Z</time></trkpt><trkpt lat="42.19577729367239" lon="13.857404460026943"><ele>248.0</ele><time>2026-05-03T10:15:32.999Z</time></trkpt><trkpt lat="42.195760027234954" lon="13.857638013041852"><ele>247.0</ele><time>2026-05-03T10:15:33.999Z</time></trkpt><trkpt lat="42.19574213152546" lon="13.857860589897058"><ele>246.0</ele><time>2026-05-03T10:15:34.999Z</time></trkpt><trkpt lat="42.1957250271462" lon="13.858083683783196"><ele>245.0</ele><time>2026-05-03T10:15:35.999Z</time></trkpt><trkpt lat="42.195702271661816" lon="13.858300973936307"><ele>258.0</ele><time>2026-05-03T10:15:36.999Z</time></trkpt><trkpt lat="42.19563557298611" lon="13.858535207502557"><ele>271.0</ele><time>2026-05-03T10:15:37.999Z</time></trkpt><trkpt lat="42.195648953910094" lon="13.85872968597852"><ele>284.0</ele><time>2026-05-03T10:15:38.999Z</time></trkpt><trkpt lat="42.19560869841374" lon="13.858958862058884"><ele>284.0</ele><time>2026-05-03T10:15:39.999Z</time></trkpt><trkpt lat="42.19557073715718" lon="13.859200408039282"><ele>284.0</ele><time>2026-05-03T10:15:40.999Z</time></trkpt><trkpt lat="42.195540583077765" lon="13.859453863006891"><ele>284.0</ele><time>2026-05-03T10:15:41.999Z</time></trkpt><trkpt lat="42.19553191501317" lon="13.859702821748396"><ele>281.33333333333337</ele><time>2026-05-03T10:15:42.999Z</time></trkpt><trkpt lat="42.1955095099872" lon="13.859942381475484"><ele>278.6666666666667</ele><time>2026-05-03T10:15:43.999Z</time></trkpt><trkpt lat="42.195498815414396" lon="13.86017385159291"><ele>276.0</ele><time>2026-05-03T10:15:44.999Z</time></trkpt><trkpt lat="42.19548735751766" lon="13.860400642265127"><ele>275.3333333333333</ele><time>2026-05-03T10:15:45.999Z</time></trkpt><trkpt lat="42.19548117359853" lon="13.860628533407446"><ele>274.66666666666663</ele><time>2026-05-03T10:15:46.999Z</time></trkpt><trkpt lat="42.195479447985505" lon="13.860836482296682"><ele>274.0</ele><time>2026-05-03T10:15:47.999Z</time></trkpt><trkpt lat="42.19547613504317" lon="13.86105688221692"><ele>273.75</ele><time>2026-05-03T10:15:48.999Z</time></trkpt><trkpt lat="42.19548036436187" lon="13.861250499299866"><ele>273.5</ele><time>2026-05-03T10:15:49.999Z</time></trkpt><trkpt lat="42.19549320959658" lon="13.861432575788012"><ele>273.25</ele><time>2026-05-03T10:15:50.999Z</time></trkpt><trkpt lat="42.195512625348464" lon="13.861611011303829"><ele>273.0</ele><time>2026-05-03T10:15:51.999Z</time></trkpt><trkpt lat="42.195525998203024" lon="13.861796272900595"><ele>275.3333333333333</ele><time>2026-05-03T10:15:52.999Z</time></trkpt><trkpt lat="42.19553009416481" lon="13.861993920412447"><ele>277.66666666666663</ele><time>2026-05-03T10:15:53.999Z</time></trkpt><trkpt lat="42.19554895484959" lon="13.862203388401094"><ele>280.0</ele><time>2026-05-03T10:15:54.999Z</time></trkpt><trkpt lat="42.19559124180207" lon="13.862419787614618"><ele>286.66666666666663</ele><time>2026-05-03T10:15:55.999Z</time></trkpt><trkpt lat="42.195651606583695" lon="13.862657708177164"><ele>293.3333333333333</ele><time>2026-05-03T10:15:56.999Z</time></trkpt><trkpt lat="42.19572650455143" lon="13.86290467006426"><ele>300.0</ele><time>2026-05-03T10:15:57.999Z</time></trkpt><trkpt lat="42.19580984102642" lon="13.86315153186134"><ele>287.3333333333333</ele><time>2026-05-03T10:15:58.999Z</time></trkpt><trkpt lat="42.19590505299728" lon="13.863397611561803"><ele>274.66666666666663</ele><time>2026-05-03T10:15:59.999Z</time></trkpt><trkpt lat="42.19600534245349" lon="13.863638928339888"><ele>262.0</ele><time>2026-05-03T10:16:00.999Z</time></trkpt><trkpt lat="42.196106237692135" lon="13.863881531471725"><ele>262.0</ele><time>2026-05-03T10:16:01.999Z</time></trkpt><trkpt lat="42.19619432689748" lon="13.864113048782476"><ele>262.0</ele><time>2026-05-03T10:16:02.999Z</time></trkpt><trkpt lat="42.19627954328469" lon="13.864341660624392"><ele>262.0</ele><time>2026-05-03T10:16:03.999Z</time></trkpt><trkpt lat="42.19636384172098" lon="13.864568928729037"><ele>267.0</ele><time>2026-05-03T10:16:04.999Z</time></trkpt><trkpt lat="42.196446203861285" lon="13.864802870986026"><ele>272.0</ele><time>2026-05-03T10:16:05.999Z</time></trkpt><trkpt lat="42.19652420276777" lon="13.865041118071503"><ele>277.0</ele><time>2026-05-03T10:16:06.999Z</time></trkpt><trkpt lat="42.196599195459115" lon="13.865272007031363"><ele>269.66666666666663</ele><time>2026-05-03T10:16:07.999Z</time></trkpt><trkpt lat="42.19667588104631" lon="13.865494882306482"><ele>262.3333333333333</ele><time>2026-05-03T10:16:08.999Z</time></trkpt><trkpt lat="42.19674588841178" lon="13.865729621199183"><ele>255.0</ele><time>2026-05-03T10:16:09.999Z</time></trkpt><trkpt lat="42.19680778845195" lon="13.865967966031523"><ele>255.0</ele><time>2026-05-03T10:16:10.999Z</time></trkpt><trkpt lat="42.19686690411502" lon="13.866211859880684"><ele>255.0</ele><time>2026-05-03T10:16:11.999Z</time></trkpt><trkpt lat="42.196919469582845" lon="13.8664647797221"><ele>255.0</ele><time>2026-05-03T10:16:12.999Z</time></trkpt><trkpt lat="42.19697261227301" lon="13.866715087448622"><ele>257.6666666666667</ele><time>2026-05-03T10:16:13.999Z</time></trkpt><trkpt lat="42.19702862601691" lon="13.866961162487966"><ele>260.33333333333337</ele><time>2026-05-03T10:16:14.999Z</time></trkpt><trkpt lat="42.19708660520392" lon="13.86720260569756"><ele>263.0</ele><time>2026-05-03T10:16:15.999Z</time></trkpt><trkpt lat="42.197140932140705" lon="13.867436514856559"><ele>264.0</ele><time>2026-05-03T10:16:16.999Z</time></trkpt><trkpt lat="42.19719059408301" lon="13.867682239389437"><ele>265.0</ele><time>2026-05-03T10:16:17.999Z</time></trkpt><trkpt lat="42.19724840690326" lon="13.867919417214438"><ele>266.0</ele><time>2026-05-03T10:16:18.999Z</time></trkpt><trkpt lat="42.19729968380416" lon="13.868162205992585"><ele>257.0</ele><time>2026-05-03T10:16:19.999Z</time></trkpt><trkpt lat="42.19734237768061" lon="13.86840175726727"><ele>248.0</ele><time>2026-05-03T10:16:20.999Z</time></trkpt><trkpt lat="42.197377994486956" lon="13.868636976430206"><ele>239.0</ele><time>2026-05-03T10:16:21.999Z</time></trkpt><trkpt lat="42.19740295734744" lon="13.868878103496261"><ele>239.0</ele><time>2026-05-03T10:16:22.999Z</time></trkpt><trkpt lat="42.19742675978939" lon="13.869117394113708"><ele>239.0</ele><time>2026-05-03T10:16:23.999Z</time></trkpt><trkpt lat="42.19745398787526" lon="13.86935698051446"><ele>239.0</ele><time>2026-05-03T10:16:24.999Z</time></trkpt><trkpt lat="42.19748227729693" lon="13.86960057253676"><ele>238.33333333333334</ele><time>2026-05-03T10:16:25.999Z</time></trkpt><trkpt lat="42.197516431892836" lon="13.869832324817942"><ele>237.66666666666669</ele><time>2026-05-03T10:16:26.999Z</time></trkpt><trkpt lat="42.1975417612704" lon="13.870085857248098"><ele>237.0</ele><time>2026-05-03T10:16:27.999Z</time></trkpt><trkpt lat="42.19757118349734" lon="13.870334536764517"><ele>237.0</ele><time>2026-05-03T10:16:28.999Z</time></trkpt><trkpt lat="42.19759856662664" lon="13.870596611210223"><ele>237.0</ele><time>2026-05-03T10:16:29.999Z</time></trkpt><trkpt lat="42.19763246182911" lon="13.870847432912788"><ele>237.0</ele><time>2026-05-03T10:16:30.999Z</time></trkpt><trkpt lat="42.197667382336704" lon="13.871100824605701"><ele>238.0</ele><time>2026-05-03T10:16:31.999Z</time></trkpt><trkpt lat="42.19769726717597" lon="13.87136108732891"><ele>239.0</ele><time>2026-05-03T10:16:32.999Z</time></trkpt><trkpt lat="42.197727565602285" lon="13.87162098929383"><ele>240.0</ele><time>2026-05-03T10:16:33.999Z</time></trkpt><trkpt lat="42.1977570432346" lon="13.871877873072838"><ele>243.33333333333331</ele><time>2026-05-03T10:16:34.999Z</time></trkpt><trkpt lat="42.19778800702088" lon="13.872127705632948"><ele>246.66666666666666</ele><time>2026-05-03T10:16:35.999Z</time></trkpt><trkpt lat="42.19781666967129" lon="13.872375974120347"><ele>250.0</ele><time>2026-05-03T10:16:36.999Z</time></trkpt><trkpt lat="42.19785248730088" lon="13.872599433336052"><ele>248.66666666666666</ele><time>2026-05-03T10:16:37.999Z</time></trkpt><trkpt lat="42.19789101344298" lon="13.872837246672338"><ele>247.33333333333331</ele><time>2026-05-03T10:16:38.999Z</time></trkpt><trkpt lat="42.19793112061531" lon="13.873080472595072"><ele>246.0</ele><time>2026-05-03T10:16:39.999Z</time></trkpt><trkpt lat="42.19796746471073" lon="13.873315805352965"><ele>250.66666666666669</ele><time>2026-05-03T10:16:40.999Z</time></trkpt><trkpt lat="42.1980098444564" lon="13.873562323604235"><ele>255.33333333333334</ele><time>2026-05-03T10:16:41.999Z</time></trkpt><trkpt lat="42.198047979344345" lon="13.873794263378564"><ele>260.0</ele><time>2026-05-03T10:16:42.999Z</time></trkpt><trkpt lat="42.19808758390139" lon="13.87401601244981"><ele>260.0</ele><time>2026-05-03T10:16:43.999Z</time></trkpt><trkpt lat="42.19812141914893" lon="13.874237709791402"><ele>260.0</ele><time>2026-05-03T10:16:44.999Z</time></trkpt><trkpt lat="42.198152851068826" lon="13.874441503164142"><ele>260.0</ele><time>2026-05-03T10:16:45.999Z</time></trkpt><trkpt lat="42.198185625975476" lon="13.874651743578053"><ele>250.66666666666669</ele><time>2026-05-03T10:16:46.999Z</time></trkpt><trkpt lat="42.19821835666605" lon="13.874852641328799"><ele>241.33333333333331</ele><time>2026-05-03T10:16:47.999Z</time></trkpt><trkpt lat="42.19824970588315" lon="13.875054602762358"><ele>232.0</ele><time>2026-05-03T10:16:48.999Z</time></trkpt><trkpt lat="42.1982713165616" lon="13.875255641867161"><ele>229.33333333333331</ele><time>2026-05-03T10:16:49.999Z</time></trkpt><trkpt lat="42.19827628659169" lon="13.875457921242075"><ele>226.66666666666669</ele><time>2026-05-03T10:16:50.999Z</time></trkpt><trkpt lat="42.198257026843564" lon="13.875658169746773"><ele>224.0</ele><time>2026-05-03T10:16:51.999Z</time></trkpt><trkpt lat="42.198216203046385" lon="13.87585934305132"><ele>237.66666666666669</ele><time>2026-05-03T10:16:52.999Z</time></trkpt><trkpt lat="42.19815927385855" lon="13.87606485384092"><ele>251.33333333333331</ele><time>2026-05-03T10:16:53.999Z</time></trkpt><trkpt lat="42.1981088103505" lon="13.876272450619531"><ele>265.0</ele><time>2026-05-03T10:16:54.999Z</time></trkpt><trkpt lat="42.198064430347614" lon="13.876480995978401"><ele>265.0</ele><time>2026-05-03T10:16:55.999Z</time></trkpt><trkpt lat="42.19801548625383" lon="13.876689949157479"><ele>265.0</ele><time>2026-05-03T10:16:56.999Z</time></trkpt><trkpt lat="42.19797263424505" lon="13.87690564678941"><ele>265.0</ele><time>2026-05-03T10:16:57.999Z</time></trkpt><trkpt lat="42.19793416519717" lon="13.8771113820365"><ele>264.3333333333333</ele><time>2026-05-03T10:16:58.999Z</time></trkpt><trkpt lat="42.19791124178307" lon="13.877317608880144"><ele>263.6666666666667</ele><time>2026-05-03T10:16:59.999Z</time></trkpt><trkpt lat="42.19791728603535" lon="13.87752574840945"><ele>263.0</ele><time>2026-05-03T10:17:00.999Z</time></trkpt><trkpt lat="42.19795172704664" lon="13.87772087472235"><ele>264.6666666666667</ele><time>2026-05-03T10:17:01.999Z</time></trkpt><trkpt lat="42.19800736904719" lon="13.87790983195872"><ele>266.3333333333333</ele><time>2026-05-03T10:17:02.999Z</time></trkpt><trkpt lat="42.198071778562515" lon="13.878101081248534"><ele>268.0</ele><time>2026-05-03T10:17:03.999Z</time></trkpt><trkpt lat="42.19814959391888" lon="13.878276719243138"><ele>258.3333333333333</ele><time>2026-05-03T10:17:04.999Z</time></trkpt><trkpt lat="42.19823123737414" lon="13.878456133703757"><ele>248.66666666666669</ele><time>2026-05-03T10:17:05.999Z</time></trkpt><trkpt lat="42.19831712785126" lon="13.878622805698079"><ele>239.0</ele><time>2026-05-03T10:17:06.999Z</time></trkpt><trkpt lat="42.1984180556699" lon="13.87878260374834"><ele>239.0</ele><time>2026-05-03T10:17:07.999Z</time></trkpt><trkpt lat="42.198540444161" lon="13.878922289063892"><ele>239.0</ele><time>2026-05-03T10:17:08.999Z</time></trkpt><trkpt lat="42.19866532997194" lon="13.879039919363974"><ele>239.0</ele><time>2026-05-03T10:17:09.999Z</time></trkpt><trkpt lat="42.19878680112535" lon="13.879153775839262"><ele>239.0</ele><time>2026-05-03T10:17:10.999Z</time></trkpt><trkpt lat="42.198898070371044" lon="13.879263824935748"><ele>239.0</ele><time>2026-05-03T10:17:11.999Z</time></trkpt><trkpt lat="42.199007006591735" lon="13.879381335053413"><ele>239.0</ele><time>2026-05-03T10:17:12.999Z</time></trkpt><trkpt lat="42.19910795648728" lon="13.879515746249616"><ele>239.0</ele><time>2026-05-03T10:17:13.999Z</time></trkpt><trkpt lat="42.19919697824299" lon="13.879669772800804"><ele>238.25</ele><time>2026-05-03T10:17:14.999Z</time></trkpt><trkpt lat="42.19926458564689" lon="13.879838438918936"><ele>237.5</ele><time>2026-05-03T10:17:15.999Z</time></trkpt><trkpt lat="42.199297794954646" lon="13.88002669890701"><ele>236.75</ele><time>2026-05-03T10:17:16.999Z</time></trkpt><trkpt lat="42.199306646464905" lon="13.88022499017221"><ele>236.0</ele><time>2026-05-03T10:17:17.999Z</time></trkpt><trkpt lat="42.19929898526608" lon="13.880426572177173"><ele>236.0</ele><time>2026-05-03T10:17:18.999Z</time></trkpt><trkpt lat="42.19927402662667" lon="13.880636819111386"><ele>236.0</ele><time>2026-05-03T10:17:19.999Z</time></trkpt><trkpt lat="42.19924217587297" lon="13.880837324720092"><ele>236.0</ele><time>2026-05-03T10:17:20.999Z</time></trkpt><trkpt lat="42.19922165946145" lon="13.881036950153028"><ele>233.75</ele><time>2026-05-03T10:17:21.999Z</time></trkpt><trkpt lat="42.19920413833024" lon="13.88122678829642"><ele>231.5</ele><time>2026-05-03T10:17:22.999Z</time></trkpt><trkpt lat="42.19919356745599" lon="13.88140428156136"><ele>229.25</ele><time>2026-05-03T10:17:23.999Z</time></trkpt><trkpt lat="42.19920628612965" lon="13.881567885429547"><ele>227.0</ele><time>2026-05-03T10:17:24.999Z</time></trkpt><trkpt lat="42.199241533968454" lon="13.881733766027647"><ele>228.5</ele><time>2026-05-03T10:17:26Z</time></trkpt><trkpt lat="42.19930704617808" lon="13.881902255573973"><ele>230.0</ele><time>2026-05-03T10:17:27Z</time></trkpt><trkpt lat="42.199373637347364" lon="13.882058372510672"><ele>231.5</ele><time>2026-05-03T10:17:28Z</time></trkpt><trkpt lat="42.19942995266917" lon="13.882200820695934"><ele>233.0</ele><time>2026-05-03T10:17:29Z</time></trkpt><trkpt lat="42.19947891188505" lon="13.8823375786697"><ele>233.0</ele><time>2026-05-03T10:17:30Z</time></trkpt><trkpt lat="42.199525184625664" lon="13.882483995192228"><ele>233.0</ele><time>2026-05-03T10:17:31Z</time></trkpt><trkpt lat="42.199554725275235" lon="13.882651095935213"><ele>233.0</ele><time>2026-05-03T10:17:32Z</time></trkpt><trkpt lat="42.19961422262626" lon="13.88280715979324"><ele>233.0</ele><time>2026-05-03T10:17:33Z</time></trkpt><trkpt lat="42.19966925851763" lon="13.882955428728778"><ele>234.5</ele><time>2026-05-03T10:17:34Z</time></trkpt><trkpt lat="42.19975132838441" lon="13.883088074955243"><ele>236.0</ele><time>2026-05-03T10:17:35Z</time></trkpt><trkpt lat="42.199851596933144" lon="13.883214631241195"><ele>237.5</ele><time>2026-05-03T10:17:36Z</time></trkpt><trkpt lat="42.19995616309656" lon="13.883336516154694"><ele>239.0</ele><time>2026-05-03T10:17:37Z</time></trkpt><trkpt lat="42.2000387441254" lon="13.88347440537546"><ele>239.0</ele><time>2026-05-03T10:17:38Z</time></trkpt><trkpt lat="42.200136830897144" lon="13.883578415473472"><ele>239.0</ele><time>2026-05-03T10:17:39Z</time></trkpt><trkpt lat="42.20022147441151" lon="13.883703182687926"><ele>239.0</ele><time>2026-05-03T10:17:40Z</time></trkpt><trkpt lat="42.200314675855765" lon="13.883819632290274"><ele>239.0</ele><time>2026-05-03T10:17:41Z</time></trkpt><trkpt lat="42.200400181319196" lon="13.883957905214492"><ele>239.0</ele><time>2026-05-03T10:17:42Z</time></trkpt><trkpt lat="42.20048685521882" lon="13.884109166460204"><ele>239.0</ele><time>2026-05-03T10:17:43Z</time></trkpt><trkpt lat="42.20053112214018" lon="13.884295601646148"><ele>239.0</ele><time>2026-05-03T10:17:44Z</time></trkpt><trkpt lat="42.200579766030344" lon="13.884476206361244"><ele>239.0</ele><time>2026-05-03T10:17:45Z</time></trkpt><trkpt lat="42.200639813815435" lon="13.884644779130285"><ele>238.0</ele><time>2026-05-03T10:17:46Z</time></trkpt><trkpt lat="42.20067775000271" lon="13.884824653382447"><ele>237.0</ele><time>2026-05-03T10:17:47Z</time></trkpt><trkpt lat="42.20072966504793" lon="13.884988745565154"><ele>236.0</ele><time>2026-05-03T10:17:48Z</time></trkpt><trkpt lat="42.20079581448124" lon="13.885153831241986"><ele>235.0</ele><time>2026-05-03T10:17:49Z</time></trkpt><trkpt lat="42.20087141551521" lon="13.885310162933946"><ele>235.0</ele><time>2026-05-03T10:17:50Z</time></trkpt><trkpt lat="42.20096379956046" lon="13.88545588476874"><ele>235.0</ele><time>2026-05-03T10:17:51Z</time></trkpt><trkpt lat="42.201072762998116" lon="13.885587070202247"><ele>235.0</ele><time>2026-05-03T10:17:52Z</time></trkpt><trkpt lat="42.20118426976656" lon="13.885708795150615"><ele>235.0</ele><time>2026-05-03T10:17:53Z</time></trkpt><trkpt lat="42.20130652880692" lon="13.885827678190463"><ele>233.0</ele><time>2026-05-03T10:17:54Z</time></trkpt><trkpt lat="42.20144441264446" lon="13.885956918439208"><ele>231.0</ele><time>2026-05-03T10:17:55Z</time></trkpt><trkpt lat="42.20158791749435" lon="13.88609964828633"><ele>229.0</ele><time>2026-05-03T10:17:56Z</time></trkpt><trkpt lat="42.20173151862896" lon="13.886249132946011"><ele>229.0</ele><time>2026-05-03T10:17:57Z</time></trkpt><trkpt lat="42.201868648053335" lon="13.886389876287783"><ele>229.0</ele><time>2026-05-03T10:17:58Z</time></trkpt><trkpt lat="42.20198520037686" lon="13.886527384816278"><ele>229.0</ele><time>2026-05-03T10:17:59Z</time></trkpt><trkpt lat="42.202125882175025" lon="13.886672667527666"><ele>226.33333333333331</ele><time>2026-05-03T10:18:00Z</time></trkpt><trkpt lat="42.20228904280426" lon="13.88684075140175"><ele>223.66666666666669</ele><time>2026-05-03T10:18:01Z</time></trkpt><trkpt lat="42.202454458797" lon="13.887010902936108"><ele>221.0</ele><time>2026-05-03T10:18:02Z</time></trkpt><trkpt lat="42.20262384342663" lon="13.887162495570104"><ele>221.0</ele><time>2026-05-03T10:18:03Z</time></trkpt><trkpt lat="42.20277779985064" lon="13.887337257516707"><ele>221.0</ele><time>2026-05-03T10:18:04Z</time></trkpt><trkpt lat="42.202939062034204" lon="13.88749521247174"><ele>221.0</ele><time>2026-05-03T10:18:05Z</time></trkpt><trkpt lat="42.20309921246569" lon="13.887658352665495"><ele>224.33333333333334</ele><time>2026-05-03T10:18:06Z</time></trkpt><trkpt lat="42.20325209575155" lon="13.887820367705505"><ele>227.66666666666669</ele><time>2026-05-03T10:18:07Z</time></trkpt><trkpt lat="42.203402879061755" lon="13.887978738045017"><ele>231.0</ele><time>2026-05-03T10:18:08Z</time></trkpt><trkpt lat="42.20355532638229" lon="13.888133676900964"><ele>231.0</ele><time>2026-05-03T10:18:09Z</time></trkpt><trkpt lat="42.20369908634794" lon="13.888286056085407"><ele>231.0</ele><time>2026-05-03T10:18:10Z</time></trkpt><trkpt lat="42.203825877288715" lon="13.888434886944205"><ele>231.0</ele><time>2026-05-03T10:18:11Z</time></trkpt><trkpt lat="42.20394763539148" lon="13.888597693716413"><ele>227.0</ele><time>2026-05-03T10:18:12Z</time></trkpt><trkpt lat="42.20406151618384" lon="13.888774685581334"><ele>223.0</ele><time>2026-05-03T10:18:13Z</time></trkpt><trkpt lat="42.20416339700161" lon="13.888970313591344"><ele>219.0</ele><time>2026-05-03T10:18:14Z</time></trkpt><trkpt lat="42.20425230005591" lon="13.889178001309672"><ele>219.33333333333331</ele><time>2026-05-03T10:18:15Z</time></trkpt><trkpt lat="42.20433178862603" lon="13.889388245320873"><ele>219.66666666666666</ele><time>2026-05-03T10:18:16Z</time></trkpt><trkpt lat="42.20440486925382" lon="13.88960389596015"><ele>220.0</ele><time>2026-05-03T10:18:17Z</time></trkpt><trkpt lat="42.20447104262327" lon="13.88982187083745"><ele>220.0</ele><time>2026-05-03T10:18:18Z</time></trkpt><trkpt lat="42.20452991448412" lon="13.890033471704653"><ele>220.0</ele><time>2026-05-03T10:18:19Z</time></trkpt><trkpt lat="42.204585638579275" lon="13.89022532660821"><ele>220.0</ele><time>2026-05-03T10:18:20Z</time></trkpt><trkpt lat="42.20465077225627" lon="13.890430008421598"><ele>222.0</ele><time>2026-05-03T10:18:21Z</time></trkpt><trkpt lat="42.20472881973174" lon="13.890636017255693"><ele>224.0</ele><time>2026-05-03T10:18:22Z</time></trkpt><trkpt lat="42.2048069520925" lon="13.890828705216565"><ele>226.0</ele><time>2026-05-03T10:18:23Z</time></trkpt><trkpt lat="42.204921456738006" lon="13.890990166170264"><ele>226.0</ele><time>2026-05-03T10:18:24Z</time></trkpt><trkpt lat="42.205055618387554" lon="13.89114715472939"><ele>226.0</ele><time>2026-05-03T10:18:25Z</time></trkpt><trkpt lat="42.20518981944902" lon="13.891310196003902"><ele>226.0</ele><time>2026-05-03T10:18:26Z</time></trkpt><trkpt lat="42.20531898882319" lon="13.891485118664754"><ele>226.0</ele><time>2026-05-03T10:18:27Z</time></trkpt><trkpt lat="42.2054463603123" lon="13.891662319850365"><ele>226.0</ele><time>2026-05-03T10:18:27.999Z</time></trkpt><trkpt lat="42.205577942074974" lon="13.8918260441009"><ele>226.0</ele><time>2026-05-03T10:18:28.999Z</time></trkpt><trkpt lat="42.205714898030465" lon="13.892000139259423"><ele>226.0</ele><time>2026-05-03T10:18:29.999Z</time></trkpt><trkpt lat="42.20584420406757" lon="13.892166200903088"><ele>226.0</ele><time>2026-05-03T10:18:30.999Z</time></trkpt><trkpt lat="42.20598142968745" lon="13.892348534597724"><ele>226.0</ele><time>2026-05-03T10:18:31.999Z</time></trkpt><trkpt lat="42.20611667674055" lon="13.892518052904704"><ele>227.0</ele><time>2026-05-03T10:18:32.999Z</time></trkpt><trkpt lat="42.206264242127716" lon="13.892689503504418"><ele>228.0</ele><time>2026-05-03T10:18:33.999Z</time></trkpt><trkpt lat="42.206411031764375" lon="13.892849823550625"><ele>229.0</ele><time>2026-05-03T10:18:34.999Z</time></trkpt><trkpt lat="42.20655987929776" lon="13.893008214716305"><ele>229.0</ele><time>2026-05-03T10:18:35.999Z</time></trkpt><trkpt lat="42.20671342307061" lon="13.89315953909138"><ele>229.0</ele><time>2026-05-03T10:18:36.999Z</time></trkpt><trkpt lat="42.206867879218656" lon="13.893310631824706"><ele>229.0</ele><time>2026-05-03T10:18:37.999Z</time></trkpt><trkpt lat="42.20701316615934" lon="13.893462651549346"><ele>231.33333333333331</ele><time>2026-05-03T10:18:38.999Z</time></trkpt><trkpt lat="42.2071740005658" lon="13.893622207120574"><ele>233.66666666666669</ele><time>2026-05-03T10:18:39.999Z</time></trkpt><trkpt lat="42.20733487164144" lon="13.893787323009676"><ele>236.0</ele><time>2026-05-03T10:18:40.999Z</time></trkpt><trkpt lat="42.20750092093007" lon="13.89395144475397"><ele>232.33333333333334</ele><time>2026-05-03T10:18:41.999Z</time></trkpt><trkpt lat="42.20766750958514" lon="13.89412207646641"><ele>228.66666666666669</ele><time>2026-05-03T10:18:42.999Z</time></trkpt><trkpt lat="42.207828938874" lon="13.894286611759576"><ele>225.0</ele><time>2026-05-03T10:18:43.999Z</time></trkpt><trkpt lat="42.20799150338363" lon="13.894451519236746"><ele>225.0</ele><time>2026-05-03T10:18:44.999Z</time></trkpt><trkpt lat="42.208153174289784" lon="13.894617831241057"><ele>225.0</ele><time>2026-05-03T10:18:45.999Z</time></trkpt><trkpt lat="42.20831405119034" lon="13.894784241998105"><ele>225.0</ele><time>2026-05-03T10:18:46.999Z</time></trkpt><trkpt lat="42.208474862437555" lon="13.89494620217703"><ele>224.66666666666669</ele><time>2026-05-03T10:18:47.999Z</time></trkpt><trkpt lat="42.2086355350666" lon="13.895107923839646"><ele>224.33333333333334</ele><time>2026-05-03T10:18:48.999Z</time></trkpt><trkpt lat="42.20879960068164" lon="13.895276604653072"><ele>224.0</ele><time>2026-05-03T10:18:49.999Z</time></trkpt><trkpt lat="42.208958421891374" lon="13.895441317591832"><ele>224.66666666666669</ele><time>2026-05-03T10:18:50.999Z</time></trkpt><trkpt lat="42.209117834356874" lon="13.895610211535715"><ele>225.33333333333331</ele><time>2026-05-03T10:18:51.999Z</time></trkpt><trkpt lat="42.20928629574432" lon="13.895779635998021"><ele>226.0</ele><time>2026-05-03T10:18:52.999Z</time></trkpt><trkpt lat="42.2094504207082" lon="13.895938571825466"><ele>226.0</ele><time>2026-05-03T10:18:53.999Z</time></trkpt><trkpt lat="42.209611739891564" lon="13.896093676394871"><ele>226.0</ele><time>2026-05-03T10:18:54.999Z</time></trkpt><trkpt lat="42.20977036501069" lon="13.89625387827953"><ele>226.0</ele><time>2026-05-03T10:18:55.999Z</time></trkpt><trkpt lat="42.20992793990286" lon="13.896412595744911"><ele>226.33333333333331</ele><time>2026-05-03T10:18:56.999Z</time></trkpt><trkpt lat="42.21007622611155" lon="13.896560748039278"><ele>226.66666666666669</ele><time>2026-05-03T10:18:57.999Z</time></trkpt><trkpt lat="42.21020739951049" lon="13.89670659714223"><ele>227.0</ele><time>2026-05-03T10:18:58.999Z</time></trkpt><trkpt lat="42.21033394883566" lon="13.896871995255822"><ele>227.0</ele><time>2026-05-03T10:18:59.999Z</time></trkpt><trkpt lat="42.21044299215599" lon="13.897055442150108"><ele>227.0</ele><time>2026-05-03T10:19:00.999Z</time></trkpt><trkpt lat="42.21051925593442" lon="13.897259519075659"><ele>227.0</ele><time>2026-05-03T10:19:01.999Z</time></trkpt><trkpt lat="42.2105794146022" lon="13.897476348463465"><ele>228.0</ele><time>2026-05-03T10:19:02.999Z</time></trkpt><trkpt lat="42.21064742109434" lon="13.897699983876308"><ele>229.0</ele><time>2026-05-03T10:19:03.999Z</time></trkpt><trkpt lat="42.210716780418124" lon="13.897913038087085"><ele>230.0</ele><time>2026-05-03T10:19:04.999Z</time></trkpt><trkpt lat="42.2107897456093" lon="13.898125820458626"><ele>227.33333333333334</ele><time>2026-05-03T10:19:05.999Z</time></trkpt><trkpt lat="42.210862988370216" lon="13.898343914391736"><ele>224.66666666666669</ele><time>2026-05-03T10:19:06.999Z</time></trkpt><trkpt lat="42.210935392936435" lon="13.898562280992042"><ele>222.0</ele><time>2026-05-03T10:19:07.999Z</time></trkpt><trkpt lat="42.211004242582284" lon="13.89877754295994"><ele>222.0</ele><time>2026-05-03T10:19:08.999Z</time></trkpt><trkpt lat="42.211071166940776" lon="13.899002205400096"><ele>222.0</ele><time>2026-05-03T10:19:09.999Z</time></trkpt><trkpt lat="42.21114211844577" lon="13.899234093173133"><ele>222.0</ele><time>2026-05-03T10:19:10.999Z</time></trkpt><trkpt lat="42.21121474248938" lon="13.899452360419582"><ele>222.33333333333331</ele><time>2026-05-03T10:19:11.999Z</time></trkpt><trkpt lat="42.21127954437884" lon="13.89965360975026"><ele>222.66666666666666</ele><time>2026-05-03T10:19:12.999Z</time></trkpt><trkpt lat="42.21134097426258" lon="13.899834329152458"><ele>223.0</ele><time>2026-05-03T10:19:13.999Z</time></trkpt><trkpt lat="42.21140461846851" lon="13.900014503581138"><ele>223.60000000000002</ele><time>2026-05-03T10:19:14.999Z</time></trkpt><trkpt lat="42.211452128350494" lon="13.90017749995105"><ele>224.20000000000002</ele><time>2026-05-03T10:19:15.999Z</time></trkpt><trkpt lat="42.21149024281584" lon="13.900316856205366"><ele>224.8</ele><time>2026-05-03T10:19:16.999Z</time></trkpt><trkpt lat="42.21151581398311" lon="13.90043120750984"><ele>225.4</ele><time>2026-05-03T10:19:17.999Z</time></trkpt><trkpt lat="42.21153302610377" lon="13.900528446688291"><ele>226.0</ele><time>2026-05-03T10:19:18.999Z</time></trkpt><trkpt lat="42.21157883556124" lon="13.900697678892303"><ele>225.60000000000002</ele><time>2026-05-03T10:19:20.999Z</time></trkpt><trkpt lat="42.21161506730087" lon="13.900808707998339"><ele>225.20000000000002</ele><time>2026-05-03T10:19:21.999Z</time></trkpt><trkpt lat="42.211645510974414" lon="13.900922883636856"><ele>224.79999999999998</ele><time>2026-05-03T10:19:22.999Z</time></trkpt><trkpt lat="42.21164824876678" lon="13.901050350118444"><ele>224.39999999999998</ele><time>2026-05-03T10:19:24.999Z</time></trkpt><trkpt lat="42.211567327650954" lon="13.901101389040722"><ele>224.0</ele><time>2026-05-03T10:19:26.999Z</time></trkpt><trkpt lat="42.211478983633526" lon="13.901185981350602"><ele>227.33333333333334</ele><time>2026-05-03T10:19:28.999Z</time></trkpt><trkpt lat="42.2114610426222" lon="13.901310749322468"><ele>230.66666666666669</ele><time>2026-05-03T10:19:30.999Z</time></trkpt><trkpt lat="42.21148128751271" lon="13.90143515243851"><ele>234.0</ele><time>2026-05-03T10:19:33Z</time></trkpt><trkpt lat="42.211436469705255" lon="13.901510484198855"><ele>237.33333333333331</ele><time>2026-05-03T10:19:35Z</time></trkpt><trkpt lat="42.21137335701283" lon="13.901479815326407"><ele>240.66666666666666</ele><time>2026-05-03T10:19:37Z</time></trkpt><trkpt lat="42.21131118698025" lon="13.901406924074404"><ele>244.0</ele><time>2026-05-03T10:19:39Z</time></trkpt><trkpt lat="42.211221508532475" lon="13.901342174725126"><ele>244.0</ele><time>2026-05-03T10:19:41Z</time></trkpt><trkpt lat="42.21115849859388" lon="13.901326078440048"><ele>243.99999999999997</ele><time>2026-05-03T10:19:42Z</time></trkpt><trkpt lat="42.21102929009777" lon="13.901319264727277"><ele>243.99999999999997</ele><time>2026-05-03T10:19:44Z</time></trkpt><trkpt lat="42.2109213285944" lon="13.901339500547708"><ele>244.0</ele><time>2026-05-03T10:19:46Z</time></trkpt><trkpt lat="42.21087778927069" lon="13.9014225248853"><ele>244.0</ele><time>2026-05-03T10:19:48Z</time></trkpt><trkpt lat="42.21091400649786" lon="13.90152790647859"><ele>243.99999999999997</ele><time>2026-05-03T10:20:31Z</time></trkpt><trkpt lat="42.21096925834109" lon="13.90158390235716"><ele>244.0</ele><time>2026-05-03T10:20:34Z</time></trkpt><trkpt lat="42.21101951904242" lon="13.901651417925322"><ele>243.99999999999997</ele><time>2026-05-03T10:20:36Z</time></trkpt><trkpt lat="42.2110798690071" lon="13.90170229825341"><ele>243.99999999999997</ele><time>2026-05-03T10:20:41Z</time></trkpt><trkpt lat="42.21111582332385" lon="13.901774674648495"><ele>244.0</ele><time>2026-05-03T10:21:05.999Z</time></trkpt><trkpt lat="42.211133186810876" lon="13.901868261595174"><ele>243.99999999999997</ele><time>2026-05-03T10:21:18.999Z</time></trkpt><trkpt lat="42.21111280159461" lon="13.901958428347092"><ele>243.99999999999997</ele><time>2026-05-03T10:21:40Z</time></trkpt><trkpt lat="42.211051383147066" lon="13.902012256979233"><ele>247.49999999999997</ele><time>2026-05-03T10:21:45Z</time></trkpt><trkpt lat="42.21097478598363" lon="13.901916598669509"><ele>251.0</ele><time>2026-05-03T10:21:48Z</time></trkpt><trkpt lat="42.210891270265236" lon="13.901820866662181"><ele>254.5</ele><time>2026-05-03T10:21:50Z</time></trkpt><trkpt lat="42.21081830191386" lon="13.901762871660301"><ele>258.0</ele><time>2026-05-03T10:21:52Z</time></trkpt><trkpt lat="42.210750437882346" lon="13.901782020561518"><ele>261.5</ele><time>2026-05-03T10:22:05Z</time></trkpt><trkpt lat="42.210743834920414" lon="13.90188271847656"><ele>265.0</ele><time>2026-05-03T10:22:22Z</time></trkpt><trkpt lat="42.21082717201057" lon="13.901971988584666"><ele>265.0</ele><time>2026-05-03T10:22:25Z</time></trkpt><trkpt lat="42.210873680076425" lon="13.902035696855705"><ele>265.0</ele><time>2026-05-03T10:22:27Z</time></trkpt><trkpt lat="42.210908014349194" lon="13.902117898403187"><ele>265.0</ele><time>2026-05-03T10:22:30Z</time></trkpt><trkpt lat="42.210906695722144" lon="13.902227624640917"><ele>265.0</ele><time>2026-05-03T10:22:40Z</time></trkpt><trkpt lat="42.21092905541971" lon="13.90232256124695"><ele>265.0</ele><time>2026-05-03T10:22:44Z</time></trkpt><trkpt lat="42.21096025919" lon="13.902425115213797"><ele>265.0</ele><time>2026-05-03T10:22:58Z</time></trkpt><trkpt lat="42.210952117657484" lon="13.902545783027477"><ele>268.2</ele><time>2026-05-03T10:23:00Z</time></trkpt><trkpt lat="42.21094326095782" lon="13.902686239470109"><ele>271.4</ele><time>2026-05-03T10:23:02Z</time></trkpt><trkpt lat="42.21094362902675" lon="13.902816476208727"><ele>274.6</ele><time>2026-05-03T10:23:04Z</time></trkpt><trkpt lat="42.21100734400927" lon="13.902943096844384"><ele>277.8</ele><time>2026-05-03T10:23:06Z</time></trkpt><trkpt lat="42.210960690564285" lon="13.903001405380703"><ele>281.0</ele><time>2026-05-03T10:23:07Z</time></trkpt><trkpt lat="42.21099625448677" lon="13.903150619092305"><ele>281.0</ele><time>2026-05-03T10:23:09Z</time></trkpt><trkpt lat="42.21105705768958" lon="13.903301500401195"><ele>281.0</ele><time>2026-05-03T10:23:10.999Z</time></trkpt><trkpt lat="42.21109138930364" lon="13.903397003783612"><ele>281.0</ele><time>2026-05-03T10:23:11.999Z</time></trkpt><trkpt lat="42.21112375200061" lon="13.903516612188426"><ele>281.0</ele><time>2026-05-03T10:23:12.999Z</time></trkpt><trkpt lat="42.21114433153799" lon="13.903636031619047"><ele>281.0</ele><time>2026-05-03T10:23:13.999Z</time></trkpt><trkpt lat="42.21116671145837" lon="13.903759408680662"><ele>283.0</ele><time>2026-05-03T10:23:14.999Z</time></trkpt><trkpt lat="42.211188032645474" lon="13.903873300259738"><ele>285.0</ele><time>2026-05-03T10:23:15.999Z</time></trkpt><trkpt lat="42.211205851456526" lon="13.903981942416783"><ele>287.0</ele><time>2026-05-03T10:23:16.999Z</time></trkpt><trkpt lat="42.21122917674493" lon="13.904091094737026"><ele>289.0</ele><time>2026-05-03T10:23:17.999Z</time></trkpt><trkpt lat="42.211251876966266" lon="13.904198119615142"><ele>291.0</ele><time>2026-05-03T10:23:18.999Z</time></trkpt><trkpt lat="42.21126841975962" lon="13.904311315664687"><ele>293.0</ele><time>2026-05-03T10:23:19.999Z</time></trkpt><trkpt lat="42.21128678803805" lon="13.904411061602074"><ele>295.0</ele><time>2026-05-03T10:23:20.999Z</time></trkpt><trkpt lat="42.21130376507842" lon="13.90452446018192"><ele>297.0</ele><time>2026-05-03T10:23:21.999Z</time></trkpt><trkpt lat="42.21133502605679" lon="13.904654046080454"><ele>299.0</ele><time>2026-05-03T10:23:22.999Z</time></trkpt><trkpt lat="42.21136559398548" lon="13.904768276539812"><ele>301.0</ele><time>2026-05-03T10:23:23.999Z</time></trkpt><trkpt lat="42.21139168538468" lon="13.904877692439884"><ele>303.0</ele><time>2026-05-03T10:23:24.999Z</time></trkpt><trkpt lat="42.2114139010244" lon="13.904982184085604"><ele>305.0</ele><time>2026-05-03T10:23:25.999Z</time></trkpt><trkpt lat="42.211450673832" lon="13.90508147535265"><ele>305.33333333333337</ele><time>2026-05-03T10:23:27.999Z</time></trkpt><trkpt lat="42.21144797354401" lon="13.905188903170696"><ele>305.6666666666667</ele><time>2026-05-03T10:24:50Z</time></trkpt><trkpt lat="42.21144691410661" lon="13.905363973928042"><ele>306.0</ele><time>2026-05-03T10:24:52Z</time></trkpt><trkpt lat="42.2114712831278" lon="13.905457875032166"><ele>306.3333333333333</ele><time>2026-05-03T10:24:53Z</time></trkpt><trkpt lat="42.21148904975471" lon="13.9055646404713"><ele>306.66666666666663</ele><time>2026-05-03T10:24:54Z</time></trkpt><trkpt lat="42.211491566233214" lon="13.90567005765317"><ele>307.0</ele><time>2026-05-03T10:24:55Z</time></trkpt><trkpt lat="42.21154884554488" lon="13.905741438916486"><ele>307.0</ele><time>2026-05-03T10:24:56Z</time></trkpt><trkpt lat="42.211570507061026" lon="13.905839947498878"><ele>307.0</ele><time>2026-05-03T10:24:57Z</time></trkpt><trkpt lat="42.21159170024822" lon="13.905946123646714"><ele>307.0</ele><time>2026-05-03T10:24:58Z</time></trkpt><trkpt lat="42.21161749829302" lon="13.906055789578003"><ele>307.0</ele><time>2026-05-03T10:24:59Z</time></trkpt><trkpt lat="42.21164774836923" lon="13.906166684579194"><ele>307.0</ele><time>2026-05-03T10:25:00Z</time></trkpt><trkpt lat="42.211689043857604" lon="13.906257812637062"><ele>307.0</ele><time>2026-05-03T10:25:01Z</time></trkpt><trkpt lat="42.211719045570455" lon="13.906345511163385"><ele>308.3333333333333</ele><time>2026-05-03T10:25:02Z</time></trkpt><trkpt lat="42.21175041512155" lon="13.906439484087464"><ele>309.66666666666663</ele><time>2026-05-03T10:25:03Z</time></trkpt><trkpt lat="42.21178158277586" lon="13.906537933692084"><ele>311.0</ele><time>2026-05-03T10:25:04Z</time></trkpt><trkpt lat="42.2117607845254" lon="13.906658672828522"><ele>312.3333333333333</ele><time>2026-05-03T10:25:05Z</time></trkpt><trkpt lat="42.211787617316695" lon="13.906754425715063"><ele>313.6666666666667</ele><time>2026-05-03T10:25:06Z</time></trkpt><trkpt lat="42.21181157542451" lon="13.906839921283886"><ele>315.0</ele><time>2026-05-03T10:25:07Z</time></trkpt><trkpt lat="42.21183844371802" lon="13.906935802092054"><ele>316.8333333333333</ele><time>2026-05-03T10:25:07.999Z</time></trkpt><trkpt lat="42.21187841520745" lon="13.907040439524117"><ele>318.6666666666667</ele><time>2026-05-03T10:25:08.999Z</time></trkpt><trkpt lat="42.21190497264149" lon="13.9071495778304"><ele>320.5</ele><time>2026-05-03T10:25:09.999Z</time></trkpt><trkpt lat="42.21193608153422" lon="13.907253067464604"><ele>322.33333333333337</ele><time>2026-05-03T10:25:10.999Z</time></trkpt><trkpt lat="42.21197221247006" lon="13.907354335996533"><ele>324.1666666666667</ele><time>2026-05-03T10:25:11.999Z</time></trkpt><trkpt lat="42.21200623761964" lon="13.907463296354624"><ele>326.0</ele><time>2026-05-03T10:25:12.999Z</time></trkpt><trkpt lat="42.21204134654297" lon="13.907593471150784"><ele>326.6</ele><time>2026-05-03T10:25:13.999Z</time></trkpt><trkpt lat="42.21206696720198" lon="13.90772115540404"><ele>327.20000000000005</ele><time>2026-05-03T10:25:14.999Z</time></trkpt><trkpt lat="42.21206941397265" lon="13.907849729275773"><ele>327.79999999999995</ele><time>2026-05-03T10:25:15.999Z</time></trkpt><trkpt lat="42.21208155916497" lon="13.907982611638776"><ele>328.4</ele><time>2026-05-03T10:25:16.999Z</time></trkpt><trkpt lat="42.21210177977456" lon="13.908107978347791"><ele>329.0</ele><time>2026-05-03T10:25:17.999Z</time></trkpt><trkpt lat="42.21211732052919" lon="13.908237965899158"><ele>329.0</ele><time>2026-05-03T10:25:18.999Z</time></trkpt><trkpt lat="42.212133452660446" lon="13.90837618442135"><ele>329.0</ele><time>2026-05-03T10:25:19.999Z</time></trkpt><trkpt lat="42.21211489871277" lon="13.90854942268604"><ele>329.0</ele><time>2026-05-03T10:25:21.999Z</time></trkpt><trkpt lat="42.212133184207836" lon="13.908652499148909"><ele>329.0</ele><time>2026-05-03T10:25:22.999Z</time></trkpt><trkpt lat="42.21212071274449" lon="13.90875471820595"><ele>329.0</ele><time>2026-05-03T10:25:23.999Z</time></trkpt><trkpt lat="42.21209511356687" lon="13.908861313864206"><ele>329.6</ele><time>2026-05-03T10:25:24.999Z</time></trkpt><trkpt lat="42.212043951559465" lon="13.908960777829712"><ele>330.2</ele><time>2026-05-03T10:25:25.999Z</time></trkpt><trkpt lat="42.21199979058332" lon="13.909059831774226"><ele>330.8</ele><time>2026-05-03T10:25:26.999Z</time></trkpt><trkpt lat="42.21194609598744" lon="13.909173787309198"><ele>331.40000000000003</ele><time>2026-05-03T10:25:27.999Z</time></trkpt><trkpt lat="42.21190169173889" lon="13.909274940773525"><ele>332.0</ele><time>2026-05-03T10:25:28.999Z</time></trkpt><trkpt lat="42.21184526355489" lon="13.909367134714875"><ele>332.6666666666667</ele><time>2026-05-03T10:25:29.999Z</time></trkpt><trkpt lat="42.21179239708139" lon="13.90947702857458"><ele>333.33333333333337</ele><time>2026-05-03T10:25:30.999Z</time></trkpt><trkpt lat="42.21174115407597" lon="13.90956715537001"><ele>334.0</ele><time>2026-05-03T10:25:31.999Z</time></trkpt><trkpt lat="42.21172135536252" lon="13.90967143922751"><ele>334.6666666666667</ele><time>2026-05-03T10:25:32.999Z</time></trkpt><trkpt lat="42.211739578543174" lon="13.90978510979348"><ele>335.3333333333333</ele><time>2026-05-03T10:25:33.999Z</time></trkpt><trkpt lat="42.21176566664109" lon="13.909896019567626"><ele>336.0</ele><time>2026-05-03T10:25:34.999Z</time></trkpt><trkpt lat="42.21178206177902" lon="13.910006736637396"><ele>336.0</ele><time>2026-05-03T10:25:35.999Z</time></trkpt><trkpt lat="42.21180142776959" lon="13.910112917215605"><ele>336.0</ele><time>2026-05-03T10:25:36.999Z</time></trkpt><trkpt lat="42.211816124162986" lon="13.910226570936315"><ele>336.0</ele><time>2026-05-03T10:25:37.999Z</time></trkpt><trkpt lat="42.21181627151077" lon="13.910339056858325"><ele>336.0</ele><time>2026-05-03T10:25:38.999Z</time></trkpt><trkpt lat="42.211818327084266" lon="13.910449253607844"><ele>336.0</ele><time>2026-05-03T10:25:39.999Z</time></trkpt><trkpt lat="42.211817164232464" lon="13.910576541544838"><ele>336.0</ele><time>2026-05-03T10:25:40.999Z</time></trkpt><trkpt lat="42.21181421673804" lon="13.910710312385127"><ele>336.0</ele><time>2026-05-03T10:25:41.999Z</time></trkpt><trkpt lat="42.21180690844643" lon="13.910860885814543"><ele>336.0</ele><time>2026-05-03T10:25:42.999Z</time></trkpt><trkpt lat="42.21179933662667" lon="13.910995952133892"><ele>336.0</ele><time>2026-05-03T10:25:43.999Z</time></trkpt><trkpt lat="42.211798369760615" lon="13.911121298822104"><ele>336.0</ele><time>2026-05-03T10:25:44.999Z</time></trkpt><trkpt lat="42.21178406226162" lon="13.911240481008061"><ele>336.0</ele><time>2026-05-03T10:25:45.999Z</time></trkpt><trkpt lat="42.21177552478208" lon="13.911349258272224"><ele>336.0</ele><time>2026-05-03T10:25:46.999Z</time></trkpt><trkpt lat="42.21176825942861" lon="13.911452016338723"><ele>336.0</ele><time>2026-05-03T10:25:47.999Z</time></trkpt><trkpt lat="42.21176853600067" lon="13.911561643320544"><ele>336.0</ele><time>2026-05-03T10:25:48.999Z</time></trkpt><trkpt lat="42.21176785790137" lon="13.911672393382762"><ele>336.0</ele><time>2026-05-03T10:25:50Z</time></trkpt><trkpt lat="42.211743252364336" lon="13.911785818301896"><ele>336.0</ele><time>2026-05-03T10:25:51Z</time></trkpt><trkpt lat="42.21176567916467" lon="13.911918972193222"><ele>336.0</ele><time>2026-05-03T10:25:52Z</time></trkpt><trkpt lat="42.2118456731167" lon="13.912009834126405"><ele>335.4</ele><time>2026-05-03T10:25:53Z</time></trkpt><trkpt lat="42.21190265016739" lon="13.912104307790585"><ele>334.8</ele><time>2026-05-03T10:25:54Z</time></trkpt><trkpt lat="42.21198394559115" lon="13.912164105100349"><ele>334.2</ele><time>2026-05-03T10:25:55Z</time></trkpt><trkpt lat="42.21201925962522" lon="13.912285467228026"><ele>333.59999999999997</ele><time>2026-05-03T10:25:56Z</time></trkpt><trkpt lat="42.212109427868285" lon="13.912385139733775"><ele>333.0</ele><time>2026-05-03T10:25:57Z</time></trkpt><trkpt lat="42.21220780658756" lon="13.912489213144381"><ele>333.0</ele><time>2026-05-03T10:25:58Z</time></trkpt><trkpt lat="42.21230205357994" lon="13.912564634412192"><ele>333.0</ele><time>2026-05-03T10:25:59Z</time></trkpt><trkpt lat="42.21236462995403" lon="13.912648286370407"><ele>333.0</ele><time>2026-05-03T10:26:00Z</time></trkpt><trkpt lat="42.212436917249136" lon="13.9127128955352"><ele>333.0</ele><time>2026-05-03T10:26:01Z</time></trkpt><trkpt lat="42.21249145291437" lon="13.912788390167092"><ele>333.0</ele><time>2026-05-03T10:26:02Z</time></trkpt><trkpt lat="42.212548449597286" lon="13.912871996045666"><ele>333.0</ele><time>2026-05-03T10:26:03Z</time></trkpt><trkpt lat="42.212638562235554" lon="13.912944183044205"><ele>333.79999999999995</ele><time>2026-05-03T10:26:04Z</time></trkpt><trkpt lat="42.21274603747243" lon="13.912994746248236"><ele>334.6</ele><time>2026-05-03T10:26:05Z</time></trkpt><trkpt lat="42.21280066116539" lon="13.91304286184516"><ele>335.4</ele><time>2026-05-03T10:26:06Z</time></trkpt><trkpt lat="42.212859769683284" lon="13.91308003792397"><ele>336.20000000000005</ele><time>2026-05-03T10:26:08Z</time></trkpt><trkpt lat="42.21299879035232" lon="13.913163979356524"><ele>337.0</ele><time>2026-05-03T10:26:11Z</time></trkpt><trkpt lat="42.21309733436831" lon="13.913206915493086"><ele>337.8</ele><time>2026-05-03T10:26:12Z</time></trkpt><trkpt lat="42.21319554742699" lon="13.91323575882537"><ele>338.6</ele><time>2026-05-03T10:26:13Z</time></trkpt><trkpt lat="42.21330090317541" lon="13.913244112220687"><ele>339.40000000000003</ele><time>2026-05-03T10:26:14Z</time></trkpt><trkpt lat="42.21340221976643" lon="13.913267061101529"><ele>340.20000000000005</ele><time>2026-05-03T10:26:15Z</time></trkpt><trkpt lat="42.21349662720723" lon="13.913293488410403"><ele>341.0</ele><time>2026-05-03T10:26:16Z</time></trkpt><trkpt lat="42.21358730229651" lon="13.913344914565359"><ele>341.0</ele><time>2026-05-03T10:26:17Z</time></trkpt><trkpt lat="42.21369114812395" lon="13.913350310981176"><ele>341.0</ele><time>2026-05-03T10:26:18Z</time></trkpt><trkpt lat="42.2137900519682" lon="13.913368864521644"><ele>341.0</ele><time>2026-05-03T10:26:19Z</time></trkpt><trkpt lat="42.21389022127274" lon="13.913376905777751"><ele>341.0</ele><time>2026-05-03T10:26:20Z</time></trkpt><trkpt lat="42.21399758652901" lon="13.913372684711774"><ele>341.0</ele><time>2026-05-03T10:26:21Z</time></trkpt><trkpt lat="42.21409781232562" lon="13.913372660810333"><ele>341.33333333333337</ele><time>2026-05-03T10:26:22Z</time></trkpt><trkpt lat="42.21418813711852" lon="13.913362748522168"><ele>341.6666666666667</ele><time>2026-05-03T10:26:23Z</time></trkpt><trkpt lat="42.21427145121294" lon="13.913343563898108"><ele>342.0</ele><time>2026-05-03T10:26:24Z</time></trkpt><trkpt lat="42.21434990579763" lon="13.91331955358921"><ele>342.3333333333333</ele><time>2026-05-03T10:26:25Z</time></trkpt><trkpt lat="42.21443396930401" lon="13.913269436198144"><ele>342.66666666666663</ele><time>2026-05-03T10:26:26Z</time></trkpt><trkpt lat="42.21451795557028" lon="13.91321960735606"><ele>343.0</ele><time>2026-05-03T10:26:27Z</time></trkpt><trkpt lat="42.21460699656495" lon="13.913168477411379"><ele>343.0</ele><time>2026-05-03T10:26:28Z</time></trkpt><trkpt lat="42.21470116322987" lon="13.91314979516079"><ele>343.0</ele><time>2026-05-03T10:26:29Z</time></trkpt><trkpt lat="42.214793402470995" lon="13.913124753501817"><ele>343.0</ele><time>2026-05-03T10:26:30Z</time></trkpt><trkpt lat="42.21488071930107" lon="13.913118100382237"><ele>343.0</ele><time>2026-05-03T10:26:31Z</time></trkpt><trkpt lat="42.21495956445828" lon="13.913157409758599"><ele>343.0</ele><time>2026-05-03T10:26:32Z</time></trkpt><trkpt lat="42.215033241725486" lon="13.913238143069819"><ele>342.0</ele><time>2026-05-03T10:26:33Z</time></trkpt><trkpt lat="42.21513144447278" lon="13.913288649471724"><ele>341.0</ele><time>2026-05-03T10:26:34Z</time></trkpt><trkpt lat="42.215230452716746" lon="13.913358521275708"><ele>340.0</ele><time>2026-05-03T10:26:35Z</time></trkpt><trkpt lat="42.21533848581955" lon="13.913430471952099"><ele>339.0</ele><time>2026-05-03T10:26:36Z</time></trkpt><trkpt lat="42.215446886889644" lon="13.913503034940721"><ele>338.5</ele><time>2026-05-03T10:26:37Z</time></trkpt><trkpt lat="42.21556445202036" lon="13.913591917287977"><ele>338.0</ele><time>2026-05-03T10:26:38Z</time></trkpt><trkpt lat="42.21568067337384" lon="13.913669530165127"><ele>337.5</ele><time>2026-05-03T10:26:39Z</time></trkpt><trkpt lat="42.215797610351125" lon="13.913750952852746"><ele>337.0</ele><time>2026-05-03T10:26:40Z</time></trkpt><trkpt lat="42.21590403859297" lon="13.913823729645388"><ele>336.6</ele><time>2026-05-03T10:26:41Z</time></trkpt><trkpt lat="42.2159939385008" lon="13.913889584864803"><ele>336.20000000000005</ele><time>2026-05-03T10:26:42Z</time></trkpt><trkpt lat="42.216070019493934" lon="13.913951989798555"><ele>335.8</ele><time>2026-05-03T10:26:43Z</time></trkpt><trkpt lat="42.21613290781053" lon="13.91399266880888"><ele>335.4</ele><time>2026-05-03T10:26:44Z</time></trkpt><trkpt lat="42.216190011521505" lon="13.914098391960925"><ele>335.0</ele><time>2026-05-03T10:26:46Z</time></trkpt><trkpt lat="42.216130188137576" lon="13.914239542622983"><ele>334.0</ele><time>2026-05-03T10:26:48Z</time></trkpt><trkpt lat="42.21607613285886" lon="13.91434201388526"><ele>333.0</ele><time>2026-05-03T10:26:49Z</time></trkpt><trkpt lat="42.216004797796245" lon="13.91443268163091"><ele>332.0</ele><time>2026-05-03T10:26:50Z</time></trkpt><trkpt lat="42.21592388508758" lon="13.914498944848887"><ele>331.0</ele><time>2026-05-03T10:26:51Z</time></trkpt><trkpt lat="42.21582512230039" lon="13.914565099314656"><ele>330.0</ele><time>2026-05-03T10:26:52Z</time></trkpt><trkpt lat="42.21573024129614" lon="13.914618994438246"><ele>330.4</ele><time>2026-05-03T10:26:53Z</time></trkpt><trkpt lat="42.21564184336579" lon="13.91467471758127"><ele>330.8</ele><time>2026-05-03T10:26:54Z</time></trkpt><trkpt lat="42.21556715552027" lon="13.914739170007019"><ele>331.20000000000005</ele><time>2026-05-03T10:26:55Z</time></trkpt><trkpt lat="42.21550056397006" lon="13.914802161699978"><ele>331.6</ele><time>2026-05-03T10:26:56Z</time></trkpt><trkpt lat="42.21539739903287" lon="13.91484994349834"><ele>332.0</ele><time>2026-05-03T10:26:57Z</time></trkpt><trkpt lat="42.21532400290222" lon="13.914904446393699"><ele>332.0</ele><time>2026-05-03T10:26:58Z</time></trkpt><trkpt lat="42.21524422246647" lon="13.914936847560718"><ele>332.0</ele><time>2026-05-03T10:26:59Z</time></trkpt><trkpt lat="42.21516302252284" lon="13.914955555858784"><ele>332.0</ele><time>2026-05-03T10:27:00Z</time></trkpt><trkpt lat="42.21509937660736" lon="13.91501189105776"><ele>332.0</ele><time>2026-05-03T10:27:01Z</time></trkpt><trkpt lat="42.215053626837" lon="13.915092136309628"><ele>332.0</ele><time>2026-05-03T10:27:02Z</time></trkpt><trkpt lat="42.2149716538709" lon="13.915174716374697"><ele>332.0</ele><time>2026-05-03T10:27:03Z</time></trkpt><trkpt lat="42.21488868979605" lon="13.915255971678468"><ele>330.6</ele><time>2026-05-03T10:27:04Z</time></trkpt><trkpt lat="42.21479669827174" lon="13.915345013518872"><ele>329.20000000000005</ele><time>2026-05-03T10:27:04.999Z</time></trkpt><trkpt lat="42.21470332324164" lon="13.915421211314175"><ele>327.8</ele><time>2026-05-03T10:27:05.999Z</time></trkpt><trkpt lat="42.21460124446086" lon="13.91547111308716"><ele>326.4</ele><time>2026-05-03T10:27:06.999Z</time></trkpt><trkpt lat="42.21451343725321" lon="13.915549262379482"><ele>325.0</ele><time>2026-05-03T10:27:07.999Z</time></trkpt><trkpt lat="42.21441697001883" lon="13.915628578474388"><ele>325.0</ele><time>2026-05-03T10:27:08.999Z</time></trkpt><trkpt lat="42.21433045315959" lon="13.9157157445445"><ele>325.0</ele><time>2026-05-03T10:27:09.999Z</time></trkpt><trkpt lat="42.214251459357364" lon="13.915817336007876"><ele>325.0</ele><time>2026-05-03T10:27:10.999Z</time></trkpt><trkpt lat="42.21416942189614" lon="13.915920347707305"><ele>325.0</ele><time>2026-05-03T10:27:11.999Z</time></trkpt><trkpt lat="42.21408356184069" lon="13.916025778703556"><ele>325.0</ele><time>2026-05-03T10:27:12.999Z</time></trkpt><trkpt lat="42.21398884891038" lon="13.916133544376555"><ele>323.5</ele><time>2026-05-03T10:27:13.999Z</time></trkpt><trkpt lat="42.213877186689864" lon="13.916208860362648"><ele>322.0</ele><time>2026-05-03T10:27:14.999Z</time></trkpt><trkpt lat="42.21377472913811" lon="13.91628631632337"><ele>320.5</ele><time>2026-05-03T10:27:15.999Z</time></trkpt><trkpt lat="42.213677323861496" lon="13.916367633389525"><ele>319.0</ele><time>2026-05-03T10:27:16.999Z</time></trkpt><trkpt lat="42.21357771680403" lon="13.916436636995051"><ele>319.0</ele><time>2026-05-03T10:27:17.999Z</time></trkpt><trkpt lat="42.213496367506764" lon="13.916534949705898"><ele>319.0</ele><time>2026-05-03T10:27:18.999Z</time></trkpt><trkpt lat="42.21344092239287" lon="13.916659156247565"><ele>319.0</ele><time>2026-05-03T10:27:19.999Z</time></trkpt><trkpt lat="42.21341466309837" lon="13.916803385686814"><ele>319.0</ele><time>2026-05-03T10:27:20.999Z</time></trkpt><trkpt lat="42.21342066760837" lon="13.916962956232252"><ele>319.0</ele><time>2026-05-03T10:27:21.999Z</time></trkpt><trkpt lat="42.21344394936044" lon="13.91713084759444"><ele>319.5</ele><time>2026-05-03T10:27:22.999Z</time></trkpt><trkpt lat="42.213466212809706" lon="13.917285983786186"><ele>320.0</ele><time>2026-05-03T10:27:23.999Z</time></trkpt><trkpt lat="42.213477174187766" lon="13.917443504860103"><ele>320.5</ele><time>2026-05-03T10:27:24.999Z</time></trkpt><trkpt lat="42.21348071873549" lon="13.917605007042782"><ele>321.0</ele><time>2026-05-03T10:27:25.999Z</time></trkpt><trkpt lat="42.21347536095231" lon="13.917757437927081"><ele>321.8</ele><time>2026-05-03T10:27:26.999Z</time></trkpt><trkpt lat="42.21346028688188" lon="13.917879232809938"><ele>322.6</ele><time>2026-05-03T10:27:27.999Z</time></trkpt><trkpt lat="42.213440981555785" lon="13.917987435176162"><ele>323.4</ele><time>2026-05-03T10:27:28.999Z</time></trkpt><trkpt lat="42.213407910107804" lon="13.918101498950955"><ele>324.2</ele><time>2026-05-03T10:27:30.999Z</time></trkpt><trkpt lat="42.21355695770433" lon="13.918183649179191"><ele>325.0</ele><time>2026-05-03T10:27:33.999Z</time></trkpt><trkpt lat="42.213640162026735" lon="13.918206132820982"><ele>325.0</ele><time>2026-05-03T10:27:34.999Z</time></trkpt><trkpt lat="42.21371991660388" lon="13.91826980723094"><ele>325.0</ele><time>2026-05-03T10:27:35.999Z</time></trkpt><trkpt lat="42.21380228839056" lon="13.91836177226093"><ele>325.0</ele><time>2026-05-03T10:27:36.999Z</time></trkpt><trkpt lat="42.213874364273714" lon="13.918476115550083"><ele>325.0</ele><time>2026-05-03T10:27:37.999Z</time></trkpt><trkpt lat="42.21394746589323" lon="13.91859769213692"><ele>325.0</ele><time>2026-05-03T10:27:38.999Z</time></trkpt><trkpt lat="42.2140225581615" lon="13.91872063974814"><ele>324.75</ele><time>2026-05-03T10:27:39.999Z</time></trkpt><trkpt lat="42.21410283677807" lon="13.918832712813787"><ele>324.5</ele><time>2026-05-03T10:27:40.999Z</time></trkpt><trkpt lat="42.21419321035683" lon="13.918933063736011"><ele>324.25</ele><time>2026-05-03T10:27:41.999Z</time></trkpt><trkpt lat="42.21428504922947" lon="13.919027018052187"><ele>324.0</ele><time>2026-05-03T10:27:42.999Z</time></trkpt><trkpt lat="42.21437725462342" lon="13.919118326333999"><ele>324.0</ele><time>2026-05-03T10:27:43.999Z</time></trkpt><trkpt lat="42.21447145202067" lon="13.91920399114934"><ele>324.0</ele><time>2026-05-03T10:27:44.999Z</time></trkpt><trkpt lat="42.214568435636416" lon="13.919282655181046"><ele>324.0</ele><time>2026-05-03T10:27:45.999Z</time></trkpt><trkpt lat="42.2146651187869" lon="13.919362367641158"><ele>324.0</ele><time>2026-05-03T10:27:46.999Z</time></trkpt><trkpt lat="42.21476139656661" lon="13.91944128630163"><ele>323.75</ele><time>2026-05-03T10:27:47.999Z</time></trkpt><trkpt lat="42.21486227854272" lon="13.919522299878725"><ele>323.5</ele><time>2026-05-03T10:27:48.999Z</time></trkpt><trkpt lat="42.2149709938799" lon="13.91960292548277"><ele>323.25</ele><time>2026-05-03T10:27:49.999Z</time></trkpt><trkpt lat="42.215081800464525" lon="13.91969349651023"><ele>323.0</ele><time>2026-05-03T10:27:50.999Z</time></trkpt><trkpt lat="42.21518559350377" lon="13.919791099328497"><ele>323.0</ele><time>2026-05-03T10:27:51.999Z</time></trkpt><trkpt lat="42.21528640216758" lon="13.919889389675676"><ele>323.0</ele><time>2026-05-03T10:27:52.999Z</time></trkpt><trkpt lat="42.21538796768943" lon="13.919988127028144"><ele>323.0</ele><time>2026-05-03T10:27:53.999Z</time></trkpt><trkpt lat="42.21549095585032" lon="13.920088828139738"><ele>323.0</ele><time>2026-05-03T10:27:54.999Z</time></trkpt><trkpt lat="42.21559266128407" lon="13.920185548246177"><ele>322.25</ele><time>2026-05-03T10:27:55.999Z</time></trkpt><trkpt lat="42.21569545624311" lon="13.920291453743998"><ele>321.5</ele><time>2026-05-03T10:27:56.999Z</time></trkpt><trkpt lat="42.21578894902906" lon="13.920397354018371"><ele>320.75</ele><time>2026-05-03T10:27:57.999Z</time></trkpt><trkpt lat="42.21588078077568" lon="13.920502565053448"><ele>320.0</ele><time>2026-05-03T10:27:58.999Z</time></trkpt><trkpt lat="42.215976125785424" lon="13.920600000425601"><ele>320.0</ele><time>2026-05-03T10:27:59.999Z</time></trkpt><trkpt lat="42.216060139211336" lon="13.920720212974308"><ele>320.0</ele><time>2026-05-03T10:28:00.999Z</time></trkpt><trkpt lat="42.216144208105845" lon="13.920831402627545"><ele>320.0</ele><time>2026-05-03T10:28:01.999Z</time></trkpt><trkpt lat="42.2162386358687" lon="13.920931867278755"><ele>320.0</ele><time>2026-05-03T10:28:03Z</time></trkpt><trkpt lat="42.21631500869477" lon="13.921057969414841"><ele>319.75</ele><time>2026-05-03T10:28:04Z</time></trkpt><trkpt lat="42.21639965075582" lon="13.921175423239935"><ele>319.5</ele><time>2026-05-03T10:28:05Z</time></trkpt><trkpt lat="42.21648461633524" lon="13.921300272613372"><ele>319.25</ele><time>2026-05-03T10:28:06Z</time></trkpt><trkpt lat="42.2165719436618" lon="13.921416336441785"><ele>319.0</ele><time>2026-05-03T10:28:07Z</time></trkpt><trkpt lat="42.21665891368413" lon="13.921534274317303"><ele>319.0</ele><time>2026-05-03T10:28:08Z</time></trkpt><trkpt lat="42.21674457362401" lon="13.921631885183562"><ele>319.0</ele><time>2026-05-03T10:28:09Z</time></trkpt><trkpt lat="42.21681800384525" lon="13.921711147969528"><ele>319.0</ele><time>2026-05-03T10:28:10Z</time></trkpt><trkpt lat="42.21689031594076" lon="13.921797946245375"><ele>319.0</ele><time>2026-05-03T10:28:11Z</time></trkpt><trkpt lat="42.21695539872775" lon="13.921892626060957"><ele>319.0</ele><time>2026-05-03T10:28:12Z</time></trkpt><trkpt lat="42.21701305252674" lon="13.921994481008836"><ele>318.59999999999997</ele><time>2026-05-03T10:28:13Z</time></trkpt><trkpt lat="42.21706316405885" lon="13.922106593879706"><ele>318.2</ele><time>2026-05-03T10:28:14Z</time></trkpt><trkpt lat="42.217086183987696" lon="13.922228748150818"><ele>317.79999999999995</ele><time>2026-05-03T10:28:15Z</time></trkpt><trkpt lat="42.217137729066835" lon="13.922347067190637"><ele>317.4</ele><time>2026-05-03T10:28:16Z</time></trkpt><trkpt lat="42.21718125267166" lon="13.922479746621677"><ele>317.0</ele><time>2026-05-03T10:28:17Z</time></trkpt><trkpt lat="42.2172220710789" lon="13.922625718608877"><ele>316.2</ele><time>2026-05-03T10:28:18Z</time></trkpt><trkpt lat="42.21726162207612" lon="13.922766386853805"><ele>315.4</ele><time>2026-05-03T10:28:19Z</time></trkpt><trkpt lat="42.21731492107412" lon="13.922903969956527"><ele>314.6</ele><time>2026-05-03T10:28:20Z</time></trkpt><trkpt lat="42.2173577405198" lon="13.923032048155301"><ele>313.8</ele><time>2026-05-03T10:28:21Z</time></trkpt><trkpt lat="42.21740668301112" lon="13.923148051436902"><ele>313.0</ele><time>2026-05-03T10:28:22Z</time></trkpt><trkpt lat="42.21743288573769" lon="13.923258376833449"><ele>312.66666666666663</ele><time>2026-05-03T10:28:23Z</time></trkpt><trkpt lat="42.21753386890811" lon="13.923306999695823"><ele>312.3333333333333</ele><time>2026-05-03T10:28:24Z</time></trkpt><trkpt lat="42.217610799425316" lon="13.923353982684393"><ele>312.0</ele><time>2026-05-03T10:28:25Z</time></trkpt><trkpt lat="42.21768165335123" lon="13.923405949631276"><ele>311.6666666666667</ele><time>2026-05-03T10:28:26Z</time></trkpt><trkpt lat="42.21775717712289" lon="13.923462073446215"><ele>311.33333333333337</ele><time>2026-05-03T10:28:27Z</time></trkpt><trkpt lat="42.21783325473074" lon="13.923515960327544"><ele>311.0</ele><time>2026-05-03T10:28:28Z</time></trkpt><trkpt lat="42.21790974612928" lon="13.923569774009598"><ele>310.40000000000003</ele><time>2026-05-03T10:28:29Z</time></trkpt><trkpt lat="42.21798622873824" lon="13.923618337407847"><ele>309.8</ele><time>2026-05-03T10:28:30Z</time></trkpt><trkpt lat="42.21807036764908" lon="13.923674218845656"><ele>309.20000000000005</ele><time>2026-05-03T10:28:31Z</time></trkpt><trkpt lat="42.21814191611554" lon="13.923766687713298"><ele>308.6</ele><time>2026-05-03T10:28:32Z</time></trkpt><trkpt lat="42.21823784704846" lon="13.923836556447961"><ele>308.0</ele><time>2026-05-03T10:28:33Z</time></trkpt><trkpt lat="42.218326669156454" lon="13.923927540881918"><ele>308.0</ele><time>2026-05-03T10:28:34Z</time></trkpt><trkpt lat="42.218421990034926" lon="13.92400930366026"><ele>308.0</ele><time>2026-05-03T10:28:35Z</time></trkpt><trkpt lat="42.21851995499051" lon="13.924082922004171"><ele>308.0</ele><time>2026-05-03T10:28:36Z</time></trkpt><trkpt lat="42.218612931420374" lon="13.924152979538269"><ele>308.0</ele><time>2026-05-03T10:28:37Z</time></trkpt><trkpt lat="42.218698646393754" lon="13.924218586081297"><ele>308.0</ele><time>2026-05-03T10:28:38Z</time></trkpt><trkpt lat="42.21878421103057" lon="13.924280419009087"><ele>307.4</ele><time>2026-05-03T10:28:39Z</time></trkpt><trkpt lat="42.218871273349635" lon="13.924323175182405"><ele>306.8</ele><time>2026-05-03T10:28:40Z</time></trkpt><trkpt lat="42.218957527257594" lon="13.924351634991977"><ele>306.2</ele><time>2026-05-03T10:28:41Z</time></trkpt><trkpt lat="42.21903573461359" lon="13.92438948219108"><ele>305.6</ele><time>2026-05-03T10:28:41.999Z</time></trkpt><trkpt lat="42.2191105595026" lon="13.924448194865759"><ele>305.0</ele><time>2026-05-03T10:28:42.999Z</time></trkpt><trkpt lat="42.21920279559588" lon="13.924502816631037"><ele>304.4</ele><time>2026-05-03T10:28:43.999Z</time></trkpt><trkpt lat="42.21928556184113" lon="13.924585738875987"><ele>303.8</ele><time>2026-05-03T10:28:44.999Z</time></trkpt><trkpt lat="42.21935985397318" lon="13.924679118874439"><ele>303.2</ele><time>2026-05-03T10:28:45.999Z</time></trkpt><trkpt lat="42.21942641356834" lon="13.92476904749332"><ele>302.6</ele><time>2026-05-03T10:28:46.999Z</time></trkpt><trkpt lat="42.21950563232434" lon="13.924842108299245"><ele>302.0</ele><time>2026-05-03T10:28:47.999Z</time></trkpt><trkpt lat="42.21956401957092" lon="13.924926666007782"><ele>302.0</ele><time>2026-05-03T10:28:48.999Z</time></trkpt><trkpt lat="42.21962896973058" lon="13.925013981299033"><ele>302.0</ele><time>2026-05-03T10:28:49.999Z</time></trkpt><trkpt lat="42.21973093814844" lon="13.924983129981014"><ele>302.0</ele><time>2026-05-03T10:28:50.999Z</time></trkpt><trkpt lat="42.219806722400094" lon="13.92502729152518"><ele>302.0</ele><time>2026-05-03T10:28:51.999Z</time></trkpt><trkpt lat="42.2198785423774" lon="13.925069142971967"><ele>302.0</ele><time>2026-05-03T10:28:52.999Z</time></trkpt><trkpt lat="42.219925929170195" lon="13.924965840747126"><ele>302.0</ele><time>2026-05-03T10:28:53.999Z</time></trkpt><trkpt lat="42.22001213639532" lon="13.925493228697274"><ele>301.33333333333337</ele><time>2026-05-03T10:28:55.999Z</time></trkpt><trkpt lat="42.22008371582467" lon="13.925549372237722"><ele>300.6666666666667</ele><time>2026-05-03T10:28:56.999Z</time></trkpt><trkpt lat="42.2201684739673" lon="13.92558483365121"><ele>300.0</ele><time>2026-05-03T10:28:57.999Z</time></trkpt><trkpt lat="42.220263304039484" lon="13.925611266775995"><ele>299.3333333333333</ele><time>2026-05-03T10:28:58.999Z</time></trkpt><trkpt lat="42.22034658472199" lon="13.925615259965019"><ele>298.66666666666663</ele><time>2026-05-03T10:28:59.999Z</time></trkpt><trkpt lat="42.22042520607031" lon="13.925624209408342"><ele>298.0</ele><time>2026-05-03T10:29:00.999Z</time></trkpt><trkpt lat="42.22049109651302" lon="13.925631532323626"><ele>298.0</ele><time>2026-05-03T10:29:01.999Z</time></trkpt><trkpt lat="42.22055457376868" lon="13.925632163712189"><ele>298.0</ele><time>2026-05-03T10:29:02.999Z</time></trkpt><trkpt lat="42.22067632441556" lon="13.925596275006392"><ele>298.0</ele><time>2026-05-03T10:29:04.999Z</time></trkpt><trkpt lat="42.220739096181646" lon="13.925553999593918"><ele>298.0</ele><time>2026-05-03T10:29:05.999Z</time></trkpt><trkpt lat="42.22080975275912" lon="13.92552626168842"><ele>298.0</ele><time>2026-05-03T10:29:06.999Z</time></trkpt><trkpt lat="42.22088634983976" lon="13.925509689766729"><ele>298.0</ele><time>2026-05-03T10:29:07.999Z</time></trkpt><trkpt lat="42.22100241657406" lon="13.925508662239723"><ele>297.0</ele><time>2026-05-03T10:29:09.999Z</time></trkpt><trkpt lat="42.221122413020844" lon="13.925523242884488"><ele>296.0</ele><time>2026-05-03T10:29:11.999Z</time></trkpt><trkpt lat="42.2211907870275" lon="13.92552615980424"><ele>295.0</ele><time>2026-05-03T10:29:12.999Z</time></trkpt><trkpt lat="42.221260378826386" lon="13.925533580127562"><ele>294.0</ele><time>2026-05-03T10:29:13.999Z</time></trkpt><trkpt lat="42.221327799761035" lon="13.925539359637995"><ele>293.0</ele><time>2026-05-03T10:29:14.999Z</time></trkpt><trkpt lat="42.22139780749614" lon="13.925536757927082"><ele>292.0</ele><time>2026-05-03T10:29:15.999Z</time></trkpt><trkpt lat="42.22146373250313" lon="13.925536731080781"><ele>290.3333333333333</ele><time>2026-05-03T10:29:16.999Z</time></trkpt><trkpt lat="42.22153307240829" lon="13.925544857505546"><ele>288.66666666666663</ele><time>2026-05-03T10:29:17.999Z</time></trkpt><trkpt lat="42.22159918260735" lon="13.925560869448086"><ele>287.0</ele><time>2026-05-03T10:29:18.999Z</time></trkpt><trkpt lat="42.22166231932514" lon="13.925573347822716"><ele>285.3333333333333</ele><time>2026-05-03T10:29:19.999Z</time></trkpt><trkpt lat="42.22172600691327" lon="13.925583022154132"><ele>283.6666666666667</ele><time>2026-05-03T10:29:20.999Z</time></trkpt><trkpt lat="42.22184728550388" lon="13.925616891628803"><ele>282.0</ele><time>2026-05-03T10:29:22.999Z</time></trkpt><trkpt lat="42.22192237918357" lon="13.925632611089517"><ele>282.0</ele><time>2026-05-03T10:29:23.999Z</time></trkpt><trkpt lat="42.221993588210815" lon="13.925650610663942"><ele>282.0</ele><time>2026-05-03T10:29:24.999Z</time></trkpt><trkpt lat="42.22209856856878" lon="13.925700291978096"><ele>282.0</ele><time>2026-05-03T10:29:26.999Z</time></trkpt><trkpt lat="42.222163288010286" lon="13.925741614214214"><ele>282.0</ele><time>2026-05-03T10:29:28.999Z</time></trkpt><trkpt lat="42.22221930038549" lon="13.925808853167402"><ele>282.0</ele><time>2026-05-03T10:29:30.999Z</time></trkpt><trkpt lat="42.22227735350713" lon="13.925913621777745"><ele>282.0</ele><time>2026-05-03T10:29:32.999Z</time></trkpt><trkpt lat="42.2222855607067" lon="13.926011436126027"><ele>279.6666666666667</ele><time>2026-05-03T10:29:36.999Z</time></trkpt><trkpt lat="42.22225410256957" lon="13.9261081162367"><ele>277.3333333333333</ele><time>2026-05-03T10:29:52.999Z</time></trkpt><trkpt lat="42.222223185099274" lon="13.92619087675018"><ele>275.0</ele><time>2026-05-03T10:29:55.999Z</time></trkpt><trkpt lat="42.22216035287326" lon="13.926267515886254"><ele>272.66666666666663</ele><time>2026-05-03T10:29:59.999Z</time></trkpt><trkpt lat="42.22208395010534" lon="13.926317099157323"><ele>270.3333333333333</ele><time>2026-05-03T10:30:08.999Z</time></trkpt><trkpt lat="42.22199866196823" lon="13.926384165911935"><ele>268.0</ele><time>2026-05-03T10:30:10.999Z</time></trkpt><trkpt lat="42.22192326725482" lon="13.9264363638149"><ele>268.0</ele><time>2026-05-03T10:30:12.999Z</time></trkpt><trkpt lat="42.22185945223315" lon="13.926503990609628"><ele>268.0</ele><time>2026-05-03T10:30:14.999Z</time></trkpt><trkpt lat="42.221808536529636" lon="13.926560429954007"><ele>268.0</ele><time>2026-05-03T10:30:21.999Z</time></trkpt><trkpt lat="42.221765975222525" lon="13.92662376655114"><ele>268.0</ele><time>2026-05-03T10:30:26Z</time></trkpt><trkpt lat="42.22178805457631" lon="13.926703460505987"><ele>268.0</ele><time>2026-05-03T10:30:33Z</time></trkpt><trkpt lat="42.22181286401977" lon="13.926800261879782"><ele>268.0</ele><time>2026-05-03T10:32:37Z</time></trkpt><trkpt lat="42.221878429311126" lon="13.926838580171077"><ele>268.0</ele><time>2026-05-03T10:32:40Z</time></trkpt><trkpt lat="42.22194408451748" lon="13.926863051358493"><ele>266.57142857142856</ele><time>2026-05-03T10:32:42Z</time></trkpt><trkpt lat="42.222010053648226" lon="13.926889469264465"><ele>265.1428571428571</ele><time>2026-05-03T10:32:44Z</time></trkpt><trkpt lat="42.22209799136701" lon="13.92691717038145"><ele>263.71428571428567</ele><time>2026-05-03T10:32:46Z</time></trkpt><trkpt lat="42.22216742984434" lon="13.92693206386128"><ele>262.2857142857143</ele><time>2026-05-03T10:32:48Z</time></trkpt><trkpt lat="42.22224213670922" lon="13.926917913360128"><ele>260.85714285714283</ele><time>2026-05-03T10:32:51Z</time></trkpt><trkpt lat="42.222303683429416" lon="13.926868829651797"><ele>259.4285714285714</ele><time>2026-05-03T10:32:53Z</time></trkpt><trkpt lat="42.22232491040822" lon="13.926782820785975"><ele>258.0</ele><time>2026-05-03T10:32:55Z</time></trkpt><trkpt lat="42.22235660714666" lon="13.926675809119802"><ele>257.8</ele><time>2026-05-03T10:33:10Z</time></trkpt><trkpt lat="42.22244859694231" lon="13.926594722693176"><ele>257.6</ele><time>2026-05-03T10:33:12Z</time></trkpt><trkpt lat="42.222543030776045" lon="13.926516303402453"><ele>257.4</ele><time>2026-05-03T10:33:14Z</time></trkpt><trkpt lat="42.22264473275947" lon="13.926475854974603"><ele>257.2</ele><time>2026-05-03T10:33:16Z</time></trkpt><trkpt lat="42.222698539144815" lon="13.926412790780338"><ele>257.0</ele><time>2026-05-03T10:33:18Z</time></trkpt><trkpt lat="42.22286698548797" lon="13.926368483145739"><ele>257.0</ele><time>2026-05-03T10:33:20Z</time></trkpt><trkpt lat="42.22289509731096" lon="13.92627993663349"><ele>257.0</ele><time>2026-05-03T10:33:22Z</time></trkpt><trkpt lat="42.22292524737519" lon="13.926176311658269"><ele>257.0</ele><time>2026-05-03T10:33:24Z</time></trkpt><trkpt lat="42.22295039749527" lon="13.926083368534254"><ele>257.0</ele><time>2026-05-03T10:33:26Z</time></trkpt><trkpt lat="42.22297928883208" lon="13.925970953628083"><ele>257.0</ele><time>2026-05-03T10:33:28Z</time></trkpt><trkpt lat="42.22288144808867" lon="13.925868052069635"><ele>257.0</ele><time>2026-05-03T10:34:13Z</time></trkpt><trkpt lat="42.22294029718349" lon="13.925910938792116"><ele>257.0</ele><time>2026-05-03T10:34:24Z</time></trkpt><trkpt lat="42.2229706017751" lon="13.925990304340928"><ele>257.0</ele><time>2026-05-03T10:34:27Z</time></trkpt><trkpt lat="42.22295809803105" lon="13.926086282690905"><ele>257.0</ele><time>2026-05-03T10:34:29Z</time></trkpt><trkpt lat="42.22289501133219" lon="13.92615729332019"><ele>257.0</ele><time>2026-05-03T10:34:31Z</time></trkpt><trkpt lat="42.22287115772702" lon="13.926239277363978"><ele>257.0</ele><time>2026-05-03T10:34:33Z</time></trkpt><trkpt lat="42.222840254079415" lon="13.92633936812276"><ele>257.0</ele><time>2026-05-03T10:34:35Z</time></trkpt><trkpt lat="42.22281338106944" lon="13.926418464186066"><ele>257.0</ele><time>2026-05-03T10:34:37Z</time></trkpt><trkpt lat="42.22278486717758" lon="13.926502685613654"><ele>257.0</ele><time>2026-05-03T10:34:39Z</time></trkpt><trkpt lat="42.2227474403193" lon="13.926617539882198"><ele>257.0</ele><time>2026-05-03T10:34:41Z</time></trkpt><trkpt lat="42.222713326449785" lon="13.926732095703294"><ele>257.0</ele><time>2026-05-03T10:34:43Z</time></trkpt><trkpt lat="42.22268329675558" lon="13.926832936230198"><ele>257.0</ele><time>2026-05-03T10:34:45Z</time></trkpt><trkpt lat="42.22264647165732" lon="13.926946730212771"><ele>257.0</ele><time>2026-05-03T10:34:47Z</time></trkpt><trkpt lat="42.222607528314015" lon="13.927056350585529"><ele>257.0</ele><time>2026-05-03T10:34:49Z</time></trkpt><trkpt lat="42.22257205079226" lon="13.927152691742524"><ele>255.33333333333334</ele><time>2026-05-03T10:34:51Z</time></trkpt><trkpt lat="42.22253474130322" lon="13.927252751063035"><ele>253.66666666666669</ele><time>2026-05-03T10:34:55Z</time></trkpt><trkpt lat="42.22248834762048" lon="13.92737883318209"><ele>252.0</ele><time>2026-05-03T10:35:00Z</time></trkpt><trkpt lat="42.22243300393184" lon="13.927540623731494"><ele>250.33333333333331</ele><time>2026-05-03T10:35:02Z</time></trkpt><trkpt lat="42.22240561279773" lon="13.927621874910084"><ele>248.66666666666666</ele><time>2026-05-03T10:35:03Z</time></trkpt><trkpt lat="42.22237947325886" lon="13.92770059573925"><ele>247.0</ele><time>2026-05-03T10:35:04Z</time></trkpt><trkpt lat="42.22233031853615" lon="13.927848628914617"><ele>247.0</ele><time>2026-05-03T10:35:06Z</time></trkpt><trkpt lat="42.22228554649597" lon="13.927990021713573"><ele>247.0</ele><time>2026-05-03T10:35:08Z</time></trkpt><trkpt lat="42.222248734913805" lon="13.928106966462266"><ele>247.0</ele><time>2026-05-03T10:35:10Z</time></trkpt><trkpt lat="42.222214227577275" lon="13.92821876331791"><ele>247.0</ele><time>2026-05-03T10:35:13Z</time></trkpt><trkpt lat="42.222196024030296" lon="13.928324013760063"><ele>247.0</ele><time>2026-05-03T10:35:31Z</time></trkpt><trkpt lat="42.22214616623472" lon="13.928451026181301"><ele>247.0</ele><time>2026-05-03T10:35:33Z</time></trkpt><trkpt lat="42.22211382083509" lon="13.928548257501228"><ele>247.0</ele><time>2026-05-03T10:35:34Z</time></trkpt><trkpt lat="42.22207059482265" lon="13.928654217132259"><ele>247.0</ele><time>2026-05-03T10:35:35Z</time></trkpt><trkpt lat="42.22202030086134" lon="13.928767471325926"><ele>247.0</ele><time>2026-05-03T10:35:36Z</time></trkpt><trkpt lat="42.22195575992929" lon="13.92889393015966"><ele>247.0</ele><time>2026-05-03T10:35:37Z</time></trkpt><trkpt lat="42.22189304908691" lon="13.929037419440583"><ele>247.0</ele><time>2026-05-03T10:35:38Z</time></trkpt><trkpt lat="42.2218247358577" lon="13.929194699395328"><ele>247.0</ele><time>2026-05-03T10:35:39Z</time></trkpt><trkpt lat="42.221755654687804" lon="13.929360180058888"><ele>247.0</ele><time>2026-05-03T10:35:40Z</time></trkpt><trkpt lat="42.22167777012371" lon="13.92954074758015"><ele>247.0</ele><time>2026-05-03T10:35:41Z</time></trkpt><trkpt lat="42.221595281137624" lon="13.929726466072337"><ele>246.33333333333331</ele><time>2026-05-03T10:35:42Z</time></trkpt><trkpt lat="42.221507920680395" lon="13.929916761836012"><ele>245.66666666666669</ele><time>2026-05-03T10:35:43Z</time></trkpt><trkpt lat="42.2214056362987" lon="13.930103583816386"><ele>245.0</ele><time>2026-05-03T10:35:44Z</time></trkpt><trkpt lat="42.22132085081483" lon="13.930293449385372"><ele>249.25</ele><time>2026-05-03T10:35:45Z</time></trkpt><trkpt lat="42.22125290540954" lon="13.93046097788267"><ele>253.5</ele><time>2026-05-03T10:35:46Z</time></trkpt><trkpt lat="42.221137213151884" lon="13.930598470500192"><ele>257.75</ele><time>2026-05-03T10:35:47Z</time></trkpt><trkpt lat="42.22101301845853" lon="13.930712303330903"><ele>262.0</ele><time>2026-05-03T10:35:48Z</time></trkpt><trkpt lat="42.22089402913918" lon="13.930798035668946"><ele>262.0</ele><time>2026-05-03T10:35:49Z</time></trkpt><trkpt lat="42.2207961980641" lon="13.930870364805065"><ele>262.0</ele><time>2026-05-03T10:35:50Z</time></trkpt><trkpt lat="42.220705633275834" lon="13.930899383724524"><ele>262.0</ele><time>2026-05-03T10:35:51Z</time></trkpt><trkpt lat="42.22063414034943" lon="13.930904160669673"><ele>262.0</ele><time>2026-05-03T10:35:52Z</time></trkpt><trkpt lat="42.220537312624714" lon="13.93091397125959"><ele>262.0</ele><time>2026-05-03T10:35:54Z</time></trkpt><trkpt lat="42.2205009250086" lon="13.930986404783916"><ele>262.0</ele><time>2026-05-03T10:35:55Z</time></trkpt><trkpt lat="42.22052351156283" lon="13.931093553085423"><ele>260.75</ele><time>2026-05-03T10:35:56Z</time></trkpt><trkpt lat="42.220576692812244" lon="13.931199720025413"><ele>259.5</ele><time>2026-05-03T10:35:57Z</time></trkpt><trkpt lat="42.22062133466115" lon="13.931336107322009"><ele>258.25</ele><time>2026-05-03T10:35:58Z</time></trkpt><trkpt lat="42.22065760195973" lon="13.93150075316729"><ele>257.0</ele><time>2026-05-03T10:35:59Z</time></trkpt><trkpt lat="42.220692568446516" lon="13.931686371673308"><ele>255.0</ele><time>2026-05-03T10:36:00Z</time></trkpt><trkpt lat="42.22074247359724" lon="13.93186421589113"><ele>253.0</ele><time>2026-05-03T10:36:01Z</time></trkpt><trkpt lat="42.22077918328286" lon="13.932016543822696"><ele>251.0</ele><time>2026-05-03T10:36:02Z</time></trkpt><trkpt lat="42.22081391293389" lon="13.93216978164958"><ele>249.0</ele><time>2026-05-03T10:36:03Z</time></trkpt><trkpt lat="42.220849200646086" lon="13.932307366505313"><ele>249.0</ele><time>2026-05-03T10:36:04Z</time></trkpt><trkpt lat="42.220890522338685" lon="13.93243704228754"><ele>248.99999999999997</ele><time>2026-05-03T10:36:05Z</time></trkpt><trkpt lat="42.22095252335354" lon="13.932565276818417"><ele>248.99999999999997</ele><time>2026-05-03T10:36:06Z</time></trkpt><trkpt lat="42.22102932790986" lon="13.93267035620244"><ele>249.0</ele><time>2026-05-03T10:36:07Z</time></trkpt><trkpt lat="42.22112365147328" lon="13.932762430685504"><ele>249.0</ele><time>2026-05-03T10:36:08Z</time></trkpt><trkpt lat="42.221227457373004" lon="13.932869858336877"><ele>246.75</ele><time>2026-05-03T10:36:09Z</time></trkpt><trkpt lat="42.22131619002188" lon="13.93298692876439"><ele>244.5</ele><time>2026-05-03T10:36:10Z</time></trkpt><trkpt lat="42.221400111560506" lon="13.933107096862887"><ele>242.25</ele><time>2026-05-03T10:36:11Z</time></trkpt><trkpt lat="42.22147916862082" lon="13.933234623170955"><ele>240.0</ele><time>2026-05-03T10:36:12Z</time></trkpt><trkpt lat="42.221556727585615" lon="13.933361783219516"><ele>237.0</ele><time>2026-05-03T10:36:13Z</time></trkpt><trkpt lat="42.22162881989267" lon="13.933484742543659"><ele>234.0</ele><time>2026-05-03T10:36:14Z</time></trkpt><trkpt lat="42.221699894105875" lon="13.93360272560592"><ele>231.0</ele><time>2026-05-03T10:36:15Z</time></trkpt><trkpt lat="42.221782867831365" lon="13.933707702718342"><ele>228.0</ele><time>2026-05-03T10:36:16Z</time></trkpt><trkpt lat="42.221885806523176" lon="13.933778053462971"><ele>228.0</ele><time>2026-05-03T10:36:16.999Z</time></trkpt><trkpt lat="42.22199220928787" lon="13.93380585613411"><ele>228.0</ele><time>2026-05-03T10:36:17.999Z</time></trkpt><trkpt lat="42.222105465391046" lon="13.933806410374377"><ele>228.0</ele><time>2026-05-03T10:36:19Z</time></trkpt><trkpt lat="42.222205663741164" lon="13.933832666616409"><ele>228.0</ele><time>2026-05-03T10:36:20Z</time></trkpt><trkpt lat="42.222278209276105" lon="13.9339088023329"><ele>228.0</ele><time>2026-05-03T10:36:21Z</time></trkpt><trkpt lat="42.2222981075312" lon="13.934040355578208"><ele>228.0</ele><time>2026-05-03T10:36:22Z</time></trkpt><trkpt lat="42.22230292635528" lon="13.934179268015448"><ele>228.0</ele><time>2026-05-03T10:36:23Z</time></trkpt><trkpt lat="42.22232286199545" lon="13.934338215767738"><ele>228.0</ele><time>2026-05-03T10:36:24Z</time></trkpt><trkpt lat="42.222335618222615" lon="13.93451076586152"><ele>228.0</ele><time>2026-05-03T10:36:25Z</time></trkpt><trkpt lat="42.2223569466231" lon="13.934672498089931"><ele>225.2</ele><time>2026-05-03T10:36:26Z</time></trkpt><trkpt lat="42.22237985697158" lon="13.934811893239432"><ele>222.4</ele><time>2026-05-03T10:36:27Z</time></trkpt><trkpt lat="42.222422613047094" lon="13.934926792509405"><ele>219.59999999999997</ele><time>2026-05-03T10:36:28Z</time></trkpt><trkpt lat="42.22249782395878" lon="13.935004110613907"><ele>216.79999999999998</ele><time>2026-05-03T10:36:29Z</time></trkpt><trkpt lat="42.222605314486145" lon="13.935049547550044"><ele>214.0</ele><time>2026-05-03T10:36:30Z</time></trkpt><trkpt lat="42.22272465466005" lon="13.935082754768324"><ele>212.5</ele><time>2026-05-03T10:36:31Z</time></trkpt><trkpt lat="42.22285172321383" lon="13.935124320143965"><ele>211.0</ele><time>2026-05-03T10:36:32Z</time></trkpt><trkpt lat="42.22297414920741" lon="13.935183824510965"><ele>209.5</ele><time>2026-05-03T10:36:33Z</time></trkpt><trkpt lat="42.223080028589564" lon="13.93528399790233"><ele>208.0</ele><time>2026-05-03T10:36:34Z</time></trkpt><trkpt lat="42.22318067087554" lon="13.935390579751536"><ele>207.0</ele><time>2026-05-03T10:36:35Z</time></trkpt><trkpt lat="42.22327635915539" lon="13.935521153830972"><ele>206.0</ele><time>2026-05-03T10:36:36Z</time></trkpt><trkpt lat="42.2233667288292" lon="13.93565388571591"><ele>205.0</ele><time>2026-05-03T10:36:37Z</time></trkpt><trkpt lat="42.22343673000564" lon="13.93578932980383"><ele>204.0</ele><time>2026-05-03T10:36:38Z</time></trkpt><trkpt lat="42.22349802041288" lon="13.935924951041098"><ele>203.6</ele><time>2026-05-03T10:36:39Z</time></trkpt><trkpt lat="42.2235243094666" lon="13.9360592012105"><ele>203.2</ele><time>2026-05-03T10:36:40Z</time></trkpt><trkpt lat="42.22357781139311" lon="13.936167446985422"><ele>202.79999999999998</ele><time>2026-05-03T10:36:41Z</time></trkpt><trkpt lat="42.22362546340281" lon="13.936271730420863"><ele>202.39999999999998</ele><time>2026-05-03T10:36:42Z</time></trkpt><trkpt lat="42.22369102832969" lon="13.93635217186086"><ele>202.0</ele><time>2026-05-03T10:36:43Z</time></trkpt><trkpt lat="42.223779066121196" lon="13.936389310813757"><ele>202.0</ele><time>2026-05-03T10:36:44Z</time></trkpt><trkpt lat="42.223882569455036" lon="13.936394135354384"><ele>202.0</ele><time>2026-05-03T10:36:45Z</time></trkpt><trkpt lat="42.22397567418454" lon="13.936383730146126"><ele>202.0</ele><time>2026-05-03T10:36:46Z</time></trkpt><trkpt lat="42.22405914410452" lon="13.936399118240631"><ele>202.0</ele><time>2026-05-03T10:36:47Z</time></trkpt><trkpt lat="42.224133829670485" lon="13.93650585057615"><ele>202.0</ele><time>2026-05-03T10:36:48Z</time></trkpt><trkpt lat="42.224249342837496" lon="13.936577706494768"><ele>201.0</ele><time>2026-05-03T10:36:49Z</time></trkpt><trkpt lat="42.2243923047986" lon="13.936618314724456"><ele>200.0</ele><time>2026-05-03T10:36:50Z</time></trkpt><trkpt lat="42.22453316666086" lon="13.936659222277628"><ele>199.0</ele><time>2026-05-03T10:36:51Z</time></trkpt><trkpt lat="42.22468405945924" lon="13.936701484455297"><ele>198.0</ele><time>2026-05-03T10:36:52Z</time></trkpt><trkpt lat="42.224838336295576" lon="13.936754772937372"><ele>197.5</ele><time>2026-05-03T10:36:53Z</time></trkpt><trkpt lat="42.224984464440944" lon="13.936807432200483"><ele>197.0</ele><time>2026-05-03T10:36:54Z</time></trkpt><trkpt lat="42.22511381008301" lon="13.93685220214446"><ele>196.5</ele><time>2026-05-03T10:36:55Z</time></trkpt><trkpt lat="42.22523653799552" lon="13.936888316179465"><ele>196.0</ele><time>2026-05-03T10:36:56Z</time></trkpt><trkpt lat="42.225349632924996" lon="13.936928263564631"><ele>195.99999999999997</ele><time>2026-05-03T10:36:57Z</time></trkpt><trkpt lat="42.22544800025657" lon="13.936972891516897"><ele>196.0</ele><time>2026-05-03T10:36:58Z</time></trkpt><trkpt lat="42.225532156764714" lon="13.937015276544226"><ele>196.0</ele><time>2026-05-03T10:36:59Z</time></trkpt><trkpt lat="42.22560370436866" lon="13.937031158030834"><ele>196.0</ele><time>2026-05-03T10:37:00Z</time></trkpt><trkpt lat="42.225652233554676" lon="13.937151909780127"><ele>195.99999999999997</ele><time>2026-05-03T10:37:01Z</time></trkpt><trkpt lat="42.22569236074218" lon="13.93723450909185"><ele>196.0</ele><time>2026-05-03T10:37:02Z</time></trkpt><trkpt lat="42.22572724927002" lon="13.937324322857547"><ele>195.8</ele><time>2026-05-03T10:37:03Z</time></trkpt><trkpt lat="42.2257519601245" lon="13.937426297154367"><ele>195.60000000000002</ele><time>2026-05-03T10:37:04Z</time></trkpt><trkpt lat="42.225802752865086" lon="13.937527739928386"><ele>195.4</ele><time>2026-05-03T10:37:05Z</time></trkpt><trkpt lat="42.22575412897611" lon="13.937714457253797"><ele>195.2</ele><time>2026-05-03T10:37:06Z</time></trkpt><trkpt lat="42.225743607517984" lon="13.937875625101254"><ele>195.0</ele><time>2026-05-03T10:37:07Z</time></trkpt><trkpt lat="42.22573568829379" lon="13.938066121553723"><ele>195.0</ele><time>2026-05-03T10:37:08Z</time></trkpt><trkpt lat="42.22573321289295" lon="13.93827399131503"><ele>195.0</ele><time>2026-05-03T10:37:09Z</time></trkpt><trkpt lat="42.225728773903036" lon="13.938501471081512"><ele>195.0</ele><time>2026-05-03T10:37:10Z</time></trkpt><trkpt lat="42.22572422483942" lon="13.938726984519946"><ele>195.0</ele><time>2026-05-03T10:37:11Z</time></trkpt><trkpt lat="42.22572096630968" lon="13.938964782602104"><ele>195.0</ele><time>2026-05-03T10:37:12Z</time></trkpt><trkpt lat="42.22571044730878" lon="13.939217221234218"><ele>195.0</ele><time>2026-05-03T10:37:13Z</time></trkpt><trkpt lat="42.225700406697584" lon="13.939483465349399"><ele>195.0</ele><time>2026-05-03T10:37:14Z</time></trkpt><trkpt lat="42.225700808823134" lon="13.939727922131658"><ele>195.0</ele><time>2026-05-03T10:37:15Z</time></trkpt><trkpt lat="42.225695130369886" lon="13.939996509680109"><ele>195.0</ele><time>2026-05-03T10:37:16Z</time></trkpt><trkpt lat="42.22569430257973" lon="13.940256197495582"><ele>194.66666666666669</ele><time>2026-05-03T10:37:17Z</time></trkpt><trkpt lat="42.22570853228808" lon="13.940494127384927"><ele>194.33333333333334</ele><time>2026-05-03T10:37:18Z</time></trkpt><trkpt lat="42.22573085618281" lon="13.94075116838116"><ele>194.0</ele><time>2026-05-03T10:37:19Z</time></trkpt><trkpt lat="42.2257754701472" lon="13.94099313458446"><ele>194.66666666666669</ele><time>2026-05-03T10:37:20Z</time></trkpt><trkpt lat="42.2258316676688" lon="13.941230225024949"><ele>195.33333333333331</ele><time>2026-05-03T10:37:21Z</time></trkpt><trkpt lat="42.22589903276746" lon="13.9414665413271"><ele>196.0</ele><time>2026-05-03T10:37:22Z</time></trkpt><trkpt lat="42.22596978400676" lon="13.94170937557529"><ele>195.0</ele><time>2026-05-03T10:37:23Z</time></trkpt><trkpt lat="42.22603838112452" lon="13.941965916715834"><ele>194.0</ele><time>2026-05-03T10:37:24Z</time></trkpt><trkpt lat="42.2261135892454" lon="13.942225534285988"><ele>193.0</ele><time>2026-05-03T10:37:25Z</time></trkpt><trkpt lat="42.22618604811488" lon="13.94248515330518"><ele>193.0</ele><time>2026-05-03T10:37:26Z</time></trkpt><trkpt lat="42.22625955277185" lon="13.942744762250493"><ele>193.0</ele><time>2026-05-03T10:37:27Z</time></trkpt><trkpt lat="42.22633716324149" lon="13.943005071666233"><ele>193.0</ele><time>2026-05-03T10:37:28Z</time></trkpt><trkpt lat="42.226415451057285" lon="13.943268086996424"><ele>194.0</ele><time>2026-05-03T10:37:29Z</time></trkpt><trkpt lat="42.22648939805585" lon="13.943529517369456"><ele>195.0</ele><time>2026-05-03T10:37:30Z</time></trkpt><trkpt lat="42.22656118803399" lon="13.943788937169229"><ele>196.0</ele><time>2026-05-03T10:37:31Z</time></trkpt><trkpt lat="42.226631318409254" lon="13.944048937692315"><ele>196.66666666666666</ele><time>2026-05-03T10:37:32Z</time></trkpt><trkpt lat="42.22669874936851" lon="13.94432046180387"><ele>197.33333333333331</ele><time>2026-05-03T10:37:33Z</time></trkpt><trkpt lat="42.2267920208013" lon="13.94457866851038"><ele>198.0</ele><time>2026-05-03T10:37:34Z</time></trkpt><trkpt lat="42.22688791631908" lon="13.944824242126627"><ele>198.0</ele><time>2026-05-03T10:37:35Z</time></trkpt><trkpt lat="42.226945431534304" lon="13.94512537770371"><ele>198.0</ele><time>2026-05-03T10:37:36Z</time></trkpt><trkpt lat="42.22702648114906" lon="13.945395045753454"><ele>198.0</ele><time>2026-05-03T10:37:37Z</time></trkpt><trkpt lat="42.2271002205331" lon="13.945664775677002"><ele>198.66666666666669</ele><time>2026-05-03T10:37:38Z</time></trkpt><trkpt lat="42.22717433736094" lon="13.945937884242673"><ele>199.33333333333334</ele><time>2026-05-03T10:37:39Z</time></trkpt><trkpt lat="42.227250304185844" lon="13.946204143851052"><ele>200.0</ele><time>2026-05-03T10:37:40Z</time></trkpt><trkpt lat="42.227328747746355" lon="13.946466010482036"><ele>201.33333333333334</ele><time>2026-05-03T10:37:41Z</time></trkpt><trkpt lat="42.22740766993978" lon="13.946728248930768"><ele>202.66666666666669</ele><time>2026-05-03T10:37:42Z</time></trkpt><trkpt lat="42.22748663383732" lon="13.946984574983825"><ele>204.0</ele><time>2026-05-03T10:37:43Z</time></trkpt><trkpt lat="42.227557908241984" lon="13.947242298817256"><ele>204.0</ele><time>2026-05-03T10:37:44Z</time></trkpt><trkpt lat="42.2276318108653" lon="13.94749769618213"><ele>204.0</ele><time>2026-05-03T10:37:45Z</time></trkpt><trkpt lat="42.22770641112976" lon="13.947753232186054"><ele>204.0</ele><time>2026-05-03T10:37:46Z</time></trkpt><trkpt lat="42.2277876622927" lon="13.948000441979842"><ele>205.0</ele><time>2026-05-03T10:37:47Z</time></trkpt><trkpt lat="42.22787276094512" lon="13.948221381740508"><ele>206.0</ele><time>2026-05-03T10:37:48Z</time></trkpt><trkpt lat="42.22798698927907" lon="13.94840365671653"><ele>207.0</ele><time>2026-05-03T10:37:49Z</time></trkpt><trkpt lat="42.22813382388311" lon="13.948540868261441"><ele>208.0</ele><time>2026-05-03T10:37:50Z</time></trkpt><trkpt lat="42.2282906562499" lon="13.948671443098513"><ele>209.0</ele><time>2026-05-03T10:37:51Z</time></trkpt><trkpt lat="42.22845076133609" lon="13.948810222584033"><ele>210.0</ele><time>2026-05-03T10:37:52Z</time></trkpt><trkpt lat="42.22861543546783" lon="13.94894672288963"><ele>210.0</ele><time>2026-05-03T10:37:53Z</time></trkpt><trkpt lat="42.228778280608374" lon="13.949095603787631"><ele>210.0</ele><time>2026-05-03T10:37:54Z</time></trkpt><trkpt lat="42.22894176171631" lon="13.949245845559508"><ele>210.0</ele><time>2026-05-03T10:37:55Z</time></trkpt><trkpt lat="42.22910367149975" lon="13.949400480382582"><ele>213.33333333333331</ele><time>2026-05-03T10:37:56Z</time></trkpt><trkpt lat="42.22926585373704" lon="13.949549013329236"><ele>216.66666666666666</ele><time>2026-05-03T10:37:57Z</time></trkpt><trkpt lat="42.22942700756298" lon="13.949703154149917"><ele>220.0</ele><time>2026-05-03T10:37:58Z</time></trkpt><trkpt lat="42.22958691797358" lon="13.949851584744778"><ele>220.0</ele><time>2026-05-03T10:37:59Z</time></trkpt><trkpt lat="42.22975512158627" lon="13.949983411151925"><ele>220.0</ele><time>2026-05-03T10:38:00Z</time></trkpt><trkpt lat="42.22992671929956" lon="13.950088689396573"><ele>220.0</ele><time>2026-05-03T10:38:01Z</time></trkpt><trkpt lat="42.23011044934437" lon="13.950146692691675"><ele>223.0</ele><time>2026-05-03T10:38:02Z</time></trkpt><trkpt lat="42.23030255518167" lon="13.950168192650988"><ele>226.0</ele><time>2026-05-03T10:38:03Z</time></trkpt><trkpt lat="42.230495904752246" lon="13.950187117089376"><ele>229.0</ele><time>2026-05-03T10:38:03.999Z</time></trkpt><trkpt lat="42.23068902222152" lon="13.950216631084686"><ele>233.0</ele><time>2026-05-03T10:38:04.999Z</time></trkpt><trkpt lat="42.23087688468412" lon="13.950254667783462"><ele>237.0</ele><time>2026-05-03T10:38:06Z</time></trkpt><trkpt lat="42.23106410858542" lon="13.9503001483225"><ele>241.0</ele><time>2026-05-03T10:38:06.999Z</time></trkpt><trkpt lat="42.23125449375961" lon="13.95034990246298"><ele>241.0</ele><time>2026-05-03T10:38:07.999Z</time></trkpt><trkpt lat="42.23143948151405" lon="13.95041193285456"><ele>241.0</ele><time>2026-05-03T10:38:08.999Z</time></trkpt><trkpt lat="42.23162881914637" lon="13.950474036392345"><ele>241.0</ele><time>2026-05-03T10:38:09.999Z</time></trkpt><trkpt lat="42.231825883371485" lon="13.950532020463047"><ele>242.0</ele><time>2026-05-03T10:38:10.999Z</time></trkpt><trkpt lat="42.232026355937585" lon="13.95058637208281"><ele>243.0</ele><time>2026-05-03T10:38:11.999Z</time></trkpt><trkpt lat="42.232222675431636" lon="13.950643837351697"><ele>244.0</ele><time>2026-05-03T10:38:12.999Z</time></trkpt><trkpt lat="42.23241381347424" lon="13.950701196004047"><ele>244.33333333333331</ele><time>2026-05-03T10:38:13.999Z</time></trkpt><trkpt lat="42.23259280918912" lon="13.950749122123785"><ele>244.66666666666669</ele><time>2026-05-03T10:38:14.999Z</time></trkpt><trkpt lat="42.232773304484446" lon="13.950807719937265"><ele>245.0</ele><time>2026-05-03T10:38:15.999Z</time></trkpt><trkpt lat="42.23293482644497" lon="13.950858559034716"><ele>244.0</ele><time>2026-05-03T10:38:16.999Z</time></trkpt><trkpt lat="42.233098232980176" lon="13.950907951537538"><ele>243.0</ele><time>2026-05-03T10:38:17.999Z</time></trkpt><trkpt lat="42.23326796267958" lon="13.95096083316435"><ele>242.0</ele><time>2026-05-03T10:38:18.999Z</time></trkpt><trkpt lat="42.23344303491338" lon="13.951020657892602"><ele>242.0</ele><time>2026-05-03T10:38:19.999Z</time></trkpt><trkpt lat="42.233624036272396" lon="13.951081851209716"><ele>242.0</ele><time>2026-05-03T10:38:20.999Z</time></trkpt><trkpt lat="42.23380452189749" lon="13.951139338429341"><ele>242.0</ele><time>2026-05-03T10:38:21.999Z</time></trkpt><trkpt lat="42.2339919687051" lon="13.951203625986636"><ele>239.0</ele><time>2026-05-03T10:38:22.999Z</time></trkpt><trkpt lat="42.23417840523964" lon="13.951261892104942"><ele>236.0</ele><time>2026-05-03T10:38:23.999Z</time></trkpt><trkpt lat="42.23436521437792" lon="13.951317106702879"><ele>233.0</ele><time>2026-05-03T10:38:24.999Z</time></trkpt><trkpt lat="42.23455117462354" lon="13.951375017218062"><ele>233.0</ele><time>2026-05-03T10:38:25.999Z</time></trkpt><trkpt lat="42.23473375336236" lon="13.951429069385945"><ele>233.0</ele><time>2026-05-03T10:38:26.999Z</time></trkpt><trkpt lat="42.23490865028587" lon="13.951482654939545"><ele>233.0</ele><time>2026-05-03T10:38:27.999Z</time></trkpt><trkpt lat="42.2350781480316" lon="13.95153675806028"><ele>231.0</ele><time>2026-05-03T10:38:28.999Z</time></trkpt><trkpt lat="42.23524862286232" lon="13.951592431333085"><ele>229.0</ele><time>2026-05-03T10:38:29.999Z</time></trkpt><trkpt lat="42.235419869798086" lon="13.95166707642545"><ele>227.0</ele><time>2026-05-03T10:38:30.999Z</time></trkpt><trkpt lat="42.23558345771775" lon="13.951765307494746"><ele>225.66666666666669</ele><time>2026-05-03T10:38:31.999Z</time></trkpt><trkpt lat="42.23573847862229" lon="13.951911684027388"><ele>224.33333333333331</ele><time>2026-05-03T10:38:32.999Z</time></trkpt><trkpt lat="42.23586873143158" lon="13.952076875140369"><ele>223.0</ele><time>2026-05-03T10:38:33.999Z</time></trkpt><trkpt lat="42.23599520501974" lon="13.95226072979822"><ele>223.0</ele><time>2026-05-03T10:38:34.999Z</time></trkpt><trkpt lat="42.23611989260376" lon="13.952441023832543"><ele>223.0</ele><time>2026-05-03T10:38:35.999Z</time></trkpt><trkpt lat="42.236249856219914" lon="13.952589293251533"><ele>223.0</ele><time>2026-05-03T10:38:36.999Z</time></trkpt><trkpt lat="42.23639816304494" lon="13.952717217731339"><ele>224.66666666666666</ele><time>2026-05-03T10:38:37.999Z</time></trkpt><trkpt lat="42.236574057190836" lon="13.95280480600233"><ele>226.33333333333331</ele><time>2026-05-03T10:38:38.999Z</time></trkpt><trkpt lat="42.23676348310274" lon="13.952855480387765"><ele>228.0</ele><time>2026-05-03T10:38:39.999Z</time></trkpt><trkpt lat="42.23695736592497" lon="13.952906740815623"><ele>228.0</ele><time>2026-05-03T10:38:40.999Z</time></trkpt><trkpt lat="42.23715052405096" lon="13.952957526554606"><ele>228.0</ele><time>2026-05-03T10:38:41.999Z</time></trkpt><trkpt lat="42.23733986361176" lon="13.953016191114923"><ele>228.0</ele><time>2026-05-03T10:38:42.999Z</time></trkpt><trkpt lat="42.23753009283819" lon="13.953077191291086"><ele>224.33333333333331</ele><time>2026-05-03T10:38:43.999Z</time></trkpt><trkpt lat="42.237712498843166" lon="13.953140096017869"><ele>220.66666666666666</ele><time>2026-05-03T10:38:44.999Z</time></trkpt><trkpt lat="42.23788594696463" lon="13.953197190871851"><ele>217.0</ele><time>2026-05-03T10:38:45.999Z</time></trkpt><trkpt lat="42.23805635718208" lon="13.953253335467407"><ele>217.33333333333331</ele><time>2026-05-03T10:38:46.999Z</time></trkpt><trkpt lat="42.23821733270627" lon="13.953305855128303"><ele>217.66666666666669</ele><time>2026-05-03T10:38:47.999Z</time></trkpt><trkpt lat="42.23837052719633" lon="13.95334743182532"><ele>218.0</ele><time>2026-05-03T10:38:48.999Z</time></trkpt><trkpt lat="42.238528888395685" lon="13.953377653229833"><ele>218.0</ele><time>2026-05-03T10:38:49.999Z</time></trkpt><trkpt lat="42.2386902982532" lon="13.953367232182199"><ele>218.0</ele><time>2026-05-03T10:38:50.999Z</time></trkpt><trkpt lat="42.238845829337386" lon="13.95331943736887"><ele>218.0</ele><time>2026-05-03T10:38:51.999Z</time></trkpt><trkpt lat="42.23900132982198" lon="13.953223073388008"><ele>217.0</ele><time>2026-05-03T10:38:52.999Z</time></trkpt><trkpt lat="42.23914065583565" lon="13.953090279305401"><ele>216.0</ele><time>2026-05-03T10:38:53.999Z</time></trkpt><trkpt lat="42.23925402722858" lon="13.952921394234497"><ele>215.0</ele><time>2026-05-03T10:38:54.999Z</time></trkpt><trkpt lat="42.23933009157982" lon="13.952731978582548"><ele>213.0</ele><time>2026-05-03T10:38:55.999Z</time></trkpt><trkpt lat="42.23939025620244" lon="13.9525193861881"><ele>211.0</ele><time>2026-05-03T10:38:56.999Z</time></trkpt><trkpt lat="42.239419953188886" lon="13.952293460289864"><ele>209.0</ele><time>2026-05-03T10:38:57.999Z</time></trkpt><trkpt lat="42.239446044846886" lon="13.952066025032192"><ele>209.0</ele><time>2026-05-03T10:38:58.999Z</time></trkpt><trkpt lat="42.239466307725884" lon="13.951840437423858"><ele>209.0</ele><time>2026-05-03T10:38:59.999Z</time></trkpt><trkpt lat="42.239494125817565" lon="13.951621323951985"><ele>209.0</ele><time>2026-05-03T10:39:00.999Z</time></trkpt><trkpt lat="42.23951759886851" lon="13.951425657295946"><ele>207.25</ele><time>2026-05-03T10:39:01.999Z</time></trkpt><trkpt lat="42.239538777172406" lon="13.95124531127167"><ele>205.5</ele><time>2026-05-03T10:39:02.999Z</time></trkpt><trkpt lat="42.23958711738699" lon="13.951084609704358"><ele>203.75</ele><time>2026-05-03T10:39:03.999Z</time></trkpt><trkpt lat="42.23967791549301" lon="13.950949256966945"><ele>202.0</ele><time>2026-05-03T10:39:04.999Z</time></trkpt><trkpt lat="42.23980673428569" lon="13.950849140605829"><ele>200.0</ele><time>2026-05-03T10:39:05.999Z</time></trkpt><trkpt lat="42.239954084419736" lon="13.95077983267921"><ele>198.0</ele><time>2026-05-03T10:39:06.999Z</time></trkpt><trkpt lat="42.2401130389849" lon="13.950740487663905"><ele>196.0</ele><time>2026-05-03T10:39:07.999Z</time></trkpt><trkpt lat="42.240281289394254" lon="13.95072551023747"><ele>196.0</ele><time>2026-05-03T10:39:08.999Z</time></trkpt><trkpt lat="42.240459595330805" lon="13.950732987319581"><ele>196.0</ele><time>2026-05-03T10:39:09.999Z</time></trkpt><trkpt lat="42.240640879232494" lon="13.950763539162976"><ele>196.0</ele><time>2026-05-03T10:39:10.999Z</time></trkpt><trkpt lat="42.24083248769163" lon="13.950811025885788"><ele>197.66666666666666</ele><time>2026-05-03T10:39:11.999Z</time></trkpt><trkpt lat="42.24101893486236" lon="13.950878544685636"><ele>199.33333333333331</ele><time>2026-05-03T10:39:12.999Z</time></trkpt><trkpt lat="42.24121341976215" lon="13.950945618996005"><ele>201.0</ele><time>2026-05-03T10:39:13.999Z</time></trkpt><trkpt lat="42.241404883319255" lon="13.951005202942222"><ele>198.0</ele><time>2026-05-03T10:39:14.999Z</time></trkpt><trkpt lat="42.24159100814923" lon="13.95106423839241"><ele>195.0</ele><time>2026-05-03T10:39:15.999Z</time></trkpt><trkpt lat="42.241776581243315" lon="13.951123815292545"><ele>192.0</ele><time>2026-05-03T10:39:16.999Z</time></trkpt><trkpt lat="42.241954287320745" lon="13.951184032414327"><ele>192.0</ele><time>2026-05-03T10:39:17.999Z</time></trkpt><trkpt lat="42.24212473036215" lon="13.951255272862914"><ele>192.0</ele><time>2026-05-03T10:39:18.999Z</time></trkpt><trkpt lat="42.24230386322839" lon="13.951256402893032"><ele>192.0</ele><time>2026-05-03T10:39:19.999Z</time></trkpt><trkpt lat="42.242472004142456" lon="13.951266334225284"><ele>189.66666666666666</ele><time>2026-05-03T10:39:20.999Z</time></trkpt><trkpt lat="42.24264177665701" lon="13.951249900205374"><ele>187.33333333333331</ele><time>2026-05-03T10:39:21.999Z</time></trkpt><trkpt lat="42.2428158535175" lon="13.95119820209442"><ele>185.0</ele><time>2026-05-03T10:39:22.999Z</time></trkpt><trkpt lat="42.242989962187785" lon="13.95110582273852"><ele>184.33333333333331</ele><time>2026-05-03T10:39:23.999Z</time></trkpt><trkpt lat="42.24316402296141" lon="13.951012254203436"><ele>183.66666666666666</ele><time>2026-05-03T10:39:24.999Z</time></trkpt><trkpt lat="42.24333404895986" lon="13.950927465459097"><ele>183.0</ele><time>2026-05-03T10:39:25.999Z</time></trkpt><trkpt lat="42.24350612491869" lon="13.950845888146254"><ele>179.33333333333334</ele><time>2026-05-03T10:39:26.999Z</time></trkpt><trkpt lat="42.24367275050315" lon="13.950768529784092"><ele>175.66666666666669</ele><time>2026-05-03T10:39:27.999Z</time></trkpt><trkpt lat="42.24383547755283" lon="13.950701466461474"><ele>172.0</ele><time>2026-05-03T10:39:28.999Z</time></trkpt><trkpt lat="42.244005445518425" lon="13.95064480049092"><ele>170.66666666666669</ele><time>2026-05-03T10:39:29.999Z</time></trkpt><trkpt lat="42.24417954020377" lon="13.95061745045902"><ele>169.33333333333334</ele><time>2026-05-03T10:39:30.999Z</time></trkpt><trkpt lat="42.244358672201685" lon="13.950610155567581"><ele>168.0</ele><time>2026-05-03T10:39:31.999Z</time></trkpt><trkpt lat="42.244545916260925" lon="13.950616203425287"><ele>168.0</ele><time>2026-05-03T10:39:32.999Z</time></trkpt><trkpt lat="42.244729538640684" lon="13.950623473815332"><ele>168.0</ele><time>2026-05-03T10:39:33.999Z</time></trkpt><trkpt lat="42.24491192571457" lon="13.950628195589772"><ele>168.0</ele><time>2026-05-03T10:39:34.999Z</time></trkpt><trkpt lat="42.24508753830896" lon="13.950646154883655"><ele>167.66666666666666</ele><time>2026-05-03T10:39:35.999Z</time></trkpt><trkpt lat="42.245259581140004" lon="13.950701114117381"><ele>167.33333333333331</ele><time>2026-05-03T10:39:36.999Z</time></trkpt><trkpt lat="42.24543079482351" lon="13.950790786493544"><ele>167.0</ele><time>2026-05-03T10:39:37.999Z</time></trkpt><trkpt lat="42.24560550706508" lon="13.950894859851612"><ele>162.66666666666666</ele><time>2026-05-03T10:39:38.999Z</time></trkpt><trkpt lat="42.24577314267262" lon="13.950997299242262"><ele>158.33333333333334</ele><time>2026-05-03T10:39:39.999Z</time></trkpt><trkpt lat="42.245923299299484" lon="13.951111523915905"><ele>154.0</ele><time>2026-05-03T10:39:40.999Z</time></trkpt><trkpt lat="42.246053833081994" lon="13.951260720006314"><ele>154.0</ele><time>2026-05-03T10:39:41.999Z</time></trkpt><trkpt lat="42.2461657129348" lon="13.951435032377184"><ele>154.0</ele><time>2026-05-03T10:39:42.999Z</time></trkpt><trkpt lat="42.2462776274717" lon="13.951616248993476"><ele>154.0</ele><time>2026-05-03T10:39:43.999Z</time></trkpt><trkpt lat="42.24638394157217" lon="13.951786638682712"><ele>151.75</ele><time>2026-05-03T10:39:44.999Z</time></trkpt><trkpt lat="42.246485919803895" lon="13.951932415309626"><ele>149.5</ele><time>2026-05-03T10:39:45.999Z</time></trkpt><trkpt lat="42.246591031523906" lon="13.952039249793724"><ele>147.25</ele><time>2026-05-03T10:39:46.999Z</time></trkpt><trkpt lat="42.24671910345506" lon="13.952116726049319"><ele>145.0</ele><time>2026-05-03T10:39:47.999Z</time></trkpt><trkpt lat="42.24687691585118" lon="13.95215224556586"><ele>145.0</ele><time>2026-05-03T10:39:48.999Z</time></trkpt><trkpt lat="42.2470469082602" lon="13.95213742245059"><ele>145.0</ele><time>2026-05-03T10:39:49.999Z</time></trkpt><trkpt lat="42.24721552941931" lon="13.952099685329381"><ele>145.0</ele><time>2026-05-03T10:39:50.999Z</time></trkpt><trkpt lat="42.24738899677529" lon="13.95207604472361"><ele>143.33333333333334</ele><time>2026-05-03T10:39:51.999Z</time></trkpt><trkpt lat="42.24756243648595" lon="13.952050675541798"><ele>141.66666666666666</ele><time>2026-05-03T10:39:52.999Z</time></trkpt><trkpt lat="42.24774397210752" lon="13.952038472642212"><ele>140.0</ele><time>2026-05-03T10:39:53.999Z</time></trkpt><trkpt lat="42.24792392168175" lon="13.952017641355098"><ele>140.0</ele><time>2026-05-03T10:39:54.999Z</time></trkpt><trkpt lat="42.248101822335606" lon="13.951992433331517"><ele>140.0</ele><time>2026-05-03T10:39:55.999Z</time></trkpt><trkpt lat="42.24827700794576" lon="13.951974237851799"><ele>140.0</ele><time>2026-05-03T10:39:56.999Z</time></trkpt><trkpt lat="42.248450498663665" lon="13.951955100409867"><ele>140.33333333333331</ele><time>2026-05-03T10:39:57.999Z</time></trkpt><trkpt lat="42.248622250957084" lon="13.951937269196153"><ele>140.66666666666666</ele><time>2026-05-03T10:39:58.999Z</time></trkpt><trkpt lat="42.248793494407494" lon="13.951913734578623"><ele>141.0</ele><time>2026-05-03T10:39:59.999Z</time></trkpt><trkpt lat="42.248965256350395" lon="13.9519061898705"><ele>141.0</ele><time>2026-05-03T10:40:00.999Z</time></trkpt><trkpt lat="42.24913661608702" lon="13.951894107207641"><ele>141.0</ele><time>2026-05-03T10:40:01.999Z</time></trkpt><trkpt lat="42.24930158881601" lon="13.951879797259645"><ele>141.0</ele><time>2026-05-03T10:40:02.999Z</time></trkpt><trkpt lat="42.2494623007547" lon="13.951862858276394"><ele>141.0</ele><time>2026-05-03T10:40:03.999Z</time></trkpt><trkpt lat="42.249617038732815" lon="13.95184167957893"><ele>141.0</ele><time>2026-05-03T10:40:04.999Z</time></trkpt><trkpt lat="42.24977311706004" lon="13.951823776533878"><ele>141.0</ele><time>2026-05-03T10:40:05.999Z</time></trkpt><trkpt lat="42.249928662920475" lon="13.951809129086008"><ele>140.0</ele><time>2026-05-03T10:40:06.999Z</time></trkpt><trkpt lat="42.25008604854297" lon="13.951796599542359"><ele>139.0</ele><time>2026-05-03T10:40:07.999Z</time></trkpt><trkpt lat="42.25023619852682" lon="13.95177745391623"><ele>138.0</ele><time>2026-05-03T10:40:08.999Z</time></trkpt><trkpt lat="42.25038350627358" lon="13.951756008999892"><ele>138.0</ele><time>2026-05-03T10:40:09.999Z</time></trkpt><trkpt lat="42.25052571702742" lon="13.951746734746946"><ele>138.0</ele><time>2026-05-03T10:40:10.999Z</time></trkpt><trkpt lat="42.2506549507982" lon="13.951732720529192"><ele>138.0</ele><time>2026-05-03T10:40:11.999Z</time></trkpt><trkpt lat="42.25078276622587" lon="13.951721052822707"><ele>138.0</ele><time>2026-05-03T10:40:12.999Z</time></trkpt><trkpt lat="42.25091438680925" lon="13.951707994601106"><ele>138.0</ele><time>2026-05-03T10:40:13.999Z</time></trkpt><trkpt lat="42.25104429977233" lon="13.951693890355292"><ele>138.0</ele><time>2026-05-03T10:40:14.999Z</time></trkpt><trkpt lat="42.251161003331944" lon="13.951685708841815"><ele>138.0</ele><time>2026-05-03T10:40:15.999Z</time></trkpt><trkpt lat="42.2512586149291" lon="13.951685594629113"><ele>138.0</ele><time>2026-05-03T10:40:16.999Z</time></trkpt><trkpt lat="42.25133328331246" lon="13.951694413111447"><ele>138.0</ele><time>2026-05-03T10:40:17.999Z</time></trkpt><trkpt lat="42.25143317892545" lon="13.95171958828265"><ele>136.8</ele><time>2026-05-03T10:40:19.999Z</time></trkpt><trkpt lat="42.25152106708219" lon="13.951740428552275"><ele>135.60000000000002</ele><time>2026-05-03T10:40:21.999Z</time></trkpt><trkpt lat="42.251592605931116" lon="13.951757551706399"><ele>134.39999999999998</ele><time>2026-05-03T10:40:23.999Z</time></trkpt><trkpt lat="42.25165836383254" lon="13.951768243714776"><ele>133.2</ele><time>2026-05-03T10:40:26.999Z</time></trkpt><trkpt lat="42.25176190046474" lon="13.95178074249765"><ele>132.0</ele><time>2026-05-03T10:40:28.999Z</time></trkpt><trkpt lat="42.25188909913399" lon="13.951799234840419"><ele>132.0</ele><time>2026-05-03T10:40:30.999Z</time></trkpt><trkpt lat="42.251956690016556" lon="13.951807391312073"><ele>132.0</ele><time>2026-05-03T10:40:31.999Z</time></trkpt><trkpt lat="42.25202472449339" lon="13.951814004509375"><ele>132.0</ele><time>2026-05-03T10:40:32.999Z</time></trkpt><trkpt lat="42.252091751360524" lon="13.951823816786126"><ele>132.0</ele><time>2026-05-03T10:40:33.999Z</time></trkpt><trkpt lat="42.25215543334127" lon="13.951833773135899"><ele>132.0</ele><time>2026-05-03T10:40:34.999Z</time></trkpt><trkpt lat="42.25222064747323" lon="13.951843791218453"><ele>132.0</ele><time>2026-05-03T10:40:35.999Z</time></trkpt><trkpt lat="42.252338823203715" lon="13.951858460228607"><ele>131.5</ele><time>2026-05-03T10:40:37.999Z</time></trkpt><trkpt lat="42.252408701881244" lon="13.951868801337708"><ele>131.0</ele><time>2026-05-03T10:40:38.999Z</time></trkpt><trkpt lat="42.25248162307582" lon="13.951883575974644"><ele>130.5</ele><time>2026-05-03T10:40:39.999Z</time></trkpt><trkpt lat="42.25256378721729" lon="13.951905341165249"><ele>130.0</ele><time>2026-05-03T10:40:40.999Z</time></trkpt><trkpt lat="42.25265002753542" lon="13.95192331014536"><ele>129.5</ele><time>2026-05-03T10:40:41.999Z</time></trkpt><trkpt lat="42.25273621852964" lon="13.951941141887511"><ele>129.0</ele><time>2026-05-03T10:40:42.999Z</time></trkpt><trkpt lat="42.25282672174457" lon="13.951959392479917"><ele>129.0</ele><time>2026-05-03T10:40:43.999Z</time></trkpt><trkpt lat="42.252920019478005" lon="13.951974589426145"><ele>129.0</ele><time>2026-05-03T10:40:44.999Z</time></trkpt><trkpt lat="42.253011144178686" lon="13.951998362362247"><ele>129.0</ele><time>2026-05-03T10:40:45.999Z</time></trkpt><trkpt lat="42.25310341003618" lon="13.952019133008774"><ele>129.0</ele><time>2026-05-03T10:40:46.999Z</time></trkpt><trkpt lat="42.25318833910653" lon="13.952033288539093"><ele>129.0</ele><time>2026-05-03T10:40:47.999Z</time></trkpt><trkpt lat="42.25327257240122" lon="13.95204976912034"><ele>129.4</ele><time>2026-05-03T10:40:48.999Z</time></trkpt><trkpt lat="42.25335442158131" lon="13.95206960036438"><ele>129.8</ele><time>2026-05-03T10:40:49.999Z</time></trkpt><trkpt lat="42.253436095170365" lon="13.952081070306924"><ele>130.2</ele><time>2026-05-03T10:40:51Z</time></trkpt><trkpt lat="42.25352639603689" lon="13.95207266365835"><ele>130.6</ele><time>2026-05-03T10:40:52Z</time></trkpt><trkpt lat="42.253625078250224" lon="13.952032048325044"><ele>131.0</ele><time>2026-05-03T10:40:53Z</time></trkpt><trkpt lat="42.25372959949207" lon="13.951981999975485"><ele>131.0</ele><time>2026-05-03T10:40:54Z</time></trkpt><trkpt lat="42.2538339053632" lon="13.951932335116966"><ele>131.0</ele><time>2026-05-03T10:40:55Z</time></trkpt><trkpt lat="42.25395352789286" lon="13.951878773138596"><ele>131.0</ele><time>2026-05-03T10:40:56Z</time></trkpt><trkpt lat="42.254071557974804" lon="13.951831792062649"><ele>131.0</ele><time>2026-05-03T10:40:57Z</time></trkpt><trkpt lat="42.25418955457824" lon="13.95179403526566"><ele>132.25</ele><time>2026-05-03T10:40:58Z</time></trkpt><trkpt lat="42.25430811428623" lon="13.951759500165442"><ele>133.5</ele><time>2026-05-03T10:40:59Z</time></trkpt><trkpt lat="42.25442972221651" lon="13.951718541315193"><ele>134.75</ele><time>2026-05-03T10:41:00Z</time></trkpt><trkpt lat="42.25455943769783" lon="13.951683365628428"><ele>136.0</ele><time>2026-05-03T10:41:01Z</time></trkpt><trkpt lat="42.25469655135154" lon="13.951642055643854"><ele>137.25</ele><time>2026-05-03T10:41:02Z</time></trkpt><trkpt lat="42.25483750584706" lon="13.9516013754382"><ele>138.5</ele><time>2026-05-03T10:41:03Z</time></trkpt><trkpt lat="42.254983590500075" lon="13.951563919834074"><ele>139.75</ele><time>2026-05-03T10:41:04Z</time></trkpt><trkpt lat="42.255133977755484" lon="13.951525410905557"><ele>141.0</ele><time>2026-05-03T10:41:05Z</time></trkpt><trkpt lat="42.25528617963027" lon="13.951482876800023"><ele>141.0</ele><time>2026-05-03T10:41:06Z</time></trkpt><trkpt lat="42.255434341685785" lon="13.951437103123142"><ele>141.0</ele><time>2026-05-03T10:41:07Z</time></trkpt><trkpt lat="42.25557877032199" lon="13.951397487068178"><ele>141.0</ele><time>2026-05-03T10:41:08Z</time></trkpt><trkpt lat="42.25571626793759" lon="13.95135897836527"><ele>141.0</ele><time>2026-05-03T10:41:09Z</time></trkpt><trkpt lat="42.255858192336966" lon="13.951317477531743"><ele>141.66666666666666</ele><time>2026-05-03T10:41:10Z</time></trkpt><trkpt lat="42.2560017827713" lon="13.951275388185065"><ele>142.33333333333331</ele><time>2026-05-03T10:41:11Z</time></trkpt><trkpt lat="42.25614983405208" lon="13.951229721098912"><ele>143.0</ele><time>2026-05-03T10:41:12Z</time></trkpt><trkpt lat="42.25629867050027" lon="13.95118698677577"><ele>143.0</ele><time>2026-05-03T10:41:13Z</time></trkpt><trkpt lat="42.25643910849127" lon="13.951153403334565"><ele>143.0</ele><time>2026-05-03T10:41:14Z</time></trkpt><trkpt lat="42.25657635932742" lon="13.951126454947554"><ele>143.0</ele><time>2026-05-03T10:41:15Z</time></trkpt><trkpt lat="42.25671550436192" lon="13.951117485751737"><ele>143.0</ele><time>2026-05-03T10:41:16Z</time></trkpt><trkpt lat="42.25686334555221" lon="13.951124455915135"><ele>143.0</ele><time>2026-05-03T10:41:17Z</time></trkpt><trkpt lat="42.25702114519124" lon="13.951133670502527"><ele>143.0</ele><time>2026-05-03T10:41:18Z</time></trkpt><trkpt lat="42.25717006530531" lon="13.951145868453555"><ele>143.0</ele><time>2026-05-03T10:41:19Z</time></trkpt><trkpt lat="42.25732084583979" lon="13.951152881832185"><ele>143.0</ele><time>2026-05-03T10:41:20Z</time></trkpt><trkpt lat="42.25746936405987" lon="13.951157512098947"><ele>143.0</ele><time>2026-05-03T10:41:21Z</time></trkpt><trkpt lat="42.25761593007614" lon="13.951162571118964"><ele>143.0</ele><time>2026-05-03T10:41:22Z</time></trkpt><trkpt lat="42.25776312253147" lon="13.951167288431629"><ele>143.0</ele><time>2026-05-03T10:41:23Z</time></trkpt><trkpt lat="42.25791281316365" lon="13.951183916207127"><ele>143.0</ele><time>2026-05-03T10:41:24Z</time></trkpt><trkpt lat="42.25806268263836" lon="13.951213506527683"><ele>143.0</ele><time>2026-05-03T10:41:25Z</time></trkpt><trkpt lat="42.258215021781446" lon="13.95124932625463"><ele>143.0</ele><time>2026-05-03T10:41:26Z</time></trkpt><trkpt lat="42.25836759707294" lon="13.951292570168183"><ele>143.66666666666666</ele><time>2026-05-03T10:41:27Z</time></trkpt><trkpt lat="42.25852322329615" lon="13.951346009505691"><ele>144.33333333333334</ele><time>2026-05-03T10:41:28Z</time></trkpt><trkpt lat="42.25867022036101" lon="13.951410390717209"><ele>145.0</ele><time>2026-05-03T10:41:29Z</time></trkpt><trkpt lat="42.25882114557302" lon="13.951482792611733"><ele>146.0</ele><time>2026-05-03T10:41:30Z</time></trkpt><trkpt lat="42.25896852474573" lon="13.951561987122718"><ele>147.0</ele><time>2026-05-03T10:41:31Z</time></trkpt><trkpt lat="42.259107037499355" lon="13.95165586435394"><ele>148.0</ele><time>2026-05-03T10:41:32Z</time></trkpt><trkpt lat="42.25924456295063" lon="13.951760666693966"><ele>148.0</ele><time>2026-05-03T10:41:33Z</time></trkpt><trkpt lat="42.25938113884584" lon="13.951875316035995"><ele>148.0</ele><time>2026-05-03T10:41:34Z</time></trkpt><trkpt lat="42.25951937158058" lon="13.951999570532752"><ele>148.0</ele><time>2026-05-03T10:41:35Z</time></trkpt><trkpt lat="42.25965378757485" lon="13.952132347874151"><ele>148.0</ele><time>2026-05-03T10:41:36Z</time></trkpt><trkpt lat="42.259774112789565" lon="13.952271069614389"><ele>148.0</ele><time>2026-05-03T10:41:37Z</time></trkpt><trkpt lat="42.25989579462732" lon="13.952424751212995"><ele>148.0</ele><time>2026-05-03T10:41:38Z</time></trkpt><trkpt lat="42.26000779081517" lon="13.952584072235455"><ele>147.66666666666669</ele><time>2026-05-03T10:41:39Z</time></trkpt><trkpt lat="42.260109469892846" lon="13.95274888248264"><ele>147.33333333333334</ele><time>2026-05-03T10:41:40Z</time></trkpt><trkpt lat="42.26021264091663" lon="13.952922310841261"><ele>147.0</ele><time>2026-05-03T10:41:41Z</time></trkpt><trkpt lat="42.26031225576572" lon="13.953106225727458"><ele>147.0</ele><time>2026-05-03T10:41:42Z</time></trkpt><trkpt lat="42.260397093944476" lon="13.953288008913251"><ele>147.0</ele><time>2026-05-03T10:41:43Z</time></trkpt><trkpt lat="42.26048530325236" lon="13.953489710423327"><ele>147.0</ele><time>2026-05-03T10:41:44Z</time></trkpt><trkpt lat="42.260558025896245" lon="13.953683314138855"><ele>144.0</ele><time>2026-05-03T10:41:45Z</time></trkpt><trkpt lat="42.26062611686226" lon="13.953899277686025"><ele>141.0</ele><time>2026-05-03T10:41:46Z</time></trkpt><trkpt lat="42.260676831324176" lon="13.95410948249155"><ele>138.0</ele><time>2026-05-03T10:41:47Z</time></trkpt><trkpt lat="42.26072599093722" lon="13.954330524773598"><ele>138.0</ele><time>2026-05-03T10:41:48Z</time></trkpt><trkpt lat="42.260771629615505" lon="13.954554717813473"><ele>138.0</ele><time>2026-05-03T10:41:49Z</time></trkpt><trkpt lat="42.26081959120694" lon="13.95476690337211"><ele>138.0</ele><time>2026-05-03T10:41:50Z</time></trkpt><trkpt lat="42.26086733728832" lon="13.95498991862197"><ele>138.0</ele><time>2026-05-03T10:41:51Z</time></trkpt><trkpt lat="42.26091523557683" lon="13.955219283658082"><ele>138.0</ele><time>2026-05-03T10:41:52Z</time></trkpt><trkpt lat="42.26096121387228" lon="13.955436498271755"><ele>138.0</ele><time>2026-05-03T10:41:53Z</time></trkpt><trkpt lat="42.26100756219092" lon="13.9556455666708"><ele>138.0</ele><time>2026-05-03T10:41:54Z</time></trkpt><trkpt lat="42.261051339861844" lon="13.95585274343111"><ele>138.0</ele><time>2026-05-03T10:41:55Z</time></trkpt><trkpt lat="42.26109375804843" lon="13.956036261079824"><ele>138.0</ele><time>2026-05-03T10:41:56Z</time></trkpt><trkpt lat="42.261129877787795" lon="13.956221180563679"><ele>138.0</ele><time>2026-05-03T10:41:57Z</time></trkpt><trkpt lat="42.2611645839418" lon="13.95638209925616"><ele>138.33333333333334</ele><time>2026-05-03T10:41:58Z</time></trkpt><trkpt lat="42.261203934475304" lon="13.956534889775705"><ele>138.66666666666666</ele><time>2026-05-03T10:41:59Z</time></trkpt><trkpt lat="42.2612305472785" lon="13.956658695505046"><ele>139.0</ele><time>2026-05-03T10:42:00Z</time></trkpt><trkpt lat="42.26126453743891" lon="13.956771079005136"><ele>139.33333333333331</ele><time>2026-05-03T10:42:01Z</time></trkpt><trkpt lat="42.26129629795242" lon="13.956864882555388"><ele>139.66666666666666</ele><time>2026-05-03T10:42:02Z</time></trkpt><trkpt lat="42.261290673530006" lon="13.956954685917404"><ele>140.0</ele><time>2026-05-03T10:42:03Z</time></trkpt><trkpt lat="42.26119711691461" lon="13.957052977291967"><ele>141.2</ele><time>2026-05-03T10:42:05Z</time></trkpt><trkpt lat="42.261117259505596" lon="13.957099893461264"><ele>142.4</ele><time>2026-05-03T10:42:06Z</time></trkpt><trkpt lat="42.26102984778599" lon="13.957150246346735"><ele>143.6</ele><time>2026-05-03T10:42:07Z</time></trkpt><trkpt lat="42.26093419167773" lon="13.957219685724775"><ele>144.8</ele><time>2026-05-03T10:42:08Z</time></trkpt><trkpt lat="42.26083576227202" lon="13.957289872453739"><ele>146.0</ele><time>2026-05-03T10:42:09Z</time></trkpt><trkpt lat="42.26073296285731" lon="13.95735789467792"><ele>146.0</ele><time>2026-05-03T10:42:10Z</time></trkpt><trkpt lat="42.260621350549414" lon="13.95741393593826"><ele>146.0</ele><time>2026-05-03T10:42:11Z</time></trkpt><trkpt lat="42.260506775018385" lon="13.957469977711398"><ele>146.0</ele><time>2026-05-03T10:42:12Z</time></trkpt><trkpt lat="42.260398982232466" lon="13.957529982622209"><ele>146.0</ele><time>2026-05-03T10:42:13Z</time></trkpt><trkpt lat="42.26028184954983" lon="13.957606550507764"><ele>149.5</ele><time>2026-05-03T10:42:14Z</time></trkpt><trkpt lat="42.26015531035955" lon="13.957685443631668"><ele>153.0</ele><time>2026-05-03T10:42:15Z</time></trkpt><trkpt lat="42.26003274198541" lon="13.95776754202363"><ele>156.5</ele><time>2026-05-03T10:42:16Z</time></trkpt><trkpt lat="42.259914763811764" lon="13.957848693874718"><ele>160.0</ele><time>2026-05-03T10:42:17Z</time></trkpt><trkpt lat="42.25979834971561" lon="13.957926182483595"><ele>162.0</ele><time>2026-05-03T10:42:18Z</time></trkpt><trkpt lat="42.25968433684385" lon="13.958013392681863"><ele>164.0</ele><time>2026-05-03T10:42:19Z</time></trkpt><trkpt lat="42.259572930595986" lon="13.95810060091463"><ele>166.0</ele><time>2026-05-03T10:42:20Z</time></trkpt><trkpt lat="42.259460019087484" lon="13.958186997353552"><ele>168.0</ele><time>2026-05-03T10:42:21Z</time></trkpt><trkpt lat="42.259347738874794" lon="13.958269290092773"><ele>168.0</ele><time>2026-05-03T10:42:22Z</time></trkpt><trkpt lat="42.259241365301925" lon="13.958350546489724"><ele>168.0</ele><time>2026-05-03T10:42:23Z</time></trkpt><trkpt lat="42.2591304447509" lon="13.95843234040795"><ele>168.0</ele><time>2026-05-03T10:42:24Z</time></trkpt><trkpt lat="42.25901392235119" lon="13.958509550804962"><ele>168.0</ele><time>2026-05-03T10:42:25Z</time></trkpt><trkpt lat="42.258895053593676" lon="13.958581569696026"><ele>171.75</ele><time>2026-05-03T10:42:26Z</time></trkpt><trkpt lat="42.25876856555675" lon="13.958644053237311"><ele>175.5</ele><time>2026-05-03T10:42:27Z</time></trkpt><trkpt lat="42.25864182379945" lon="13.958723882276773"><ele>179.25</ele><time>2026-05-03T10:42:28Z</time></trkpt><trkpt lat="42.25851438773457" lon="13.958805463095585"><ele>183.0</ele><time>2026-05-03T10:42:29Z</time></trkpt><trkpt lat="42.25838673092" lon="13.958881522412545"><ele>183.0</ele><time>2026-05-03T10:42:30Z</time></trkpt><trkpt lat="42.25825891468266" lon="13.95896184528434"><ele>183.0</ele><time>2026-05-03T10:42:31Z</time></trkpt><trkpt lat="42.25813153070643" lon="13.95903347055086"><ele>183.0</ele><time>2026-05-03T10:42:32Z</time></trkpt><trkpt lat="42.25800275091811" lon="13.959099184462582"><ele>183.0</ele><time>2026-05-03T10:42:33Z</time></trkpt><trkpt lat="42.257877146494785" lon="13.959170723022163"><ele>186.75</ele><time>2026-05-03T10:42:34Z</time></trkpt><trkpt lat="42.25775364615842" lon="13.959246270953193"><ele>190.5</ele><time>2026-05-03T10:42:35Z</time></trkpt><trkpt lat="42.257632416535465" lon="13.959322631675684"><ele>194.25</ele><time>2026-05-03T10:42:36Z</time></trkpt><trkpt lat="42.25751709273117" lon="13.959397481028432"><ele>198.0</ele><time>2026-05-03T10:42:37Z</time></trkpt><trkpt lat="42.2574012189428" lon="13.95946635017823"><ele>198.0</ele><time>2026-05-03T10:42:38Z</time></trkpt><trkpt lat="42.25729894152946" lon="13.95952297023222"><ele>198.0</ele><time>2026-05-03T10:42:39Z</time></trkpt><trkpt lat="42.25719764206262" lon="13.959572817647691"><ele>198.0</ele><time>2026-05-03T10:42:40Z</time></trkpt><trkpt lat="42.25709600283638" lon="13.959618175952855"><ele>198.0</ele><time>2026-05-03T10:42:41Z</time></trkpt><trkpt lat="42.257013158913836" lon="13.959668202248292"><ele>198.0</ele><time>2026-05-03T10:42:42Z</time></trkpt><trkpt lat="42.2569584030733" lon="13.959716402469565"><ele>198.0</ele><time>2026-05-03T10:42:43Z</time></trkpt><trkpt lat="42.25690998297919" lon="13.95985455628906"><ele>198.0</ele><time>2026-05-03T10:42:45Z</time></trkpt><trkpt lat="42.256976195561236" lon="13.959998334843924"><ele>198.0</ele><time>2026-05-03T10:42:47Z</time></trkpt><trkpt lat="42.25702290829575" lon="13.960086201106797"><ele>198.0</ele><time>2026-05-03T10:42:48Z</time></trkpt><trkpt lat="42.25706521611766" lon="13.96018874692808"><ele>198.0</ele><time>2026-05-03T10:42:49Z</time></trkpt><trkpt lat="42.25710677586654" lon="13.960280068607512"><ele>198.16666666666666</ele><time>2026-05-03T10:42:50Z</time></trkpt><trkpt lat="42.257141717838515" lon="13.960367740737377"><ele>198.33333333333331</ele><time>2026-05-03T10:42:51Z</time></trkpt><trkpt lat="42.257172702694604" lon="13.960465172750636"><ele>198.5</ele><time>2026-05-03T10:42:52Z</time></trkpt><trkpt lat="42.25721378251647" lon="13.960577247315728"><ele>198.66666666666666</ele><time>2026-05-03T10:42:53Z</time></trkpt><trkpt lat="42.257257579804474" lon="13.96069289364597"><ele>198.83333333333331</ele><time>2026-05-03T10:42:54Z</time></trkpt><trkpt lat="42.257298620156" lon="13.960821015786003"><ele>199.0</ele><time>2026-05-03T10:42:55Z</time></trkpt><trkpt lat="42.25735230297667" lon="13.960963233055807"><ele>199.25</ele><time>2026-05-03T10:42:56Z</time></trkpt><trkpt lat="42.25741392246354" lon="13.961108280835996"><ele>199.5</ele><time>2026-05-03T10:42:57Z</time></trkpt><trkpt lat="42.25747217608149" lon="13.961269435626786"><ele>199.75</ele><time>2026-05-03T10:42:58Z</time></trkpt><trkpt lat="42.2575337527543" lon="13.9614324916723"><ele>200.0</ele><time>2026-05-03T10:42:59Z</time></trkpt><trkpt lat="42.257598966432255" lon="13.961605578670468"><ele>199.75</ele><time>2026-05-03T10:43:00Z</time></trkpt><trkpt lat="42.25766427059313" lon="13.96177824986109"><ele>199.5</ele><time>2026-05-03T10:43:01Z</time></trkpt><trkpt lat="42.257736727292524" lon="13.961944120511612"><ele>199.25</ele><time>2026-05-03T10:43:02Z</time></trkpt><trkpt lat="42.257817259863884" lon="13.962075942414508"><ele>199.0</ele><time>2026-05-03T10:43:03Z</time></trkpt><trkpt lat="42.25785940606707" lon="13.96225934886662"><ele>199.0</ele><time>2026-05-03T10:43:04Z</time></trkpt><trkpt lat="42.25792796951595" lon="13.962423186823171"><ele>199.0</ele><time>2026-05-03T10:43:05Z</time></trkpt><trkpt lat="42.2579899051587" lon="13.962589786536089"><ele>199.0</ele><time>2026-05-03T10:43:06Z</time></trkpt><trkpt lat="42.258045496123835" lon="13.962746052935046"><ele>199.0</ele><time>2026-05-03T10:43:07Z</time></trkpt><trkpt lat="42.25809721876893" lon="13.962889003245408"><ele>200.25</ele><time>2026-05-03T10:43:08Z</time></trkpt><trkpt lat="42.258155897039316" lon="13.96302828212339"><ele>201.5</ele><time>2026-05-03T10:43:09Z</time></trkpt><trkpt lat="42.258218138403144" lon="13.963174639354422"><ele>202.75</ele><time>2026-05-03T10:43:10Z</time></trkpt><trkpt lat="42.25827236275594" lon="13.963310090827314"><ele>204.0</ele><time>2026-05-03T10:43:11Z</time></trkpt><trkpt lat="42.258317938572176" lon="13.963444031650011"><ele>204.2</ele><time>2026-05-03T10:43:12Z</time></trkpt><trkpt lat="42.25836838010409" lon="13.96357928534224"><ele>204.39999999999998</ele><time>2026-05-03T10:43:13Z</time></trkpt><trkpt lat="42.258435535569895" lon="13.96369664945184"><ele>204.6</ele><time>2026-05-03T10:43:14Z</time></trkpt><trkpt lat="42.2585197952677" lon="13.963807048770205"><ele>204.8</ele><time>2026-05-03T10:43:15Z</time></trkpt><trkpt lat="42.25860005748334" lon="13.963901569727334"><ele>205.0</ele><time>2026-05-03T10:43:16Z</time></trkpt><trkpt lat="42.25866218303076" lon="13.96401042790019"><ele>205.0</ele><time>2026-05-03T10:43:17Z</time></trkpt><trkpt lat="42.258717992664906" lon="13.964139201526097"><ele>205.0</ele><time>2026-05-03T10:43:18Z</time></trkpt><trkpt lat="42.2587731052717" lon="13.964279243464674"><ele>205.0</ele><time>2026-05-03T10:43:19Z</time></trkpt><trkpt lat="42.258835771037496" lon="13.964431894853503"><ele>205.0</ele><time>2026-05-03T10:43:20Z</time></trkpt><trkpt lat="42.25890556784529" lon="13.964589293889123"><ele>205.75</ele><time>2026-05-03T10:43:21Z</time></trkpt><trkpt lat="42.25898696360746" lon="13.964741374025323"><ele>206.5</ele><time>2026-05-03T10:43:22Z</time></trkpt><trkpt lat="42.25906444112958" lon="13.964899253666893"><ele>207.25</ele><time>2026-05-03T10:43:23Z</time></trkpt><trkpt lat="42.25913708585439" lon="13.965054441997335"><ele>208.0</ele><time>2026-05-03T10:43:24Z</time></trkpt><trkpt lat="42.25920297191527" lon="13.965198036364715"><ele>208.0</ele><time>2026-05-03T10:43:25Z</time></trkpt><trkpt lat="42.259273139833454" lon="13.965335688592946"><ele>208.0</ele><time>2026-05-03T10:43:26Z</time></trkpt><trkpt lat="42.259342742573104" lon="13.965472891707092"><ele>208.0</ele><time>2026-05-03T10:43:27Z</time></trkpt><trkpt lat="42.25940115373662" lon="13.965601336969943"><ele>208.0</ele><time>2026-05-03T10:43:28Z</time></trkpt><trkpt lat="42.259459424086096" lon="13.965716350511896"><ele>207.99999999999997</ele><time>2026-05-03T10:43:29Z</time></trkpt><trkpt lat="42.25951082343334" lon="13.965826735276247"><ele>208.0</ele><time>2026-05-03T10:43:30Z</time></trkpt><trkpt lat="42.25954371637876" lon="13.965912792365478"><ele>208.0</ele><time>2026-05-03T10:43:31Z</time></trkpt><trkpt lat="42.25954148941873" lon="13.966009999221184"><ele>208.0</ele><time>2026-05-03T10:44:32Z</time></trkpt><trkpt lat="42.25952836775293" lon="13.966109336951334"><ele>207.99999999999997</ele><time>2026-05-03T10:44:36Z</time></trkpt><trkpt lat="42.259554287869186" lon="13.96620513053154"><ele>208.0</ele><time>2026-05-03T10:46:40.001Z</time></trkpt><trkpt lat="42.2595669015111" lon="13.966312578415796"><ele>208.33333333333331</ele><time>2026-05-03T10:46:47.001Z</time></trkpt><trkpt lat="42.259566585223894" lon="13.966401550990781"><ele>208.66666666666666</ele><time>2026-05-03T10:46:49.001Z</time></trkpt><trkpt lat="42.259577156924095" lon="13.966536113072081"><ele>209.0</ele><time>2026-05-03T10:46:51.001Z</time></trkpt><trkpt lat="42.25960124440167" lon="13.966640305492477"><ele>209.33333333333331</ele><time>2026-05-03T10:46:53.001Z</time></trkpt><trkpt lat="42.25958866948572" lon="13.9667374968592"><ele>209.66666666666666</ele><time>2026-05-03T10:46:55.001Z</time></trkpt><trkpt lat="42.25956093135328" lon="13.966872710095458"><ele>210.0</ele><time>2026-05-03T10:46:57.001Z</time></trkpt><trkpt lat="42.25957342564651" lon="13.966963961347973"><ele>210.8</ele><time>2026-05-03T10:46:59.001Z</time></trkpt><trkpt lat="42.25961967356962" lon="13.967071443507336"><ele>211.6</ele><time>2026-05-03T10:47:01.001Z</time></trkpt><trkpt lat="42.259669161009846" lon="13.967185842695887"><ele>212.39999999999998</ele><time>2026-05-03T10:47:03.001Z</time></trkpt><trkpt lat="42.259716103063774" lon="13.967324230414087"><ele>213.2</ele><time>2026-05-03T10:47:05.001Z</time></trkpt><trkpt lat="42.25976349985989" lon="13.967473922928535"><ele>214.0</ele><time>2026-05-03T10:47:07.001Z</time></trkpt><trkpt lat="42.259789357145394" lon="13.967553216603477"><ele>210.83333333333331</ele><time>2026-05-03T10:47:08.001Z</time></trkpt><trkpt lat="42.259817081234665" lon="13.967637789985371"><ele>207.66666666666666</ele><time>2026-05-03T10:47:09.001Z</time></trkpt><trkpt lat="42.25983633094506" lon="13.967719399328479"><ele>204.5</ele><time>2026-05-03T10:47:10.001Z</time></trkpt><trkpt lat="42.25985310195743" lon="13.967803093847218"><ele>201.33333333333331</ele><time>2026-05-03T10:47:11.001Z</time></trkpt><trkpt lat="42.2598904925758" lon="13.967935810882953"><ele>198.16666666666666</ele><time>2026-05-03T10:47:13.001Z</time></trkpt><trkpt lat="42.25995824307692" lon="13.96806256447552"><ele>195.0</ele><time>2026-05-03T10:47:15.001Z</time></trkpt><trkpt lat="42.26000295381929" lon="13.968134610867736"><ele>195.0</ele><time>2026-05-03T10:47:16.001Z</time></trkpt><trkpt lat="42.26004172006181" lon="13.96822779532205"><ele>195.0</ele><time>2026-05-03T10:47:17.001Z</time></trkpt><trkpt lat="42.2600821571672" lon="13.96833860807644"><ele>195.0</ele><time>2026-05-03T10:47:18.001Z</time></trkpt><trkpt lat="42.26012635219962" lon="13.96846290475943"><ele>195.0</ele><time>2026-05-03T10:47:19.001Z</time></trkpt><trkpt lat="42.26016992625181" lon="13.96856855187272"><ele>195.0</ele><time>2026-05-03T10:47:20.001Z</time></trkpt><trkpt lat="42.260219106539026" lon="13.968686522769863"><ele>194.8</ele><time>2026-05-03T10:47:21.001Z</time></trkpt><trkpt lat="42.26027229177126" lon="13.968805827129755"><ele>194.6</ele><time>2026-05-03T10:47:22.001Z</time></trkpt><trkpt lat="42.260321867037305" lon="13.968926953694403"><ele>194.39999999999998</ele><time>2026-05-03T10:47:23.001Z</time></trkpt><trkpt lat="42.260373474379044" lon="13.969065714075343"><ele>194.2</ele><time>2026-05-03T10:47:24.001Z</time></trkpt><trkpt lat="42.260418045534685" lon="13.969185218439755"><ele>194.0</ele><time>2026-05-03T10:47:25.001Z</time></trkpt><trkpt lat="42.26045730626709" lon="13.969302162051624"><ele>194.6</ele><time>2026-05-03T10:47:26.001Z</time></trkpt><trkpt lat="42.26049362801958" lon="13.969413949415866"><ele>195.2</ele><time>2026-05-03T10:47:27.001Z</time></trkpt><trkpt lat="42.26053513610833" lon="13.969527087313491"><ele>195.79999999999998</ele><time>2026-05-03T10:47:28.001Z</time></trkpt><trkpt lat="42.26058525299598" lon="13.969657255400769"><ele>196.39999999999998</ele><time>2026-05-03T10:47:29.001Z</time></trkpt><trkpt lat="42.26063860934891" lon="13.96979034657244"><ele>197.0</ele><time>2026-05-03T10:47:30.001Z</time></trkpt><trkpt lat="42.26068835915871" lon="13.969921704251176"><ele>196.8</ele><time>2026-05-03T10:47:31.001Z</time></trkpt><trkpt lat="42.260733523401406" lon="13.970048587846058"><ele>196.6</ele><time>2026-05-03T10:47:32.001Z</time></trkpt><trkpt lat="42.260776986967265" lon="13.970167133787898"><ele>196.4</ele><time>2026-05-03T10:47:33.001Z</time></trkpt><trkpt lat="42.2608257079462" lon="13.970290293829741"><ele>196.20000000000002</ele><time>2026-05-03T10:47:34.001Z</time></trkpt><trkpt lat="42.26087447707304" lon="13.970416920457668"><ele>196.0</ele><time>2026-05-03T10:47:35.001Z</time></trkpt><trkpt lat="42.260913710523795" lon="13.970513900867312"><ele>195.99999999999997</ele><time>2026-05-03T10:47:36.001Z</time></trkpt><trkpt lat="42.260951031591375" lon="13.970619645775885"><ele>196.0</ele><time>2026-05-03T10:47:37.001Z</time></trkpt><trkpt lat="42.260985364189324" lon="13.970721602593168"><ele>196.0</ele><time>2026-05-03T10:47:38.001Z</time></trkpt><trkpt lat="42.26102424814061" lon="13.970835569077796"><ele>196.0</ele><time>2026-05-03T10:47:39.001Z</time></trkpt><trkpt lat="42.261065365707125" lon="13.970926942719876"><ele>195.99999999999997</ele><time>2026-05-03T10:47:40.001Z</time></trkpt><trkpt lat="42.26110420094688" lon="13.971037023787144"><ele>196.0</ele><time>2026-05-03T10:47:41.001Z</time></trkpt><trkpt lat="42.26114715181122" lon="13.97114714409708"><ele>196.83333333333331</ele><time>2026-05-03T10:47:42.001Z</time></trkpt><trkpt lat="42.26117696442254" lon="13.971242815181121"><ele>197.66666666666666</ele><time>2026-05-03T10:47:43.001Z</time></trkpt><trkpt lat="42.26119309673253" lon="13.971340603893877"><ele>198.5</ele><time>2026-05-03T10:47:44.001Z</time></trkpt><trkpt lat="42.26120367153251" lon="13.97143208203472"><ele>199.33333333333331</ele><time>2026-05-03T10:47:45.001Z</time></trkpt><trkpt lat="42.26127244190801" lon="13.97157946775645"><ele>200.16666666666666</ele><time>2026-05-03T10:47:47.001Z</time></trkpt><trkpt lat="42.26133492448435" lon="13.971683343517347"><ele>201.0</ele><time>2026-05-03T10:47:48.001Z</time></trkpt><trkpt lat="42.2613853043848" lon="13.971787450299855"><ele>201.42857142857142</ele><time>2026-05-03T10:47:49.001Z</time></trkpt><trkpt lat="42.261420758388944" lon="13.971878181654008"><ele>201.85714285714286</ele><time>2026-05-03T10:47:50.001Z</time></trkpt><trkpt lat="42.261450819220904" lon="13.971972003506796"><ele>202.28571428571428</ele><time>2026-05-03T10:47:51.001Z</time></trkpt><trkpt lat="42.261471613781964" lon="13.972054797061901"><ele>202.71428571428572</ele><time>2026-05-03T10:47:52.001Z</time></trkpt><trkpt lat="42.261494732361875" lon="13.972138130970155"><ele>203.14285714285717</ele><time>2026-05-03T10:47:53.001Z</time></trkpt><trkpt lat="42.261525855239135" lon="13.972236393970446"><ele>203.57142857142858</ele><time>2026-05-03T10:47:54.001Z</time></trkpt><trkpt lat="42.261562131106515" lon="13.972343149233085"><ele>204.0</ele><time>2026-05-03T10:47:55.001Z</time></trkpt><trkpt lat="42.26159742977931" lon="13.972440593412164"><ele>202.16666666666666</ele><time>2026-05-03T10:47:56.001Z</time></trkpt><trkpt lat="42.26163770052404" lon="13.972531888185138"><ele>200.33333333333331</ele><time>2026-05-03T10:47:57.001Z</time></trkpt><trkpt lat="42.26168176224465" lon="13.972620476011604"><ele>198.5</ele><time>2026-05-03T10:47:58.001Z</time></trkpt><trkpt lat="42.26173021509611" lon="13.972712234143868"><ele>196.66666666666666</ele><time>2026-05-03T10:47:59.001Z</time></trkpt><trkpt lat="42.26177586021774" lon="13.972798244789798"><ele>194.83333333333331</ele><time>2026-05-03T10:48:00.001Z</time></trkpt><trkpt lat="42.26181102312239" lon="13.972874857785593"><ele>193.0</ele><time>2026-05-03T10:48:01.001Z</time></trkpt><trkpt lat="42.26185525374093" lon="13.973035450732501"><ele>192.99999999999997</ele><time>2026-05-03T10:48:03.001Z</time></trkpt><trkpt lat="42.2618823396576" lon="13.973124875426743"><ele>193.0</ele><time>2026-05-03T10:48:04.001Z</time></trkpt><trkpt lat="42.2619121941944" lon="13.97320510100376"><ele>193.0</ele><time>2026-05-03T10:48:05.001Z</time></trkpt><trkpt lat="42.26194298279092" lon="13.973282344243387"><ele>193.0</ele><time>2026-05-03T10:48:06.001Z</time></trkpt><trkpt lat="42.26199775327857" lon="13.973421884598483"><ele>192.99999999999997</ele><time>2026-05-03T10:48:08.001Z</time></trkpt><trkpt lat="42.262011768616496" lon="13.973507161520939"><ele>193.0</ele><time>2026-05-03T10:48:09.001Z</time></trkpt><trkpt lat="42.26203592215979" lon="13.9736759402704"><ele>192.66666666666666</ele><time>2026-05-03T10:48:11.001Z</time></trkpt><trkpt lat="42.262080025798205" lon="13.973757565361037"><ele>192.33333333333331</ele><time>2026-05-03T10:48:12.001Z</time></trkpt><trkpt lat="42.26213176527055" lon="13.97385095770767"><ele>192.0</ele><time>2026-05-03T10:48:13.001Z</time></trkpt><trkpt lat="42.262168301274194" lon="13.973940823320115"><ele>191.66666666666666</ele><time>2026-05-03T10:48:14.001Z</time></trkpt><trkpt lat="42.262206993671306" lon="13.974029197088935"><ele>191.33333333333331</ele><time>2026-05-03T10:48:15.001Z</time></trkpt><trkpt lat="42.262246055754524" lon="13.974143889149792"><ele>191.0</ele><time>2026-05-03T10:48:16.001Z</time></trkpt><trkpt lat="42.26229057469205" lon="13.974265072401037"><ele>191.0</ele><time>2026-05-03T10:48:17.001Z</time></trkpt><trkpt lat="42.2623276695741" lon="13.974360930244073"><ele>191.0</ele><time>2026-05-03T10:48:18.001Z</time></trkpt><trkpt lat="42.2623640722227" lon="13.97446221043144"><ele>191.0</ele><time>2026-05-03T10:48:19.001Z</time></trkpt><trkpt lat="42.26239062073485" lon="13.974587059743081"><ele>191.0</ele><time>2026-05-03T10:48:20.001Z</time></trkpt><trkpt lat="42.262413813541755" lon="13.974723809954908"><ele>191.0</ele><time>2026-05-03T10:48:21.001Z</time></trkpt><trkpt lat="42.26243203621653" lon="13.97485716123"><ele>191.0</ele><time>2026-05-03T10:48:22.001Z</time></trkpt><trkpt lat="42.26245987236367" lon="13.975004271078982"><ele>191.0</ele><time>2026-05-03T10:48:23.001Z</time></trkpt><trkpt lat="42.2624874158463" lon="13.97515742740398"><ele>191.0</ele><time>2026-05-03T10:48:24.001Z</time></trkpt><trkpt lat="42.26251346537529" lon="13.975305436299"><ele>191.0</ele><time>2026-05-03T10:48:25.001Z</time></trkpt><trkpt lat="42.2625396299624" lon="13.975443125584007"><ele>191.0</ele><time>2026-05-03T10:48:26.001Z</time></trkpt><trkpt lat="42.26256813431569" lon="13.975558116899014"><ele>192.66666666666666</ele><time>2026-05-03T10:48:27.001Z</time></trkpt><trkpt lat="42.26259063011357" lon="13.975658924421305"><ele>194.33333333333331</ele><time>2026-05-03T10:48:28.001Z</time></trkpt><trkpt lat="42.26261101148069" lon="13.97575449861286"><ele>196.0</ele><time>2026-05-03T10:48:29.001Z</time></trkpt><trkpt lat="42.26262505243914" lon="13.975838235656136"><ele>197.66666666666666</ele><time>2026-05-03T10:48:30.001Z</time></trkpt><trkpt lat="42.26258468578125" lon="13.975979310086847"><ele>199.33333333333334</ele><time>2026-05-03T10:48:32.001Z</time></trkpt><trkpt lat="42.26250041594459" lon="13.976088033078147"><ele>201.0</ele><time>2026-05-03T10:48:34.001Z</time></trkpt><trkpt lat="42.262438028551664" lon="13.976196791813894"><ele>202.60000000000002</ele><time>2026-05-03T10:48:36.001Z</time></trkpt><trkpt lat="42.26244982467173" lon="13.976306969809785"><ele>204.2</ele><time>2026-05-03T10:48:38.001Z</time></trkpt><trkpt lat="42.262463520901385" lon="13.976472050660012"><ele>205.8</ele><time>2026-05-03T10:48:40.001Z</time></trkpt><trkpt lat="42.26248724254782" lon="13.976577255285562"><ele>207.39999999999998</ele><time>2026-05-03T10:48:41.001Z</time></trkpt><trkpt lat="42.26252009984102" lon="13.97668633733144"><ele>209.0</ele><time>2026-05-03T10:48:42.001Z</time></trkpt><trkpt lat="42.262555550487306" lon="13.976798211403073"><ele>210.39999999999998</ele><time>2026-05-03T10:48:43.001Z</time></trkpt><trkpt lat="42.262594931338725" lon="13.9769170675927"><ele>211.8</ele><time>2026-05-03T10:48:44.001Z</time></trkpt><trkpt lat="42.26263124544339" lon="13.977037988654999"><ele>213.20000000000002</ele><time>2026-05-03T10:48:45.001Z</time></trkpt><trkpt lat="42.262662917007155" lon="13.977168447130936"><ele>214.60000000000002</ele><time>2026-05-03T10:48:46.001Z</time></trkpt><trkpt lat="42.26269399577787" lon="13.977299432521264"><ele>216.0</ele><time>2026-05-03T10:48:47.001Z</time></trkpt><trkpt lat="42.262729450925235" lon="13.977434213303626"><ele>217.60000000000002</ele><time>2026-05-03T10:48:48.001Z</time></trkpt><trkpt lat="42.26276515861034" lon="13.977569380319114"><ele>219.20000000000002</ele><time>2026-05-03T10:48:49.001Z</time></trkpt><trkpt lat="42.262800663594206" lon="13.977703161406943"><ele>220.79999999999998</ele><time>2026-05-03T10:48:50.001Z</time></trkpt><trkpt lat="42.26282802167235" lon="13.977848795315722"><ele>222.39999999999998</ele><time>2026-05-03T10:48:51.001Z</time></trkpt><trkpt lat="42.262858289616595" lon="13.978000364019186"><ele>224.0</ele><time>2026-05-03T10:48:52.001Z</time></trkpt><trkpt lat="42.26288498440964" lon="13.978157888361904"><ele>224.0</ele><time>2026-05-03T10:48:53.001Z</time></trkpt><trkpt lat="42.26291071934462" lon="13.978320674440871"><ele>224.0</ele><time>2026-05-03T10:48:54.001Z</time></trkpt><trkpt lat="42.26293431941168" lon="13.97848506884261"><ele>224.0</ele><time>2026-05-03T10:48:55Z</time></trkpt><trkpt lat="42.26296246481129" lon="13.978687616749596"><ele>224.0</ele><time>2026-05-03T10:48:56Z</time></trkpt><trkpt lat="42.26298658075558" lon="13.97889506138992"><ele>225.5</ele><time>2026-05-03T10:48:57Z</time></trkpt><trkpt lat="42.2630017713735" lon="13.979097551960272"><ele>227.0</ele><time>2026-05-03T10:48:58Z</time></trkpt><trkpt lat="42.26300972004214" lon="13.97929308874007"><ele>228.5</ele><time>2026-05-03T10:48:59Z</time></trkpt><trkpt lat="42.263006533902434" lon="13.979457492227237"><ele>230.0</ele><time>2026-05-03T10:49:00Z</time></trkpt><trkpt lat="42.26296563685825" lon="13.979596785903361"><ele>230.25</ele><time>2026-05-03T10:49:01Z</time></trkpt><trkpt lat="42.26289420233771" lon="13.979729140064082"><ele>230.5</ele><time>2026-05-03T10:49:02Z</time></trkpt><trkpt lat="42.26280738469241" lon="13.979859409749578"><ele>230.75</ele><time>2026-05-03T10:49:03Z</time></trkpt><trkpt lat="42.26270394978805" lon="13.979979193675192"><ele>231.0</ele><time>2026-05-03T10:49:04Z</time></trkpt><trkpt lat="42.262594837359494" lon="13.98006779538153"><ele>231.0</ele><time>2026-05-03T10:49:05Z</time></trkpt><trkpt lat="42.262497000502854" lon="13.980112084605967"><ele>231.0</ele><time>2026-05-03T10:49:06Z</time></trkpt><trkpt lat="42.26240432902087" lon="13.98010944925883"><ele>231.0</ele><time>2026-05-03T10:49:07Z</time></trkpt><trkpt lat="42.26233034005447" lon="13.98007030535822"><ele>231.0</ele><time>2026-05-03T10:49:08Z</time></trkpt><trkpt lat="42.26226644213751" lon="13.980033321581764"><ele>231.0</ele><time>2026-05-03T10:49:09Z</time></trkpt><trkpt lat="42.26218697867287" lon="13.98002602068054"><ele>231.0</ele><time>2026-05-03T10:49:11Z</time></trkpt><trkpt lat="42.262246266198545" lon="13.980073429508035"><ele>231.0</ele><time>2026-05-03T10:49:40Z</time></trkpt><trkpt lat="42.26232901371915" lon="13.980057902980212"><ele>231.0</ele><time>2026-05-03T10:49:42Z</time></trkpt><trkpt lat="42.26239909470068" lon="13.980090275961032"><ele>231.0</ele><time>2026-05-03T10:49:43Z</time></trkpt><trkpt lat="42.26247896929472" lon="13.980104772368238"><ele>231.0</ele><time>2026-05-03T10:49:44Z</time></trkpt><trkpt lat="42.26256540443553" lon="13.980086284558187"><ele>231.0</ele><time>2026-05-03T10:49:45Z</time></trkpt><trkpt lat="42.262655390602326" lon="13.980035346085097"><ele>231.0</ele><time>2026-05-03T10:49:46Z</time></trkpt><trkpt lat="42.262736698330656" lon="13.97995995726276"><ele>231.0</ele><time>2026-05-03T10:49:47Z</time></trkpt><trkpt lat="42.26279954881132" lon="13.979875455094545"><ele>231.0</ele><time>2026-05-03T10:49:48Z</time></trkpt><trkpt lat="42.26284934405748" lon="13.97979634981794"><ele>231.0</ele><time>2026-05-03T10:49:49Z</time></trkpt><trkpt lat="42.262891823644615" lon="13.979726884512406"><ele>231.0</ele><time>2026-05-03T10:49:50Z</time></trkpt><trkpt lat="42.2629556926623" lon="13.979614398926326"><ele>231.0</ele><time>2026-05-03T10:49:52Z</time></trkpt><trkpt lat="42.26303891633919" lon="13.979589480239534"><ele>231.0</ele><time>2026-05-03T10:49:55Z</time></trkpt><trkpt lat="42.26314023025593" lon="13.979665815807017"><ele>228.66666666666666</ele><time>2026-05-03T10:49:57Z</time></trkpt><trkpt lat="42.26320129758196" lon="13.979728663628153"><ele>226.33333333333331</ele><time>2026-05-03T10:49:58Z</time></trkpt><trkpt lat="42.26325943798184" lon="13.979816311060057"><ele>224.0</ele><time>2026-05-03T10:49:59Z</time></trkpt><trkpt lat="42.26332211620411" lon="13.979915715068193"><ele>221.66666666666666</ele><time>2026-05-03T10:50:00Z</time></trkpt><trkpt lat="42.26336561345777" lon="13.980017416523788"><ele>219.33333333333331</ele><time>2026-05-03T10:50:01Z</time></trkpt><trkpt lat="42.26340337903816" lon="13.980127258157582"><ele>217.0</ele><time>2026-05-03T10:50:02Z</time></trkpt><trkpt lat="42.26342748561895" lon="13.980234165328884"><ele>217.0</ele><time>2026-05-03T10:50:03Z</time></trkpt><trkpt lat="42.26343077760788" lon="13.980350667464112"><ele>217.0</ele><time>2026-05-03T10:50:04Z</time></trkpt><trkpt lat="42.26343426714485" lon="13.980464107128402"><ele>217.0</ele><time>2026-05-03T10:50:05Z</time></trkpt><trkpt lat="42.26343116812934" lon="13.980569059818752"><ele>217.0</ele><time>2026-05-03T10:50:06Z</time></trkpt><trkpt lat="42.2634074016001" lon="13.980730744948666"><ele>217.0</ele><time>2026-05-03T10:50:08Z</time></trkpt><trkpt lat="42.26337110537786" lon="13.980892118735177"><ele>217.2</ele><time>2026-05-03T10:50:10Z</time></trkpt><trkpt lat="42.26336156272034" lon="13.980976698137521"><ele>217.39999999999998</ele><time>2026-05-03T10:50:11Z</time></trkpt><trkpt lat="42.26338145517521" lon="13.981138729589793"><ele>217.60000000000002</ele><time>2026-05-03T10:50:13Z</time></trkpt><trkpt lat="42.263427840672605" lon="13.981265094072652"><ele>217.8</ele><time>2026-05-03T10:50:15Z</time></trkpt><trkpt lat="42.26350455089744" lon="13.9813312373891"><ele>218.0</ele><time>2026-05-03T10:50:18Z</time></trkpt><trkpt lat="42.26359563416555" lon="13.981271735260018"><ele>218.0</ele><time>2026-05-03T10:50:20Z</time></trkpt><trkpt lat="42.2636518810652" lon="13.98121525699772"><ele>218.0</ele><time>2026-05-03T10:50:21Z</time></trkpt><trkpt lat="42.26374762779376" lon="13.98112794037167"><ele>218.0</ele><time>2026-05-03T10:50:23Z</time></trkpt><trkpt lat="42.263854998805456" lon="13.981032868291242"><ele>218.0</ele><time>2026-05-03T10:50:25Z</time></trkpt><trkpt lat="42.26391437260161" lon="13.981003644655566"><ele>218.0</ele><time>2026-05-03T10:50:26Z</time></trkpt><trkpt lat="42.264015855382" lon="13.981001648368741"><ele>215.83333333333334</ele><time>2026-05-03T10:50:28Z</time></trkpt><trkpt lat="42.26410103379942" lon="13.981108930209707"><ele>213.66666666666669</ele><time>2026-05-03T10:50:30Z</time></trkpt><trkpt lat="42.26413129480525" lon="13.981197519288918"><ele>211.5</ele><time>2026-05-03T10:50:31Z</time></trkpt><trkpt lat="42.26416036915094" lon="13.981291366343186"><ele>209.33333333333331</ele><time>2026-05-03T10:50:32Z</time></trkpt><trkpt lat="42.26421180521662" lon="13.98137867667727"><ele>207.16666666666666</ele><time>2026-05-03T10:50:33Z</time></trkpt><trkpt lat="42.26426377740777" lon="13.981464068630354"><ele>205.0</ele><time>2026-05-03T10:50:34Z</time></trkpt><trkpt lat="42.26431561423461" lon="13.981537138853227"><ele>204.99999999999997</ele><time>2026-05-03T10:50:35Z</time></trkpt><trkpt lat="42.26437172690023" lon="13.981577565846004"><ele>205.0</ele><time>2026-05-03T10:50:36Z</time></trkpt><trkpt lat="42.26448938654555" lon="13.981620848373003"><ele>205.0</ele><time>2026-05-03T10:50:38Z</time></trkpt><trkpt lat="42.2645913054926" lon="13.981693867440436"><ele>205.0</ele><time>2026-05-03T10:50:40Z</time></trkpt><trkpt lat="42.26463783950986" lon="13.981760137918204"><ele>204.99999999999997</ele><time>2026-05-03T10:50:41Z</time></trkpt><trkpt lat="42.26467534434858" lon="13.981847193933014"><ele>205.0</ele><time>2026-05-03T10:50:42Z</time></trkpt><trkpt lat="42.26470402941854" lon="13.98193192032669"><ele>204.99999999999997</ele><time>2026-05-03T10:50:43Z</time></trkpt><trkpt lat="42.26473463674033" lon="13.982027492963347"><ele>205.0</ele><time>2026-05-03T10:50:44Z</time></trkpt><trkpt lat="42.26475821469839" lon="13.982132169789002"><ele>205.0</ele><time>2026-05-03T10:50:45Z</time></trkpt><trkpt lat="42.2647692330544" lon="13.98224370679908"><ele>205.0</ele><time>2026-05-03T10:50:46Z</time></trkpt><trkpt lat="42.26478438800676" lon="13.98236395381385"><ele>204.99999999999997</ele><time>2026-05-03T10:50:47Z</time></trkpt><trkpt lat="42.26480449829137" lon="13.98248647004356"><ele>205.0</ele><time>2026-05-03T10:50:48Z</time></trkpt><trkpt lat="42.2648247525934" lon="13.982603371881192"><ele>202.33333333333331</ele><time>2026-05-03T10:50:49Z</time></trkpt><trkpt lat="42.264837997652776" lon="13.982709522083146"><ele>199.66666666666666</ele><time>2026-05-03T10:50:50Z</time></trkpt><trkpt lat="42.26484727690346" lon="13.98280168187768"><ele>197.0</ele><time>2026-05-03T10:50:51Z</time></trkpt><trkpt lat="42.26485778907134" lon="13.98289900952151"><ele>194.33333333333331</ele><time>2026-05-03T10:50:52Z</time></trkpt><trkpt lat="42.26487301547449" lon="13.983008056126524"><ele>191.66666666666666</ele><time>2026-05-03T10:50:53Z</time></trkpt><trkpt lat="42.26488539732966" lon="13.983126025213323"><ele>189.0</ele><time>2026-05-03T10:50:54Z</time></trkpt><trkpt lat="42.264890831469316" lon="13.983238599420881"><ele>188.33333333333334</ele><time>2026-05-03T10:50:55Z</time></trkpt><trkpt lat="42.26489683549011" lon="13.98335540439371"><ele>187.66666666666666</ele><time>2026-05-03T10:50:56Z</time></trkpt><trkpt lat="42.26490595918745" lon="13.98347788405538"><ele>187.0</ele><time>2026-05-03T10:50:57Z</time></trkpt><trkpt lat="42.26492335068629" lon="13.983574873091538"><ele>186.33333333333331</ele><time>2026-05-03T10:50:58Z</time></trkpt><trkpt lat="42.264944041318465" lon="13.98366009208423"><ele>185.66666666666666</ele><time>2026-05-03T10:50:59Z</time></trkpt><trkpt lat="42.26496074322785" lon="13.983742323711882"><ele>185.0</ele><time>2026-05-03T10:51:00Z</time></trkpt><trkpt lat="42.264993068162696" lon="13.983873614479508"><ele>185.0</ele><time>2026-05-03T10:51:02Z</time></trkpt><trkpt lat="42.26506595975196" lon="13.983949671414422"><ele>185.0</ele><time>2026-05-03T10:51:04Z</time></trkpt><trkpt lat="42.265142642567106" lon="13.983905908446681"><ele>185.0</ele><time>2026-05-03T10:51:06Z</time></trkpt><trkpt lat="42.26523835960166" lon="13.983778749723351"><ele>185.0</ele><time>2026-05-03T10:51:08Z</time></trkpt><trkpt lat="42.26526660231877" lon="13.983682984264144"><ele>185.0</ele><time>2026-05-03T10:51:09Z</time></trkpt><trkpt lat="42.26527587974268" lon="13.983568898963659"><ele>185.0</ele><time>2026-05-03T10:51:10Z</time></trkpt><trkpt lat="42.265269511224844" lon="13.983449608065452"><ele>185.0</ele><time>2026-05-03T10:51:11Z</time></trkpt><trkpt lat="42.26523806897501" lon="13.983316050928316"><ele>185.0</ele><time>2026-05-03T10:51:12Z</time></trkpt><trkpt lat="42.265210191605036" lon="13.983180251461032"><ele>185.0</ele><time>2026-05-03T10:51:13Z</time></trkpt><trkpt lat="42.26519428765615" lon="13.983064927811881"><ele>185.0</ele><time>2026-05-03T10:51:14Z</time></trkpt><trkpt lat="42.26518863691764" lon="13.982946829535816"><ele>185.66666666666666</ele><time>2026-05-03T10:51:15Z</time></trkpt><trkpt lat="42.26520141772894" lon="13.98282928315227"><ele>186.33333333333331</ele><time>2026-05-03T10:51:16Z</time></trkpt><trkpt lat="42.265231798261645" lon="13.982719064037749"><ele>187.0</ele><time>2026-05-03T10:51:17Z</time></trkpt><trkpt lat="42.26527105122913" lon="13.98260503214208"><ele>187.66666666666666</ele><time>2026-05-03T10:51:18Z</time></trkpt><trkpt lat="42.26530834793471" lon="13.9825045583406"><ele>188.33333333333334</ele><time>2026-05-03T10:51:19Z</time></trkpt><trkpt lat="42.265342599498844" lon="13.982430196423497"><ele>189.0</ele><time>2026-05-03T10:51:20Z</time></trkpt><trkpt lat="42.26537292298318" lon="13.982345750571492"><ele>189.0</ele><time>2026-05-03T10:51:21Z</time></trkpt><trkpt lat="42.26540554543093" lon="13.982266857589128"><ele>189.0</ele><time>2026-05-03T10:51:22Z</time></trkpt><trkpt lat="42.26547793177677" lon="13.982146026420889"><ele>189.0</ele><time>2026-05-03T10:51:24Z</time></trkpt><trkpt lat="42.265538043374804" lon="13.982118470482545"><ele>189.0</ele><time>2026-05-03T10:51:25Z</time></trkpt><trkpt lat="42.26560772226822" lon="13.982124478218058"><ele>189.0</ele><time>2026-05-03T10:51:26Z</time></trkpt><trkpt lat="42.26566793080116" lon="13.982168966752822"><ele>189.0</ele><time>2026-05-03T10:51:27Z</time></trkpt><trkpt lat="42.26572150547236" lon="13.98223799309373"><ele>186.16666666666666</ele><time>2026-05-03T10:51:28Z</time></trkpt><trkpt lat="42.26577149212134" lon="13.982321510696934"><ele>183.33333333333334</ele><time>2026-05-03T10:51:29Z</time></trkpt><trkpt lat="42.26582062381731" lon="13.982404449139691"><ele>180.5</ele><time>2026-05-03T10:51:30Z</time></trkpt><trkpt lat="42.265867665535374" lon="13.98246971557625"><ele>177.66666666666669</ele><time>2026-05-03T10:51:31Z</time></trkpt><trkpt lat="42.26594344144115" lon="13.982571163248776"><ele>174.83333333333334</ele><time>2026-05-03T10:51:33Z</time></trkpt><trkpt lat="42.265989862655466" lon="13.98263392766871"><ele>172.0</ele><time>2026-05-03T10:51:34Z</time></trkpt><trkpt lat="42.26605441158804" lon="13.982710918618396"><ele>172.0</ele><time>2026-05-03T10:51:35Z</time></trkpt><trkpt lat="42.266130836088934" lon="13.982789868573773"><ele>172.0</ele><time>2026-05-03T10:51:36Z</time></trkpt><trkpt lat="42.26621683486522" lon="13.982847134770077"><ele>172.0</ele><time>2026-05-03T10:51:37Z</time></trkpt><trkpt lat="42.266321115551335" lon="13.982885934418459"><ele>172.0</ele><time>2026-05-03T10:51:38Z</time></trkpt><trkpt lat="42.266418582770335" lon="13.982891509792173"><ele>172.0</ele><time>2026-05-03T10:51:39Z</time></trkpt><trkpt lat="42.26651571559732" lon="13.982892801380691"><ele>170.33333333333334</ele><time>2026-05-03T10:51:40Z</time></trkpt><trkpt lat="42.26660428273136" lon="13.982889728564972"><ele>168.66666666666669</ele><time>2026-05-03T10:51:41Z</time></trkpt><trkpt lat="42.26669313281495" lon="13.982903266250077"><ele>167.0</ele><time>2026-05-03T10:51:42Z</time></trkpt><trkpt lat="42.266769227706085" lon="13.98293828596416"><ele>165.33333333333334</ele><time>2026-05-03T10:51:43Z</time></trkpt><trkpt lat="42.26682998158229" lon="13.982992415892186"><ele>163.66666666666666</ele><time>2026-05-03T10:51:44Z</time></trkpt><trkpt lat="42.26687450728961" lon="13.983066956761865"><ele>162.0</ele><time>2026-05-03T10:51:45Z</time></trkpt><trkpt lat="42.2668950629967" lon="13.983178045317041"><ele>162.0</ele><time>2026-05-03T10:51:46Z</time></trkpt><trkpt lat="42.26690755212421" lon="13.98331130096092"><ele>162.0</ele><time>2026-05-03T10:51:47Z</time></trkpt><trkpt lat="42.26691578385061" lon="13.983462247367926"><ele>162.0</ele><time>2026-05-03T10:51:48Z</time></trkpt><trkpt lat="42.26692492238762" lon="13.983634513235764"><ele>162.0</ele><time>2026-05-03T10:51:49Z</time></trkpt><trkpt lat="42.26693500748037" lon="13.98381604922566"><ele>162.5</ele><time>2026-05-03T10:51:50Z</time></trkpt><trkpt lat="42.26694643023922" lon="13.983994258013661"><ele>163.0</ele><time>2026-05-03T10:51:51Z</time></trkpt><trkpt lat="42.266964364014086" lon="13.98417154769622"><ele>163.5</ele><time>2026-05-03T10:51:52Z</time></trkpt><trkpt lat="42.26698501033486" lon="13.98436166250325"><ele>164.0</ele><time>2026-05-03T10:51:53Z</time></trkpt><trkpt lat="42.2670147140834" lon="13.984561190855766"><ele>162.33333333333331</ele><time>2026-05-03T10:51:54Z</time></trkpt><trkpt lat="42.26704553724112" lon="13.98477537213921"><ele>160.66666666666666</ele><time>2026-05-03T10:51:55Z</time></trkpt><trkpt lat="42.26706878575854" lon="13.984983384366009"><ele>159.0</ele><time>2026-05-03T10:51:56Z</time></trkpt><trkpt lat="42.26708487770278" lon="13.985194344908804"><ele>157.0</ele><time>2026-05-03T10:51:57Z</time></trkpt><trkpt lat="42.2670929013208" lon="13.985405363535616"><ele>155.0</ele><time>2026-05-03T10:51:58Z</time></trkpt><trkpt lat="42.267089294738" lon="13.985612897358529"><ele>153.0</ele><time>2026-05-03T10:51:59Z</time></trkpt><trkpt lat="42.267077539501756" lon="13.985828481089987"><ele>151.75</ele><time>2026-05-03T10:52:00Z</time></trkpt><trkpt lat="42.267055355779156" lon="13.986029725532365"><ele>150.5</ele><time>2026-05-03T10:52:01Z</time></trkpt><trkpt lat="42.267026748608316" lon="13.986224356871071"><ele>149.25</ele><time>2026-05-03T10:52:02Z</time></trkpt><trkpt lat="42.26699429620719" lon="13.986417599743993"><ele>148.0</ele><time>2026-05-03T10:52:03Z</time></trkpt><trkpt lat="42.266956948592586" lon="13.98660827656541"><ele>146.5</ele><time>2026-05-03T10:52:04Z</time></trkpt><trkpt lat="42.26691372637496" lon="13.986784771282004"><ele>145.0</ele><time>2026-05-03T10:52:05Z</time></trkpt><trkpt lat="42.266872126610764" lon="13.98696839048541"><ele>143.5</ele><time>2026-05-03T10:52:06Z</time></trkpt><trkpt lat="42.26683545982989" lon="13.987148004002936"><ele>142.0</ele><time>2026-05-03T10:52:07Z</time></trkpt><trkpt lat="42.26680065577347" lon="13.987326601983568"><ele>142.0</ele><time>2026-05-03T10:52:08Z</time></trkpt><trkpt lat="42.26676175840814" lon="13.987501122929922"><ele>142.0</ele><time>2026-05-03T10:52:09Z</time></trkpt><trkpt lat="42.26671636340847" lon="13.987670491348327"><ele>142.0</ele><time>2026-05-03T10:52:10Z</time></trkpt><trkpt lat="42.266676067370796" lon="13.987839181596788"><ele>142.0</ele><time>2026-05-03T10:52:11Z</time></trkpt><trkpt lat="42.26663740780242" lon="13.988008234563328"><ele>140.75</ele><time>2026-05-03T10:52:12Z</time></trkpt><trkpt lat="42.266605446146926" lon="13.988186765404004"><ele>139.5</ele><time>2026-05-03T10:52:13Z</time></trkpt><trkpt lat="42.266578074848994" lon="13.988367850774315"><ele>138.25</ele><time>2026-05-03T10:52:14Z</time></trkpt><trkpt lat="42.26656591015934" lon="13.988554485042929"><ele>137.0</ele><time>2026-05-03T10:52:15Z</time></trkpt><trkpt lat="42.26656727584172" lon="13.988747825612121"><ele>135.33333333333331</ele><time>2026-05-03T10:52:16Z</time></trkpt><trkpt lat="42.266580513614464" lon="13.988945472891922"><ele>133.66666666666666</ele><time>2026-05-03T10:52:17Z</time></trkpt><trkpt lat="42.2665980275105" lon="13.98915059597859"><ele>132.0</ele><time>2026-05-03T10:52:18Z</time></trkpt><trkpt lat="42.26662633723395" lon="13.989349967721438"><ele>132.0</ele><time>2026-05-03T10:52:19Z</time></trkpt><trkpt lat="42.26666386737266" lon="13.989548864151278"><ele>132.0</ele><time>2026-05-03T10:52:20Z</time></trkpt><trkpt lat="42.26670017463389" lon="13.989745652036632"><ele>132.0</ele><time>2026-05-03T10:52:21Z</time></trkpt><trkpt lat="42.266734992786084" lon="13.989941252516378"><ele>131.75</ele><time>2026-05-03T10:52:22Z</time></trkpt><trkpt lat="42.26676816013474" lon="13.990125852467514"><ele>131.5</ele><time>2026-05-03T10:52:23Z</time></trkpt><trkpt lat="42.26679815166534" lon="13.99031646291184"><ele>131.25</ele><time>2026-05-03T10:52:24Z</time></trkpt><trkpt lat="42.266824938290746" lon="13.99050858933836"><ele>131.0</ele><time>2026-05-03T10:52:25Z</time></trkpt><trkpt lat="42.26683614863018" lon="13.990715492739083"><ele>129.0</ele><time>2026-05-03T10:52:26Z</time></trkpt><trkpt lat="42.26683251534659" lon="13.990923574557904"><ele>127.0</ele><time>2026-05-03T10:52:27Z</time></trkpt><trkpt lat="42.26682133440569" lon="13.991121604103073"><ele>125.0</ele><time>2026-05-03T10:52:28Z</time></trkpt><trkpt lat="42.26678753694792" lon="13.991323291827394"><ele>125.0</ele><time>2026-05-03T10:52:29Z</time></trkpt><trkpt lat="42.26675674024595" lon="13.991519558989948"><ele>125.0</ele><time>2026-05-03T10:52:30Z</time></trkpt><trkpt lat="42.26672639366292" lon="13.991726500902137"><ele>125.0</ele><time>2026-05-03T10:52:31Z</time></trkpt><trkpt lat="42.26668876007008" lon="13.991920045864784"><ele>123.33333333333333</ele><time>2026-05-03T10:52:32Z</time></trkpt><trkpt lat="42.2666579531503" lon="13.992128278068458"><ele>121.66666666666666</ele><time>2026-05-03T10:52:33Z</time></trkpt><trkpt lat="42.266624431268475" lon="13.992326533481986"><ele>120.0</ele><time>2026-05-03T10:52:34Z</time></trkpt><trkpt lat="42.26659208175598" lon="13.992524065057745"><ele>119.5</ele><time>2026-05-03T10:52:35Z</time></trkpt><trkpt lat="42.26655619092375" lon="13.992716374303765"><ele>119.0</ele><time>2026-05-03T10:52:36Z</time></trkpt><trkpt lat="42.26652872764419" lon="13.992900803607291"><ele>118.5</ele><time>2026-05-03T10:52:37Z</time></trkpt><trkpt lat="42.2664992354188" lon="13.993082543841414"><ele>118.0</ele><time>2026-05-03T10:52:38Z</time></trkpt><trkpt lat="42.266465279572486" lon="13.993253033714412"><ele>121.0</ele><time>2026-05-03T10:52:39Z</time></trkpt><trkpt lat="42.26643519434472" lon="13.993423922740188"><ele>124.0</ele><time>2026-05-03T10:52:40Z</time></trkpt><trkpt lat="42.266404219137684" lon="13.993592974140713"><ele>127.0</ele><time>2026-05-03T10:52:41Z</time></trkpt><trkpt lat="42.266372587948034" lon="13.993767489082984"><ele>130.0</ele><time>2026-05-03T10:52:42Z</time></trkpt><trkpt lat="42.266343284577395" lon="13.993935759713354"><ele>130.0</ele><time>2026-05-03T10:52:43Z</time></trkpt><trkpt lat="42.26631565154273" lon="13.994097261568054"><ele>130.0</ele><time>2026-05-03T10:52:44Z</time></trkpt><trkpt lat="42.266289621247566" lon="13.99424022116554"><ele>130.0</ele><time>2026-05-03T10:52:45Z</time></trkpt><trkpt lat="42.266270445174584" lon="13.994381371055272"><ele>130.0</ele><time>2026-05-03T10:52:46Z</time></trkpt><trkpt lat="42.26625110044845" lon="13.994514427302704"><ele>130.0</ele><time>2026-05-03T10:52:47Z</time></trkpt><trkpt lat="42.266225599171285" lon="13.9946449731214"><ele>128.8</ele><time>2026-05-03T10:52:48Z</time></trkpt><trkpt lat="42.266196060384225" lon="13.99477016704018"><ele>127.6</ele><time>2026-05-03T10:52:49Z</time></trkpt><trkpt lat="42.26615814233846" lon="13.994891283829064"><ele>126.4</ele><time>2026-05-03T10:52:50Z</time></trkpt><trkpt lat="42.26610958044486" lon="13.994996415390181"><ele>125.2</ele><time>2026-05-03T10:52:51Z</time></trkpt><trkpt lat="42.26605255698243" lon="13.995082509221897"><ele>124.0</ele><time>2026-05-03T10:52:52Z</time></trkpt><trkpt lat="42.266002343743914" lon="13.995166350112953"><ele>123.6</ele><time>2026-05-03T10:52:53Z</time></trkpt><trkpt lat="42.26597961664953" lon="13.995273399195622"><ele>123.2</ele><time>2026-05-03T10:52:54Z</time></trkpt><trkpt lat="42.265991892807556" lon="13.99539366847626"><ele>122.79999999999998</ele><time>2026-05-03T10:52:55Z</time></trkpt><trkpt lat="42.26601635483358" lon="13.995519725423945"><ele>122.39999999999999</ele><time>2026-05-03T10:52:56Z</time></trkpt><trkpt lat="42.266025080485896" lon="13.995650818179362"><ele>122.0</ele><time>2026-05-03T10:52:57Z</time></trkpt><trkpt lat="42.26601895034328" lon="13.995790303061897"><ele>121.6</ele><time>2026-05-03T10:52:58Z</time></trkpt><trkpt lat="42.26600455884173" lon="13.995926375443306"><ele>121.19999999999999</ele><time>2026-05-03T10:52:59Z</time></trkpt><trkpt lat="42.26599104432523" lon="13.996065957348542"><ele>120.8</ele><time>2026-05-03T10:53:00Z</time></trkpt><trkpt lat="42.265980303567396" lon="13.996199375142814"><ele>120.4</ele><time>2026-05-03T10:53:01Z</time></trkpt><trkpt lat="42.26596815203681" lon="13.996312420984744"><ele>120.0</ele><time>2026-05-03T10:53:02Z</time></trkpt><trkpt lat="42.26595636896559" lon="13.996405420499444"><ele>120.0</ele><time>2026-05-03T10:53:03Z</time></trkpt><trkpt lat="42.2659279763378" lon="13.996559204953199"><ele>120.0</ele><time>2026-05-03T10:53:05Z</time></trkpt><trkpt lat="42.2659037620812" lon="13.996683677058122"><ele>120.0</ele><time>2026-05-03T10:53:07Z</time></trkpt><trkpt lat="42.265886127932006" lon="13.99676615358992"><ele>120.0</ele><time>2026-05-03T10:53:09Z</time></trkpt><trkpt lat="42.26586754090029" lon="13.996905883272468"><ele>120.0</ele><time>2026-05-03T10:53:25Z</time></trkpt><trkpt lat="42.265852845922645" lon="13.997006403410731"><ele>120.0</ele><time>2026-05-03T10:53:26Z</time></trkpt><trkpt lat="42.26582718052569" lon="13.99713870173182"><ele>120.0</ele><time>2026-05-03T10:53:27Z</time></trkpt><trkpt lat="42.26579308639921" lon="13.997282464765247"><ele>120.0</ele><time>2026-05-03T10:53:28Z</time></trkpt><trkpt lat="42.26575781267286" lon="13.997435461457039"><ele>120.0</ele><time>2026-05-03T10:53:29Z</time></trkpt><trkpt lat="42.26572596298387" lon="13.997593748176254"><ele>119.5</ele><time>2026-05-03T10:53:30Z</time></trkpt><trkpt lat="42.265694081623565" lon="13.997753491899415"><ele>119.0</ele><time>2026-05-03T10:53:31Z</time></trkpt><trkpt lat="42.26565690316256" lon="13.997901653114356"><ele>118.5</ele><time>2026-05-03T10:53:32Z</time></trkpt><trkpt lat="42.26561456602172" lon="13.998049975764635"><ele>118.0</ele><time>2026-05-03T10:53:33Z</time></trkpt><trkpt lat="42.265559361942934" lon="13.998200805185034"><ele>117.75</ele><time>2026-05-03T10:53:34Z</time></trkpt><trkpt lat="42.265498008098874" lon="13.998349635202414"><ele>117.5</ele><time>2026-05-03T10:53:35Z</time></trkpt><trkpt lat="42.26542231676553" lon="13.998494048502621"><ele>117.25</ele><time>2026-05-03T10:53:36Z</time></trkpt><trkpt lat="42.26533280235904" lon="13.998641067779175"><ele>117.0</ele><time>2026-05-03T10:53:37Z</time></trkpt><trkpt lat="42.265228790224235" lon="13.998775459297217"><ele>117.0</ele><time>2026-05-03T10:53:38Z</time></trkpt><trkpt lat="42.26511329597651" lon="13.99890224408078"><ele>117.0</ele><time>2026-05-03T10:53:39Z</time></trkpt><trkpt lat="42.26498928342036" lon="13.99902621559156"><ele>117.0</ele><time>2026-05-03T10:53:40Z</time></trkpt><trkpt lat="42.26486522681673" lon="13.999149039228385"><ele>117.33333333333334</ele><time>2026-05-03T10:53:41Z</time></trkpt><trkpt lat="42.264741307088705" lon="13.999266899954101"><ele>117.66666666666667</ele><time>2026-05-03T10:53:42Z</time></trkpt><trkpt lat="42.264618133050746" lon="13.999387922546632"><ele>118.0</ele><time>2026-05-03T10:53:43Z</time></trkpt><trkpt lat="42.264495633497155" lon="13.999509287413805"><ele>118.0</ele><time>2026-05-03T10:53:44Z</time></trkpt><trkpt lat="42.264375256680914" lon="13.99963003931749"><ele>118.0</ele><time>2026-05-03T10:53:45Z</time></trkpt><trkpt lat="42.26426195996882" lon="13.999751267895547"><ele>118.0</ele><time>2026-05-03T10:53:46Z</time></trkpt><trkpt lat="42.26414259428061" lon="13.999866620551751"><ele>118.0</ele><time>2026-05-03T10:53:47Z</time></trkpt><trkpt lat="42.26402728586902" lon="13.999979535980668"><ele>119.25</ele><time>2026-05-03T10:53:48Z</time></trkpt><trkpt lat="42.26391648544755" lon="14.000096188281194"><ele>120.5</ele><time>2026-05-03T10:53:49Z</time></trkpt><trkpt lat="42.26381167147849" lon="14.000202591256798"><ele>121.75</ele><time>2026-05-03T10:53:50Z</time></trkpt><trkpt lat="42.26370795078518" lon="14.000306682600243"><ele>123.0</ele><time>2026-05-03T10:53:51Z</time></trkpt><trkpt lat="42.26360286589817" lon="14.000416331475972"><ele>123.0</ele><time>2026-05-03T10:53:52Z</time></trkpt><trkpt lat="42.26350339544989" lon="14.000529829316386"><ele>123.0</ele><time>2026-05-03T10:53:53Z</time></trkpt><trkpt lat="42.263408783475185" lon="14.000658153069256"><ele>123.0</ele><time>2026-05-03T10:53:54Z</time></trkpt><trkpt lat="42.26333081128358" lon="14.000802327315608"><ele>123.0</ele><time>2026-05-03T10:53:55Z</time></trkpt><trkpt lat="42.263261601429164" lon="14.000976258454699"><ele>121.25</ele><time>2026-05-03T10:53:56Z</time></trkpt><trkpt lat="42.2632159748426" lon="14.001158595331335"><ele>119.5</ele><time>2026-05-03T10:53:57Z</time></trkpt><trkpt lat="42.26319290986982" lon="14.001342965233961"><ele>117.75</ele><time>2026-05-03T10:53:58Z</time></trkpt><trkpt lat="42.263187956262875" lon="14.001520357676798"><ele>116.0</ele><time>2026-05-03T10:53:59Z</time></trkpt><trkpt lat="42.263196750096526" lon="14.001692815574916"><ele>114.75</ele><time>2026-05-03T10:54:00Z</time></trkpt><trkpt lat="42.263224778977474" lon="14.001869208536617"><ele>113.5</ele><time>2026-05-03T10:54:01Z</time></trkpt><trkpt lat="42.26327271599343" lon="14.002037675729241"><ele>112.25</ele><time>2026-05-03T10:54:02Z</time></trkpt><trkpt lat="42.263337809295834" lon="14.002202481146421"><ele>111.0</ele><time>2026-05-03T10:54:03Z</time></trkpt><trkpt lat="42.263412825096815" lon="14.002359282031323"><ele>110.5</ele><time>2026-05-03T10:54:04Z</time></trkpt><trkpt lat="42.26348432478303" lon="14.0025095496578"><ele>110.0</ele><time>2026-05-03T10:54:05Z</time></trkpt><trkpt lat="42.26354950739531" lon="14.002639900175446"><ele>109.5</ele><time>2026-05-03T10:54:06Z</time></trkpt><trkpt lat="42.263607522348586" lon="14.002760200410087"><ele>109.0</ele><time>2026-05-03T10:54:07Z</time></trkpt><trkpt lat="42.26366161102009" lon="14.002876462902842"><ele>109.0</ele><time>2026-05-03T10:54:08Z</time></trkpt><trkpt lat="42.26371944207719" lon="14.002988782015839"><ele>109.0</ele><time>2026-05-03T10:54:09Z</time></trkpt><trkpt lat="42.263775884376955" lon="14.003095801156043"><ele>109.0</ele><time>2026-05-03T10:54:10Z</time></trkpt><trkpt lat="42.2638285971628" lon="14.003204945676428"><ele>109.0</ele><time>2026-05-03T10:54:11Z</time></trkpt><trkpt lat="42.263874737114946" lon="14.0033147505892"><ele>109.0</ele><time>2026-05-03T10:54:12Z</time></trkpt><trkpt lat="42.263917120576345" lon="14.003425118473954"><ele>109.00000000000001</ele><time>2026-05-03T10:54:13Z</time></trkpt><trkpt lat="42.26395253668947" lon="14.003529094806465"><ele>109.0</ele><time>2026-05-03T10:54:14Z</time></trkpt><trkpt lat="42.26397525973079" lon="14.003634699365303"><ele>109.0</ele><time>2026-05-03T10:54:15Z</time></trkpt><trkpt lat="42.26398199882533" lon="14.0037428218039"><ele>109.0</ele><time>2026-05-03T10:54:16Z</time></trkpt><trkpt lat="42.263971250341825" lon="14.003838878520964"><ele>109.00000000000001</ele><time>2026-05-03T10:54:17Z</time></trkpt><trkpt lat="42.26395015416681" lon="14.003948975761475"><ele>109.0</ele><time>2026-05-03T10:54:18Z</time></trkpt><trkpt lat="42.2639591287324" lon="14.004043010055925"><ele>109.0</ele><time>2026-05-03T10:54:19Z</time></trkpt><trkpt lat="42.26400767401078" lon="14.004128045595579"><ele>109.0</ele><time>2026-05-03T10:54:20Z</time></trkpt><trkpt lat="42.264086627903254" lon="14.004180511416706"><ele>109.0</ele><time>2026-05-03T10:54:21Z</time></trkpt><trkpt lat="42.26417796229378" lon="14.004226226936057"><ele>109.0</ele><time>2026-05-03T10:54:22Z</time></trkpt><trkpt lat="42.26426378339664" lon="14.00430927867695"><ele>109.0</ele><time>2026-05-03T10:54:23Z</time></trkpt><trkpt lat="42.264339991259746" lon="14.004440750722573"><ele>109.25</ele><time>2026-05-03T10:54:24Z</time></trkpt><trkpt lat="42.26440426731916" lon="14.004574739661937"><ele>109.5</ele><time>2026-05-03T10:54:25Z</time></trkpt><trkpt lat="42.26446172851285" lon="14.004701551650152"><ele>109.75</ele><time>2026-05-03T10:54:26Z</time></trkpt><trkpt lat="42.264517996858004" lon="14.004827245600993"><ele>110.0</ele><time>2026-05-03T10:54:27Z</time></trkpt><trkpt lat="42.2645814340414" lon="14.004960770797728"><ele>109.0</ele><time>2026-05-03T10:54:28Z</time></trkpt><trkpt lat="42.26464096862724" lon="14.005098018164457"><ele>108.0</ele><time>2026-05-03T10:54:29Z</time></trkpt><trkpt lat="42.26470113289619" lon="14.005237063720614"><ele>107.0</ele><time>2026-05-03T10:54:30Z</time></trkpt><trkpt lat="42.264757928287835" lon="14.00536537393889"><ele>106.0</ele><time>2026-05-03T10:54:31Z</time></trkpt><trkpt lat="42.2648094194453" lon="14.005478471762101"><ele>105.0</ele><time>2026-05-03T10:54:32Z</time></trkpt><trkpt lat="42.26485813160413" lon="14.005588138532206"><ele>105.0</ele><time>2026-05-03T10:54:33Z</time></trkpt><trkpt lat="42.264903112457986" lon="14.00569115015537"><ele>105.0</ele><time>2026-05-03T10:54:34Z</time></trkpt><trkpt lat="42.264947614763074" lon="14.005796931193062"><ele>105.0</ele><time>2026-05-03T10:54:35Z</time></trkpt><trkpt lat="42.264992740923745" lon="14.00589612695919"><ele>105.0</ele><time>2026-05-03T10:54:36Z</time></trkpt><trkpt lat="42.26503713864579" lon="14.005992523844357"><ele>105.0</ele><time>2026-05-03T10:54:37Z</time></trkpt><trkpt lat="42.265073735586185" lon="14.006070386192203"><ele>105.0</ele><time>2026-05-03T10:54:38Z</time></trkpt><trkpt lat="42.265108521731115" lon="14.006149761086705"><ele>104.5</ele><time>2026-05-03T10:54:39Z</time></trkpt><trkpt lat="42.26514136492814" lon="14.006231450635916"><ele>104.0</ele><time>2026-05-03T10:54:40Z</time></trkpt><trkpt lat="42.265180349191354" lon="14.00632638594035"><ele>103.5</ele><time>2026-05-03T10:54:41Z</time></trkpt><trkpt lat="42.26522425967265" lon="14.006432709493593"><ele>103.0</ele><time>2026-05-03T10:54:42Z</time></trkpt><trkpt lat="42.26527319115463" lon="14.006550395737838"><ele>102.5</ele><time>2026-05-03T10:54:43Z</time></trkpt><trkpt lat="42.26532550352885" lon="14.00667530391512"><ele>102.0</ele><time>2026-05-03T10:54:44Z</time></trkpt><trkpt lat="42.26538088773669" lon="14.006809949897296"><ele>102.0</ele><time>2026-05-03T10:54:45Z</time></trkpt><trkpt lat="42.265439738837294" lon="14.006940935795386"><ele>102.0</ele><time>2026-05-03T10:54:46Z</time></trkpt><trkpt lat="42.265500967492564" lon="14.00706668775436"><ele>102.0</ele><time>2026-05-03T10:54:47Z</time></trkpt><trkpt lat="42.26555863202895" lon="14.007193063676935"><ele>102.0</ele><time>2026-05-03T10:54:48Z</time></trkpt><trkpt lat="42.265617944236304" lon="14.007313225768698"><ele>102.0</ele><time>2026-05-03T10:54:49Z</time></trkpt><trkpt lat="42.2656863370053" lon="14.007433519021848"><ele>101.75</ele><time>2026-05-03T10:54:50Z</time></trkpt><trkpt lat="42.26575758178987" lon="14.007552698646899"><ele>101.5</ele><time>2026-05-03T10:54:51Z</time></trkpt><trkpt lat="42.26583939044398" lon="14.007672636020304"><ele>101.25</ele><time>2026-05-03T10:54:52Z</time></trkpt><trkpt lat="42.26592840480706" lon="14.007787581554895"><ele>101.0</ele><time>2026-05-03T10:54:53Z</time></trkpt><trkpt lat="42.266018510056355" lon="14.007894380088965"><ele>101.0</ele><time>2026-05-03T10:54:54Z</time></trkpt><trkpt lat="42.26611220745853" lon="14.00799986376543"><ele>101.0</ele><time>2026-05-03T10:54:55Z</time></trkpt><trkpt lat="42.266207442682656" lon="14.008101575455031"><ele>101.0</ele><time>2026-05-03T10:54:56Z</time></trkpt><trkpt lat="42.26629878925963" lon="14.00819882531767"><ele>101.0</ele><time>2026-05-03T10:54:57Z</time></trkpt><trkpt lat="42.26638827220684" lon="14.008303605259965"><ele>100.5</ele><time>2026-05-03T10:54:58Z</time></trkpt><trkpt lat="42.26646851894001" lon="14.008420225892726"><ele>100.0</ele><time>2026-05-03T10:54:59Z</time></trkpt><trkpt lat="42.2665424059831" lon="14.008551294212042"><ele>99.5</ele><time>2026-05-03T10:55:00Z</time></trkpt><trkpt lat="42.26661023007028" lon="14.00868638217421"><ele>99.0</ele><time>2026-05-03T10:55:01Z</time></trkpt><trkpt lat="42.26667591597703" lon="14.008820162851368"><ele>99.0</ele><time>2026-05-03T10:55:02Z</time></trkpt><trkpt lat="42.26673976054411" lon="14.008954632613248"><ele>99.0</ele><time>2026-05-03T10:55:03Z</time></trkpt><trkpt lat="42.26679430114353" lon="14.009093685360835"><ele>99.0</ele><time>2026-05-03T10:55:04Z</time></trkpt><trkpt lat="42.266841389427135" lon="14.009233793270173"><ele>99.0</ele><time>2026-05-03T10:55:05Z</time></trkpt><trkpt lat="42.266881573167275" lon="14.009372935507932"><ele>98.6</ele><time>2026-05-03T10:55:06Z</time></trkpt><trkpt lat="42.26691702388072" lon="14.009512760750463"><ele>98.2</ele><time>2026-05-03T10:55:07Z</time></trkpt><trkpt lat="42.26703619829556" lon="14.009579527769283"><ele>97.8</ele><time>2026-05-03T10:55:08Z</time></trkpt><trkpt lat="42.267089228147064" lon="14.009701548516043"><ele>97.39999999999999</ele><time>2026-05-03T10:55:09Z</time></trkpt><trkpt lat="42.26713458047582" lon="14.009806362037533"><ele>97.0</ele><time>2026-05-03T10:55:10Z</time></trkpt><trkpt lat="42.267179728717494" lon="14.00990046691351"><ele>97.42857142857143</ele><time>2026-05-03T10:55:11Z</time></trkpt><trkpt lat="42.267218278423336" lon="14.00999320627004"><ele>97.85714285714286</ele><time>2026-05-03T10:55:12Z</time></trkpt><trkpt lat="42.267245780970576" lon="14.010085135576805"><ele>98.28571428571429</ele><time>2026-05-03T10:55:13Z</time></trkpt><trkpt lat="42.26725426243368" lon="14.010178903523547"><ele>98.71428571428572</ele><time>2026-05-03T10:55:14Z</time></trkpt><trkpt lat="42.2672391789366" lon="14.010267425543006"><ele>99.14285714285714</ele><time>2026-05-03T10:55:15Z</time></trkpt><trkpt lat="42.26721172176305" lon="14.010366122860276"><ele>99.57142857142858</ele><time>2026-05-03T10:55:16Z</time></trkpt><trkpt lat="42.26718238680174" lon="14.010450373732523"><ele>100.0</ele><time>2026-05-03T10:55:17Z</time></trkpt><trkpt lat="42.267113829298815" lon="14.010606658763031"><ele>100.0</ele><time>2026-05-03T10:55:19Z</time></trkpt><trkpt lat="42.267051553619105" lon="14.010682040684838"><ele>100.0</ele><time>2026-05-03T10:55:20Z</time></trkpt><trkpt lat="42.266968906769" lon="14.010771063514017"><ele>100.0</ele><time>2026-05-03T10:55:21Z</time></trkpt><trkpt lat="42.26685625635386" lon="14.010864571148502"><ele>100.0</ele><time>2026-05-03T10:55:22Z</time></trkpt><trkpt lat="42.26673719859115" lon="14.010933303859142"><ele>99.75</ele><time>2026-05-03T10:55:23Z</time></trkpt><trkpt lat="42.26660684094901" lon="14.011017092886311"><ele>99.5</ele><time>2026-05-03T10:55:24Z</time></trkpt><trkpt lat="42.26647435979318" lon="14.011126156082875"><ele>99.25</ele><time>2026-05-03T10:55:25Z</time></trkpt><trkpt lat="42.2663566209691" lon="14.011235641456116"><ele>99.0</ele><time>2026-05-03T10:55:26Z</time></trkpt><trkpt lat="42.266243142424244" lon="14.011330539450855"><ele>99.25</ele><time>2026-05-03T10:55:27Z</time></trkpt><trkpt lat="42.26612622791708" lon="14.011418003269787"><ele>99.5</ele><time>2026-05-03T10:55:28Z</time></trkpt><trkpt lat="42.266005119266666" lon="14.011506028449322"><ele>99.75</ele><time>2026-05-03T10:55:29Z</time></trkpt><trkpt lat="42.265889859378014" lon="14.01159014340188"><ele>100.0</ele><time>2026-05-03T10:55:30Z</time></trkpt><trkpt lat="42.26581630793127" lon="14.011658672316486"><ele>100.0</ele><time>2026-05-03T10:55:31Z</time></trkpt><trkpt lat="42.2657602870986" lon="14.011703968132226"><ele>100.0</ele><time>2026-05-03T10:55:32Z</time></trkpt><trkpt lat="42.26570212428778" lon="14.011745474019877"><ele>100.0</ele><time>2026-05-03T10:55:33Z</time></trkpt><trkpt lat="42.26561739416714" lon="14.011808174230588"><ele>100.0</ele><time>2026-05-03T10:55:34Z</time></trkpt><trkpt lat="42.26552512103439" lon="14.011890178243329"><ele>100.0</ele><time>2026-05-03T10:55:35Z</time></trkpt><trkpt lat="42.26542726067882" lon="14.011981234724319"><ele>101.75</ele><time>2026-05-03T10:55:36Z</time></trkpt><trkpt lat="42.26532024524411" lon="14.012067190386379"><ele>103.5</ele><time>2026-05-03T10:55:37Z</time></trkpt><trkpt lat="42.26522392057455" lon="14.012157623681599"><ele>105.25</ele><time>2026-05-03T10:55:38Z</time></trkpt><trkpt lat="42.26514006416006" lon="14.012246669672528"><ele>107.0</ele><time>2026-05-03T10:55:39Z</time></trkpt><trkpt lat="42.26506037405461" lon="14.012340444306796"><ele>107.0</ele><time>2026-05-03T10:55:40Z</time></trkpt><trkpt lat="42.26498269558114" lon="14.012464815573322"><ele>107.0</ele><time>2026-05-03T10:55:41Z</time></trkpt><trkpt lat="42.26493187631026" lon="14.012610041723862"><ele>107.0</ele><time>2026-05-03T10:55:42Z</time></trkpt><trkpt lat="42.264906898438596" lon="14.012768868388768"><ele>107.0</ele><time>2026-05-03T10:55:43Z</time></trkpt><trkpt lat="42.26489910076176" lon="14.012933872529608"><ele>104.0</ele><time>2026-05-03T10:55:44Z</time></trkpt><trkpt lat="42.26491702192232" lon="14.013097919106338"><ele>101.0</ele><time>2026-05-03T10:55:45Z</time></trkpt><trkpt lat="42.264953146609905" lon="14.013252245558265"><ele>98.0</ele><time>2026-05-03T10:55:46Z</time></trkpt><trkpt lat="42.26501304651918" lon="14.013390653156888"><ele>95.0</ele><time>2026-05-03T10:55:47Z</time></trkpt><trkpt lat="42.265083876518894" lon="14.013517353821147"><ele>94.0</ele><time>2026-05-03T10:55:48Z</time></trkpt><trkpt lat="42.265166010256536" lon="14.013649518814775"><ele>93.0</ele><time>2026-05-03T10:55:49Z</time></trkpt><trkpt lat="42.26524902772758" lon="14.013786157095725"><ele>92.0</ele><time>2026-05-03T10:55:50Z</time></trkpt><trkpt lat="42.26533159585362" lon="14.013917552233874"><ele>91.0</ele><time>2026-05-03T10:55:51Z</time></trkpt><trkpt lat="42.265408023188826" lon="14.014043512170396"><ele>91.0</ele><time>2026-05-03T10:55:52Z</time></trkpt><trkpt lat="42.26547902778626" lon="14.014163671138727"><ele>91.0</ele><time>2026-05-03T10:55:53Z</time></trkpt><trkpt lat="42.265552734363716" lon="14.0142878286606"><ele>91.0</ele><time>2026-05-03T10:55:54Z</time></trkpt><trkpt lat="42.26562684679228" lon="14.014413439557991"><ele>91.0</ele><time>2026-05-03T10:55:55Z</time></trkpt><trkpt lat="42.26570153487385" lon="14.014538988650424"><ele>90.6</ele><time>2026-05-03T10:55:56Z</time></trkpt><trkpt lat="42.26577159702581" lon="14.014656547122673"><ele>90.19999999999999</ele><time>2026-05-03T10:55:57Z</time></trkpt><trkpt lat="42.26583562622117" lon="14.014761786204012"><ele>89.80000000000001</ele><time>2026-05-03T10:55:58Z</time></trkpt><trkpt lat="42.26589997345528" lon="14.014862342603461"><ele>89.4</ele><time>2026-05-03T10:55:59Z</time></trkpt><trkpt lat="42.2659500477248" lon="14.014954772186153"><ele>89.0</ele><time>2026-05-03T10:56:00Z</time></trkpt><trkpt lat="42.26599889951703" lon="14.015043099480064"><ele>89.0</ele><time>2026-05-03T10:56:01Z</time></trkpt><trkpt lat="42.26603936549667" lon="14.0151157535185"><ele>89.0</ele><time>2026-05-03T10:56:02Z</time></trkpt><trkpt lat="42.266113983618965" lon="14.015239333265104"><ele>89.0</ele><time>2026-05-03T10:56:04Z</time></trkpt><trkpt lat="42.266185137902404" lon="14.015307782949185"><ele>89.0</ele><time>2026-05-03T10:56:06Z</time></trkpt><trkpt lat="42.26625450757172" lon="14.015264666580036"><ele>89.0</ele><time>2026-05-03T10:56:08Z</time></trkpt><trkpt lat="42.26633530747937" lon="14.015166202805856"><ele>89.0</ele><time>2026-05-03T10:56:10Z</time></trkpt><trkpt lat="42.26642247683052" lon="14.015095664968284"><ele>89.0</ele><time>2026-05-03T10:56:12Z</time></trkpt><trkpt lat="42.266483002430526" lon="14.015036907376102"><ele>89.0</ele><time>2026-05-03T10:56:14Z</time></trkpt><trkpt lat="42.26653189656111" lon="14.014979359630164"><ele>89.0</ele><time>2026-05-03T10:56:16Z</time></trkpt><trkpt lat="42.26658836237606" lon="14.014914670934722"><ele>89.0</ele><time>2026-05-03T10:56:18Z</time></trkpt><trkpt lat="42.266665641900794" lon="14.0148515020655"><ele>89.0</ele><time>2026-05-03T10:56:20Z</time></trkpt><trkpt lat="42.26672810071984" lon="14.014786644225222"><ele>88.85714285714285</ele><time>2026-05-03T10:56:22Z</time></trkpt><trkpt lat="42.26674729891496" lon="14.014702567850255"><ele>88.71428571428571</ele><time>2026-05-03T10:56:25Z</time></trkpt><trkpt lat="42.26667156327065" lon="14.014729249419373"><ele>88.57142857142857</ele><time>2026-05-03T10:56:28Z</time></trkpt><trkpt lat="42.26662244056291" lon="14.014804427818971"><ele>88.42857142857142</ele><time>2026-05-03T10:56:31Z</time></trkpt><trkpt lat="42.26662248548398" lon="14.014892164296798"><ele>88.28571428571428</ele><time>2026-05-03T10:57:30Z</time></trkpt><trkpt lat="42.26657324769954" lon="14.014953963191875"><ele>88.14285714285714</ele><time>2026-05-03T10:58:01Z</time></trkpt><trkpt lat="42.26652422513527" lon="14.015008212622307"><ele>88.0</ele><time>2026-05-03T10:59:40Z</time></trkpt><trkpt lat="42.266597167884605" lon="14.015065422233551"><ele>88.0</ele><time>2026-05-03T11:00:01Z</time></trkpt><trkpt lat="42.26661883346864" lon="14.014982284903763"><ele>88.0</ele><time>2026-05-03T11:03:32Z</time></trkpt><trkpt lat="42.26658110674513" lon="14.015053655890837"><ele>88.0</ele><time>2026-05-03T11:05:51.001Z</time></trkpt><trkpt lat="42.26650862745409" lon="14.015051164386525"><ele>88.0</ele><time>2026-05-03T11:06:10Z</time></trkpt><trkpt lat="42.2665520867666" lon="14.014985338857418"><ele>88.0</ele><time>2026-05-03T11:06:15Z</time></trkpt><trkpt lat="42.266568417271436" lon="14.014900129095894"><ele>88.0</ele><time>2026-05-03T11:06:20Z</time></trkpt><trkpt lat="42.26660244202021" lon="14.01482851203662"><ele>88.0</ele><time>2026-05-03T11:06:26Z</time></trkpt><trkpt lat="42.26653345411436" lon="14.014963753871179"><ele>87.83333333333333</ele><time>2026-05-03T11:08:24Z</time></trkpt><trkpt lat="42.26647682343352" lon="14.015030783317"><ele>87.66666666666666</ele><time>2026-05-03T11:08:25Z</time></trkpt><trkpt lat="42.266415862823884" lon="14.015093650706364"><ele>87.5</ele><time>2026-05-03T11:08:26Z</time></trkpt><trkpt lat="42.26631621831176" lon="14.01518344578291"><ele>87.33333333333333</ele><time>2026-05-03T11:08:28Z</time></trkpt><trkpt lat="42.266256368555226" lon="14.015237050830903"><ele>87.16666666666667</ele><time>2026-05-03T11:08:30Z</time></trkpt><trkpt lat="42.266201421092724" lon="14.01530018946681"><ele>87.0</ele><time>2026-05-03T11:08:37Z</time></trkpt><trkpt lat="42.26622217783834" lon="14.015463539782997"><ele>87.19999999999999</ele><time>2026-05-03T11:08:40Z</time></trkpt><trkpt lat="42.26628440444075" lon="14.015550552069575"><ele>87.4</ele><time>2026-05-03T11:08:41Z</time></trkpt><trkpt lat="42.26634214981414" lon="14.015638871915492"><ele>87.6</ele><time>2026-05-03T11:08:42Z</time></trkpt><trkpt lat="42.26640257077731" lon="14.015741948280105"><ele>87.80000000000001</ele><time>2026-05-03T11:08:43Z</time></trkpt><trkpt lat="42.266470255456674" lon="14.015854140355879"><ele>88.0</ele><time>2026-05-03T11:08:44Z</time></trkpt><trkpt lat="42.26654117858819" lon="14.015987174946716"><ele>88.0</ele><time>2026-05-03T11:08:45Z</time></trkpt><trkpt lat="42.26661638373938" lon="14.01612959602795"><ele>88.0</ele><time>2026-05-03T11:08:46Z</time></trkpt><trkpt lat="42.266703157185695" lon="14.016274652564995"><ele>88.0</ele><time>2026-05-03T11:08:47Z</time></trkpt><trkpt lat="42.26678911014157" lon="14.016413729613356"><ele>88.0</ele><time>2026-05-03T11:08:48Z</time></trkpt><trkpt lat="42.26686841890994" lon="14.016544822624974"><ele>88.5</ele><time>2026-05-03T11:08:49Z</time></trkpt><trkpt lat="42.266947109269225" lon="14.01667600743746"><ele>89.0</ele><time>2026-05-03T11:08:50Z</time></trkpt><trkpt lat="42.267024420089285" lon="14.016808974703592"><ele>89.5</ele><time>2026-05-03T11:08:51Z</time></trkpt><trkpt lat="42.2671057095197" lon="14.016942705266601"><ele>90.0</ele><time>2026-05-03T11:08:52Z</time></trkpt><trkpt lat="42.2671843559611" lon="14.017077961048871"><ele>90.0</ele><time>2026-05-03T11:08:53Z</time></trkpt><trkpt lat="42.26726045000606" lon="14.017214271659467"><ele>90.0</ele><time>2026-05-03T11:08:54Z</time></trkpt><trkpt lat="42.267340003743456" lon="14.017342378425136"><ele>90.0</ele><time>2026-05-03T11:08:55Z</time></trkpt><trkpt lat="42.26741603506089" lon="14.017470800384597"><ele>90.0</ele><time>2026-05-03T11:08:56Z</time></trkpt><trkpt lat="42.26748691419549" lon="14.017595617626128"><ele>89.75</ele><time>2026-05-03T11:08:57Z</time></trkpt><trkpt lat="42.267561199413976" lon="14.017722059420166"><ele>89.5</ele><time>2026-05-03T11:08:58Z</time></trkpt><trkpt lat="42.267642181909316" lon="14.01785806191808"><ele>89.25</ele><time>2026-05-03T11:08:59Z</time></trkpt><trkpt lat="42.26773695836824" lon="14.017980578990246"><ele>89.0</ele><time>2026-05-03T11:09:00Z</time></trkpt><trkpt lat="42.26784720833923" lon="14.018076180126878"><ele>89.0</ele><time>2026-05-03T11:09:01Z</time></trkpt><trkpt lat="42.26797102481731" lon="14.018137508717686"><ele>89.0</ele><time>2026-05-03T11:09:02Z</time></trkpt><trkpt lat="42.268107594292275" lon="14.018175656132481"><ele>89.0</ele><time>2026-05-03T11:09:03Z</time></trkpt><trkpt lat="42.26824393883559" lon="14.018209900340699"><ele>89.0</ele><time>2026-05-03T11:09:04Z</time></trkpt><trkpt lat="42.26838803900996" lon="14.018231888368874"><ele>89.25</ele><time>2026-05-03T11:09:05Z</time></trkpt><trkpt lat="42.268529416233534" lon="14.018266309339722"><ele>89.5</ele><time>2026-05-03T11:09:06Z</time></trkpt><trkpt lat="42.26867471489289" lon="14.01830446993958"><ele>89.75</ele><time>2026-05-03T11:09:07Z</time></trkpt><trkpt lat="42.26882078289449" lon="14.01833689851184"><ele>90.0</ele><time>2026-05-03T11:09:08Z</time></trkpt><trkpt lat="42.26895989949529" lon="14.018375841304502"><ele>90.5</ele><time>2026-05-03T11:09:09Z</time></trkpt><trkpt lat="42.269097814200116" lon="14.018409217796107"><ele>91.0</ele><time>2026-05-03T11:09:10Z</time></trkpt><trkpt lat="42.269236217262666" lon="14.018439381251278"><ele>91.5</ele><time>2026-05-03T11:09:11Z</time></trkpt><trkpt lat="42.26937169347457" lon="14.01847533677059"><ele>92.0</ele><time>2026-05-03T11:09:12Z</time></trkpt><trkpt lat="42.26949806762414" lon="14.018511100555234"><ele>92.0</ele><time>2026-05-03T11:09:13Z</time></trkpt><trkpt lat="42.2696140187249" lon="14.018559272446424"><ele>92.0</ele><time>2026-05-03T11:09:14Z</time></trkpt><trkpt lat="42.26973175669715" lon="14.01861602676643"><ele>92.0</ele><time>2026-05-03T11:09:15Z</time></trkpt><trkpt lat="42.26984977962874" lon="14.018690695706944"><ele>92.0</ele><time>2026-05-03T11:09:16Z</time></trkpt><trkpt lat="42.26996694582808" lon="14.018774255663203"><ele>92.0</ele><time>2026-05-03T11:09:17Z</time></trkpt><trkpt lat="42.27008610953747" lon="14.018855018860828"><ele>92.0</ele><time>2026-05-03T11:09:18Z</time></trkpt><trkpt lat="42.270198632735" lon="14.018926141832498"><ele>92.0</ele><time>2026-05-03T11:09:19Z</time></trkpt><trkpt lat="42.27030311627013" lon="14.018992239312166"><ele>92.0</ele><time>2026-05-03T11:09:20Z</time></trkpt><trkpt lat="42.27041029531348" lon="14.01905693719195"><ele>92.0</ele><time>2026-05-03T11:09:21Z</time></trkpt><trkpt lat="42.27051297752103" lon="14.019124230460523"><ele>92.0</ele><time>2026-05-03T11:09:22Z</time></trkpt><trkpt lat="42.2706063211964" lon="14.019203238853494"><ele>92.0</ele><time>2026-05-03T11:09:22.999Z</time></trkpt><trkpt lat="42.27070138594112" lon="14.019262074264951"><ele>92.0</ele><time>2026-05-03T11:09:23.999Z</time></trkpt><trkpt lat="42.27078789598818" lon="14.0193156151871"><ele>92.0</ele><time>2026-05-03T11:09:24.999Z</time></trkpt><trkpt lat="42.27085726622873" lon="14.019358944084336"><ele>93.39999999999999</ele><time>2026-05-03T11:09:25.999Z</time></trkpt><trkpt lat="42.27093422321448" lon="14.0194566826899"><ele>94.8</ele><time>2026-05-03T11:09:27.999Z</time></trkpt><trkpt lat="42.270866285624926" lon="14.019604873334586"><ele>96.2</ele><time>2026-05-03T11:09:29.999Z</time></trkpt><trkpt lat="42.27083179676962" lon="14.019684284808458"><ele>97.6</ele><time>2026-05-03T11:09:30.999Z</time></trkpt><trkpt lat="42.270793935535075" lon="14.019770446224694"><ele>99.0</ele><time>2026-05-03T11:09:31.999Z</time></trkpt><trkpt lat="42.27072886858761" lon="14.019865385168055"><ele>99.0</ele><time>2026-05-03T11:09:33.999Z</time></trkpt><trkpt lat="42.27062016893963" lon="14.019831540571026"><ele>99.0</ele><time>2026-05-03T11:09:35.999Z</time></trkpt><trkpt lat="42.27055624146219" lon="14.019790570458857"><ele>99.0</ele><time>2026-05-03T11:09:36.999Z</time></trkpt><trkpt lat="42.27049134089875" lon="14.019770150243637"><ele>99.0</ele><time>2026-05-03T11:09:37.999Z</time></trkpt><trkpt lat="42.270425887867425" lon="14.019732774151478"><ele>99.0</ele><time>2026-05-03T11:09:38.999Z</time></trkpt><trkpt lat="42.270353696556555" lon="14.019704740883093"><ele>99.0</ele><time>2026-05-03T11:09:39.999Z</time></trkpt><trkpt lat="42.27027025825453" lon="14.019671974237642"><ele>99.6</ele><time>2026-05-03T11:09:40.999Z</time></trkpt><trkpt lat="42.270177621222366" lon="14.01963551129848"><ele>100.2</ele><time>2026-05-03T11:09:41.999Z</time></trkpt><trkpt lat="42.27008531504004" lon="14.019595737364147"><ele>100.8</ele><time>2026-05-03T11:09:42.999Z</time></trkpt><trkpt lat="42.26999405111773" lon="14.019550010752223"><ele>101.39999999999999</ele><time>2026-05-03T11:09:43.999Z</time></trkpt><trkpt lat="42.26989887095614" lon="14.019498715184104"><ele>102.0</ele><time>2026-05-03T11:09:44.999Z</time></trkpt><trkpt lat="42.269804525915866" lon="14.019449878401812"><ele>102.8</ele><time>2026-05-03T11:09:45.999Z</time></trkpt><trkpt lat="42.269698716655334" lon="14.019411812110926"><ele>103.6</ele><time>2026-05-03T11:09:46.999Z</time></trkpt><trkpt lat="42.26959367032805" lon="14.019401041701773"><ele>104.39999999999999</ele><time>2026-05-03T11:09:47.999Z</time></trkpt><trkpt lat="42.26949283396171" lon="14.019422965201567"><ele>105.19999999999999</ele><time>2026-05-03T11:09:48.999Z</time></trkpt><trkpt lat="42.26942025694159" lon="14.019432590079395"><ele>106.0</ele><time>2026-05-03T11:09:49.999Z</time></trkpt><trkpt lat="42.26928870123772" lon="14.019435825350978"><ele>106.0</ele><time>2026-05-03T11:09:51.999Z</time></trkpt><trkpt lat="42.269197614264655" lon="14.01947104133111"><ele>106.0</ele><time>2026-05-03T11:09:52.999Z</time></trkpt><trkpt lat="42.269113895715584" lon="14.019545836926518"><ele>106.0</ele><time>2026-05-03T11:09:54Z</time></trkpt><trkpt lat="42.26904369506257" lon="14.01961611257007"><ele>106.0</ele><time>2026-05-03T11:09:55Z</time></trkpt><trkpt lat="42.269001298112514" lon="14.019725777905245"><ele>106.0</ele><time>2026-05-03T11:09:56Z</time></trkpt><trkpt lat="42.26899145083544" lon="14.019843494941473"><ele>106.00000000000001</ele><time>2026-05-03T11:09:57Z</time></trkpt><trkpt lat="42.26901597063744" lon="14.019946011332822"><ele>106.0</ele><time>2026-05-03T11:09:58Z</time></trkpt><trkpt lat="42.269058323155406" lon="14.020013443542048"><ele>106.0</ele><time>2026-05-03T11:09:59Z</time></trkpt><trkpt lat="42.269081988565915" lon="14.02012790567988"><ele>106.0</ele><time>2026-05-03T11:10:02Z</time></trkpt><trkpt lat="42.26914481681685" lon="14.020208748779288"><ele>106.00000000000001</ele><time>2026-05-03T11:10:05Z</time></trkpt><trkpt lat="42.26919498807805" lon="14.020277016080918"><ele>106.0</ele><time>2026-05-03T11:10:25Z</time></trkpt><trkpt lat="42.26913106722131" lon="14.020858635720899"><ele>110.16666666666667</ele><time>2026-05-03T11:17:51.999Z</time></trkpt><trkpt lat="42.26911279492952" lon="14.020969691728025"><ele>114.33333333333334</ele><time>2026-05-03T11:17:53.999Z</time></trkpt><trkpt lat="42.269104105848605" lon="14.021061545605276"><ele>118.5</ele><time>2026-05-03T11:17:55.999Z</time></trkpt><trkpt lat="42.26909392923287" lon="14.021186352022262"><ele>122.66666666666666</ele><time>2026-05-03T11:21:03.999Z</time></trkpt><trkpt lat="42.26906173282234" lon="14.02132868647668"><ele>126.83333333333333</ele><time>2026-05-03T11:21:05.999Z</time></trkpt><trkpt lat="42.269083315218396" lon="14.021428253893301"><ele>131.0</ele><time>2026-05-03T11:21:07.999Z</time></trkpt><trkpt lat="42.26915773490611" lon="14.021495054413684"><ele>131.0</ele><time>2026-05-03T11:21:10.999Z</time></trkpt><trkpt lat="42.26923716905062" lon="14.0215424715793"><ele>131.0</ele><time>2026-05-03T11:21:12.999Z</time></trkpt><trkpt lat="42.269347142768595" lon="14.021612810314624"><ele>131.0</ele><time>2026-05-03T11:21:14.999Z</time></trkpt><trkpt lat="42.269454493325235" lon="14.021676910699528"><ele>131.0</ele><time>2026-05-03T11:21:16.999Z</time></trkpt><trkpt lat="42.26954518711669" lon="14.021754312767571"><ele>131.0</ele><time>2026-05-03T11:21:18.999Z</time></trkpt><trkpt lat="42.26962343798232" lon="14.021880241715499"><ele>132.14285714285714</ele><time>2026-05-03T11:21:20.999Z</time></trkpt><trkpt lat="42.26967701725968" lon="14.02194135956701"><ele>133.2857142857143</ele><time>2026-05-03T11:21:21.999Z</time></trkpt><trkpt lat="42.26972816902832" lon="14.021996947250516"><ele>134.42857142857144</ele><time>2026-05-03T11:21:22.999Z</time></trkpt><trkpt lat="42.26977836082056" lon="14.022063379786966"><ele>135.57142857142858</ele><time>2026-05-03T11:21:23.999Z</time></trkpt><trkpt lat="42.26982485867397" lon="14.022137232824644"><ele>136.71428571428572</ele><time>2026-05-03T11:21:24.999Z</time></trkpt><trkpt lat="42.269874377510625" lon="14.022222476739719"><ele>137.85714285714286</ele><time>2026-05-03T11:21:25.999Z</time></trkpt><trkpt lat="42.26993111758834" lon="14.022304239967175"><ele>139.0</ele><time>2026-05-03T11:21:26.999Z</time></trkpt><trkpt lat="42.26998549389272" lon="14.022382834135632"><ele>139.0</ele><time>2026-05-03T11:21:27.999Z</time></trkpt><trkpt lat="42.2700373790243" lon="14.022458129293858"><ele>139.0</ele><time>2026-05-03T11:21:28.999Z</time></trkpt><trkpt lat="42.27008600096028" lon="14.022523523429372"><ele>139.0</ele><time>2026-05-03T11:21:29.999Z</time></trkpt><trkpt lat="42.27016208600614" lon="14.022633321787854"><ele>139.0</ele><time>2026-05-03T11:21:31.999Z</time></trkpt><trkpt lat="42.27026293362493" lon="14.022725503722935"><ele>139.0</ele><time>2026-05-03T11:21:33.999Z</time></trkpt><trkpt lat="42.27036420866579" lon="14.022803816320684"><ele>140.2</ele><time>2026-05-03T11:21:35.999Z</time></trkpt><trkpt lat="42.27044147324736" lon="14.022914195395034"><ele>141.4</ele><time>2026-05-03T11:21:37.999Z</time></trkpt><trkpt lat="42.27048817171991" lon="14.022982687322385"><ele>142.6</ele><time>2026-05-03T11:21:38.999Z</time></trkpt><trkpt lat="42.270548135308694" lon="14.02307148904664"><ele>143.8</ele><time>2026-05-03T11:21:39.999Z</time></trkpt><trkpt lat="42.27061089382589" lon="14.023159830493352"><ele>145.0</ele><time>2026-05-03T11:21:40.999Z</time></trkpt><trkpt lat="42.27067386406466" lon="14.023245953545796"><ele>147.16666666666669</ele><time>2026-05-03T11:21:41.999Z</time></trkpt><trkpt lat="42.27073435375513" lon="14.023336748823914"><ele>149.33333333333334</ele><time>2026-05-03T11:21:42.999Z</time></trkpt><trkpt lat="42.27078474863718" lon="14.023409422587306"><ele>151.5</ele><time>2026-05-03T11:21:43.999Z</time></trkpt><trkpt lat="42.270830054775054" lon="14.023482208553553"><ele>153.66666666666666</ele><time>2026-05-03T11:21:44.999Z</time></trkpt><trkpt lat="42.270900184574096" lon="14.023627593217675"><ele>155.83333333333331</ele><time>2026-05-03T11:21:46.999Z</time></trkpt><trkpt lat="42.27093124648614" lon="14.023705919774292"><ele>158.0</ele><time>2026-05-03T11:21:47.999Z</time></trkpt><trkpt lat="42.270952354086475" lon="14.023790394722358"><ele>158.0</ele><time>2026-05-03T11:21:48.999Z</time></trkpt><trkpt lat="42.270950690038276" lon="14.02394533299686"><ele>158.0</ele><time>2026-05-03T11:21:50.999Z</time></trkpt><trkpt lat="42.27090454353004" lon="14.024073197832639"><ele>158.0</ele><time>2026-05-03T11:21:52.999Z</time></trkpt><trkpt lat="42.27081753185171" lon="14.024130832077788"><ele>158.0</ele><time>2026-05-03T11:21:54.999Z</time></trkpt><trkpt lat="42.27071019698742" lon="14.024141751498439"><ele>158.0</ele><time>2026-05-03T11:21:56.999Z</time></trkpt><trkpt lat="42.27058915534053" lon="14.024153900531074"><ele>163.33333333333331</ele><time>2026-05-03T11:21:58.999Z</time></trkpt><trkpt lat="42.27052476867821" lon="14.024158069566287"><ele>168.66666666666666</ele><time>2026-05-03T11:21:59.999Z</time></trkpt><trkpt lat="42.270442067297616" lon="14.024158723051032"><ele>174.0</ele><time>2026-05-03T11:22:00.999Z</time></trkpt><trkpt lat="42.27035153273417" lon="14.02416125043182"><ele>179.33333333333334</ele><time>2026-05-03T11:22:01.999Z</time></trkpt><trkpt lat="42.27026957508807" lon="14.024163981775777"><ele>184.66666666666669</ele><time>2026-05-03T11:22:02.999Z</time></trkpt><trkpt lat="42.27019013433578" lon="14.024169470700883"><ele>190.0</ele><time>2026-05-03T11:22:03.999Z</time></trkpt><trkpt lat="42.27011685058672" lon="14.024156507771004"><ele>190.0</ele><time>2026-05-03T11:22:04.999Z</time></trkpt><trkpt lat="42.27004687036733" lon="14.024144380123415"><ele>190.0</ele><time>2026-05-03T11:22:05.999Z</time></trkpt><trkpt lat="42.26996860949606" lon="14.024145886748695"><ele>190.0</ele><time>2026-05-03T11:22:06.999Z</time></trkpt><trkpt lat="42.269896456797234" lon="14.024156688141833"><ele>190.0</ele><time>2026-05-03T11:22:07.999Z</time></trkpt><trkpt lat="42.269819701955036" lon="14.02418864104207"><ele>190.0</ele><time>2026-05-03T11:22:08.999Z</time></trkpt><trkpt lat="42.2697562668949" lon="14.02423347662717"><ele>190.0</ele><time>2026-05-03T11:22:09.999Z</time></trkpt><trkpt lat="42.2696947262598" lon="14.02427050682992"><ele>190.0</ele><time>2026-05-03T11:22:10.999Z</time></trkpt><trkpt lat="42.26959392065639" lon="14.024286274649874"><ele>191.2</ele><time>2026-05-03T11:22:12.999Z</time></trkpt><trkpt lat="42.26947306604451" lon="14.024235997019053"><ele>192.4</ele><time>2026-05-03T11:22:14.999Z</time></trkpt><trkpt lat="42.26940549286917" lon="14.024204284157388"><ele>193.60000000000002</ele><time>2026-05-03T11:22:15.999Z</time></trkpt><trkpt lat="42.269328988507354" lon="14.024179069454558"><ele>194.8</ele><time>2026-05-03T11:22:16.999Z</time></trkpt><trkpt lat="42.2692629978138" lon="14.024155464712104"><ele>196.0</ele><time>2026-05-03T11:22:17.999Z</time></trkpt><trkpt lat="42.26915983592216" lon="14.02411440961357"><ele>195.99999999999997</ele><time>2026-05-03T11:22:19.999Z</time></trkpt><trkpt lat="42.269067132974705" lon="14.02416960511942"><ele>196.0</ele><time>2026-05-03T11:22:21.999Z</time></trkpt><trkpt lat="42.269003040417545" lon="14.024204067033887"><ele>196.0</ele><time>2026-05-03T11:22:22.999Z</time></trkpt><trkpt lat="42.26892945733396" lon="14.024237409076296"><ele>196.0</ele><time>2026-05-03T11:22:23.999Z</time></trkpt><trkpt lat="42.26884543045468" lon="14.024278444965649"><ele>195.99999999999997</ele><time>2026-05-03T11:22:24.999Z</time></trkpt><trkpt lat="42.26875964352531" lon="14.024309377369198"><ele>196.0</ele><time>2026-05-03T11:22:25.999Z</time></trkpt><trkpt lat="42.26866711173085" lon="14.024342775369947"><ele>196.49999999999997</ele><time>2026-05-03T11:22:26.999Z</time></trkpt><trkpt lat="42.26857570064496" lon="14.024378519891915"><ele>197.0</ele><time>2026-05-03T11:22:27.999Z</time></trkpt><trkpt lat="42.26848402716199" lon="14.024413162519844"><ele>197.5</ele><time>2026-05-03T11:22:28.999Z</time></trkpt><trkpt lat="42.268405721707644" lon="14.02445811010222"><ele>198.0</ele><time>2026-05-03T11:22:29.999Z</time></trkpt><trkpt lat="42.268326211092585" lon="14.024506612270745"><ele>198.49999999999997</ele><time>2026-05-03T11:22:30.999Z</time></trkpt><trkpt lat="42.26825649629018" lon="14.024557630893645"><ele>199.0</ele><time>2026-05-03T11:22:31.999Z</time></trkpt><trkpt lat="42.268192595279295" lon="14.024612583023906"><ele>198.99999999999997</ele><time>2026-05-03T11:22:32.999Z</time></trkpt><trkpt lat="42.26812814548593" lon="14.024672356095104"><ele>199.0</ele><time>2026-05-03T11:22:33.999Z</time></trkpt><trkpt lat="42.268068953931255" lon="14.024722589569823"><ele>199.0</ele><time>2026-05-03T11:22:34.999Z</time></trkpt><trkpt lat="42.26799934747601" lon="14.024783534300484"><ele>199.0</ele><time>2026-05-03T11:22:35.999Z</time></trkpt><trkpt lat="42.26793188989503" lon="14.02486260520717"><ele>198.99999999999997</ele><time>2026-05-03T11:22:37.999Z</time></trkpt><trkpt lat="42.26785472115208" lon="14.024939467515146"><ele>199.0</ele><time>2026-05-03T11:22:39.999Z</time></trkpt><trkpt lat="42.2677539796707" lon="14.02500271875967"><ele>205.79999999999998</ele><time>2026-05-03T11:22:41.999Z</time></trkpt><trkpt lat="42.267637373664066" lon="14.025064236656743"><ele>212.6</ele><time>2026-05-03T11:22:43.999Z</time></trkpt><trkpt lat="42.26757674947933" lon="14.025093740529716"><ele>219.4</ele><time>2026-05-03T11:22:44.999Z</time></trkpt><trkpt lat="42.26746467400969" lon="14.025166594112688"><ele>226.2</ele><time>2026-05-03T11:22:46.999Z</time></trkpt><trkpt lat="42.267374036990844" lon="14.02526554371408"><ele>233.0</ele><time>2026-05-03T11:22:48.999Z</time></trkpt><trkpt lat="42.267297951762735" lon="14.025340283350303"><ele>234.8</ele><time>2026-05-03T11:22:50.999Z</time></trkpt><trkpt lat="42.2671799047169" lon="14.025341169397935"><ele>236.60000000000002</ele><time>2026-05-03T11:22:52.999Z</time></trkpt><trkpt lat="42.26709451284014" lon="14.025236099703053"><ele>238.39999999999998</ele><time>2026-05-03T11:22:55Z</time></trkpt><trkpt lat="42.26700171111748" lon="14.025130070435571"><ele>240.2</ele><time>2026-05-03T11:22:57Z</time></trkpt><trkpt lat="42.266949752842784" lon="14.025069424994129"><ele>242.0</ele><time>2026-05-03T11:22:58Z</time></trkpt><trkpt lat="42.266891641268735" lon="14.025007456627579"><ele>237.66666666666669</ele><time>2026-05-03T11:22:59Z</time></trkpt><trkpt lat="42.266828701346796" lon="14.024945239223205"><ele>233.33333333333334</ele><time>2026-05-03T11:23:00Z</time></trkpt><trkpt lat="42.26674558993113" lon="14.024840759838778"><ele>229.0</ele><time>2026-05-03T11:23:02Z</time></trkpt><trkpt lat="42.26669184378312" lon="14.024784211268555"><ele>224.66666666666669</ele><time>2026-05-03T11:23:03Z</time></trkpt><trkpt lat="42.266638898467974" lon="14.024725264211312"><ele>220.33333333333334</ele><time>2026-05-03T11:23:04Z</time></trkpt><trkpt lat="42.26658968616374" lon="14.024670129361011"><ele>216.0</ele><time>2026-05-03T11:23:05Z</time></trkpt><trkpt lat="42.26649752888599" lon="14.024562778883354"><ele>216.60000000000002</ele><time>2026-05-03T11:23:07Z</time></trkpt><trkpt lat="42.26642216016125" lon="14.024491746979963"><ele>217.20000000000002</ele><time>2026-05-03T11:23:09Z</time></trkpt><trkpt lat="42.26634480150326" lon="14.024433140038072"><ele>217.79999999999998</ele><time>2026-05-03T11:23:11Z</time></trkpt><trkpt lat="42.26624526155359" lon="14.024405160304035"><ele>218.39999999999998</ele><time>2026-05-03T11:23:13Z</time></trkpt><trkpt lat="42.26618666557858" lon="14.02429446900586"><ele>219.0</ele><time>2026-05-03T11:23:15Z</time></trkpt><trkpt lat="42.26611150932373" lon="14.024235329908198"><ele>219.0</ele><time>2026-05-03T11:23:17Z</time></trkpt><trkpt lat="42.2660221789896" lon="14.024298525291243"><ele>218.99999999999997</ele><time>2026-05-03T11:23:19Z</time></trkpt><trkpt lat="42.26594406499096" lon="14.024395533815618"><ele>218.99999999999997</ele><time>2026-05-03T11:23:21Z</time></trkpt><trkpt lat="42.26585966532074" lon="14.024429234804304"><ele>219.0</ele><time>2026-05-03T11:23:23Z</time></trkpt><trkpt lat="42.26575985325847" lon="14.024454006352387"><ele>219.0</ele><time>2026-05-03T11:23:25Z</time></trkpt><trkpt lat="42.265650686484435" lon="14.024482619077974"><ele>215.5</ele><time>2026-05-03T11:23:27Z</time></trkpt><trkpt lat="42.2655466060356" lon="14.024495969595034"><ele>212.0</ele><time>2026-05-03T11:23:29Z</time></trkpt><trkpt lat="42.265437087950744" lon="14.024512698326575"><ele>208.5</ele><time>2026-05-03T11:23:31Z</time></trkpt><trkpt lat="42.265326156599095" lon="14.024550696875886"><ele>205.0</ele><time>2026-05-03T11:23:33Z</time></trkpt><trkpt lat="42.265198835026375" lon="14.02457935824245"><ele>205.0</ele><time>2026-05-03T11:23:35Z</time></trkpt><trkpt lat="42.26512116675726" lon="14.02458384472195"><ele>205.0</ele><time>2026-05-03T11:23:36Z</time></trkpt><trkpt lat="42.26505700873443" lon="14.024590622005798"><ele>205.0</ele><time>2026-05-03T11:23:37Z</time></trkpt><trkpt lat="42.26498606221676" lon="14.02466353861196"><ele>205.0</ele><time>2026-05-03T11:23:39Z</time></trkpt><trkpt lat="42.26495433858948" lon="14.024797215278333"><ele>205.0</ele><time>2026-05-03T11:23:41Z</time></trkpt><trkpt lat="42.26489989465798" lon="14.02493454154046"><ele>210.25</ele><time>2026-05-03T11:23:43Z</time></trkpt><trkpt lat="42.26481467883628" lon="14.02501309555111"><ele>215.5</ele><time>2026-05-03T11:23:45Z</time></trkpt><trkpt lat="42.26471624628994" lon="14.025042822716138"><ele>220.75</ele><time>2026-05-03T11:23:47Z</time></trkpt><trkpt lat="42.264592717532054" lon="14.025023895032689"><ele>226.0</ele><time>2026-05-03T11:23:49Z</time></trkpt><trkpt lat="42.26446289661308" lon="14.025049768152103"><ele>226.0</ele><time>2026-05-03T11:23:51Z</time></trkpt><trkpt lat="42.26439060710106" lon="14.02506192260467"><ele>226.0</ele><time>2026-05-03T11:23:52Z</time></trkpt><trkpt lat="42.26431830235642" lon="14.025057343462864"><ele>226.0</ele><time>2026-05-03T11:23:53Z</time></trkpt><trkpt lat="42.26424835206477" lon="14.025035374575745"><ele>226.0</ele><time>2026-05-03T11:23:54Z</time></trkpt><trkpt lat="42.26418160664458" lon="14.02500002401443"><ele>226.0</ele><time>2026-05-03T11:23:55Z</time></trkpt><trkpt lat="42.26412131226296" lon="14.024967910167474"><ele>226.0</ele><time>2026-05-03T11:23:56Z</time></trkpt><trkpt lat="42.264055926310775" lon="14.024937897409233"><ele>226.0</ele><time>2026-05-03T11:23:57Z</time></trkpt><trkpt lat="42.263937763666874" lon="14.024899130434234"><ele>225.4</ele><time>2026-05-03T11:23:59Z</time></trkpt><trkpt lat="42.26383048914848" lon="14.024858717296137"><ele>224.8</ele><time>2026-05-03T11:24:01Z</time></trkpt><trkpt lat="42.26371939788874" lon="14.024801627147609"><ele>224.20000000000002</ele><time>2026-05-03T11:24:03Z</time></trkpt><trkpt lat="42.26361757461796" lon="14.02475316991309"><ele>223.60000000000002</ele><time>2026-05-03T11:24:05Z</time></trkpt><trkpt lat="42.26351796201299" lon="14.024744747189557"><ele>223.0</ele><time>2026-05-03T11:24:07Z</time></trkpt><trkpt lat="42.263470415647674" lon="14.024646914180119"><ele>223.0</ele><time>2026-05-03T11:24:09Z</time></trkpt><trkpt lat="42.263408755596714" lon="14.02449217830311"><ele>223.0</ele><time>2026-05-03T11:24:11Z</time></trkpt><trkpt lat="42.263353962354195" lon="14.024404331075058"><ele>223.0</ele><time>2026-05-03T11:24:12Z</time></trkpt><trkpt lat="42.26329567666118" lon="14.024309517472412"><ele>223.0</ele><time>2026-05-03T11:24:13Z</time></trkpt><trkpt lat="42.26325314631038" lon="14.024209015097888"><ele>223.0</ele><time>2026-05-03T11:24:14Z</time></trkpt><trkpt lat="42.2632178815057" lon="14.024109840238053"><ele>224.0</ele><time>2026-05-03T11:24:15Z</time></trkpt><trkpt lat="42.263172627521435" lon="14.024032041558076"><ele>225.0</ele><time>2026-05-03T11:24:16Z</time></trkpt><trkpt lat="42.26311629422363" lon="14.02397377945808"><ele>226.0</ele><time>2026-05-03T11:24:17Z</time></trkpt><trkpt lat="42.263048736529164" lon="14.023939855907877"><ele>227.0</ele><time>2026-05-03T11:24:18Z</time></trkpt><trkpt lat="42.262973742543124" lon="14.02392897509635"><ele>228.0</ele><time>2026-05-03T11:24:19Z</time></trkpt><trkpt lat="42.26290447269369" lon="14.023938037275682"><ele>228.99999999999997</ele><time>2026-05-03T11:24:20Z</time></trkpt><trkpt lat="42.26283711451188" lon="14.023958058707606"><ele>229.99999999999997</ele><time>2026-05-03T11:24:21Z</time></trkpt><trkpt lat="42.26277443633831" lon="14.023975761182157"><ele>230.00000000000003</ele><time>2026-05-03T11:24:22Z</time></trkpt><trkpt lat="42.262709769537324" lon="14.02397513025936"><ele>230.0</ele><time>2026-05-03T11:24:23Z</time></trkpt><trkpt lat="42.2625890196273" lon="14.023912467708739"><ele>230.0</ele><time>2026-05-03T11:24:25Z</time></trkpt><trkpt lat="42.262525730014254" lon="14.023874804535073"><ele>230.0</ele><time>2026-05-03T11:24:26Z</time></trkpt><trkpt lat="42.26241644234257" lon="14.023854426277687"><ele>230.00000000000003</ele><time>2026-05-03T11:24:28Z</time></trkpt><trkpt lat="42.2623517249532" lon="14.023834915927957"><ele>230.0</ele><time>2026-05-03T11:24:29Z</time></trkpt><trkpt lat="42.26222501658341" lon="14.02380511803043"><ele>232.00000000000003</ele><time>2026-05-03T11:24:31Z</time></trkpt><trkpt lat="42.26214952642762" lon="14.023802067717648"><ele>234.0</ele><time>2026-05-03T11:24:32Z</time></trkpt><trkpt lat="42.26206495511476" lon="14.02380142555192"><ele>236.0</ele><time>2026-05-03T11:24:33Z</time></trkpt><trkpt lat="42.26198788919552" lon="14.023774852176073"><ele>238.0</ele><time>2026-05-03T11:24:34Z</time></trkpt><trkpt lat="42.26193045131106" lon="14.023737226133358"><ele>240.00000000000003</ele><time>2026-05-03T11:24:35Z</time></trkpt><trkpt lat="42.261860668355524" lon="14.023671077591139"><ele>242.0</ele><time>2026-05-03T11:25:16Z</time></trkpt><trkpt lat="42.261798484823295" lon="14.023615509545268"><ele>242.00000000000003</ele><time>2026-05-03T11:25:18Z</time></trkpt><trkpt lat="42.261740756179336" lon="14.023655800939375"><ele>242.0</ele><time>2026-05-03T11:26:01Z</time></trkpt><trkpt lat="42.26178256491607" lon="14.023756505619534"><ele>242.0</ele><time>2026-05-03T11:26:03Z</time></trkpt><trkpt lat="42.26181512026479" lon="14.02383482433447"><ele>242.0</ele><time>2026-05-03T11:26:04Z</time></trkpt><trkpt lat="42.261806896923765" lon="14.023968120482644"><ele>242.00000000000003</ele><time>2026-05-03T11:26:06Z</time></trkpt><trkpt lat="42.26174480369954" lon="14.023985713419206"><ele>242.0</ele><time>2026-05-03T11:26:07Z</time></trkpt><trkpt lat="42.26168145853407" lon="14.023932419550155"><ele>242.00000000000003</ele><time>2026-05-03T11:26:08Z</time></trkpt><trkpt lat="42.26162946055607" lon="14.02385209293137"><ele>242.0</ele><time>2026-05-03T11:26:09Z</time></trkpt><trkpt lat="42.261560334585745" lon="14.023784286840591"><ele>242.0</ele><time>2026-05-03T11:26:10Z</time></trkpt><trkpt lat="42.26148469206805" lon="14.023737579178345"><ele>242.0</ele><time>2026-05-03T11:26:11Z</time></trkpt><trkpt lat="42.26140475095156" lon="14.02375643181044"><ele>242.00000000000003</ele><time>2026-05-03T11:26:12Z</time></trkpt><trkpt lat="42.261355205516324" lon="14.02383057283645"><ele>242.0</ele><time>2026-05-03T11:26:13Z</time></trkpt><trkpt lat="42.26134852050268" lon="14.023938131688952"><ele>242.0</ele><time>2026-05-03T11:26:14Z</time></trkpt><trkpt lat="42.26139572755021" lon="14.024036296982885"><ele>242.0</ele><time>2026-05-03T11:26:15Z</time></trkpt><trkpt lat="42.26147437558612" lon="14.024121454270212"><ele>242.0</ele><time>2026-05-03T11:26:16Z</time></trkpt><trkpt lat="42.26157050370445" lon="14.024186127932591"><ele>242.0</ele><time>2026-05-03T11:26:17Z</time></trkpt><trkpt lat="42.26166262992825" lon="14.024255690725342"><ele>242.0</ele><time>2026-05-03T11:26:18Z</time></trkpt><trkpt lat="42.26173198058635" lon="14.02430501176963"><ele>241.8</ele><time>2026-05-03T11:26:19Z</time></trkpt><trkpt lat="42.26175683327386" lon="14.024457871960095"><ele>241.6</ele><time>2026-05-03T11:26:21Z</time></trkpt><trkpt lat="42.26169872105111" lon="14.024514307796796"><ele>241.40000000000003</ele><time>2026-05-03T11:26:22Z</time></trkpt><trkpt lat="42.261598776734175" lon="14.024513025083584"><ele>241.20000000000002</ele><time>2026-05-03T11:26:23Z</time></trkpt><trkpt lat="42.26151240395031" lon="14.024523572812766"><ele>241.0</ele><time>2026-05-03T11:26:24Z</time></trkpt><trkpt lat="42.26142658488413" lon="14.024579409615734"><ele>241.0</ele><time>2026-05-03T11:26:25Z</time></trkpt><trkpt lat="42.261351417538194" lon="14.02467909525778"><ele>241.00000000000003</ele><time>2026-05-03T11:26:26Z</time></trkpt><trkpt lat="42.26127800768669" lon="14.024785880065197"><ele>241.00000000000003</ele><time>2026-05-03T11:26:27Z</time></trkpt><trkpt lat="42.26120403497945" lon="14.0248868756564"><ele>241.0</ele><time>2026-05-03T11:26:28Z</time></trkpt><trkpt lat="42.261137235915754" lon="14.025005116918406"><ele>241.0</ele><time>2026-05-03T11:26:29Z</time></trkpt><trkpt lat="42.26108198737806" lon="14.025136602500867"><ele>245.0</ele><time>2026-05-03T11:26:30Z</time></trkpt><trkpt lat="42.26104422526092" lon="14.025273838056375"><ele>249.00000000000003</ele><time>2026-05-03T11:26:31Z</time></trkpt><trkpt lat="42.26103882035718" lon="14.02541486942064"><ele>253.00000000000003</ele><time>2026-05-03T11:26:32Z</time></trkpt><trkpt lat="42.261072546598" lon="14.025555824234594"><ele>257.0</ele><time>2026-05-03T11:26:33Z</time></trkpt><trkpt lat="42.26109708007467" lon="14.025695267425307"><ele>261.0</ele><time>2026-05-03T11:26:34Z</time></trkpt><trkpt lat="42.26108072341407" lon="14.025824665985308"><ele>264.2</ele><time>2026-05-03T11:26:35Z</time></trkpt><trkpt lat="42.261019171885366" lon="14.025937875375027"><ele>267.40000000000003</ele><time>2026-05-03T11:26:36Z</time></trkpt><trkpt lat="42.260953655289434" lon="14.026039115589091"><ele>270.6</ele><time>2026-05-03T11:26:37Z</time></trkpt><trkpt lat="42.26093482408264" lon="14.026163818086957"><ele>273.8</ele><time>2026-05-03T11:26:38Z</time></trkpt><trkpt lat="42.260969479725176" lon="14.026294738921454"><ele>277.0</ele><time>2026-05-03T11:26:39Z</time></trkpt><trkpt lat="42.26102705869964" lon="14.026427082110256"><ele>277.0</ele><time>2026-05-03T11:26:40Z</time></trkpt><trkpt lat="42.26108387901713" lon="14.026566132831718"><ele>277.0</ele><time>2026-05-03T11:26:41Z</time></trkpt><trkpt lat="42.26113747694296" lon="14.026712071633172"><ele>277.0</ele><time>2026-05-03T11:26:42Z</time></trkpt><trkpt lat="42.261197776775205" lon="14.026858520536594"><ele>277.0</ele><time>2026-05-03T11:26:43Z</time></trkpt><trkpt lat="42.26126224409298" lon="14.02700590493882"><ele>279.5</ele><time>2026-05-03T11:26:44Z</time></trkpt><trkpt lat="42.26132058343501" lon="14.02715220482179"><ele>282.0</ele><time>2026-05-03T11:26:45Z</time></trkpt><trkpt lat="42.26136878399526" lon="14.02730591418561"><ele>284.5</ele><time>2026-05-03T11:26:46Z</time></trkpt><trkpt lat="42.26140342645566" lon="14.027460730710734"><ele>287.0</ele><time>2026-05-03T11:26:47Z</time></trkpt><trkpt lat="42.26143556961762" lon="14.02760422130478"><ele>290.6</ele><time>2026-05-03T11:26:48Z</time></trkpt><trkpt lat="42.26146777800731" lon="14.027743205305658"><ele>294.2</ele><time>2026-05-03T11:26:49Z</time></trkpt><trkpt lat="42.26152484314445" lon="14.027867279431321"><ele>297.8</ele><time>2026-05-03T11:26:50Z</time></trkpt><trkpt lat="42.26160267098676" lon="14.027972582412124"><ele>301.4</ele><time>2026-05-03T11:26:51Z</time></trkpt><trkpt lat="42.261688932411516" lon="14.02805979434995"><ele>305.0</ele><time>2026-05-03T11:26:52Z</time></trkpt><trkpt lat="42.2617672468149" lon="14.028167225538235"><ele>305.0</ele><time>2026-05-03T11:26:53Z</time></trkpt><trkpt lat="42.261824561832874" lon="14.028292226102552"><ele>305.0</ele><time>2026-05-03T11:26:54Z</time></trkpt><trkpt lat="42.26187510631897" lon="14.0284246782557"><ele>305.0</ele><time>2026-05-03T11:26:55Z</time></trkpt><trkpt lat="42.26192658399739" lon="14.02854814357672"><ele>305.0</ele><time>2026-05-03T11:26:56Z</time></trkpt><trkpt lat="42.26197234299744" lon="14.028658817923173"><ele>305.0</ele><time>2026-05-03T11:26:57Z</time></trkpt><trkpt lat="42.26201377192648" lon="14.028752883861728"><ele>305.8</ele><time>2026-05-03T11:26:58Z</time></trkpt><trkpt lat="42.262075388552326" lon="14.02884981455977"><ele>306.6</ele><time>2026-05-03T11:27:00Z</time></trkpt><trkpt lat="42.26214273204208" lon="14.028854626657449"><ele>307.4</ele><time>2026-05-03T11:27:02Z</time></trkpt><trkpt lat="42.26223754411998" lon="14.028720059071832"><ele>308.2</ele><time>2026-05-03T11:27:04Z</time></trkpt><trkpt lat="42.26229321779774" lon="14.028632411562155"><ele>309.0</ele><time>2026-05-03T11:27:05Z</time></trkpt><trkpt lat="42.26235441331461" lon="14.028543014102695"><ele>309.0</ele><time>2026-05-03T11:27:06Z</time></trkpt><trkpt lat="42.262406924027" lon="14.02847036069913"><ele>309.0</ele><time>2026-05-03T11:27:07Z</time></trkpt><trkpt lat="42.262462844224586" lon="14.02842339197402"><ele>309.0</ele><time>2026-05-03T11:27:08Z</time></trkpt><trkpt lat="42.26252870891939" lon="14.028411781578468"><ele>309.0</ele><time>2026-05-03T11:27:09Z</time></trkpt><trkpt lat="42.26260968029608" lon="14.02845278479236"><ele>309.0</ele><time>2026-05-03T11:27:10Z</time></trkpt><trkpt lat="42.262703494544674" lon="14.028520699116058"><ele>309.0</ele><time>2026-05-03T11:27:11Z</time></trkpt><trkpt lat="42.26279696750431" lon="14.028591934913425"><ele>309.0</ele><time>2026-05-03T11:27:12Z</time></trkpt><trkpt lat="42.26290788344726" lon="14.028667458924728"><ele>309.0</ele><time>2026-05-03T11:27:13Z</time></trkpt><trkpt lat="42.26303372760917" lon="14.02874813910437"><ele>309.0</ele><time>2026-05-03T11:27:14Z</time></trkpt><trkpt lat="42.26315918320594" lon="14.02882881587938"><ele>309.0</ele><time>2026-05-03T11:27:15Z</time></trkpt><trkpt lat="42.26328656950458" lon="14.028919903858322"><ele>308.75</ele><time>2026-05-03T11:27:16Z</time></trkpt><trkpt lat="42.263417072777806" lon="14.029008825094163"><ele>308.5</ele><time>2026-05-03T11:27:17Z</time></trkpt><trkpt lat="42.2635537322094" lon="14.029096744067738"><ele>308.25</ele><time>2026-05-03T11:27:18Z</time></trkpt><trkpt lat="42.26369117035689" lon="14.029176505574101"><ele>308.0</ele><time>2026-05-03T11:27:19Z</time></trkpt><trkpt lat="42.26382989332414" lon="14.02925307187925"><ele>307.5</ele><time>2026-05-03T11:27:20Z</time></trkpt><trkpt lat="42.26396869343031" lon="14.029322460519483"><ele>307.0</ele><time>2026-05-03T11:27:21Z</time></trkpt><trkpt lat="42.26410765371986" lon="14.029375024110891"><ele>306.5</ele><time>2026-05-03T11:27:22Z</time></trkpt><trkpt lat="42.264249726209" lon="14.029414864969644"><ele>306.0</ele><time>2026-05-03T11:27:23Z</time></trkpt><trkpt lat="42.26439620916689" lon="14.029435867744944"><ele>306.0</ele><time>2026-05-03T11:27:24Z</time></trkpt><trkpt lat="42.26454190441791" lon="14.02942795559167"><ele>306.0</ele><time>2026-05-03T11:27:25Z</time></trkpt><trkpt lat="42.264685343166335" lon="14.029393810249141"><ele>306.0</ele><time>2026-05-03T11:27:26Z</time></trkpt><trkpt lat="42.264827134261395" lon="14.029345569481999"><ele>306.0</ele><time>2026-05-03T11:27:27Z</time></trkpt><trkpt lat="42.26496475658614" lon="14.029292286012645"><ele>306.0</ele><time>2026-05-03T11:27:28Z</time></trkpt><trkpt lat="42.26510390579156" lon="14.029234085681468"><ele>306.0</ele><time>2026-05-03T11:27:29Z</time></trkpt><trkpt lat="42.265244620085575" lon="14.029182634620078"><ele>306.0</ele><time>2026-05-03T11:27:30Z</time></trkpt><trkpt lat="42.26538547471882" lon="14.029142913886982"><ele>306.0</ele><time>2026-05-03T11:27:31Z</time></trkpt><trkpt lat="42.26552424599444" lon="14.029111232495222"><ele>308.75</ele><time>2026-05-03T11:27:32Z</time></trkpt><trkpt lat="42.26566340834688" lon="14.029075993829583"><ele>311.5</ele><time>2026-05-03T11:27:33Z</time></trkpt><trkpt lat="42.265801776003876" lon="14.029038080545343"><ele>314.25</ele><time>2026-05-03T11:27:34Z</time></trkpt><trkpt lat="42.265939571075776" lon="14.029001362110812"><ele>317.0</ele><time>2026-05-03T11:27:35Z</time></trkpt><trkpt lat="42.266061547752" lon="14.028976633750794"><ele>317.0</ele><time>2026-05-03T11:27:36Z</time></trkpt><trkpt lat="42.266154310787385" lon="14.028965601792398"><ele>317.0</ele><time>2026-05-03T11:27:37Z</time></trkpt><trkpt lat="42.266224859256276" lon="14.028960661289492"><ele>317.0</ele><time>2026-05-03T11:27:38Z</time></trkpt><trkpt lat="42.26629086776933" lon="14.028958359416057"><ele>317.0</ele><time>2026-05-03T11:27:39Z</time></trkpt><trkpt lat="42.26636977965201" lon="14.02896656046101"><ele>317.0</ele><time>2026-05-03T11:27:40Z</time></trkpt><trkpt lat="42.266458639988876" lon="14.02899114422608"><ele>317.0</ele><time>2026-05-03T11:27:41Z</time></trkpt><trkpt lat="42.266552128266746" lon="14.029023965990262"><ele>316.6</ele><time>2026-05-03T11:27:42Z</time></trkpt><trkpt lat="42.26664279781899" lon="14.029061739589991"><ele>316.2</ele><time>2026-05-03T11:27:43Z</time></trkpt><trkpt lat="42.2667382990193" lon="14.029119722960887"><ele>315.8</ele><time>2026-05-03T11:27:44Z</time></trkpt><trkpt lat="42.26682905616427" lon="14.029192004267006"><ele>315.4</ele><time>2026-05-03T11:27:45Z</time></trkpt><trkpt lat="42.26691784625482" lon="14.029283169284415"><ele>315.0</ele><time>2026-05-03T11:27:46Z</time></trkpt><trkpt lat="42.26701116432177" lon="14.029368581012609"><ele>315.0</ele><time>2026-05-03T11:27:47Z</time></trkpt><trkpt lat="42.26711757774674" lon="14.029440586663078"><ele>315.0</ele><time>2026-05-03T11:27:48Z</time></trkpt><trkpt lat="42.26723236288682" lon="14.029502235550007"><ele>315.0</ele><time>2026-05-03T11:27:49Z</time></trkpt><trkpt lat="42.267351745717164" lon="14.02955181054563"><ele>315.0</ele><time>2026-05-03T11:27:50Z</time></trkpt><trkpt lat="42.267480098522654" lon="14.029554265217621"><ele>316.25</ele><time>2026-05-03T11:27:51Z</time></trkpt><trkpt lat="42.267610651356186" lon="14.029538448166857"><ele>317.5</ele><time>2026-05-03T11:27:52Z</time></trkpt><trkpt lat="42.2677439913324" lon="14.029511307379865"><ele>318.75</ele><time>2026-05-03T11:27:53Z</time></trkpt><trkpt lat="42.2678794648631" lon="14.029491501496855"><ele>320.0</ele><time>2026-05-03T11:27:54Z</time></trkpt><trkpt lat="42.26801320403028" lon="14.029478483942546"><ele>319.75</ele><time>2026-05-03T11:27:55Z</time></trkpt><trkpt lat="42.26814810670975" lon="14.0294957848796"><ele>319.5</ele><time>2026-05-03T11:27:56Z</time></trkpt><trkpt lat="42.26827891062291" lon="14.029524037685775"><ele>319.25</ele><time>2026-05-03T11:27:57Z</time></trkpt><trkpt lat="42.26843664333534" lon="14.029491197503479"><ele>319.0</ele><time>2026-05-03T11:27:58Z</time></trkpt><trkpt lat="42.2685829970258" lon="14.029474730810364"><ele>319.0</ele><time>2026-05-03T11:27:59Z</time></trkpt><trkpt lat="42.26873155890848" lon="14.029445484196682"><ele>319.0</ele><time>2026-05-03T11:28:00Z</time></trkpt><trkpt lat="42.26887768350908" lon="14.029409828130206"><ele>319.0</ele><time>2026-05-03T11:28:01Z</time></trkpt><trkpt lat="42.2690116594126" lon="14.029373172896184"><ele>319.0</ele><time>2026-05-03T11:28:02Z</time></trkpt><trkpt lat="42.26912592366415" lon="14.029347741445074"><ele>319.5</ele><time>2026-05-03T11:28:03Z</time></trkpt><trkpt lat="42.26921661741537" lon="14.02933773919706"><ele>320.0</ele><time>2026-05-03T11:28:04Z</time></trkpt><trkpt lat="42.26930382493326" lon="14.02934134815136"><ele>320.5</ele><time>2026-05-03T11:28:05Z</time></trkpt><trkpt lat="42.26938693886551" lon="14.029364985898635"><ele>321.0</ele><time>2026-05-03T11:28:06Z</time></trkpt><trkpt lat="42.26946847740438" lon="14.029392970874609"><ele>321.5</ele><time>2026-05-03T11:28:07Z</time></trkpt><trkpt lat="42.2695503842218" lon="14.029435562346213"><ele>322.0</ele><time>2026-05-03T11:28:08Z</time></trkpt><trkpt lat="42.26963809335802" lon="14.029479622434256"><ele>322.0</ele><time>2026-05-03T11:28:09Z</time></trkpt><trkpt lat="42.269741132648754" lon="14.029518643845735"><ele>322.0</ele><time>2026-05-03T11:28:10Z</time></trkpt><trkpt lat="42.269860055528234" lon="14.02955683449635"><ele>322.0</ele><time>2026-05-03T11:28:11Z</time></trkpt><trkpt lat="42.26998363068835" lon="14.029599690681616"><ele>322.0</ele><time>2026-05-03T11:28:12Z</time></trkpt><trkpt lat="42.27011327436555" lon="14.02965853811841"><ele>319.5</ele><time>2026-05-03T11:28:13Z</time></trkpt><trkpt lat="42.270241737412086" lon="14.029740387907166"><ele>317.0</ele><time>2026-05-03T11:28:14Z</time></trkpt><trkpt lat="42.27036738148101" lon="14.029835750095037"><ele>314.5</ele><time>2026-05-03T11:28:15Z</time></trkpt><trkpt lat="42.2704954744421" lon="14.029947658571126"><ele>312.0</ele><time>2026-05-03T11:28:16Z</time></trkpt><trkpt lat="42.27062207871681" lon="14.030050917394549"><ele>309.25</ele><time>2026-05-03T11:28:17Z</time></trkpt><trkpt lat="42.27075486109108" lon="14.030149187775356"><ele>306.5</ele><time>2026-05-03T11:28:18Z</time></trkpt><trkpt lat="42.27087540557242" lon="14.030240831221509"><ele>303.75</ele><time>2026-05-03T11:28:19Z</time></trkpt><trkpt lat="42.270993924620036" lon="14.030324936365972"><ele>301.0</ele><time>2026-05-03T11:28:20Z</time></trkpt><trkpt lat="42.271114064773585" lon="14.030413057622487"><ele>301.0</ele><time>2026-05-03T11:28:21Z</time></trkpt><trkpt lat="42.271244696281784" lon="14.030482104089165"><ele>301.0</ele><time>2026-05-03T11:28:22Z</time></trkpt><trkpt lat="42.27138391931668" lon="14.030559419950198"><ele>301.0</ele><time>2026-05-03T11:28:23Z</time></trkpt><trkpt lat="42.27151912662648" lon="14.0306265579206"><ele>301.0</ele><time>2026-05-03T11:28:24Z</time></trkpt><trkpt lat="42.27165768623656" lon="14.030693926951525"><ele>298.75</ele><time>2026-05-03T11:28:25Z</time></trkpt><trkpt lat="42.27180098332873" lon="14.030758722841393"><ele>296.5</ele><time>2026-05-03T11:28:26Z</time></trkpt><trkpt lat="42.27194224359077" lon="14.030806920137445"><ele>294.25</ele><time>2026-05-03T11:28:27Z</time></trkpt><trkpt lat="42.27207586072356" lon="14.030833739801423"><ele>292.0</ele><time>2026-05-03T11:28:28Z</time></trkpt><trkpt lat="42.272195542040606" lon="14.03085484692181"><ele>291.25</ele><time>2026-05-03T11:28:29Z</time></trkpt><trkpt lat="42.27231358644767" lon="14.030868145278477"><ele>290.5</ele><time>2026-05-03T11:28:30Z</time></trkpt><trkpt lat="42.27243016515854" lon="14.030874316777249"><ele>289.75</ele><time>2026-05-03T11:28:31Z</time></trkpt><trkpt lat="42.27255409902846" lon="14.030858215342302"><ele>289.0</ele><time>2026-05-03T11:28:32Z</time></trkpt><trkpt lat="42.27267733553175" lon="14.030821107863815"><ele>287.0</ele><time>2026-05-03T11:28:33Z</time></trkpt><trkpt lat="42.2728042078233" lon="14.030801040792324"><ele>285.0</ele><time>2026-05-03T11:28:34Z</time></trkpt><trkpt lat="42.27292854415755" lon="14.030792835020723"><ele>283.0</ele><time>2026-05-03T11:28:35Z</time></trkpt><trkpt lat="42.27304935694789" lon="14.030794093644978"><ele>281.0</ele><time>2026-05-03T11:28:36Z</time></trkpt><trkpt lat="42.273172709079844" lon="14.030808765283657"><ele>281.0</ele><time>2026-05-03T11:28:37Z</time></trkpt><trkpt lat="42.273289294072306" lon="14.030837998136723"><ele>281.0</ele><time>2026-05-03T11:28:38Z</time></trkpt><trkpt lat="42.27339920176736" lon="14.03088684465641"><ele>281.0</ele><time>2026-05-03T11:28:39Z</time></trkpt><trkpt lat="42.27351011496958" lon="14.030955597445601"><ele>281.0</ele><time>2026-05-03T11:28:40Z</time></trkpt><trkpt lat="42.27362239670928" lon="14.031036651424223"><ele>281.0</ele><time>2026-05-03T11:28:41Z</time></trkpt><trkpt lat="42.27373167695577" lon="14.031123252324194"><ele>281.0</ele><time>2026-05-03T11:28:42Z</time></trkpt><trkpt lat="42.2738393461653" lon="14.03123327649345"><ele>281.0</ele><time>2026-05-03T11:28:43Z</time></trkpt><trkpt lat="42.27394802165333" lon="14.03135179570864"><ele>281.0</ele><time>2026-05-03T11:28:44Z</time></trkpt><trkpt lat="42.27405305824886" lon="14.03146686107417"><ele>280.25</ele><time>2026-05-03T11:28:45Z</time></trkpt><trkpt lat="42.27415397970932" lon="14.031576773775585"><ele>279.5</ele><time>2026-05-03T11:28:46Z</time></trkpt><trkpt lat="42.27424973090232" lon="14.031663783638864"><ele>278.75</ele><time>2026-05-03T11:28:47Z</time></trkpt><trkpt lat="42.274343352375396" lon="14.031720989439048"><ele>278.0</ele><time>2026-05-03T11:28:48Z</time></trkpt><trkpt lat="42.27444524423177" lon="14.03173803099933"><ele>278.0</ele><time>2026-05-03T11:28:49Z</time></trkpt><trkpt lat="42.27455513892353" lon="14.031711302699092"><ele>278.0</ele><time>2026-05-03T11:28:50Z</time></trkpt><trkpt lat="42.27467061372192" lon="14.031660442668159"><ele>278.0</ele><time>2026-05-03T11:28:51Z</time></trkpt><trkpt lat="42.27478250908694" lon="14.031603698249356"><ele>278.0</ele><time>2026-05-03T11:28:52Z</time></trkpt><trkpt lat="42.27489407342511" lon="14.031554627014616"><ele>270.0</ele><time>2026-05-03T11:28:53Z</time></trkpt><trkpt lat="42.275007253930646" lon="14.03150372405201"><ele>262.0</ele><time>2026-05-03T11:28:54Z</time></trkpt><trkpt lat="42.27512341463471" lon="14.031449398417577"><ele>254.0</ele><time>2026-05-03T11:28:55Z</time></trkpt><trkpt lat="42.27523995891735" lon="14.03138958077095"><ele>246.0</ele><time>2026-05-03T11:28:56Z</time></trkpt><trkpt lat="42.27535512546783" lon="14.031327612240718"><ele>246.0</ele><time>2026-05-03T11:28:57Z</time></trkpt><trkpt lat="42.27546869700998" lon="14.031264035746352"><ele>246.0</ele><time>2026-05-03T11:28:58Z</time></trkpt><trkpt lat="42.275582949037165" lon="14.031200846877269"><ele>246.0</ele><time>2026-05-03T11:28:59Z</time></trkpt><trkpt lat="42.275691524052924" lon="14.03114196481529"><ele>246.0</ele><time>2026-05-03T11:29:00Z</time></trkpt><trkpt lat="42.27579908204008" lon="14.031086643918837"><ele>247.20000000000002</ele><time>2026-05-03T11:29:01Z</time></trkpt><trkpt lat="42.27590483515396" lon="14.031034129471195"><ele>248.40000000000003</ele><time>2026-05-03T11:29:02Z</time></trkpt><trkpt lat="42.27601224636755" lon="14.030990829913447"><ele>249.6</ele><time>2026-05-03T11:29:03Z</time></trkpt><trkpt lat="42.27611679465782" lon="14.030966956542782"><ele>250.8</ele><time>2026-05-03T11:29:04Z</time></trkpt><trkpt lat="42.276223479113106" lon="14.030975165118502"><ele>252.0</ele><time>2026-05-03T11:29:05Z</time></trkpt><trkpt lat="42.27633284317809" lon="14.031031720319383"><ele>252.0</ele><time>2026-05-03T11:29:06Z</time></trkpt><trkpt lat="42.27643470919056" lon="14.031119635061852"><ele>252.0</ele><time>2026-05-03T11:29:07Z</time></trkpt><trkpt lat="42.27652590063213" lon="14.031232205983544"><ele>252.0</ele><time>2026-05-03T11:29:08Z</time></trkpt><trkpt lat="42.27660602846819" lon="14.031363819206955"><ele>252.0</ele><time>2026-05-03T11:29:09Z</time></trkpt><trkpt lat="42.27668030543985" lon="14.031504067156778"><ele>252.75</ele><time>2026-05-03T11:29:10Z</time></trkpt><trkpt lat="42.27675670544851" lon="14.031644616341616"><ele>253.5</ele><time>2026-05-03T11:29:11Z</time></trkpt><trkpt lat="42.276835565027866" lon="14.031790010188393"><ele>254.25</ele><time>2026-05-03T11:29:12Z</time></trkpt><trkpt lat="42.2769148998602" lon="14.031932446501196"><ele>255.0</ele><time>2026-05-03T11:29:13Z</time></trkpt><trkpt lat="42.27699758905694" lon="14.032071499315789"><ele>255.0</ele><time>2026-05-03T11:29:14Z</time></trkpt><trkpt lat="42.27708346129504" lon="14.03221107512888"><ele>255.0</ele><time>2026-05-03T11:29:15Z</time></trkpt><trkpt lat="42.27717131190042" lon="14.032346017710747"><ele>255.0</ele><time>2026-05-03T11:29:16Z</time></trkpt><trkpt lat="42.277261518672255" lon="14.03248083862654"><ele>255.0</ele><time>2026-05-03T11:29:17Z</time></trkpt><trkpt lat="42.2773514891003" lon="14.03261963745865"><ele>250.75</ele><time>2026-05-03T11:29:18Z</time></trkpt><trkpt lat="42.27744556192129" lon="14.032756156627704"><ele>246.5</ele><time>2026-05-03T11:29:19Z</time></trkpt><trkpt lat="42.277535847060626" lon="14.032897394743868"><ele>242.25</ele><time>2026-05-03T11:29:20Z</time></trkpt><trkpt lat="42.27762481741407" lon="14.033046984616126"><ele>238.0</ele><time>2026-05-03T11:29:21Z</time></trkpt><trkpt lat="42.277726743179635" lon="14.033180450741881"><ele>239.5</ele><time>2026-05-03T11:29:22Z</time></trkpt><trkpt lat="42.27781803980458" lon="14.033323583645288"><ele>241.0</ele><time>2026-05-03T11:29:23Z</time></trkpt><trkpt lat="42.27790441242418" lon="14.033463017224117"><ele>242.5</ele><time>2026-05-03T11:29:24Z</time></trkpt><trkpt lat="42.27797786852322" lon="14.033599571294836"><ele>244.0</ele><time>2026-05-03T11:29:25Z</time></trkpt><trkpt lat="42.27804060077247" lon="14.033731844094909"><ele>240.5</ele><time>2026-05-03T11:29:26Z</time></trkpt><trkpt lat="42.27810364345442" lon="14.033865189415636"><ele>237.0</ele><time>2026-05-03T11:29:27Z</time></trkpt><trkpt lat="42.27816960030754" lon="14.034010390684188"><ele>233.5</ele><time>2026-05-03T11:29:28Z</time></trkpt><trkpt lat="42.27823978345428" lon="14.034158880697285"><ele>230.0</ele><time>2026-05-03T11:29:29Z</time></trkpt><trkpt lat="42.27831267067811" lon="14.034316843349385"><ele>230.0</ele><time>2026-05-03T11:29:30Z</time></trkpt><trkpt lat="42.278385888489" lon="14.034474529950996"><ele>230.0</ele><time>2026-05-03T11:29:31Z</time></trkpt><trkpt lat="42.278452495299604" lon="14.03463528547418"><ele>230.0</ele><time>2026-05-03T11:29:32Z</time></trkpt><trkpt lat="42.278518336387286" lon="14.03478729258902"><ele>230.0</ele><time>2026-05-03T11:29:33Z</time></trkpt><trkpt lat="42.278593891482416" lon="14.034922129877737"><ele>230.5</ele><time>2026-05-03T11:29:34Z</time></trkpt><trkpt lat="42.27869113719467" lon="14.035040896945636"><ele>231.0</ele><time>2026-05-03T11:29:35Z</time></trkpt><trkpt lat="42.27880025803357" lon="14.035152569154691"><ele>231.5</ele><time>2026-05-03T11:29:36Z</time></trkpt><trkpt lat="42.278905112445315" lon="14.035275299505596"><ele>232.0</ele><time>2026-05-03T11:29:37Z</time></trkpt><trkpt lat="42.2790151379338" lon="14.035400840668203"><ele>230.0</ele><time>2026-05-03T11:29:38Z</time></trkpt><trkpt lat="42.27911249153177" lon="14.0355373302983"><ele>228.0</ele><time>2026-05-03T11:29:39Z</time></trkpt><trkpt lat="42.279195053467554" lon="14.03568378725913"><ele>226.0</ele><time>2026-05-03T11:29:40Z</time></trkpt><trkpt lat="42.27927439504627" lon="14.035827305547603"><ele>224.0</ele><time>2026-05-03T11:29:41Z</time></trkpt><trkpt lat="42.27934520043817" lon="14.035985098961401"><ele>224.0</ele><time>2026-05-03T11:29:42Z</time></trkpt><trkpt lat="42.27941335832422" lon="14.036147184857903"><ele>224.0</ele><time>2026-05-03T11:29:43Z</time></trkpt><trkpt lat="42.27947872654681" lon="14.036313975079503"><ele>224.0</ele><time>2026-05-03T11:29:44Z</time></trkpt><trkpt lat="42.279549642834446" lon="14.036476788864267"><ele>224.0</ele><time>2026-05-03T11:29:45Z</time></trkpt><trkpt lat="42.27962780471311" lon="14.036630072337244"><ele>224.0</ele><time>2026-05-03T11:29:46Z</time></trkpt><trkpt lat="42.2797097120352" lon="14.03678345839016"><ele>224.0</ele><time>2026-05-03T11:29:47Z</time></trkpt><trkpt lat="42.279786847237915" lon="14.036939826754256"><ele>224.0</ele><time>2026-05-03T11:29:48Z</time></trkpt><trkpt lat="42.27986363297163" lon="14.037097781807049"><ele>224.0</ele><time>2026-05-03T11:29:49Z</time></trkpt><trkpt lat="42.279942664036675" lon="14.037253896178434"><ele>223.25</ele><time>2026-05-03T11:29:50Z</time></trkpt><trkpt lat="42.28000987240704" lon="14.037414365133406"><ele>222.5</ele><time>2026-05-03T11:29:51Z</time></trkpt><trkpt lat="42.280075514935966" lon="14.037565778561241"><ele>221.75</ele><time>2026-05-03T11:29:52Z</time></trkpt><trkpt lat="42.28014820268121" lon="14.037712127276759"><ele>221.0</ele><time>2026-05-03T11:29:53Z</time></trkpt><trkpt lat="42.28022755251826" lon="14.03786364300229"><ele>221.0</ele><time>2026-05-03T11:29:54Z</time></trkpt><trkpt lat="42.280308519320755" lon="14.038015285783576"><ele>221.0</ele><time>2026-05-03T11:29:55Z</time></trkpt><trkpt lat="42.280408845087486" lon="14.03816159826772"><ele>221.0</ele><time>2026-05-03T11:29:56Z</time></trkpt><trkpt lat="42.28050854630655" lon="14.038307443728815"><ele>221.0</ele><time>2026-05-03T11:29:57Z</time></trkpt><trkpt lat="42.280611656162215" lon="14.03844849933685"><ele>218.33333333333334</ele><time>2026-05-03T11:29:58Z</time></trkpt><trkpt lat="42.28071638542764" lon="14.038594567662859"><ele>215.66666666666669</ele><time>2026-05-03T11:29:59Z</time></trkpt><trkpt lat="42.28082451366161" lon="14.038739086240886"><ele>213.0</ele><time>2026-05-03T11:30:00Z</time></trkpt><trkpt lat="42.280934537676906" lon="14.038876086329843"><ele>213.0</ele><time>2026-05-03T11:30:01Z</time></trkpt><trkpt lat="42.28105145402296" lon="14.039002921967816"><ele>213.0</ele><time>2026-05-03T11:30:02Z</time></trkpt><trkpt lat="42.281175536232105" lon="14.0391140011805"><ele>213.0</ele><time>2026-05-03T11:30:03Z</time></trkpt><trkpt lat="42.281304712839514" lon="14.03921612976972"><ele>213.0</ele><time>2026-05-03T11:30:04Z</time></trkpt><trkpt lat="42.281437268796914" lon="14.03930780512291"><ele>212.75</ele><time>2026-05-03T11:30:05Z</time></trkpt><trkpt lat="42.281568347415416" lon="14.039388560886152"><ele>212.5</ele><time>2026-05-03T11:30:06Z</time></trkpt><trkpt lat="42.281707884445034" lon="14.039458821432376"><ele>212.25</ele><time>2026-05-03T11:30:07Z</time></trkpt><trkpt lat="42.28185069363287" lon="14.039523915217355"><ele>212.0</ele><time>2026-05-03T11:30:08Z</time></trkpt><trkpt lat="42.28198410103993" lon="14.039590596682597"><ele>212.0</ele><time>2026-05-03T11:30:09Z</time></trkpt><trkpt lat="42.282103167040646" lon="14.039678055553885"><ele>212.0</ele><time>2026-05-03T11:30:10Z</time></trkpt><trkpt lat="42.2822119970327" lon="14.039788848778649"><ele>212.0</ele><time>2026-05-03T11:30:11Z</time></trkpt><trkpt lat="42.282318879420224" lon="14.039898490364875"><ele>212.0</ele><time>2026-05-03T11:30:12Z</time></trkpt><trkpt lat="42.282438311309505" lon="14.03999576303858"><ele>211.0</ele><time>2026-05-03T11:30:13Z</time></trkpt><trkpt lat="42.28252096275765" lon="14.04017215243787"><ele>210.0</ele><time>2026-05-03T11:30:14Z</time></trkpt><trkpt lat="42.28261838537943" lon="14.040306572658986"><ele>209.0</ele><time>2026-05-03T11:30:15Z</time></trkpt><trkpt lat="42.28271069627292" lon="14.040435606908904"><ele>208.0</ele><time>2026-05-03T11:30:16Z</time></trkpt><trkpt lat="42.28279735556083" lon="14.040561134771302"><ele>208.0</ele><time>2026-05-03T11:30:17Z</time></trkpt><trkpt lat="42.28287564678362" lon="14.040690666079524"><ele>208.0</ele><time>2026-05-03T11:30:18Z</time></trkpt><trkpt lat="42.28293031777997" lon="14.0408483901883"><ele>208.0</ele><time>2026-05-03T11:30:19Z</time></trkpt><trkpt lat="42.28297114635833" lon="14.041023549656149"><ele>208.0</ele><time>2026-05-03T11:30:20Z</time></trkpt><trkpt lat="42.283004317668144" lon="14.041183419829318"><ele>207.0</ele><time>2026-05-03T11:30:21Z</time></trkpt><trkpt lat="42.28304500200878" lon="14.041323369125182"><ele>206.0</ele><time>2026-05-03T11:30:22Z</time></trkpt><trkpt lat="42.28310753351544" lon="14.041448202527961"><ele>205.0</ele><time>2026-05-03T11:30:23Z</time></trkpt><trkpt lat="42.28319337299375" lon="14.041539267778637"><ele>204.0</ele><time>2026-05-03T11:30:24Z</time></trkpt><trkpt lat="42.28330743820495" lon="14.04158347443621"><ele>204.0</ele><time>2026-05-03T11:30:25Z</time></trkpt><trkpt lat="42.28343694882705" lon="14.041584231513388"><ele>204.0</ele><time>2026-05-03T11:30:26Z</time></trkpt><trkpt lat="42.28356696345102" lon="14.041576857006"><ele>204.0</ele><time>2026-05-03T11:30:27Z</time></trkpt><trkpt lat="42.28369459395414" lon="14.041585549046886"><ele>204.0</ele><time>2026-05-03T11:30:28Z</time></trkpt><trkpt lat="42.283815338733966" lon="14.041601451861526"><ele>203.25</ele><time>2026-05-03T11:30:29Z</time></trkpt><trkpt lat="42.283938529313374" lon="14.041629608146952"><ele>202.5</ele><time>2026-05-03T11:30:30Z</time></trkpt><trkpt lat="42.28406338333908" lon="14.041678124204239"><ele>201.75</ele><time>2026-05-03T11:30:31Z</time></trkpt><trkpt lat="42.284194300758436" lon="14.0417389796218"><ele>201.0</ele><time>2026-05-03T11:30:32Z</time></trkpt><trkpt lat="42.284332755004684" lon="14.041795456627868"><ele>199.5</ele><time>2026-05-03T11:30:33Z</time></trkpt><trkpt lat="42.28447757595051" lon="14.041852904213611"><ele>198.0</ele><time>2026-05-03T11:30:34Z</time></trkpt><trkpt lat="42.28462088392194" lon="14.04190409142956"><ele>196.5</ele><time>2026-05-03T11:30:35Z</time></trkpt><trkpt lat="42.2847539919486" lon="14.041952051083886"><ele>195.0</ele><time>2026-05-03T11:30:36Z</time></trkpt><trkpt lat="42.284886761658505" lon="14.041995891296136"><ele>192.75</ele><time>2026-05-03T11:30:37Z</time></trkpt><trkpt lat="42.285013898167634" lon="14.042040900043443"><ele>190.5</ele><time>2026-05-03T11:30:38Z</time></trkpt><trkpt lat="42.28513707553837" lon="14.04209522529389"><ele>188.25</ele><time>2026-05-03T11:30:39Z</time></trkpt><trkpt lat="42.28525520132411" lon="14.04214641689708"><ele>186.0</ele><time>2026-05-03T11:30:40Z</time></trkpt><trkpt lat="42.28537641521877" lon="14.042193005675458"><ele>186.0</ele><time>2026-05-03T11:30:41Z</time></trkpt><trkpt lat="42.28549780066044" lon="14.042231511314982"><ele>186.0</ele><time>2026-05-03T11:30:42Z</time></trkpt><trkpt lat="42.28562732276753" lon="14.042256404953967"><ele>186.0</ele><time>2026-05-03T11:30:43Z</time></trkpt><trkpt lat="42.28576672988966" lon="14.042274315544903"><ele>186.0</ele><time>2026-05-03T11:30:44Z</time></trkpt><trkpt lat="42.28590814961148" lon="14.042281265537298"><ele>185.25</ele><time>2026-05-03T11:30:45Z</time></trkpt><trkpt lat="42.28604896520976" lon="14.042304215407846"><ele>184.5</ele><time>2026-05-03T11:30:46Z</time></trkpt><trkpt lat="42.28617914240032" lon="14.042331844239294"><ele>183.75</ele><time>2026-05-03T11:30:47Z</time></trkpt><trkpt lat="42.28630355501167" lon="14.042364247531015"><ele>183.0</ele><time>2026-05-03T11:30:48Z</time></trkpt><trkpt lat="42.28643134802758" lon="14.042394697297109"><ele>181.75</ele><time>2026-05-03T11:30:49Z</time></trkpt><trkpt lat="42.28656610606375" lon="14.042430161560787"><ele>180.5</ele><time>2026-05-03T11:30:50Z</time></trkpt><trkpt lat="42.28669566250156" lon="14.042468482206306"><ele>179.25</ele><time>2026-05-03T11:30:51Z</time></trkpt><trkpt lat="42.28682837003439" lon="14.042514371560163"><ele>178.0</ele><time>2026-05-03T11:30:52Z</time></trkpt><trkpt lat="42.286965265870755" lon="14.042560537541318"><ele>176.0</ele><time>2026-05-03T11:30:53Z</time></trkpt><trkpt lat="42.287101851123744" lon="14.042607807179483"><ele>174.0</ele><time>2026-05-03T11:30:54Z</time></trkpt><trkpt lat="42.2872416405529" lon="14.042644618254915"><ele>172.0</ele><time>2026-05-03T11:30:55Z</time></trkpt><trkpt lat="42.287375366293894" lon="14.04268042974699"><ele>170.0</ele><time>2026-05-03T11:30:56Z</time></trkpt><trkpt lat="42.28750860427751" lon="14.042713457113031"><ele>169.0</ele><time>2026-05-03T11:30:57Z</time></trkpt><trkpt lat="42.287636244595056" lon="14.042743097866799"><ele>168.0</ele><time>2026-05-03T11:30:58Z</time></trkpt><trkpt lat="42.28776404293326" lon="14.04276792764337"><ele>167.0</ele><time>2026-05-03T11:30:59Z</time></trkpt><trkpt lat="42.287895170149845" lon="14.04278908077798"><ele>166.0</ele><time>2026-05-03T11:31:00Z</time></trkpt><trkpt lat="42.28802666861554" lon="14.04280157506495"><ele>164.0</ele><time>2026-05-03T11:31:01Z</time></trkpt><trkpt lat="42.28816009466422" lon="14.042809193216266"><ele>162.0</ele><time>2026-05-03T11:31:02Z</time></trkpt><trkpt lat="42.28829368366294" lon="14.042814977648009"><ele>160.0</ele><time>2026-05-03T11:31:03Z</time></trkpt><trkpt lat="42.28843280459189" lon="14.042815723948827"><ele>158.0</ele><time>2026-05-03T11:31:04Z</time></trkpt><trkpt lat="42.288576396047816" lon="14.04281251880009"><ele>158.0</ele><time>2026-05-03T11:31:05Z</time></trkpt><trkpt lat="42.28871828537205" lon="14.042807487143977"><ele>158.0</ele><time>2026-05-03T11:31:06Z</time></trkpt><trkpt lat="42.288859215044084" lon="14.042800167997694"><ele>158.0</ele><time>2026-05-03T11:31:07Z</time></trkpt><trkpt lat="42.28898481387676" lon="14.042787961472479"><ele>158.0</ele><time>2026-05-03T11:31:08Z</time></trkpt><trkpt lat="42.28909013542913" lon="14.042778560685045"><ele>156.20000000000002</ele><time>2026-05-03T11:31:09Z</time></trkpt><trkpt lat="42.289181975935065" lon="14.042778640209763"><ele>154.4</ele><time>2026-05-03T11:31:10Z</time></trkpt><trkpt lat="42.28924937092027" lon="14.042790377660188"><ele>152.60000000000002</ele><time>2026-05-03T11:31:11Z</time></trkpt><trkpt lat="42.289341842533304" lon="14.042858730224921"><ele>150.8</ele><time>2026-05-03T11:31:13Z</time></trkpt><trkpt lat="42.28930154530192" lon="14.043014461530472"><ele>149.0</ele><time>2026-05-03T11:31:15Z</time></trkpt><trkpt lat="42.2892267669542" lon="14.043044690552176"><ele>149.0</ele><time>2026-05-03T11:31:16Z</time></trkpt><trkpt lat="42.28915155777047" lon="14.043042800140457"><ele>149.0</ele><time>2026-05-03T11:31:17Z</time></trkpt><trkpt lat="42.28908247188301" lon="14.04304135674999"><ele>149.0</ele><time>2026-05-03T11:31:18Z</time></trkpt><trkpt lat="42.289022124214256" lon="14.04314030960017"><ele>149.0</ele><time>2026-05-03T11:31:20Z</time></trkpt><trkpt lat="42.289120488740494" lon="14.043249146380486"><ele>149.0</ele><time>2026-05-03T11:31:22Z</time></trkpt><trkpt lat="42.28921800881393" lon="14.043268357514988"><ele>149.0</ele><time>2026-05-03T11:31:23Z</time></trkpt><trkpt lat="42.28932504984593" lon="14.043276838628783"><ele>149.0</ele><time>2026-05-03T11:31:24Z</time></trkpt><trkpt lat="42.28943479269703" lon="14.043272125833717"><ele>149.0</ele><time>2026-05-03T11:31:25Z</time></trkpt><trkpt lat="42.28955684969727" lon="14.043253804324896"><ele>149.0</ele><time>2026-05-03T11:31:26Z</time></trkpt><trkpt lat="42.28968720407768" lon="14.043216099051287"><ele>145.75</ele><time>2026-05-03T11:31:27Z</time></trkpt><trkpt lat="42.28982187353132" lon="14.043163688757948"><ele>142.5</ele><time>2026-05-03T11:31:28Z</time></trkpt><trkpt lat="42.28995250263605" lon="14.043111809019445"><ele>139.25</ele><time>2026-05-03T11:31:29Z</time></trkpt><trkpt lat="42.29007865471508" lon="14.04306477121425"><ele>136.0</ele><time>2026-05-03T11:31:30Z</time></trkpt><trkpt lat="42.290209951238005" lon="14.04302181838816"><ele>136.0</ele><time>2026-05-03T11:31:31Z</time></trkpt><trkpt lat="42.29032629113129" lon="14.043005380213483"><ele>136.0</ele><time>2026-05-03T11:31:32Z</time></trkpt><trkpt lat="42.290413666536296" lon="14.042996659216861"><ele>136.0</ele><time>2026-05-03T11:31:33Z</time></trkpt><trkpt lat="42.29051638029088" lon="14.043001729339425"><ele>136.0</ele><time>2026-05-03T11:31:35Z</time></trkpt><trkpt lat="42.290546967716985" lon="14.043130869334865"><ele>136.0</ele><time>2026-05-03T11:31:37Z</time></trkpt><trkpt lat="42.29050104825716" lon="14.043201767722772"><ele>136.0</ele><time>2026-05-03T11:31:38Z</time></trkpt><trkpt lat="42.29043049806391" lon="14.043249860374525"><ele>136.0</ele><time>2026-05-03T11:31:39Z</time></trkpt><trkpt lat="42.29034625012819" lon="14.043297920960757"><ele>136.0</ele><time>2026-05-03T11:31:40Z</time></trkpt><trkpt lat="42.2902585605128" lon="14.043365442879406"><ele>136.0</ele><time>2026-05-03T11:31:41Z</time></trkpt><trkpt lat="42.29018034804307" lon="14.043446469809806"><ele>136.0</ele><time>2026-05-03T11:31:42Z</time></trkpt><trkpt lat="42.29011022675877" lon="14.043526384588965"><ele>132.83333333333334</ele><time>2026-05-03T11:31:43Z</time></trkpt><trkpt lat="42.290045903445076" lon="14.04359872092592"><ele>129.66666666666669</ele><time>2026-05-03T11:31:44Z</time></trkpt><trkpt lat="42.289990014950334" lon="14.043667338529364"><ele>126.5</ele><time>2026-05-03T11:31:45Z</time></trkpt><trkpt lat="42.28994863106853" lon="14.04373471108948"><ele>123.33333333333334</ele><time>2026-05-03T11:31:46Z</time></trkpt><trkpt lat="42.28996580971671" lon="14.043884096383035"><ele>120.16666666666667</ele><time>2026-05-03T11:31:48Z</time></trkpt><trkpt lat="42.29002507454159" lon="14.043917109104136"><ele>117.0</ele><time>2026-05-03T11:31:49Z</time></trkpt><trkpt lat="42.29009645220998" lon="14.04389848221166"><ele>117.0</ele><time>2026-05-03T11:31:50Z</time></trkpt><trkpt lat="42.29020042235286" lon="14.043901304537084"><ele>117.0</ele><time>2026-05-03T11:31:52Z</time></trkpt><trkpt lat="42.29020757275516" lon="14.044003714629826"><ele>117.0</ele><time>2026-05-03T11:31:54Z</time></trkpt><trkpt lat="42.29011887061265" lon="14.044048743668592"><ele>117.0</ele><time>2026-05-03T11:31:56Z</time></trkpt><trkpt lat="42.29004133598488" lon="14.044042872987623"><ele>117.0</ele><time>2026-05-03T11:31:57Z</time></trkpt><trkpt lat="42.2899491524388" lon="14.044059583338765"><ele>117.0</ele><time>2026-05-03T11:31:58Z</time></trkpt><trkpt lat="42.28984505030145" lon="14.044099453393006"><ele>114.25</ele><time>2026-05-03T11:31:59Z</time></trkpt><trkpt lat="42.28973169798219" lon="14.044154462897696"><ele>111.5</ele><time>2026-05-03T11:32:00Z</time></trkpt><trkpt lat="42.28960828406971" lon="14.044210799490424"><ele>108.75</ele><time>2026-05-03T11:32:01Z</time></trkpt><trkpt lat="42.28947226122165" lon="14.044272083086176"><ele>106.0</ele><time>2026-05-03T11:32:02Z</time></trkpt><trkpt lat="42.28933365753391" lon="14.044336357606834"><ele>106.0</ele><time>2026-05-03T11:32:03Z</time></trkpt><trkpt lat="42.289187339935935" lon="14.044398492151744"><ele>106.0</ele><time>2026-05-03T11:32:04Z</time></trkpt><trkpt lat="42.28905433141349" lon="14.044472960623274"><ele>106.0</ele><time>2026-05-03T11:32:05Z</time></trkpt><trkpt lat="42.288935305737226" lon="14.044555485528699"><ele>106.0</ele><time>2026-05-03T11:32:06Z</time></trkpt><trkpt lat="42.288841627206175" lon="14.044638407890224"><ele>105.5</ele><time>2026-05-03T11:32:07Z</time></trkpt><trkpt lat="42.288742361393986" lon="14.044724929138717"><ele>105.0</ele><time>2026-05-03T11:32:08Z</time></trkpt><trkpt lat="42.28863479432163" lon="14.044799445161075"><ele>104.5</ele><time>2026-05-03T11:32:09Z</time></trkpt><trkpt lat="42.28862451574723" lon="14.045056612297609"><ele>104.0</ele><time>2026-05-03T11:32:10Z</time></trkpt><trkpt lat="42.28855475784269" lon="14.045201569984874"><ele>104.0</ele><time>2026-05-03T11:32:11Z</time></trkpt><trkpt lat="42.28847316513816" lon="14.04531327599222"><ele>104.0</ele><time>2026-05-03T11:32:12Z</time></trkpt><trkpt lat="42.28836978392514" lon="14.045381757579255"><ele>104.0</ele><time>2026-05-03T11:32:13Z</time></trkpt><trkpt lat="42.28824415793952" lon="14.04540683996707"><ele>104.0</ele><time>2026-05-03T11:32:14Z</time></trkpt><trkpt lat="42.28809918176736" lon="14.045418124530418"><ele>107.25</ele><time>2026-05-03T11:32:15Z</time></trkpt><trkpt lat="42.287948591760006" lon="14.045421602344405"><ele>110.5</ele><time>2026-05-03T11:32:16Z</time></trkpt><trkpt lat="42.28779912207021" lon="14.045435478444658"><ele>113.75</ele><time>2026-05-03T11:32:17Z</time></trkpt><trkpt lat="42.287666145596575" lon="14.0454854479049"><ele>117.0</ele><time>2026-05-03T11:32:18Z</time></trkpt><trkpt lat="42.28753631003614" lon="14.045564260490519"><ele>117.0</ele><time>2026-05-03T11:32:19Z</time></trkpt><trkpt lat="42.28741349804471" lon="14.045654100459036"><ele>117.0</ele><time>2026-05-03T11:32:20Z</time></trkpt><trkpt lat="42.28727802533508" lon="14.045739206137752"><ele>117.0</ele><time>2026-05-03T11:32:21Z</time></trkpt><trkpt lat="42.2871393727505" lon="14.045797027565424"><ele>117.0</ele><time>2026-05-03T11:32:22Z</time></trkpt><trkpt lat="42.28699868820825" lon="14.045841574548435"><ele>114.19999999999999</ele><time>2026-05-03T11:32:23Z</time></trkpt><trkpt lat="42.28688181787201" lon="14.045869145962998"><ele>111.39999999999999</ele><time>2026-05-03T11:32:24Z</time></trkpt><trkpt lat="42.286783684611024" lon="14.045885515166553"><ele>108.6</ele><time>2026-05-03T11:32:25Z</time></trkpt><trkpt lat="42.28670769046441" lon="14.045908422081219"><ele>105.80000000000001</ele><time>2026-05-03T11:32:26Z</time></trkpt><trkpt lat="42.28665015154127" lon="14.046022826897742"><ele>103.0</ele><time>2026-05-03T11:32:28Z</time></trkpt><trkpt lat="42.286671821609076" lon="14.04610287511625"><ele>103.00000000000001</ele><time>2026-05-03T11:32:29Z</time></trkpt><trkpt lat="42.28669981713056" lon="14.04618958552011"><ele>103.0</ele><time>2026-05-03T11:32:30Z</time></trkpt><trkpt lat="42.2867313329372" lon="14.046272350199361"><ele>103.0</ele><time>2026-05-03T11:32:31Z</time></trkpt><trkpt lat="42.28676918188255" lon="14.046371684638459"><ele>103.0</ele><time>2026-05-03T11:32:33Z</time></trkpt><trkpt lat="42.28669909326368" lon="14.046492699570855"><ele>103.00000000000001</ele><time>2026-05-03T11:32:36Z</time></trkpt><trkpt lat="42.28662712239188" lon="14.046528366355007"><ele>103.0</ele><time>2026-05-03T11:32:37Z</time></trkpt><trkpt lat="42.286541653807575" lon="14.046561673757642"><ele>103.0</ele><time>2026-05-03T11:32:38Z</time></trkpt><trkpt lat="42.286443735303365" lon="14.046607869210757"><ele>103.0</ele><time>2026-05-03T11:32:39Z</time></trkpt><trkpt lat="42.28634182452353" lon="14.046664492976552"><ele>103.0</ele><time>2026-05-03T11:32:40Z</time></trkpt><trkpt lat="42.2862222824088" lon="14.04673673167895"><ele>103.0</ele><time>2026-05-03T11:32:41Z</time></trkpt><trkpt lat="42.286091339407484" lon="14.046818533655397"><ele>100.33333333333334</ele><time>2026-05-03T11:32:42Z</time></trkpt><trkpt lat="42.28595235387781" lon="14.046898359153587"><ele>97.66666666666667</ele><time>2026-05-03T11:32:43Z</time></trkpt><trkpt lat="42.28580876136888" lon="14.046977965461094"><ele>95.0</ele><time>2026-05-03T11:32:44Z</time></trkpt><trkpt lat="42.285667173404654" lon="14.047066044138525"><ele>95.0</ele><time>2026-05-03T11:32:45Z</time></trkpt><trkpt lat="42.28552672430333" lon="14.04716094903205"><ele>95.0</ele><time>2026-05-03T11:32:46Z</time></trkpt><trkpt lat="42.28538619778456" lon="14.047249633286073"><ele>95.0</ele><time>2026-05-03T11:32:47Z</time></trkpt><trkpt lat="42.285251406633556" lon="14.047327557061651"><ele>95.0</ele><time>2026-05-03T11:32:48Z</time></trkpt><trkpt lat="42.285121693359166" lon="14.04739041708232"><ele>95.0</ele><time>2026-05-03T11:32:49Z</time></trkpt><trkpt lat="42.28501452851212" lon="14.047439584082937"><ele>95.0</ele><time>2026-05-03T11:32:50Z</time></trkpt><trkpt lat="42.28492499979541" lon="14.04748806902535"><ele>95.0</ele><time>2026-05-03T11:32:51Z</time></trkpt><trkpt lat="42.28484750449565" lon="14.047529568712275"><ele>95.0</ele><time>2026-05-03T11:32:52Z</time></trkpt><trkpt lat="42.284773686242616" lon="14.047560402463375"><ele>95.66666666666667</ele><time>2026-05-03T11:32:53Z</time></trkpt><trkpt lat="42.28467181670786" lon="14.047608639885304"><ele>96.33333333333334</ele><time>2026-05-03T11:32:55Z</time></trkpt><trkpt lat="42.2846786465909" lon="14.047698503996111"><ele>97.0</ele><time>2026-05-03T11:32:57Z</time></trkpt><trkpt lat="42.28477701806786" lon="14.047726563611242"><ele>97.66666666666667</ele><time>2026-05-03T11:32:59Z</time></trkpt><trkpt lat="42.28483997080806" lon="14.047697438016145"><ele>98.33333333333333</ele><time>2026-05-03T11:33:00Z</time></trkpt><trkpt lat="42.284907480361234" lon="14.047669620998906"><ele>99.0</ele><time>2026-05-03T11:33:01Z</time></trkpt><trkpt lat="42.28498903425417" lon="14.047650988156716"><ele>99.33333333333333</ele><time>2026-05-03T11:33:02Z</time></trkpt><trkpt lat="42.28507112390191" lon="14.04765347816002"><ele>99.66666666666666</ele><time>2026-05-03T11:33:03Z</time></trkpt><trkpt lat="42.2851369984208" lon="14.047681077419945"><ele>100.0</ele><time>2026-05-03T11:33:04Z</time></trkpt><trkpt lat="42.285200395087436" lon="14.047727923901062"><ele>100.33333333333333</ele><time>2026-05-03T11:33:05Z</time></trkpt><trkpt lat="42.28525851367237" lon="14.04780227490961"><ele>100.66666666666666</ele><time>2026-05-03T11:33:06Z</time></trkpt><trkpt lat="42.28532028152119" lon="14.047873883875633"><ele>101.0</ele><time>2026-05-03T11:33:07Z</time></trkpt><trkpt lat="42.28539484662115" lon="14.047896275298516"><ele>101.0</ele><time>2026-05-03T11:33:08Z</time></trkpt><trkpt lat="42.285475018669864" lon="14.047870975728781"><ele>101.0</ele><time>2026-05-03T11:33:09Z</time></trkpt><trkpt lat="42.28555341104577" lon="14.047794124490572"><ele>101.0</ele><time>2026-05-03T11:33:10Z</time></trkpt><trkpt lat="42.28564246704741" lon="14.047719912297497"><ele>101.0</ele><time>2026-05-03T11:33:11Z</time></trkpt><trkpt lat="42.285727187978324" lon="14.047643133642676"><ele>101.0</ele><time>2026-05-03T11:33:12Z</time></trkpt><trkpt lat="42.285819755933765" lon="14.047588382348932"><ele>101.8</ele><time>2026-05-03T11:33:13Z</time></trkpt><trkpt lat="42.28591095546069" lon="14.047541471065424"><ele>102.6</ele><time>2026-05-03T11:33:14Z</time></trkpt><trkpt lat="42.28600852203281" lon="14.047513100401007"><ele>103.4</ele><time>2026-05-03T11:33:15Z</time></trkpt><trkpt lat="42.28611230492621" lon="14.047498400439075"><ele>104.2</ele><time>2026-05-03T11:33:16Z</time></trkpt><trkpt lat="42.2862111606246" lon="14.047502577453677"><ele>105.0</ele><time>2026-05-03T11:33:17Z</time></trkpt><trkpt lat="42.28630764046408" lon="14.047519051745901"><ele>105.0</ele><time>2026-05-03T11:33:18Z</time></trkpt><trkpt lat="42.28640220888823" lon="14.047561592848195"><ele>105.0</ele><time>2026-05-03T11:33:19Z</time></trkpt><trkpt lat="42.286502012981906" lon="14.047615854436682"><ele>105.0</ele><time>2026-05-03T11:33:20Z</time></trkpt><trkpt lat="42.28659777025033" lon="14.04767734631042"><ele>105.0</ele><time>2026-05-03T11:33:21Z</time></trkpt><trkpt lat="42.28670192711061" lon="14.047757992734473"><ele>105.0</ele><time>2026-05-03T11:33:22Z</time></trkpt><trkpt lat="42.28680233114044" lon="14.047837124519134"><ele>105.5</ele><time>2026-05-03T11:33:23Z</time></trkpt><trkpt lat="42.28691102964242" lon="14.04790775806782"><ele>106.0</ele><time>2026-05-03T11:33:24Z</time></trkpt><trkpt lat="42.28702950355969" lon="14.047947706047319"><ele>106.5</ele><time>2026-05-03T11:33:25Z</time></trkpt><trkpt lat="42.287153577523334" lon="14.047967493458474"><ele>107.0</ele><time>2026-05-03T11:33:26Z</time></trkpt><trkpt lat="42.28727567773972" lon="14.047978249082941"><ele>107.0</ele><time>2026-05-03T11:33:27Z</time></trkpt><trkpt lat="42.28739503220068" lon="14.047988037277543"><ele>107.0</ele><time>2026-05-03T11:33:28Z</time></trkpt><trkpt lat="42.287516086653106" lon="14.047989511029652"><ele>107.0</ele><time>2026-05-03T11:33:29Z</time></trkpt><trkpt lat="42.28764226906163" lon="14.047972503504605"><ele>107.0</ele><time>2026-05-03T11:33:30Z</time></trkpt><trkpt lat="42.28777258738249" lon="14.04794404601"><ele>107.0</ele><time>2026-05-03T11:33:31Z</time></trkpt><trkpt lat="42.28790444793445" lon="14.047916258816347"><ele>107.0</ele><time>2026-05-03T11:33:32Z</time></trkpt><trkpt lat="42.28803778670498" lon="14.047889910085283"><ele>107.0</ele><time>2026-05-03T11:33:33Z</time></trkpt><trkpt lat="42.288166276223144" lon="14.047869882835462"><ele>107.0</ele><time>2026-05-03T11:33:34Z</time></trkpt><trkpt lat="42.288288010040354" lon="14.047872018892768"><ele>108.75</ele><time>2026-05-03T11:33:35Z</time></trkpt><trkpt lat="42.28840551541442" lon="14.047888607004767"><ele>110.5</ele><time>2026-05-03T11:33:36Z</time></trkpt><trkpt lat="42.28853008491143" lon="14.047916319668603"><ele>112.25</ele><time>2026-05-03T11:33:37Z</time></trkpt><trkpt lat="42.28865959160603" lon="14.047930181164404"><ele>114.0</ele><time>2026-05-03T11:33:38Z</time></trkpt><trkpt lat="42.28879692954778" lon="14.04793855771902"><ele>115.25</ele><time>2026-05-03T11:33:39Z</time></trkpt><trkpt lat="42.288936919524645" lon="14.047946384339463"><ele>116.5</ele><time>2026-05-03T11:33:40Z</time></trkpt><trkpt lat="42.28907568091378" lon="14.047976192086896"><ele>117.75</ele><time>2026-05-03T11:33:41Z</time></trkpt><trkpt lat="42.289214747773116" lon="14.04799927970786"><ele>119.0</ele><time>2026-05-03T11:33:42Z</time></trkpt><trkpt lat="42.28935487916457" lon="14.048021592838252"><ele>119.0</ele><time>2026-05-03T11:33:43Z</time></trkpt><trkpt lat="42.289489237742124" lon="14.04804755679187"><ele>119.0</ele><time>2026-05-03T11:33:44Z</time></trkpt><trkpt lat="42.2896201530558" lon="14.048081090166813"><ele>119.0</ele><time>2026-05-03T11:33:45Z</time></trkpt><trkpt lat="42.28975509600379" lon="14.04811481860762"><ele>119.0</ele><time>2026-05-03T11:33:46Z</time></trkpt><trkpt lat="42.28989065987724" lon="14.04813467781567"><ele>119.49999999999999</ele><time>2026-05-03T11:33:47Z</time></trkpt><trkpt lat="42.290018098689025" lon="14.048136818405178"><ele>120.0</ele><time>2026-05-03T11:33:48Z</time></trkpt><trkpt lat="42.2901193442979" lon="14.048137341255735"><ele>120.5</ele><time>2026-05-03T11:33:49Z</time></trkpt><trkpt lat="42.29019474148348" lon="14.048147386647745"><ele>121.0</ele><time>2026-05-03T11:33:50Z</time></trkpt><trkpt lat="42.29025447806997" lon="14.048189545370624"><ele>121.49999999999999</ele><time>2026-05-03T11:33:51Z</time></trkpt><trkpt lat="42.29030049230775" lon="14.04827046525635"><ele>122.0</ele><time>2026-05-03T11:33:52Z</time></trkpt><trkpt lat="42.29033464389082" lon="14.048384222783929"><ele>124.0</ele><time>2026-05-03T11:33:53Z</time></trkpt><trkpt lat="42.290365484962145" lon="14.048513027023093"><ele>125.99999999999999</ele><time>2026-05-03T11:33:54Z</time></trkpt><trkpt lat="42.290415850708214" lon="14.0486407889322"><ele>127.99999999999999</ele><time>2026-05-03T11:33:55Z</time></trkpt><trkpt lat="42.290476412577696" lon="14.048776399277589"><ele>130.0</ele><time>2026-05-03T11:33:56Z</time></trkpt><trkpt lat="42.29053921192589" lon="14.048917823038417"><ele>132.0</ele><time>2026-05-03T11:33:57Z</time></trkpt><trkpt lat="42.290611549932315" lon="14.049053533698741"><ele>136.75</ele><time>2026-05-03T11:33:58Z</time></trkpt><trkpt lat="42.29069289315006" lon="14.049200672906734"><ele>141.5</ele><time>2026-05-03T11:33:59Z</time></trkpt><trkpt lat="42.290780381312366" lon="14.049343373007101"><ele>146.25</ele><time>2026-05-03T11:34:00Z</time></trkpt><trkpt lat="42.29087105083211" lon="14.04948236723598"><ele>151.0</ele><time>2026-05-03T11:34:01Z</time></trkpt><trkpt lat="42.290960312843495" lon="14.049626639626618"><ele>151.0</ele><time>2026-05-03T11:34:02Z</time></trkpt><trkpt lat="42.2910437997399" lon="14.049762181569072"><ele>151.0</ele><time>2026-05-03T11:34:03Z</time></trkpt><trkpt lat="42.291126319224446" lon="14.049890563333504"><ele>151.0</ele><time>2026-05-03T11:34:04Z</time></trkpt><trkpt lat="42.29121588171236" lon="14.05001541309939"><ele>151.0</ele><time>2026-05-03T11:34:05Z</time></trkpt><trkpt lat="42.29131342069785" lon="14.050126967334288"><ele>152.4</ele><time>2026-05-03T11:34:06Z</time></trkpt><trkpt lat="42.291414550787586" lon="14.0502273696019"><ele>153.8</ele><time>2026-05-03T11:34:07Z</time></trkpt><trkpt lat="42.29150896011061" lon="14.0503087949312"><ele>155.20000000000002</ele><time>2026-05-03T11:34:08Z</time></trkpt><trkpt lat="42.29159359711165" lon="14.050371412969415"><ele>156.6</ele><time>2026-05-03T11:34:09Z</time></trkpt><trkpt lat="42.29169171171612" lon="14.050403693688757"><ele>158.0</ele><time>2026-05-03T11:34:10Z</time></trkpt><trkpt lat="42.29178755308273" lon="14.050408895255194"><ele>158.0</ele><time>2026-05-03T11:34:11Z</time></trkpt><trkpt lat="42.29186419442257" lon="14.050415907583945"><ele>158.0</ele><time>2026-05-03T11:34:12Z</time></trkpt><trkpt lat="42.29192886338497" lon="14.050459931270167"><ele>158.0</ele><time>2026-05-03T11:34:13Z</time></trkpt><trkpt lat="42.29197117018621" lon="14.050548987883072"><ele>158.0</ele><time>2026-05-03T11:34:14Z</time></trkpt><trkpt lat="42.29198417386777" lon="14.050664593449847"><ele>158.0</ele><time>2026-05-03T11:34:15Z</time></trkpt><trkpt lat="42.291994096341796" lon="14.050789738501294"><ele>158.0</ele><time>2026-05-03T11:34:16Z</time></trkpt><trkpt lat="42.29201259686963" lon="14.05092527329087"><ele>161.0</ele><time>2026-05-03T11:34:17Z</time></trkpt><trkpt lat="42.292045920652654" lon="14.051071810805928"><ele>164.0</ele><time>2026-05-03T11:34:18Z</time></trkpt><trkpt lat="42.292081911477574" lon="14.051226985999278"><ele>167.0</ele><time>2026-05-03T11:34:19Z</time></trkpt><trkpt lat="42.29211882981955" lon="14.051386825176527"><ele>170.0</ele><time>2026-05-03T11:34:20Z</time></trkpt><trkpt lat="42.29216358403123" lon="14.051536951466357"><ele>170.75</ele><time>2026-05-03T11:34:21Z</time></trkpt><trkpt lat="42.292215128674584" lon="14.051674462039848"><ele>171.5</ele><time>2026-05-03T11:34:22Z</time></trkpt><trkpt lat="42.29226538602573" lon="14.051824455556416"><ele>172.25</ele><time>2026-05-03T11:34:23Z</time></trkpt><trkpt lat="42.29231081421445" lon="14.051970608242318"><ele>173.0</ele><time>2026-05-03T11:34:24Z</time></trkpt><trkpt lat="42.29235307901103" lon="14.052104134063107"><ele>173.0</ele><time>2026-05-03T11:34:25Z</time></trkpt><trkpt lat="42.29238622353226" lon="14.052223023319259"><ele>173.0</ele><time>2026-05-03T11:34:26Z</time></trkpt><trkpt lat="42.29240383805924" lon="14.052327005631254"><ele>173.0</ele><time>2026-05-03T11:34:27Z</time></trkpt><trkpt lat="42.2924059257726" lon="14.052416206196485"><ele>173.0</ele><time>2026-05-03T11:34:28Z</time></trkpt><trkpt lat="42.29241761093084" lon="14.052509756790657"><ele>173.0</ele><time>2026-05-03T11:34:30Z</time></trkpt><trkpt lat="42.292478966069474" lon="14.052537582051327"><ele>173.0</ele><time>2026-05-03T11:34:33Z</time></trkpt><trkpt lat="42.29258194567334" lon="14.052493558028685"><ele>173.16666666666666</ele><time>2026-05-03T11:34:35Z</time></trkpt><trkpt lat="42.292652762974086" lon="14.052466639879578"><ele>173.33333333333331</ele><time>2026-05-03T11:34:36Z</time></trkpt><trkpt lat="42.29271992501554" lon="14.05247729900725"><ele>173.5</ele><time>2026-05-03T11:34:37Z</time></trkpt><trkpt lat="42.29278587313329" lon="14.052501587919464"><ele>173.66666666666666</ele><time>2026-05-03T11:34:38Z</time></trkpt><trkpt lat="42.2928512537264" lon="14.052541923928047"><ele>173.83333333333334</ele><time>2026-05-03T11:34:39Z</time></trkpt><trkpt lat="42.29292601457219" lon="14.052595502871084"><ele>174.0</ele><time>2026-05-03T11:34:40Z</time></trkpt><trkpt lat="42.293023261915145" lon="14.052652535337707"><ele>173.66666666666666</ele><time>2026-05-03T11:34:41Z</time></trkpt><trkpt lat="42.293121139162956" lon="14.052709669828268"><ele>173.33333333333334</ele><time>2026-05-03T11:34:42Z</time></trkpt><trkpt lat="42.293200512428015" lon="14.05276414881568"><ele>173.0</ele><time>2026-05-03T11:34:43Z</time></trkpt><trkpt lat="42.29325912216919" lon="14.052815595020201"><ele>172.66666666666669</ele><time>2026-05-03T11:34:44Z</time></trkpt><trkpt lat="42.29332066932605" lon="14.052891262557866"><ele>172.33333333333334</ele><time>2026-05-03T11:34:45Z</time></trkpt><trkpt lat="42.293382370480565" lon="14.052988407243388"><ele>172.0</ele><time>2026-05-03T11:34:46Z</time></trkpt><trkpt lat="42.293436715414416" lon="14.053102378244475"><ele>172.0</ele><time>2026-05-03T11:34:47Z</time></trkpt><trkpt lat="42.29349204432612" lon="14.053204405226824"><ele>172.0</ele><time>2026-05-03T11:34:48Z</time></trkpt><trkpt lat="42.29355782264572" lon="14.053304155507423"><ele>172.0</ele><time>2026-05-03T11:34:49Z</time></trkpt><trkpt lat="42.293614794619636" lon="14.05339072064955"><ele>172.0</ele><time>2026-05-03T11:34:50Z</time></trkpt><trkpt lat="42.29365968376882" lon="14.053460000061737"><ele>172.0</ele><time>2026-05-03T11:34:51Z</time></trkpt><trkpt lat="42.293693333877115" lon="14.053532341864422"><ele>172.0</ele><time>2026-05-03T11:34:52Z</time></trkpt><trkpt lat="42.29373259696014" lon="14.053604029888183"><ele>172.0</ele><time>2026-05-03T11:34:53Z</time></trkpt><trkpt lat="42.29379137588064" lon="14.053686469324195"><ele>172.0</ele><time>2026-05-03T11:34:54Z</time></trkpt><trkpt lat="42.29383866654662" lon="14.053773763745472"><ele>172.0</ele><time>2026-05-03T11:34:55Z</time></trkpt><trkpt lat="42.29387869652049" lon="14.053843405295165"><ele>172.0</ele><time>2026-05-03T11:34:56Z</time></trkpt><trkpt lat="42.293953284856464" lon="14.053975230134052"><ele>172.0</ele><time>2026-05-03T11:34:58Z</time></trkpt><trkpt lat="42.29400132760063" lon="14.054053482673458"><ele>172.0</ele><time>2026-05-03T11:34:59Z</time></trkpt><trkpt lat="42.29406178196816" lon="14.054129908791612"><ele>172.83333333333334</ele><time>2026-05-03T11:35:00Z</time></trkpt><trkpt lat="42.294123685773215" lon="14.05419705297596"><ele>173.66666666666669</ele><time>2026-05-03T11:35:01Z</time></trkpt><trkpt lat="42.29418974114958" lon="14.054270433409823"><ele>174.5</ele><time>2026-05-03T11:35:02Z</time></trkpt><trkpt lat="42.29426562133082" lon="14.054351259626095"><ele>175.33333333333334</ele><time>2026-05-03T11:35:03Z</time></trkpt><trkpt lat="42.29433252863031" lon="14.054414068747809"><ele>176.16666666666666</ele><time>2026-05-03T11:35:04Z</time></trkpt><trkpt lat="42.294398468402356" lon="14.054486424681055"><ele>177.0</ele><time>2026-05-03T11:35:05Z</time></trkpt><trkpt lat="42.29445861395917" lon="14.054544547495002"><ele>177.0</ele><time>2026-05-03T11:35:06Z</time></trkpt><trkpt lat="42.29451666376128" lon="14.054603338624785"><ele>177.0</ele><time>2026-05-03T11:35:07Z</time></trkpt><trkpt lat="42.294576848738366" lon="14.054670704365373"><ele>177.0</ele><time>2026-05-03T11:35:08Z</time></trkpt><trkpt lat="42.29463812320685" lon="14.054734171328786"><ele>177.0</ele><time>2026-05-03T11:35:09Z</time></trkpt><trkpt lat="42.294699017872865" lon="14.054799347902659"><ele>177.0</ele><time>2026-05-03T11:35:10Z</time></trkpt><trkpt lat="42.29476220774082" lon="14.05485474438044"><ele>177.0</ele><time>2026-05-03T11:35:11Z</time></trkpt><trkpt lat="42.29482018366779" lon="14.054901773438331"><ele>177.0</ele><time>2026-05-03T11:35:12Z</time></trkpt><trkpt lat="42.29488089524191" lon="14.054968921229213"><ele>176.5</ele><time>2026-05-03T11:35:13Z</time></trkpt><trkpt lat="42.29494329518586" lon="14.055035165018941"><ele>176.0</ele><time>2026-05-03T11:35:14Z</time></trkpt><trkpt lat="42.29500489416629" lon="14.05509549913495"><ele>175.5</ele><time>2026-05-03T11:35:15Z</time></trkpt><trkpt lat="42.295066144950795" lon="14.055139686367028"><ele>175.0</ele><time>2026-05-03T11:35:16Z</time></trkpt><trkpt lat="42.29512870365683" lon="14.055165343341475"><ele>174.5</ele><time>2026-05-03T11:35:17Z</time></trkpt><trkpt lat="42.29519164020033" lon="14.055172253161864"><ele>174.0</ele><time>2026-05-03T11:35:18Z</time></trkpt><trkpt lat="42.29532661283445" lon="14.055160942123061"><ele>174.0</ele><time>2026-05-03T11:35:20Z</time></trkpt><trkpt lat="42.29539401672905" lon="14.055159135491097"><ele>174.0</ele><time>2026-05-03T11:35:21Z</time></trkpt><trkpt lat="42.295520442408886" lon="14.05516677135179"><ele>174.0</ele><time>2026-05-03T11:35:23Z</time></trkpt><trkpt lat="42.29561975930101" lon="14.055174343476704"><ele>174.0</ele><time>2026-05-03T11:35:25Z</time></trkpt><trkpt lat="42.295692607506545" lon="14.055182118219543"><ele>174.0</ele><time>2026-05-03T11:35:28Z</time></trkpt><trkpt lat="42.295734712371406" lon="14.0552625587062"><ele>174.0</ele><time>2026-05-03T11:35:33Z</time></trkpt><trkpt lat="42.29572532114458" lon="14.055389024540593"><ele>173.33333333333334</ele><time>2026-05-03T11:35:36Z</time></trkpt><trkpt lat="42.29580279423792" lon="14.055462068860086"><ele>172.66666666666666</ele><time>2026-05-03T11:35:38Z</time></trkpt><trkpt lat="42.29586798411042" lon="14.055515645639362"><ele>172.0</ele><time>2026-05-03T11:35:39Z</time></trkpt><trkpt lat="42.29591450138325" lon="14.055594326818806"><ele>171.33333333333331</ele><time>2026-05-03T11:35:40Z</time></trkpt><trkpt lat="42.29595860953391" lon="14.055689519957328"><ele>170.66666666666666</ele><time>2026-05-03T11:35:41Z</time></trkpt><trkpt lat="42.29600452846776" lon="14.055800095362253"><ele>170.0</ele><time>2026-05-03T11:35:42Z</time></trkpt><trkpt lat="42.296045908388614" lon="14.055891591841954"><ele>170.0</ele><time>2026-05-03T11:35:43Z</time></trkpt><trkpt lat="42.296090517629864" lon="14.055987135884095"><ele>170.0</ele><time>2026-05-03T11:35:44Z</time></trkpt><trkpt lat="42.29612920828585" lon="14.056081139302647"><ele>170.0</ele><time>2026-05-03T11:35:45Z</time></trkpt><trkpt lat="42.29617043841519" lon="14.056173007828976"><ele>170.0</ele><time>2026-05-03T11:35:46Z</time></trkpt><trkpt lat="42.296210267480724" lon="14.056263815282636"><ele>170.0</ele><time>2026-05-03T11:35:47Z</time></trkpt><trkpt lat="42.296257173242154" lon="14.056367304650985"><ele>170.0</ele><time>2026-05-03T11:35:48Z</time></trkpt><trkpt lat="42.29630137439194" lon="14.056478415377947"><ele>170.0</ele><time>2026-05-03T11:35:49Z</time></trkpt><trkpt lat="42.29636262486642" lon="14.056595684002"><ele>170.0</ele><time>2026-05-03T11:35:50Z</time></trkpt><trkpt lat="42.29641130013372" lon="14.056695166387689"><ele>170.0</ele><time>2026-05-03T11:35:51Z</time></trkpt><trkpt lat="42.29646220587346" lon="14.056791921500858"><ele>170.0</ele><time>2026-05-03T11:35:52Z</time></trkpt><trkpt lat="42.2965148061304" lon="14.056884935967071"><ele>170.0</ele><time>2026-05-03T11:35:53Z</time></trkpt><trkpt lat="42.296564218626806" lon="14.05698160300345"><ele>169.0</ele><time>2026-05-03T11:35:54Z</time></trkpt><trkpt lat="42.29661365574535" lon="14.057069937962767"><ele>168.0</ele><time>2026-05-03T11:35:55Z</time></trkpt><trkpt lat="42.296657688648594" lon="14.057163510684342"><ele>167.0</ele><time>2026-05-03T11:35:56Z</time></trkpt><trkpt lat="42.29671305949508" lon="14.057259626085006"><ele>166.0</ele><time>2026-05-03T11:35:57Z</time></trkpt><trkpt lat="42.29676459043279" lon="14.05736479987731"><ele>165.0</ele><time>2026-05-03T11:35:58Z</time></trkpt><trkpt lat="42.29682079429556" lon="14.057461582876149"><ele>164.0</ele><time>2026-05-03T11:35:59Z</time></trkpt><trkpt lat="42.296866496721606" lon="14.057565741616672"><ele>163.39999999999998</ele><time>2026-05-03T11:36:00Z</time></trkpt><trkpt lat="42.29691391893868" lon="14.057680688995026"><ele>162.8</ele><time>2026-05-03T11:36:01Z</time></trkpt><trkpt lat="42.296964350761186" lon="14.0577918409232"><ele>162.2</ele><time>2026-05-03T11:36:02Z</time></trkpt><trkpt lat="42.297012353315424" lon="14.057888504029924"><ele>161.60000000000002</ele><time>2026-05-03T11:36:03Z</time></trkpt><trkpt lat="42.297067599850955" lon="14.057995417189934"><ele>161.0</ele><time>2026-05-03T11:36:04Z</time></trkpt><trkpt lat="42.29712128755204" lon="14.058099693518633"><ele>161.0</ele><time>2026-05-03T11:36:05Z</time></trkpt><trkpt lat="42.29717193808251" lon="14.058196258733648"><ele>161.0</ele><time>2026-05-03T11:36:06Z</time></trkpt><trkpt lat="42.297212142473455" lon="14.058285988546498"><ele>161.0</ele><time>2026-05-03T11:36:07Z</time></trkpt><trkpt lat="42.29725497303272" lon="14.058375058069599"><ele>161.0</ele><time>2026-05-03T11:36:09Z</time></trkpt><trkpt lat="42.29729959535345" lon="14.05845672934891"><ele>161.0</ele><time>2026-05-03T11:36:12Z</time></trkpt><trkpt lat="42.29741066969269" lon="14.058539615201486"><ele>161.0</ele><time>2026-05-03T11:36:14Z</time></trkpt><trkpt lat="42.29749487821859" lon="14.05857205391542"><ele>160.4</ele><time>2026-05-03T11:36:15Z</time></trkpt><trkpt lat="42.297586723282855" lon="14.058610013309767"><ele>159.8</ele><time>2026-05-03T11:36:16Z</time></trkpt><trkpt lat="42.29769024587048" lon="14.05865190947834"><ele>159.20000000000002</ele><time>2026-05-03T11:36:17Z</time></trkpt><trkpt lat="42.29780003552823" lon="14.058699543869182"><ele>158.60000000000002</ele><time>2026-05-03T11:36:18Z</time></trkpt><trkpt lat="42.29791796550816" lon="14.05874778975429"><ele>158.0</ele><time>2026-05-03T11:36:19Z</time></trkpt><trkpt lat="42.29804597285231" lon="14.058806698516387"><ele>157.25</ele><time>2026-05-03T11:36:20Z</time></trkpt><trkpt lat="42.29817021748246" lon="14.058868937332948"><ele>156.5</ele><time>2026-05-03T11:36:21Z</time></trkpt><trkpt lat="42.29829333630107" lon="14.058928056296015"><ele>155.75</ele><time>2026-05-03T11:36:22Z</time></trkpt><trkpt lat="42.29841174797227" lon="14.058982837469637"><ele>155.0</ele><time>2026-05-03T11:36:23Z</time></trkpt><trkpt lat="42.298525307465624" lon="14.059036074243075"><ele>155.0</ele><time>2026-05-03T11:36:24Z</time></trkpt><trkpt lat="42.298633931531256" lon="14.059085183658441"><ele>155.0</ele><time>2026-05-03T11:36:25Z</time></trkpt><trkpt lat="42.298732723746" lon="14.059132065038014"><ele>155.0</ele><time>2026-05-03T11:36:26Z</time></trkpt><trkpt lat="42.298825273862036" lon="14.059176377247354"><ele>155.0</ele><time>2026-05-03T11:36:27Z</time></trkpt><trkpt lat="42.29890733742285" lon="14.059216981290042"><ele>155.0</ele><time>2026-05-03T11:36:28Z</time></trkpt><trkpt lat="42.29897364171331" lon="14.05925062700109"><ele>154.6</ele><time>2026-05-03T11:36:29Z</time></trkpt><trkpt lat="42.29905173987813" lon="14.059343380683075"><ele>154.2</ele><time>2026-05-03T11:36:31Z</time></trkpt><trkpt lat="42.29896546094755" lon="14.059457388715574"><ele>153.8</ele><time>2026-05-03T11:36:33Z</time></trkpt><trkpt lat="42.29888926117029" lon="14.059466041158649"><ele>153.4</ele><time>2026-05-03T11:36:34Z</time></trkpt><trkpt lat="42.29880545032567" lon="14.059462296636767"><ele>153.0</ele><time>2026-05-03T11:36:35Z</time></trkpt><trkpt lat="42.29871060702683" lon="14.05946653824581"><ele>153.0</ele><time>2026-05-03T11:36:36Z</time></trkpt><trkpt lat="42.29860913775981" lon="14.059456224408128"><ele>153.0</ele><time>2026-05-03T11:36:37Z</time></trkpt><trkpt lat="42.29850807943952" lon="14.059421424812712"><ele>153.0</ele><time>2026-05-03T11:36:38Z</time></trkpt><trkpt lat="42.29840337651267" lon="14.05935973374309"><ele>153.0</ele><time>2026-05-03T11:36:39Z</time></trkpt><trkpt lat="42.29830734037014" lon="14.059274657387451"><ele>153.0</ele><time>2026-05-03T11:36:40Z</time></trkpt><trkpt lat="42.298232513172906" lon="14.059177356951587"><ele>153.33333333333334</ele><time>2026-05-03T11:36:41Z</time></trkpt><trkpt lat="42.2981683514872" lon="14.059094587604918"><ele>153.66666666666666</ele><time>2026-05-03T11:36:42Z</time></trkpt><trkpt lat="42.29809077913965" lon="14.059038168028707"><ele>154.0</ele><time>2026-05-03T11:36:43Z</time></trkpt><trkpt lat="42.298006685274956" lon="14.059023803079375"><ele>154.33333333333331</ele><time>2026-05-03T11:36:44Z</time></trkpt><trkpt lat="42.29792068072382" lon="14.059056005678517"><ele>154.66666666666666</ele><time>2026-05-03T11:36:45Z</time></trkpt><trkpt lat="42.2978582447267" lon="14.059155802624419"><ele>155.0</ele><time>2026-05-03T11:36:46Z</time></trkpt><trkpt lat="42.29783337993698" lon="14.059274134871599"><ele>154.6</ele><time>2026-05-03T11:36:47Z</time></trkpt><trkpt lat="42.29785184475818" lon="14.059381351448028"><ele>154.2</ele><time>2026-05-03T11:36:48Z</time></trkpt><trkpt lat="42.29790625012482" lon="14.059468162793838"><ele>153.8</ele><time>2026-05-03T11:36:49Z</time></trkpt><trkpt lat="42.29799674988808" lon="14.05954576738049"><ele>153.4</ele><time>2026-05-03T11:36:50Z</time></trkpt><trkpt lat="42.298097245005245" lon="14.05961927457051"><ele>153.0</ele><time>2026-05-03T11:36:51Z</time></trkpt><trkpt lat="42.29820546094592" lon="14.059712697452813"><ele>153.0</ele><time>2026-05-03T11:36:52Z</time></trkpt><trkpt lat="42.298322148789296" lon="14.059819939276665"><ele>153.0</ele><time>2026-05-03T11:36:53Z</time></trkpt><trkpt lat="42.298442971773525" lon="14.059938739508079"><ele>153.0</ele><time>2026-05-03T11:36:54Z</time></trkpt><trkpt lat="42.29856197385458" lon="14.060044114588873"><ele>153.0</ele><time>2026-05-03T11:36:55Z</time></trkpt><trkpt lat="42.2987006009621" lon="14.060174171829962"><ele>149.66666666666666</ele><time>2026-05-03T11:36:56Z</time></trkpt><trkpt lat="42.29883235635862" lon="14.060298181485662"><ele>146.33333333333331</ele><time>2026-05-03T11:36:57Z</time></trkpt><trkpt lat="42.29895716109986" lon="14.060419464181349"><ele>143.0</ele><time>2026-05-03T11:36:58Z</time></trkpt><trkpt lat="42.29908407019933" lon="14.060546503815376"><ele>143.0</ele><time>2026-05-03T11:36:59Z</time></trkpt><trkpt lat="42.299208346774726" lon="14.06068637986203"><ele>143.0</ele><time>2026-05-03T11:37:00Z</time></trkpt><trkpt lat="42.29933188990787" lon="14.06083868483277"><ele>143.0</ele><time>2026-05-03T11:37:01Z</time></trkpt><trkpt lat="42.299454645342934" lon="14.060999072543803"><ele>141.66666666666666</ele><time>2026-05-03T11:37:02Z</time></trkpt><trkpt lat="42.299577293312375" lon="14.061164488829247"><ele>140.33333333333334</ele><time>2026-05-03T11:37:03Z</time></trkpt><trkpt lat="42.29968802851866" lon="14.061342535909274"><ele>139.0</ele><time>2026-05-03T11:37:04Z</time></trkpt><trkpt lat="42.299800429754164" lon="14.061518853723404"><ele>131.66666666666669</ele><time>2026-05-03T11:37:05Z</time></trkpt><trkpt lat="42.29991423920302" lon="14.06169053653606"><ele>124.33333333333334</ele><time>2026-05-03T11:37:06Z</time></trkpt><trkpt lat="42.300025284795886" lon="14.061867025204634"><ele>117.0</ele><time>2026-05-03T11:37:07Z</time></trkpt><trkpt lat="42.300136344451545" lon="14.062042177809001"><ele>117.0</ele><time>2026-05-03T11:37:08Z</time></trkpt><trkpt lat="42.3002495748429" lon="14.062218043888072"><ele>117.0</ele><time>2026-05-03T11:37:09Z</time></trkpt><trkpt lat="42.30036433564123" lon="14.062396635982143"><ele>117.0</ele><time>2026-05-03T11:37:10Z</time></trkpt><trkpt lat="42.30048191152982" lon="14.062574798106752"><ele>115.66666666666666</ele><time>2026-05-03T11:37:11Z</time></trkpt><trkpt lat="42.300596373221325" lon="14.06274572387918"><ele>114.33333333333333</ele><time>2026-05-03T11:37:12Z</time></trkpt><trkpt lat="42.30071489082175" lon="14.062921401974421"><ele>113.0</ele><time>2026-05-03T11:37:13Z</time></trkpt><trkpt lat="42.3008311130399" lon="14.063089390945159"><ele>113.0</ele><time>2026-05-03T11:37:14Z</time></trkpt><trkpt lat="42.300961094102874" lon="14.063245715512421"><ele>113.0</ele><time>2026-05-03T11:37:15Z</time></trkpt><trkpt lat="42.30109696489344" lon="14.063387700915408"><ele>113.0</ele><time>2026-05-03T11:37:16Z</time></trkpt><trkpt lat="42.30123888895233" lon="14.06352129508762"><ele>113.0</ele><time>2026-05-03T11:37:17Z</time></trkpt><trkpt lat="42.30138410357921" lon="14.063660251472136"><ele>113.0</ele><time>2026-05-03T11:37:18Z</time></trkpt><trkpt lat="42.30152977983781" lon="14.063798293301875"><ele>113.0</ele><time>2026-05-03T11:37:19Z</time></trkpt><trkpt lat="42.301683070556045" lon="14.063928427581038"><ele>113.0</ele><time>2026-05-03T11:37:20Z</time></trkpt><trkpt lat="42.30183617473819" lon="14.0640596031349"><ele>113.0</ele><time>2026-05-03T11:37:21Z</time></trkpt><trkpt lat="42.30199396146504" lon="14.064183658379878"><ele>113.0</ele><time>2026-05-03T11:37:22Z</time></trkpt><trkpt lat="42.302153781822575" lon="14.064312324158502"><ele>108.33333333333333</ele><time>2026-05-03T11:37:23Z</time></trkpt><trkpt lat="42.30230609177145" lon="14.064427276240995"><ele>103.66666666666666</ele><time>2026-05-03T11:37:24Z</time></trkpt><trkpt lat="42.302470166996116" lon="14.064530205985971"><ele>99.0</ele><time>2026-05-03T11:37:25Z</time></trkpt><trkpt lat="42.30264328298795" lon="14.06461767817032"><ele>99.0</ele><time>2026-05-03T11:37:26Z</time></trkpt><trkpt lat="42.30281615415543" lon="14.064696338003815"><ele>99.0</ele><time>2026-05-03T11:37:27Z</time></trkpt><trkpt lat="42.30297348962445" lon="14.06476514078128"><ele>99.0</ele><time>2026-05-03T11:37:28Z</time></trkpt><trkpt lat="42.30312442724617" lon="14.064838557579577"><ele>103.0</ele><time>2026-05-03T11:37:29Z</time></trkpt><trkpt lat="42.303283294130786" lon="14.064911838492268"><ele>107.0</ele><time>2026-05-03T11:37:30Z</time></trkpt><trkpt lat="42.303436596138916" lon="14.064976353888165"><ele>111.0</ele><time>2026-05-03T11:37:31Z</time></trkpt><trkpt lat="42.30358074514899" lon="14.065033666098232"><ele>104.75</ele><time>2026-05-03T11:37:32Z</time></trkpt><trkpt lat="42.30371620735212" lon="14.065065181590553"><ele>98.5</ele><time>2026-05-03T11:37:33Z</time></trkpt><trkpt lat="42.30384826183258" lon="14.0650937605724"><ele>92.25</ele><time>2026-05-03T11:37:34Z</time></trkpt><trkpt lat="42.303966995109285" lon="14.065117764163679"><ele>86.0</ele><time>2026-05-03T11:37:35Z</time></trkpt><trkpt lat="42.304075145265806" lon="14.065145237923918"><ele>85.83333333333334</ele><time>2026-05-03T11:37:36Z</time></trkpt><trkpt lat="42.304167663941925" lon="14.06516872034311"><ele>85.66666666666667</ele><time>2026-05-03T11:37:37Z</time></trkpt><trkpt lat="42.304247550808725" lon="14.06519332903712"><ele>85.5</ele><time>2026-05-03T11:37:38Z</time></trkpt><trkpt lat="42.3043121096079" lon="14.065219244039366"><ele>85.33333333333333</ele><time>2026-05-03T11:37:39Z</time></trkpt><trkpt lat="42.30440594075142" lon="14.065264728969195"><ele>85.16666666666666</ele><time>2026-05-03T11:37:41Z</time></trkpt><trkpt lat="42.304480409759755" lon="14.065287435975788"><ele>85.0</ele><time>2026-05-03T11:37:42Z</time></trkpt><trkpt lat="42.30457908357989" lon="14.065298471548896"><ele>85.0</ele><time>2026-05-03T11:37:43Z</time></trkpt><trkpt lat="42.304690889081755" lon="14.065307554857474"><ele>85.0</ele><time>2026-05-03T11:37:44Z</time></trkpt><trkpt lat="42.30480540401253" lon="14.065309048292"><ele>85.0</ele><time>2026-05-03T11:37:45Z</time></trkpt><trkpt lat="42.304929027470926" lon="14.065305065200626"><ele>85.0</ele><time>2026-05-03T11:37:46Z</time></trkpt><trkpt lat="42.30505524907939" lon="14.065297096606335"><ele>84.75</ele><time>2026-05-03T11:37:47Z</time></trkpt><trkpt lat="42.30518194338359" lon="14.065281036141718"><ele>84.5</ele><time>2026-05-03T11:37:48Z</time></trkpt><trkpt lat="42.305302583360294" lon="14.065203378997419"><ele>84.25</ele><time>2026-05-03T11:37:49Z</time></trkpt><trkpt lat="42.30540531509627" lon="14.065085774201483"><ele>84.0</ele><time>2026-05-03T11:37:50Z</time></trkpt><trkpt lat="42.305491456242976" lon="14.064946178560982"><ele>83.25</ele><time>2026-05-03T11:37:51Z</time></trkpt><trkpt lat="42.30557518390867" lon="14.064810793050142"><ele>82.5</ele><time>2026-05-03T11:37:52Z</time></trkpt><trkpt lat="42.30566066556166" lon="14.064679240098007"><ele>81.75</ele><time>2026-05-03T11:37:53Z</time></trkpt><trkpt lat="42.305759963894566" lon="14.0645492999928"><ele>81.0</ele><time>2026-05-03T11:37:54Z</time></trkpt><trkpt lat="42.3058677771472" lon="14.064419145247927"><ele>81.0</ele><time>2026-05-03T11:37:55Z</time></trkpt><trkpt lat="42.305975844602315" lon="14.06428567631115"><ele>81.0</ele><time>2026-05-03T11:37:56Z</time></trkpt><trkpt lat="42.306084796818205" lon="14.064141424914324"><ele>81.0</ele><time>2026-05-03T11:37:57Z</time></trkpt><trkpt lat="42.306194984456226" lon="14.063997481063469"><ele>80.5</ele><time>2026-05-03T11:37:58Z</time></trkpt><trkpt lat="42.30629948314843" lon="14.06385441388226"><ele>80.0</ele><time>2026-05-03T11:37:59Z</time></trkpt><trkpt lat="42.30640633728884" lon="14.063716530556562"><ele>79.5</ele><time>2026-05-03T11:38:00Z</time></trkpt><trkpt lat="42.306513326688446" lon="14.06357702646373"><ele>79.0</ele><time>2026-05-03T11:38:01Z</time></trkpt><trkpt lat="42.30662155398232" lon="14.063434437239824"><ele>77.75</ele><time>2026-05-03T11:38:02Z</time></trkpt><trkpt lat="42.306728824178286" lon="14.063298395851437"><ele>76.5</ele><time>2026-05-03T11:38:03Z</time></trkpt><trkpt lat="42.30683528413139" lon="14.063164000038764"><ele>75.25</ele><time>2026-05-03T11:38:04Z</time></trkpt><trkpt lat="42.306936726917904" lon="14.06303546249709"><ele>74.0</ele><time>2026-05-03T11:38:05Z</time></trkpt><trkpt lat="42.30703451728881" lon="14.062908779479876"><ele>73.75</ele><time>2026-05-03T11:38:06Z</time></trkpt><trkpt lat="42.30712661204594" lon="14.06278504511337"><ele>73.5</ele><time>2026-05-03T11:38:07Z</time></trkpt><trkpt lat="42.307221776472474" lon="14.062668227502249"><ele>73.25</ele><time>2026-05-03T11:38:08Z</time></trkpt><trkpt lat="42.30730537072113" lon="14.062560949878943"><ele>73.0</ele><time>2026-05-03T11:38:09Z</time></trkpt><trkpt lat="42.30739631596142" lon="14.062437620427017"><ele>72.75</ele><time>2026-05-03T11:38:10Z</time></trkpt><trkpt lat="42.30748824336943" lon="14.062321152076612"><ele>72.5</ele><time>2026-05-03T11:38:11Z</time></trkpt><trkpt lat="42.3075773778871" lon="14.062201534063687"><ele>72.25</ele><time>2026-05-03T11:38:12Z</time></trkpt><trkpt lat="42.307657922421356" lon="14.062095491681054"><ele>72.0</ele><time>2026-05-03T11:38:13Z</time></trkpt><trkpt lat="42.307736476099116" lon="14.061995291708175"><ele>72.0</ele><time>2026-05-03T11:38:14Z</time></trkpt><trkpt lat="42.30780821387822" lon="14.061907111051347"><ele>72.0</ele><time>2026-05-03T11:38:15Z</time></trkpt><trkpt lat="42.307867257200954" lon="14.061835445144979"><ele>72.0</ele><time>2026-05-03T11:38:16Z</time></trkpt><trkpt lat="42.30791725669332" lon="14.061782693131795"><ele>72.0</ele><time>2026-05-03T11:38:17Z</time></trkpt><trkpt lat="42.30800838567422" lon="14.061726073150144"><ele>72.0</ele><time>2026-05-03T11:38:19Z</time></trkpt><trkpt lat="42.308088717532165" lon="14.061777493293237"><ele>72.0</ele><time>2026-05-03T11:38:21Z</time></trkpt><trkpt lat="42.30813868670501" lon="14.061855279237259"><ele>72.0</ele><time>2026-05-03T11:38:22Z</time></trkpt><trkpt lat="42.308183149176955" lon="14.06195850745556"><ele>72.0</ele><time>2026-05-03T11:38:23Z</time></trkpt><trkpt lat="42.30823364449498" lon="14.06208192126688"><ele>72.0</ele><time>2026-05-03T11:38:24Z</time></trkpt><trkpt lat="42.30828977006093" lon="14.062213752995248"><ele>72.0</ele><time>2026-05-03T11:38:25Z</time></trkpt><trkpt lat="42.30836788169923" lon="14.062360197228172"><ele>72.0</ele><time>2026-05-03T11:38:26Z</time></trkpt><trkpt lat="42.308446552894964" lon="14.062528471338323"><ele>72.33333333333333</ele><time>2026-05-03T11:38:27Z</time></trkpt><trkpt lat="42.30853165130331" lon="14.062689994040982"><ele>72.66666666666666</ele><time>2026-05-03T11:38:28Z</time></trkpt><trkpt lat="42.30861936217922" lon="14.062858802681491"><ele>73.0</ele><time>2026-05-03T11:38:29Z</time></trkpt><trkpt lat="42.308706374317794" lon="14.063035763992842"><ele>73.0</ele><time>2026-05-03T11:38:30Z</time></trkpt><trkpt lat="42.30879013169611" lon="14.063212945568466"><ele>73.0</ele><time>2026-05-03T11:38:31Z</time></trkpt><trkpt lat="42.30886932875805" lon="14.06338577620885"><ele>73.0</ele><time>2026-05-03T11:38:32Z</time></trkpt><trkpt lat="42.308946767111216" lon="14.063548794268831"><ele>73.0</ele><time>2026-05-03T11:38:33Z</time></trkpt><trkpt lat="42.309025635329014" lon="14.063710551598938"><ele>73.0</ele><time>2026-05-03T11:38:34Z</time></trkpt><trkpt lat="42.30910033420838" lon="14.063866515300774"><ele>73.0</ele><time>2026-05-03T11:38:35Z</time></trkpt><trkpt lat="42.30916450881925" lon="14.064022049553252"><ele>73.0</ele><time>2026-05-03T11:38:36Z</time></trkpt><trkpt lat="42.309245482605625" lon="14.06419018908612"><ele>73.0</ele><time>2026-05-03T11:38:37Z</time></trkpt><trkpt lat="42.30934255378456" lon="14.064361049234533"><ele>71.33333333333333</ele><time>2026-05-03T11:38:38Z</time></trkpt><trkpt lat="42.30943204384679" lon="14.064550304132782"><ele>69.66666666666667</ele><time>2026-05-03T11:38:39Z</time></trkpt><trkpt lat="42.309518745439924" lon="14.064739637137583"><ele>68.0</ele><time>2026-05-03T11:38:40Z</time></trkpt><trkpt lat="42.30960436807768" lon="14.064915481294449"><ele>69.0</ele><time>2026-05-03T11:38:41Z</time></trkpt><trkpt lat="42.30968824286576" lon="14.065085387953832"><ele>70.0</ele><time>2026-05-03T11:38:42Z</time></trkpt><trkpt lat="42.30977303840055" lon="14.065257724579771"><ele>71.0</ele><time>2026-05-03T11:38:43Z</time></trkpt><trkpt lat="42.30985581385092" lon="14.065429708224064"><ele>71.0</ele><time>2026-05-03T11:38:44Z</time></trkpt><trkpt lat="42.30994265099253" lon="14.06561036142993"><ele>71.0</ele><time>2026-05-03T11:38:45Z</time></trkpt><trkpt lat="42.31002901284356" lon="14.065787328703003"><ele>71.0</ele><time>2026-05-03T11:38:46Z</time></trkpt><trkpt lat="42.310112858201435" lon="14.06595653246324"><ele>71.0</ele><time>2026-05-03T11:38:47Z</time></trkpt><trkpt lat="42.3101989583035" lon="14.066123427210973"><ele>71.0</ele><time>2026-05-03T11:38:48Z</time></trkpt><trkpt lat="42.31027670584236" lon="14.066280030050985"><ele>71.0</ele><time>2026-05-03T11:38:49Z</time></trkpt><trkpt lat="42.31034886663586" lon="14.066418374854612"><ele>71.0</ele><time>2026-05-03T11:38:50Z</time></trkpt><trkpt lat="42.310416628893954" lon="14.066538631438299"><ele>71.0</ele><time>2026-05-03T11:38:51Z</time></trkpt><trkpt lat="42.31047997941244" lon="14.066638907342064"><ele>71.0</ele><time>2026-05-03T11:38:52Z</time></trkpt><trkpt lat="42.31053937195676" lon="14.066733434705615"><ele>71.0</ele><time>2026-05-03T11:38:53Z</time></trkpt><trkpt lat="42.3105846328203" lon="14.066846877156456"><ele>71.0</ele><time>2026-05-03T11:38:54Z</time></trkpt><trkpt lat="42.3106080028984" lon="14.066971184322313"><ele>71.0</ele><time>2026-05-03T11:38:55Z</time></trkpt><trkpt lat="42.31062161141597" lon="14.067102946263459"><ele>71.0</ele><time>2026-05-03T11:38:56Z</time></trkpt><trkpt lat="42.310662116836255" lon="14.067251022755867"><ele>71.0</ele><time>2026-05-03T11:38:57Z</time></trkpt><trkpt lat="42.310744668654024" lon="14.067379076881132"><ele>71.0</ele><time>2026-05-03T11:38:58Z</time></trkpt><trkpt lat="42.31084234273884" lon="14.067516291299366"><ele>71.0</ele><time>2026-05-03T11:38:59Z</time></trkpt><trkpt lat="42.31093298968246" lon="14.067672960850635"><ele>71.33333333333334</ele><time>2026-05-03T11:39:00Z</time></trkpt><trkpt lat="42.31101164625705" lon="14.06784083943833"><ele>71.66666666666667</ele><time>2026-05-03T11:39:01Z</time></trkpt><trkpt lat="42.31109322227462" lon="14.068013015230376"><ele>72.0</ele><time>2026-05-03T11:39:02Z</time></trkpt><trkpt lat="42.31117865149224" lon="14.06819910620755"><ele>72.0</ele><time>2026-05-03T11:39:03Z</time></trkpt><trkpt lat="42.31126676846813" lon="14.068387093279378"><ele>72.0</ele><time>2026-05-03T11:39:04Z</time></trkpt><trkpt lat="42.311352378431245" lon="14.068565276509167"><ele>72.0</ele><time>2026-05-03T11:39:05Z</time></trkpt><trkpt lat="42.31143232033623" lon="14.068744146716028"><ele>72.0</ele><time>2026-05-03T11:39:06Z</time></trkpt><trkpt lat="42.311520797306535" lon="14.068918396417931"><ele>72.0</ele><time>2026-05-03T11:39:07Z</time></trkpt><trkpt lat="42.31160568891071" lon="14.069093407657284"><ele>72.0</ele><time>2026-05-03T11:39:08Z</time></trkpt><trkpt lat="42.31169127185398" lon="14.06927283305656"><ele>72.0</ele><time>2026-05-03T11:39:09Z</time></trkpt><trkpt lat="42.31177427134885" lon="14.069447452894762"><ele>72.0</ele><time>2026-05-03T11:39:10Z</time></trkpt><trkpt lat="42.311859883197215" lon="14.069622033258458"><ele>72.0</ele><time>2026-05-03T11:39:11Z</time></trkpt><trkpt lat="42.311942813925015" lon="14.06979681624194"><ele>71.66666666666667</ele><time>2026-05-03T11:39:12Z</time></trkpt><trkpt lat="42.312025724889956" lon="14.069976740743376"><ele>71.33333333333334</ele><time>2026-05-03T11:39:13Z</time></trkpt><trkpt lat="42.31211559154576" lon="14.070155304937906"><ele>71.0</ele><time>2026-05-03T11:39:14Z</time></trkpt><trkpt lat="42.312203515967795" lon="14.070330859518116"><ele>70.66666666666667</ele><time>2026-05-03T11:39:15Z</time></trkpt><trkpt lat="42.31228613673857" lon="14.070505751168527"><ele>70.33333333333333</ele><time>2026-05-03T11:39:16Z</time></trkpt><trkpt lat="42.31236961937865" lon="14.070680180766464"><ele>70.0</ele><time>2026-05-03T11:39:17Z</time></trkpt><trkpt lat="42.312456142471916" lon="14.070856805169804"><ele>69.66666666666666</ele><time>2026-05-03T11:39:18Z</time></trkpt><trkpt lat="42.31253631489026" lon="14.071039819629876"><ele>69.33333333333333</ele><time>2026-05-03T11:39:19Z</time></trkpt><trkpt lat="42.31262132956975" lon="14.071226782561677"><ele>69.0</ele><time>2026-05-03T11:39:20Z</time></trkpt><trkpt lat="42.312711867528954" lon="14.071408457715242"><ele>69.0</ele><time>2026-05-03T11:39:21Z</time></trkpt><trkpt lat="42.312800567201975" lon="14.07159487042708"><ele>69.0</ele><time>2026-05-03T11:39:22Z</time></trkpt><trkpt lat="42.312894405500586" lon="14.071775756285913"><ele>69.0</ele><time>2026-05-03T11:39:23Z</time></trkpt><trkpt lat="42.3129820654783" lon="14.071968718644195"><ele>68.75</ele><time>2026-05-03T11:39:24Z</time></trkpt><trkpt lat="42.313075007234595" lon="14.072151487445963"><ele>68.5</ele><time>2026-05-03T11:39:25Z</time></trkpt><trkpt lat="42.31315448810789" lon="14.072338657312844"><ele>68.25</ele><time>2026-05-03T11:39:26Z</time></trkpt><trkpt lat="42.31320219363571" lon="14.072474783354858"><ele>68.0</ele><time>2026-05-03T11:39:27Z</time></trkpt><trkpt lat="42.313233480616276" lon="14.072590456795174"><ele>67.0</ele><time>2026-05-03T11:39:28Z</time></trkpt><trkpt lat="42.313430393869815" lon="14.072901289261631"><ele>66.0</ele><time>2026-05-03T11:39:29Z</time></trkpt><trkpt lat="42.31352630791894" lon="14.073086247184689"><ele>67.0</ele><time>2026-05-03T11:39:30Z</time></trkpt><trkpt lat="42.31361657231171" lon="14.073275987200217"><ele>68.0</ele><time>2026-05-03T11:39:31Z</time></trkpt><trkpt lat="42.31370777460162" lon="14.073465104008708"><ele>69.0</ele><time>2026-05-03T11:39:32Z</time></trkpt><trkpt lat="42.31379085960907" lon="14.073652746963194"><ele>69.0</ele><time>2026-05-03T11:39:33Z</time></trkpt><trkpt lat="42.313882600446554" lon="14.073830040449941"><ele>69.0</ele><time>2026-05-03T11:39:34Z</time></trkpt><trkpt lat="42.313965485340155" lon="14.074014326489522"><ele>69.0</ele><time>2026-05-03T11:39:35Z</time></trkpt><trkpt lat="42.314053432417445" lon="14.074190320684007"><ele>68.66666666666667</ele><time>2026-05-03T11:39:36Z</time></trkpt><trkpt lat="42.314138299493706" lon="14.074367002161019"><ele>68.33333333333334</ele><time>2026-05-03T11:39:37Z</time></trkpt><trkpt lat="42.31422411694905" lon="14.074549956659167"><ele>68.0</ele><time>2026-05-03T11:39:38Z</time></trkpt><trkpt lat="42.31430004913026" lon="14.074710535121735"><ele>68.0</ele><time>2026-05-03T11:39:39Z</time></trkpt><trkpt lat="42.314375217824384" lon="14.07485162244771"><ele>68.0</ele><time>2026-05-03T11:39:40Z</time></trkpt><trkpt lat="42.31443977737845" lon="14.074985837069212"><ele>68.0</ele><time>2026-05-03T11:39:41Z</time></trkpt><trkpt lat="42.31450422372432" lon="14.075104392988955"><ele>68.0</ele><time>2026-05-03T11:39:42Z</time></trkpt><trkpt lat="42.31457395931435" lon="14.07522796659485"><ele>68.0</ele><time>2026-05-03T11:39:43Z</time></trkpt><trkpt lat="42.31463689771925" lon="14.075369813066866"><ele>68.0</ele><time>2026-05-03T11:39:44Z</time></trkpt><trkpt lat="42.314695909252315" lon="14.07552941100652"><ele>68.0</ele><time>2026-05-03T11:39:45Z</time></trkpt><trkpt lat="42.314761182474456" lon="14.075690963598488"><ele>68.0</ele><time>2026-05-03T11:39:46Z</time></trkpt><trkpt lat="42.31483408569308" lon="14.075849645472491"><ele>68.25</ele><time>2026-05-03T11:39:47Z</time></trkpt><trkpt lat="42.3149195267914" lon="14.07601801959072"><ele>68.5</ele><time>2026-05-03T11:39:48Z</time></trkpt><trkpt lat="42.31500141304986" lon="14.076184697402697"><ele>68.75</ele><time>2026-05-03T11:39:49Z</time></trkpt><trkpt lat="42.31508247631622" lon="14.076355646463103"><ele>69.0</ele><time>2026-05-03T11:39:50Z</time></trkpt><trkpt lat="42.31516419404851" lon="14.076530402070796"><ele>69.0</ele><time>2026-05-03T11:39:51Z</time></trkpt><trkpt lat="42.3152495105439" lon="14.07670714742486"><ele>69.0</ele><time>2026-05-03T11:39:52Z</time></trkpt><trkpt lat="42.3153356584506" lon="14.076889735407615"><ele>69.0</ele><time>2026-05-03T11:39:53Z</time></trkpt><trkpt lat="42.31540961215571" lon="14.077038749206963"><ele>69.0</ele><time>2026-05-03T11:39:54Z</time></trkpt><trkpt lat="42.31546641629615" lon="14.077164015912757"><ele>69.0</ele><time>2026-05-03T11:39:55Z</time></trkpt><trkpt lat="42.315508177984185" lon="14.077252479327882"><ele>69.0</ele><time>2026-05-03T11:39:56Z</time></trkpt><trkpt lat="42.31554247522805" lon="14.077331045165309"><ele>69.0</ele><time>2026-05-03T11:39:57Z</time></trkpt><trkpt lat="42.31558242540459" lon="14.077410675140477"><ele>69.0</ele><time>2026-05-03T11:39:59Z</time></trkpt><trkpt lat="42.31565253889603" lon="14.07741983011967"><ele>69.0</ele><time>2026-05-03T11:40:03Z</time></trkpt><trkpt lat="42.31567069667739" lon="14.077326279106805"><ele>69.0</ele><time>2026-05-03T11:40:05Z</time></trkpt><trkpt lat="42.31560628480861" lon="14.077222208483366"><ele>69.0</ele><time>2026-05-03T11:40:07Z</time></trkpt><trkpt lat="42.31554597239136" lon="14.077181081665675"><ele>69.0</ele><time>2026-05-03T11:40:09Z</time></trkpt><trkpt lat="42.315445134442236" lon="14.077034198158945"><ele>69.0</ele><time>2026-05-03T11:40:11Z</time></trkpt><trkpt lat="42.31538387266783" lon="14.076903109402133"><ele>69.0</ele><time>2026-05-03T11:40:12Z</time></trkpt><trkpt lat="42.315315362844906" lon="14.076762872320996"><ele>69.0</ele><time>2026-05-03T11:40:13Z</time></trkpt><trkpt lat="42.31524283933714" lon="14.076620483986156"><ele>69.0</ele><time>2026-05-03T11:40:14Z</time></trkpt><trkpt lat="42.315177032495626" lon="14.076483982926453"><ele>69.0</ele><time>2026-05-03T11:40:15Z</time></trkpt><trkpt lat="42.315114535307316" lon="14.076356313272713"><ele>69.0</ele><time>2026-05-03T11:40:16Z</time></trkpt><trkpt lat="42.31505498791492" lon="14.076238406089852"><ele>69.0</ele><time>2026-05-03T11:40:17Z</time></trkpt><trkpt lat="42.315002681213265" lon="14.07612127437539"><ele>69.0</ele><time>2026-05-03T11:40:18Z</time></trkpt><trkpt lat="42.31495387955531" lon="14.07601112353734"><ele>69.0</ele><time>2026-05-03T11:40:19Z</time></trkpt><trkpt lat="42.31489972875078" lon="14.075897087670489"><ele>69.0</ele><time>2026-05-03T11:40:20Z</time></trkpt><trkpt lat="42.31484839628124" lon="14.07578385960135"><ele>69.0</ele><time>2026-05-03T11:40:21Z</time></trkpt><trkpt lat="42.31480112461883" lon="14.075664450452152"><ele>68.83333333333333</ele><time>2026-05-03T11:40:22Z</time></trkpt><trkpt lat="42.314762093244575" lon="14.0755454553285"><ele>68.66666666666667</ele><time>2026-05-03T11:40:23Z</time></trkpt><trkpt lat="42.31473930351622" lon="14.07543930869018"><ele>68.5</ele><time>2026-05-03T11:40:24Z</time></trkpt><trkpt lat="42.31474182260228" lon="14.07533858917991"><ele>68.33333333333334</ele><time>2026-05-03T11:40:25Z</time></trkpt><trkpt lat="42.31476584401157" lon="14.075256268323756"><ele>68.16666666666667</ele><time>2026-05-03T11:40:26Z</time></trkpt><trkpt lat="42.31475788774742" lon="14.075118241314515"><ele>68.0</ele><time>2026-05-03T11:40:28Z</time></trkpt><trkpt lat="42.31469978624103" lon="14.075077600482702"><ele>68.0</ele><time>2026-05-03T11:40:29Z</time></trkpt><trkpt lat="42.314624924871815" lon="14.075073727229363"><ele>68.0</ele><time>2026-05-03T11:40:30Z</time></trkpt><trkpt lat="42.31454823781717" lon="14.075087523579203"><ele>68.0</ele><time>2026-05-03T11:40:31Z</time></trkpt><trkpt lat="42.31448292911268" lon="14.075059441239624"><ele>68.0</ele><time>2026-05-03T11:40:32Z</time></trkpt><trkpt lat="42.314436569507535" lon="14.074976128504916"><ele>68.0</ele><time>2026-05-03T11:40:33Z</time></trkpt><trkpt lat="42.3143909904907" lon="14.07485966590322"><ele>68.0</ele><time>2026-05-03T11:40:34Z</time></trkpt><trkpt lat="42.31433313028171" lon="14.074722799579254"><ele>68.0</ele><time>2026-05-03T11:40:35Z</time></trkpt><trkpt lat="42.31426404860912" lon="14.074582701180779"><ele>68.0</ele><time>2026-05-03T11:40:36Z</time></trkpt><trkpt lat="42.31418095298715" lon="14.074421845329212"><ele>68.0</ele><time>2026-05-03T11:40:37Z</time></trkpt><trkpt lat="42.31409932487534" lon="14.074244351905646"><ele>68.0</ele><time>2026-05-03T11:40:38Z</time></trkpt><trkpt lat="42.314015031016154" lon="14.07407004946062"><ele>67.66666666666667</ele><time>2026-05-03T11:40:39Z</time></trkpt><trkpt lat="42.313926671767504" lon="14.07389250113808"><ele>67.33333333333333</ele><time>2026-05-03T11:40:40Z</time></trkpt><trkpt lat="42.3138396513501" lon="14.073717687820983"><ele>67.0</ele><time>2026-05-03T11:40:41Z</time></trkpt><trkpt lat="42.31375321204593" lon="14.07354602738774"><ele>66.75</ele><time>2026-05-03T11:40:42Z</time></trkpt><trkpt lat="42.31367139964821" lon="14.073377855472845"><ele>66.5</ele><time>2026-05-03T11:40:43Z</time></trkpt><trkpt lat="42.31359486058592" lon="14.073216657617019"><ele>66.25</ele><time>2026-05-03T11:40:44Z</time></trkpt><trkpt lat="42.313521362033285" lon="14.073061253426374"><ele>66.0</ele><time>2026-05-03T11:40:45Z</time></trkpt><trkpt lat="42.31344569174659" lon="14.072903608434396"><ele>66.0</ele><time>2026-05-03T11:40:46Z</time></trkpt><trkpt lat="42.3133687373068" lon="14.072751075230492"><ele>66.0</ele><time>2026-05-03T11:40:47Z</time></trkpt><trkpt lat="42.313290572594006" lon="14.072601971159132"><ele>66.0</ele><time>2026-05-03T11:40:48Z</time></trkpt><trkpt lat="42.313229998485824" lon="14.072441728554086"><ele>66.0</ele><time>2026-05-03T11:40:49Z</time></trkpt><trkpt lat="42.31315842694238" lon="14.072291553943673"><ele>66.5</ele><time>2026-05-03T11:40:50Z</time></trkpt><trkpt lat="42.31308282047152" lon="14.072140168487946"><ele>67.0</ele><time>2026-05-03T11:40:51Z</time></trkpt><trkpt lat="42.31300367729784" lon="14.07197877629775"><ele>67.5</ele><time>2026-05-03T11:40:52Z</time></trkpt><trkpt lat="42.31293035868523" lon="14.07181105227102"><ele>68.0</ele><time>2026-05-03T11:40:53Z</time></trkpt><trkpt lat="42.31285227799323" lon="14.071643472149306"><ele>68.25</ele><time>2026-05-03T11:40:54Z</time></trkpt><trkpt lat="42.31277332299507" lon="14.07147323934985"><ele>68.5</ele><time>2026-05-03T11:40:55Z</time></trkpt><trkpt lat="42.31269711003134" lon="14.071313293856502"><ele>68.75</ele><time>2026-05-03T11:40:56Z</time></trkpt><trkpt lat="42.312627358086615" lon="14.071164322251796"><ele>69.0</ele><time>2026-05-03T11:40:57Z</time></trkpt><trkpt lat="42.31256132508119" lon="14.0710306329198"><ele>69.0</ele><time>2026-05-03T11:40:58Z</time></trkpt><trkpt lat="42.31250046157443" lon="14.07090769606467"><ele>69.0</ele><time>2026-05-03T11:40:59Z</time></trkpt><trkpt lat="42.312450094661344" lon="14.070804540894745"><ele>69.0</ele><time>2026-05-03T11:41:00Z</time></trkpt><trkpt lat="42.312412614214374" lon="14.070713418438597"><ele>69.0</ele><time>2026-05-03T11:41:01Z</time></trkpt><trkpt lat="42.312345130665676" lon="14.070596653992007"><ele>69.0</ele><time>2026-05-03T11:41:03Z</time></trkpt><trkpt lat="42.31229034480028" lon="14.070667511913504"><ele>69.0</ele><time>2026-05-03T11:41:06Z</time></trkpt><trkpt lat="42.312376282170646" lon="14.07076207338015"><ele>69.0</ele><time>2026-05-03T11:41:19Z</time></trkpt><trkpt lat="42.31243072829594" lon="14.070839386186034"><ele>69.0</ele><time>2026-05-03T11:41:20Z</time></trkpt><trkpt lat="42.31249077981106" lon="14.070945873897061"><ele>69.0</ele><time>2026-05-03T11:41:21Z</time></trkpt><trkpt lat="42.312555120062726" lon="14.0710788168404"><ele>69.0</ele><time>2026-05-03T11:41:22Z</time></trkpt><trkpt lat="42.31263299472404" lon="14.071237660663538"><ele>69.0</ele><time>2026-05-03T11:41:23Z</time></trkpt><trkpt lat="42.31270910193064" lon="14.071407889035848"><ele>69.0</ele><time>2026-05-03T11:41:24Z</time></trkpt><trkpt lat="42.31279089312623" lon="14.071579604971765"><ele>69.0</ele><time>2026-05-03T11:41:25Z</time></trkpt><trkpt lat="42.312877011985464" lon="14.071758639269701"><ele>69.33333333333333</ele><time>2026-05-03T11:41:26Z</time></trkpt><trkpt lat="42.31296490433056" lon="14.071941234929566"><ele>69.66666666666666</ele><time>2026-05-03T11:41:27Z</time></trkpt><trkpt lat="42.313054565884364" lon="14.07212986899162"><ele>70.0</ele><time>2026-05-03T11:41:28Z</time></trkpt><trkpt lat="42.31314065508829" lon="14.072313488115498"><ele>68.66666666666666</ele><time>2026-05-03T11:41:29Z</time></trkpt><trkpt lat="42.313228360173824" lon="14.072495278883354"><ele>67.33333333333333</ele><time>2026-05-03T11:41:30Z</time></trkpt><trkpt lat="42.31331809926398" lon="14.07268003540131"><ele>66.0</ele><time>2026-05-03T11:41:31Z</time></trkpt><trkpt lat="42.31340583786038" lon="14.072863617922946"><ele>66.0</ele><time>2026-05-03T11:41:32Z</time></trkpt><trkpt lat="42.31349204293288" lon="14.073039990575515"><ele>66.0</ele><time>2026-05-03T11:41:33Z</time></trkpt><trkpt lat="42.313577065780564" lon="14.073209769352918"><ele>66.0</ele><time>2026-05-03T11:41:34Z</time></trkpt><trkpt lat="42.31366466801116" lon="14.073387526400873"><ele>66.33333333333333</ele><time>2026-05-03T11:41:35Z</time></trkpt><trkpt lat="42.313747543787144" lon="14.073568764689172"><ele>66.66666666666666</ele><time>2026-05-03T11:41:36Z</time></trkpt><trkpt lat="42.31383411129233" lon="14.073745373259994"><ele>67.0</ele><time>2026-05-03T11:41:37Z</time></trkpt><trkpt lat="42.313918549199045" lon="14.07392112841496"><ele>67.0</ele><time>2026-05-03T11:41:38Z</time></trkpt><trkpt lat="42.31400027694079" lon="14.074094599997691"><ele>67.0</ele><time>2026-05-03T11:41:39Z</time></trkpt><trkpt lat="42.31408240546328" lon="14.074263441585707"><ele>67.0</ele><time>2026-05-03T11:41:40Z</time></trkpt><trkpt lat="42.314164968210555" lon="14.074433326445723"><ele>67.25</ele><time>2026-05-03T11:41:41Z</time></trkpt><trkpt lat="42.31424222106249" lon="14.074594426213823"><ele>67.5</ele><time>2026-05-03T11:41:42Z</time></trkpt><trkpt lat="42.314315678131756" lon="14.07474488618624"><ele>67.75</ele><time>2026-05-03T11:41:42.999Z</time></trkpt><trkpt lat="42.3143774987454" lon="14.074873598814884"><ele>68.0</ele><time>2026-05-03T11:41:43.999Z</time></trkpt><trkpt lat="42.31443190706324" lon="14.074984349883447"><ele>68.0</ele><time>2026-05-03T11:41:44.999Z</time></trkpt><trkpt lat="42.31448337981228" lon="14.075071336496606"><ele>68.0</ele><time>2026-05-03T11:41:45.999Z</time></trkpt><trkpt lat="42.314552060238995" lon="14.075173630289738"><ele>68.0</ele><time>2026-05-03T11:41:47.999Z</time></trkpt><trkpt lat="42.314616788879185" lon="14.075294462844697"><ele>68.0</ele><time>2026-05-03T11:41:49.999Z</time></trkpt><trkpt lat="42.31465933971646" lon="14.07541122574205"><ele>68.0</ele><time>2026-05-03T11:41:50.999Z</time></trkpt><trkpt lat="42.31470755340247" lon="14.075550099659837"><ele>68.25</ele><time>2026-05-03T11:41:51.999Z</time></trkpt><trkpt lat="42.31476401280216" lon="14.075697866841713"><ele>68.5</ele><time>2026-05-03T11:41:52.999Z</time></trkpt><trkpt lat="42.31483128059739" lon="14.075844263174968"><ele>68.75</ele><time>2026-05-03T11:41:53.999Z</time></trkpt><trkpt lat="42.314904450450115" lon="14.075985317034624"><ele>69.0</ele><time>2026-05-03T11:41:54.999Z</time></trkpt><trkpt lat="42.31497235494831" lon="14.076123439814328"><ele>69.0</ele><time>2026-05-03T11:41:55.999Z</time></trkpt><trkpt lat="42.31503859722209" lon="14.076264679919698"><ele>69.0</ele><time>2026-05-03T11:41:56.999Z</time></trkpt><trkpt lat="42.315107294008904" lon="14.076401177086057"><ele>69.0</ele><time>2026-05-03T11:41:57.999Z</time></trkpt><trkpt lat="42.31517191975373" lon="14.0765406678022"><ele>69.0</ele><time>2026-05-03T11:41:58.999Z</time></trkpt><trkpt lat="42.31523827771647" lon="14.076678888762723"><ele>69.0</ele><time>2026-05-03T11:41:59.999Z</time></trkpt><trkpt lat="42.315306017916406" lon="14.076817916431642"><ele>69.0</ele><time>2026-05-03T11:42:00.998Z</time></trkpt><trkpt lat="42.31537528305225" lon="14.076962067141693"><ele>69.0</ele><time>2026-05-03T11:42:01.998Z</time></trkpt><trkpt lat="42.31544658811038" lon="14.077112835803508"><ele>69.0</ele><time>2026-05-03T11:42:02.998Z</time></trkpt><trkpt lat="42.31551757615329" lon="14.077270770937938"><ele>68.75</ele><time>2026-05-03T11:42:03.998Z</time></trkpt><trkpt lat="42.31559441934533" lon="14.077430239144354"><ele>68.5</ele><time>2026-05-03T11:42:04.998Z</time></trkpt><trkpt lat="42.315666442365426" lon="14.077590304200475"><ele>68.25</ele><time>2026-05-03T11:42:05.998Z</time></trkpt><trkpt lat="42.31574783239229" lon="14.077749678865803"><ele>68.0</ele><time>2026-05-03T11:42:06.998Z</time></trkpt><trkpt lat="42.315828316642836" lon="14.077906843613208"><ele>68.0</ele><time>2026-05-03T11:42:07.998Z</time></trkpt><trkpt lat="42.31590553824133" lon="14.078077602114579"><ele>68.0</ele><time>2026-05-03T11:42:08.998Z</time></trkpt><trkpt lat="42.315982735021734" lon="14.07824361757747"><ele>68.0</ele><time>2026-05-03T11:42:09.998Z</time></trkpt><trkpt lat="42.31606510583247" lon="14.078408299235043"><ele>68.0</ele><time>2026-05-03T11:42:10.998Z</time></trkpt><trkpt lat="42.31614653280005" lon="14.078569567922655"><ele>68.0</ele><time>2026-05-03T11:42:11.998Z</time></trkpt><trkpt lat="42.316224813932166" lon="14.078738172574967"><ele>68.0</ele><time>2026-05-03T11:42:12.998Z</time></trkpt><trkpt lat="42.31630391243559" lon="14.078903654754859"><ele>68.0</ele><time>2026-05-03T11:42:13.998Z</time></trkpt><trkpt lat="42.316383876263735" lon="14.079073473620884"><ele>68.0</ele><time>2026-05-03T11:42:14.998Z</time></trkpt><trkpt lat="42.31646352933567" lon="14.079235480564133"><ele>67.75</ele><time>2026-05-03T11:42:15.998Z</time></trkpt><trkpt lat="42.31654037938976" lon="14.079399199280044"><ele>67.5</ele><time>2026-05-03T11:42:16.998Z</time></trkpt><trkpt lat="42.31661847424649" lon="14.079554087114419"><ele>67.25</ele><time>2026-05-03T11:42:17.998Z</time></trkpt><trkpt lat="42.316696253092964" lon="14.079715407080844"><ele>67.0</ele><time>2026-05-03T11:42:18.998Z</time></trkpt><trkpt lat="42.3167722664521" lon="14.079874633204964"><ele>67.0</ele><time>2026-05-03T11:42:19.998Z</time></trkpt><trkpt lat="42.31684857905539" lon="14.080032923302726"><ele>67.0</ele><time>2026-05-03T11:42:20.998Z</time></trkpt><trkpt lat="42.316922840292754" lon="14.080192896871049"><ele>67.0</ele><time>2026-05-03T11:42:21.998Z</time></trkpt><trkpt lat="42.31699938754691" lon="14.080356573869288"><ele>67.0</ele><time>2026-05-03T11:42:22.998Z</time></trkpt><trkpt lat="42.31707826594289" lon="14.080520710332795"><ele>67.0</ele><time>2026-05-03T11:42:23.998Z</time></trkpt><trkpt lat="42.317159236735684" lon="14.080696418144283"><ele>67.0</ele><time>2026-05-03T11:42:24.998Z</time></trkpt><trkpt lat="42.31724670872405" lon="14.080878073751833"><ele>67.0</ele><time>2026-05-03T11:42:25.998Z</time></trkpt><trkpt lat="42.317337318965336" lon="14.08107198858021"><ele>66.33333333333333</ele><time>2026-05-03T11:42:26.998Z</time></trkpt><trkpt lat="42.317439832690205" lon="14.081276474361925"><ele>65.66666666666667</ele><time>2026-05-03T11:42:27.998Z</time></trkpt><trkpt lat="42.31753716240268" lon="14.081473341386987"><ele>65.0</ele><time>2026-05-03T11:42:28.998Z</time></trkpt><trkpt lat="42.31763526443358" lon="14.08167647498455"><ele>64.66666666666667</ele><time>2026-05-03T11:42:29.998Z</time></trkpt><trkpt lat="42.3177287741012" lon="14.081874419267152"><ele>64.33333333333333</ele><time>2026-05-03T11:42:30.998Z</time></trkpt><trkpt lat="42.317815872672455" lon="14.08205850473588"><ele>64.0</ele><time>2026-05-03T11:42:31.998Z</time></trkpt><trkpt lat="42.317907789605776" lon="14.082248899060735"><ele>64.0</ele><time>2026-05-03T11:42:32.998Z</time></trkpt><trkpt lat="42.31799888348702" lon="14.082441007973493"><ele>64.0</ele><time>2026-05-03T11:42:33.998Z</time></trkpt><trkpt lat="42.31809144485867" lon="14.082637366674353"><ele>64.0</ele><time>2026-05-03T11:42:34.998Z</time></trkpt><trkpt lat="42.31818378186948" lon="14.082825563459988"><ele>64.0</ele><time>2026-05-03T11:42:35.998Z</time></trkpt><trkpt lat="42.31827426016321" lon="14.083018176711574"><ele>64.0</ele><time>2026-05-03T11:42:36.998Z</time></trkpt><trkpt lat="42.31836602944155" lon="14.083210249269843"><ele>64.0</ele><time>2026-05-03T11:42:37.998Z</time></trkpt><trkpt lat="42.31845596729378" lon="14.083399638692345"><ele>63.666666666666664</ele><time>2026-05-03T11:42:38.998Z</time></trkpt><trkpt lat="42.3185533429273" lon="14.083600158935154"><ele>63.33333333333333</ele><time>2026-05-03T11:42:39.998Z</time></trkpt><trkpt lat="42.318647986333254" lon="14.08379719814568"><ele>63.0</ele><time>2026-05-03T11:42:40.998Z</time></trkpt><trkpt lat="42.31873810094619" lon="14.083982426489573"><ele>63.0</ele><time>2026-05-03T11:42:41.998Z</time></trkpt><trkpt lat="42.31882654754621" lon="14.08416738557307"><ele>63.0</ele><time>2026-05-03T11:42:42.998Z</time></trkpt><trkpt lat="42.318918621289875" lon="14.084363896397939"><ele>63.0</ele><time>2026-05-03T11:42:43.998Z</time></trkpt><trkpt lat="42.31900761436795" lon="14.084542030365208"><ele>63.0</ele><time>2026-05-03T11:42:44.998Z</time></trkpt><trkpt lat="42.319092307816454" lon="14.084729626509992"><ele>63.0</ele><time>2026-05-03T11:42:45.998Z</time></trkpt><trkpt lat="42.31917521508696" lon="14.084902575301205"><ele>63.0</ele><time>2026-05-03T11:42:46.998Z</time></trkpt><trkpt lat="42.31926220775959" lon="14.08508441177838"><ele>62.66666666666667</ele><time>2026-05-03T11:42:47.998Z</time></trkpt><trkpt lat="42.31934753176171" lon="14.085256464931911"><ele>62.333333333333336</ele><time>2026-05-03T11:42:48.998Z</time></trkpt><trkpt lat="42.31943197306505" lon="14.085435825800348"><ele>62.0</ele><time>2026-05-03T11:42:49.998Z</time></trkpt><trkpt lat="42.31951710642577" lon="14.08560947995643"><ele>61.66666666666667</ele><time>2026-05-03T11:42:50.998Z</time></trkpt><trkpt lat="42.31960345780749" lon="14.08578462083188"><ele>61.33333333333333</ele><time>2026-05-03T11:42:51.998Z</time></trkpt><trkpt lat="42.319690686258994" lon="14.08595906252753"><ele>61.0</ele><time>2026-05-03T11:42:52.998Z</time></trkpt><trkpt lat="42.31978008326472" lon="14.086130113760415"><ele>61.0</ele><time>2026-05-03T11:42:53.998Z</time></trkpt><trkpt lat="42.31987177447227" lon="14.08630279300628"><ele>61.0</ele><time>2026-05-03T11:42:54.998Z</time></trkpt><trkpt lat="42.319956664502186" lon="14.08647550645028"><ele>61.0</ele><time>2026-05-03T11:42:55.998Z</time></trkpt><trkpt lat="42.32003791955387" lon="14.086659763604896"><ele>61.0</ele><time>2026-05-03T11:42:56.998Z</time></trkpt><trkpt lat="42.3201188128259" lon="14.086847389589035"><ele>61.0</ele><time>2026-05-03T11:42:57.998Z</time></trkpt><trkpt lat="42.320207007815824" lon="14.087029916139967"><ele>61.0</ele><time>2026-05-03T11:42:58.998Z</time></trkpt><trkpt lat="42.3202965586623" lon="14.08722072743005"><ele>61.0</ele><time>2026-05-03T11:42:59.998Z</time></trkpt><trkpt lat="42.32039169079703" lon="14.087406416741066"><ele>61.0</ele><time>2026-05-03T11:43:00.998Z</time></trkpt><trkpt lat="42.32047825734726" lon="14.087610905181554"><ele>61.0</ele><time>2026-05-03T11:43:01.998Z</time></trkpt><trkpt lat="42.320574250696524" lon="14.08779615791825"><ele>60.75</ele><time>2026-05-03T11:43:02.998Z</time></trkpt><trkpt lat="42.32066279255562" lon="14.087981209394853"><ele>60.5</ele><time>2026-05-03T11:43:03.998Z</time></trkpt><trkpt lat="42.32074279147327" lon="14.088152301784923"><ele>60.25</ele><time>2026-05-03T11:43:04.998Z</time></trkpt><trkpt lat="42.32076134987845" lon="14.088301770095915"><ele>60.0</ele><time>2026-05-03T11:43:05.998Z</time></trkpt><trkpt lat="42.320762989076925" lon="14.08843485742727"><ele>60.0</ele><time>2026-05-03T11:43:06.998Z</time></trkpt><trkpt lat="42.321013371180484" lon="14.088735891851865"><ele>60.0</ele><time>2026-05-03T11:43:07.998Z</time></trkpt><trkpt lat="42.32110164848087" lon="14.088927402170233"><ele>59.66666666666667</ele><time>2026-05-03T11:43:08.998Z</time></trkpt><trkpt lat="42.32119308543069" lon="14.089116917829664"><ele>59.333333333333336</ele><time>2026-05-03T11:43:09.998Z</time></trkpt><trkpt lat="42.32128570083488" lon="14.089306813453208"><ele>59.0</ele><time>2026-05-03T11:43:10.998Z</time></trkpt><trkpt lat="42.321378054160434" lon="14.089495629189157"><ele>59.0</ele><time>2026-05-03T11:43:11.998Z</time></trkpt><trkpt lat="42.32147291841997" lon="14.08968825064835"><ele>59.0</ele><time>2026-05-03T11:43:12.998Z</time></trkpt><trkpt lat="42.32156625663889" lon="14.089876481204879"><ele>59.0</ele><time>2026-05-03T11:43:13.998Z</time></trkpt><trkpt lat="42.32165578119225" lon="14.0900685873568"><ele>58.66666666666667</ele><time>2026-05-03T11:43:14.998Z</time></trkpt><trkpt lat="42.32174492709233" lon="14.090260129137318"><ele>58.33333333333333</ele><time>2026-05-03T11:43:15.998Z</time></trkpt><trkpt lat="42.321833273003726" lon="14.090447049711946"><ele>58.0</ele><time>2026-05-03T11:43:16.998Z</time></trkpt><trkpt lat="42.32192365198686" lon="14.090631059789263"><ele>58.0</ele><time>2026-05-03T11:43:17.998Z</time></trkpt><trkpt lat="42.322017259680344" lon="14.090805765242827"><ele>58.0</ele><time>2026-05-03T11:43:18.998Z</time></trkpt><trkpt lat="42.32210291772463" lon="14.090979416421527"><ele>58.0</ele><time>2026-05-03T11:43:19.998Z</time></trkpt><trkpt lat="42.32218081307726" lon="14.09114542111714"><ele>58.25</ele><time>2026-05-03T11:43:20.998Z</time></trkpt><trkpt lat="42.32225802305222" lon="14.09131041409101"><ele>58.5</ele><time>2026-05-03T11:43:21.998Z</time></trkpt><trkpt lat="42.322337546669324" lon="14.091473524167284"><ele>58.75</ele><time>2026-05-03T11:43:22.998Z</time></trkpt><trkpt lat="42.3224124051139" lon="14.091634632901105"><ele>59.0</ele><time>2026-05-03T11:43:23.998Z</time></trkpt><trkpt lat="42.32248876513194" lon="14.09178135503246"><ele>59.0</ele><time>2026-05-03T11:43:24.998Z</time></trkpt><trkpt lat="42.322556597679025" lon="14.091928549257691"><ele>59.0</ele><time>2026-05-03T11:43:25.998Z</time></trkpt><trkpt lat="42.32262525470259" lon="14.092071233295313"><ele>59.0</ele><time>2026-05-03T11:43:26.998Z</time></trkpt><trkpt lat="42.322688331327214" lon="14.09220527419212"><ele>59.0</ele><time>2026-05-03T11:43:27.998Z</time></trkpt><trkpt lat="42.32274573743857" lon="14.092329389281137"><ele>58.800000000000004</ele><time>2026-05-03T11:43:28.998Z</time></trkpt><trkpt lat="42.322799323004" lon="14.092440698668234"><ele>58.60000000000001</ele><time>2026-05-03T11:43:29.998Z</time></trkpt><trkpt lat="42.32286501929672" lon="14.092571022126469"><ele>58.4</ele><time>2026-05-03T11:43:30.998Z</time></trkpt><trkpt lat="42.32292840490447" lon="14.09269972264397"><ele>58.2</ele><time>2026-05-03T11:43:31.998Z</time></trkpt><trkpt lat="42.3229877557428" lon="14.09282435934405"><ele>58.0</ele><time>2026-05-03T11:43:32.998Z</time></trkpt><trkpt lat="42.323057584011124" lon="14.092958146212515"><ele>58.0</ele><time>2026-05-03T11:43:33.998Z</time></trkpt><trkpt lat="42.323144535124925" lon="14.09311895476033"><ele>58.0</ele><time>2026-05-03T11:43:34.999Z</time></trkpt><trkpt lat="42.3232290549021" lon="14.093301947359377"><ele>58.0</ele><time>2026-05-03T11:43:35.999Z</time></trkpt><trkpt lat="42.323310142799926" lon="14.093487748758037"><ele>58.0</ele><time>2026-05-03T11:43:36.999Z</time></trkpt><trkpt lat="42.32339062191241" lon="14.093683138368474"><ele>58.0</ele><time>2026-05-03T11:43:37.999Z</time></trkpt><trkpt lat="42.32347125808816" lon="14.093880932696468"><ele>58.0</ele><time>2026-05-03T11:43:38.999Z</time></trkpt><trkpt lat="42.32354051759619" lon="14.094065103023674"><ele>58.0</ele><time>2026-05-03T11:43:39.999Z</time></trkpt><trkpt lat="42.323600944143735" lon="14.094253761333967"><ele>58.0</ele><time>2026-05-03T11:43:40.999Z</time></trkpt><trkpt lat="42.32365166882856" lon="14.094455398488968"><ele>58.0</ele><time>2026-05-03T11:43:41.999Z</time></trkpt><trkpt lat="42.323691592011" lon="14.094680000576412"><ele>58.0</ele><time>2026-05-03T11:43:42.999Z</time></trkpt><trkpt lat="42.323738068623555" lon="14.094916005006668"><ele>58.0</ele><time>2026-05-03T11:43:43.999Z</time></trkpt><trkpt lat="42.3237846881537" lon="14.09515125199953"><ele>58.0</ele><time>2026-05-03T11:43:44.999Z</time></trkpt><trkpt lat="42.32383365163044" lon="14.095384559366172"><ele>58.0</ele><time>2026-05-03T11:43:45.999Z</time></trkpt><trkpt lat="42.32388211437105" lon="14.095615958629827"><ele>58.0</ele><time>2026-05-03T11:43:46.999Z</time></trkpt><trkpt lat="42.323930501710635" lon="14.09584577253451"><ele>58.0</ele><time>2026-05-03T11:43:47.999Z</time></trkpt><trkpt lat="42.323980660363176" lon="14.096072164558837"><ele>58.0</ele><time>2026-05-03T11:43:48.999Z</time></trkpt><trkpt lat="42.324024888471556" lon="14.09630583922537"><ele>58.0</ele><time>2026-05-03T11:43:50Z</time></trkpt><trkpt lat="42.324069837493965" lon="14.096537435484665"><ele>58.0</ele><time>2026-05-03T11:43:51Z</time></trkpt><trkpt lat="42.32411360868949" lon="14.096768095684428"><ele>58.0</ele><time>2026-05-03T11:43:52Z</time></trkpt><trkpt lat="42.32416163522598" lon="14.097004225498226"><ele>58.0</ele><time>2026-05-03T11:43:53Z</time></trkpt><trkpt lat="42.324211151040934" lon="14.097239258129555"><ele>58.0</ele><time>2026-05-03T11:43:54Z</time></trkpt><trkpt lat="42.32426580672818" lon="14.097469799061718"><ele>57.666666666666664</ele><time>2026-05-03T11:43:55Z</time></trkpt><trkpt lat="42.32432607951918" lon="14.097689863763424"><ele>57.33333333333333</ele><time>2026-05-03T11:43:56Z</time></trkpt><trkpt lat="42.32439968511523" lon="14.09791108389932"><ele>57.0</ele><time>2026-05-03T11:43:57Z</time></trkpt><trkpt lat="42.32448794822712" lon="14.098121740140595"><ele>58.0</ele><time>2026-05-03T11:43:58Z</time></trkpt><trkpt lat="42.324594132385265" lon="14.098313321336544"><ele>59.0</ele><time>2026-05-03T11:43:59Z</time></trkpt><trkpt lat="42.32471147685874" lon="14.098504095679214"><ele>60.0</ele><time>2026-05-03T11:44:00Z</time></trkpt><trkpt lat="42.32483121245883" lon="14.098688501824778"><ele>58.66666666666667</ele><time>2026-05-03T11:44:01Z</time></trkpt><trkpt lat="42.32494825377652" lon="14.098869437696838"><ele>57.333333333333336</ele><time>2026-05-03T11:44:02Z</time></trkpt><trkpt lat="42.325068426421275" lon="14.099065310910737"><ele>56.0</ele><time>2026-05-03T11:44:03Z</time></trkpt><trkpt lat="42.325184639724746" lon="14.099252560740851"><ele>56.0</ele><time>2026-05-03T11:44:04Z</time></trkpt><trkpt lat="42.325299584344314" lon="14.099427954785828"><ele>56.0</ele><time>2026-05-03T11:44:05Z</time></trkpt><trkpt lat="42.325409599924825" lon="14.099611603485364"><ele>56.0</ele><time>2026-05-03T11:44:06Z</time></trkpt><trkpt lat="42.325520317688564" lon="14.099784760766203"><ele>55.0</ele><time>2026-05-03T11:44:07Z</time></trkpt><trkpt lat="42.32562618626598" lon="14.099960262571317"><ele>54.0</ele><time>2026-05-03T11:44:08Z</time></trkpt><trkpt lat="42.325729138039634" lon="14.100120762218449"><ele>53.0</ele><time>2026-05-03T11:44:09Z</time></trkpt><trkpt lat="42.32583059675278" lon="14.100271491534825"><ele>53.0</ele><time>2026-05-03T11:44:10Z</time></trkpt><trkpt lat="42.325919160944935" lon="14.100414235597972"><ele>53.0</ele><time>2026-05-03T11:44:11Z</time></trkpt><trkpt lat="42.325995823837886" lon="14.100547388587538"><ele>53.0</ele><time>2026-05-03T11:44:12Z</time></trkpt><trkpt lat="42.32606041185403" lon="14.10067029101143"><ele>53.0</ele><time>2026-05-03T11:44:13Z</time></trkpt><trkpt lat="42.326110755420174" lon="14.100787938493163"><ele>53.333333333333336</ele><time>2026-05-03T11:44:14Z</time></trkpt><trkpt lat="42.32614051143897" lon="14.10089897802739"><ele>53.66666666666667</ele><time>2026-05-03T11:44:15Z</time></trkpt><trkpt lat="42.32615510095605" lon="14.10101629806165"><ele>54.0</ele><time>2026-05-03T11:44:16Z</time></trkpt><trkpt lat="42.326165247938775" lon="14.101137184019468"><ele>54.33333333333333</ele><time>2026-05-03T11:44:17Z</time></trkpt><trkpt lat="42.326204142967256" lon="14.101220329856625"><ele>54.666666666666664</ele><time>2026-05-03T11:44:18Z</time></trkpt><trkpt lat="42.326282273147385" lon="14.101277442831217"><ele>55.0</ele><time>2026-05-03T11:44:19Z</time></trkpt><trkpt lat="42.3263802231207" lon="14.101304632143314"><ele>55.0</ele><time>2026-05-03T11:44:20Z</time></trkpt><trkpt lat="42.32648586359038" lon="14.101352680229128"><ele>55.0</ele><time>2026-05-03T11:44:21Z</time></trkpt><trkpt lat="42.326572589351834" lon="14.101445064906514"><ele>55.0</ele><time>2026-05-03T11:44:22Z</time></trkpt><trkpt lat="42.326654096149404" lon="14.101576379391215"><ele>55.0</ele><time>2026-05-03T11:44:23Z</time></trkpt><trkpt lat="42.326737663219276" lon="14.101726687947588"><ele>55.0</ele><time>2026-05-03T11:44:24Z</time></trkpt><trkpt lat="42.32682761134209" lon="14.10188649387699"><ele>55.0</ele><time>2026-05-03T11:44:25Z</time></trkpt><trkpt lat="42.326928851535655" lon="14.102050616804002"><ele>55.0</ele><time>2026-05-03T11:44:26Z</time></trkpt><trkpt lat="42.327024651613534" lon="14.102219293234453"><ele>55.0</ele><time>2026-05-03T11:44:27Z</time></trkpt><trkpt lat="42.32711728450491" lon="14.102403623746834"><ele>55.0</ele><time>2026-05-03T11:44:28Z</time></trkpt><trkpt lat="42.32720123572253" lon="14.102596965184064"><ele>55.0</ele><time>2026-05-03T11:44:29Z</time></trkpt><trkpt lat="42.32726988506886" lon="14.102795177280264"><ele>53.0</ele><time>2026-05-03T11:44:30Z</time></trkpt><trkpt lat="42.32733118652846" lon="14.102992924841773"><ele>51.0</ele><time>2026-05-03T11:44:31Z</time></trkpt><trkpt lat="42.32739465671522" lon="14.103201992259859"><ele>49.0</ele><time>2026-05-03T11:44:32Z</time></trkpt><trkpt lat="42.327456991557796" lon="14.103397337705132"><ele>49.0</ele><time>2026-05-03T11:44:33Z</time></trkpt><trkpt lat="42.327519873177536" lon="14.103590699217618"><ele>49.0</ele><time>2026-05-03T11:44:34Z</time></trkpt><trkpt lat="42.32758108293588" lon="14.10378960968652"><ele>49.0</ele><time>2026-05-03T11:44:35Z</time></trkpt><trkpt lat="42.32764276120422" lon="14.103983786826063"><ele>48.5</ele><time>2026-05-03T11:44:36Z</time></trkpt><trkpt lat="42.32769455049594" lon="14.10416523404386"><ele>48.0</ele><time>2026-05-03T11:44:37Z</time></trkpt><trkpt lat="42.32775130020609" lon="14.10434215319763"><ele>47.5</ele><time>2026-05-03T11:44:38Z</time></trkpt><trkpt lat="42.32780664290475" lon="14.104514619409043"><ele>47.0</ele><time>2026-05-03T11:44:39Z</time></trkpt><trkpt lat="42.32786401668539" lon="14.10469252108057"><ele>47.0</ele><time>2026-05-03T11:44:40Z</time></trkpt><trkpt lat="42.32791939635697" lon="14.104869362416"><ele>47.0</ele><time>2026-05-03T11:44:41Z</time></trkpt><trkpt lat="42.3279762559001" lon="14.105051325792335"><ele>47.0</ele><time>2026-05-03T11:44:42Z</time></trkpt><trkpt lat="42.328032502665344" lon="14.105230785268631"><ele>47.0</ele><time>2026-05-03T11:44:43Z</time></trkpt><trkpt lat="42.32809444957689" lon="14.105411139649808"><ele>46.75</ele><time>2026-05-03T11:44:44Z</time></trkpt><trkpt lat="42.32815034536213" lon="14.105597605214015"><ele>46.5</ele><time>2026-05-03T11:44:45Z</time></trkpt><trkpt lat="42.32821022177569" lon="14.105781807527308"><ele>46.25</ele><time>2026-05-03T11:44:46Z</time></trkpt><trkpt lat="42.32827423150447" lon="14.105967302519284"><ele>46.0</ele><time>2026-05-03T11:44:47Z</time></trkpt><trkpt lat="42.32833416911208" lon="14.106164865899528"><ele>46.0</ele><time>2026-05-03T11:44:48Z</time></trkpt><trkpt lat="42.32839346684553" lon="14.106360709630842"><ele>46.0</ele><time>2026-05-03T11:44:49Z</time></trkpt><trkpt lat="42.328455212480876" lon="14.106560581551179"><ele>46.0</ele><time>2026-05-03T11:44:50Z</time></trkpt><trkpt lat="42.328522012407085" lon="14.106754922470264"><ele>46.0</ele><time>2026-05-03T11:44:51Z</time></trkpt><trkpt lat="42.32857368936019" lon="14.106957906944332"><ele>46.0</ele><time>2026-05-03T11:44:52Z</time></trkpt><trkpt lat="42.32863883092113" lon="14.107152176516186"><ele>46.0</ele><time>2026-05-03T11:44:53Z</time></trkpt><trkpt lat="42.32870400916497" lon="14.107346779605232"><ele>46.0</ele><time>2026-05-03T11:44:54Z</time></trkpt><trkpt lat="42.32876689385455" lon="14.107538954171144"><ele>46.0</ele><time>2026-05-03T11:44:55Z</time></trkpt><trkpt lat="42.32882959089598" lon="14.107740092528505"><ele>46.0</ele><time>2026-05-03T11:44:56Z</time></trkpt><trkpt lat="42.328892896917566" lon="14.107933708697788"><ele>44.333333333333336</ele><time>2026-05-03T11:44:57Z</time></trkpt><trkpt lat="42.32895641935253" lon="14.108137943130378"><ele>42.666666666666664</ele><time>2026-05-03T11:44:58Z</time></trkpt><trkpt lat="42.32901670545963" lon="14.108332647720768"><ele>41.0</ele><time>2026-05-03T11:44:59Z</time></trkpt><trkpt lat="42.32907787082777" lon="14.108530812764801"><ele>41.0</ele><time>2026-05-03T11:45:00Z</time></trkpt><trkpt lat="42.32913518098044" lon="14.108722926211449"><ele>41.0</ele><time>2026-05-03T11:45:01Z</time></trkpt><trkpt lat="42.329198466387034" lon="14.108913901122769"><ele>41.0</ele><time>2026-05-03T11:45:02Z</time></trkpt><trkpt lat="42.329258052128175" lon="14.109105818185594"><ele>41.666666666666664</ele><time>2026-05-03T11:45:03Z</time></trkpt><trkpt lat="42.32932117630577" lon="14.10928955402262"><ele>42.333333333333336</ele><time>2026-05-03T11:45:04Z</time></trkpt><trkpt lat="42.32938073682811" lon="14.109498480508352"><ele>43.0</ele><time>2026-05-03T11:45:05Z</time></trkpt><trkpt lat="42.32945903782265" lon="14.109708473458333"><ele>43.333333333333336</ele><time>2026-05-03T11:45:06Z</time></trkpt><trkpt lat="42.32953048941524" lon="14.109918312182407"><ele>43.666666666666664</ele><time>2026-05-03T11:45:07Z</time></trkpt><trkpt lat="42.32958206242599" lon="14.110140943611777"><ele>44.0</ele><time>2026-05-03T11:45:08Z</time></trkpt><trkpt lat="42.32964083315669" lon="14.11035880491242"><ele>44.0</ele><time>2026-05-03T11:45:09Z</time></trkpt><trkpt lat="42.329712125673865" lon="14.110552939242913"><ele>44.0</ele><time>2026-05-03T11:45:10Z</time></trkpt><trkpt lat="42.32978047520343" lon="14.110759926851673"><ele>44.0</ele><time>2026-05-03T11:45:11Z</time></trkpt><trkpt lat="42.32984140843852" lon="14.110952335940247"><ele>43.75</ele><time>2026-05-03T11:45:12Z</time></trkpt><trkpt lat="42.329897853458405" lon="14.111136122111734"><ele>43.5</ele><time>2026-05-03T11:45:13Z</time></trkpt><trkpt lat="42.3299572226567" lon="14.111310112446663"><ele>43.25</ele><time>2026-05-03T11:45:14Z</time></trkpt><trkpt lat="42.33001305951812" lon="14.11148374157363"><ele>43.0</ele><time>2026-05-03T11:45:15Z</time></trkpt><trkpt lat="42.330076686414536" lon="14.111663114618523"><ele>43.0</ele><time>2026-05-03T11:45:16Z</time></trkpt><trkpt lat="42.330135690339" lon="14.11185031917273"><ele>43.0</ele><time>2026-05-03T11:45:17Z</time></trkpt><trkpt lat="42.33019057787628" lon="14.112029237896213"><ele>43.0</ele><time>2026-05-03T11:45:18Z</time></trkpt><trkpt lat="42.33023875596107" lon="14.112203846739394"><ele>43.0</ele><time>2026-05-03T11:45:19Z</time></trkpt><trkpt lat="42.33028369130401" lon="14.11236173804895"><ele>43.0</ele><time>2026-05-03T11:45:20Z</time></trkpt><trkpt lat="42.330328409098385" lon="14.112509122151963"><ele>43.0</ele><time>2026-05-03T11:45:21Z</time></trkpt><trkpt lat="42.33037223658959" lon="14.112650740531004"><ele>43.0</ele><time>2026-05-03T11:45:22Z</time></trkpt><trkpt lat="42.330412425372714" lon="14.112787148632984"><ele>43.0</ele><time>2026-05-03T11:45:23Z</time></trkpt><trkpt lat="42.33043424583372" lon="14.112916853813099"><ele>43.0</ele><time>2026-05-03T11:45:24Z</time></trkpt><trkpt lat="42.33043705797471" lon="14.113049284948152"><ele>43.0</ele><time>2026-05-03T11:45:25Z</time></trkpt><trkpt lat="42.33043780875485" lon="14.113180356408737"><ele>43.0</ele><time>2026-05-03T11:45:26Z</time></trkpt><trkpt lat="42.330475613079095" lon="14.113293326325254"><ele>43.0</ele><time>2026-05-03T11:45:27Z</time></trkpt><trkpt lat="42.33055025684239" lon="14.113379469689548"><ele>43.0</ele><time>2026-05-03T11:45:28Z</time></trkpt><trkpt lat="42.330633753372446" lon="14.113454629612386"><ele>43.0</ele><time>2026-05-03T11:45:29Z</time></trkpt><trkpt lat="42.330686922572845" lon="14.113573369783206"><ele>41.75</ele><time>2026-05-03T11:45:30Z</time></trkpt><trkpt lat="42.330725965570075" lon="14.11373052209604"><ele>40.5</ele><time>2026-05-03T11:45:31Z</time></trkpt><trkpt lat="42.3307717633865" lon="14.113904885711463"><ele>39.25</ele><time>2026-05-03T11:45:32Z</time></trkpt><trkpt lat="42.3308238879053" lon="14.114090970893846"><ele>38.0</ele><time>2026-05-03T11:45:33Z</time></trkpt><trkpt lat="42.33087599162269" lon="14.114284778782846"><ele>38.0</ele><time>2026-05-03T11:45:34Z</time></trkpt><trkpt lat="42.33094397866157" lon="14.114478345183695"><ele>38.0</ele><time>2026-05-03T11:45:35Z</time></trkpt><trkpt lat="42.331003795138436" lon="14.114674233621804"><ele>38.0</ele><time>2026-05-03T11:45:36Z</time></trkpt><trkpt lat="42.331067177793074" lon="14.114875892980839"><ele>38.0</ele><time>2026-05-03T11:45:37Z</time></trkpt><trkpt lat="42.331126834136604" lon="14.115088298749306"><ele>38.0</ele><time>2026-05-03T11:45:38Z</time></trkpt><trkpt lat="42.33119542070426" lon="14.115306900512289"><ele>38.0</ele><time>2026-05-03T11:45:39Z</time></trkpt><trkpt lat="42.33127027567982" lon="14.115525684858028"><ele>38.0</ele><time>2026-05-03T11:45:40Z</time></trkpt><trkpt lat="42.33133841914152" lon="14.115744686203373"><ele>38.0</ele><time>2026-05-03T11:45:41Z</time></trkpt><trkpt lat="42.33140429783844" lon="14.115958928693432"><ele>38.0</ele><time>2026-05-03T11:45:42Z</time></trkpt><trkpt lat="42.331473913491756" lon="14.116169227951465"><ele>38.0</ele><time>2026-05-03T11:45:43Z</time></trkpt><trkpt lat="42.33154268427626" lon="14.116353327856629"><ele>38.0</ele><time>2026-05-03T11:45:44Z</time></trkpt><trkpt lat="42.331621110590554" lon="14.116550637997252"><ele>38.0</ele><time>2026-05-03T11:45:45Z</time></trkpt><trkpt lat="42.331667650657614" lon="14.11679730941429"><ele>38.0</ele><time>2026-05-03T11:45:46Z</time></trkpt><trkpt lat="42.3317284346877" lon="14.116996870722218"><ele>38.0</ele><time>2026-05-03T11:45:47Z</time></trkpt><trkpt lat="42.33179906938112" lon="14.117207501390515"><ele>38.0</ele><time>2026-05-03T11:45:48Z</time></trkpt><trkpt lat="42.331862888266684" lon="14.11741965951091"><ele>38.666666666666664</ele><time>2026-05-03T11:45:49Z</time></trkpt><trkpt lat="42.33192878006681" lon="14.117627869894385"><ele>39.333333333333336</ele><time>2026-05-03T11:45:50Z</time></trkpt><trkpt lat="42.33199006465031" lon="14.11782618198763"><ele>40.0</ele><time>2026-05-03T11:45:51Z</time></trkpt><trkpt lat="42.332053242035464" lon="14.118022319411336"><ele>40.0</ele><time>2026-05-03T11:45:52Z</time></trkpt><trkpt lat="42.33211728318604" lon="14.118218560582923"><ele>40.0</ele><time>2026-05-03T11:45:53Z</time></trkpt><trkpt lat="42.33218129236424" lon="14.118415735956663"><ele>40.0</ele><time>2026-05-03T11:45:54Z</time></trkpt><trkpt lat="42.33223768267968" lon="14.118602020665788"><ele>39.5</ele><time>2026-05-03T11:45:55Z</time></trkpt><trkpt lat="42.33229248294477" lon="14.11878494726151"><ele>39.0</ele><time>2026-05-03T11:45:56Z</time></trkpt><trkpt lat="42.33234572014676" lon="14.118961375153523"><ele>38.5</ele><time>2026-05-03T11:45:57Z</time></trkpt><trkpt lat="42.33240409042232" lon="14.11914069970977"><ele>38.0</ele><time>2026-05-03T11:45:58Z</time></trkpt><trkpt lat="42.33246139399683" lon="14.119322728298819"><ele>37.666666666666664</ele><time>2026-05-03T11:45:59Z</time></trkpt><trkpt lat="42.332521225318374" lon="14.119502867305629"><ele>37.333333333333336</ele><time>2026-05-03T11:46:00Z</time></trkpt><trkpt lat="42.3325817926462" lon="14.11969432334476"><ele>37.0</ele><time>2026-05-03T11:46:01Z</time></trkpt><trkpt lat="42.332643082519795" lon="14.119882419306506"><ele>38.0</ele><time>2026-05-03T11:46:02Z</time></trkpt><trkpt lat="42.33270171511506" lon="14.120086174064769"><ele>39.0</ele><time>2026-05-03T11:46:03Z</time></trkpt><trkpt lat="42.332767859898546" lon="14.120270195632662"><ele>40.0</ele><time>2026-05-03T11:46:04Z</time></trkpt><trkpt lat="42.33282727463056" lon="14.120465256522056"><ele>40.0</ele><time>2026-05-03T11:46:05Z</time></trkpt><trkpt lat="42.33288042271089" lon="14.120669574355567"><ele>40.0</ele><time>2026-05-03T11:46:06Z</time></trkpt><trkpt lat="42.332946405671294" lon="14.120868522602146"><ele>40.0</ele><time>2026-05-03T11:46:07Z</time></trkpt><trkpt lat="42.33299899839381" lon="14.12104658957787"><ele>40.5</ele><time>2026-05-03T11:46:08Z</time></trkpt><trkpt lat="42.3330590343634" lon="14.121229070385873"><ele>41.0</ele><time>2026-05-03T11:46:09Z</time></trkpt><trkpt lat="42.33311212774649" lon="14.121397903944459"><ele>41.5</ele><time>2026-05-03T11:46:10Z</time></trkpt><trkpt lat="42.333165548866376" lon="14.121564963883879"><ele>42.0</ele><time>2026-05-03T11:46:11Z</time></trkpt><trkpt lat="42.33322255800141" lon="14.121741401497616"><ele>42.0</ele><time>2026-05-03T11:46:12Z</time></trkpt><trkpt lat="42.33327540685052" lon="14.121906794470059"><ele>42.0</ele><time>2026-05-03T11:46:13Z</time></trkpt><trkpt lat="42.333322337202844" lon="14.122079408785249"><ele>42.0</ele><time>2026-05-03T11:46:14Z</time></trkpt><trkpt lat="42.333372190207875" lon="14.122219430173503"><ele>42.0</ele><time>2026-05-03T11:46:15Z</time></trkpt><trkpt lat="42.33343196251796" lon="14.122386257640951"><ele>42.5</ele><time>2026-05-03T11:46:16Z</time></trkpt><trkpt lat="42.3334882712345" lon="14.122555426787688"><ele>43.0</ele><time>2026-05-03T11:46:17Z</time></trkpt><trkpt lat="42.33353721198072" lon="14.122736016136042"><ele>43.5</ele><time>2026-05-03T11:46:18Z</time></trkpt><trkpt lat="42.33359286608793" lon="14.122910021941593"><ele>44.0</ele><time>2026-05-03T11:46:19Z</time></trkpt><trkpt lat="42.333653483363406" lon="14.123100785622135"><ele>43.75</ele><time>2026-05-03T11:46:20Z</time></trkpt><trkpt lat="42.33371072665919" lon="14.12327815142557"><ele>43.5</ele><time>2026-05-03T11:46:21Z</time></trkpt><trkpt lat="42.3337673098518" lon="14.123458874912133"><ele>43.25</ele><time>2026-05-03T11:46:22Z</time></trkpt><trkpt lat="42.33382506976502" lon="14.123654744929212"><ele>43.0</ele><time>2026-05-03T11:46:23Z</time></trkpt><trkpt lat="42.33388235557991" lon="14.123850761989898"><ele>42.66666666666667</ele><time>2026-05-03T11:46:24Z</time></trkpt><trkpt lat="42.333950331209536" lon="14.124046217498151"><ele>42.333333333333336</ele><time>2026-05-03T11:46:25Z</time></trkpt><trkpt lat="42.33401775308497" lon="14.124247354294601"><ele>42.0</ele><time>2026-05-03T11:46:26Z</time></trkpt><trkpt lat="42.33407316645322" lon="14.12443853697377"><ele>41.666666666666664</ele><time>2026-05-03T11:46:27Z</time></trkpt><trkpt lat="42.33413625721284" lon="14.12463819664587"><ele>41.33333333333333</ele><time>2026-05-03T11:46:28Z</time></trkpt><trkpt lat="42.33420175779373" lon="14.124838411104522"><ele>41.0</ele><time>2026-05-03T11:46:29Z</time></trkpt><trkpt lat="42.33426268096953" lon="14.125042446511655"><ele>41.666666666666664</ele><time>2026-05-03T11:46:30Z</time></trkpt><trkpt lat="42.33433063166604" lon="14.12524039185255"><ele>42.333333333333336</ele><time>2026-05-03T11:46:31Z</time></trkpt><trkpt lat="42.33439685646496" lon="14.125426010633639"><ele>43.0</ele><time>2026-05-03T11:46:32Z</time></trkpt><trkpt lat="42.33445664822736" lon="14.125619319814497"><ele>43.5</ele><time>2026-05-03T11:46:33Z</time></trkpt><trkpt lat="42.334509342114885" lon="14.125790492497813"><ele>44.0</ele><time>2026-05-03T11:46:34Z</time></trkpt><trkpt lat="42.33455793141568" lon="14.125951776553475"><ele>44.5</ele><time>2026-05-03T11:46:35Z</time></trkpt><trkpt lat="42.334607124100444" lon="14.126106591633071"><ele>45.0</ele><time>2026-05-03T11:46:36Z</time></trkpt><trkpt lat="42.33465827507978" lon="14.126271327182472"><ele>45.0</ele><time>2026-05-03T11:46:37Z</time></trkpt><trkpt lat="42.33471344995921" lon="14.12643899320808"><ele>45.0</ele><time>2026-05-03T11:46:38Z</time></trkpt><trkpt lat="42.334768334124426" lon="14.126613552500707"><ele>45.0</ele><time>2026-05-03T11:46:39Z</time></trkpt><trkpt lat="42.33482447669771" lon="14.12679420626978"><ele>45.0</ele><time>2026-05-03T11:46:40Z</time></trkpt><trkpt lat="42.334882243836034" lon="14.12697223308627"><ele>45.333333333333336</ele><time>2026-05-03T11:46:41Z</time></trkpt><trkpt lat="42.33494390621632" lon="14.127159784455747"><ele>45.66666666666667</ele><time>2026-05-03T11:46:42Z</time></trkpt><trkpt lat="42.33500475590146" lon="14.127350062316633"><ele>46.0</ele><time>2026-05-03T11:46:43Z</time></trkpt><trkpt lat="42.33505888222561" lon="14.127534631860515"><ele>46.5</ele><time>2026-05-03T11:46:44Z</time></trkpt><trkpt lat="42.33511241766507" lon="14.127710928701852"><ele>47.0</ele><time>2026-05-03T11:46:45Z</time></trkpt><trkpt lat="42.33516629869089" lon="14.127881208852816"><ele>47.5</ele><time>2026-05-03T11:46:46Z</time></trkpt><trkpt lat="42.335218614699485" lon="14.128054255219858"><ele>48.0</ele><time>2026-05-03T11:46:47Z</time></trkpt><trkpt lat="42.33526963554176" lon="14.12822247219708"><ele>48.25</ele><time>2026-05-03T11:46:48Z</time></trkpt><trkpt lat="42.33531411724511" lon="14.128400198145375"><ele>48.5</ele><time>2026-05-03T11:46:49Z</time></trkpt><trkpt lat="42.33537103697301" lon="14.128559306212415"><ele>48.75</ele><time>2026-05-03T11:46:50Z</time></trkpt><trkpt lat="42.335425977643986" lon="14.128728573032795"><ele>49.0</ele><time>2026-05-03T11:46:51Z</time></trkpt><trkpt lat="42.33548158843894" lon="14.128901128620805"><ele>49.25</ele><time>2026-05-03T11:46:52Z</time></trkpt><trkpt lat="42.33553246958412" lon="14.129075133729891"><ele>49.5</ele><time>2026-05-03T11:46:53Z</time></trkpt><trkpt lat="42.33558780083181" lon="14.129250165924653"><ele>49.75</ele><time>2026-05-03T11:46:54Z</time></trkpt><trkpt lat="42.33563939864695" lon="14.12942481102658"><ele>50.0</ele><time>2026-05-03T11:46:55Z</time></trkpt><trkpt lat="42.335690831596764" lon="14.129595102544465"><ele>50.0</ele><time>2026-05-03T11:46:56Z</time></trkpt><trkpt lat="42.33574551985877" lon="14.129765521565004"><ele>50.0</ele><time>2026-05-03T11:46:57Z</time></trkpt><trkpt lat="42.33579352585686" lon="14.129918886107335"><ele>50.0</ele><time>2026-05-03T11:46:58Z</time></trkpt><trkpt lat="42.33584247343561" lon="14.130067909460275"><ele>50.0</ele><time>2026-05-03T11:46:59Z</time></trkpt><trkpt lat="42.33589207810469" lon="14.130223520318756"><ele>50.5</ele><time>2026-05-03T11:47:00Z</time></trkpt><trkpt lat="42.335942727225245" lon="14.130383554180616"><ele>51.0</ele><time>2026-05-03T11:47:01Z</time></trkpt><trkpt lat="42.33599378509858" lon="14.130546481577785"><ele>51.5</ele><time>2026-05-03T11:47:02Z</time></trkpt><trkpt lat="42.336050108844546" lon="14.130716291583246"><ele>52.0</ele><time>2026-05-03T11:47:03Z</time></trkpt><trkpt lat="42.33610528147849" lon="14.130880536060776"><ele>52.0</ele><time>2026-05-03T11:47:04Z</time></trkpt><trkpt lat="42.33615879582655" lon="14.131047338120792"><ele>52.0</ele><time>2026-05-03T11:47:05Z</time></trkpt><trkpt lat="42.3362112336669" lon="14.131220400237668"><ele>52.0</ele><time>2026-05-03T11:47:06Z</time></trkpt><trkpt lat="42.336267474765364" lon="14.131394601926305"><ele>52.0</ele><time>2026-05-03T11:47:07Z</time></trkpt><trkpt lat="42.336320470281294" lon="14.131570032349055"><ele>52.0</ele><time>2026-05-03T11:47:08Z</time></trkpt><trkpt lat="42.3363796823353" lon="14.131749531988344"><ele>52.0</ele><time>2026-05-03T11:47:09Z</time></trkpt><trkpt lat="42.33644511007572" lon="14.131923937779987"><ele>52.0</ele><time>2026-05-03T11:47:10Z</time></trkpt><trkpt lat="42.33652360351554" lon="14.132092519480759"><ele>52.0</ele><time>2026-05-03T11:47:11Z</time></trkpt><trkpt lat="42.33660895261919" lon="14.13225219081827"><ele>52.5</ele><time>2026-05-03T11:47:12Z</time></trkpt><trkpt lat="42.336710242015116" lon="14.132399388681652"><ele>53.0</ele><time>2026-05-03T11:47:13Z</time></trkpt><trkpt lat="42.33682869482516" lon="14.132529317763934"><ele>53.5</ele><time>2026-05-03T11:47:14Z</time></trkpt><trkpt lat="42.336951263995104" lon="14.132641917259766"><ele>54.0</ele><time>2026-05-03T11:47:15Z</time></trkpt><trkpt lat="42.33708372717008" lon="14.13274144526765"><ele>54.0</ele><time>2026-05-03T11:47:16Z</time></trkpt><trkpt lat="42.337213479056246" lon="14.132821312909424"><ele>54.0</ele><time>2026-05-03T11:47:17Z</time></trkpt><trkpt lat="42.33735269836556" lon="14.132893354649584"><ele>54.0</ele><time>2026-05-03T11:47:18Z</time></trkpt><trkpt lat="42.33749734088337" lon="14.132951604264147"><ele>54.0</ele><time>2026-05-03T11:47:19Z</time></trkpt><trkpt lat="42.337645868942765" lon="14.132989824330625"><ele>54.25</ele><time>2026-05-03T11:47:20Z</time></trkpt><trkpt lat="42.33778949679206" lon="14.133018896253525"><ele>54.5</ele><time>2026-05-03T11:47:21Z</time></trkpt><trkpt lat="42.33792091924454" lon="14.133068050902228"><ele>54.75</ele><time>2026-05-03T11:47:22Z</time></trkpt><trkpt lat="42.338042640273734" lon="14.133101864674309"><ele>55.0</ele><time>2026-05-03T11:47:23Z</time></trkpt><trkpt lat="42.338173078800516" lon="14.133140549787486"><ele>55.0</ele><time>2026-05-03T11:47:24Z</time></trkpt><trkpt lat="42.33830799615384" lon="14.13318412114861"><ele>55.0</ele><time>2026-05-03T11:47:25Z</time></trkpt><trkpt lat="42.33844850799674" lon="14.133227519918321"><ele>55.0</ele><time>2026-05-03T11:47:26Z</time></trkpt><trkpt lat="42.33858912416882" lon="14.133275839680618"><ele>55.0</ele><time>2026-05-03T11:47:27Z</time></trkpt><trkpt lat="42.33873349156233" lon="14.133320925625892"><ele>55.0</ele><time>2026-05-03T11:47:28Z</time></trkpt><trkpt lat="42.33886554903139" lon="14.133360747784605"><ele>55.0</ele><time>2026-05-03T11:47:29Z</time></trkpt><trkpt lat="42.3390031230518" lon="14.133400110022759"><ele>55.0</ele><time>2026-05-03T11:47:30Z</time></trkpt><trkpt lat="42.33913841989297" lon="14.133445101937497"><ele>55.0</ele><time>2026-05-03T11:47:31Z</time></trkpt><trkpt lat="42.33927036436954" lon="14.133486969893946"><ele>55.0</ele><time>2026-05-03T11:47:32Z</time></trkpt><trkpt lat="42.33940376363058" lon="14.133526464307847"><ele>55.0</ele><time>2026-05-03T11:47:33Z</time></trkpt><trkpt lat="42.33953553041143" lon="14.1335657542703"><ele>55.0</ele><time>2026-05-03T11:47:34Z</time></trkpt><trkpt lat="42.33965224094013" lon="14.133601350975203"><ele>55.0</ele><time>2026-05-03T11:47:35Z</time></trkpt><trkpt lat="42.339760420293366" lon="14.133630493955682"><ele>55.0</ele><time>2026-05-03T11:47:36Z</time></trkpt><trkpt lat="42.33986550693262" lon="14.133660291313296"><ele>55.0</ele><time>2026-05-03T11:47:37Z</time></trkpt><trkpt lat="42.339961357426134" lon="14.13369183711558"><ele>55.0</ele><time>2026-05-03T11:47:38Z</time></trkpt><trkpt lat="42.34005584173949" lon="14.133718920540725"><ele>55.0</ele><time>2026-05-03T11:47:39Z</time></trkpt><trkpt lat="42.34015139938157" lon="14.133752033981205"><ele>55.0</ele><time>2026-05-03T11:47:40Z</time></trkpt><trkpt lat="42.340233474733786" lon="14.133783096881094"><ele>54.99999999999999</ele><time>2026-05-03T11:47:41Z</time></trkpt><trkpt lat="42.340302904310285" lon="14.133808942867088"><ele>55.0</ele><time>2026-05-03T11:47:42Z</time></trkpt><trkpt lat="42.3403761935994" lon="14.13384309279434"><ele>55.0</ele><time>2026-05-03T11:47:44Z</time></trkpt><trkpt lat="42.34046157537358" lon="14.133930533932748"><ele>55.0</ele><time>2026-05-03T11:47:47Z</time></trkpt><trkpt lat="42.34050782600464" lon="14.133991245536185"><ele>54.99999999999999</ele><time>2026-05-03T11:47:48Z</time></trkpt><trkpt lat="42.34062601233965" lon="14.134029233895026"><ele>55.0</ele><time>2026-05-03T11:47:50Z</time></trkpt><trkpt lat="42.34068380315779" lon="14.133987520312546"><ele>54.666666666666664</ele><time>2026-05-03T11:47:51Z</time></trkpt><trkpt lat="42.34072263218127" lon="14.133847064502088"><ele>54.33333333333333</ele><time>2026-05-03T11:47:53Z</time></trkpt><trkpt lat="42.3407036945138" lon="14.13376303069163"><ele>54.0</ele><time>2026-05-03T11:47:54Z</time></trkpt><trkpt lat="42.34067434171673" lon="14.133675195048577"><ele>53.66666666666667</ele><time>2026-05-03T11:47:55Z</time></trkpt><trkpt lat="42.34065151316729" lon="14.133569565132216"><ele>53.333333333333336</ele><time>2026-05-03T11:47:56Z</time></trkpt><trkpt lat="42.34067034355234" lon="14.133454239140354"><ele>53.0</ele><time>2026-05-03T11:47:57Z</time></trkpt><trkpt lat="42.34072496278983" lon="14.133333803902353"><ele>52.5</ele><time>2026-05-03T11:47:58Z</time></trkpt><trkpt lat="42.34079682373528" lon="14.13321428630107"><ele>52.0</ele><time>2026-05-03T11:47:59Z</time></trkpt><trkpt lat="42.34087389351522" lon="14.1330894841631"><ele>51.5</ele><time>2026-05-03T11:48:00Z</time></trkpt><trkpt lat="42.340948621528725" lon="14.132969101644912"><ele>51.0</ele><time>2026-05-03T11:48:01Z</time></trkpt><trkpt lat="42.341018709557055" lon="14.132847337255422"><ele>51.0</ele><time>2026-05-03T11:48:02Z</time></trkpt><trkpt lat="42.34108900648236" lon="14.132731812082744"><ele>51.0</ele><time>2026-05-03T11:48:03Z</time></trkpt><trkpt lat="42.34116664426516" lon="14.132610975266244"><ele>51.0</ele><time>2026-05-03T11:48:04Z</time></trkpt><trkpt lat="42.34124666971919" lon="14.132493626166282"><ele>51.0</ele><time>2026-05-03T11:48:05Z</time></trkpt><trkpt lat="42.341326123588885" lon="14.132376925759731"><ele>50.4</ele><time>2026-05-03T11:48:06Z</time></trkpt><trkpt lat="42.34139849069285" lon="14.132261170201826"><ele>49.8</ele><time>2026-05-03T11:48:07Z</time></trkpt><trkpt lat="42.34146524137633" lon="14.132135823704015"><ele>49.199999999999996</ele><time>2026-05-03T11:48:08Z</time></trkpt><trkpt lat="42.341516361230205" lon="14.132000133490003"><ele>48.599999999999994</ele><time>2026-05-03T11:48:09Z</time></trkpt><trkpt lat="42.34156035871674" lon="14.131865401665593"><ele>48.0</ele><time>2026-05-03T11:48:10Z</time></trkpt><trkpt lat="42.34159268200772" lon="14.131734076142966"><ele>48.0</ele><time>2026-05-03T11:48:11Z</time></trkpt><trkpt lat="42.341623499036785" lon="14.131614244862542"><ele>48.0</ele><time>2026-05-03T11:48:12Z</time></trkpt><trkpt lat="42.34165727162222" lon="14.13151990217028"><ele>48.0</ele><time>2026-05-03T11:48:13Z</time></trkpt><trkpt lat="42.34168489911007" lon="14.13143621542739"><ele>48.0</ele><time>2026-05-03T11:48:14Z</time></trkpt><trkpt lat="42.341701944177004" lon="14.131348200879852"><ele>48.0</ele><time>2026-05-03T11:48:17Z</time></trkpt><trkpt lat="42.34179191690362" lon="14.131274896251794"><ele>48.0</ele><time>2026-05-03T11:48:19Z</time></trkpt><trkpt lat="42.34183758118167" lon="14.131196746452488"><ele>47.8</ele><time>2026-05-03T11:48:20Z</time></trkpt><trkpt lat="42.34187009528282" lon="14.131070202435508"><ele>47.599999999999994</ele><time>2026-05-03T11:48:21Z</time></trkpt><trkpt lat="42.34185741721183" lon="14.130934116350883"><ele>47.400000000000006</ele><time>2026-05-03T11:48:22Z</time></trkpt><trkpt lat="42.34188194470139" lon="14.130804092052383"><ele>47.2</ele><time>2026-05-03T11:48:23Z</time></trkpt><trkpt lat="42.341908873001195" lon="14.130659422282852"><ele>47.0</ele><time>2026-05-03T11:48:24Z</time></trkpt><trkpt lat="42.341933670173596" lon="14.130519874316436"><ele>46.83333333333333</ele><time>2026-05-03T11:48:25Z</time></trkpt><trkpt lat="42.34196287368379" lon="14.130402402379236"><ele>46.666666666666664</ele><time>2026-05-03T11:48:26Z</time></trkpt><trkpt lat="42.341989559911745" lon="14.130292321255045"><ele>46.5</ele><time>2026-05-03T11:48:27Z</time></trkpt><trkpt lat="42.34202358241655" lon="14.130209090244911"><ele>46.333333333333336</ele><time>2026-05-03T11:48:28Z</time></trkpt><trkpt lat="42.342022934025785" lon="14.130097561612594"><ele>46.16666666666667</ele><time>2026-05-03T11:48:29Z</time></trkpt><trkpt lat="42.34203826889989" lon="14.129994903281222"><ele>46.0</ele><time>2026-05-03T11:48:30Z</time></trkpt><trkpt lat="42.34204251552436" lon="14.129902297468899"><ele>45.599999999999994</ele><time>2026-05-03T11:48:31Z</time></trkpt><trkpt lat="42.34205754080921" lon="14.12975778326901"><ele>45.2</ele><time>2026-05-03T11:48:33Z</time></trkpt><trkpt lat="42.342148498074124" lon="14.129626059086862"><ele>44.8</ele><time>2026-05-03T11:48:35Z</time></trkpt><trkpt lat="42.34220430262013" lon="14.129513558317665"><ele>44.400000000000006</ele><time>2026-05-03T11:48:36Z</time></trkpt><trkpt lat="42.3422317420078" lon="14.129389515417191"><ele>44.0</ele><time>2026-05-03T11:48:37Z</time></trkpt><trkpt lat="42.34218616664282" lon="14.129262236566827"><ele>44.0</ele><time>2026-05-03T11:48:38Z</time></trkpt><trkpt lat="42.34209971262539" lon="14.12918619609951"><ele>44.0</ele><time>2026-05-03T11:48:39Z</time></trkpt><trkpt lat="42.34200680082003" lon="14.129116833643804"><ele>44.0</ele><time>2026-05-03T11:48:40Z</time></trkpt><trkpt lat="42.3418986889633" lon="14.129125857053786"><ele>44.0</ele><time>2026-05-03T11:48:41Z</time></trkpt><trkpt lat="42.34188328689803" lon="14.128898062133672"><ele>42.75</ele><time>2026-05-03T11:48:42Z</time></trkpt><trkpt lat="42.3418439083618" lon="14.128733679564737"><ele>41.5</ele><time>2026-05-03T11:48:43Z</time></trkpt><trkpt lat="42.34180334657816" lon="14.12853906958636"><ele>40.25</ele><time>2026-05-03T11:48:44Z</time></trkpt><trkpt lat="42.34176183306777" lon="14.12832257862804"><ele>39.0</ele><time>2026-05-03T11:48:45Z</time></trkpt><trkpt lat="42.34171994580552" lon="14.12809529516686"><ele>38.333333333333336</ele><time>2026-05-03T11:48:46Z</time></trkpt><trkpt lat="42.341681787463564" lon="14.127872245350023"><ele>37.66666666666667</ele><time>2026-05-03T11:48:47Z</time></trkpt><trkpt lat="42.341627426178945" lon="14.127615901513213"><ele>37.0</ele><time>2026-05-03T11:48:48Z</time></trkpt><trkpt lat="42.34158707187286" lon="14.127369941854008"><ele>36.333333333333336</ele><time>2026-05-03T11:48:49Z</time></trkpt><trkpt lat="42.34154718254635" lon="14.127125938336013"><ele>35.666666666666664</ele><time>2026-05-03T11:48:50Z</time></trkpt><trkpt lat="42.341502379860856" lon="14.12686990716757"><ele>35.0</ele><time>2026-05-03T11:48:51Z</time></trkpt><trkpt lat="42.3414596248569" lon="14.12662448258457"><ele>35.0</ele><time>2026-05-03T11:48:52Z</time></trkpt><trkpt lat="42.34141471236621" lon="14.126377582443228"><ele>35.0</ele><time>2026-05-03T11:48:53Z</time></trkpt><trkpt lat="42.34138651597985" lon="14.126123952450564"><ele>35.0</ele><time>2026-05-03T11:48:54Z</time></trkpt><trkpt lat="42.34134443217988" lon="14.125885413314988"><ele>34.666666666666664</ele><time>2026-05-03T11:48:55Z</time></trkpt><trkpt lat="42.34128825032194" lon="14.125645542577901"><ele>34.333333333333336</ele><time>2026-05-03T11:48:56Z</time></trkpt><trkpt lat="42.341264357373525" lon="14.125413519912167"><ele>34.0</ele><time>2026-05-03T11:48:57Z</time></trkpt><trkpt lat="42.341207001788696" lon="14.125162528685777"><ele>34.0</ele><time>2026-05-03T11:48:58Z</time></trkpt><trkpt lat="42.34117056579457" lon="14.12492853804228"><ele>34.0</ele><time>2026-05-03T11:48:59Z</time></trkpt><trkpt lat="42.34112990692186" lon="14.12468705583053"><ele>34.0</ele><time>2026-05-03T11:49:00Z</time></trkpt><trkpt lat="42.341103181814645" lon="14.12443420421145"><ele>34.333333333333336</ele><time>2026-05-03T11:49:01Z</time></trkpt><trkpt lat="42.3410510683773" lon="14.124202964510923"><ele>34.666666666666664</ele><time>2026-05-03T11:49:02Z</time></trkpt><trkpt lat="42.34101283038427" lon="14.123954326297564"><ele>35.0</ele><time>2026-05-03T11:49:03Z</time></trkpt><trkpt lat="42.340973450949825" lon="14.123720486881876"><ele>35.0</ele><time>2026-05-03T11:49:04Z</time></trkpt><trkpt lat="42.34092961512245" lon="14.123480590531198"><ele>35.0</ele><time>2026-05-03T11:49:05Z</time></trkpt><trkpt lat="42.340892467374495" lon="14.123249325511939"><ele>35.0</ele><time>2026-05-03T11:49:06Z</time></trkpt><trkpt lat="42.340858401260505" lon="14.123042877311859"><ele>35.0</ele><time>2026-05-03T11:49:07Z</time></trkpt><trkpt lat="42.34082757160746" lon="14.12284359153721"><ele>35.0</ele><time>2026-05-03T11:49:08Z</time></trkpt><trkpt lat="42.34079703855352" lon="14.122656292199208"><ele>35.0</ele><time>2026-05-03T11:49:09Z</time></trkpt><trkpt lat="42.3407779890719" lon="14.122463995879132"><ele>35.0</ele><time>2026-05-03T11:49:10Z</time></trkpt><trkpt lat="42.34079210017193" lon="14.12226317681319"><ele>34.75</ele><time>2026-05-03T11:49:11Z</time></trkpt><trkpt lat="42.34080777169243" lon="14.122070317310476"><ele>34.5</ele><time>2026-05-03T11:49:12Z</time></trkpt><trkpt lat="42.34083744826436" lon="14.12189709422481"><ele>34.25</ele><time>2026-05-03T11:49:13Z</time></trkpt><trkpt lat="42.34086547051289" lon="14.121755296348459"><ele>34.0</ele><time>2026-05-03T11:49:14Z</time></trkpt><trkpt lat="42.340923355423094" lon="14.121666891459979"><ele>34.0</ele><time>2026-05-03T11:49:15Z</time></trkpt><trkpt lat="42.3409901863251" lon="14.12160727696619"><ele>34.0</ele><time>2026-05-03T11:49:16Z</time></trkpt><trkpt lat="42.34108415687612" lon="14.121581494952807"><ele>34.0</ele><time>2026-05-03T11:49:17Z</time></trkpt><trkpt lat="42.34116572798266" lon="14.121508120447288"><ele>34.0</ele><time>2026-05-03T11:49:18Z</time></trkpt><trkpt lat="42.341214678806715" lon="14.121384787401137"><ele>34.0</ele><time>2026-05-03T11:49:19Z</time></trkpt><trkpt lat="42.3412421762212" lon="14.12125448766296"><ele>33.8</ele><time>2026-05-03T11:49:20Z</time></trkpt><trkpt lat="42.341205950446685" lon="14.121127099545326"><ele>33.599999999999994</ele><time>2026-05-03T11:49:21Z</time></trkpt><trkpt lat="42.34115683945196" lon="14.121053267212822"><ele>33.4</ele><time>2026-05-03T11:49:22Z</time></trkpt><trkpt lat="42.34125100836018" lon="14.120953983858536"><ele>33.199999999999996</ele><time>2026-05-03T11:49:23Z</time></trkpt><trkpt lat="42.34130925484736" lon="14.120842783812964"><ele>33.0</ele><time>2026-05-03T11:49:24Z</time></trkpt><trkpt lat="42.341384355247456" lon="14.120700846556685"><ele>33.0</ele><time>2026-05-03T11:49:25Z</time></trkpt><trkpt lat="42.34147090779882" lon="14.120538426934594"><ele>33.0</ele><time>2026-05-03T11:49:26Z</time></trkpt><trkpt lat="42.34155325776518" lon="14.120353630420688"><ele>33.0</ele><time>2026-05-03T11:49:27Z</time></trkpt><trkpt lat="42.341655118549966" lon="14.120178413587146"><ele>33.0</ele><time>2026-05-03T11:49:28Z</time></trkpt><trkpt lat="42.341761677309506" lon="14.119990999772233"><ele>33.0</ele><time>2026-05-03T11:49:29Z</time></trkpt><trkpt lat="42.341868720835976" lon="14.119795963158245"><ele>33.0</ele><time>2026-05-03T11:49:30Z</time></trkpt><trkpt lat="42.34198111691738" lon="14.119595082645048"><ele>33.0</ele><time>2026-05-03T11:49:31Z</time></trkpt><trkpt lat="42.342089241220386" lon="14.119398083582517"><ele>33.0</ele><time>2026-05-03T11:49:32Z</time></trkpt><trkpt lat="42.34219665496281" lon="14.1192058096468"><ele>33.0</ele><time>2026-05-03T11:49:33Z</time></trkpt><trkpt lat="42.34230215058742" lon="14.118996265860108"><ele>33.0</ele><time>2026-05-03T11:49:34Z</time></trkpt><trkpt lat="42.342394805108924" lon="14.118781246420072"><ele>33.0</ele><time>2026-05-03T11:49:35Z</time></trkpt><trkpt lat="42.34247623815101" lon="14.118549406621963"><ele>33.0</ele><time>2026-05-03T11:49:36Z</time></trkpt><trkpt lat="42.34253881316887" lon="14.118313415738017"><ele>35.0</ele><time>2026-05-03T11:49:37Z</time></trkpt><trkpt lat="42.34258629279816" lon="14.118064893567219"><ele>37.0</ele><time>2026-05-03T11:49:38Z</time></trkpt><trkpt lat="42.34262647259087" lon="14.117829066042136"><ele>39.0</ele><time>2026-05-03T11:49:39Z</time></trkpt><trkpt lat="42.342668610432185" lon="14.117585285976913"><ele>41.0</ele><time>2026-05-03T11:49:40Z</time></trkpt><trkpt lat="42.3427110442814" lon="14.117348394519212"><ele>43.0</ele><time>2026-05-03T11:49:41Z</time></trkpt><trkpt lat="42.34275678974476" lon="14.117111613634753"><ele>45.0</ele><time>2026-05-03T11:49:42Z</time></trkpt><trkpt lat="42.34280104848397" lon="14.11688712389527"><ele>45.0</ele><time>2026-05-03T11:49:43Z</time></trkpt><trkpt lat="42.3428466592902" lon="14.11664853481732"><ele>45.0</ele><time>2026-05-03T11:49:44Z</time></trkpt><trkpt lat="42.342883842941646" lon="14.116427788408659"><ele>45.0</ele><time>2026-05-03T11:49:45Z</time></trkpt><trkpt lat="42.34292808625307" lon="14.11619479003398"><ele>45.333333333333336</ele><time>2026-05-03T11:49:46Z</time></trkpt><trkpt lat="42.34296096894704" lon="14.115976092639267"><ele>45.66666666666667</ele><time>2026-05-03T11:49:47Z</time></trkpt><trkpt lat="42.34301459064127" lon="14.115763854528703"><ele>46.0</ele><time>2026-05-03T11:49:48Z</time></trkpt><trkpt lat="42.34303615670383" lon="14.115534251268615"><ele>46.66666666666667</ele><time>2026-05-03T11:49:49Z</time></trkpt><trkpt lat="42.34307083397284" lon="14.115320354229057"><ele>47.333333333333336</ele><time>2026-05-03T11:49:50Z</time></trkpt><trkpt lat="42.34310542380396" lon="14.115096903727931"><ele>48.0</ele><time>2026-05-03T11:49:51Z</time></trkpt><trkpt lat="42.34313960214322" lon="14.114894620367556"><ele>48.0</ele><time>2026-05-03T11:49:52Z</time></trkpt><trkpt lat="42.34316548283289" lon="14.114668225670489"><ele>48.0</ele><time>2026-05-03T11:49:53Z</time></trkpt><trkpt lat="42.34319259659554" lon="14.114450916144683"><ele>48.0</ele><time>2026-05-03T11:49:54Z</time></trkpt><trkpt lat="42.34322026216381" lon="14.11423997800402"><ele>47.666666666666664</ele><time>2026-05-03T11:49:55Z</time></trkpt><trkpt lat="42.34325016458631" lon="14.1140211850977"><ele>47.33333333333333</ele><time>2026-05-03T11:49:56Z</time></trkpt><trkpt lat="42.34329373474777" lon="14.11380438620047"><ele>47.0</ele><time>2026-05-03T11:49:57Z</time></trkpt><trkpt lat="42.34332015645786" lon="14.113597789066683"><ele>47.0</ele><time>2026-05-03T11:49:58Z</time></trkpt><trkpt lat="42.34333512243552" lon="14.113391200311723"><ele>47.0</ele><time>2026-05-03T11:49:59Z</time></trkpt><trkpt lat="42.34335868351394" lon="14.113202024951919"><ele>47.0</ele><time>2026-05-03T11:50:00Z</time></trkpt><trkpt lat="42.34338334622145" lon="14.113024983189005"><ele>47.0</ele><time>2026-05-03T11:50:01Z</time></trkpt><trkpt lat="42.34340621429745" lon="14.112853290272959"><ele>47.0</ele><time>2026-05-03T11:50:02Z</time></trkpt><trkpt lat="42.34342613652213" lon="14.1126799168286"><ele>47.0</ele><time>2026-05-03T11:50:03Z</time></trkpt><trkpt lat="42.343450425338446" lon="14.112518865125491"><ele>47.0</ele><time>2026-05-03T11:50:04Z</time></trkpt><trkpt lat="42.343465756147964" lon="14.112367065091135"><ele>47.0</ele><time>2026-05-03T11:50:05Z</time></trkpt><trkpt lat="42.34348256358135" lon="14.112223739822916"><ele>47.0</ele><time>2026-05-03T11:50:06Z</time></trkpt><trkpt lat="42.343499326389235" lon="14.11208501065633"><ele>47.0</ele><time>2026-05-03T11:50:07Z</time></trkpt><trkpt lat="42.34351560592766" lon="14.11194844858634"><ele>47.0</ele><time>2026-05-03T11:50:08Z</time></trkpt><trkpt lat="42.34354981557857" lon="14.111823782648703"><ele>47.0</ele><time>2026-05-03T11:50:09Z</time></trkpt><trkpt lat="42.343567487663876" lon="14.111703031173315"><ele>47.0</ele><time>2026-05-03T11:50:10Z</time></trkpt><trkpt lat="42.34357145730083" lon="14.111592281087765"><ele>47.166666666666664</ele><time>2026-05-03T11:50:11Z</time></trkpt><trkpt lat="42.34359931726104" lon="14.11150053109343"><ele>47.33333333333333</ele><time>2026-05-03T11:50:12Z</time></trkpt><trkpt lat="42.34364698095189" lon="14.111429297853826"><ele>47.5</ele><time>2026-05-03T11:50:13Z</time></trkpt><trkpt lat="42.3437270365876" lon="14.111413139159268"><ele>47.666666666666664</ele><time>2026-05-03T11:50:14Z</time></trkpt><trkpt lat="42.3438207106743" lon="14.111473268009256"><ele>47.833333333333336</ele><time>2026-05-03T11:50:15Z</time></trkpt><trkpt lat="42.34389827553542" lon="14.111542399904836"><ele>48.0</ele><time>2026-05-03T11:50:16Z</time></trkpt><trkpt lat="42.343982830626345" lon="14.1116180461386"><ele>48.0</ele><time>2026-05-03T11:50:17Z</time></trkpt><trkpt lat="42.344086316580494" lon="14.111691251952275"><ele>48.0</ele><time>2026-05-03T11:50:18Z</time></trkpt><trkpt lat="42.344198190469974" lon="14.111764072476202"><ele>48.0</ele><time>2026-05-03T11:50:19Z</time></trkpt><trkpt lat="42.34431660575696" lon="14.111845231597743"><ele>48.0</ele><time>2026-05-03T11:50:20Z</time></trkpt><trkpt lat="42.34443846981614" lon="14.111924225092162"><ele>48.0</ele><time>2026-05-03T11:50:21Z</time></trkpt><trkpt lat="42.344561848113976" lon="14.112003340476816"><ele>48.0</ele><time>2026-05-03T11:50:22Z</time></trkpt><trkpt lat="42.34468479753234" lon="14.112083750616653"><ele>48.0</ele><time>2026-05-03T11:50:23Z</time></trkpt><trkpt lat="42.34480959968137" lon="14.112164188701074"><ele>48.0</ele><time>2026-05-03T11:50:24Z</time></trkpt><trkpt lat="42.34493610072425" lon="14.11223769396294"><ele>47.5</ele><time>2026-05-03T11:50:25Z</time></trkpt><trkpt lat="42.34506961879819" lon="14.11232789429769"><ele>47.0</ele><time>2026-05-03T11:50:26Z</time></trkpt><trkpt lat="42.34521887626898" lon="14.112404791133528"><ele>46.5</ele><time>2026-05-03T11:50:27Z</time></trkpt><trkpt lat="42.345326948916544" lon="14.112434414480187"><ele>46.0</ele><time>2026-05-03T11:50:28Z</time></trkpt><trkpt lat="42.3454648213426" lon="14.112484449604278"><ele>46.0</ele><time>2026-05-03T11:50:29Z</time></trkpt><trkpt lat="42.34560567298837" lon="14.112526088222255"><ele>46.0</ele><time>2026-05-03T11:50:30Z</time></trkpt><trkpt lat="42.3457566269187" lon="14.112570043089605"><ele>46.0</ele><time>2026-05-03T11:50:31Z</time></trkpt><trkpt lat="42.34590805402383" lon="14.112615747819083"><ele>46.0</ele><time>2026-05-03T11:50:32Z</time></trkpt><trkpt lat="42.34606134431611" lon="14.112662264928606"><ele>46.0</ele><time>2026-05-03T11:50:33Z</time></trkpt><trkpt lat="42.34621361176117" lon="14.112712745827773"><ele>46.0</ele><time>2026-05-03T11:50:34Z</time></trkpt><trkpt lat="42.34636054756791" lon="14.112771937521591"><ele>45.333333333333336</ele><time>2026-05-03T11:50:35Z</time></trkpt><trkpt lat="42.346507396658716" lon="14.11284601634225"><ele>44.666666666666664</ele><time>2026-05-03T11:50:36Z</time></trkpt><trkpt lat="42.346658472590235" lon="14.112915515349682"><ele>44.0</ele><time>2026-05-03T11:50:37Z</time></trkpt><trkpt lat="42.34680673791717" lon="14.112989181877122"><ele>44.0</ele><time>2026-05-03T11:50:38Z</time></trkpt><trkpt lat="42.34695644940271" lon="14.113063860743935"><ele>44.0</ele><time>2026-05-03T11:50:39Z</time></trkpt><trkpt lat="42.34710544412349" lon="14.113138654208102"><ele>44.0</ele><time>2026-05-03T11:50:40Z</time></trkpt><trkpt lat="42.347262291376005" lon="14.113211547997274"><ele>44.33333333333333</ele><time>2026-05-03T11:50:41Z</time></trkpt><trkpt lat="42.34740999395657" lon="14.113287337075164"><ele>44.666666666666664</ele><time>2026-05-03T11:50:42Z</time></trkpt><trkpt lat="42.34755977251749" lon="14.113358209147519"><ele>45.0</ele><time>2026-05-03T11:50:43Z</time></trkpt><trkpt lat="42.347708237048224" lon="14.113438147215977"><ele>45.0</ele><time>2026-05-03T11:50:44Z</time></trkpt><trkpt lat="42.34785333959832" lon="14.113508325755905"><ele>45.0</ele><time>2026-05-03T11:50:45Z</time></trkpt><trkpt lat="42.34799504077968" lon="14.113579997873765"><ele>45.0</ele><time>2026-05-03T11:50:46Z</time></trkpt><trkpt lat="42.34814073117816" lon="14.11364292971759"><ele>45.0</ele><time>2026-05-03T11:50:47Z</time></trkpt><trkpt lat="42.348283273297284" lon="14.113682186380762"><ele>45.0</ele><time>2026-05-03T11:50:48Z</time></trkpt><trkpt lat="42.3484196679657" lon="14.113688470381073"><ele>45.0</ele><time>2026-05-03T11:50:49Z</time></trkpt><trkpt lat="42.3485402806909" lon="14.113636527741757"><ele>45.0</ele><time>2026-05-03T11:50:50Z</time></trkpt><trkpt lat="42.348667078102196" lon="14.113557130888632"><ele>45.0</ele><time>2026-05-03T11:50:51Z</time></trkpt><trkpt lat="42.3487986286831" lon="14.113460978445103"><ele>45.0</ele><time>2026-05-03T11:50:52Z</time></trkpt><trkpt lat="42.34893092862279" lon="14.113369707539661"><ele>45.0</ele><time>2026-05-03T11:50:53Z</time></trkpt><trkpt lat="42.34907289446885" lon="14.11327722709393"><ele>44.0</ele><time>2026-05-03T11:50:54Z</time></trkpt><trkpt lat="42.34921361400687" lon="14.113182068687244"><ele>43.0</ele><time>2026-05-03T11:50:55Z</time></trkpt><trkpt lat="42.34934778427839" lon="14.113087664996996"><ele>42.0</ele><time>2026-05-03T11:50:56Z</time></trkpt><trkpt lat="42.349469743481" lon="14.11300349759335"><ele>41.0</ele><time>2026-05-03T11:50:57Z</time></trkpt><trkpt lat="42.34959291471308" lon="14.112916536278577"><ele>41.75</ele><time>2026-05-03T11:50:58Z</time></trkpt><trkpt lat="42.34972372425984" lon="14.112831227298871"><ele>42.5</ele><time>2026-05-03T11:50:59Z</time></trkpt><trkpt lat="42.34985101144692" lon="14.112746297565863"><ele>43.25</ele><time>2026-05-03T11:51:00Z</time></trkpt><trkpt lat="42.34998304928955" lon="14.112667929318238"><ele>44.0</ele><time>2026-05-03T11:51:01Z</time></trkpt><trkpt lat="42.35013070131752" lon="14.112594118190255"><ele>44.0</ele><time>2026-05-03T11:51:02Z</time></trkpt><trkpt lat="42.350285367450795" lon="14.112547591023576"><ele>44.0</ele><time>2026-05-03T11:51:03Z</time></trkpt><trkpt lat="42.35042885440429" lon="14.112466912593321"><ele>44.0</ele><time>2026-05-03T11:51:04Z</time></trkpt><trkpt lat="42.35060381172826" lon="14.112502379714906"><ele>44.0</ele><time>2026-05-03T11:51:05Z</time></trkpt><trkpt lat="42.350764842857096" lon="14.112521081810675"><ele>44.0</ele><time>2026-05-03T11:51:06Z</time></trkpt><trkpt lat="42.3509309357091" lon="14.112555428412504"><ele>44.0</ele><time>2026-05-03T11:51:07Z</time></trkpt><trkpt lat="42.351096044168386" lon="14.112599496879474"><ele>44.0</ele><time>2026-05-03T11:51:08Z</time></trkpt><trkpt lat="42.35125485510256" lon="14.112662432483043"><ele>44.0</ele><time>2026-05-03T11:51:09Z</time></trkpt><trkpt lat="42.35141943078721" lon="14.112743365371164"><ele>44.0</ele><time>2026-05-03T11:51:10Z</time></trkpt><trkpt lat="42.35159114113889" lon="14.112812984261918"><ele>42.666666666666664</ele><time>2026-05-03T11:51:11Z</time></trkpt><trkpt lat="42.35175878291902" lon="14.112881026359512"><ele>41.333333333333336</ele><time>2026-05-03T11:51:12Z</time></trkpt><trkpt lat="42.351928708541806" lon="14.112952377922564"><ele>40.0</ele><time>2026-05-03T11:51:13Z</time></trkpt><trkpt lat="42.35210191052864" lon="14.113020480468984"><ele>38.333333333333336</ele><time>2026-05-03T11:51:14Z</time></trkpt><trkpt lat="42.35227267324035" lon="14.11309147149002"><ele>36.666666666666664</ele><time>2026-05-03T11:51:15Z</time></trkpt><trkpt lat="42.35244625813828" lon="14.113156523719228"><ele>35.0</ele><time>2026-05-03T11:51:16Z</time></trkpt><trkpt lat="42.35261639393211" lon="14.113227791972914"><ele>35.0</ele><time>2026-05-03T11:51:17Z</time></trkpt><trkpt lat="42.35278343415281" lon="14.113302658253609"><ele>35.0</ele><time>2026-05-03T11:51:18Z</time></trkpt><trkpt lat="42.352960883274356" lon="14.11337361955123"><ele>35.0</ele><time>2026-05-03T11:51:19Z</time></trkpt><trkpt lat="42.35313721654084" lon="14.11344165442465"><ele>35.0</ele><time>2026-05-03T11:51:20Z</time></trkpt><trkpt lat="42.353303707981645" lon="14.113517891195082"><ele>35.0</ele><time>2026-05-03T11:51:21Z</time></trkpt><trkpt lat="42.353470661766615" lon="14.113588788002058"><ele>35.0</ele><time>2026-05-03T11:51:22Z</time></trkpt><trkpt lat="42.35365003386149" lon="14.113657432979567"><ele>35.0</ele><time>2026-05-03T11:51:23Z</time></trkpt><trkpt lat="42.35382112474615" lon="14.113722187364615"><ele>35.0</ele><time>2026-05-03T11:51:24Z</time></trkpt><trkpt lat="42.35399235752745" lon="14.113781647949102"><ele>35.0</ele><time>2026-05-03T11:51:25Z</time></trkpt><trkpt lat="42.354162896563665" lon="14.113842006726417"><ele>35.33333333333333</ele><time>2026-05-03T11:51:26Z</time></trkpt><trkpt lat="42.354331022735636" lon="14.113910810345816"><ele>35.666666666666664</ele><time>2026-05-03T11:51:27Z</time></trkpt><trkpt lat="42.35449828665112" lon="14.11398138851197"><ele>36.0</ele><time>2026-05-03T11:51:28Z</time></trkpt><trkpt lat="42.35466957758986" lon="14.114055971721536"><ele>36.333333333333336</ele><time>2026-05-03T11:51:29Z</time></trkpt><trkpt lat="42.35484624605126" lon="14.114130150227801"><ele>36.66666666666667</ele><time>2026-05-03T11:51:30Z</time></trkpt><trkpt lat="42.355022012785575" lon="14.114196911201661"><ele>37.0</ele><time>2026-05-03T11:51:31Z</time></trkpt><trkpt lat="42.3552012277899" lon="14.114265910174407"><ele>37.0</ele><time>2026-05-03T11:51:32Z</time></trkpt><trkpt lat="42.35537632613116" lon="14.11434495234839"><ele>37.0</ele><time>2026-05-03T11:51:33Z</time></trkpt><trkpt lat="42.35555719954498" lon="14.114412713837462"><ele>37.0</ele><time>2026-05-03T11:51:34Z</time></trkpt><trkpt lat="42.35573792835499" lon="14.11448357313696"><ele>40.333333333333336</ele><time>2026-05-03T11:51:35Z</time></trkpt><trkpt lat="42.35591904866165" lon="14.114554832563073"><ele>43.666666666666664</ele><time>2026-05-03T11:51:36Z</time></trkpt><trkpt lat="42.356105507510875" lon="14.114618962963819"><ele>47.0</ele><time>2026-05-03T11:51:37Z</time></trkpt><trkpt lat="42.356282087199624" lon="14.114699215305683"><ele>47.666666666666664</ele><time>2026-05-03T11:51:38Z</time></trkpt><trkpt lat="42.356465311399525" lon="14.114771564261133"><ele>48.33333333333333</ele><time>2026-05-03T11:51:39Z</time></trkpt><trkpt lat="42.35664879635029" lon="14.114839792338516"><ele>49.0</ele><time>2026-05-03T11:51:40Z</time></trkpt><trkpt lat="42.35682793864959" lon="14.114922872740419"><ele>46.33333333333333</ele><time>2026-05-03T11:51:41Z</time></trkpt><trkpt lat="42.35701119627678" lon="14.11500637361943"><ele>43.666666666666664</ele><time>2026-05-03T11:51:42Z</time></trkpt><trkpt lat="42.35719870313534" lon="14.115074001787908"><ele>41.0</ele><time>2026-05-03T11:51:43Z</time></trkpt><trkpt lat="42.357384483194565" lon="14.11514679482026"><ele>41.0</ele><time>2026-05-03T11:51:44Z</time></trkpt><trkpt lat="42.35757041314587" lon="14.115221074989362"><ele>41.0</ele><time>2026-05-03T11:51:45Z</time></trkpt><trkpt lat="42.35775846497549" lon="14.11529261572207"><ele>41.0</ele><time>2026-05-03T11:51:46Z</time></trkpt><trkpt lat="42.35794920089748" lon="14.115370881989142"><ele>41.0</ele><time>2026-05-03T11:51:47Z</time></trkpt><trkpt lat="42.35814136487491" lon="14.11545044365243"><ele>41.0</ele><time>2026-05-03T11:51:48Z</time></trkpt><trkpt lat="42.358332890930896" lon="14.115536604461767"><ele>41.0</ele><time>2026-05-03T11:51:49Z</time></trkpt><trkpt lat="42.35852808806013" lon="14.115616701388058"><ele>41.0</ele><time>2026-05-03T11:51:50Z</time></trkpt><trkpt lat="42.35872503542308" lon="14.115691809987428"><ele>41.0</ele><time>2026-05-03T11:51:51Z</time></trkpt><trkpt lat="42.358920742400414" lon="14.115765759275288"><ele>41.0</ele><time>2026-05-03T11:51:52Z</time></trkpt><trkpt lat="42.359116269235635" lon="14.115835387988724"><ele>39.33333333333333</ele><time>2026-05-03T11:51:53Z</time></trkpt><trkpt lat="42.35931615262002" lon="14.11592241761983"><ele>37.666666666666664</ele><time>2026-05-03T11:51:54Z</time></trkpt><trkpt lat="42.3594945146074" lon="14.115996938539825"><ele>36.0</ele><time>2026-05-03T11:51:55Z</time></trkpt><trkpt lat="42.359672518540506" lon="14.116077790825036"><ele>36.333333333333336</ele><time>2026-05-03T11:51:56Z</time></trkpt><trkpt lat="42.35985223764065" lon="14.116165687894163"><ele>36.66666666666667</ele><time>2026-05-03T11:51:57Z</time></trkpt><trkpt lat="42.360028068824946" lon="14.116231923184694"><ele>37.0</ele><time>2026-05-03T11:51:58Z</time></trkpt><trkpt lat="42.360201233321824" lon="14.116314263501964"><ele>37.0</ele><time>2026-05-03T11:51:59Z</time></trkpt><trkpt lat="42.36036946287399" lon="14.116389168307476"><ele>37.0</ele><time>2026-05-03T11:52:00Z</time></trkpt><trkpt lat="42.360537518400996" lon="14.11647116372144"><ele>37.0</ele><time>2026-05-03T11:52:01Z</time></trkpt><trkpt lat="42.360704835494865" lon="14.116553639339356"><ele>34.66666666666667</ele><time>2026-05-03T11:52:02Z</time></trkpt><trkpt lat="42.36087925588368" lon="14.116632156410255"><ele>32.333333333333336</ele><time>2026-05-03T11:52:03Z</time></trkpt><trkpt lat="42.36105190622887" lon="14.116702013857203"><ele>30.0</ele><time>2026-05-03T11:52:04Z</time></trkpt><trkpt lat="42.36122689844466" lon="14.116785722933649"><ele>32.0</ele><time>2026-05-03T11:52:05Z</time></trkpt><trkpt lat="42.36140427363342" lon="14.116868818249577"><ele>34.0</ele><time>2026-05-03T11:52:06Z</time></trkpt><trkpt lat="42.36158038661438" lon="14.116956146360513"><ele>36.0</ele><time>2026-05-03T11:52:07Z</time></trkpt><trkpt lat="42.361762675274456" lon="14.117028902791011"><ele>36.0</ele><time>2026-05-03T11:52:08Z</time></trkpt><trkpt lat="42.36194504488432" lon="14.117119303041061"><ele>36.0</ele><time>2026-05-03T11:52:09Z</time></trkpt><trkpt lat="42.36212886376397" lon="14.117194896671705"><ele>36.0</ele><time>2026-05-03T11:52:10Z</time></trkpt><trkpt lat="42.36231607246391" lon="14.117269660453585"><ele>33.666666666666664</ele><time>2026-05-03T11:52:11Z</time></trkpt><trkpt lat="42.362502826826706" lon="14.117339633396545"><ele>31.333333333333332</ele><time>2026-05-03T11:52:12Z</time></trkpt><trkpt lat="42.3626892765235" lon="14.117403373186342"><ele>29.0</ele><time>2026-05-03T11:52:13Z</time></trkpt><trkpt lat="42.362870182053236" lon="14.117448705978129"><ele>29.666666666666664</ele><time>2026-05-03T11:52:14Z</time></trkpt><trkpt lat="42.36304755192045" lon="14.11747158515933"><ele>30.333333333333336</ele><time>2026-05-03T11:52:15Z</time></trkpt><trkpt lat="42.36321443825084" lon="14.11745826660637"><ele>31.0</ele><time>2026-05-03T11:52:16Z</time></trkpt><trkpt lat="42.363418420253865" lon="14.117470091368673"><ele>31.0</ele><time>2026-05-03T11:52:17Z</time></trkpt><trkpt lat="42.363623567291846" lon="14.117481614439429"><ele>31.0</ele><time>2026-05-03T11:52:18Z</time></trkpt><trkpt lat="42.36378110170069" lon="14.117477333519084"><ele>31.0</ele><time>2026-05-03T11:52:19Z</time></trkpt><trkpt lat="42.36394502996267" lon="14.117471649832115"><ele>31.666666666666668</ele><time>2026-05-03T11:52:20Z</time></trkpt><trkpt lat="42.3641112298291" lon="14.11748906676802"><ele>32.333333333333336</ele><time>2026-05-03T11:52:21Z</time></trkpt><trkpt lat="42.36427281621673" lon="14.11752311860895"><ele>33.0</ele><time>2026-05-03T11:52:22Z</time></trkpt><trkpt lat="42.36443766362528" lon="14.11757575346418"><ele>33.0</ele><time>2026-05-03T11:52:23Z</time></trkpt><trkpt lat="42.3645918453961" lon="14.11767283111571"><ele>33.0</ele><time>2026-05-03T11:52:24Z</time></trkpt><trkpt lat="42.36474831836972" lon="14.11777396394497"><ele>33.0</ele><time>2026-05-03T11:52:25Z</time></trkpt><trkpt lat="42.36490766133114" lon="14.117884472235884"><ele>32.666666666666664</ele><time>2026-05-03T11:52:26Z</time></trkpt><trkpt lat="42.36507310415777" lon="14.117993005905008"><ele>32.33333333333333</ele><time>2026-05-03T11:52:27Z</time></trkpt><trkpt lat="42.36523685745071" lon="14.118101227627731"><ele>32.0</ele><time>2026-05-03T11:52:28Z</time></trkpt><trkpt lat="42.36539683612554" lon="14.118208002184844"><ele>30.666666666666664</ele><time>2026-05-03T11:52:29Z</time></trkpt><trkpt lat="42.365562457456235" lon="14.11832606633305"><ele>29.333333333333336</ele><time>2026-05-03T11:52:30Z</time></trkpt><trkpt lat="42.365730363712565" lon="14.118428180756563"><ele>28.0</ele><time>2026-05-03T11:52:31Z</time></trkpt><trkpt lat="42.36593829852168" lon="14.118489015234763"><ele>28.0</ele><time>2026-05-03T11:52:32Z</time></trkpt><trkpt lat="42.36606118359515" lon="14.118654447332235"><ele>28.0</ele><time>2026-05-03T11:52:33Z</time></trkpt><trkpt lat="42.36622227258204" lon="14.11876576740623"><ele>28.0</ele><time>2026-05-03T11:52:34Z</time></trkpt><trkpt lat="42.36637657991738" lon="14.118878374650972"><ele>28.0</ele><time>2026-05-03T11:52:35Z</time></trkpt><trkpt lat="42.36652993833514" lon="14.118991125555944"><ele>28.0</ele><time>2026-05-03T11:52:36Z</time></trkpt><trkpt lat="42.36668991890734" lon="14.119107943249402"><ele>28.0</ele><time>2026-05-03T11:52:37Z</time></trkpt><trkpt lat="42.366846975328016" lon="14.119226244162023"><ele>28.0</ele><time>2026-05-03T11:52:38Z</time></trkpt><trkpt lat="42.367009292432506" lon="14.11933855348453"><ele>28.0</ele><time>2026-05-03T11:52:39Z</time></trkpt><trkpt lat="42.367174013914365" lon="14.119452013379775"><ele>28.0</ele><time>2026-05-03T11:52:40Z</time></trkpt><trkpt lat="42.367337514706925" lon="14.119559284270597"><ele>28.0</ele><time>2026-05-03T11:52:41Z</time></trkpt><trkpt lat="42.36750263657257" lon="14.119671030728213"><ele>28.0</ele><time>2026-05-03T11:52:42Z</time></trkpt><trkpt lat="42.36766777013205" lon="14.119780662918767"><ele>28.0</ele><time>2026-05-03T11:52:43Z</time></trkpt><trkpt lat="42.36782986157173" lon="14.119897815453028"><ele>28.0</ele><time>2026-05-03T11:52:44Z</time></trkpt><trkpt lat="42.36799352118496" lon="14.120010351589862"><ele>28.0</ele><time>2026-05-03T11:52:45Z</time></trkpt><trkpt lat="42.368150948112444" lon="14.120111556645552"><ele>28.0</ele><time>2026-05-03T11:52:46Z</time></trkpt><trkpt lat="42.368299247481005" lon="14.12020076051325"><ele>28.333333333333336</ele><time>2026-05-03T11:52:47Z</time></trkpt><trkpt lat="42.36845316580757" lon="14.12026511663407"><ele>28.666666666666664</ele><time>2026-05-03T11:52:48Z</time></trkpt><trkpt lat="42.36861928050641" lon="14.120297982181583"><ele>29.0</ele><time>2026-05-03T11:52:49Z</time></trkpt><trkpt lat="42.36879095788723" lon="14.120316985754755"><ele>31.666666666666664</ele><time>2026-05-03T11:52:50Z</time></trkpt><trkpt lat="42.36896487394777" lon="14.120332272241521"><ele>34.333333333333336</ele><time>2026-05-03T11:52:51Z</time></trkpt><trkpt lat="42.3691407521238" lon="14.120359538500276"><ele>37.0</ele><time>2026-05-03T11:52:52Z</time></trkpt><trkpt lat="42.36931949552932" lon="14.120377606107018"><ele>37.0</ele><time>2026-05-03T11:52:53Z</time></trkpt><trkpt lat="42.36949446483472" lon="14.12039393423787"><ele>37.0</ele><time>2026-05-03T11:52:54Z</time></trkpt><trkpt lat="42.36966696459392" lon="14.12040845317237"><ele>37.0</ele><time>2026-05-03T11:52:55Z</time></trkpt><trkpt lat="42.36984271869627" lon="14.120427307630324"><ele>37.0</ele><time>2026-05-03T11:52:56Z</time></trkpt><trkpt lat="42.37001638171539" lon="14.120456858854304"><ele>37.0</ele><time>2026-05-03T11:52:57Z</time></trkpt><trkpt lat="42.3701893928458" lon="14.120484923057168"><ele>37.0</ele><time>2026-05-03T11:52:58Z</time></trkpt><trkpt lat="42.370364510778366" lon="14.120501453739823"><ele>37.333333333333336</ele><time>2026-05-03T11:52:59Z</time></trkpt><trkpt lat="42.370536751483314" lon="14.12052361778853"><ele>37.666666666666664</ele><time>2026-05-03T11:53:00Z</time></trkpt><trkpt lat="42.37070953986901" lon="14.120555152205617"><ele>38.0</ele><time>2026-05-03T11:53:01Z</time></trkpt><trkpt lat="42.37088105069739" lon="14.120599851844856"><ele>38.0</ele><time>2026-05-03T11:53:02Z</time></trkpt><trkpt lat="42.37104923629476" lon="14.120654768398717"><ele>38.0</ele><time>2026-05-03T11:53:03Z</time></trkpt><trkpt lat="42.371214328272096" lon="14.120724976134564"><ele>38.0</ele><time>2026-05-03T11:53:04Z</time></trkpt><trkpt lat="42.37137724013971" lon="14.120805468260858"><ele>36.33333333333333</ele><time>2026-05-03T11:53:05Z</time></trkpt><trkpt lat="42.371542295516974" lon="14.120877202168236"><ele>34.666666666666664</ele><time>2026-05-03T11:53:06Z</time></trkpt><trkpt lat="42.37170158475326" lon="14.120950675044655"><ele>33.0</ele><time>2026-05-03T11:53:07Z</time></trkpt><trkpt lat="42.37185901501548" lon="14.121025384612887"><ele>33.0</ele><time>2026-05-03T11:53:08Z</time></trkpt><trkpt lat="42.372018403153064" lon="14.121101327258083"><ele>33.0</ele><time>2026-05-03T11:53:09Z</time></trkpt><trkpt lat="42.37217124412552" lon="14.121197275103809"><ele>33.0</ele><time>2026-05-03T11:53:10Z</time></trkpt><trkpt lat="42.37231629761769" lon="14.12130170116505"><ele>33.333333333333336</ele><time>2026-05-03T11:53:11Z</time></trkpt><trkpt lat="42.37246021841701" lon="14.121419717691676"><ele>33.66666666666667</ele><time>2026-05-03T11:53:12Z</time></trkpt><trkpt lat="42.37260091984139" lon="14.121543871846383"><ele>34.0</ele><time>2026-05-03T11:53:13Z</time></trkpt><trkpt lat="42.37273338798417" lon="14.121652393659412"><ele>34.0</ele><time>2026-05-03T11:53:14Z</time></trkpt><trkpt lat="42.37285979788386" lon="14.121752972701985"><ele>34.0</ele><time>2026-05-03T11:53:15Z</time></trkpt><trkpt lat="42.37296554382806" lon="14.121842111999502"><ele>34.0</ele><time>2026-05-03T11:53:16Z</time></trkpt><trkpt lat="42.373068847519995" lon="14.121919580192667"><ele>34.0</ele><time>2026-05-03T11:53:17Z</time></trkpt><trkpt lat="42.373167045435544" lon="14.121994974465364"><ele>35.4</ele><time>2026-05-03T11:53:18Z</time></trkpt><trkpt lat="42.3732590931381" lon="14.122072238845512"><ele>36.8</ele><time>2026-05-03T11:53:19Z</time></trkpt><trkpt lat="42.373350401104915" lon="14.122140605583889"><ele>38.199999999999996</ele><time>2026-05-03T11:53:20Z</time></trkpt><trkpt lat="42.3734401153843" lon="14.122211662786839"><ele>39.599999999999994</ele><time>2026-05-03T11:53:21Z</time></trkpt><trkpt lat="42.37352897907933" lon="14.122281606693413"><ele>41.0</ele><time>2026-05-03T11:53:22Z</time></trkpt><trkpt lat="42.37361632056698" lon="14.12234711930818"><ele>41.0</ele><time>2026-05-03T11:53:23Z</time></trkpt><trkpt lat="42.37369537149525" lon="14.122412190503464"><ele>41.0</ele><time>2026-05-03T11:53:24Z</time></trkpt><trkpt lat="42.37376765288286" lon="14.122465884481892"><ele>41.0</ele><time>2026-05-03T11:53:25Z</time></trkpt><trkpt lat="42.37382672211608" lon="14.122513174194342"><ele>41.0</ele><time>2026-05-03T11:53:26Z</time></trkpt><trkpt lat="42.373928653718316" lon="14.122599815402777"><ele>41.0</ele><time>2026-05-03T11:53:28Z</time></trkpt><trkpt lat="42.37401333166604" lon="14.122666969434158"><ele>41.0</ele><time>2026-05-03T11:53:30Z</time></trkpt><trkpt lat="42.37406851314708" lon="14.122713576779061"><ele>41.0</ele><time>2026-05-03T11:53:32Z</time></trkpt><trkpt lat="42.37415937286367" lon="14.122765677506797"><ele>41.0</ele><time>2026-05-03T11:53:49Z</time></trkpt><trkpt lat="42.37422821675787" lon="14.122782629258692"><ele>41.0</ele><time>2026-05-03T11:53:50Z</time></trkpt><trkpt lat="42.374301161300394" lon="14.1228859153567"><ele>41.0</ele><time>2026-05-03T11:53:51Z</time></trkpt><trkpt lat="42.37438697760821" lon="14.122970776143479"><ele>41.0</ele><time>2026-05-03T11:53:52Z</time></trkpt><trkpt lat="42.374488006532694" lon="14.12305264988752"><ele>41.0</ele><time>2026-05-03T11:53:53Z</time></trkpt><trkpt lat="42.37459615510156" lon="14.123128110487881"><ele>41.0</ele><time>2026-05-03T11:53:54Z</time></trkpt><trkpt lat="42.37471151900145" lon="14.123213946768518"><ele>41.0</ele><time>2026-05-03T11:53:55Z</time></trkpt><trkpt lat="42.374826084707415" lon="14.123308458815826"><ele>41.0</ele><time>2026-05-03T11:53:56Z</time></trkpt><trkpt lat="42.37494522180455" lon="14.123394326941876"><ele>40.5</ele><time>2026-05-03T11:53:57Z</time></trkpt><trkpt lat="42.375067256348565" lon="14.12347821714468"><ele>40.0</ele><time>2026-05-03T11:53:58Z</time></trkpt><trkpt lat="42.3751831947289" lon="14.123584867456962"><ele>39.5</ele><time>2026-05-03T11:53:59Z</time></trkpt><trkpt lat="42.37529852377251" lon="14.123684408593789"><ele>39.0</ele><time>2026-05-03T11:54:00Z</time></trkpt><trkpt lat="42.37542024132231" lon="14.123777187965432"><ele>40.0</ele><time>2026-05-03T11:54:01Z</time></trkpt><trkpt lat="42.37554398907752" lon="14.123852763652566"><ele>41.0</ele><time>2026-05-03T11:54:02Z</time></trkpt><trkpt lat="42.37568783867057" lon="14.12387951765114"><ele>42.0</ele><time>2026-05-03T11:54:03Z</time></trkpt><trkpt lat="42.3758304357652" lon="14.12388598968885"><ele>43.0</ele><time>2026-05-03T11:54:04Z</time></trkpt><trkpt lat="42.37589671903305" lon="14.124032875673146"><ele>43.0</ele><time>2026-05-03T11:54:05Z</time></trkpt><trkpt lat="42.37600617535477" lon="14.124062955304572"><ele>43.0</ele><time>2026-05-03T11:54:06Z</time></trkpt><trkpt lat="42.37611131070524" lon="14.12408974920709"><ele>43.0</ele><time>2026-05-03T11:54:07Z</time></trkpt><trkpt lat="42.37620707946843" lon="14.124123663925635"><ele>43.0</ele><time>2026-05-03T11:54:08Z</time></trkpt><trkpt lat="42.37629077970405" lon="14.124185479222378"><ele>43.0</ele><time>2026-05-03T11:54:09Z</time></trkpt><trkpt lat="42.37635056091715" lon="14.12427781843254"><ele>42.0</ele><time>2026-05-03T11:54:10Z</time></trkpt><trkpt lat="42.376388937569104" lon="14.12439339835069"><ele>41.0</ele><time>2026-05-03T11:54:11Z</time></trkpt><trkpt lat="42.37642535715059" lon="14.12449248153873"><ele>40.0</ele><time>2026-05-03T11:54:12Z</time></trkpt><trkpt lat="42.37647757183627" lon="14.124560101921757"><ele>39.0</ele><time>2026-05-03T11:54:13Z</time></trkpt><trkpt lat="42.37654791727437" lon="14.12457525261021"><ele>38.0</ele><time>2026-05-03T11:54:14Z</time></trkpt><trkpt lat="42.37662608648182" lon="14.124528598932116"><ele>37.0</ele><time>2026-05-03T11:54:15Z</time></trkpt><trkpt lat="42.376680117621326" lon="14.124440026651994"><ele>37.0</ele><time>2026-05-03T11:54:16Z</time></trkpt><trkpt lat="42.37670754885792" lon="14.124315577681884"><ele>37.0</ele><time>2026-05-03T11:54:17Z</time></trkpt><trkpt lat="42.37671272077749" lon="14.124176415615322"><ele>37.0</ele><time>2026-05-03T11:54:18Z</time></trkpt><trkpt lat="42.37683583234897" lon="14.124101487598306"><ele>37.0</ele><time>2026-05-03T11:54:19Z</time></trkpt><trkpt lat="42.37690501846107" lon="14.123968259959902"><ele>38.75</ele><time>2026-05-03T11:54:20Z</time></trkpt><trkpt lat="42.37699290465924" lon="14.12384692773597"><ele>40.5</ele><time>2026-05-03T11:54:21Z</time></trkpt><trkpt lat="42.3770658461636" lon="14.123711179479457"><ele>42.25</ele><time>2026-05-03T11:54:22Z</time></trkpt><trkpt lat="42.37714441460436" lon="14.123564212986528"><ele>44.0</ele><time>2026-05-03T11:54:23Z</time></trkpt><trkpt lat="42.37724040935295" lon="14.1234559604486"><ele>44.5</ele><time>2026-05-03T11:54:24Z</time></trkpt><trkpt lat="42.37735796463198" lon="14.123383120657852"><ele>45.0</ele><time>2026-05-03T11:54:25Z</time></trkpt><trkpt lat="42.37748892966875" lon="14.12335994916481"><ele>45.5</ele><time>2026-05-03T11:54:26Z</time></trkpt><trkpt lat="42.377624407831156" lon="14.12337754036375"><ele>46.0</ele><time>2026-05-03T11:54:27Z</time></trkpt><trkpt lat="42.37776055424575" lon="14.123419865865724"><ele>46.0</ele><time>2026-05-03T11:54:28Z</time></trkpt><trkpt lat="42.377900526841636" lon="14.123467987598493"><ele>46.0</ele><time>2026-05-03T11:54:29Z</time></trkpt><trkpt lat="42.378049932036994" lon="14.123500779365683"><ele>46.0</ele><time>2026-05-03T11:54:30Z</time></trkpt><trkpt lat="42.37820385687092" lon="14.123525996950782"><ele>49.0</ele><time>2026-05-03T11:54:31Z</time></trkpt><trkpt lat="42.37836300128673" lon="14.123549316966937"><ele>52.0</ele><time>2026-05-03T11:54:32Z</time></trkpt><trkpt lat="42.37852263690973" lon="14.1235741044187"><ele>55.0</ele><time>2026-05-03T11:54:33Z</time></trkpt><trkpt lat="42.3786834777181" lon="14.123604661723686"><ele>56.33333333333333</ele><time>2026-05-03T11:54:34Z</time></trkpt><trkpt lat="42.378851276530355" lon="14.123638077808087"><ele>57.66666666666667</ele><time>2026-05-03T11:54:35Z</time></trkpt><trkpt lat="42.379009425343206" lon="14.12366652109288"><ele>59.0</ele><time>2026-05-03T11:54:36Z</time></trkpt><trkpt lat="42.37916227156355" lon="14.123692814234587"><ele>59.0</ele><time>2026-05-03T11:54:37Z</time></trkpt><trkpt lat="42.379296742782884" lon="14.123734001226879"><ele>59.0</ele><time>2026-05-03T11:54:38Z</time></trkpt><trkpt lat="42.37940732605429" lon="14.123795310106411"><ele>59.0</ele><time>2026-05-03T11:54:39Z</time></trkpt><trkpt lat="42.3795019200359" lon="14.123849337826579"><ele>59.0</ele><time>2026-05-03T11:54:40Z</time></trkpt><trkpt lat="42.37957596036091" lon="14.123973899085291"><ele>57.25</ele><time>2026-05-03T11:54:41Z</time></trkpt><trkpt lat="42.379663281356876" lon="14.12407772933011"><ele>55.5</ele><time>2026-05-03T11:54:42Z</time></trkpt><trkpt lat="42.37976638070853" lon="14.124170319249288"><ele>53.75</ele><time>2026-05-03T11:54:43Z</time></trkpt><trkpt lat="42.37986201856994" lon="14.12425309653059"><ele>52.0</ele><time>2026-05-03T11:54:44Z</time></trkpt><trkpt lat="42.37995061604622" lon="14.124335012859865"><ele>52.0</ele><time>2026-05-03T11:54:45Z</time></trkpt><trkpt lat="42.38004425622781" lon="14.124415137278797"><ele>52.0</ele><time>2026-05-03T11:54:46Z</time></trkpt><trkpt lat="42.380155057649745" lon="14.124495633575462"><ele>52.0</ele><time>2026-05-03T11:54:47Z</time></trkpt><trkpt lat="42.38027040405036" lon="14.124577056207713"><ele>52.0</ele><time>2026-05-03T11:54:48Z</time></trkpt><trkpt lat="42.380393254437465" lon="14.124661225463237"><ele>52.0</ele><time>2026-05-03T11:54:49Z</time></trkpt><trkpt lat="42.38051511706704" lon="14.124755255771952"><ele>52.0</ele><time>2026-05-03T11:54:50Z</time></trkpt><trkpt lat="42.380632589756914" lon="14.124850594728613"><ele>52.0</ele><time>2026-05-03T11:54:51Z</time></trkpt><trkpt lat="42.380757661490335" lon="14.124942803299524"><ele>52.0</ele><time>2026-05-03T11:54:52Z</time></trkpt><trkpt lat="42.380882823755506" lon="14.125021433740681"><ele>52.25</ele><time>2026-05-03T11:54:53Z</time></trkpt><trkpt lat="42.38100904348774" lon="14.125113184558067"><ele>52.5</ele><time>2026-05-03T11:54:54Z</time></trkpt><trkpt lat="42.38113274067904" lon="14.12520889698461"><ele>52.75</ele><time>2026-05-03T11:54:55Z</time></trkpt><trkpt lat="42.3812604500871" lon="14.125295751890398"><ele>53.0</ele><time>2026-05-03T11:54:56Z</time></trkpt><trkpt lat="42.38139019500019" lon="14.125382423388553"><ele>53.0</ele><time>2026-05-03T11:54:57Z</time></trkpt><trkpt lat="42.381521047126505" lon="14.125478130393347"><ele>53.0</ele><time>2026-05-03T11:54:58Z</time></trkpt><trkpt lat="42.38165375773378" lon="14.125573675078693"><ele>53.0</ele><time>2026-05-03T11:54:59Z</time></trkpt><trkpt lat="42.38179032856611" lon="14.125676488481123"><ele>53.0</ele><time>2026-05-03T11:55:00Z</time></trkpt><trkpt lat="42.381928756336755" lon="14.125789071761421"><ele>53.0</ele><time>2026-05-03T11:55:01Z</time></trkpt><trkpt lat="42.38206262201623" lon="14.125910242649173"><ele>53.0</ele><time>2026-05-03T11:55:02Z</time></trkpt><trkpt lat="42.382194628207664" lon="14.126033367258893"><ele>53.0</ele><time>2026-05-03T11:55:03Z</time></trkpt><trkpt lat="42.38231999294498" lon="14.126145252368879"><ele>53.0</ele><time>2026-05-03T11:55:04Z</time></trkpt><trkpt lat="42.38245361552382" lon="14.126249833565206"><ele>53.0</ele><time>2026-05-03T11:55:05Z</time></trkpt><trkpt lat="42.382588091452284" lon="14.126330097045981"><ele>53.0</ele><time>2026-05-03T11:55:06Z</time></trkpt><trkpt lat="42.38273495139929" lon="14.126383066838535"><ele>53.0</ele><time>2026-05-03T11:55:07Z</time></trkpt><trkpt lat="42.38288821451584" lon="14.126412090747412"><ele>53.0</ele><time>2026-05-03T11:55:08Z</time></trkpt><trkpt lat="42.383041300623205" lon="14.12641825144924"><ele>53.0</ele><time>2026-05-03T11:55:09Z</time></trkpt><trkpt lat="42.38318577465415" lon="14.12641894135575"><ele>53.0</ele><time>2026-05-03T11:55:10Z</time></trkpt><trkpt lat="42.383318796156516" lon="14.126422153996925"><ele>53.0</ele><time>2026-05-03T11:55:11Z</time></trkpt><trkpt lat="42.38344221192417" lon="14.126445422714609"><ele>53.0</ele><time>2026-05-03T11:55:12Z</time></trkpt><trkpt lat="42.38356474229513" lon="14.12650375547583"><ele>50.25</ele><time>2026-05-03T11:55:13Z</time></trkpt><trkpt lat="42.3836868818145" lon="14.126591369192683"><ele>47.5</ele><time>2026-05-03T11:55:14Z</time></trkpt><trkpt lat="42.38381894551708" lon="14.126687586116107"><ele>44.75</ele><time>2026-05-03T11:55:15Z</time></trkpt><trkpt lat="42.383962546542456" lon="14.126773458014023"><ele>42.0</ele><time>2026-05-03T11:55:16Z</time></trkpt><trkpt lat="42.38411453281796" lon="14.126847340472198"><ele>42.0</ele><time>2026-05-03T11:55:17Z</time></trkpt><trkpt lat="42.384263503756166" lon="14.126912912338195"><ele>42.0</ele><time>2026-05-03T11:55:18Z</time></trkpt><trkpt lat="42.384414948118454" lon="14.126973779535856"><ele>42.0</ele><time>2026-05-03T11:55:19Z</time></trkpt><trkpt lat="42.384557447160574" lon="14.127026445932284"><ele>43.0</ele><time>2026-05-03T11:55:20Z</time></trkpt><trkpt lat="42.384701749399746" lon="14.12707807788481"><ele>44.0</ele><time>2026-05-03T11:55:21Z</time></trkpt><trkpt lat="42.38484658126129" lon="14.12713861461029"><ele>45.0</ele><time>2026-05-03T11:55:22Z</time></trkpt><trkpt lat="42.384987225584325" lon="14.127209715007307"><ele>45.0</ele><time>2026-05-03T11:55:23Z</time></trkpt><trkpt lat="42.38511445697071" lon="14.127305201397062"><ele>45.0</ele><time>2026-05-03T11:55:24Z</time></trkpt><trkpt lat="42.38523521090958" lon="14.127422884002836"><ele>45.0</ele><time>2026-05-03T11:55:25Z</time></trkpt><trkpt lat="42.38535849045214" lon="14.127558797691272"><ele>42.0</ele><time>2026-05-03T11:55:26Z</time></trkpt><trkpt lat="42.385475208704584" lon="14.127692580195317"><ele>39.0</ele><time>2026-05-03T11:55:27Z</time></trkpt><trkpt lat="42.38559113279193" lon="14.127822467363641"><ele>36.0</ele><time>2026-05-03T11:55:28Z</time></trkpt><trkpt lat="42.385711066182076" lon="14.127944200641636"><ele>36.0</ele><time>2026-05-03T11:55:29Z</time></trkpt><trkpt lat="42.38583596511512" lon="14.128057348102498"><ele>36.0</ele><time>2026-05-03T11:55:30Z</time></trkpt><trkpt lat="42.3859641288189" lon="14.128170092840481"><ele>36.0</ele><time>2026-05-03T11:55:31Z</time></trkpt><trkpt lat="42.38608847739126" lon="14.12828546159898"><ele>35.666666666666664</ele><time>2026-05-03T11:55:32Z</time></trkpt><trkpt lat="42.386208747586224" lon="14.128411408810292"><ele>35.33333333333333</ele><time>2026-05-03T11:55:33Z</time></trkpt><trkpt lat="42.386318719911856" lon="14.12855951750051"><ele>35.0</ele><time>2026-05-03T11:55:34Z</time></trkpt><trkpt lat="42.38641643939705" lon="14.128715147014583"><ele>35.5</ele><time>2026-05-03T11:55:35Z</time></trkpt><trkpt lat="42.3865039681004" lon="14.128865461426777"><ele>36.0</ele><time>2026-05-03T11:55:36Z</time></trkpt><trkpt lat="42.386585828306856" lon="14.129013908518342"><ele>36.5</ele><time>2026-05-03T11:55:37Z</time></trkpt><trkpt lat="42.38666823054579" lon="14.129150215965915"><ele>37.0</ele><time>2026-05-03T11:55:38Z</time></trkpt><trkpt lat="42.386757732041374" lon="14.129277041218636"><ele>36.0</ele><time>2026-05-03T11:55:39Z</time></trkpt><trkpt lat="42.3868439904304" lon="14.129390262670878"><ele>35.0</ele><time>2026-05-03T11:55:40Z</time></trkpt><trkpt lat="42.386933624951304" lon="14.129501454129532"><ele>34.0</ele><time>2026-05-03T11:55:41Z</time></trkpt><trkpt lat="42.38702447895262" lon="14.129602280103812"><ele>33.0</ele><time>2026-05-03T11:55:42Z</time></trkpt><trkpt lat="42.38712045012446" lon="14.129698281235815"><ele>32.75</ele><time>2026-05-03T11:55:43Z</time></trkpt><trkpt lat="42.38721891804006" lon="14.12979543786982"><ele>32.5</ele><time>2026-05-03T11:55:44Z</time></trkpt><trkpt lat="42.387320812942804" lon="14.129893441943782"><ele>32.25</ele><time>2026-05-03T11:55:45Z</time></trkpt><trkpt lat="42.38742640338789" lon="14.129994780269183"><ele>32.0</ele><time>2026-05-03T11:55:46Z</time></trkpt><trkpt lat="42.38753110594092" lon="14.130094433614806"><ele>32.0</ele><time>2026-05-03T11:55:47Z</time></trkpt><trkpt lat="42.38763120961264" lon="14.130188863486294"><ele>32.0</ele><time>2026-05-03T11:55:48Z</time></trkpt><trkpt lat="42.387725419742985" lon="14.130275744474716"><ele>32.0</ele><time>2026-05-03T11:55:49Z</time></trkpt><trkpt lat="42.38780946828844" lon="14.1303565191568"><ele>32.0</ele><time>2026-05-03T11:55:50Z</time></trkpt><trkpt lat="42.387889953253854" lon="14.130429804441333"><ele>32.0</ele><time>2026-05-03T11:55:51Z</time></trkpt><trkpt lat="42.38797390751124" lon="14.13048989453346"><ele>32.0</ele><time>2026-05-03T11:55:52Z</time></trkpt><trkpt lat="42.388066713705854" lon="14.130539958577776"><ele>32.0</ele><time>2026-05-03T11:55:53Z</time></trkpt><trkpt lat="42.388179618865124" lon="14.130594923689237"><ele>32.0</ele><time>2026-05-03T11:55:54Z</time></trkpt><trkpt lat="42.38830757995373" lon="14.130657027165007"><ele>32.0</ele><time>2026-05-03T11:55:55Z</time></trkpt><trkpt lat="42.38843838029744" lon="14.130726569048944"><ele>32.0</ele><time>2026-05-03T11:55:56Z</time></trkpt><trkpt lat="42.388564687906694" lon="14.130797919846122"><ele>32.0</ele><time>2026-05-03T11:55:57Z</time></trkpt><trkpt lat="42.38868279172278" lon="14.130868879540706"><ele>32.0</ele><time>2026-05-03T11:55:58Z</time></trkpt><trkpt lat="42.388801913705116" lon="14.130946904020938"><ele>32.0</ele><time>2026-05-03T11:55:59Z</time></trkpt><trkpt lat="42.388920312621565" lon="14.131029229619257"><ele>32.25</ele><time>2026-05-03T11:56:00Z</time></trkpt><trkpt lat="42.389040339383875" lon="14.131109817904656"><ele>32.5</ele><time>2026-05-03T11:56:01Z</time></trkpt><trkpt lat="42.38915763849843" lon="14.131193838149818"><ele>32.75</ele><time>2026-05-03T11:56:02Z</time></trkpt><trkpt lat="42.38927574390534" lon="14.13128535549002"><ele>33.0</ele><time>2026-05-03T11:56:03Z</time></trkpt><trkpt lat="42.38939467269589" lon="14.131375810655863"><ele>33.0</ele><time>2026-05-03T11:56:04Z</time></trkpt><trkpt lat="42.389511247309244" lon="14.131475552301053"><ele>33.0</ele><time>2026-05-03T11:56:05Z</time></trkpt><trkpt lat="42.38963176382748" lon="14.13157103182911"><ele>33.0</ele><time>2026-05-03T11:56:06Z</time></trkpt><trkpt lat="42.3897555519887" lon="14.131679947186624"><ele>33.0</ele><time>2026-05-03T11:56:07Z</time></trkpt><trkpt lat="42.38986091890257" lon="14.131784686164071"><ele>32.5</ele><time>2026-05-03T11:56:08Z</time></trkpt><trkpt lat="42.38997773698554" lon="14.131887002229893"><ele>32.0</ele><time>2026-05-03T11:56:09Z</time></trkpt><trkpt lat="42.39009573593552" lon="14.131992904882527"><ele>31.5</ele><time>2026-05-03T11:56:10Z</time></trkpt><trkpt lat="42.390216949492405" lon="14.132096356970605"><ele>31.0</ele><time>2026-05-03T11:56:11Z</time></trkpt><trkpt lat="42.390333435451836" lon="14.132199805414293"><ele>31.0</ele><time>2026-05-03T11:56:12Z</time></trkpt><trkpt lat="42.39045338263973" lon="14.132305645301564"><ele>31.0</ele><time>2026-05-03T11:56:13Z</time></trkpt><trkpt lat="42.390567910550196" lon="14.13240901570358"><ele>31.0</ele><time>2026-05-03T11:56:14Z</time></trkpt><trkpt lat="42.39068155601968" lon="14.132515557660167"><ele>31.0</ele><time>2026-05-03T11:56:15Z</time></trkpt><trkpt lat="42.39080298681048" lon="14.132621477372021"><ele>30.75</ele><time>2026-05-03T11:56:16Z</time></trkpt><trkpt lat="42.390925484467225" lon="14.132728709807918"><ele>30.5</ele><time>2026-05-03T11:56:17Z</time></trkpt><trkpt lat="42.39104923132014" lon="14.132836429934867"><ele>30.25</ele><time>2026-05-03T11:56:18Z</time></trkpt><trkpt lat="42.39117064880573" lon="14.132950982683958"><ele>30.0</ele><time>2026-05-03T11:56:19Z</time></trkpt><trkpt lat="42.39129217686215" lon="14.133064973413159"><ele>30.0</ele><time>2026-05-03T11:56:20Z</time></trkpt><trkpt lat="42.39142015844231" lon="14.133181556280784"><ele>30.0</ele><time>2026-05-03T11:56:21Z</time></trkpt><trkpt lat="42.39154367068482" lon="14.13329135790676"><ele>30.0</ele><time>2026-05-03T11:56:22Z</time></trkpt><trkpt lat="42.391667400536036" lon="14.133403368313687"><ele>30.0</ele><time>2026-05-03T11:56:23Z</time></trkpt><trkpt lat="42.39179731023859" lon="14.133515303412278"><ele>30.0</ele><time>2026-05-03T11:56:24Z</time></trkpt><trkpt lat="42.39192947702041" lon="14.133639015644354"><ele>30.0</ele><time>2026-05-03T11:56:25Z</time></trkpt><trkpt lat="42.392061635665755" lon="14.133754739495423"><ele>29.666666666666664</ele><time>2026-05-03T11:56:26Z</time></trkpt><trkpt lat="42.39218126164358" lon="14.133858448598808"><ele>29.333333333333332</ele><time>2026-05-03T11:56:27Z</time></trkpt><trkpt lat="42.39231393311206" lon="14.133970446062081"><ele>29.0</ele><time>2026-05-03T11:56:28Z</time></trkpt><trkpt lat="42.39244856958429" lon="14.134100241780285"><ele>29.0</ele><time>2026-05-03T11:56:29Z</time></trkpt><trkpt lat="42.39259224756018" lon="14.134225749603267"><ele>29.0</ele><time>2026-05-03T11:56:30Z</time></trkpt><trkpt lat="42.39273533359176" lon="14.134349788088242"><ele>29.0</ele><time>2026-05-03T11:56:31Z</time></trkpt><trkpt lat="42.3929164549319" lon="14.134488993000948"><ele>29.333333333333332</ele><time>2026-05-03T11:56:32Z</time></trkpt><trkpt lat="42.39305590451246" lon="14.13463870065891"><ele>29.666666666666664</ele><time>2026-05-03T11:56:33Z</time></trkpt><trkpt lat="42.393213633205896" lon="14.134761947300111"><ele>30.0</ele><time>2026-05-03T11:56:34Z</time></trkpt><trkpt lat="42.39336936070853" lon="14.134899276811511"><ele>29.0</ele><time>2026-05-03T11:56:35Z</time></trkpt><trkpt lat="42.39350631652595" lon="14.135030304370712"><ele>28.0</ele><time>2026-05-03T11:56:36Z</time></trkpt><trkpt lat="42.393647346899925" lon="14.135157642276866"><ele>27.0</ele><time>2026-05-03T11:56:37Z</time></trkpt><trkpt lat="42.39378006924489" lon="14.135281571897053"><ele>28.0</ele><time>2026-05-03T11:56:38Z</time></trkpt><trkpt lat="42.39392127803436" lon="14.135412669573286"><ele>29.0</ele><time>2026-05-03T11:56:39Z</time></trkpt><trkpt lat="42.39406946052543" lon="14.135538983777387"><ele>30.0</ele><time>2026-05-03T11:56:40Z</time></trkpt><trkpt lat="42.394205786832124" lon="14.13567602579973"><ele>28.666666666666664</ele><time>2026-05-03T11:56:41Z</time></trkpt><trkpt lat="42.39435025530787" lon="14.13580473850308"><ele>27.333333333333332</ele><time>2026-05-03T11:56:42Z</time></trkpt><trkpt lat="42.39449466716912" lon="14.135937713011202"><ele>26.0</ele><time>2026-05-03T11:56:43Z</time></trkpt><trkpt lat="42.394632681843525" lon="14.13606109209687"><ele>27.0</ele><time>2026-05-03T11:56:44Z</time></trkpt><trkpt lat="42.39476888386486" lon="14.136182816911628"><ele>28.0</ele><time>2026-05-03T11:56:45Z</time></trkpt><trkpt lat="42.3949027142935" lon="14.136291937255269"><ele>29.0</ele><time>2026-05-03T11:56:46Z</time></trkpt><trkpt lat="42.39503670620311" lon="14.136416872289216"><ele>29.0</ele><time>2026-05-03T11:56:47Z</time></trkpt><trkpt lat="42.39517808552519" lon="14.13653958560326"><ele>29.0</ele><time>2026-05-03T11:56:48Z</time></trkpt><trkpt lat="42.3953133193288" lon="14.136660170992275"><ele>29.0</ele><time>2026-05-03T11:56:49Z</time></trkpt><trkpt lat="42.39544304555603" lon="14.136786381096309"><ele>28.0</ele><time>2026-05-03T11:56:50Z</time></trkpt><trkpt lat="42.39558360131579" lon="14.136909026936962"><ele>27.0</ele><time>2026-05-03T11:56:51Z</time></trkpt><trkpt lat="42.395719211357616" lon="14.137022615656859"><ele>26.0</ele><time>2026-05-03T11:56:52Z</time></trkpt><trkpt lat="42.395863589710494" lon="14.137153268273757"><ele>26.0</ele><time>2026-05-03T11:56:53Z</time></trkpt><trkpt lat="42.396004439354414" lon="14.137276948933138"><ele>26.0</ele><time>2026-05-03T11:56:54Z</time></trkpt><trkpt lat="42.39614208168951" lon="14.13739463486431"><ele>26.0</ele><time>2026-05-03T11:56:55Z</time></trkpt><trkpt lat="42.39626965902065" lon="14.137508192807848"><ele>26.333333333333332</ele><time>2026-05-03T11:56:56Z</time></trkpt><trkpt lat="42.39639635435136" lon="14.13762847253174"><ele>26.666666666666664</ele><time>2026-05-03T11:56:57Z</time></trkpt><trkpt lat="42.39652754788333" lon="14.137748523828108"><ele>27.0</ele><time>2026-05-03T11:56:58Z</time></trkpt><trkpt lat="42.39665901093866" lon="14.137869020281446"><ele>27.0</ele><time>2026-05-03T11:56:59Z</time></trkpt><trkpt lat="42.396792323618065" lon="14.137990897989292"><ele>27.0</ele><time>2026-05-03T11:57:00Z</time></trkpt><trkpt lat="42.396931003159686" lon="14.138108920287804"><ele>27.0</ele><time>2026-05-03T11:57:01Z</time></trkpt><trkpt lat="42.397066537794664" lon="14.138230816957496"><ele>26.666666666666664</ele><time>2026-05-03T11:57:02Z</time></trkpt><trkpt lat="42.39720691661266" lon="14.138350963451852"><ele>26.333333333333332</ele><time>2026-05-03T11:57:03Z</time></trkpt><trkpt lat="42.39734547127341" lon="14.138471635431289"><ele>26.0</ele><time>2026-05-03T11:57:04Z</time></trkpt><trkpt lat="42.39748295121455" lon="14.138593727511667"><ele>26.0</ele><time>2026-05-03T11:57:05Z</time></trkpt><trkpt lat="42.397617134753474" lon="14.138714924698574"><ele>26.0</ele><time>2026-05-03T11:57:06Z</time></trkpt><trkpt lat="42.39774735000998" lon="14.138835435791643"><ele>26.0</ele><time>2026-05-03T11:57:07Z</time></trkpt><trkpt lat="42.39788123430004" lon="14.13896005127458"><ele>26.0</ele><time>2026-05-03T11:57:08Z</time></trkpt><trkpt lat="42.398017029934316" lon="14.13907792050339"><ele>26.0</ele><time>2026-05-03T11:57:09Z</time></trkpt><trkpt lat="42.39814467252026" lon="14.139192611866623"><ele>26.0</ele><time>2026-05-03T11:57:10Z</time></trkpt><trkpt lat="42.39826748873379" lon="14.139302797270343"><ele>26.0</ele><time>2026-05-03T11:57:11Z</time></trkpt><trkpt lat="42.398384547423326" lon="14.139409570986249"><ele>26.0</ele><time>2026-05-03T11:57:12Z</time></trkpt><trkpt lat="42.398505216949424" lon="14.13951443459072"><ele>26.0</ele><time>2026-05-03T11:57:13Z</time></trkpt><trkpt lat="42.39862646320948" lon="14.13962410338395"><ele>26.0</ele><time>2026-05-03T11:57:14Z</time></trkpt><trkpt lat="42.39875174722492" lon="14.13973449280416"><ele>25.666666666666664</ele><time>2026-05-03T11:57:15Z</time></trkpt><trkpt lat="42.39887858811032" lon="14.139857773437923"><ele>25.333333333333336</ele><time>2026-05-03T11:57:16Z</time></trkpt><trkpt lat="42.39900240174279" lon="14.139972890763783"><ele>25.0</ele><time>2026-05-03T11:57:17Z</time></trkpt><trkpt lat="42.39913366831646" lon="14.140087417918556"><ele>25.0</ele><time>2026-05-03T11:57:18Z</time></trkpt><trkpt lat="42.39926573353047" lon="14.140200978424792"><ele>25.0</ele><time>2026-05-03T11:57:19Z</time></trkpt><trkpt lat="42.399396759853325" lon="14.140322830319091"><ele>25.0</ele><time>2026-05-03T11:57:20Z</time></trkpt><trkpt lat="42.399528613919955" lon="14.14044280163365"><ele>25.0</ele><time>2026-05-03T11:57:21Z</time></trkpt><trkpt lat="42.399661952092245" lon="14.140559123656693"><ele>25.0</ele><time>2026-05-03T11:57:22Z</time></trkpt><trkpt lat="42.39979835256684" lon="14.14067638945425"><ele>25.0</ele><time>2026-05-03T11:57:23Z</time></trkpt><trkpt lat="42.39993357101613" lon="14.14079549840557"><ele>25.333333333333336</ele><time>2026-05-03T11:57:24Z</time></trkpt><trkpt lat="42.40007219950071" lon="14.140918318019287"><ele>25.666666666666664</ele><time>2026-05-03T11:57:25Z</time></trkpt><trkpt lat="42.400202447521444" lon="14.141041026488665"><ele>26.0</ele><time>2026-05-03T11:57:26Z</time></trkpt><trkpt lat="42.400338050975954" lon="14.141161276519847"><ele>26.0</ele><time>2026-05-03T11:57:27Z</time></trkpt><trkpt lat="42.40047689652646" lon="14.141285445936651"><ele>26.0</ele><time>2026-05-03T11:57:28Z</time></trkpt><trkpt lat="42.40061217463722" lon="14.141405281588508"><ele>26.0</ele><time>2026-05-03T11:57:29Z</time></trkpt><trkpt lat="42.40074682267376" lon="14.141523837504144"><ele>25.666666666666664</ele><time>2026-05-03T11:57:30Z</time></trkpt><trkpt lat="42.400883910035475" lon="14.141647169905326"><ele>25.333333333333336</ele><time>2026-05-03T11:57:31Z</time></trkpt><trkpt lat="42.401018345259374" lon="14.141768621904191"><ele>25.0</ele><time>2026-05-03T11:57:32Z</time></trkpt><trkpt lat="42.401156353107396" lon="14.141888005812929"><ele>25.0</ele><time>2026-05-03T11:57:33Z</time></trkpt><trkpt lat="42.40129511976976" lon="14.142010854112634"><ele>25.0</ele><time>2026-05-03T11:57:34Z</time></trkpt><trkpt lat="42.40142707792287" lon="14.142124035637908"><ele>25.0</ele><time>2026-05-03T11:57:35Z</time></trkpt><trkpt lat="42.401564495326845" lon="14.142249363831265"><ele>25.0</ele><time>2026-05-03T11:57:36Z</time></trkpt><trkpt lat="42.4016977286827" lon="14.142377739983326"><ele>25.0</ele><time>2026-05-03T11:57:37Z</time></trkpt><trkpt lat="42.40183152396968" lon="14.142496473881621"><ele>25.0</ele><time>2026-05-03T11:57:38Z</time></trkpt><trkpt lat="42.40196519304022" lon="14.142619879088382"><ele>24.666666666666668</ele><time>2026-05-03T11:57:39Z</time></trkpt><trkpt lat="42.40208709468644" lon="14.142732461332699"><ele>24.333333333333336</ele><time>2026-05-03T11:57:40Z</time></trkpt><trkpt lat="42.40225785208475" lon="14.142867487276423"><ele>24.0</ele><time>2026-05-03T11:57:41Z</time></trkpt><trkpt lat="42.40242020711384" lon="14.142997497450835"><ele>24.0</ele><time>2026-05-03T11:57:42Z</time></trkpt><trkpt lat="42.40253388731273" lon="14.1431096793405"><ele>24.0</ele><time>2026-05-03T11:57:43Z</time></trkpt><trkpt lat="42.40267841684676" lon="14.143229349456012"><ele>24.0</ele><time>2026-05-03T11:57:44Z</time></trkpt><trkpt lat="42.40281898395458" lon="14.1433526408751"><ele>24.0</ele><time>2026-05-03T11:57:45Z</time></trkpt><trkpt lat="42.40296023130566" lon="14.14347382366799"><ele>24.0</ele><time>2026-05-03T11:57:46Z</time></trkpt><trkpt lat="42.40309950233261" lon="14.143600623823113"><ele>24.0</ele><time>2026-05-03T11:57:47Z</time></trkpt><trkpt lat="42.403237135977065" lon="14.14371927629342"><ele>24.0</ele><time>2026-05-03T11:57:48Z</time></trkpt><trkpt lat="42.403371916872395" lon="14.143841593948501"><ele>24.0</ele><time>2026-05-03T11:57:49Z</time></trkpt><trkpt lat="42.40350833587221" lon="14.143965184504149"><ele>24.0</ele><time>2026-05-03T11:57:50Z</time></trkpt><trkpt lat="42.40364073285377" lon="14.144091268609433"><ele>24.333333333333336</ele><time>2026-05-03T11:57:51Z</time></trkpt><trkpt lat="42.40377694459973" lon="14.1442148124779"><ele>24.666666666666668</ele><time>2026-05-03T11:57:52Z</time></trkpt><trkpt lat="42.403917236252255" lon="14.144343092023123"><ele>25.0</ele><time>2026-05-03T11:57:53Z</time></trkpt><trkpt lat="42.40405157720125" lon="14.144458692621692"><ele>25.0</ele><time>2026-05-03T11:57:54Z</time></trkpt><trkpt lat="42.40418220543167" lon="14.144576364754597"><ele>25.0</ele><time>2026-05-03T11:57:55Z</time></trkpt><trkpt lat="42.404307503660156" lon="14.144701591107173"><ele>25.0</ele><time>2026-05-03T11:57:56Z</time></trkpt><trkpt lat="42.40443954473909" lon="14.14481768029529"><ele>25.333333333333336</ele><time>2026-05-03T11:57:57Z</time></trkpt><trkpt lat="42.404577656384745" lon="14.14493694050005"><ele>25.666666666666664</ele><time>2026-05-03T11:57:58Z</time></trkpt><trkpt lat="42.40471488678737" lon="14.145057797941378"><ele>26.0</ele><time>2026-05-03T11:57:59Z</time></trkpt><trkpt lat="42.40484467073025" lon="14.145177575877494"><ele>25.25</ele><time>2026-05-03T11:58:00Z</time></trkpt><trkpt lat="42.404965131535185" lon="14.145286181056584"><ele>24.5</ele><time>2026-05-03T11:58:01Z</time></trkpt><trkpt lat="42.40507484965469" lon="14.145394928650871"><ele>23.75</ele><time>2026-05-03T11:58:02Z</time></trkpt><trkpt lat="42.40518271635364" lon="14.145484218412141"><ele>23.0</ele><time>2026-05-03T11:58:03Z</time></trkpt><trkpt lat="42.405281107304845" lon="14.145575268445937"><ele>23.0</ele><time>2026-05-03T11:58:04Z</time></trkpt><trkpt lat="42.40537169326323" lon="14.145652340190248"><ele>23.0</ele><time>2026-05-03T11:58:05Z</time></trkpt><trkpt lat="42.405447160258404" lon="14.14571057903375"><ele>23.0</ele><time>2026-05-03T11:58:06Z</time></trkpt><trkpt lat="42.40547579102938" lon="14.145822118075305"><ele>23.0</ele><time>2026-05-03T11:58:07Z</time></trkpt><trkpt lat="42.40547250740848" lon="14.14591809211667"><ele>23.0</ele><time>2026-05-03T11:58:08Z</time></trkpt><trkpt lat="42.405448727713235" lon="14.14601214526429"><ele>23.0</ele><time>2026-05-03T11:58:09Z</time></trkpt><trkpt lat="42.4054606703003" lon="14.14609691581191"><ele>22.799999999999997</ele><time>2026-05-03T11:58:10Z</time></trkpt><trkpt lat="42.40551839149046" lon="14.146149698230765"><ele>22.6</ele><time>2026-05-03T11:58:11.001Z</time></trkpt><trkpt lat="42.405599969297796" lon="14.146147233107795"><ele>22.4</ele><time>2026-05-03T11:58:12.001Z</time></trkpt><trkpt lat="42.405684862247874" lon="14.146087794294749"><ele>22.200000000000003</ele><time>2026-05-03T11:58:13.001Z</time></trkpt><trkpt lat="42.40578616515809" lon="14.146048822308959"><ele>22.0</ele><time>2026-05-03T11:58:14.001Z</time></trkpt><trkpt lat="42.40588036579416" lon="14.146086227443188"><ele>22.0</ele><time>2026-05-03T11:58:15.001Z</time></trkpt><trkpt lat="42.40597709925012" lon="14.14617573537845"><ele>22.0</ele><time>2026-05-03T11:58:16.001Z</time></trkpt><trkpt lat="42.40607240380944" lon="14.146285657508908"><ele>22.0</ele><time>2026-05-03T11:58:17.001Z</time></trkpt><trkpt lat="42.40618186442329" lon="14.146399579748527"><ele>22.0</ele><time>2026-05-03T11:58:18.001Z</time></trkpt><trkpt lat="42.406309269156964" lon="14.14650634329887"><ele>22.0</ele><time>2026-05-03T11:58:19.001Z</time></trkpt><trkpt lat="42.406439298968124" lon="14.146621583593511"><ele>22.0</ele><time>2026-05-03T11:58:20.001Z</time></trkpt><trkpt lat="42.40656778190661" lon="14.146725610062948"><ele>22.0</ele><time>2026-05-03T11:58:21.001Z</time></trkpt><trkpt lat="42.40671172319342" lon="14.146818105792716"><ele>22.0</ele><time>2026-05-03T11:58:22.001Z</time></trkpt><trkpt lat="42.406862666803356" lon="14.146911484800542"><ele>22.0</ele><time>2026-05-03T11:58:23.001Z</time></trkpt><trkpt lat="42.407009821853016" lon="14.147021050199315"><ele>22.0</ele><time>2026-05-03T11:58:24.001Z</time></trkpt><trkpt lat="42.40719721991694" lon="14.147031331190371"><ele>20.666666666666664</ele><time>2026-05-03T11:58:25.001Z</time></trkpt><trkpt lat="42.407373431140954" lon="14.147071184406032"><ele>19.333333333333332</ele><time>2026-05-03T11:58:26.001Z</time></trkpt><trkpt lat="42.40754794650368" lon="14.147112974857926"><ele>18.0</ele><time>2026-05-03T11:58:27.001Z</time></trkpt><trkpt lat="42.40772425488198" lon="14.147153336256562"><ele>18.0</ele><time>2026-05-03T11:58:28.001Z</time></trkpt><trkpt lat="42.40789700300848" lon="14.147190053046174"><ele>18.0</ele><time>2026-05-03T11:58:29.001Z</time></trkpt><trkpt lat="42.408072288251375" lon="14.147235654188265"><ele>18.0</ele><time>2026-05-03T11:58:30.001Z</time></trkpt><trkpt lat="42.40824323331019" lon="14.147284447865376"><ele>17.666666666666668</ele><time>2026-05-03T11:58:31.001Z</time></trkpt><trkpt lat="42.40841629124567" lon="14.147353117504775"><ele>17.333333333333336</ele><time>2026-05-03T11:58:32.001Z</time></trkpt><trkpt lat="42.408582931907254" lon="14.147437474850783"><ele>17.0</ele><time>2026-05-03T11:58:33Z</time></trkpt><trkpt lat="42.40874648498005" lon="14.147536151958004"><ele>17.0</ele><time>2026-05-03T11:58:34Z</time></trkpt><trkpt lat="42.40890396991041" lon="14.147645353210239"><ele>17.0</ele><time>2026-05-03T11:58:35Z</time></trkpt><trkpt lat="42.409058704824794" lon="14.147767760876622"><ele>17.0</ele><time>2026-05-03T11:58:36Z</time></trkpt><trkpt lat="42.4092078189718" lon="14.147887389565186"><ele>17.0</ele><time>2026-05-03T11:58:37Z</time></trkpt><trkpt lat="42.40936408102583" lon="14.148017467541596"><ele>17.0</ele><time>2026-05-03T11:58:38Z</time></trkpt><trkpt lat="42.40952128323721" lon="14.148141235077684"><ele>17.0</ele><time>2026-05-03T11:58:39Z</time></trkpt><trkpt lat="42.409676901745165" lon="14.148258055919111"><ele>17.666666666666668</ele><time>2026-05-03T11:58:40Z</time></trkpt><trkpt lat="42.40983480924218" lon="14.148379206685322"><ele>18.333333333333332</ele><time>2026-05-03T11:58:41Z</time></trkpt><trkpt lat="42.409998702938154" lon="14.148506690356275"><ele>19.0</ele><time>2026-05-03T11:58:42Z</time></trkpt><trkpt lat="42.4101572298538" lon="14.148628004891343"><ele>19.0</ele><time>2026-05-03T11:58:43Z</time></trkpt><trkpt lat="42.41032432462288" lon="14.148760322042628"><ele>19.0</ele><time>2026-05-03T11:58:44Z</time></trkpt><trkpt lat="42.41047707546212" lon="14.148884363730525"><ele>19.0</ele><time>2026-05-03T11:58:45Z</time></trkpt><trkpt lat="42.410633339128466" lon="14.14900669622476"><ele>19.666666666666664</ele><time>2026-05-03T11:58:46Z</time></trkpt><trkpt lat="42.41079449133532" lon="14.149126099778043"><ele>20.333333333333332</ele><time>2026-05-03T11:58:47Z</time></trkpt><trkpt lat="42.41095119478424" lon="14.149247466407887"><ele>21.0</ele><time>2026-05-03T11:58:48Z</time></trkpt><trkpt lat="42.41111483218176" lon="14.14937669908693"><ele>21.0</ele><time>2026-05-03T11:58:49Z</time></trkpt><trkpt lat="42.411269990423065" lon="14.149501684300825"><ele>21.0</ele><time>2026-05-03T11:58:50Z</time></trkpt><trkpt lat="42.41143219920704" lon="14.14963423829296"><ele>21.0</ele><time>2026-05-03T11:58:51Z</time></trkpt><trkpt lat="42.41158829812368" lon="14.149759747987247"><ele>20.0</ele><time>2026-05-03T11:58:52Z</time></trkpt><trkpt lat="42.41175232637892" lon="14.14989455913115"><ele>19.0</ele><time>2026-05-03T11:58:53Z</time></trkpt><trkpt lat="42.41191040708731" lon="14.150014231056094"><ele>18.0</ele><time>2026-05-03T11:58:54Z</time></trkpt><trkpt lat="42.41207668073445" lon="14.150140430901732"><ele>17.0</ele><time>2026-05-03T11:58:55Z</time></trkpt><trkpt lat="42.412231429764255" lon="14.150261629623436"><ele>16.0</ele><time>2026-05-03T11:58:56Z</time></trkpt><trkpt lat="42.41239275606668" lon="14.150389761505261"><ele>15.0</ele><time>2026-05-03T11:58:57Z</time></trkpt><trkpt lat="42.41254810576962" lon="14.150510800741877"><ele>15.0</ele><time>2026-05-03T11:58:58Z</time></trkpt><trkpt lat="42.412702170289705" lon="14.150637199727457"><ele>15.0</ele><time>2026-05-03T11:58:59Z</time></trkpt><trkpt lat="42.41285622266918" lon="14.150772276203947"><ele>15.0</ele><time>2026-05-03T11:59:00Z</time></trkpt><trkpt lat="42.41299665110352" lon="14.150902058241167"><ele>15.0</ele><time>2026-05-03T11:59:01Z</time></trkpt><trkpt lat="42.41313321679842" lon="14.151042704617131"><ele>15.0</ele><time>2026-05-03T11:59:02Z</time></trkpt><trkpt lat="42.41326217182743" lon="14.151187172997231"><ele>15.0</ele><time>2026-05-03T11:59:03Z</time></trkpt><trkpt lat="42.41339458053673" lon="14.151327809081252"><ele>15.0</ele><time>2026-05-03T11:59:04Z</time></trkpt><trkpt lat="42.413536544781" lon="14.15146369508812"><ele>15.0</ele><time>2026-05-03T11:59:05Z</time></trkpt><trkpt lat="42.413686392986016" lon="14.151591447978097"><ele>15.0</ele><time>2026-05-03T11:59:06Z</time></trkpt><trkpt lat="42.41384039908498" lon="14.151707959462513"><ele>15.333333333333332</ele><time>2026-05-03T11:59:07Z</time></trkpt><trkpt lat="42.414002919373154" lon="14.151813607458243"><ele>15.666666666666666</ele><time>2026-05-03T11:59:08Z</time></trkpt><trkpt lat="42.4141698060962" lon="14.151898922219994"><ele>16.0</ele><time>2026-05-03T11:59:09Z</time></trkpt><trkpt lat="42.41434071126673" lon="14.151967315949506"><ele>16.0</ele><time>2026-05-03T11:59:10Z</time></trkpt><trkpt lat="42.41451060713957" lon="14.152017722413065"><ele>16.0</ele><time>2026-05-03T11:59:11Z</time></trkpt><trkpt lat="42.414687314443704" lon="14.152054094788712"><ele>16.0</ele><time>2026-05-03T11:59:12Z</time></trkpt><trkpt lat="42.41486319263219" lon="14.152076570393195"><ele>15.666666666666666</ele><time>2026-05-03T11:59:13Z</time></trkpt><trkpt lat="42.41503566802046" lon="14.152090852451607"><ele>15.333333333333332</ele><time>2026-05-03T11:59:14Z</time></trkpt><trkpt lat="42.41521346133812" lon="14.152098907109295"><ele>15.0</ele><time>2026-05-03T11:59:15Z</time></trkpt><trkpt lat="42.41538836703181" lon="14.152103937527267"><ele>15.333333333333332</ele><time>2026-05-03T11:59:16Z</time></trkpt><trkpt lat="42.4155573027282" lon="14.15211308645066"><ele>15.666666666666666</ele><time>2026-05-03T11:59:17Z</time></trkpt><trkpt lat="42.41572319501094" lon="14.152132670754042"><ele>16.0</ele><time>2026-05-03T11:59:18Z</time></trkpt><trkpt lat="42.41589210625815" lon="14.15216751431809"><ele>16.0</ele><time>2026-05-03T11:59:19Z</time></trkpt><trkpt lat="42.416056915186935" lon="14.152229384486553"><ele>16.0</ele><time>2026-05-03T11:59:20Z</time></trkpt><trkpt lat="42.4162056882887" lon="14.15232323287501"><ele>16.0</ele><time>2026-05-03T11:59:21Z</time></trkpt><trkpt lat="42.41634671929414" lon="14.152456862958841"><ele>17.333333333333332</ele><time>2026-05-03T11:59:22Z</time></trkpt><trkpt lat="42.41646531143715" lon="14.152606780463714"><ele>18.666666666666668</ele><time>2026-05-03T11:59:23Z</time></trkpt><trkpt lat="42.4165840901901" lon="14.152779574635224"><ele>20.0</ele><time>2026-05-03T11:59:24Z</time></trkpt><trkpt lat="42.41670202857339" lon="14.15295766420342"><ele>20.0</ele><time>2026-05-03T11:59:25Z</time></trkpt><trkpt lat="42.416826850303" lon="14.153131555193522"><ele>20.0</ele><time>2026-05-03T11:59:26Z</time></trkpt><trkpt lat="42.416952853222384" lon="14.153296692757953"><ele>20.0</ele><time>2026-05-03T11:59:27Z</time></trkpt><trkpt lat="42.417085818780166" lon="14.153473798040418"><ele>20.333333333333336</ele><time>2026-05-03T11:59:28Z</time></trkpt><trkpt lat="42.417214783193785" lon="14.153644877383844"><ele>20.666666666666668</ele><time>2026-05-03T11:59:29Z</time></trkpt><trkpt lat="42.41734246026764" lon="14.153818130483693"><ele>21.0</ele><time>2026-05-03T11:59:30Z</time></trkpt><trkpt lat="42.417469629375745" lon="14.153989485258466"><ele>20.333333333333332</ele><time>2026-05-03T11:59:31Z</time></trkpt><trkpt lat="42.41760070021951" lon="14.154173120024698"><ele>19.666666666666664</ele><time>2026-05-03T11:59:32Z</time></trkpt><trkpt lat="42.41773118421423" lon="14.154343852202983"><ele>19.0</ele><time>2026-05-03T11:59:33Z</time></trkpt><trkpt lat="42.41785878351358" lon="14.154509101153074"><ele>19.0</ele><time>2026-05-03T11:59:34Z</time></trkpt><trkpt lat="42.417993230001706" lon="14.154691403790409"><ele>19.0</ele><time>2026-05-03T11:59:35Z</time></trkpt><trkpt lat="42.418119270595554" lon="14.154861795702553"><ele>19.0</ele><time>2026-05-03T11:59:36Z</time></trkpt><trkpt lat="42.418249325131335" lon="14.155045143113743"><ele>18.333333333333332</ele><time>2026-05-03T11:59:37Z</time></trkpt><trkpt lat="42.4183752649249" lon="14.155226520300399"><ele>17.666666666666668</ele><time>2026-05-03T11:59:38Z</time></trkpt><trkpt lat="42.418504703788834" lon="14.155410600280128"><ele>17.0</ele><time>2026-05-03T11:59:39Z</time></trkpt><trkpt lat="42.418631442445786" lon="14.155583229356592"><ele>17.333333333333336</ele><time>2026-05-03T11:59:40Z</time></trkpt><trkpt lat="42.418770684284134" lon="14.155767265500605"><ele>17.666666666666668</ele><time>2026-05-03T11:59:41Z</time></trkpt><trkpt lat="42.418901098829124" lon="14.155945038433703"><ele>18.0</ele><time>2026-05-03T11:59:42Z</time></trkpt><trkpt lat="42.419027588446134" lon="14.156119850216365"><ele>19.666666666666668</ele><time>2026-05-03T11:59:43Z</time></trkpt><trkpt lat="42.419146604608784" lon="14.156272993035"><ele>21.333333333333336</ele><time>2026-05-03T11:59:44Z</time></trkpt><trkpt lat="42.41928421891924" lon="14.156390628308548"><ele>23.0</ele><time>2026-05-03T11:59:45Z</time></trkpt><trkpt lat="42.41945181347482" lon="14.156449744187407"><ele>22.0</ele><time>2026-05-03T11:59:46Z</time></trkpt><trkpt lat="42.4196042652155" lon="14.15654777034196"><ele>21.0</ele><time>2026-05-03T11:59:47Z</time></trkpt><trkpt lat="42.41977834597526" lon="14.156614691305688"><ele>20.0</ele><time>2026-05-03T11:59:48Z</time></trkpt><trkpt lat="42.4199524728756" lon="14.156681148307007"><ele>20.0</ele><time>2026-05-03T11:59:49Z</time></trkpt><trkpt lat="42.42012461860763" lon="14.15675245712211"><ele>20.0</ele><time>2026-05-03T11:59:50Z</time></trkpt><trkpt lat="42.42029243958588" lon="14.156825647908583"><ele>20.0</ele><time>2026-05-03T11:59:51Z</time></trkpt><trkpt lat="42.420460880430916" lon="14.156896617683486"><ele>20.333333333333336</ele><time>2026-05-03T11:59:52Z</time></trkpt><trkpt lat="42.42062774880491" lon="14.15696849929303"><ele>20.666666666666668</ele><time>2026-05-03T11:59:53.001Z</time></trkpt><trkpt lat="42.42079606263292" lon="14.157038104269363"><ele>21.0</ele><time>2026-05-03T11:59:54.001Z</time></trkpt><trkpt lat="42.420957406197154" lon="14.157099912252677"><ele>21.0</ele><time>2026-05-03T11:59:55.001Z</time></trkpt><trkpt lat="42.42110275799613" lon="14.157156132218441"><ele>21.0</ele><time>2026-05-03T11:59:56.001Z</time></trkpt><trkpt lat="42.4212414169076" lon="14.157219815961723"><ele>21.0</ele><time>2026-05-03T11:59:57.001Z</time></trkpt><trkpt lat="42.42137334501945" lon="14.157265085406522"><ele>21.0</ele><time>2026-05-03T11:59:58.001Z</time></trkpt><trkpt lat="42.42149418498793" lon="14.157317316056394"><ele>20.6</ele><time>2026-05-03T11:59:59.001Z</time></trkpt><trkpt lat="42.42160841671504" lon="14.157370070149407"><ele>20.200000000000003</ele><time>2026-05-03T12:00:00.001Z</time></trkpt><trkpt lat="42.42172046280614" lon="14.157412231009161"><ele>19.799999999999997</ele><time>2026-05-03T12:00:01.001Z</time></trkpt><trkpt lat="42.421827348781356" lon="14.157435734128379"><ele>19.4</ele><time>2026-05-03T12:00:02.001Z</time></trkpt><trkpt lat="42.421926271184006" lon="14.157451546103648"><ele>19.0</ele><time>2026-05-03T12:00:03.001Z</time></trkpt><trkpt lat="42.42201990919779" lon="14.157446537383818"><ele>19.0</ele><time>2026-05-03T12:00:04.001Z</time></trkpt><trkpt lat="42.42210063338531" lon="14.157429926385227"><ele>19.0</ele><time>2026-05-03T12:00:05.001Z</time></trkpt><trkpt lat="42.422182308465345" lon="14.15742396136484"><ele>19.0</ele><time>2026-05-03T12:00:06.001Z</time></trkpt><trkpt lat="42.42226771810635" lon="14.157453666445535"><ele>19.0</ele><time>2026-05-03T12:00:07.001Z</time></trkpt><trkpt lat="42.42236143176242" lon="14.157506906926873"><ele>19.0</ele><time>2026-05-03T12:00:08.001Z</time></trkpt><trkpt lat="42.422456694350494" lon="14.157565235427539"><ele>19.2</ele><time>2026-05-03T12:00:09.001Z</time></trkpt><trkpt lat="42.42255800187942" lon="14.157627023711457"><ele>19.4</ele><time>2026-05-03T12:00:10.001Z</time></trkpt><trkpt lat="42.422650059414885" lon="14.157691780786621"><ele>19.6</ele><time>2026-05-03T12:00:11.001Z</time></trkpt><trkpt lat="42.42274041847886" lon="14.157767266392757"><ele>19.8</ele><time>2026-05-03T12:00:12.001Z</time></trkpt><trkpt lat="42.42283596514433" lon="14.157838345080263"><ele>20.0</ele><time>2026-05-03T12:00:13.001Z</time></trkpt><trkpt lat="42.422934937106646" lon="14.157888729626281"><ele>19.5</ele><time>2026-05-03T12:00:14.001Z</time></trkpt><trkpt lat="42.42304030029811" lon="14.157929073169061"><ele>19.0</ele><time>2026-05-03T12:00:15.001Z</time></trkpt><trkpt lat="42.42315462275453" lon="14.157970789114188"><ele>18.5</ele><time>2026-05-03T12:00:16.001Z</time></trkpt><trkpt lat="42.42327153138967" lon="14.158016143015152"><ele>18.0</ele><time>2026-05-03T12:00:17.001Z</time></trkpt><trkpt lat="42.423389744601145" lon="14.15806990326572"><ele>18.0</ele><time>2026-05-03T12:00:18.001Z</time></trkpt><trkpt lat="42.423511240702794" lon="14.158122228420439"><ele>18.0</ele><time>2026-05-03T12:00:19.001Z</time></trkpt><trkpt lat="42.42363596543715" lon="14.158175727743254"><ele>18.0</ele><time>2026-05-03T12:00:20.001Z</time></trkpt><trkpt lat="42.42376483187827" lon="14.158230279367576"><ele>18.0</ele><time>2026-05-03T12:00:21.001Z</time></trkpt><trkpt lat="42.42389447890971" lon="14.15828032893582"><ele>17.75</ele><time>2026-05-03T12:00:22.001Z</time></trkpt><trkpt lat="42.42402268462101" lon="14.158328432231574"><ele>17.5</ele><time>2026-05-03T12:00:23.001Z</time></trkpt><trkpt lat="42.424149869329085" lon="14.15838986657753"><ele>17.25</ele><time>2026-05-03T12:00:24.001Z</time></trkpt><trkpt lat="42.42427474866217" lon="14.158444030368623"><ele>17.0</ele><time>2026-05-03T12:00:25.001Z</time></trkpt><trkpt lat="42.42439829414543" lon="14.15850517885927"><ele>17.0</ele><time>2026-05-03T12:00:26.001Z</time></trkpt><trkpt lat="42.42452336656202" lon="14.158564788229798"><ele>17.0</ele><time>2026-05-03T12:00:27.001Z</time></trkpt><trkpt lat="42.42464698697993" lon="14.158619768040786"><ele>17.0</ele><time>2026-05-03T12:00:28.001Z</time></trkpt><trkpt lat="42.424762056536444" lon="14.158668946149836"><ele>17.0</ele><time>2026-05-03T12:00:29.001Z</time></trkpt><trkpt lat="42.42486825980881" lon="14.158720001112846"><ele>17.25</ele><time>2026-05-03T12:00:30.001Z</time></trkpt><trkpt lat="42.4249714546067" lon="14.158768698775402"><ele>17.5</ele><time>2026-05-03T12:00:31.001Z</time></trkpt><trkpt lat="42.425077408647724" lon="14.158814722953759"><ele>17.75</ele><time>2026-05-03T12:00:32.001Z</time></trkpt><trkpt lat="42.425195034618355" lon="14.158861931742491"><ele>18.0</ele><time>2026-05-03T12:00:33.001Z</time></trkpt><trkpt lat="42.425319767935406" lon="14.158911933404628"><ele>18.0</ele><time>2026-05-03T12:00:34.001Z</time></trkpt><trkpt lat="42.425444594663105" lon="14.158968743126065"><ele>18.0</ele><time>2026-05-03T12:00:35.001Z</time></trkpt><trkpt lat="42.425570816540244" lon="14.15902745775351"><ele>18.0</ele><time>2026-05-03T12:00:36.001Z</time></trkpt><trkpt lat="42.42570074275056" lon="14.159086150191056"><ele>18.0</ele><time>2026-05-03T12:00:37.001Z</time></trkpt><trkpt lat="42.42583122597068" lon="14.159155037930859"><ele>18.25</ele><time>2026-05-03T12:00:38.001Z</time></trkpt><trkpt lat="42.42595674075738" lon="14.159236929471568"><ele>18.5</ele><time>2026-05-03T12:00:39Z</time></trkpt><trkpt lat="42.42606761789464" lon="14.159328501867943"><ele>18.75</ele><time>2026-05-03T12:00:40Z</time></trkpt><trkpt lat="42.426173857326205" lon="14.159431137815023"><ele>19.0</ele><time>2026-05-03T12:00:41Z</time></trkpt><trkpt lat="42.42634618343228" lon="14.15945205612574"><ele>19.25</ele><time>2026-05-03T12:00:42Z</time></trkpt><trkpt lat="42.42647225827737" lon="14.159538720088236"><ele>19.5</ele><time>2026-05-03T12:00:43Z</time></trkpt><trkpt lat="42.426591250911024" lon="14.159631804538089"><ele>19.75</ele><time>2026-05-03T12:00:44Z</time></trkpt><trkpt lat="42.42671182376123" lon="14.15972141272735"><ele>20.0</ele><time>2026-05-03T12:00:45Z</time></trkpt><trkpt lat="42.42683620936363" lon="14.159810057637788"><ele>19.75</ele><time>2026-05-03T12:00:46Z</time></trkpt><trkpt lat="42.42695632999634" lon="14.159910923712552"><ele>19.5</ele><time>2026-05-03T12:00:47Z</time></trkpt><trkpt lat="42.42708071961129" lon="14.16001574802365"><ele>19.25</ele><time>2026-05-03T12:00:48Z</time></trkpt><trkpt lat="42.42720629754108" lon="14.160120771176915"><ele>19.0</ele><time>2026-05-03T12:00:49Z</time></trkpt><trkpt lat="42.427330124785954" lon="14.160222576704804"><ele>18.75</ele><time>2026-05-03T12:00:50Z</time></trkpt><trkpt lat="42.42744885118204" lon="14.160324183666075"><ele>18.5</ele><time>2026-05-03T12:00:51Z</time></trkpt><trkpt lat="42.42756640505708" lon="14.160433674278755"><ele>18.25</ele><time>2026-05-03T12:00:52Z</time></trkpt><trkpt lat="42.427684816219866" lon="14.16054950906119"><ele>18.0</ele><time>2026-05-03T12:00:53Z</time></trkpt><trkpt lat="42.42780788889599" lon="14.16065919139546"><ele>18.0</ele><time>2026-05-03T12:00:54Z</time></trkpt><trkpt lat="42.42792509057879" lon="14.160775418100615"><ele>18.0</ele><time>2026-05-03T12:00:55Z</time></trkpt><trkpt lat="42.428043578586454" lon="14.160891716944622"><ele>18.0</ele><time>2026-05-03T12:00:56Z</time></trkpt><trkpt lat="42.42816070501752" lon="14.161012216186649"><ele>18.0</ele><time>2026-05-03T12:00:57Z</time></trkpt><trkpt lat="42.42828179992891" lon="14.161131898705118"><ele>17.75</ele><time>2026-05-03T12:00:58Z</time></trkpt><trkpt lat="42.42839929368362" lon="14.16124897666534"><ele>17.5</ele><time>2026-05-03T12:00:59Z</time></trkpt><trkpt lat="42.42851806421957" lon="14.161364407555318"><ele>17.25</ele><time>2026-05-03T12:01:00Z</time></trkpt><trkpt lat="42.4286355712536" lon="14.161486231409691"><ele>17.0</ele><time>2026-05-03T12:01:01Z</time></trkpt><trkpt lat="42.42875238277878" lon="14.161604538453226"><ele>19.5</ele><time>2026-05-03T12:01:02Z</time></trkpt><trkpt lat="42.42886800054427" lon="14.161722271892797"><ele>22.0</ele><time>2026-05-03T12:01:03Z</time></trkpt><trkpt lat="42.42898268278611" lon="14.161830266958129"><ele>24.5</ele><time>2026-05-03T12:01:04Z</time></trkpt><trkpt lat="42.42909223943055" lon="14.161940631579052"><ele>27.0</ele><time>2026-05-03T12:01:05Z</time></trkpt><trkpt lat="42.42919677423955" lon="14.162047760778863"><ele>27.0</ele><time>2026-05-03T12:01:06Z</time></trkpt><trkpt lat="42.42930333306281" lon="14.162153612926213"><ele>27.0</ele><time>2026-05-03T12:01:07Z</time></trkpt><trkpt lat="42.42941241386857" lon="14.16227018396725"><ele>27.0</ele><time>2026-05-03T12:01:08Z</time></trkpt><trkpt lat="42.429522577166104" lon="14.162388549516129"><ele>27.0</ele><time>2026-05-03T12:01:09Z</time></trkpt><trkpt lat="42.429633617590255" lon="14.162483966170784"><ele>25.5</ele><time>2026-05-03T12:01:10Z</time></trkpt><trkpt lat="42.429748028314116" lon="14.162576621911102"><ele>24.0</ele><time>2026-05-03T12:01:11Z</time></trkpt><trkpt lat="42.42987247639302" lon="14.162657999629124"><ele>22.5</ele><time>2026-05-03T12:01:12Z</time></trkpt><trkpt lat="42.429995894408115" lon="14.162725967397318"><ele>21.0</ele><time>2026-05-03T12:01:13Z</time></trkpt><trkpt lat="42.430125788733136" lon="14.162767487352808"><ele>21.0</ele><time>2026-05-03T12:01:14Z</time></trkpt><trkpt lat="42.430242882228995" lon="14.162785671265825"><ele>21.0</ele><time>2026-05-03T12:01:15Z</time></trkpt><trkpt lat="42.430346856746695" lon="14.162800420177446"><ele>21.0</ele><time>2026-05-03T12:01:16Z</time></trkpt><trkpt lat="42.43042734560201" lon="14.162805043040912"><ele>21.0</ele><time>2026-05-03T12:01:17Z</time></trkpt><trkpt lat="42.430525899231554" lon="14.162827898061238"><ele>21.0</ele><time>2026-05-03T12:01:19Z</time></trkpt><trkpt lat="42.43048452360155" lon="14.162601483252464"><ele>21.0</ele><time>2026-05-03T12:01:22Z</time></trkpt><trkpt lat="42.43041945028283" lon="14.162568041147138"><ele>21.0</ele><time>2026-05-03T12:01:23Z</time></trkpt><trkpt lat="42.430349802848575" lon="14.162516139402456"><ele>21.0</ele><time>2026-05-03T12:01:24Z</time></trkpt><trkpt lat="42.43030791475355" lon="14.1624391600304"><ele>21.0</ele><time>2026-05-03T12:01:25Z</time></trkpt><trkpt lat="42.43030967630605" lon="14.162352674337852"><ele>21.0</ele><time>2026-05-03T12:01:26Z</time></trkpt><trkpt lat="42.43035966110029" lon="14.162270703166161"><ele>21.0</ele><time>2026-05-03T12:01:27Z</time></trkpt><trkpt lat="42.430389771402126" lon="14.162162040857199"><ele>21.0</ele><time>2026-05-03T12:01:28Z</time></trkpt><trkpt lat="42.430447420390315" lon="14.162044327543097"><ele>21.5</ele><time>2026-05-03T12:01:29Z</time></trkpt><trkpt lat="42.43050664583052" lon="14.161909914991599"><ele>22.0</ele><time>2026-05-03T12:01:30Z</time></trkpt><trkpt lat="42.43056564766485" lon="14.16176982834025"><ele>22.5</ele><time>2026-05-03T12:01:31Z</time></trkpt><trkpt lat="42.43062253915476" lon="14.161634700554487"><ele>23.0</ele><time>2026-05-03T12:01:32Z</time></trkpt><trkpt lat="42.43067798081373" lon="14.16149341670313"><ele>23.799999999999997</ele><time>2026-05-03T12:01:33Z</time></trkpt><trkpt lat="42.43073319860072" lon="14.161363231996978"><ele>24.6</ele><time>2026-05-03T12:01:34Z</time></trkpt><trkpt lat="42.43078419140989" lon="14.161244041862345"><ele>25.400000000000002</ele><time>2026-05-03T12:01:35Z</time></trkpt><trkpt lat="42.430826608318135" lon="14.16115049064514"><ele>26.200000000000003</ele><time>2026-05-03T12:01:36Z</time></trkpt><trkpt lat="42.430930914393244" lon="14.161029855168717"><ele>27.0</ele><time>2026-05-03T12:01:38Z</time></trkpt><trkpt lat="42.43095819392926" lon="14.160915966417342"><ele>27.0</ele><time>2026-05-03T12:01:39Z</time></trkpt><trkpt lat="42.43100105113672" lon="14.160753785139763"><ele>27.0</ele><time>2026-05-03T12:01:40Z</time></trkpt><trkpt lat="42.431073726347904" lon="14.160614289473648"><ele>27.0</ele><time>2026-05-03T12:01:41Z</time></trkpt><trkpt lat="42.431131452993554" lon="14.160473453888454"><ele>27.0</ele><time>2026-05-03T12:01:42Z</time></trkpt><trkpt lat="42.43118939582834" lon="14.160332090797937"><ele>27.0</ele><time>2026-05-03T12:01:43Z</time></trkpt><trkpt lat="42.43124040046304" lon="14.160178416514155"><ele>27.0</ele><time>2026-05-03T12:01:44Z</time></trkpt><trkpt lat="42.431300243453826" lon="14.160031071191055"><ele>27.0</ele><time>2026-05-03T12:01:45Z</time></trkpt><trkpt lat="42.431366144008116" lon="14.15987251064301"><ele>27.0</ele><time>2026-05-03T12:01:46Z</time></trkpt><trkpt lat="42.431436668747786" lon="14.159701088743342"><ele>28.666666666666664</ele><time>2026-05-03T12:01:47Z</time></trkpt><trkpt lat="42.43151223798905" lon="14.159529988148147"><ele>30.333333333333332</ele><time>2026-05-03T12:01:48Z</time></trkpt><trkpt lat="42.43158379754731" lon="14.159348844853678"><ele>32.0</ele><time>2026-05-03T12:01:49Z</time></trkpt><trkpt lat="42.431657626847176" lon="14.159162431169715"><ele>32.25</ele><time>2026-05-03T12:01:50Z</time></trkpt><trkpt lat="42.43173086695014" lon="14.158983551343816"><ele>32.5</ele><time>2026-05-03T12:01:51Z</time></trkpt><trkpt lat="42.431805154072116" lon="14.158807749756972"><ele>32.75</ele><time>2026-05-03T12:01:52Z</time></trkpt><trkpt lat="42.43187792551127" lon="14.158631568284278"><ele>33.0</ele><time>2026-05-03T12:01:53Z</time></trkpt><trkpt lat="42.43194872560889" lon="14.158458154435282"><ele>33.0</ele><time>2026-05-03T12:01:54Z</time></trkpt><trkpt lat="42.43201777593225" lon="14.158287257399735"><ele>33.0</ele><time>2026-05-03T12:01:55Z</time></trkpt><trkpt lat="42.432096949321846" lon="14.158129123177629"><ele>33.0</ele><time>2026-05-03T12:01:56Z</time></trkpt><trkpt lat="42.43216548358087" lon="14.157965052847409"><ele>33.0</ele><time>2026-05-03T12:01:57Z</time></trkpt><trkpt lat="42.43223485764171" lon="14.15779897541428"><ele>35.0</ele><time>2026-05-03T12:01:58Z</time></trkpt><trkpt lat="42.432303434872566" lon="14.1576436597429"><ele>37.0</ele><time>2026-05-03T12:01:59Z</time></trkpt><trkpt lat="42.4323666192308" lon="14.157489269965263"><ele>39.0</ele><time>2026-05-03T12:02:00Z</time></trkpt><trkpt lat="42.43245314372556" lon="14.157356760568254"><ele>41.0</ele><time>2026-05-03T12:02:01Z</time></trkpt><trkpt lat="42.43255243967515" lon="14.15723331716841"><ele>42.0</ele><time>2026-05-03T12:02:02Z</time></trkpt><trkpt lat="42.4326652858708" lon="14.15712299603415"><ele>43.0</ele><time>2026-05-03T12:02:03Z</time></trkpt><trkpt lat="42.43277817921825" lon="14.157017312831753"><ele>44.0</ele><time>2026-05-03T12:02:04Z</time></trkpt><trkpt lat="42.432895935253576" lon="14.156913235202621"><ele>45.0</ele><time>2026-05-03T12:02:05Z</time></trkpt><trkpt lat="42.433016392016256" lon="14.156813998052854"><ele>46.66666666666667</ele><time>2026-05-03T12:02:06Z</time></trkpt><trkpt lat="42.43314473143631" lon="14.156708231109446"><ele>48.333333333333336</ele><time>2026-05-03T12:02:07Z</time></trkpt><trkpt lat="42.433273619572574" lon="14.156603879714266"><ele>50.0</ele><time>2026-05-03T12:02:08Z</time></trkpt><trkpt lat="42.4334053155495" lon="14.15649588491817"><ele>50.66666666666667</ele><time>2026-05-03T12:02:09Z</time></trkpt><trkpt lat="42.433539934399946" lon="14.156391153742083"><ele>51.33333333333333</ele><time>2026-05-03T12:02:10Z</time></trkpt><trkpt lat="42.43367679505964" lon="14.156286457229445"><ele>52.0</ele><time>2026-05-03T12:02:11Z</time></trkpt><trkpt lat="42.43381391098824" lon="14.15618568559324"><ele>52.666666666666664</ele><time>2026-05-03T12:02:12Z</time></trkpt><trkpt lat="42.43395561461443" lon="14.15608162028212"><ele>53.33333333333333</ele><time>2026-05-03T12:02:13Z</time></trkpt><trkpt lat="42.43409796942774" lon="14.155972907544694"><ele>54.0</ele><time>2026-05-03T12:02:14Z</time></trkpt><trkpt lat="42.43423986592156" lon="14.15586575564464"><ele>54.0</ele><time>2026-05-03T12:02:15Z</time></trkpt><trkpt lat="42.434380004073496" lon="14.155762532361171"><ele>54.0</ele><time>2026-05-03T12:02:16Z</time></trkpt><trkpt lat="42.434518590917754" lon="14.155660333101542"><ele>54.0</ele><time>2026-05-03T12:02:17Z</time></trkpt><trkpt lat="42.43465698833562" lon="14.155557026966148"><ele>55.66666666666667</ele><time>2026-05-03T12:02:18Z</time></trkpt><trkpt lat="42.43480016374881" lon="14.15545047842619"><ele>57.333333333333336</ele><time>2026-05-03T12:02:19Z</time></trkpt><trkpt lat="42.434941201800946" lon="14.155340783743087"><ele>59.0</ele><time>2026-05-03T12:02:20Z</time></trkpt><trkpt lat="42.435077027742274" lon="14.155233939995304"><ele>59.0</ele><time>2026-05-03T12:02:21Z</time></trkpt><trkpt lat="42.435215606758426" lon="14.155131495789737"><ele>59.0</ele><time>2026-05-03T12:02:22Z</time></trkpt><trkpt lat="42.43536609857968" lon="14.155015722631989"><ele>59.0</ele><time>2026-05-03T12:02:23Z</time></trkpt><trkpt lat="42.43552075155624" lon="14.15491878545116"><ele>60.333333333333336</ele><time>2026-05-03T12:02:24Z</time></trkpt><trkpt lat="42.43567798474343" lon="14.154800587575311"><ele>61.66666666666667</ele><time>2026-05-03T12:02:25Z</time></trkpt><trkpt lat="42.43583643237467" lon="14.15467880812245"><ele>63.0</ele><time>2026-05-03T12:02:26Z</time></trkpt><trkpt lat="42.435982643308584" lon="14.154546559470306"><ele>63.0</ele><time>2026-05-03T12:02:27Z</time></trkpt><trkpt lat="42.43613980518511" lon="14.154430162993357"><ele>63.0</ele><time>2026-05-03T12:02:28Z</time></trkpt><trkpt lat="42.43629320922944" lon="14.154296232688552"><ele>63.0</ele><time>2026-05-03T12:02:29Z</time></trkpt><trkpt lat="42.436447231005594" lon="14.15416824557023"><ele>63.33333333333333</ele><time>2026-05-03T12:02:30Z</time></trkpt><trkpt lat="42.43659614121067" lon="14.154040576575326"><ele>63.666666666666664</ele><time>2026-05-03T12:02:31Z</time></trkpt><trkpt lat="42.4367437385958" lon="14.153912145999701"><ele>64.0</ele><time>2026-05-03T12:02:32Z</time></trkpt><trkpt lat="42.43688467535113" lon="14.15378352960978"><ele>65.66666666666666</ele><time>2026-05-03T12:02:33Z</time></trkpt><trkpt lat="42.43700740182388" lon="14.153665270094887"><ele>67.33333333333333</ele><time>2026-05-03T12:02:34Z</time></trkpt><trkpt lat="42.43714240642756" lon="14.153555149941338"><ele>69.0</ele><time>2026-05-03T12:02:35Z</time></trkpt><trkpt lat="42.43726798912" lon="14.153455464621006"><ele>69.0</ele><time>2026-05-03T12:02:36Z</time></trkpt><trkpt lat="42.437406542496326" lon="14.153356396477074"><ele>69.0</ele><time>2026-05-03T12:02:37Z</time></trkpt><trkpt lat="42.43754551915598" lon="14.153283102391114"><ele>69.0</ele><time>2026-05-03T12:02:38Z</time></trkpt><trkpt lat="42.43769528689426" lon="14.15326160352217"><ele>69.0</ele><time>2026-05-03T12:02:39Z</time></trkpt><trkpt lat="42.43783681019054" lon="14.153213533009177"><ele>69.0</ele><time>2026-05-03T12:02:40Z</time></trkpt><trkpt lat="42.437980684531766" lon="14.153183206649842"><ele>69.0</ele><time>2026-05-03T12:02:41Z</time></trkpt><trkpt lat="42.43812934263959" lon="14.153143195076312"><ele>69.0</ele><time>2026-05-03T12:02:42Z</time></trkpt><trkpt lat="42.43827765543066" lon="14.153075239860968"><ele>67.0</ele><time>2026-05-03T12:02:43Z</time></trkpt><trkpt lat="42.43842067241839" lon="14.152979282432796"><ele>65.0</ele><time>2026-05-03T12:02:44Z</time></trkpt><trkpt lat="42.438555495502996" lon="14.152859234307043"><ele>63.0</ele><time>2026-05-03T12:02:45Z</time></trkpt><trkpt lat="42.43868409189755" lon="14.152722688704841"><ele>65.0</ele><time>2026-05-03T12:02:46Z</time></trkpt><trkpt lat="42.43880514591889" lon="14.152575112333498"><ele>67.0</ele><time>2026-05-03T12:02:47Z</time></trkpt><trkpt lat="42.438925259802105" lon="14.152423143972474"><ele>69.0</ele><time>2026-05-03T12:02:48Z</time></trkpt><trkpt lat="42.43903566222878" lon="14.15225949748013"><ele>70.33333333333333</ele><time>2026-05-03T12:02:49Z</time></trkpt><trkpt lat="42.43913992257903" lon="14.152089017614204"><ele>71.66666666666666</ele><time>2026-05-03T12:02:50Z</time></trkpt><trkpt lat="42.439239814195325" lon="14.15192310916314"><ele>73.0</ele><time>2026-05-03T12:02:51Z</time></trkpt><trkpt lat="42.43935887741277" lon="14.151798495940556"><ele>73.0</ele><time>2026-05-03T12:02:52Z</time></trkpt><trkpt lat="42.439484027273494" lon="14.151682024732935"><ele>73.0</ele><time>2026-05-03T12:02:53Z</time></trkpt><trkpt lat="42.439616140205665" lon="14.151583131339345"><ele>73.0</ele><time>2026-05-03T12:02:54Z</time></trkpt><trkpt lat="42.43975891729805" lon="14.151505319217804"><ele>74.0</ele><time>2026-05-03T12:02:55Z</time></trkpt><trkpt lat="42.43990410420377" lon="14.151419960696472"><ele>75.0</ele><time>2026-05-03T12:02:56Z</time></trkpt><trkpt lat="42.4400594048008" lon="14.151359664236262"><ele>76.0</ele><time>2026-05-03T12:02:57Z</time></trkpt><trkpt lat="42.44020780472085" lon="14.151290488498821"><ele>76.0</ele><time>2026-05-03T12:02:58Z</time></trkpt><trkpt lat="42.44034503980239" lon="14.151202052930582"><ele>76.0</ele><time>2026-05-03T12:02:59Z</time></trkpt><trkpt lat="42.440477651790374" lon="14.151101852702526"><ele>76.0</ele><time>2026-05-03T12:03:00Z</time></trkpt><trkpt lat="42.440608129820404" lon="14.15099225003687"><ele>80.0</ele><time>2026-05-03T12:03:01Z</time></trkpt><trkpt lat="42.44074520324767" lon="14.150897375106208"><ele>84.0</ele><time>2026-05-03T12:03:02Z</time></trkpt><trkpt lat="42.44089173566918" lon="14.150827887782887"><ele>88.0</ele><time>2026-05-03T12:03:03Z</time></trkpt><trkpt lat="42.44104371404374" lon="14.150815366042977"><ele>88.0</ele><time>2026-05-03T12:03:04Z</time></trkpt><trkpt lat="42.44118841302271" lon="14.150832699386964"><ele>88.0</ele><time>2026-05-03T12:03:05Z</time></trkpt><trkpt lat="42.44132677118229" lon="14.15087987388557"><ele>88.0</ele><time>2026-05-03T12:03:06Z</time></trkpt><trkpt lat="42.441481142107286" lon="14.150935979955186"><ele>88.0</ele><time>2026-05-03T12:03:07Z</time></trkpt><trkpt lat="42.4416358642156" lon="14.150979611983562"><ele>88.75</ele><time>2026-05-03T12:03:08Z</time></trkpt><trkpt lat="42.441779397420966" lon="14.151014005512232"><ele>89.5</ele><time>2026-05-03T12:03:09Z</time></trkpt><trkpt lat="42.44192271560248" lon="14.151004069572902"><ele>90.25</ele><time>2026-05-03T12:03:10Z</time></trkpt><trkpt lat="42.442056164707985" lon="14.150960578668732"><ele>91.0</ele><time>2026-05-03T12:03:11Z</time></trkpt><trkpt lat="42.442177767237574" lon="14.1508872277713"><ele>91.75</ele><time>2026-05-03T12:03:12Z</time></trkpt><trkpt lat="42.44227950966425" lon="14.150797091917038"><ele>92.5</ele><time>2026-05-03T12:03:13Z</time></trkpt><trkpt lat="42.44236106651869" lon="14.15067592236769"><ele>93.25</ele><time>2026-05-03T12:03:14Z</time></trkpt><trkpt lat="42.44241451702502" lon="14.150505617350312"><ele>94.0</ele><time>2026-05-03T12:03:15Z</time></trkpt><trkpt lat="42.442443230029824" lon="14.150313269470127"><ele>94.0</ele><time>2026-05-03T12:03:16Z</time></trkpt><trkpt lat="42.442466608600206" lon="14.15011869474728"><ele>94.0</ele><time>2026-05-03T12:03:17Z</time></trkpt><trkpt lat="42.44249467829911" lon="14.149915000617527"><ele>94.0</ele><time>2026-05-03T12:03:18Z</time></trkpt><trkpt lat="42.44255065615392" lon="14.149725559438927"><ele>94.0</ele><time>2026-05-03T12:03:19Z</time></trkpt><trkpt lat="42.44259724662315" lon="14.149536632022993"><ele>95.0</ele><time>2026-05-03T12:03:20Z</time></trkpt><trkpt lat="42.44265461669123" lon="14.149348318305636"><ele>96.0</ele><time>2026-05-03T12:03:21Z</time></trkpt><trkpt lat="42.442716324238376" lon="14.149169573668296"><ele>97.0</ele><time>2026-05-03T12:03:22Z</time></trkpt><trkpt lat="42.442782845297" lon="14.14899163201102"><ele>98.0</ele><time>2026-05-03T12:03:23Z</time></trkpt><trkpt lat="42.44285651964694" lon="14.148823517668811"><ele>99.5</ele><time>2026-05-03T12:03:24Z</time></trkpt><trkpt lat="42.44294379169497" lon="14.14867174297612"><ele>101.0</ele><time>2026-05-03T12:03:25Z</time></trkpt><trkpt lat="42.44304090070684" lon="14.148522466814308"><ele>102.5</ele><time>2026-05-03T12:03:26Z</time></trkpt><trkpt lat="42.44313532991779" lon="14.148382254007409"><ele>104.0</ele><time>2026-05-03T12:03:27Z</time></trkpt><trkpt lat="42.443228784098686" lon="14.148245209419256"><ele>107.75</ele><time>2026-05-03T12:03:28Z</time></trkpt><trkpt lat="42.4433300512967" lon="14.148103429882068"><ele>111.5</ele><time>2026-05-03T12:03:29Z</time></trkpt><trkpt lat="42.44343509294553" lon="14.1479559755562"><ele>115.25</ele><time>2026-05-03T12:03:30Z</time></trkpt><trkpt lat="42.4435414468851" lon="14.14781234924271"><ele>119.0</ele><time>2026-05-03T12:03:31Z</time></trkpt><trkpt lat="42.44364237790474" lon="14.147668981598812"><ele>119.0</ele><time>2026-05-03T12:03:32Z</time></trkpt><trkpt lat="42.443772466946825" lon="14.147589606242231"><ele>119.0</ele><time>2026-05-03T12:03:33Z</time></trkpt><trkpt lat="42.44390158964132" lon="14.147501174169117"><ele>119.0</ele><time>2026-05-03T12:03:34Z</time></trkpt><trkpt lat="42.444047197539405" lon="14.147456733561608"><ele>119.0</ele><time>2026-05-03T12:03:35Z</time></trkpt><trkpt lat="42.44418774052578" lon="14.147432658258207"><ele>117.75</ele><time>2026-05-03T12:03:36Z</time></trkpt><trkpt lat="42.44431899067058" lon="14.147396842834542"><ele>116.5</ele><time>2026-05-03T12:03:37Z</time></trkpt><trkpt lat="42.44442493700739" lon="14.147315930672757"><ele>115.25</ele><time>2026-05-03T12:03:38Z</time></trkpt><trkpt lat="42.44450343887936" lon="14.147193912234378"><ele>114.0</ele><time>2026-05-03T12:03:39Z</time></trkpt><trkpt lat="42.44454830666325" lon="14.147069257352504"><ele>115.4</ele><time>2026-05-03T12:03:40Z</time></trkpt><trkpt lat="42.44457788859263" lon="14.146964920753236"><ele>116.80000000000001</ele><time>2026-05-03T12:03:41Z</time></trkpt><trkpt lat="42.4445956658714" lon="14.14686594636115"><ele>118.19999999999999</ele><time>2026-05-03T12:03:42Z</time></trkpt><trkpt lat="42.444687372501825" lon="14.146778220694411"><ele>119.6</ele><time>2026-05-03T12:03:43Z</time></trkpt><trkpt lat="42.444767973669045" lon="14.146660626171247"><ele>121.0</ele><time>2026-05-03T12:03:44Z</time></trkpt><trkpt lat="42.44484879889786" lon="14.14652928101756"><ele>122.25</ele><time>2026-05-03T12:03:45Z</time></trkpt><trkpt lat="42.44493327528344" lon="14.14638000241095"><ele>123.5</ele><time>2026-05-03T12:03:46Z</time></trkpt><trkpt lat="42.44501863794879" lon="14.146216305152254"><ele>124.75</ele><time>2026-05-03T12:03:47Z</time></trkpt><trkpt lat="42.44511063637823" lon="14.14605023056561"><ele>126.0</ele><time>2026-05-03T12:03:48Z</time></trkpt><trkpt lat="42.44521075848031" lon="14.145887058896992"><ele>126.0</ele><time>2026-05-03T12:03:49Z</time></trkpt><trkpt lat="42.44530736245278" lon="14.1457176515544"><ele>126.0</ele><time>2026-05-03T12:03:50Z</time></trkpt><trkpt lat="42.44539474162135" lon="14.145550711337213"><ele>126.0</ele><time>2026-05-03T12:03:51Z</time></trkpt><trkpt lat="42.44550081184904" lon="14.145424982543137"><ele>124.5</ele><time>2026-05-03T12:03:52Z</time></trkpt><trkpt lat="42.44560110392449" lon="14.145282862309354"><ele>123.0</ele><time>2026-05-03T12:03:53Z</time></trkpt><trkpt lat="42.44572528451798" lon="14.145168458186875"><ele>121.5</ele><time>2026-05-03T12:03:54Z</time></trkpt><trkpt lat="42.445854574466566" lon="14.145064548526845"><ele>120.0</ele><time>2026-05-03T12:03:55Z</time></trkpt><trkpt lat="42.44598785061682" lon="14.1449670550117"><ele>120.0</ele><time>2026-05-03T12:03:56Z</time></trkpt><trkpt lat="42.446120533166315" lon="14.144881199720983"><ele>120.0</ele><time>2026-05-03T12:03:57Z</time></trkpt><trkpt lat="42.446259058127545" lon="14.144801647551207"><ele>120.0</ele><time>2026-05-03T12:03:58Z</time></trkpt><trkpt lat="42.44640117563239" lon="14.144733228068542"><ele>120.0</ele><time>2026-05-03T12:03:59Z</time></trkpt><trkpt lat="42.446541440647245" lon="14.14467964128311"><ele>120.33333333333334</ele><time>2026-05-03T12:04:00Z</time></trkpt><trkpt lat="42.44669389094607" lon="14.144641953682676"><ele>120.66666666666667</ele><time>2026-05-03T12:04:01Z</time></trkpt><trkpt lat="42.446847061554465" lon="14.144605770371008"><ele>121.0</ele><time>2026-05-03T12:04:02Z</time></trkpt><trkpt lat="42.44699216353543" lon="14.144564642061336"><ele>121.0</ele><time>2026-05-03T12:04:03Z</time></trkpt><trkpt lat="42.44712267628644" lon="14.144531093996113"><ele>121.0</ele><time>2026-05-03T12:04:04Z</time></trkpt><trkpt lat="42.447238697878376" lon="14.144502393076253"><ele>121.0</ele><time>2026-05-03T12:04:05Z</time></trkpt><trkpt lat="42.44734876566982" lon="14.144523072783464"><ele>121.0</ele><time>2026-05-03T12:04:06Z</time></trkpt><trkpt lat="42.4474559407778" lon="14.144588180264002"><ele>122.25</ele><time>2026-05-03T12:04:07Z</time></trkpt><trkpt lat="42.44753416908742" lon="14.144701177034486"><ele>123.5</ele><time>2026-05-03T12:04:08Z</time></trkpt><trkpt lat="42.44757509025799" lon="14.144846954056943"><ele>124.75</ele><time>2026-05-03T12:04:09Z</time></trkpt><trkpt lat="42.44757965369702" lon="14.145005586821336"><ele>126.0</ele><time>2026-05-03T12:04:10Z</time></trkpt><trkpt lat="42.44757089888459" lon="14.145176871252305"><ele>126.25</ele><time>2026-05-03T12:04:11Z</time></trkpt><trkpt lat="42.44756293852807" lon="14.145356656154274"><ele>126.5</ele><time>2026-05-03T12:04:12Z</time></trkpt><trkpt lat="42.44756432940671" lon="14.145535061260256"><ele>126.75</ele><time>2026-05-03T12:04:13Z</time></trkpt><trkpt lat="42.44758807231705" lon="14.14570033274031"><ele>127.0</ele><time>2026-05-03T12:04:14Z</time></trkpt><trkpt lat="42.44764496260722" lon="14.145846854910284"><ele>127.5</ele><time>2026-05-03T12:04:15Z</time></trkpt><trkpt lat="42.447720633392606" lon="14.14597979972094"><ele>128.0</ele><time>2026-05-03T12:04:16Z</time></trkpt><trkpt lat="42.44781868455454" lon="14.146097833005513"><ele>128.5</ele><time>2026-05-03T12:04:17Z</time></trkpt><trkpt lat="42.447927899454946" lon="14.146194903936406"><ele>129.0</ele><time>2026-05-03T12:04:18Z</time></trkpt><trkpt lat="42.44805109886458" lon="14.146278951648311"><ele>133.33333333333334</ele><time>2026-05-03T12:04:19Z</time></trkpt><trkpt lat="42.44818655121559" lon="14.146344673019605"><ele>137.66666666666669</ele><time>2026-05-03T12:04:20Z</time></trkpt><trkpt lat="42.44833397726762" lon="14.146398898391636"><ele>142.0</ele><time>2026-05-03T12:04:21Z</time></trkpt><trkpt lat="42.44848455696599" lon="14.146440400331747"><ele>142.0</ele><time>2026-05-03T12:04:22Z</time></trkpt><trkpt lat="42.44863307346439" lon="14.146462576923415"><ele>142.0</ele><time>2026-05-03T12:04:23Z</time></trkpt><trkpt lat="42.44877823488184" lon="14.14644224364219"><ele>142.0</ele><time>2026-05-03T12:04:24Z</time></trkpt><trkpt lat="42.44891792539525" lon="14.146391021635534"><ele>142.0</ele><time>2026-05-03T12:04:25Z</time></trkpt><trkpt lat="42.449042176299066" lon="14.14629758979255"><ele>142.5</ele><time>2026-05-03T12:04:26Z</time></trkpt><trkpt lat="42.449142806449316" lon="14.146170634159638"><ele>143.0</ele><time>2026-05-03T12:04:27Z</time></trkpt><trkpt lat="42.44922512822399" lon="14.14601766230504"><ele>143.5</ele><time>2026-05-03T12:04:28Z</time></trkpt><trkpt lat="42.449305403857956" lon="14.145857918016898"><ele>144.0</ele><time>2026-05-03T12:04:29Z</time></trkpt><trkpt lat="42.44940560943858" lon="14.14571013505677"><ele>141.33333333333334</ele><time>2026-05-03T12:04:30Z</time></trkpt><trkpt lat="42.44949483877253" lon="14.14554627649397"><ele>138.66666666666669</ele><time>2026-05-03T12:04:31Z</time></trkpt><trkpt lat="42.449585415802034" lon="14.145379943158163"><ele>136.0</ele><time>2026-05-03T12:04:32Z</time></trkpt><trkpt lat="42.449650177704605" lon="14.145191640477766"><ele>136.0</ele><time>2026-05-03T12:04:33Z</time></trkpt><trkpt lat="42.44972014275992" lon="14.14501440951497"><ele>136.0</ele><time>2026-05-03T12:04:34Z</time></trkpt><trkpt lat="42.449800535004464" lon="14.1448448055402"><ele>136.0</ele><time>2026-05-03T12:04:35Z</time></trkpt><trkpt lat="42.44986239017121" lon="14.144659787316414"><ele>136.0</ele><time>2026-05-03T12:04:36Z</time></trkpt><trkpt lat="42.44989352317294" lon="14.144464773273068"><ele>136.66666666666669</ele><time>2026-05-03T12:04:37Z</time></trkpt><trkpt lat="42.449927423011864" lon="14.144264380591325"><ele>137.33333333333334</ele><time>2026-05-03T12:04:38Z</time></trkpt><trkpt lat="42.44994119239457" lon="14.14405339989379"><ele>138.0</ele><time>2026-05-03T12:04:39Z</time></trkpt><trkpt lat="42.449934381126965" lon="14.143838543343197"><ele>138.0</ele><time>2026-05-03T12:04:40Z</time></trkpt><trkpt lat="42.44991468363551" lon="14.14362422615091"><ele>138.0</ele><time>2026-05-03T12:04:41Z</time></trkpt><trkpt lat="42.44991310862133" lon="14.143404585204667"><ele>138.0</ele><time>2026-05-03T12:04:42Z</time></trkpt><trkpt lat="42.44989561702238" lon="14.143193354959147"><ele>137.66666666666666</ele><time>2026-05-03T12:04:43Z</time></trkpt><trkpt lat="42.44984721827685" lon="14.14299187940585"><ele>137.33333333333331</ele><time>2026-05-03T12:04:44Z</time></trkpt><trkpt lat="42.449795822513465" lon="14.142793838111452"><ele>137.0</ele><time>2026-05-03T12:04:45Z</time></trkpt><trkpt lat="42.449727445679315" lon="14.14260420360377"><ele>137.0</ele><time>2026-05-03T12:04:46Z</time></trkpt><trkpt lat="42.449656600571025" lon="14.142420933800512"><ele>137.0</ele><time>2026-05-03T12:04:47Z</time></trkpt><trkpt lat="42.44959269825636" lon="14.1422516493906"><ele>137.0</ele><time>2026-05-03T12:04:48Z</time></trkpt><trkpt lat="42.449547057753556" lon="14.142092053701393"><ele>137.0</ele><time>2026-05-03T12:04:49Z</time></trkpt><trkpt lat="42.449521974628084" lon="14.14194929791768"><ele>137.6</ele><time>2026-05-03T12:04:50Z</time></trkpt><trkpt lat="42.44955839903249" lon="14.141816876603771"><ele>138.2</ele><time>2026-05-03T12:04:51Z</time></trkpt><trkpt lat="42.449640398552425" lon="14.14173497730505"><ele>138.8</ele><time>2026-05-03T12:04:52Z</time></trkpt><trkpt lat="42.44972715430035" lon="14.14165165584073"><ele>139.4</ele><time>2026-05-03T12:04:53Z</time></trkpt><trkpt lat="42.449831348154255" lon="14.14156269983304"><ele>140.0</ele><time>2026-05-03T12:04:54Z</time></trkpt><trkpt lat="42.44996002766905" lon="14.14148902124718"><ele>141.66666666666666</ele><time>2026-05-03T12:04:55Z</time></trkpt><trkpt lat="42.45010049740786" lon="14.141415787202318"><ele>143.33333333333334</ele><time>2026-05-03T12:04:56Z</time></trkpt><trkpt lat="42.45024774426679" lon="14.14135566175086"><ele>145.0</ele><time>2026-05-03T12:04:57Z</time></trkpt><trkpt lat="42.45039198916221" lon="14.14129249330439"><ele>146.25</ele><time>2026-05-03T12:04:58Z</time></trkpt><trkpt lat="42.45053230381976" lon="14.141238617316047"><ele>147.5</ele><time>2026-05-03T12:04:59Z</time></trkpt><trkpt lat="42.450666864747646" lon="14.14118780366824"><ele>148.75</ele><time>2026-05-03T12:05:00Z</time></trkpt><trkpt lat="42.450804097637956" lon="14.14114272920168"><ele>150.0</ele><time>2026-05-03T12:05:01Z</time></trkpt><trkpt lat="42.45095894252094" lon="14.141088989833529"><ele>150.0</ele><time>2026-05-03T12:05:02Z</time></trkpt><trkpt lat="42.45111950735542" lon="14.141041968385835"><ele>150.0</ele><time>2026-05-03T12:05:03Z</time></trkpt><trkpt lat="42.45127468076135" lon="14.140992623542587"><ele>150.0</ele><time>2026-05-03T12:05:04Z</time></trkpt><trkpt lat="42.45142467513389" lon="14.140947181787181"><ele>150.5</ele><time>2026-05-03T12:05:05Z</time></trkpt><trkpt lat="42.45156714717763" lon="14.140910879482346"><ele>151.0</ele><time>2026-05-03T12:05:06Z</time></trkpt><trkpt lat="42.45170308813339" lon="14.140879207282937"><ele>151.5</ele><time>2026-05-03T12:05:07Z</time></trkpt><trkpt lat="42.45184564238263" lon="14.140878084869362"><ele>152.0</ele><time>2026-05-03T12:05:08Z</time></trkpt><trkpt lat="42.45197732486661" lon="14.1408334898783"><ele>152.0</ele><time>2026-05-03T12:05:09Z</time></trkpt><trkpt lat="42.452110380774066" lon="14.14081123480458"><ele>152.0</ele><time>2026-05-03T12:05:10Z</time></trkpt><trkpt lat="42.452237970042844" lon="14.140784383805867"><ele>152.0</ele><time>2026-05-03T12:05:11Z</time></trkpt><trkpt lat="42.45235816999813" lon="14.14075770554314"><ele>152.0</ele><time>2026-05-03T12:05:12Z</time></trkpt><trkpt lat="42.45247429395141" lon="14.140737640574649"><ele>152.0</ele><time>2026-05-03T12:05:13Z</time></trkpt><trkpt lat="42.45258318755726" lon="14.140713884123034"><ele>152.0</ele><time>2026-05-03T12:05:14Z</time></trkpt><trkpt lat="42.45269370372888" lon="14.140686412835626"><ele>152.0</ele><time>2026-05-03T12:05:15Z</time></trkpt><trkpt lat="42.45280465435271" lon="14.140657493851299"><ele>152.0</ele><time>2026-05-03T12:05:16Z</time></trkpt><trkpt lat="42.45289795119164" lon="14.140633003499902"><ele>152.0</ele><time>2026-05-03T12:05:17Z</time></trkpt><trkpt lat="42.45296284649647" lon="14.140616086508713"><ele>154.83333333333331</ele><time>2026-05-03T12:05:18Z</time></trkpt><trkpt lat="42.453033510953475" lon="14.140594060324572"><ele>157.66666666666666</ele><time>2026-05-03T12:05:21Z</time></trkpt><trkpt lat="42.45312336892548" lon="14.140565020431394"><ele>160.5</ele><time>2026-05-03T12:05:24Z</time></trkpt><trkpt lat="42.45318321287701" lon="14.140521443356073"><ele>163.33333333333334</ele><time>2026-05-03T12:05:25Z</time></trkpt><trkpt lat="42.45325477166532" lon="14.140466581321586"><ele>166.16666666666669</ele><time>2026-05-03T12:05:26Z</time></trkpt><trkpt lat="42.45333871300716" lon="14.140408007706352"><ele>169.0</ele><time>2026-05-03T12:05:27Z</time></trkpt><trkpt lat="42.45343365505658" lon="14.140345452654495"><ele>169.0</ele><time>2026-05-03T12:05:28Z</time></trkpt><trkpt lat="42.4535310478979" lon="14.140296834329341"><ele>169.0</ele><time>2026-05-03T12:05:29Z</time></trkpt><trkpt lat="42.45363520877097" lon="14.140235276177114"><ele>169.0</ele><time>2026-05-03T12:05:30Z</time></trkpt><trkpt lat="42.4537370040478" lon="14.14016532933404"><ele>169.0</ele><time>2026-05-03T12:05:31Z</time></trkpt><trkpt lat="42.45384439661542" lon="14.14010168770568"><ele>169.0</ele><time>2026-05-03T12:05:32Z</time></trkpt><trkpt lat="42.45392970785456" lon="14.13998617460795"><ele>170.25</ele><time>2026-05-03T12:05:33Z</time></trkpt><trkpt lat="42.453983322506765" lon="14.139839132982273"><ele>171.5</ele><time>2026-05-03T12:05:34Z</time></trkpt><trkpt lat="42.45406073825821" lon="14.139720482701794"><ele>172.75</ele><time>2026-05-03T12:05:35Z</time></trkpt><trkpt lat="42.45412481369709" lon="14.139588565896606"><ele>174.0</ele><time>2026-05-03T12:05:36Z</time></trkpt><trkpt lat="42.4541884006611" lon="14.139457654676699"><ele>174.0</ele><time>2026-05-03T12:05:37Z</time></trkpt><trkpt lat="42.45425429362085" lon="14.139328408042905"><ele>174.0</ele><time>2026-05-03T12:05:38Z</time></trkpt><trkpt lat="42.454322274550236" lon="14.13919790284028"><ele>174.0</ele><time>2026-05-03T12:05:39Z</time></trkpt><trkpt lat="42.45439056538037" lon="14.139068710011054"><ele>174.0</ele><time>2026-05-03T12:05:40Z</time></trkpt><trkpt lat="42.454457605345276" lon="14.138943872734304"><ele>173.75</ele><time>2026-05-03T12:05:41Z</time></trkpt><trkpt lat="42.45451615917821" lon="14.138813049490917"><ele>173.5</ele><time>2026-05-03T12:05:42Z</time></trkpt><trkpt lat="42.45459883635736" lon="14.138703241764592"><ele>173.25</ele><time>2026-05-03T12:05:43Z</time></trkpt><trkpt lat="42.45467344761829" lon="14.138579196645452"><ele>173.0</ele><time>2026-05-03T12:05:44Z</time></trkpt><trkpt lat="42.454748471863894" lon="14.138455288558356"><ele>173.0</ele><time>2026-05-03T12:05:45Z</time></trkpt><trkpt lat="42.454825038824275" lon="14.138328832582351"><ele>173.0</ele><time>2026-05-03T12:05:46Z</time></trkpt><trkpt lat="42.454897902072325" lon="14.138199994233155"><ele>173.0</ele><time>2026-05-03T12:05:47Z</time></trkpt><trkpt lat="42.45497045106586" lon="14.138062986439742"><ele>173.0</ele><time>2026-05-03T12:05:48Z</time></trkpt><trkpt lat="42.45502638760453" lon="14.1379113501002"><ele>173.0</ele><time>2026-05-03T12:05:49Z</time></trkpt><trkpt lat="42.455057292927115" lon="14.137749621759369"><ele>173.0</ele><time>2026-05-03T12:05:50Z</time></trkpt><trkpt lat="42.45505687550345" lon="14.137577244192842"><ele>173.0</ele><time>2026-05-03T12:05:51Z</time></trkpt><trkpt lat="42.4550531917843" lon="14.137430929514522"><ele>173.0</ele><time>2026-05-03T12:05:52Z</time></trkpt><trkpt lat="42.45505002851291" lon="14.137303196384055"><ele>173.0</ele><time>2026-05-03T12:05:53Z</time></trkpt><trkpt lat="42.45504646992336" lon="14.137174008690032"><ele>173.0</ele><time>2026-05-03T12:05:54Z</time></trkpt><trkpt lat="42.455043001200984" lon="14.137048083429606"><ele>173.0</ele><time>2026-05-03T12:05:55Z</time></trkpt><trkpt lat="42.45504019856818" lon="14.13692021999773"><ele>173.0</ele><time>2026-05-03T12:05:56Z</time></trkpt><trkpt lat="42.45503973499106" lon="14.136787895140971"><ele>173.0</ele><time>2026-05-03T12:05:57Z</time></trkpt><trkpt lat="42.45504031537763" lon="14.136661834883377"><ele>175.0</ele><time>2026-05-03T12:05:58Z</time></trkpt><trkpt lat="42.45504575607289" lon="14.136544268565855"><ele>177.0</ele><time>2026-05-03T12:05:59Z</time></trkpt><trkpt lat="42.455065241932004" lon="14.136456095120257"><ele>179.0</ele><time>2026-05-03T12:06:00Z</time></trkpt><trkpt lat="42.455191196201085" lon="14.136405917445346"><ele>181.0</ele><time>2026-05-03T12:06:02Z</time></trkpt><trkpt lat="42.455272388690375" lon="14.136375226122867"><ele>183.0</ele><time>2026-05-03T12:06:03Z</time></trkpt><trkpt lat="42.4553495385284" lon="14.136324433295389"><ele>183.0</ele><time>2026-05-03T12:06:04Z</time></trkpt><trkpt lat="42.45543940733729" lon="14.136307904697608"><ele>183.0</ele><time>2026-05-03T12:06:05Z</time></trkpt><trkpt lat="42.4555133254813" lon="14.136258210854391"><ele>183.0</ele><time>2026-05-03T12:06:06Z</time></trkpt><trkpt lat="42.455578975494454" lon="14.13621532125519"><ele>183.0</ele><time>2026-05-03T12:06:07Z</time></trkpt><trkpt lat="42.45565133777422" lon="14.136167455254736"><ele>183.0</ele><time>2026-05-03T12:06:08Z</time></trkpt><trkpt lat="42.4557252856527" lon="14.136094620141593"><ele>183.0</ele><time>2026-05-03T12:06:09Z</time></trkpt><trkpt lat="42.45581397600113" lon="14.136040390891331"><ele>182.4</ele><time>2026-05-03T12:06:10Z</time></trkpt><trkpt lat="42.45590977979014" lon="14.135972669109005"><ele>181.8</ele><time>2026-05-03T12:06:11Z</time></trkpt><trkpt lat="42.455986036339056" lon="14.13586561063239"><ele>181.2</ele><time>2026-05-03T12:06:12Z</time></trkpt><trkpt lat="42.45605651798019" lon="14.135752529814788"><ele>180.6</ele><time>2026-05-03T12:06:13Z</time></trkpt><trkpt lat="42.45613324706014" lon="14.13563516202553"><ele>180.0</ele><time>2026-05-03T12:06:14Z</time></trkpt><trkpt lat="42.45619022560496" lon="14.135494720649072"><ele>177.0</ele><time>2026-05-03T12:06:15Z</time></trkpt><trkpt lat="42.45623933738172" lon="14.135347667615026"><ele>174.0</ele><time>2026-05-03T12:06:16Z</time></trkpt><trkpt lat="42.4562860601206" lon="14.135196997534203"><ele>171.0</ele><time>2026-05-03T12:06:17Z</time></trkpt><trkpt lat="42.45633520119971" lon="14.13503682779041"><ele>168.0</ele><time>2026-05-03T12:06:18Z</time></trkpt><trkpt lat="42.45638677542719" lon="14.134868727491899"><ele>168.0</ele><time>2026-05-03T12:06:19Z</time></trkpt><trkpt lat="42.45644024292112" lon="14.134695633287162"><ele>168.0</ele><time>2026-05-03T12:06:20Z</time></trkpt><trkpt lat="42.456494241894625" lon="14.134523224321542"><ele>168.0</ele><time>2026-05-03T12:06:21Z</time></trkpt><trkpt lat="42.45654796119002" lon="14.134352185767613"><ele>168.0</ele><time>2026-05-03T12:06:22Z</time></trkpt><trkpt lat="42.456599932945586" lon="14.13418301904777"><ele>168.0</ele><time>2026-05-03T12:06:23Z</time></trkpt><trkpt lat="42.45664857921441" lon="14.134012128801077"><ele>168.0</ele><time>2026-05-03T12:06:24Z</time></trkpt><trkpt lat="42.45669241126438" lon="14.133843206294856"><ele>168.0</ele><time>2026-05-03T12:06:25Z</time></trkpt><trkpt lat="42.456730486225794" lon="14.133667806935174"><ele>168.0</ele><time>2026-05-03T12:06:26Z</time></trkpt><trkpt lat="42.456763064832856" lon="14.133494220902099"><ele>168.0</ele><time>2026-05-03T12:06:27Z</time></trkpt><trkpt lat="42.45679026023511" lon="14.133311392259404"><ele>168.0</ele><time>2026-05-03T12:06:28Z</time></trkpt><trkpt lat="42.45681332237833" lon="14.133132213726299"><ele>168.0</ele><time>2026-05-03T12:06:29Z</time></trkpt><trkpt lat="42.45683440522703" lon="14.132946491732664"><ele>168.0</ele><time>2026-05-03T12:06:30Z</time></trkpt><trkpt lat="42.45685565216211" lon="14.132762049318355"><ele>167.5</ele><time>2026-05-03T12:06:31Z</time></trkpt><trkpt lat="42.45689230810591" lon="14.132574139756953"><ele>167.0</ele><time>2026-05-03T12:06:32Z</time></trkpt><trkpt lat="42.45694447354283" lon="14.132395165431966"><ele>166.5</ele><time>2026-05-03T12:06:33Z</time></trkpt><trkpt lat="42.45701083204263" lon="14.132221722420933"><ele>166.0</ele><time>2026-05-03T12:06:34Z</time></trkpt><trkpt lat="42.45708372559821" lon="14.132045214842059"><ele>164.5</ele><time>2026-05-03T12:06:35.001Z</time></trkpt><trkpt lat="42.45715540706802" lon="14.131871292176195"><ele>163.0</ele><time>2026-05-03T12:06:36.001Z</time></trkpt><trkpt lat="42.45722754290807" lon="14.131696267028268"><ele>161.5</ele><time>2026-05-03T12:06:37.001Z</time></trkpt><trkpt lat="42.4573028202255" lon="14.131521364723646"><ele>160.0</ele><time>2026-05-03T12:06:38.001Z</time></trkpt><trkpt lat="42.45737857298439" lon="14.131347364417152"><ele>160.0</ele><time>2026-05-03T12:06:39.001Z</time></trkpt><trkpt lat="42.45745403625529" lon="14.131174029076606"><ele>160.0</ele><time>2026-05-03T12:06:40.001Z</time></trkpt><trkpt lat="42.45753174121005" lon="14.13099871288676"><ele>160.0</ele><time>2026-05-03T12:06:41.001Z</time></trkpt><trkpt lat="42.45761258168569" lon="14.130828141658967"><ele>160.0</ele><time>2026-05-03T12:06:42.001Z</time></trkpt><trkpt lat="42.457706150414" lon="14.13066891525553"><ele>160.25</ele><time>2026-05-03T12:06:43.001Z</time></trkpt><trkpt lat="42.457817542318864" lon="14.130535728311576"><ele>160.5</ele><time>2026-05-03T12:06:44.001Z</time></trkpt><trkpt lat="42.457938089686024" lon="14.13041353968391"><ele>160.75</ele><time>2026-05-03T12:06:45.001Z</time></trkpt><trkpt lat="42.45805566750933" lon="14.130292500492727"><ele>161.0</ele><time>2026-05-03T12:06:46Z</time></trkpt><trkpt lat="42.45816298435728" lon="14.130152791598302"><ele>160.66666666666666</ele><time>2026-05-03T12:06:47Z</time></trkpt><trkpt lat="42.45828161512198" lon="14.130013611564156"><ele>160.33333333333334</ele><time>2026-05-03T12:06:48Z</time></trkpt><trkpt lat="42.458386489161555" lon="14.129855626809615"><ele>160.0</ele><time>2026-05-03T12:06:49Z</time></trkpt><trkpt lat="42.45849236334316" lon="14.129696200703115"><ele>160.0</ele><time>2026-05-03T12:06:50Z</time></trkpt><trkpt lat="42.458574638364105" lon="14.129510846073035"><ele>160.0</ele><time>2026-05-03T12:06:51Z</time></trkpt><trkpt lat="42.45864685975014" lon="14.12931694726284"><ele>160.0</ele><time>2026-05-03T12:06:52Z</time></trkpt><trkpt lat="42.45869399427767" lon="14.129115785332809"><ele>158.33333333333334</ele><time>2026-05-03T12:06:53Z</time></trkpt><trkpt lat="42.45871308609353" lon="14.128906227711251"><ele>156.66666666666666</ele><time>2026-05-03T12:06:54Z</time></trkpt><trkpt lat="42.45871754258902" lon="14.12869995335828"><ele>155.0</ele><time>2026-05-03T12:06:55Z</time></trkpt><trkpt lat="42.458692429942786" lon="14.128495939396474"><ele>155.0</ele><time>2026-05-03T12:06:56Z</time></trkpt><trkpt lat="42.458644174741316" lon="14.128299467573136"><ele>155.0</ele><time>2026-05-03T12:06:57Z</time></trkpt><trkpt lat="42.45857899252159" lon="14.12810311248363"><ele>155.0</ele><time>2026-05-03T12:06:58Z</time></trkpt><trkpt lat="42.4585203039417" lon="14.127905341247862"><ele>157.0</ele><time>2026-05-03T12:06:59Z</time></trkpt><trkpt lat="42.45845164672804" lon="14.127722643237279"><ele>159.0</ele><time>2026-05-03T12:07:00Z</time></trkpt><trkpt lat="42.45838149204506" lon="14.127540676289474"><ele>161.0</ele><time>2026-05-03T12:07:01Z</time></trkpt><trkpt lat="42.458304622625334" lon="14.12737352208564"><ele>163.0</ele><time>2026-05-03T12:07:02Z</time></trkpt><trkpt lat="42.45821291169649" lon="14.127230347926647"><ele>161.25</ele><time>2026-05-03T12:07:03Z</time></trkpt><trkpt lat="42.45808992482388" lon="14.127124764802891"><ele>159.5</ele><time>2026-05-03T12:07:04Z</time></trkpt><trkpt lat="42.457980244324986" lon="14.127025379931595"><ele>157.75</ele><time>2026-05-03T12:07:05Z</time></trkpt><trkpt lat="42.4578969077398" lon="14.126889550461211"><ele>156.0</ele><time>2026-05-03T12:07:06Z</time></trkpt><trkpt lat="42.45782204037688" lon="14.126751216077263"><ele>156.0</ele><time>2026-05-03T12:07:07Z</time></trkpt><trkpt lat="42.45774641415048" lon="14.126599964836563"><ele>156.0</ele><time>2026-05-03T12:07:08Z</time></trkpt><trkpt lat="42.45766727238376" lon="14.126445701602382"><ele>156.0</ele><time>2026-05-03T12:07:09Z</time></trkpt><trkpt lat="42.4575874442476" lon="14.126293911423158"><ele>156.0</ele><time>2026-05-03T12:07:10Z</time></trkpt><trkpt lat="42.45750711253004" lon="14.126139362290086"><ele>158.75</ele><time>2026-05-03T12:07:11Z</time></trkpt><trkpt lat="42.457425269460956" lon="14.125988333261287"><ele>161.5</ele><time>2026-05-03T12:07:12Z</time></trkpt><trkpt lat="42.4573758056369" lon="14.12581511582645"><ele>164.25</ele><time>2026-05-03T12:07:13Z</time></trkpt><trkpt lat="42.45732551009594" lon="14.125655625765306"><ele>167.0</ele><time>2026-05-03T12:07:14Z</time></trkpt><trkpt lat="42.45728451636147" lon="14.125511921111716"><ele>167.8</ele><time>2026-05-03T12:07:15Z</time></trkpt><trkpt lat="42.45725224419469" lon="14.125373751683151"><ele>168.6</ele><time>2026-05-03T12:07:16Z</time></trkpt><trkpt lat="42.45721712218034" lon="14.12523702188059"><ele>169.4</ele><time>2026-05-03T12:07:17Z</time></trkpt><trkpt lat="42.45720776673458" lon="14.125082881986629"><ele>170.20000000000002</ele><time>2026-05-03T12:07:18Z</time></trkpt><trkpt lat="42.45720627681522" lon="14.124920905157468"><ele>171.0</ele><time>2026-05-03T12:07:19Z</time></trkpt><trkpt lat="42.45721556419376" lon="14.124749845514291"><ele>171.0</ele><time>2026-05-03T12:07:20Z</time></trkpt><trkpt lat="42.4572336754528" lon="14.124571197824803"><ele>171.0</ele><time>2026-05-03T12:07:21Z</time></trkpt><trkpt lat="42.45726146985947" lon="14.12439065066972"><ele>171.0</ele><time>2026-05-03T12:07:22Z</time></trkpt><trkpt lat="42.45729936329026" lon="14.124214721234509"><ele>171.0</ele><time>2026-05-03T12:07:23Z</time></trkpt><trkpt lat="42.45734304159838" lon="14.124043190514556"><ele>169.25</ele><time>2026-05-03T12:07:24Z</time></trkpt><trkpt lat="42.457405453355" lon="14.123886365886715"><ele>167.5</ele><time>2026-05-03T12:07:25Z</time></trkpt><trkpt lat="42.45743998280691" lon="14.123707890277013"><ele>165.75</ele><time>2026-05-03T12:07:26Z</time></trkpt><trkpt lat="42.457491108125154" lon="14.12354354197606"><ele>164.0</ele><time>2026-05-03T12:07:27Z</time></trkpt><trkpt lat="42.457542040239254" lon="14.123373915937652"><ele>163.5</ele><time>2026-05-03T12:07:28Z</time></trkpt><trkpt lat="42.4575931220562" lon="14.123201217756568"><ele>163.0</ele><time>2026-05-03T12:07:29Z</time></trkpt><trkpt lat="42.45765827624536" lon="14.123039679555214"><ele>162.5</ele><time>2026-05-03T12:07:30Z</time></trkpt><trkpt lat="42.45770812972583" lon="14.122872318386856"><ele>162.0</ele><time>2026-05-03T12:07:31Z</time></trkpt><trkpt lat="42.45775842634374" lon="14.122703469832926"><ele>162.0</ele><time>2026-05-03T12:07:32Z</time></trkpt><trkpt lat="42.457809792269266" lon="14.122539788553668"><ele>162.0</ele><time>2026-05-03T12:07:33Z</time></trkpt><trkpt lat="42.457850950279365" lon="14.122369597811728"><ele>162.0</ele><time>2026-05-03T12:07:34Z</time></trkpt><trkpt lat="42.457916378484505" lon="14.122214617799454"><ele>162.0</ele><time>2026-05-03T12:07:35Z</time></trkpt><trkpt lat="42.458004229340176" lon="14.122082762529237"><ele>161.5</ele><time>2026-05-03T12:07:36Z</time></trkpt><trkpt lat="42.45808332628958" lon="14.121938257068383"><ele>161.0</ele><time>2026-05-03T12:07:37Z</time></trkpt><trkpt lat="42.45819337662812" lon="14.121830585790676"><ele>160.5</ele><time>2026-05-03T12:07:38Z</time></trkpt><trkpt lat="42.45829031103445" lon="14.121697191489334"><ele>160.0</ele><time>2026-05-03T12:07:39Z</time></trkpt><trkpt lat="42.45840631497914" lon="14.121596437446229"><ele>160.33333333333334</ele><time>2026-05-03T12:07:40Z</time></trkpt><trkpt lat="42.45852183262565" lon="14.121469830305102"><ele>160.66666666666666</ele><time>2026-05-03T12:07:41Z</time></trkpt><trkpt lat="42.45862987248706" lon="14.121332965462171"><ele>161.0</ele><time>2026-05-03T12:07:42Z</time></trkpt><trkpt lat="42.45876089857615" lon="14.121224321632724"><ele>160.66666666666666</ele><time>2026-05-03T12:07:43Z</time></trkpt><trkpt lat="42.458881316843446" lon="14.121099715119517"><ele>160.33333333333334</ele><time>2026-05-03T12:07:44Z</time></trkpt><trkpt lat="42.45900035629983" lon="14.120969510169658"><ele>160.0</ele><time>2026-05-03T12:07:45Z</time></trkpt><trkpt lat="42.459116867584854" lon="14.120843680504787"><ele>159.75</ele><time>2026-05-03T12:07:46Z</time></trkpt><trkpt lat="42.45923113728357" lon="14.120720271701574"><ele>159.5</ele><time>2026-05-03T12:07:47Z</time></trkpt><trkpt lat="42.45933950608201" lon="14.120606235393991"><ele>159.25</ele><time>2026-05-03T12:07:48Z</time></trkpt><trkpt lat="42.45944708435983" lon="14.120498015574187"><ele>159.0</ele><time>2026-05-03T12:07:49Z</time></trkpt><trkpt lat="42.459545342688784" lon="14.120399171268753"><ele>159.2</ele><time>2026-05-03T12:07:50Z</time></trkpt><trkpt lat="42.45964190318946" lon="14.120302034985365"><ele>159.4</ele><time>2026-05-03T12:07:51Z</time></trkpt><trkpt lat="42.45972824459002" lon="14.120213316139035"><ele>159.6</ele><time>2026-05-03T12:07:52Z</time></trkpt><trkpt lat="42.459795687803165" lon="14.120120812964915"><ele>159.8</ele><time>2026-05-03T12:07:53Z</time></trkpt><trkpt lat="42.4598780786811" lon="14.120064747810243"><ele>160.0</ele><time>2026-05-03T12:07:54Z</time></trkpt><trkpt lat="42.45997333652184" lon="14.120033535016637"><ele>160.0</ele><time>2026-05-03T12:07:55Z</time></trkpt><trkpt lat="42.46008514661234" lon="14.120010394593644"><ele>160.0</ele><time>2026-05-03T12:07:56Z</time></trkpt><trkpt lat="42.46018912036353" lon="14.11999165017207"><ele>160.0</ele><time>2026-05-03T12:07:57Z</time></trkpt><trkpt lat="42.46029603663419" lon="14.119995737455577"><ele>160.0</ele><time>2026-05-03T12:07:58Z</time></trkpt><trkpt lat="42.46040428130452" lon="14.120038465488316"><ele>160.0</ele><time>2026-05-03T12:07:59Z</time></trkpt><trkpt lat="42.46051775220647" lon="14.120102026068931"><ele>160.5</ele><time>2026-05-03T12:08:00Z</time></trkpt><trkpt lat="42.460631356448324" lon="14.120157577308625"><ele>161.0</ele><time>2026-05-03T12:08:01Z</time></trkpt><trkpt lat="42.46075607681522" lon="14.12021434889683"><ele>161.5</ele><time>2026-05-03T12:08:02Z</time></trkpt><trkpt lat="42.46088258168855" lon="14.120241467058511"><ele>162.0</ele><time>2026-05-03T12:08:03Z</time></trkpt><trkpt lat="42.461014955087464" lon="14.120274591852992"><ele>162.0</ele><time>2026-05-03T12:08:04Z</time></trkpt><trkpt lat="42.46114409572092" lon="14.120312030763838"><ele>162.0</ele><time>2026-05-03T12:08:05Z</time></trkpt><trkpt lat="42.461267602415276" lon="14.120351876720283"><ele>162.0</ele><time>2026-05-03T12:08:06Z</time></trkpt><trkpt lat="42.461385878919785" lon="14.12041330573828"><ele>162.0</ele><time>2026-05-03T12:08:07Z</time></trkpt><trkpt lat="42.46149908321236" lon="14.120492134074967"><ele>163.39999999999998</ele><time>2026-05-03T12:08:08Z</time></trkpt><trkpt lat="42.46158108591803" lon="14.120572957090099"><ele>164.79999999999998</ele><time>2026-05-03T12:08:09Z</time></trkpt><trkpt lat="42.461638086426916" lon="14.120633309690945"><ele>166.2</ele><time>2026-05-03T12:08:10Z</time></trkpt><trkpt lat="42.46171257268567" lon="14.120690187601944"><ele>167.6</ele><time>2026-05-03T12:08:12Z</time></trkpt><trkpt lat="42.461800226891825" lon="14.120720206341137"><ele>169.0</ele><time>2026-05-03T12:22:11.999Z</time></trkpt><trkpt lat="42.46192580768501" lon="14.120814399377354"><ele>168.39999999999998</ele><time>2026-05-03T12:22:13.999Z</time></trkpt><trkpt lat="42.46200349131834" lon="14.120880406612761"><ele>167.8</ele><time>2026-05-03T12:22:14.999Z</time></trkpt><trkpt lat="42.46209536260437" lon="14.120953066184448"><ele>167.2</ele><time>2026-05-03T12:22:15.999Z</time></trkpt><trkpt lat="42.46218556389144" lon="14.12102341412916"><ele>166.60000000000002</ele><time>2026-05-03T12:22:16.999Z</time></trkpt><trkpt lat="42.46228745468411" lon="14.12110067338667"><ele>166.0</ele><time>2026-05-03T12:22:17.999Z</time></trkpt><trkpt lat="42.4623988685974" lon="14.121182982715254"><ele>166.0</ele><time>2026-05-03T12:22:18.999Z</time></trkpt><trkpt lat="42.462517033372784" lon="14.12126447371157"><ele>166.0</ele><time>2026-05-03T12:22:19.999Z</time></trkpt><trkpt lat="42.46263857483081" lon="14.121356025682193"><ele>166.0</ele><time>2026-05-03T12:22:20.999Z</time></trkpt><trkpt lat="42.462760856905454" lon="14.121450221661775"><ele>166.0</ele><time>2026-05-03T12:22:21.999Z</time></trkpt><trkpt lat="42.46289041652214" lon="14.121548373701378"><ele>163.25</ele><time>2026-05-03T12:22:22.999Z</time></trkpt><trkpt lat="42.463018760462916" lon="14.121634368498443"><ele>160.5</ele><time>2026-05-03T12:22:23.999Z</time></trkpt><trkpt lat="42.463149386613054" lon="14.121726355876476"><ele>157.75</ele><time>2026-05-03T12:22:24.999Z</time></trkpt><trkpt lat="42.463281486031484" lon="14.121819327312355"><ele>155.0</ele><time>2026-05-03T12:22:25.999Z</time></trkpt><trkpt lat="42.4633975998704" lon="14.12190838248385"><ele>155.0</ele><time>2026-05-03T12:22:26.999Z</time></trkpt><trkpt lat="42.46350987515447" lon="14.12199539323827"><ele>155.0</ele><time>2026-05-03T12:22:27.999Z</time></trkpt><trkpt lat="42.463614193644084" lon="14.122078849321493"><ele>155.0</ele><time>2026-05-03T12:22:28.999Z</time></trkpt><trkpt lat="42.46371529067575" lon="14.122161712979034"><ele>155.0</ele><time>2026-05-03T12:22:29.999Z</time></trkpt><trkpt lat="42.46381190143109" lon="14.122251465479847"><ele>154.0</ele><time>2026-05-03T12:22:30.999Z</time></trkpt><trkpt lat="42.463901231045966" lon="14.122359858410418"><ele>153.0</ele><time>2026-05-03T12:22:31.999Z</time></trkpt><trkpt lat="42.46398227767611" lon="14.122491879406102"><ele>152.0</ele><time>2026-05-03T12:22:32.999Z</time></trkpt><trkpt lat="42.46404842715143" lon="14.122632791553539"><ele>151.0</ele><time>2026-05-03T12:22:33.999Z</time></trkpt><trkpt lat="42.46411590900487" lon="14.122777027279437"><ele>150.5</ele><time>2026-05-03T12:22:34.999Z</time></trkpt><trkpt lat="42.46417702639371" lon="14.122923030122331"><ele>150.0</ele><time>2026-05-03T12:22:35.999Z</time></trkpt><trkpt lat="42.46424054060306" lon="14.123085907607729"><ele>149.5</ele><time>2026-05-03T12:22:36.999Z</time></trkpt><trkpt lat="42.46429080008278" lon="14.12325664116649"><ele>149.0</ele><time>2026-05-03T12:22:37.999Z</time></trkpt><trkpt lat="42.46433606270432" lon="14.123436341377069"><ele>149.0</ele><time>2026-05-03T12:22:38.999Z</time></trkpt><trkpt lat="42.4643780090322" lon="14.123622945842277"><ele>149.0</ele><time>2026-05-03T12:22:39.999Z</time></trkpt><trkpt lat="42.46442538375462" lon="14.123807865362368"><ele>149.0</ele><time>2026-05-03T12:22:40.999Z</time></trkpt><trkpt lat="42.46448711009614" lon="14.123988432126229"><ele>149.0</ele><time>2026-05-03T12:22:41.999Z</time></trkpt><trkpt lat="42.46456199853721" lon="14.124158868414787"><ele>147.0</ele><time>2026-05-03T12:22:42.999Z</time></trkpt><trkpt lat="42.46465201112382" lon="14.124308440023079"><ele>145.0</ele><time>2026-05-03T12:22:43.999Z</time></trkpt><trkpt lat="42.46476284347026" lon="14.124444901413424"><ele>143.0</ele><time>2026-05-03T12:22:44.999Z</time></trkpt><trkpt lat="42.46489090510347" lon="14.124565826243355"><ele>141.0</ele><time>2026-05-03T12:22:45.999Z</time></trkpt><trkpt lat="42.46499345382107" lon="14.124701069825646"><ele>141.0</ele><time>2026-05-03T12:22:46.999Z</time></trkpt><trkpt lat="42.46508724446106" lon="14.12485175048274"><ele>141.0</ele><time>2026-05-03T12:22:47.999Z</time></trkpt><trkpt lat="42.46516824508493" lon="14.125002080911303"><ele>141.0</ele><time>2026-05-03T12:22:48.999Z</time></trkpt><trkpt lat="42.46524502830806" lon="14.125159690059352"><ele>141.0</ele><time>2026-05-03T12:22:49.999Z</time></trkpt><trkpt lat="42.46532852332891" lon="14.125314748234048"><ele>141.5</ele><time>2026-05-03T12:22:50.999Z</time></trkpt><trkpt lat="42.46542403174743" lon="14.125466693203693"><ele>142.0</ele><time>2026-05-03T12:22:51.999Z</time></trkpt><trkpt lat="42.46552940240305" lon="14.125610036668384"><ele>142.5</ele><time>2026-05-03T12:22:52.999Z</time></trkpt><trkpt lat="42.46563640045418" lon="14.125743544684385"><ele>143.0</ele><time>2026-05-03T12:22:53.999Z</time></trkpt><trkpt lat="42.46575090509771" lon="14.12587091696998"><ele>143.0</ele><time>2026-05-03T12:22:54.999Z</time></trkpt><trkpt lat="42.46587208394427" lon="14.125986726318887"><ele>143.0</ele><time>2026-05-03T12:22:55.999Z</time></trkpt><trkpt lat="42.466004744828375" lon="14.126075574678042"><ele>143.0</ele><time>2026-05-03T12:22:56.999Z</time></trkpt><trkpt lat="42.46615101325585" lon="14.126121280180735"><ele>143.0</ele><time>2026-05-03T12:22:57.999Z</time></trkpt><trkpt lat="42.466300668977944" lon="14.126145207575819"><ele>140.75</ele><time>2026-05-03T12:22:58.999Z</time></trkpt><trkpt lat="42.466449186688365" lon="14.126160338244793"><ele>138.5</ele><time>2026-05-03T12:22:59.999Z</time></trkpt><trkpt lat="42.46658475591194" lon="14.126187723355535"><ele>136.25</ele><time>2026-05-03T12:23:00.999Z</time></trkpt><trkpt lat="42.46669620627167" lon="14.126250173052561"><ele>134.0</ele><time>2026-05-03T12:23:01.999Z</time></trkpt><trkpt lat="42.46678976200218" lon="14.126348642663931"><ele>134.0</ele><time>2026-05-03T12:23:02.999Z</time></trkpt><trkpt lat="42.46686252063116" lon="14.126490395138244"><ele>134.0</ele><time>2026-05-03T12:23:03.999Z</time></trkpt><trkpt lat="42.46693225493876" lon="14.12664651838832"><ele>134.0</ele><time>2026-05-03T12:23:04.999Z</time></trkpt><trkpt lat="42.46700329517287" lon="14.12681608732999"><ele>134.0</ele><time>2026-05-03T12:23:05.999Z</time></trkpt><trkpt lat="42.46708176211182" lon="14.126982905304262"><ele>134.33333333333331</ele><time>2026-05-03T12:23:06.999Z</time></trkpt><trkpt lat="42.46716496270184" lon="14.127154661698412"><ele>134.66666666666666</ele><time>2026-05-03T12:23:07.999Z</time></trkpt><trkpt lat="42.46724680306804" lon="14.127336788197915"><ele>135.0</ele><time>2026-05-03T12:23:08.999Z</time></trkpt><trkpt lat="42.46732322607831" lon="14.12752316306371"><ele>138.33333333333334</ele><time>2026-05-03T12:23:09.999Z</time></trkpt><trkpt lat="42.46739616725436" lon="14.127708569878152"><ele>141.66666666666669</ele><time>2026-05-03T12:23:10.999Z</time></trkpt><trkpt lat="42.467467234441806" lon="14.1278919968454"><ele>145.0</ele><time>2026-05-03T12:23:11.999Z</time></trkpt><trkpt lat="42.46753784361974" lon="14.128073055375644"><ele>145.5</ele><time>2026-05-03T12:23:12.999Z</time></trkpt><trkpt lat="42.46759989893081" lon="14.12824798855949"><ele>146.0</ele><time>2026-05-03T12:23:13.999Z</time></trkpt><trkpt lat="42.46765247456706" lon="14.128420170327807"><ele>146.5</ele><time>2026-05-03T12:23:14.999Z</time></trkpt><trkpt lat="42.467718052199515" lon="14.12856646847835"><ele>147.0</ele><time>2026-05-03T12:23:15.999Z</time></trkpt><trkpt lat="42.46779864173061" lon="14.128688080237632"><ele>147.0</ele><time>2026-05-03T12:23:16.999Z</time></trkpt><trkpt lat="42.46790254824796" lon="14.128774934106703"><ele>147.0</ele><time>2026-05-03T12:23:17.999Z</time></trkpt><trkpt lat="42.46802398086752" lon="14.128831414395707"><ele>147.0</ele><time>2026-05-03T12:23:18.999Z</time></trkpt><trkpt lat="42.46815359588062" lon="14.128869962182273"><ele>147.0</ele><time>2026-05-03T12:23:19.999Z</time></trkpt><trkpt lat="42.468284930239854" lon="14.128913455449798"><ele>147.75</ele><time>2026-05-03T12:23:20.999Z</time></trkpt><trkpt lat="42.468420368242306" lon="14.12895330687108"><ele>148.5</ele><time>2026-05-03T12:23:22Z</time></trkpt><trkpt lat="42.46856149502438" lon="14.129006692470654"><ele>149.25</ele><time>2026-05-03T12:23:23Z</time></trkpt><trkpt lat="42.468704401980126" lon="14.129048079988493"><ele>150.0</ele><time>2026-05-03T12:23:24Z</time></trkpt><trkpt lat="42.468853168056555" lon="14.12909596735261"><ele>150.0</ele><time>2026-05-03T12:23:25Z</time></trkpt><trkpt lat="42.46899813945667" lon="14.129146871866409"><ele>150.0</ele><time>2026-05-03T12:23:26Z</time></trkpt><trkpt lat="42.46913462228765" lon="14.12920248353011"><ele>150.0</ele><time>2026-05-03T12:23:27Z</time></trkpt><trkpt lat="42.46926512450203" lon="14.129272448992678"><ele>150.0</ele><time>2026-05-03T12:23:28Z</time></trkpt><trkpt lat="42.4693909177886" lon="14.129368094887212"><ele>150.0</ele><time>2026-05-03T12:23:29Z</time></trkpt><trkpt lat="42.46950856258436" lon="14.129484064151203"><ele>150.0</ele><time>2026-05-03T12:23:30Z</time></trkpt><trkpt lat="42.469626896422504" lon="14.129616242632842"><ele>150.0</ele><time>2026-05-03T12:23:31Z</time></trkpt><trkpt lat="42.46974546364262" lon="14.129749870543073"><ele>150.0</ele><time>2026-05-03T12:23:32Z</time></trkpt><trkpt lat="42.46986408208373" lon="14.129888312303802"><ele>150.0</ele><time>2026-05-03T12:23:33Z</time></trkpt><trkpt lat="42.46998446487889" lon="14.130029094464009"><ele>150.0</ele><time>2026-05-03T12:23:34Z</time></trkpt><trkpt lat="42.470102376090125" lon="14.130168958966332"><ele>150.0</ele><time>2026-05-03T12:23:35Z</time></trkpt><trkpt lat="42.4702209559062" lon="14.130312033466184"><ele>150.0</ele><time>2026-05-03T12:23:36Z</time></trkpt><trkpt lat="42.47033631427013" lon="14.13045542737511"><ele>150.0</ele><time>2026-05-03T12:23:37Z</time></trkpt><trkpt lat="42.47045281941273" lon="14.13060216942459"><ele>148.0</ele><time>2026-05-03T12:23:38Z</time></trkpt><trkpt lat="42.470572723122785" lon="14.130753788209669"><ele>146.0</ele><time>2026-05-03T12:23:39Z</time></trkpt><trkpt lat="42.470693622178146" lon="14.130900073023113"><ele>144.0</ele><time>2026-05-03T12:23:39.999Z</time></trkpt><trkpt lat="42.47081695138835" lon="14.131051013700008"><ele>144.0</ele><time>2026-05-03T12:23:40.999Z</time></trkpt><trkpt lat="42.47093962500941" lon="14.131200285004693"><ele>144.0</ele><time>2026-05-03T12:23:41.999Z</time></trkpt><trkpt lat="42.471057645714055" lon="14.131350812317715"><ele>144.0</ele><time>2026-05-03T12:23:42.999Z</time></trkpt><trkpt lat="42.471173171757684" lon="14.131490688427753"><ele>143.5</ele><time>2026-05-03T12:23:43.999Z</time></trkpt><trkpt lat="42.47128085256081" lon="14.131630342448553"><ele>143.0</ele><time>2026-05-03T12:23:44.999Z</time></trkpt><trkpt lat="42.47138566765177" lon="14.13176962248087"><ele>142.5</ele><time>2026-05-03T12:23:45.999Z</time></trkpt><trkpt lat="42.471470896376445" lon="14.131908465462914"><ele>142.0</ele><time>2026-05-03T12:23:46.999Z</time></trkpt><trkpt lat="42.47153592359621" lon="14.132065595158318"><ele>142.0</ele><time>2026-05-03T12:23:47.999Z</time></trkpt><trkpt lat="42.471530000627496" lon="14.132257023938594"><ele>142.0</ele><time>2026-05-03T12:23:48.999Z</time></trkpt><trkpt lat="42.471536190550616" lon="14.1324541956752"><ele>142.0</ele><time>2026-05-03T12:23:49.999Z</time></trkpt><trkpt lat="42.47155203579238" lon="14.132647597007503"><ele>142.0</ele><time>2026-05-03T12:23:50.999Z</time></trkpt><trkpt lat="42.471563789768695" lon="14.132846799855"><ele>143.5</ele><time>2026-05-03T12:23:51.999Z</time></trkpt><trkpt lat="42.47160441626425" lon="14.1330298547264"><ele>145.0</ele><time>2026-05-03T12:23:52.999Z</time></trkpt><trkpt lat="42.47168325171626" lon="14.133166211622024"><ele>146.5</ele><time>2026-05-03T12:23:53.999Z</time></trkpt><trkpt lat="42.47175787156175" lon="14.133303666075552"><ele>148.0</ele><time>2026-05-03T12:23:54.999Z</time></trkpt><trkpt lat="42.47188178788986" lon="14.133358244589619"><ele>148.0</ele><time>2026-05-03T12:23:55.999Z</time></trkpt><trkpt lat="42.47199706519105" lon="14.133422265187532"><ele>148.0</ele><time>2026-05-03T12:23:56.999Z</time></trkpt><trkpt lat="42.47212978353367" lon="14.133410302986634"><ele>148.0</ele><time>2026-05-03T12:23:57.999Z</time></trkpt><trkpt lat="42.472264370066426" lon="14.133389679828499"><ele>148.0</ele><time>2026-05-03T12:23:58.999Z</time></trkpt><trkpt lat="42.47239376890173" lon="14.133381577586874"><ele>150.5</ele><time>2026-05-03T12:23:59.999Z</time></trkpt><trkpt lat="42.472501484589124" lon="14.133413772067414"><ele>153.0</ele><time>2026-05-03T12:24:00.999Z</time></trkpt><trkpt lat="42.47260403567533" lon="14.133495992241308"><ele>155.5</ele><time>2026-05-03T12:24:01.999Z</time></trkpt><trkpt lat="42.47268136078054" lon="14.133631449677926"><ele>158.0</ele><time>2026-05-03T12:24:02.999Z</time></trkpt><trkpt lat="42.47278426594241" lon="14.133741669840509"><ele>158.0</ele><time>2026-05-03T12:24:03.999Z</time></trkpt><trkpt lat="42.472880736961535" lon="14.133856384926629"><ele>158.0</ele><time>2026-05-03T12:24:04.999Z</time></trkpt><trkpt lat="42.47299797241807" lon="14.133948331118853"><ele>158.0</ele><time>2026-05-03T12:24:05.999Z</time></trkpt><trkpt lat="42.47312514112892" lon="14.13401464239434"><ele>158.0</ele><time>2026-05-03T12:24:06.999Z</time></trkpt><trkpt lat="42.473246095337366" lon="14.134114901076712"><ele>160.0</ele><time>2026-05-03T12:24:07.999Z</time></trkpt><trkpt lat="42.473359251178195" lon="14.134227473662035"><ele>162.0</ele><time>2026-05-03T12:24:08.999Z</time></trkpt><trkpt lat="42.47346401700321" lon="14.134363958291553"><ele>164.0</ele><time>2026-05-03T12:24:09.999Z</time></trkpt><trkpt lat="42.47352468480545" lon="14.134526038172682"><ele>166.0</ele><time>2026-05-03T12:24:10.999Z</time></trkpt><trkpt lat="42.473564174735344" lon="14.134682072114058"><ele>166.0</ele><time>2026-05-03T12:24:11.999Z</time></trkpt><trkpt lat="42.47358963484483" lon="14.134842863723637"><ele>166.0</ele><time>2026-05-03T12:24:12.999Z</time></trkpt><trkpt lat="42.47361966846179" lon="14.135022680673625"><ele>166.0</ele><time>2026-05-03T12:24:13.999Z</time></trkpt><trkpt lat="42.473661227211316" lon="14.135200776462234"><ele>166.0</ele><time>2026-05-03T12:24:14.999Z</time></trkpt><trkpt lat="42.47370333280016" lon="14.135352246235946"><ele>164.0</ele><time>2026-05-03T12:24:15.999Z</time></trkpt><trkpt lat="42.47376471467952" lon="14.135473671020941"><ele>162.0</ele><time>2026-05-03T12:24:16.999Z</time></trkpt><trkpt lat="42.47387256017713" lon="14.135550849951782"><ele>160.0</ele><time>2026-05-03T12:24:17.999Z</time></trkpt><trkpt lat="42.474000486331796" lon="14.135610209121591"><ele>158.0</ele><time>2026-05-03T12:24:18.999Z</time></trkpt><trkpt lat="42.474134348840856" lon="14.135642815022955"><ele>160.0</ele><time>2026-05-03T12:24:19.999Z</time></trkpt><trkpt lat="42.47426895381348" lon="14.135697113236086"><ele>162.0</ele><time>2026-05-03T12:24:20.999Z</time></trkpt><trkpt lat="42.474393133916585" lon="14.13578262941695"><ele>164.0</ele><time>2026-05-03T12:24:21.999Z</time></trkpt><trkpt lat="42.474494282741716" lon="14.13588612652931"><ele>166.0</ele><time>2026-05-03T12:24:22.999Z</time></trkpt><trkpt lat="42.474594599584115" lon="14.136001150470165"><ele>170.25</ele><time>2026-05-03T12:24:23.999Z</time></trkpt><trkpt lat="42.47470413371676" lon="14.13610031453183"><ele>174.5</ele><time>2026-05-03T12:24:24.999Z</time></trkpt><trkpt lat="42.47482943214217" lon="14.136163303426649"><ele>178.75</ele><time>2026-05-03T12:24:25.999Z</time></trkpt><trkpt lat="42.4749655271307" lon="14.136200585685902"><ele>183.0</ele><time>2026-05-03T12:24:26.999Z</time></trkpt><trkpt lat="42.47509319494662" lon="14.136238987438938"><ele>183.0</ele><time>2026-05-03T12:24:27.999Z</time></trkpt><trkpt lat="42.475200698514705" lon="14.13629759807918"><ele>183.0</ele><time>2026-05-03T12:24:28.999Z</time></trkpt><trkpt lat="42.47525790875159" lon="14.136435945856293"><ele>183.0</ele><time>2026-05-03T12:24:29.999Z</time></trkpt><trkpt lat="42.47534380872232" lon="14.136558098811639"><ele>183.0</ele><time>2026-05-03T12:24:30.999Z</time></trkpt><trkpt lat="42.47542352574236" lon="14.136704936495065"><ele>183.0</ele><time>2026-05-03T12:24:31.999Z</time></trkpt><trkpt lat="42.475537612538204" lon="14.136817273497522"><ele>183.0</ele><time>2026-05-03T12:24:32.999Z</time></trkpt><trkpt lat="42.4756778200398" lon="14.136905762809262"><ele>183.0</ele><time>2026-05-03T12:24:33.999Z</time></trkpt><trkpt lat="42.475826135834104" lon="14.136993156514032"><ele>183.0</ele><time>2026-05-03T12:24:34.999Z</time></trkpt><trkpt lat="42.47597365886028" lon="14.137087209585122"><ele>183.0</ele><time>2026-05-03T12:24:35.999Z</time></trkpt><trkpt lat="42.47612391884275" lon="14.137179964808002"><ele>183.0</ele><time>2026-05-03T12:24:36.999Z</time></trkpt><trkpt lat="42.476277774649354" lon="14.137266683281268"><ele>182.0</ele><time>2026-05-03T12:24:37.999Z</time></trkpt><trkpt lat="42.47642386634954" lon="14.13733970527964"><ele>181.0</ele><time>2026-05-03T12:24:38.999Z</time></trkpt><trkpt lat="42.47656985148869" lon="14.137404341275642"><ele>180.0</ele><time>2026-05-03T12:24:39.999Z</time></trkpt><trkpt lat="42.476705680711184" lon="14.137446288269308"><ele>179.0</ele><time>2026-05-03T12:24:40.999Z</time></trkpt><trkpt lat="42.476842559192086" lon="14.137468925939412"><ele>179.0</ele><time>2026-05-03T12:24:41.999Z</time></trkpt><trkpt lat="42.47697404549878" lon="14.137481561397104"><ele>179.0</ele><time>2026-05-03T12:24:42.999Z</time></trkpt><trkpt lat="42.47710278448028" lon="14.137485888063722"><ele>179.0</ele><time>2026-05-03T12:24:43.999Z</time></trkpt><trkpt lat="42.47723985883049" lon="14.137481779327311"><ele>179.0</ele><time>2026-05-03T12:24:44.999Z</time></trkpt><trkpt lat="42.47738004249679" lon="14.137464820434143"><ele>179.75</ele><time>2026-05-03T12:24:45.999Z</time></trkpt><trkpt lat="42.477521929179794" lon="14.13742466479318"><ele>180.5</ele><time>2026-05-03T12:24:46.999Z</time></trkpt><trkpt lat="42.47766552687443" lon="14.137364275902543"><ele>181.25</ele><time>2026-05-03T12:24:47.999Z</time></trkpt><trkpt lat="42.47780699371442" lon="14.13729197012827"><ele>182.0</ele><time>2026-05-03T12:24:48.999Z</time></trkpt><trkpt lat="42.47794379181093" lon="14.137233540842265"><ele>178.5</ele><time>2026-05-03T12:24:49.999Z</time></trkpt><trkpt lat="42.47807835884443" lon="14.137185200146222"><ele>175.0</ele><time>2026-05-03T12:24:50.999Z</time></trkpt><trkpt lat="42.478203648052" lon="14.137189784572929"><ele>171.5</ele><time>2026-05-03T12:24:51.999Z</time></trkpt><trkpt lat="42.47831877060823" lon="14.137203391011841"><ele>168.0</ele><time>2026-05-03T12:24:52.999Z</time></trkpt><trkpt lat="42.47843412131372" lon="14.137251217854205"><ele>168.0</ele><time>2026-05-03T12:24:53.999Z</time></trkpt><trkpt lat="42.47855142828083" lon="14.137304354053835"><ele>168.0</ele><time>2026-05-03T12:24:54.999Z</time></trkpt><trkpt lat="42.47867296600006" lon="14.137331235758058"><ele>168.0</ele><time>2026-05-03T12:24:55.999Z</time></trkpt><trkpt lat="42.478802501417846" lon="14.137304272266444"><ele>168.0</ele><time>2026-05-03T12:24:56.999Z</time></trkpt><trkpt lat="42.4789335523209" lon="14.13723853877224"><ele>167.75</ele><time>2026-05-03T12:24:57.999Z</time></trkpt><trkpt lat="42.47906741990191" lon="14.137164181270936"><ele>167.5</ele><time>2026-05-03T12:24:58.999Z</time></trkpt><trkpt lat="42.47919147404657" lon="14.137077883740698"><ele>167.25</ele><time>2026-05-03T12:24:59.999Z</time></trkpt><trkpt lat="42.479295097308345" lon="14.136961992773445"><ele>167.0</ele><time>2026-05-03T12:25:00.999Z</time></trkpt><trkpt lat="42.479385313976444" lon="14.136817459906242"><ele>167.0</ele><time>2026-05-03T12:25:01.999Z</time></trkpt><trkpt lat="42.479457331045055" lon="14.136655609670624"><ele>167.0</ele><time>2026-05-03T12:25:02.999Z</time></trkpt><trkpt lat="42.47952124504896" lon="14.136510819643382"><ele>167.0</ele><time>2026-05-03T12:25:03.999Z</time></trkpt><trkpt lat="42.4796063393735" lon="14.136394301559951"><ele>167.0</ele><time>2026-05-03T12:25:04.999Z</time></trkpt><trkpt lat="42.47969883287781" lon="14.136287314093707"><ele>166.5</ele><time>2026-05-03T12:25:05.999Z</time></trkpt><trkpt lat="42.479785513263536" lon="14.13617110136214"><ele>166.0</ele><time>2026-05-03T12:25:06.999Z</time></trkpt><trkpt lat="42.47985458474607" lon="14.136041435583229"><ele>165.5</ele><time>2026-05-03T12:25:07.998Z</time></trkpt><trkpt lat="42.479930219242455" lon="14.135894141067991"><ele>165.0</ele><time>2026-05-03T12:25:08.998Z</time></trkpt><trkpt lat="42.47997353100013" lon="14.135716974911077"><ele>163.0</ele><time>2026-05-03T12:25:09.998Z</time></trkpt><trkpt lat="42.4800052129724" lon="14.135539420680661"><ele>161.0</ele><time>2026-05-03T12:25:10.998Z</time></trkpt><trkpt lat="42.48005803919091" lon="14.13537806361892"><ele>159.0</ele><time>2026-05-03T12:25:11.998Z</time></trkpt><trkpt lat="42.48012078119193" lon="14.135231790745811"><ele>157.0</ele><time>2026-05-03T12:25:12.998Z</time></trkpt><trkpt lat="42.480201484339574" lon="14.135112172654509"><ele>157.0</ele><time>2026-05-03T12:25:13.998Z</time></trkpt><trkpt lat="42.480296931735495" lon="14.135011608885701"><ele>157.0</ele><time>2026-05-03T12:25:14.998Z</time></trkpt><trkpt lat="42.48039864241366" lon="14.134926686893808"><ele>157.0</ele><time>2026-05-03T12:25:15.998Z</time></trkpt><trkpt lat="42.48050845812158" lon="14.134842142993799"><ele>157.0</ele><time>2026-05-03T12:25:16.998Z</time></trkpt><trkpt lat="42.48061972834591" lon="14.134784060252489"><ele>157.2</ele><time>2026-05-03T12:25:17.998Z</time></trkpt><trkpt lat="42.48072866203219" lon="14.134773702148443"><ele>157.39999999999998</ele><time>2026-05-03T12:25:18.998Z</time></trkpt><trkpt lat="42.48082293059814" lon="14.134813143422203"><ele>157.60000000000002</ele><time>2026-05-03T12:25:19.998Z</time></trkpt><trkpt lat="42.48090640560056" lon="14.134909194005079"><ele>157.8</ele><time>2026-05-03T12:25:20.998Z</time></trkpt><trkpt lat="42.4809985749772" lon="14.135014420216672"><ele>158.0</ele><time>2026-05-03T12:25:21.998Z</time></trkpt><trkpt lat="42.48107127105866" lon="14.135138997769122"><ele>158.0</ele><time>2026-05-03T12:25:22.998Z</time></trkpt><trkpt lat="42.48112790337659" lon="14.135290203862755"><ele>158.0</ele><time>2026-05-03T12:25:23.998Z</time></trkpt><trkpt lat="42.481191634375215" lon="14.13543643646137"><ele>158.0</ele><time>2026-05-03T12:25:24.998Z</time></trkpt><trkpt lat="42.481238073255895" lon="14.135604172641942"><ele>158.0</ele><time>2026-05-03T12:25:25.998Z</time></trkpt><trkpt lat="42.48129416676437" lon="14.135780269307395"><ele>155.25</ele><time>2026-05-03T12:25:26.998Z</time></trkpt><trkpt lat="42.481353509564784" lon="14.135958651449052"><ele>152.5</ele><time>2026-05-03T12:25:27.999Z</time></trkpt><trkpt lat="42.48141351542129" lon="14.136145846849905"><ele>149.75</ele><time>2026-05-03T12:25:28.999Z</time></trkpt><trkpt lat="42.481469882334686" lon="14.136313493485622"><ele>147.0</ele><time>2026-05-03T12:25:29.999Z</time></trkpt><trkpt lat="42.481535098058735" lon="14.136462847399205"><ele>147.0</ele><time>2026-05-03T12:25:30.999Z</time></trkpt><trkpt lat="42.481640436518596" lon="14.136538992967294"><ele>147.0</ele><time>2026-05-03T12:25:31.999Z</time></trkpt><trkpt lat="42.481753944062724" lon="14.136589292758527"><ele>147.0</ele><time>2026-05-03T12:25:32.999Z</time></trkpt><trkpt lat="42.48187061972113" lon="14.136564861343437"><ele>147.0</ele><time>2026-05-03T12:25:33.999Z</time></trkpt><trkpt lat="42.48198522687521" lon="14.136497880204736"><ele>147.0</ele><time>2026-05-03T12:25:34.999Z</time></trkpt><trkpt lat="42.482078346294045" lon="14.13637896822535"><ele>147.0</ele><time>2026-05-03T12:25:35.999Z</time></trkpt><trkpt lat="42.48213769250298" lon="14.136224898146892"><ele>147.0</ele><time>2026-05-03T12:25:36.999Z</time></trkpt><trkpt lat="42.48216895338285" lon="14.136043650159223"><ele>147.0</ele><time>2026-05-03T12:25:37.999Z</time></trkpt><trkpt lat="42.48219650153722" lon="14.135856181978177"><ele>145.0</ele><time>2026-05-03T12:25:38.999Z</time></trkpt><trkpt lat="42.48223897076227" lon="14.135666691320473"><ele>143.0</ele><time>2026-05-03T12:25:39.999Z</time></trkpt><trkpt lat="42.482275760388674" lon="14.135470776465668"><ele>141.0</ele><time>2026-05-03T12:25:40.999Z</time></trkpt><trkpt lat="42.48231855217631" lon="14.135269903762559"><ele>139.0</ele><time>2026-05-03T12:25:41.999Z</time></trkpt><trkpt lat="42.48236325779136" lon="14.135070286383929"><ele>138.33333333333334</ele><time>2026-05-03T12:25:42.999Z</time></trkpt><trkpt lat="42.482408940206135" lon="14.134862152217497"><ele>137.66666666666666</ele><time>2026-05-03T12:25:43.999Z</time></trkpt><trkpt lat="42.48244914911866" lon="14.134665966930392"><ele>137.0</ele><time>2026-05-03T12:25:44.999Z</time></trkpt><trkpt lat="42.4825043646327" lon="14.13447807784311"><ele>137.0</ele><time>2026-05-03T12:25:45.999Z</time></trkpt><trkpt lat="42.48254395047682" lon="14.134294172659038"><ele>137.0</ele><time>2026-05-03T12:25:46.999Z</time></trkpt><trkpt lat="42.482567409911816" lon="14.134114834660645"><ele>137.0</ele><time>2026-05-03T12:25:47.999Z</time></trkpt><trkpt lat="42.4826204824448" lon="14.13394879340282"><ele>137.0</ele><time>2026-05-03T12:25:48.999Z</time></trkpt><trkpt lat="42.48265213560189" lon="14.133784571465537"><ele>136.0</ele><time>2026-05-03T12:25:49.999Z</time></trkpt><trkpt lat="42.482693281480614" lon="14.133631779765569"><ele>135.0</ele><time>2026-05-03T12:25:50.999Z</time></trkpt><trkpt lat="42.482743809131286" lon="14.133482925607717"><ele>134.0</ele><time>2026-05-03T12:25:51.999Z</time></trkpt><trkpt lat="42.48281096844103" lon="14.133351315247356"><ele>133.0</ele><time>2026-05-03T12:25:52.999Z</time></trkpt><trkpt lat="42.48290298375939" lon="14.13327252831899"><ele>132.0</ele><time>2026-05-03T12:25:53.999Z</time></trkpt><trkpt lat="42.48300367277544" lon="14.13321740770228"><ele>131.0</ele><time>2026-05-03T12:25:54.999Z</time></trkpt><trkpt lat="42.48312965192233" lon="14.133156237981582"><ele>130.0</ele><time>2026-05-03T12:25:55.999Z</time></trkpt><trkpt lat="42.48326350782784" lon="14.133092599873034"><ele>129.0</ele><time>2026-05-03T12:25:56.999Z</time></trkpt><trkpt lat="42.483406858303624" lon="14.13302132224702"><ele>129.0</ele><time>2026-05-03T12:25:57.999Z</time></trkpt><trkpt lat="42.48354967823632" lon="14.13293383127224"><ele>129.0</ele><time>2026-05-03T12:25:58.999Z</time></trkpt><trkpt lat="42.48369919476179" lon="14.13286035712824"><ele>129.0</ele><time>2026-05-03T12:25:59.999Z</time></trkpt><trkpt lat="42.48385220623592" lon="14.132783726566831"><ele>127.66666666666666</ele><time>2026-05-03T12:26:00.999Z</time></trkpt><trkpt lat="42.48400311767988" lon="14.132713327888219"><ele>126.33333333333333</ele><time>2026-05-03T12:26:01.999Z</time></trkpt><trkpt lat="42.48415426740408" lon="14.132645816922558"><ele>125.0</ele><time>2026-05-03T12:26:02.999Z</time></trkpt><trkpt lat="42.484302300817994" lon="14.132572997776057"><ele>125.0</ele><time>2026-05-03T12:26:03.999Z</time></trkpt><trkpt lat="42.48444881244357" lon="14.13250249460796"><ele>125.0</ele><time>2026-05-03T12:26:04.999Z</time></trkpt><trkpt lat="42.48459239762949" lon="14.132427699238688"><ele>125.0</ele><time>2026-05-03T12:26:05.999Z</time></trkpt><trkpt lat="42.48473600254372" lon="14.132382654977484"><ele>123.5</ele><time>2026-05-03T12:26:06.999Z</time></trkpt><trkpt lat="42.48486109898753" lon="14.132312808552667"><ele>122.0</ele><time>2026-05-03T12:26:07.999Z</time></trkpt><trkpt lat="42.484983962741865" lon="14.13228195941632"><ele>120.5</ele><time>2026-05-03T12:26:08.999Z</time></trkpt><trkpt lat="42.485105090843405" lon="14.132313925690552"><ele>119.0</ele><time>2026-05-03T12:26:09.999Z</time></trkpt><trkpt lat="42.48522618940231" lon="14.132356069267896"><ele>119.25</ele><time>2026-05-03T12:26:10.999Z</time></trkpt><trkpt lat="42.485340288846196" lon="14.132435822753264"><ele>119.5</ele><time>2026-05-03T12:26:11.999Z</time></trkpt><trkpt lat="42.48544650299077" lon="14.13255279998757"><ele>119.75</ele><time>2026-05-03T12:26:12.999Z</time></trkpt><trkpt lat="42.48555934924041" lon="14.132665872099677"><ele>120.0</ele><time>2026-05-03T12:26:13.999Z</time></trkpt><trkpt lat="42.485660785128545" lon="14.13280193933703"><ele>119.5</ele><time>2026-05-03T12:26:14.999Z</time></trkpt><trkpt lat="42.48576782537525" lon="14.132938715821235"><ele>119.0</ele><time>2026-05-03T12:26:15.999Z</time></trkpt><trkpt lat="42.485884177932014" lon="14.133069841159253"><ele>118.5</ele><time>2026-05-03T12:26:16.999Z</time></trkpt><trkpt lat="42.485998743741426" lon="14.133199398492891"><ele>118.0</ele><time>2026-05-03T12:26:17.999Z</time></trkpt><trkpt lat="42.48611066302213" lon="14.133335047348755"><ele>117.75</ele><time>2026-05-03T12:26:18.999Z</time></trkpt><trkpt lat="42.48621691853868" lon="14.133468655812209"><ele>117.5</ele><time>2026-05-03T12:26:19.999Z</time></trkpt><trkpt lat="42.48631957030438" lon="14.13359071906779"><ele>117.25</ele><time>2026-05-03T12:26:20.999Z</time></trkpt><trkpt lat="42.486415345255665" lon="14.133703667456983"><ele>117.0</ele><time>2026-05-03T12:26:21.999Z</time></trkpt><trkpt lat="42.48650833068524" lon="14.133816125815844"><ele>117.0</ele><time>2026-05-03T12:26:22.999Z</time></trkpt><trkpt lat="42.486589287152675" lon="14.133926173627847"><ele>117.0</ele><time>2026-05-03T12:26:23.999Z</time></trkpt><trkpt lat="42.4866504320786" lon="14.134052414513553"><ele>117.0</ele><time>2026-05-03T12:26:24.999Z</time></trkpt><trkpt lat="42.48666431203771" lon="14.134210575701873"><ele>117.0</ele><time>2026-05-03T12:26:25.999Z</time></trkpt><trkpt lat="42.486695989978614" lon="14.134376785447405"><ele>117.0</ele><time>2026-05-03T12:26:26.999Z</time></trkpt><trkpt lat="42.48673525912905" lon="14.13454657166736"><ele>117.0</ele><time>2026-05-03T12:26:27.999Z</time></trkpt><trkpt lat="42.48676330877738" lon="14.134730122689332"><ele>117.0</ele><time>2026-05-03T12:26:28.999Z</time></trkpt><trkpt lat="42.48679610205157" lon="14.134924034085254"><ele>117.0</ele><time>2026-05-03T12:26:29.999Z</time></trkpt><trkpt lat="42.48682975605748" lon="14.1351190913482"><ele>117.0</ele><time>2026-05-03T12:26:30.999Z</time></trkpt><trkpt lat="42.486865336072135" lon="14.135320106859742"><ele>117.0</ele><time>2026-05-03T12:26:31.999Z</time></trkpt><trkpt lat="42.48690162718718" lon="14.135515959182591"><ele>117.0</ele><time>2026-05-03T12:26:32.999Z</time></trkpt><trkpt lat="42.486942643088966" lon="14.135710388522266"><ele>116.75</ele><time>2026-05-03T12:26:33.999Z</time></trkpt><trkpt lat="42.48698594627581" lon="14.13590732771803"><ele>116.5</ele><time>2026-05-03T12:26:34.999Z</time></trkpt><trkpt lat="42.48704736331651" lon="14.136087250381264"><ele>116.25</ele><time>2026-05-03T12:26:35.999Z</time></trkpt><trkpt lat="42.487115493618404" lon="14.136264771283738"><ele>116.0</ele><time>2026-05-03T12:26:36.999Z</time></trkpt><trkpt lat="42.48719041151486" lon="14.136441773676859"><ele>118.0</ele><time>2026-05-03T12:26:37.999Z</time></trkpt><trkpt lat="42.48726258704718" lon="14.136619233874733"><ele>120.0</ele><time>2026-05-03T12:26:38.999Z</time></trkpt><trkpt lat="42.48733050384115" lon="14.136794430990811"><ele>122.0</ele><time>2026-05-03T12:26:39.999Z</time></trkpt><trkpt lat="42.48738744642598" lon="14.136961051931847"><ele>124.0</ele><time>2026-05-03T12:26:40.999Z</time></trkpt><trkpt lat="42.487442316157285" lon="14.137114189989571"><ele>124.0</ele><time>2026-05-03T12:26:41.999Z</time></trkpt><trkpt lat="42.48749802870298" lon="14.137274923871924"><ele>124.0</ele><time>2026-05-03T12:26:42.999Z</time></trkpt><trkpt lat="42.48754736604118" lon="14.137433750029244"><ele>124.0</ele><time>2026-05-03T12:26:43.999Z</time></trkpt><trkpt lat="42.487591623311495" lon="14.13758687935963"><ele>124.0</ele><time>2026-05-03T12:26:44.999Z</time></trkpt><trkpt lat="42.487633617711865" lon="14.137741296729896"><ele>124.0</ele><time>2026-05-03T12:26:45.999Z</time></trkpt><trkpt lat="42.487635617531254" lon="14.1379156504218"><ele>124.0</ele><time>2026-05-03T12:26:46.999Z</time></trkpt><trkpt lat="42.48764744659469" lon="14.138083718988268"><ele>124.0</ele><time>2026-05-03T12:26:47.999Z</time></trkpt><trkpt lat="42.48763003197102" lon="14.138244685423905"><ele>124.0</ele><time>2026-05-03T12:26:48.999Z</time></trkpt><trkpt lat="42.487625272613144" lon="14.13840650362427"><ele>124.25</ele><time>2026-05-03T12:26:49.999Z</time></trkpt><trkpt lat="42.48763396108514" lon="14.138567319475023"><ele>124.5</ele><time>2026-05-03T12:26:50.998Z</time></trkpt><trkpt lat="42.48766427623439" lon="14.138728754978855"><ele>124.75</ele><time>2026-05-03T12:26:51.998Z</time></trkpt><trkpt lat="42.487720016009625" lon="14.138879810819114"><ele>125.0</ele><time>2026-05-03T12:26:52.998Z</time></trkpt><trkpt lat="42.48779478595539" lon="14.139026518242433"><ele>125.25</ele><time>2026-05-03T12:26:53.998Z</time></trkpt><trkpt lat="42.48788567352646" lon="14.139152290597892"><ele>125.5</ele><time>2026-05-03T12:26:54.998Z</time></trkpt><trkpt lat="42.48799484815549" lon="14.139254263400442"><ele>125.75</ele><time>2026-05-03T12:26:55.998Z</time></trkpt><trkpt lat="42.488119435632164" lon="14.139322663947082"><ele>126.0</ele><time>2026-05-03T12:26:56.998Z</time></trkpt><trkpt lat="42.488251797397986" lon="14.139355394945033"><ele>128.0</ele><time>2026-05-03T12:26:57.998Z</time></trkpt><trkpt lat="42.488386092828335" lon="14.139369256467631"><ele>130.0</ele><time>2026-05-03T12:26:58.998Z</time></trkpt><trkpt lat="42.48851806377563" lon="14.139367953533165"><ele>132.0</ele><time>2026-05-03T12:26:59.998Z</time></trkpt><trkpt lat="42.48864027339478" lon="14.139369734352586"><ele>134.0</ele><time>2026-05-03T12:27:00.998Z</time></trkpt><trkpt lat="42.488753979782025" lon="14.139377757863139"><ele>134.6</ele><time>2026-05-03T12:27:01.998Z</time></trkpt><trkpt lat="42.488859290676736" lon="14.139394207227342"><ele>135.2</ele><time>2026-05-03T12:27:02.998Z</time></trkpt><trkpt lat="42.48895645208687" lon="14.139418779863334"><ele>135.79999999999998</ele><time>2026-05-03T12:27:03.998Z</time></trkpt><trkpt lat="42.48904307649135" lon="14.139454904341358"><ele>136.4</ele><time>2026-05-03T12:27:04.998Z</time></trkpt><trkpt lat="42.48911375782709" lon="14.139522901110332"><ele>137.0</ele><time>2026-05-03T12:27:05.998Z</time></trkpt><trkpt lat="42.48917279251579" lon="14.13958793629038"><ele>137.0</ele><time>2026-05-03T12:27:06.998Z</time></trkpt><trkpt lat="42.4892374017521" lon="14.13963198750224"><ele>137.0</ele><time>2026-05-03T12:27:07.998Z</time></trkpt><trkpt lat="42.48931559048243" lon="14.139633698076896"><ele>137.0</ele><time>2026-05-03T12:27:08.998Z</time></trkpt><trkpt lat="42.48939433126829" lon="14.13958134351836"><ele>137.0</ele><time>2026-05-03T12:27:09.998Z</time></trkpt><trkpt lat="42.489466580182196" lon="14.139496967428327"><ele>137.0</ele><time>2026-05-03T12:27:10.998Z</time></trkpt><trkpt lat="42.489554321924636" lon="14.13943288574157"><ele>137.0</ele><time>2026-05-03T12:27:11.998Z</time></trkpt><trkpt lat="42.4896548126831" lon="14.139428404380615"><ele>138.0</ele><time>2026-05-03T12:27:12.998Z</time></trkpt><trkpt lat="42.48976597552601" lon="14.139441988838973"><ele>139.0</ele><time>2026-05-03T12:27:13.998Z</time></trkpt><trkpt lat="42.48989189925809" lon="14.139460838480842"><ele>140.0</ele><time>2026-05-03T12:27:14.998Z</time></trkpt><trkpt lat="42.49001341042238" lon="14.13946297773109"><ele>141.0</ele><time>2026-05-03T12:27:15.998Z</time></trkpt><trkpt lat="42.49013770491179" lon="14.139474660320335"><ele>141.0</ele><time>2026-05-03T12:27:16.998Z</time></trkpt><trkpt lat="42.490274476946674" lon="14.139477470050423"><ele>141.0</ele><time>2026-05-03T12:27:17.998Z</time></trkpt><trkpt lat="42.49041082651355" lon="14.139484258193809"><ele>141.0</ele><time>2026-05-03T12:27:18.998Z</time></trkpt><trkpt lat="42.490540545541904" lon="14.139498033003257"><ele>141.0</ele><time>2026-05-03T12:27:19.998Z</time></trkpt><trkpt lat="42.49064968098255" lon="14.139504611550683"><ele>142.66666666666666</ele><time>2026-05-03T12:27:20.998Z</time></trkpt><trkpt lat="42.490736072086804" lon="14.1395218473622"><ele>144.33333333333334</ele><time>2026-05-03T12:27:21.998Z</time></trkpt><trkpt lat="42.490809541602154" lon="14.139568322045648"><ele>146.0</ele><time>2026-05-03T12:27:22.998Z</time></trkpt><trkpt lat="42.490856992871706" lon="14.139640753605782"><ele>147.66666666666669</ele><time>2026-05-03T12:27:23.998Z</time></trkpt><trkpt lat="42.490878189878636" lon="14.139749655448025"><ele>149.33333333333334</ele><time>2026-05-03T12:27:24.998Z</time></trkpt><trkpt lat="42.49087781322251" lon="14.139872500600433"><ele>151.0</ele><time>2026-05-03T12:27:25.998Z</time></trkpt><trkpt lat="42.49086415973844" lon="14.139996999574898"><ele>151.8</ele><time>2026-05-03T12:27:26.998Z</time></trkpt><trkpt lat="42.4908588322735" lon="14.140132909040869"><ele>152.6</ele><time>2026-05-03T12:27:27.998Z</time></trkpt><trkpt lat="42.490858958945815" lon="14.140276453239139"><ele>153.4</ele><time>2026-05-03T12:27:28.998Z</time></trkpt><trkpt lat="42.49086258513408" lon="14.140431775081382"><ele>154.2</ele><time>2026-05-03T12:27:29.998Z</time></trkpt><trkpt lat="42.49086677056438" lon="14.140572661694607"><ele>155.0</ele><time>2026-05-03T12:27:30.998Z</time></trkpt><trkpt lat="42.49087211175936" lon="14.140704282028212"><ele>155.0</ele><time>2026-05-03T12:27:31.998Z</time></trkpt><trkpt lat="42.4908882199557" lon="14.140803399779688"><ele>155.0</ele><time>2026-05-03T12:27:32.998Z</time></trkpt><trkpt lat="42.49093001837916" lon="14.14087744351343"><ele>155.0</ele><time>2026-05-03T12:27:33.998Z</time></trkpt><trkpt lat="42.49099583496168" lon="14.140906245969997"><ele>155.0</ele><time>2026-05-03T12:27:34.998Z</time></trkpt><trkpt lat="42.49113663297371" lon="14.140803868178406"><ele>155.0</ele><time>2026-05-03T12:27:36.998Z</time></trkpt><trkpt lat="42.491186373656966" lon="14.140708007067893"><ele>155.0</ele><time>2026-05-03T12:27:37.998Z</time></trkpt><trkpt lat="42.491234540483" lon="14.140615009807997"><ele>155.0</ele><time>2026-05-03T12:27:38.998Z</time></trkpt><trkpt lat="42.49129482441067" lon="14.140549473825425"><ele>155.0</ele><time>2026-05-03T12:27:39.998Z</time></trkpt><trkpt lat="42.491344452153214" lon="14.140472897705019"><ele>155.0</ele><time>2026-05-03T12:27:40.998Z</time></trkpt><trkpt lat="42.491390378839625" lon="14.140402033001733"><ele>155.0</ele><time>2026-05-03T12:27:41.998Z</time></trkpt><trkpt lat="42.49143263589832" lon="14.140336831140358"><ele>155.0</ele><time>2026-05-03T12:27:42.998Z</time></trkpt><trkpt lat="42.49158452628627" lon="14.140438341140142"><ele>156.2</ele><time>2026-05-03T12:27:45.998Z</time></trkpt><trkpt lat="42.49162083884937" lon="14.140558114258729"><ele>157.4</ele><time>2026-05-03T12:27:46.999Z</time></trkpt><trkpt lat="42.4916537122745" lon="14.14069624847855"><ele>158.60000000000002</ele><time>2026-05-03T12:27:47.999Z</time></trkpt><trkpt lat="42.4916897526715" lon="14.14084729506858"><ele>159.8</ele><time>2026-05-03T12:27:48.999Z</time></trkpt><trkpt lat="42.49172289378384" lon="14.141004406799565"><ele>161.0</ele><time>2026-05-03T12:27:49.999Z</time></trkpt><trkpt lat="42.49175671545394" lon="14.141147485942852"><ele>161.0</ele><time>2026-05-03T12:27:50.999Z</time></trkpt><trkpt lat="42.49176280552945" lon="14.141289198632432"><ele>161.0</ele><time>2026-05-03T12:27:51.999Z</time></trkpt><trkpt lat="42.49179571991795" lon="14.141430144913802"><ele>161.0</ele><time>2026-05-03T12:27:52.999Z</time></trkpt><trkpt lat="42.49177943466786" lon="14.141578368015153"><ele>161.0</ele><time>2026-05-03T12:27:53.999Z</time></trkpt><trkpt lat="42.49174653322826" lon="14.141728828713468"><ele>161.0</ele><time>2026-05-03T12:27:54.999Z</time></trkpt><trkpt lat="42.491694988833515" lon="14.141871104727432"><ele>161.0</ele><time>2026-05-03T12:27:55.999Z</time></trkpt><trkpt lat="42.49163898376458" lon="14.142015094637928"><ele>161.0</ele><time>2026-05-03T12:27:56.999Z</time></trkpt><trkpt lat="42.49158770571389" lon="14.142152568956986"><ele>161.0</ele><time>2026-05-03T12:27:57.999Z</time></trkpt><trkpt lat="42.491570067726656" lon="14.142294341309837"><ele>161.0</ele><time>2026-05-03T12:27:58.999Z</time></trkpt><trkpt lat="42.49160188626783" lon="14.142431339992962"><ele>161.0</ele><time>2026-05-03T12:27:59.999Z</time></trkpt><trkpt lat="42.49166458069842" lon="14.14255150095673"><ele>160.20000000000002</ele><time>2026-05-03T12:28:00.999Z</time></trkpt><trkpt lat="42.49174594060394" lon="14.142651076981918"><ele>159.4</ele><time>2026-05-03T12:28:01.999Z</time></trkpt><trkpt lat="42.491804690919516" lon="14.142765969753315"><ele>158.6</ele><time>2026-05-03T12:28:02.999Z</time></trkpt><trkpt lat="42.49183040783531" lon="14.142891477875539"><ele>157.8</ele><time>2026-05-03T12:28:03.999Z</time></trkpt><trkpt lat="42.49179205662957" lon="14.143007262216917"><ele>157.0</ele><time>2026-05-03T12:28:04.999Z</time></trkpt><trkpt lat="42.491717339658436" lon="14.143107667724983"><ele>157.0</ele><time>2026-05-03T12:28:05.999Z</time></trkpt><trkpt lat="42.49164173891692" lon="14.143211245905473"><ele>157.0</ele><time>2026-05-03T12:28:06.999Z</time></trkpt><trkpt lat="42.491555379450645" lon="14.143305542646752"><ele>157.0</ele><time>2026-05-03T12:28:07.999Z</time></trkpt><trkpt lat="42.49151054025786" lon="14.143436909799213"><ele>157.0</ele><time>2026-05-03T12:28:08.999Z</time></trkpt><trkpt lat="42.49151818213697" lon="14.143578712349907"><ele>157.0</ele><time>2026-05-03T12:28:09.999Z</time></trkpt><trkpt lat="42.49156090604103" lon="14.143727794105459"><ele>157.0</ele><time>2026-05-03T12:28:10.999Z</time></trkpt><trkpt lat="42.49163682247222" lon="14.143868680075586"><ele>157.0</ele><time>2026-05-03T12:28:11.999Z</time></trkpt><trkpt lat="42.49171992237418" lon="14.144006752262108"><ele>157.0</ele><time>2026-05-03T12:28:12.999Z</time></trkpt><trkpt lat="42.491812950133415" lon="14.144125980588012"><ele>157.0</ele><time>2026-05-03T12:28:13.999Z</time></trkpt><trkpt lat="42.4919214999002" lon="14.144220479904813"><ele>157.0</ele><time>2026-05-03T12:28:14.999Z</time></trkpt><trkpt lat="42.49208649703444" lon="14.144261823650263"><ele>157.0</ele><time>2026-05-03T12:28:15.999Z</time></trkpt><trkpt lat="42.49222125916089" lon="14.144303635302476"><ele>157.0</ele><time>2026-05-03T12:28:16.999Z</time></trkpt><trkpt lat="42.49234132559893" lon="14.144376940092254"><ele>157.0</ele><time>2026-05-03T12:28:17.999Z</time></trkpt><trkpt lat="42.4924584108035" lon="14.1444255088078"><ele>152.0</ele><time>2026-05-03T12:28:18.999Z</time></trkpt><trkpt lat="42.49255386681812" lon="14.144480647684695"><ele>147.0</ele><time>2026-05-03T12:28:19.999Z</time></trkpt><trkpt lat="42.49266641759404" lon="14.14453724796046"><ele>142.0</ele><time>2026-05-03T12:28:20.999Z</time></trkpt><trkpt lat="42.49276970641124" lon="14.144592561597783"><ele>137.0</ele><time>2026-05-03T12:28:21.999Z</time></trkpt><trkpt lat="42.49285831296689" lon="14.144659803075838"><ele>132.0</ele><time>2026-05-03T12:28:22.999Z</time></trkpt><trkpt lat="42.492939785021925" lon="14.144733359976305"><ele>133.25</ele><time>2026-05-03T12:28:23.999Z</time></trkpt><trkpt lat="42.493008326994364" lon="14.144843675221676"><ele>134.5</ele><time>2026-05-03T12:28:24.999Z</time></trkpt><trkpt lat="42.493078824768226" lon="14.144963429013323"><ele>135.75</ele><time>2026-05-03T12:28:25.999Z</time></trkpt><trkpt lat="42.493149873245585" lon="14.145091595490053"><ele>137.0</ele><time>2026-05-03T12:28:26.999Z</time></trkpt><trkpt lat="42.49323900787214" lon="14.14519168130573"><ele>137.0</ele><time>2026-05-03T12:28:27.999Z</time></trkpt><trkpt lat="42.493341709089464" lon="14.145260598306074"><ele>137.0</ele><time>2026-05-03T12:28:28.999Z</time></trkpt><trkpt lat="42.49344006492394" lon="14.145302531044278"><ele>137.0</ele><time>2026-05-03T12:28:29.999Z</time></trkpt><trkpt lat="42.49354090890948" lon="14.145312058362517"><ele>137.0</ele><time>2026-05-03T12:28:30.999Z</time></trkpt><trkpt lat="42.49364313040422" lon="14.145271278567188"><ele>137.0</ele><time>2026-05-03T12:28:31.999Z</time></trkpt><trkpt lat="42.49376245627719" lon="14.145215039361423"><ele>135.5</ele><time>2026-05-03T12:28:32.999Z</time></trkpt><trkpt lat="42.49384966624353" lon="14.145096318438338"><ele>134.0</ele><time>2026-05-03T12:28:33.999Z</time></trkpt><trkpt lat="42.49387949826342" lon="14.144933535372807"><ele>132.5</ele><time>2026-05-03T12:28:34.999Z</time></trkpt><trkpt lat="42.493929964371524" lon="14.144790265190602"><ele>131.0</ele><time>2026-05-03T12:28:35.999Z</time></trkpt><trkpt lat="42.49396935312183" lon="14.144634554726958"><ele>128.4</ele><time>2026-05-03T12:28:36.999Z</time></trkpt><trkpt lat="42.49400649973124" lon="14.144487393905315"><ele>125.8</ele><time>2026-05-03T12:28:37.999Z</time></trkpt><trkpt lat="42.49404278384168" lon="14.144359385443506"><ele>123.20000000000002</ele><time>2026-05-03T12:28:38.999Z</time></trkpt><trkpt lat="42.49408345022713" lon="14.144234032923393"><ele>120.60000000000001</ele><time>2026-05-03T12:28:39.999Z</time></trkpt><trkpt lat="42.4941375583384" lon="14.144117277666288"><ele>118.0</ele><time>2026-05-03T12:28:40.999Z</time></trkpt><trkpt lat="42.49421745922983" lon="14.144036502368387"><ele>114.5</ele><time>2026-05-03T12:28:41.999Z</time></trkpt><trkpt lat="42.494311838268224" lon="14.143955475328728"><ele>111.0</ele><time>2026-05-03T12:28:42.999Z</time></trkpt><trkpt lat="42.49442055096396" lon="14.143886775651922"><ele>107.5</ele><time>2026-05-03T12:28:43.999Z</time></trkpt><trkpt lat="42.49453714211482" lon="14.143856355160072"><ele>104.0</ele><time>2026-05-03T12:28:44.999Z</time></trkpt><trkpt lat="42.49466194680104" lon="14.143843360161958"><ele>104.0</ele><time>2026-05-03T12:28:45.999Z</time></trkpt><trkpt lat="42.49478758786512" lon="14.143827982108617"><ele>104.0</ele><time>2026-05-03T12:28:46.999Z</time></trkpt><trkpt lat="42.49491625812929" lon="14.143842632620856"><ele>104.0</ele><time>2026-05-03T12:28:47.999Z</time></trkpt><trkpt lat="42.49505411979337" lon="14.14383008315939"><ele>104.0</ele><time>2026-05-03T12:28:48.999Z</time></trkpt><trkpt lat="42.49519393282151" lon="14.143787015751563"><ele>104.0</ele><time>2026-05-03T12:28:49.998Z</time></trkpt><trkpt lat="42.49533278530978" lon="14.143750496711798"><ele>104.0</ele><time>2026-05-03T12:28:50.998Z</time></trkpt><trkpt lat="42.49547804836593" lon="14.143700797420435"><ele>104.0</ele><time>2026-05-03T12:28:51.998Z</time></trkpt><trkpt lat="42.495598270250845" lon="14.143642814756424"><ele>104.0</ele><time>2026-05-03T12:28:52.998Z</time></trkpt><trkpt lat="42.49571139097937" lon="14.143572430087351"><ele>103.5</ele><time>2026-05-03T12:28:53.998Z</time></trkpt><trkpt lat="42.49581801614546" lon="14.14347864922012"><ele>103.0</ele><time>2026-05-03T12:28:54.998Z</time></trkpt><trkpt lat="42.49592626641118" lon="14.143360536463288"><ele>102.5</ele><time>2026-05-03T12:28:55.998Z</time></trkpt><trkpt lat="42.4960420503153" lon="14.143246377326243"><ele>102.0</ele><time>2026-05-03T12:28:56.998Z</time></trkpt><trkpt lat="42.49616096301806" lon="14.14313478425808"><ele>101.5</ele><time>2026-05-03T12:28:57.998Z</time></trkpt><trkpt lat="42.496279105620914" lon="14.143030351747187"><ele>101.0</ele><time>2026-05-03T12:28:58.998Z</time></trkpt><trkpt lat="42.49641204984072" lon="14.142947915017347"><ele>100.5</ele><time>2026-05-03T12:28:59.998Z</time></trkpt><trkpt lat="42.49652441890973" lon="14.14283554567091"><ele>100.0</ele><time>2026-05-03T12:29:00.998Z</time></trkpt><trkpt lat="42.49664005474069" lon="14.142747121641019"><ele>100.0</ele><time>2026-05-03T12:29:01.998Z</time></trkpt><trkpt lat="42.4967513413602" lon="14.142647382278472"><ele>100.0</ele><time>2026-05-03T12:29:02.998Z</time></trkpt><trkpt lat="42.49686705381437" lon="14.1425692900465"><ele>100.0</ele><time>2026-05-03T12:29:03.998Z</time></trkpt><trkpt lat="42.49697186425063" lon="14.142470743831604"><ele>100.0</ele><time>2026-05-03T12:29:04.998Z</time></trkpt><trkpt lat="42.4970691017658" lon="14.142362231623348"><ele>97.0</ele><time>2026-05-03T12:29:05.998Z</time></trkpt><trkpt lat="42.4971579038212" lon="14.14225719428509"><ele>94.0</ele><time>2026-05-03T12:29:06.998Z</time></trkpt><trkpt lat="42.49724212511864" lon="14.142157575219684"><ele>91.0</ele><time>2026-05-03T12:29:07.998Z</time></trkpt><trkpt lat="42.497318081516404" lon="14.142072380515762"><ele>88.0</ele><time>2026-05-03T12:29:08.998Z</time></trkpt><trkpt lat="42.4973932287153" lon="14.141990486125355"><ele>85.0</ele><time>2026-05-03T12:29:09.998Z</time></trkpt><trkpt lat="42.49745795630551" lon="14.14193282909358"><ele>85.0</ele><time>2026-05-03T12:29:10.998Z</time></trkpt><trkpt lat="42.49752563901866" lon="14.141937391192478"><ele>85.0</ele><time>2026-05-03T12:29:11.998Z</time></trkpt><trkpt lat="42.497593189472205" lon="14.141984792630485"><ele>85.0</ele><time>2026-05-03T12:29:12.998Z</time></trkpt><trkpt lat="42.49762718386894" lon="14.14211011488982"><ele>85.0</ele><time>2026-05-03T12:29:13.998Z</time></trkpt><trkpt lat="42.4976234469116" lon="14.142239154021503"><ele>85.0</ele><time>2026-05-03T12:29:14.998Z</time></trkpt><trkpt lat="42.497574039192564" lon="14.142355706949115"><ele>85.0</ele><time>2026-05-03T12:29:15.998Z</time></trkpt><trkpt lat="42.49748306116442" lon="14.142450515149603"><ele>85.25</ele><time>2026-05-03T12:29:16.998Z</time></trkpt><trkpt lat="42.497415640415475" lon="14.142581608167056"><ele>85.5</ele><time>2026-05-03T12:29:17.998Z</time></trkpt><trkpt lat="42.49733108565614" lon="14.142715700889951"><ele>85.75</ele><time>2026-05-03T12:29:18.998Z</time></trkpt><trkpt lat="42.4972441040411" lon="14.142864208292604"><ele>86.0</ele><time>2026-05-03T12:29:19.998Z</time></trkpt><trkpt lat="42.497160688978184" lon="14.14300429893277"><ele>88.5</ele><time>2026-05-03T12:29:20.998Z</time></trkpt><trkpt lat="42.49707748598813" lon="14.143154600782056"><ele>91.0</ele><time>2026-05-03T12:29:21.998Z</time></trkpt><trkpt lat="42.4969882312141" lon="14.143306113125597"><ele>93.5</ele><time>2026-05-03T12:29:22.998Z</time></trkpt><trkpt lat="42.49689783237608" lon="14.143459491082208"><ele>96.0</ele><time>2026-05-03T12:29:23.998Z</time></trkpt><trkpt lat="42.496806310390674" lon="14.143608241202875"><ele>96.0</ele><time>2026-05-03T12:29:24.998Z</time></trkpt><trkpt lat="42.4967117744681" lon="14.143746562555593"><ele>96.0</ele><time>2026-05-03T12:29:25.998Z</time></trkpt><trkpt lat="42.496623299782044" lon="14.14388188588629"><ele>96.0</ele><time>2026-05-03T12:29:26.998Z</time></trkpt><trkpt lat="42.49653608718157" lon="14.143998298706176"><ele>96.0</ele><time>2026-05-03T12:29:27.998Z</time></trkpt><trkpt lat="42.49646441582286" lon="14.144109539774295"><ele>92.5</ele><time>2026-05-03T12:29:28.998Z</time></trkpt><trkpt lat="42.49640575052632" lon="14.144237520935018"><ele>89.0</ele><time>2026-05-03T12:29:29.998Z</time></trkpt><trkpt lat="42.49637612245129" lon="14.144382178526138"><ele>85.5</ele><time>2026-05-03T12:29:30.998Z</time></trkpt><trkpt lat="42.49637304850909" lon="14.14454061609184"><ele>82.0</ele><time>2026-05-03T12:29:31.998Z</time></trkpt><trkpt lat="42.49638836160503" lon="14.144692561422277"><ele>82.0</ele><time>2026-05-03T12:29:32.998Z</time></trkpt><trkpt lat="42.49640977177787" lon="14.144840765021002"><ele>82.0</ele><time>2026-05-03T12:29:33.998Z</time></trkpt><trkpt lat="42.49640908959906" lon="14.144994897481"><ele>82.0</ele><time>2026-05-03T12:29:34.998Z</time></trkpt><trkpt lat="42.49636898561203" lon="14.145129426944798"><ele>82.0</ele><time>2026-05-03T12:29:35.998Z</time></trkpt><trkpt lat="42.49629994298886" lon="14.145254872210897"><ele>82.0</ele><time>2026-05-03T12:29:36.998Z</time></trkpt><trkpt lat="42.49623034898892" lon="14.145375018194883"><ele>82.0</ele><time>2026-05-03T12:29:37.998Z</time></trkpt><trkpt lat="42.496173540732045" lon="14.14549548336512"><ele>82.0</ele><time>2026-05-03T12:29:38.998Z</time></trkpt><trkpt lat="42.49614163814694" lon="14.145623372734097"><ele>82.0</ele><time>2026-05-03T12:29:39.998Z</time></trkpt><trkpt lat="42.496146074353256" lon="14.145761290577608"><ele>82.0</ele><time>2026-05-03T12:29:40.998Z</time></trkpt><trkpt lat="42.49618912709258" lon="14.145890580842224"><ele>82.0</ele><time>2026-05-03T12:29:41.998Z</time></trkpt><trkpt lat="42.49626697089783" lon="14.145986414569519"><ele>79.5</ele><time>2026-05-03T12:29:42.998Z</time></trkpt><trkpt lat="42.49637273217083" lon="14.14603658412267"><ele>77.0</ele><time>2026-05-03T12:29:43.998Z</time></trkpt><trkpt lat="42.49648916827705" lon="14.146041128905209"><ele>74.5</ele><time>2026-05-03T12:29:44.998Z</time></trkpt><trkpt lat="42.49659353940313" lon="14.14597999301895"><ele>72.0</ele><time>2026-05-03T12:29:45.998Z</time></trkpt><trkpt lat="42.496670939208556" lon="14.145872767079856"><ele>72.0</ele><time>2026-05-03T12:29:46.998Z</time></trkpt><trkpt lat="42.496716762593756" lon="14.145725826641547"><ele>72.0</ele><time>2026-05-03T12:29:47.998Z</time></trkpt><trkpt lat="42.496727793092894" lon="14.14555468337313"><ele>72.0</ele><time>2026-05-03T12:29:48.998Z</time></trkpt><trkpt lat="42.49672070545908" lon="14.145376611757543"><ele>72.0</ele><time>2026-05-03T12:29:49.998Z</time></trkpt><trkpt lat="42.49673652321841" lon="14.145205049822161"><ele>71.5</ele><time>2026-05-03T12:29:50.998Z</time></trkpt><trkpt lat="42.496785231474" lon="14.145046276706614"><ele>71.0</ele><time>2026-05-03T12:29:51.998Z</time></trkpt><trkpt lat="42.496854786381775" lon="14.144894299138524"><ele>70.5</ele><time>2026-05-03T12:29:52.998Z</time></trkpt><trkpt lat="42.49693817006594" lon="14.144763145654219"><ele>70.0</ele><time>2026-05-03T12:29:53.998Z</time></trkpt><trkpt lat="42.497035271798104" lon="14.144648025729355"><ele>67.5</ele><time>2026-05-03T12:29:54.998Z</time></trkpt><trkpt lat="42.49714916566068" lon="14.144556282581686"><ele>65.0</ele><time>2026-05-03T12:29:55.998Z</time></trkpt><trkpt lat="42.4972703823241" lon="14.144487591122383"><ele>62.5</ele><time>2026-05-03T12:29:56.998Z</time></trkpt><trkpt lat="42.497392220880464" lon="14.144410991903033"><ele>60.0</ele><time>2026-05-03T12:29:57.998Z</time></trkpt><trkpt lat="42.4975096583672" lon="14.144324881265705"><ele>60.0</ele><time>2026-05-03T12:29:58.999Z</time></trkpt><trkpt lat="42.497611466993085" lon="14.144213879668841"><ele>60.0</ele><time>2026-05-03T12:29:59.999Z</time></trkpt><trkpt lat="42.4977108869721" lon="14.144074898357523"><ele>60.0</ele><time>2026-05-03T12:30:00.999Z</time></trkpt><trkpt lat="42.497815586744665" lon="14.14394492723457"><ele>60.0</ele><time>2026-05-03T12:30:01.999Z</time></trkpt><trkpt lat="42.497913669114574" lon="14.143807829203459"><ele>57.75</ele><time>2026-05-03T12:30:02.999Z</time></trkpt><trkpt lat="42.498001393736835" lon="14.143665044528834"><ele>55.5</ele><time>2026-05-03T12:30:03.999Z</time></trkpt><trkpt lat="42.49815957830472" lon="14.14355476573811"><ele>53.25</ele><time>2026-05-03T12:30:04.999Z</time></trkpt><trkpt lat="42.49818026569056" lon="14.143414694927891"><ele>51.0</ele><time>2026-05-03T12:30:05.999Z</time></trkpt><trkpt lat="42.49825887647739" lon="14.143285938001501"><ele>53.599999999999994</ele><time>2026-05-03T12:30:06.999Z</time></trkpt><trkpt lat="42.49833293907063" lon="14.143162453842079"><ele>56.2</ele><time>2026-05-03T12:30:07.999Z</time></trkpt><trkpt lat="42.498399547091026" lon="14.143046120521017"><ele>58.800000000000004</ele><time>2026-05-03T12:30:08.999Z</time></trkpt><trkpt lat="42.49845451695691" lon="14.142950945318793"><ele>61.400000000000006</ele><time>2026-05-03T12:30:09.999Z</time></trkpt><trkpt lat="42.4985003126158" lon="14.142872596025557"><ele>64.0</ele><time>2026-05-03T12:30:10.999Z</time></trkpt><trkpt lat="42.49853596307873" lon="14.14279379761266"><ele>64.0</ele><time>2026-05-03T12:30:11.999Z</time></trkpt><trkpt lat="42.49860490288895" lon="14.142734469697347"><ele>64.0</ele><time>2026-05-03T12:30:13.999Z</time></trkpt><trkpt lat="42.4986902003178" lon="14.142660105674286"><ele>64.0</ele><time>2026-05-03T12:30:18.999Z</time></trkpt><trkpt lat="42.49876569921934" lon="14.14249254853066"><ele>64.0</ele><time>2026-05-03T12:30:20.999Z</time></trkpt><trkpt lat="42.49878491181327" lon="14.142365452476513"><ele>64.0</ele><time>2026-05-03T12:30:21.999Z</time></trkpt><trkpt lat="42.49882151093331" lon="14.142230476601949"><ele>58.75</ele><time>2026-05-03T12:30:22.999Z</time></trkpt><trkpt lat="42.49886894393128" lon="14.1420974500022"><ele>53.5</ele><time>2026-05-03T12:30:23.999Z</time></trkpt><trkpt lat="42.49893213656052" lon="14.141952328715911"><ele>48.25</ele><time>2026-05-03T12:30:24.999Z</time></trkpt><trkpt lat="42.498994797381044" lon="14.141804750953042"><ele>43.0</ele><time>2026-05-03T12:30:25.999Z</time></trkpt><trkpt lat="42.499062974672626" lon="14.141648835613264"><ele>45.25</ele><time>2026-05-03T12:30:26.999Z</time></trkpt><trkpt lat="42.49915570205258" lon="14.141529058762952"><ele>47.5</ele><time>2026-05-03T12:30:27.999Z</time></trkpt><trkpt lat="42.49923619997846" lon="14.14138553809532"><ele>49.75</ele><time>2026-05-03T12:30:28.999Z</time></trkpt><trkpt lat="42.49933406808946" lon="14.141256454032042"><ele>52.0</ele><time>2026-05-03T12:30:29.999Z</time></trkpt><trkpt lat="42.499439517027255" lon="14.1411357650071"><ele>52.0</ele><time>2026-05-03T12:30:30.999Z</time></trkpt><trkpt lat="42.499549205240385" lon="14.141023241402372"><ele>52.0</ele><time>2026-05-03T12:30:31.999Z</time></trkpt><trkpt lat="42.49966175094224" lon="14.140919366461421"><ele>52.0</ele><time>2026-05-03T12:30:32.999Z</time></trkpt><trkpt lat="42.49977100332847" lon="14.140808696658704"><ele>52.0</ele><time>2026-05-03T12:30:33.999Z</time></trkpt><trkpt lat="42.49987318220254" lon="14.140690361453542"><ele>48.75</ele><time>2026-05-03T12:30:34.999Z</time></trkpt><trkpt lat="42.4999681698079" lon="14.140566231176223"><ele>45.5</ele><time>2026-05-03T12:30:35.999Z</time></trkpt><trkpt lat="42.500053608099684" lon="14.140439900690088"><ele>42.25</ele><time>2026-05-03T12:30:36.999Z</time></trkpt><trkpt lat="42.50012871033711" lon="14.140311285601737"><ele>39.0</ele><time>2026-05-03T12:30:37.999Z</time></trkpt><trkpt lat="42.500208824945354" lon="14.140192977484663"><ele>39.0</ele><time>2026-05-03T12:30:38.999Z</time></trkpt><trkpt lat="42.500283544846546" lon="14.140072762495498"><ele>39.0</ele><time>2026-05-03T12:30:39.999Z</time></trkpt><trkpt lat="42.500355877297785" lon="14.139958406702673"><ele>39.0</ele><time>2026-05-03T12:30:40.999Z</time></trkpt><trkpt lat="42.50042715542905" lon="14.139847814543513"><ele>39.0</ele><time>2026-05-03T12:30:41.999Z</time></trkpt><trkpt lat="42.50049280958393" lon="14.139746159704956"><ele>39.0</ele><time>2026-05-03T12:30:42.999Z</time></trkpt><trkpt lat="42.50056076606679" lon="14.139640082464279"><ele>36.4</ele><time>2026-05-03T12:30:43.999Z</time></trkpt><trkpt lat="42.50061799038169" lon="14.139534731132416"><ele>33.8</ele><time>2026-05-03T12:30:44.999Z</time></trkpt><trkpt lat="42.500677312808676" lon="14.139434474938437"><ele>31.200000000000003</ele><time>2026-05-03T12:30:45.999Z</time></trkpt><trkpt lat="42.50073899237623" lon="14.139329030416931"><ele>28.6</ele><time>2026-05-03T12:30:46.999Z</time></trkpt><trkpt lat="42.50078925150527" lon="14.139228365716654"><ele>26.0</ele><time>2026-05-03T12:30:47.999Z</time></trkpt><trkpt lat="42.500842042576636" lon="14.139121175461229"><ele>25.166666666666664</ele><time>2026-05-03T12:30:48.999Z</time></trkpt><trkpt lat="42.50089463246033" lon="14.139019785451481"><ele>24.333333333333332</ele><time>2026-05-03T12:30:49.999Z</time></trkpt><trkpt lat="42.500943057758796" lon="14.138921855094912"><ele>23.5</ele><time>2026-05-03T12:30:50.999Z</time></trkpt><trkpt lat="42.50099008734991" lon="14.138821240976817"><ele>22.666666666666664</ele><time>2026-05-03T12:30:51.999Z</time></trkpt><trkpt lat="42.50103185268567" lon="14.13872952508988"><ele>21.833333333333332</ele><time>2026-05-03T12:30:52.999Z</time></trkpt><trkpt lat="42.50107024250862" lon="14.138642170007847"><ele>21.0</ele><time>2026-05-03T12:30:53.999Z</time></trkpt><trkpt lat="42.50110775803729" lon="14.138562677794862"><ele>21.0</ele><time>2026-05-03T12:30:54.999Z</time></trkpt><trkpt lat="42.501147909633" lon="14.138479329495844"><ele>21.0</ele><time>2026-05-03T12:30:55.999Z</time></trkpt><trkpt lat="42.50118547647571" lon="14.138377104852701"><ele>21.0</ele><time>2026-05-03T12:30:56.999Z</time></trkpt><trkpt lat="42.50121772328776" lon="14.138261655646886"><ele>21.0</ele><time>2026-05-03T12:30:57.999Z</time></trkpt><trkpt lat="42.50124623513702" lon="14.138137075852914"><ele>21.0</ele><time>2026-05-03T12:30:58.999Z</time></trkpt><trkpt lat="42.50127496343361" lon="14.138007991514272"><ele>21.0</ele><time>2026-05-03T12:30:59.999Z</time></trkpt><trkpt lat="42.50130227611211" lon="14.137889256028059"><ele>20.0</ele><time>2026-05-03T12:31:00.999Z</time></trkpt><trkpt lat="42.50133241081482" lon="14.137762058712557"><ele>19.0</ele><time>2026-05-03T12:31:01.999Z</time></trkpt><trkpt lat="42.50136843042748" lon="14.137631189102304"><ele>18.0</ele><time>2026-05-03T12:31:02.999Z</time></trkpt><trkpt lat="42.50139469937439" lon="14.137490263715993"><ele>17.0</ele><time>2026-05-03T12:31:03.999Z</time></trkpt><trkpt lat="42.50143214978992" lon="14.137344463090054"><ele>16.0</ele><time>2026-05-03T12:31:04.999Z</time></trkpt><trkpt lat="42.50147609159601" lon="14.137203474788672"><ele>15.5</ele><time>2026-05-03T12:31:05.999Z</time></trkpt><trkpt lat="42.5015130206944" lon="14.137052001318102"><ele>15.0</ele><time>2026-05-03T12:31:06.998Z</time></trkpt><trkpt lat="42.5015522032972" lon="14.136900083418885"><ele>14.5</ele><time>2026-05-03T12:31:07.998Z</time></trkpt><trkpt lat="42.50158415140134" lon="14.136762342094434"><ele>14.0</ele><time>2026-05-03T12:31:08.998Z</time></trkpt><trkpt lat="42.50162002392378" lon="14.136625770798862"><ele>14.0</ele><time>2026-05-03T12:31:09.998Z</time></trkpt><trkpt lat="42.50165190838803" lon="14.13649199264249"><ele>13.999999999999998</ele><time>2026-05-03T12:31:10.998Z</time></trkpt><trkpt lat="42.50168681960192" lon="14.136360493020197"><ele>13.999999999999998</ele><time>2026-05-03T12:31:11.998Z</time></trkpt><trkpt lat="42.501719588622066" lon="14.136231166605862"><ele>14.0</ele><time>2026-05-03T12:31:12.998Z</time></trkpt><trkpt lat="42.5017545917328" lon="14.13610491382144"><ele>14.0</ele><time>2026-05-03T12:31:13.998Z</time></trkpt><trkpt lat="42.50178999535071" lon="14.135981265232937"><ele>14.000000000000002</ele><time>2026-05-03T12:31:14.998Z</time></trkpt><trkpt lat="42.501819937706856" lon="14.135860308611607"><ele>14.0</ele><time>2026-05-03T12:31:15.998Z</time></trkpt><trkpt lat="42.5018519502762" lon="14.135749427453225"><ele>14.0</ele><time>2026-05-03T12:31:16.998Z</time></trkpt><trkpt lat="42.501879198571025" lon="14.135641594950117"><ele>14.0</ele><time>2026-05-03T12:31:17.998Z</time></trkpt><trkpt lat="42.501903384827536" lon="14.135540129930497"><ele>14.000000000000002</ele><time>2026-05-03T12:31:18.998Z</time></trkpt><trkpt lat="42.501928625834736" lon="14.135434251947528"><ele>14.0</ele><time>2026-05-03T12:31:19.998Z</time></trkpt><trkpt lat="42.50196023879144" lon="14.135326271431177"><ele>14.000000000000002</ele><time>2026-05-03T12:31:20.998Z</time></trkpt><trkpt lat="42.501992279661565" lon="14.135205873956396"><ele>14.0</ele><time>2026-05-03T12:31:21.998Z</time></trkpt><trkpt lat="42.50202784466139" lon="14.135100253562715"><ele>14.0</ele><time>2026-05-03T12:31:22.998Z</time></trkpt><trkpt lat="42.50205926515734" lon="14.134999519852013"><ele>14.0</ele><time>2026-05-03T12:31:23.998Z</time></trkpt><trkpt lat="42.50209963045362" lon="14.13488971652835"><ele>14.000000000000002</ele><time>2026-05-03T12:31:25.998Z</time></trkpt><trkpt lat="42.50214841779046" lon="14.134818126961944"><ele>14.0</ele><time>2026-05-03T12:31:27.998Z</time></trkpt><trkpt lat="42.50223850894976" lon="14.13476031127253"><ele>14.0</ele><time>2026-05-03T12:31:29.998Z</time></trkpt><trkpt lat="42.50236595032107" lon="14.134729780347763"><ele>13.999999999999998</ele><time>2026-05-03T12:31:31.998Z</time></trkpt><trkpt lat="42.50243720658385" lon="14.134737330702771"><ele>13.999999999999998</ele><time>2026-05-03T12:31:32.998Z</time></trkpt><trkpt lat="42.502503340291675" lon="14.134765517063625"><ele>14.0</ele><time>2026-05-03T12:31:33.998Z</time></trkpt><trkpt lat="42.50256287612281" lon="14.134815756300151"><ele>14.0</ele><time>2026-05-03T12:31:34.998Z</time></trkpt><trkpt lat="42.50264228139468" lon="14.134920461714238"><ele>14.0</ele><time>2026-05-03T12:31:36.998Z</time></trkpt><trkpt lat="42.50272498635726" lon="14.135019210793116"><ele>13.999999999999998</ele><time>2026-05-03T12:31:38.998Z</time></trkpt><trkpt lat="42.502805642654806" lon="14.135108757397191"><ele>13.999999999999998</ele><time>2026-05-03T12:31:40.998Z</time></trkpt><trkpt lat="42.50289213946325" lon="14.135200908821597"><ele>14.0</ele><time>2026-05-03T12:31:42.998Z</time></trkpt><trkpt lat="42.50296754844957" lon="14.135275026261453"><ele>14.0</ele><time>2026-05-03T12:31:44.998Z</time></trkpt><trkpt lat="42.50304455284258" lon="14.135315459126916"><ele>13.833333333333334</ele><time>2026-05-03T12:31:46.998Z</time></trkpt><trkpt lat="42.503119437512" lon="14.135255376010058"><ele>13.666666666666668</ele><time>2026-05-03T12:31:48.998Z</time></trkpt><trkpt lat="42.50314505083283" lon="14.135172109535667"><ele>13.5</ele><time>2026-05-03T12:31:49.998Z</time></trkpt><trkpt lat="42.50316580435066" lon="14.135072655370909"><ele>13.333333333333332</ele><time>2026-05-03T12:31:50.998Z</time></trkpt><trkpt lat="42.5031967532473" lon="14.134958872080674"><ele>13.166666666666666</ele><time>2026-05-03T12:31:51.998Z</time></trkpt><trkpt lat="42.503230063721425" lon="14.134837761088976"><ele>13.0</ele><time>2026-05-03T12:31:52.998Z</time></trkpt><trkpt lat="42.5032612882198" lon="14.134704721203406"><ele>13.0</ele><time>2026-05-03T12:31:53.998Z</time></trkpt><trkpt lat="42.503294069080944" lon="14.134577525102602"><ele>13.0</ele><time>2026-05-03T12:31:54.998Z</time></trkpt><trkpt lat="42.503321644402206" lon="14.134465068915725"><ele>13.0</ele><time>2026-05-03T12:31:55.998Z</time></trkpt><trkpt lat="42.503354246154416" lon="14.13435224125833"><ele>13.0</ele><time>2026-05-03T12:31:56.998Z</time></trkpt><trkpt lat="42.503386873655" lon="14.134223811114492"><ele>13.0</ele><time>2026-05-03T12:31:57.999Z</time></trkpt><trkpt lat="42.50341442528773" lon="14.134085036544441"><ele>13.0</ele><time>2026-05-03T12:31:58.999Z</time></trkpt><trkpt lat="42.503451173654014" lon="14.133950510291106"><ele>13.0</ele><time>2026-05-03T12:31:59.999Z</time></trkpt><trkpt lat="42.50349053162613" lon="14.133839860257137"><ele>13.0</ele><time>2026-05-03T12:32:00.999Z</time></trkpt><trkpt lat="42.50353290573069" lon="14.133741706631747"><ele>13.0</ele><time>2026-05-03T12:32:01.999Z</time></trkpt><trkpt lat="42.50358551465209" lon="14.133650492241255"><ele>13.0</ele><time>2026-05-03T12:32:02.999Z</time></trkpt><trkpt lat="42.50366627835615" lon="14.133577232735577"><ele>13.0</ele><time>2026-05-03T12:32:03.999Z</time></trkpt><trkpt lat="42.503754677380975" lon="14.133507311117445"><ele>13.0</ele><time>2026-05-03T12:32:04.999Z</time></trkpt><trkpt lat="42.50384150095776" lon="14.13342796960792"><ele>13.0</ele><time>2026-05-03T12:32:05.999Z</time></trkpt><trkpt lat="42.503938984379694" lon="14.133347304841918"><ele>13.0</ele><time>2026-05-03T12:32:06.999Z</time></trkpt><trkpt lat="42.50403662759022" lon="14.13325493963601"><ele>13.0</ele><time>2026-05-03T12:32:07.999Z</time></trkpt><trkpt lat="42.50413801210433" lon="14.133156795935392"><ele>13.0</ele><time>2026-05-03T12:32:08.999Z</time></trkpt><trkpt lat="42.50423705978302" lon="14.133055272284437"><ele>13.0</ele><time>2026-05-03T12:32:09.999Z</time></trkpt><trkpt lat="42.50433905232238" lon="14.1329568104511"><ele>13.0</ele><time>2026-05-03T12:32:10.999Z</time></trkpt><trkpt lat="42.50444470086388" lon="14.132861540626786"><ele>13.0</ele><time>2026-05-03T12:32:11.999Z</time></trkpt><trkpt lat="42.50455039058475" lon="14.13276246001826"><ele>12.0</ele><time>2026-05-03T12:32:12.999Z</time></trkpt><trkpt lat="42.50465873039969" lon="14.132664871807755"><ele>11.0</ele><time>2026-05-03T12:32:13.999Z</time></trkpt><trkpt lat="42.50476874861588" lon="14.132567645322178"><ele>10.0</ele><time>2026-05-03T12:32:14.999Z</time></trkpt><trkpt lat="42.50487400066683" lon="14.132470038231618"><ele>9.0</ele><time>2026-05-03T12:32:15.999Z</time></trkpt><trkpt lat="42.50498088663452" lon="14.13237544139326"><ele>9.0</ele><time>2026-05-03T12:32:16.999Z</time></trkpt><trkpt lat="42.505085922548155" lon="14.132283184926562"><ele>9.0</ele><time>2026-05-03T12:32:17.999Z</time></trkpt><trkpt lat="42.5051870824572" lon="14.132183506561327"><ele>9.0</ele><time>2026-05-03T12:32:18.999Z</time></trkpt><trkpt lat="42.505287968272256" lon="14.132089673597777"><ele>9.0</ele><time>2026-05-03T12:32:19.999Z</time></trkpt><trkpt lat="42.50538739440909" lon="14.131994832306106"><ele>9.0</ele><time>2026-05-03T12:32:20.999Z</time></trkpt><trkpt lat="42.50548744864809" lon="14.131908376545999"><ele>9.0</ele><time>2026-05-03T12:32:21.999Z</time></trkpt><trkpt lat="42.50558244431965" lon="14.131821264262301"><ele>9.0</ele><time>2026-05-03T12:32:22.999Z</time></trkpt><trkpt lat="42.5056775850499" lon="14.131733595158693"><ele>9.0</ele><time>2026-05-03T12:32:23.999Z</time></trkpt><trkpt lat="42.505767585386394" lon="14.131655524739653"><ele>9.0</ele><time>2026-05-03T12:32:24.999Z</time></trkpt><trkpt lat="42.5058566572135" lon="14.131571282806803"><ele>9.0</ele><time>2026-05-03T12:32:25.999Z</time></trkpt><trkpt lat="42.5059440488081" lon="14.13148964167386"><ele>9.0</ele><time>2026-05-03T12:32:26.999Z</time></trkpt><trkpt lat="42.50602861667846" lon="14.131408640238307"><ele>9.0</ele><time>2026-05-03T12:32:27.999Z</time></trkpt><trkpt lat="42.50612174513194" lon="14.131324741471918"><ele>9.0</ele><time>2026-05-03T12:32:28.999Z</time></trkpt><trkpt lat="42.50621752707024" lon="14.131239376821126"><ele>9.0</ele><time>2026-05-03T12:32:29.999Z</time></trkpt><trkpt lat="42.506314527312334" lon="14.131161457479278"><ele>9.0</ele><time>2026-05-03T12:32:30.999Z</time></trkpt><trkpt lat="42.50641417599346" lon="14.131092016122707"><ele>9.0</ele><time>2026-05-03T12:32:31.999Z</time></trkpt><trkpt lat="42.50651820005704" lon="14.13103503132587"><ele>9.0</ele><time>2026-05-03T12:32:32.999Z</time></trkpt><trkpt lat="42.506626253507335" lon="14.13098120066852"><ele>9.0</ele><time>2026-05-03T12:32:33.999Z</time></trkpt><trkpt lat="42.506730615611765" lon="14.130924262066376"><ele>9.0</ele><time>2026-05-03T12:32:34.999Z</time></trkpt><trkpt lat="42.506835744331205" lon="14.130870272044223"><ele>9.0</ele><time>2026-05-03T12:32:35.999Z</time></trkpt><trkpt lat="42.50693580441408" lon="14.130823109683826"><ele>9.0</ele><time>2026-05-03T12:32:36.999Z</time></trkpt><trkpt lat="42.507035615246714" lon="14.13078610902157"><ele>9.0</ele><time>2026-05-03T12:32:37.999Z</time></trkpt><trkpt lat="42.50713457239767" lon="14.1307527172002"><ele>9.6</ele><time>2026-05-03T12:32:38.999Z</time></trkpt><trkpt lat="42.50723737582361" lon="14.130719830295117"><ele>10.2</ele><time>2026-05-03T12:32:39.999Z</time></trkpt><trkpt lat="42.507339908751234" lon="14.130692216088725"><ele>10.799999999999999</ele><time>2026-05-03T12:32:40.999Z</time></trkpt><trkpt lat="42.50744570896778" lon="14.130664283974468"><ele>11.4</ele><time>2026-05-03T12:32:41.999Z</time></trkpt><trkpt lat="42.50755077570984" lon="14.130630777020404"><ele>12.0</ele><time>2026-05-03T12:32:42.999Z</time></trkpt><trkpt lat="42.507656088346984" lon="14.130585380873093"><ele>12.0</ele><time>2026-05-03T12:32:43.999Z</time></trkpt><trkpt lat="42.50775771796246" lon="14.130529510218242"><ele>12.0</ele><time>2026-05-03T12:32:44.999Z</time></trkpt><trkpt lat="42.50785948966835" lon="14.130462558351342"><ele>12.0</ele><time>2026-05-03T12:32:45.999Z</time></trkpt><trkpt lat="42.507964359809165" lon="14.1303804545841"><ele>12.0</ele><time>2026-05-03T12:32:46.999Z</time></trkpt><trkpt lat="42.508067038625306" lon="14.13030358200691"><ele>12.0</ele><time>2026-05-03T12:32:47.999Z</time></trkpt><trkpt lat="42.50817082649431" lon="14.13022499199961"><ele>12.0</ele><time>2026-05-03T12:32:48.999Z</time></trkpt><trkpt lat="42.508275674701956" lon="14.130148357414392"><ele>12.0</ele><time>2026-05-03T12:32:49.999Z</time></trkpt><trkpt lat="42.508368732417324" lon="14.130068472956944"><ele>12.0</ele><time>2026-05-03T12:32:50.999Z</time></trkpt><trkpt lat="42.50845741537071" lon="14.129983413030978"><ele>12.0</ele><time>2026-05-03T12:32:51.999Z</time></trkpt><trkpt lat="42.50854241160834" lon="14.129907706571338"><ele>12.0</ele><time>2026-05-03T12:32:52.999Z</time></trkpt><trkpt lat="42.508618907825685" lon="14.12984239941557"><ele>12.0</ele><time>2026-05-03T12:32:53.999Z</time></trkpt><trkpt lat="42.50869176117831" lon="14.12978676452101"><ele>12.0</ele><time>2026-05-03T12:32:54.999Z</time></trkpt><trkpt lat="42.508757010518174" lon="14.129724656019105"><ele>12.0</ele><time>2026-05-03T12:32:55.999Z</time></trkpt><trkpt lat="42.50886040405768" lon="14.129764554536656"><ele>10.75</ele><time>2026-05-03T12:32:56.999Z</time></trkpt><trkpt lat="42.50895601942094" lon="14.129772282974264"><ele>9.5</ele><time>2026-05-03T12:32:57.999Z</time></trkpt><trkpt lat="42.50905979249838" lon="14.129769154531088"><ele>8.25</ele><time>2026-05-03T12:32:58.999Z</time></trkpt><trkpt lat="42.509158896029696" lon="14.129954631134034"><ele>7.0</ele><time>2026-05-03T12:32:59.999Z</time></trkpt><trkpt lat="42.50924915217928" lon="14.130086815793849"><ele>7.0</ele><time>2026-05-03T12:33:00.999Z</time></trkpt><trkpt lat="42.50933684405916" lon="14.13023627301053"><ele>7.0</ele><time>2026-05-03T12:33:01.999Z</time></trkpt><trkpt lat="42.50942996024735" lon="14.130383151189967"><ele>7.0</ele><time>2026-05-03T12:33:02.999Z</time></trkpt><trkpt lat="42.50953384733322" lon="14.130527328722595"><ele>7.0</ele><time>2026-05-03T12:33:03.999Z</time></trkpt><trkpt lat="42.50963417347716" lon="14.130672606037772"><ele>6.333333333333334</ele><time>2026-05-03T12:33:04.999Z</time></trkpt><trkpt lat="42.509739487043376" lon="14.130826870227999"><ele>5.666666666666667</ele><time>2026-05-03T12:33:05.999Z</time></trkpt><trkpt lat="42.50984233607466" lon="14.130983712357216"><ele>5.0</ele><time>2026-05-03T12:33:06.999Z</time></trkpt><trkpt lat="42.509943645657415" lon="14.131134438767797"><ele>5.0</ele><time>2026-05-03T12:33:07.999Z</time></trkpt><trkpt lat="42.51004492913178" lon="14.13128853371865"><ele>5.0</ele><time>2026-05-03T12:33:08.999Z</time></trkpt><trkpt lat="42.510139207561124" lon="14.131443147948357"><ele>5.0</ele><time>2026-05-03T12:33:09.999Z</time></trkpt><trkpt lat="42.51022744809026" lon="14.131605022032355"><ele>5.0</ele><time>2026-05-03T12:33:10.999Z</time></trkpt><trkpt lat="42.51031356044064" lon="14.13176981129985"><ele>5.333333333333334</ele><time>2026-05-03T12:33:11.999Z</time></trkpt><trkpt lat="42.51039859076729" lon="14.13193808307017"><ele>5.666666666666667</ele><time>2026-05-03T12:33:12.999Z</time></trkpt><trkpt lat="42.510488119459076" lon="14.132106993696373"><ele>6.0</ele><time>2026-05-03T12:33:13.999Z</time></trkpt><trkpt lat="42.51057456034338" lon="14.13227871653784"><ele>6.0</ele><time>2026-05-03T12:33:14.999Z</time></trkpt><trkpt lat="42.510665702446815" lon="14.13244704111181"><ele>6.0</ele><time>2026-05-03T12:33:15.999Z</time></trkpt><trkpt lat="42.51075808413135" lon="14.132619417356155"><ele>6.0</ele><time>2026-05-03T12:33:16.999Z</time></trkpt><trkpt lat="42.51084979463169" lon="14.132791379011636"><ele>6.0</ele><time>2026-05-03T12:33:17.999Z</time></trkpt><trkpt lat="42.51094572964076" lon="14.132964945472127"><ele>6.0</ele><time>2026-05-03T12:33:18.999Z</time></trkpt><trkpt lat="42.511043563396164" lon="14.133133720874007"><ele>6.0</ele><time>2026-05-03T12:33:19.999Z</time></trkpt><trkpt lat="42.511145120035835" lon="14.13329706439822"><ele>5.666666666666667</ele><time>2026-05-03T12:33:20.999Z</time></trkpt><trkpt lat="42.511247392282634" lon="14.133460292936771"><ele>5.333333333333334</ele><time>2026-05-03T12:33:21.999Z</time></trkpt><trkpt lat="42.51134389096263" lon="14.133627282347886"><ele>5.0</ele><time>2026-05-03T12:33:22.999Z</time></trkpt><trkpt lat="42.51143279752923" lon="14.133797375100743"><ele>5.0</ele><time>2026-05-03T12:33:23.999Z</time></trkpt><trkpt lat="42.51151425050369" lon="14.133963976495707"><ele>5.0</ele><time>2026-05-03T12:33:24.999Z</time></trkpt><trkpt lat="42.511588332767026" lon="14.13412849089221"><ele>5.0</ele><time>2026-05-03T12:33:25.999Z</time></trkpt><trkpt lat="42.51166559961175" lon="14.134281038977749"><ele>5.0</ele><time>2026-05-03T12:33:26.999Z</time></trkpt><trkpt lat="42.51176743825065" lon="14.134416371218235"><ele>5.0</ele><time>2026-05-03T12:33:27.999Z</time></trkpt><trkpt lat="42.511883410465956" lon="14.134525152362501"><ele>5.0</ele><time>2026-05-03T12:33:28.999Z</time></trkpt><trkpt lat="42.51201592091412" lon="14.134610653595141"><ele>5.0</ele><time>2026-05-03T12:33:29.999Z</time></trkpt><trkpt lat="42.51214585799911" lon="14.134693473737997"><ele>5.0</ele><time>2026-05-03T12:33:30.999Z</time></trkpt><trkpt lat="42.5122713015629" lon="14.134782482783233"><ele>4.5</ele><time>2026-05-03T12:33:31.999Z</time></trkpt><trkpt lat="42.51240524534657" lon="14.134876461729869"><ele>4.0</ele><time>2026-05-03T12:33:32.999Z</time></trkpt><trkpt lat="42.512532456502676" lon="14.134963195164797"><ele>3.5</ele><time>2026-05-03T12:33:33.999Z</time></trkpt><trkpt lat="42.5126520443983" lon="14.135042085692076"><ele>3.0</ele><time>2026-05-03T12:33:34.999Z</time></trkpt><trkpt lat="42.512762994972704" lon="14.135125065616503"><ele>3.0</ele><time>2026-05-03T12:33:35.999Z</time></trkpt><trkpt lat="42.512868400255336" lon="14.135219754129029"><ele>3.0</ele><time>2026-05-03T12:33:36.999Z</time></trkpt><trkpt lat="42.51296679500851" lon="14.135329707521462"><ele>3.0</ele><time>2026-05-03T12:33:37.999Z</time></trkpt><trkpt lat="42.513056985117586" lon="14.13546095220814"><ele>3.0</ele><time>2026-05-03T12:33:38.999Z</time></trkpt><trkpt lat="42.513136581635656" lon="14.135608816794859"><ele>3.0</ele><time>2026-05-03T12:33:39.999Z</time></trkpt><trkpt lat="42.51320729877905" lon="14.13576905871811"><ele>3.0</ele><time>2026-05-03T12:33:40.999Z</time></trkpt><trkpt lat="42.51327524602397" lon="14.135938804212586"><ele>3.0</ele><time>2026-05-03T12:33:41.999Z</time></trkpt><trkpt lat="42.513330920608645" lon="14.13610472945698"><ele>3.0</ele><time>2026-05-03T12:33:42.999Z</time></trkpt><trkpt lat="42.5133701537771" lon="14.136283096103286"><ele>3.0</ele><time>2026-05-03T12:33:43.999Z</time></trkpt><trkpt lat="42.51340065765881" lon="14.136456879630453"><ele>3.0</ele><time>2026-05-03T12:33:44.999Z</time></trkpt><trkpt lat="42.51342973884236" lon="14.136628901401572"><ele>3.0</ele><time>2026-05-03T12:33:45.999Z</time></trkpt><trkpt lat="42.513464906475136" lon="14.136783245843553"><ele>3.0</ele><time>2026-05-03T12:33:46.999Z</time></trkpt><trkpt lat="42.51350382038358" lon="14.136923338740539"><ele>3.2</ele><time>2026-05-03T12:33:47.999Z</time></trkpt><trkpt lat="42.513541889693116" lon="14.137031789704524"><ele>3.4</ele><time>2026-05-03T12:33:48.999Z</time></trkpt><trkpt lat="42.513576286410455" lon="14.137117009732716"><ele>3.6000000000000005</ele><time>2026-05-03T12:33:49.999Z</time></trkpt><trkpt lat="42.51362444174818" lon="14.137243747386158"><ele>3.8000000000000003</ele><time>2026-05-03T12:33:51.998Z</time></trkpt><trkpt lat="42.513665562574104" lon="14.137347248451475"><ele>4.0</ele><time>2026-05-03T12:33:53.998Z</time></trkpt><trkpt lat="42.51371837884382" lon="14.137495622804751"><ele>4.4</ele><time>2026-05-03T12:33:55.998Z</time></trkpt><trkpt lat="42.51373576837031" lon="14.137589807940403"><ele>4.800000000000001</ele><time>2026-05-03T12:33:56.998Z</time></trkpt><trkpt lat="42.5137752811248" lon="14.137693762246146"><ele>5.199999999999999</ele><time>2026-05-03T12:33:57.998Z</time></trkpt><trkpt lat="42.513801792905205" lon="14.137812049207268"><ele>5.6</ele><time>2026-05-03T12:33:58.998Z</time></trkpt><trkpt lat="42.51367574782806" lon="14.137975055916023"><ele>6.0</ele><time>2026-05-03T12:33:59.998Z</time></trkpt><trkpt lat="42.51361924523408" lon="14.138117651036888"><ele>5.75</ele><time>2026-05-03T12:34:00.998Z</time></trkpt><trkpt lat="42.513569773984536" lon="14.138270985808745"><ele>5.5</ele><time>2026-05-03T12:34:01.998Z</time></trkpt><trkpt lat="42.513499766095684" lon="14.138428673362453"><ele>5.25</ele><time>2026-05-03T12:34:02.998Z</time></trkpt><trkpt lat="42.51342908908894" lon="14.13860269198654"><ele>5.0</ele><time>2026-05-03T12:34:03.998Z</time></trkpt><trkpt lat="42.51336100629096" lon="14.138786666401257"><ele>5.0</ele><time>2026-05-03T12:34:04.998Z</time></trkpt><trkpt lat="42.513289762256306" lon="14.138975470911891"><ele>5.0</ele><time>2026-05-03T12:34:05.998Z</time></trkpt><trkpt lat="42.51321817150207" lon="14.13915843809617"><ele>5.0</ele><time>2026-05-03T12:34:06.999Z</time></trkpt><trkpt lat="42.51314526715844" lon="14.139340009337177"><ele>5.333333333333334</ele><time>2026-05-03T12:34:07.999Z</time></trkpt><trkpt lat="42.513077821334996" lon="14.13952261842222"><ele>5.666666666666667</ele><time>2026-05-03T12:34:08.999Z</time></trkpt><trkpt lat="42.513011116871915" lon="14.139710154874438"><ele>6.0</ele><time>2026-05-03T12:34:09.999Z</time></trkpt><trkpt lat="42.51294516073162" lon="14.139894764016375"><ele>6.0</ele><time>2026-05-03T12:34:10.999Z</time></trkpt><trkpt lat="42.51287906779682" lon="14.140068473022362"><ele>6.0</ele><time>2026-05-03T12:34:11.999Z</time></trkpt><trkpt lat="42.51281608171349" lon="14.140237666656319"><ele>6.0</ele><time>2026-05-03T12:34:12.999Z</time></trkpt><trkpt lat="42.51275377351002" lon="14.14040416741686"><ele>6.0</ele><time>2026-05-03T12:34:13.999Z</time></trkpt><trkpt lat="42.512688032663576" lon="14.14057028134085"><ele>6.5</ele><time>2026-05-03T12:34:14.999Z</time></trkpt><trkpt lat="42.51262637032255" lon="14.14072511725658"><ele>7.0</ele><time>2026-05-03T12:34:15.999Z</time></trkpt><trkpt lat="42.51257806783705" lon="14.140879933189945"><ele>7.5</ele><time>2026-05-03T12:34:16.999Z</time></trkpt><trkpt lat="42.51252754971958" lon="14.141013787137618"><ele>8.0</ele><time>2026-05-03T12:34:17.999Z</time></trkpt><trkpt lat="42.51247959016206" lon="14.14113368371848"><ele>7.999999999999999</ele><time>2026-05-03T12:34:18.999Z</time></trkpt><trkpt lat="42.512445240164006" lon="14.14124702296285"><ele>8.0</ele><time>2026-05-03T12:34:19.999Z</time></trkpt><trkpt lat="42.51242976283529" lon="14.14135809151988"><ele>8.0</ele><time>2026-05-03T12:34:20.999Z</time></trkpt><trkpt lat="42.51244745521563" lon="14.141461312037169"><ele>8.0</ele><time>2026-05-03T12:34:21.999Z</time></trkpt><trkpt lat="42.51250616935357" lon="14.141530154306803"><ele>7.999999999999999</ele><time>2026-05-03T12:34:22.999Z</time></trkpt><trkpt lat="42.51258991718013" lon="14.141552306690672"><ele>8.0</ele><time>2026-05-03T12:34:23.999Z</time></trkpt><trkpt lat="42.51268465678173" lon="14.141538406814387"><ele>8.0</ele><time>2026-05-03T12:34:24.999Z</time></trkpt><trkpt lat="42.512786214768425" lon="14.14150012812718"><ele>8.0</ele><time>2026-05-03T12:34:25.999Z</time></trkpt><trkpt lat="42.512892962233096" lon="14.141465480549549"><ele>8.0</ele><time>2026-05-03T12:34:26.999Z</time></trkpt><trkpt lat="42.513001370620415" lon="14.141421903928906"><ele>8.0</ele><time>2026-05-03T12:34:27.999Z</time></trkpt><trkpt lat="42.5131294398294" lon="14.141457018240628"><ele>7.5</ele><time>2026-05-03T12:34:28.999Z</time></trkpt><trkpt lat="42.51324988191426" lon="14.141478212109524"><ele>7.0</ele><time>2026-05-03T12:34:29.999Z</time></trkpt><trkpt lat="42.51336160401654" lon="14.141505590162298"><ele>6.5</ele><time>2026-05-03T12:34:30.999Z</time></trkpt><trkpt lat="42.513467533939334" lon="14.141545802799909"><ele>6.0</ele><time>2026-05-03T12:34:31.999Z</time></trkpt><trkpt lat="42.51356853082318" lon="14.141602612574992"><ele>6.0</ele><time>2026-05-03T12:34:32.999Z</time></trkpt><trkpt lat="42.513663714681634" lon="14.141664832585334"><ele>6.0</ele><time>2026-05-03T12:34:33.999Z</time></trkpt><trkpt lat="42.51375014582542" lon="14.141727676538395"><ele>6.0</ele><time>2026-05-03T12:34:34.999Z</time></trkpt><trkpt lat="42.513828152554666" lon="14.141783509424522"><ele>6.0</ele><time>2026-05-03T12:34:35.999Z</time></trkpt><trkpt lat="42.513902957550904" lon="14.141839143305798"><ele>6.0</ele><time>2026-05-03T12:34:36.999Z</time></trkpt><trkpt lat="42.51397481678869" lon="14.14189171937613"><ele>5.5</ele><time>2026-05-03T12:34:37.999Z</time></trkpt><trkpt lat="42.51404598108062" lon="14.141946380945662"><ele>5.0</ele><time>2026-05-03T12:34:38.999Z</time></trkpt><trkpt lat="42.51411482354983" lon="14.142002197175907"><ele>4.5</ele><time>2026-05-03T12:34:39.999Z</time></trkpt><trkpt lat="42.51417344696357" lon="14.14206348270731"><ele>4.0</ele><time>2026-05-03T12:34:40.999Z</time></trkpt><trkpt lat="42.514223275443996" lon="14.142135404357132"><ele>3.5</ele><time>2026-05-03T12:34:41.999Z</time></trkpt><trkpt lat="42.514261169927686" lon="14.14222323509595"><ele>3.0</ele><time>2026-05-03T12:34:42.999Z</time></trkpt><trkpt lat="42.51428811400632" lon="14.142330399052025"><ele>2.8333333333333335</ele><time>2026-05-03T12:34:43.999Z</time></trkpt><trkpt lat="42.51431553879797" lon="14.142426698238394"><ele>2.6666666666666665</ele><time>2026-05-03T12:34:44.999Z</time></trkpt><trkpt lat="42.51434736903886" lon="14.142507154696421"><ele>2.5</ele><time>2026-05-03T12:34:45.999Z</time></trkpt><trkpt lat="42.51443564250624" lon="14.142521779915343"><ele>2.333333333333333</ele><time>2026-05-03T12:34:46.999Z</time></trkpt><trkpt lat="42.51450899049768" lon="14.142501561928706"><ele>2.1666666666666665</ele><time>2026-05-03T12:34:47.999Z</time></trkpt><trkpt lat="42.51457545284571" lon="14.142450864825935"><ele>2.0</ele><time>2026-05-03T12:34:48.999Z</time></trkpt><trkpt lat="42.514645979278065" lon="14.142417294398856"><ele>2.0</ele><time>2026-05-03T12:34:49.999Z</time></trkpt><trkpt lat="42.514714881494314" lon="14.14242789058205"><ele>2.0</ele><time>2026-05-03T12:34:50.999Z</time></trkpt><trkpt lat="42.51478929088961" lon="14.142477774833564"><ele>2.0</ele><time>2026-05-03T12:34:51.999Z</time></trkpt><trkpt lat="42.51487457510043" lon="14.142551422012206"><ele>2.0</ele><time>2026-05-03T12:34:52.999Z</time></trkpt><trkpt lat="42.514967777798134" lon="14.142628635322104"><ele>2.0</ele><time>2026-05-03T12:34:53.999Z</time></trkpt><trkpt lat="42.51507140355458" lon="14.142704976373064"><ele>2.0</ele><time>2026-05-03T12:34:54.999Z</time></trkpt><trkpt lat="42.51517388884041" lon="14.142769047131562"><ele>2.0</ele><time>2026-05-03T12:34:55.999Z</time></trkpt><trkpt lat="42.51526097280395" lon="14.142828723591922"><ele>2.0</ele><time>2026-05-03T12:34:56.999Z</time></trkpt><trkpt lat="42.51534338751094" lon="14.142907664535254"><ele>2.0</ele><time>2026-05-03T12:34:57.999Z</time></trkpt><trkpt lat="42.515436443241484" lon="14.142967710639125"><ele>2.0</ele><time>2026-05-03T12:34:58.999Z</time></trkpt><trkpt lat="42.51553700372722" lon="14.14302941283709"><ele>2.25</ele><time>2026-05-03T12:34:59.999Z</time></trkpt><trkpt lat="42.51563514167782" lon="14.143112173515256"><ele>2.5</ele><time>2026-05-03T12:35:00.999Z</time></trkpt><trkpt lat="42.515733321808746" lon="14.14318388554848"><ele>2.75</ele><time>2026-05-03T12:35:01.999Z</time></trkpt><trkpt lat="42.515844155402625" lon="14.14325775625268"><ele>3.0</ele><time>2026-05-03T12:35:02.999Z</time></trkpt><trkpt lat="42.51595583201529" lon="14.14333787507394"><ele>3.25</ele><time>2026-05-03T12:35:03.999Z</time></trkpt><trkpt lat="42.516066539498084" lon="14.143419891210998"><ele>3.5</ele><time>2026-05-03T12:35:04.999Z</time></trkpt><trkpt lat="42.516171034865955" lon="14.143497955383308"><ele>3.75</ele><time>2026-05-03T12:35:05.999Z</time></trkpt><trkpt lat="42.516271167588" lon="14.143573564971481"><ele>4.0</ele><time>2026-05-03T12:35:06.999Z</time></trkpt><trkpt lat="42.516368720441" lon="14.143646994841896"><ele>4.5</ele><time>2026-05-03T12:35:07.999Z</time></trkpt><trkpt lat="42.516467483038355" lon="14.143717712362273"><ele>5.0</ele><time>2026-05-03T12:35:08.999Z</time></trkpt><trkpt lat="42.51657114454069" lon="14.143789225105111"><ele>5.5</ele><time>2026-05-03T12:35:09.999Z</time></trkpt><trkpt lat="42.51667567029911" lon="14.143865815681776"><ele>6.0</ele><time>2026-05-03T12:35:10.999Z</time></trkpt><trkpt lat="42.51677965276093" lon="14.143943195545674"><ele>6.0</ele><time>2026-05-03T12:35:11.999Z</time></trkpt><trkpt lat="42.51688600469858" lon="14.144020227800848"><ele>6.0</ele><time>2026-05-03T12:35:12.999Z</time></trkpt><trkpt lat="42.516992338514505" lon="14.144093034813041"><ele>6.0</ele><time>2026-05-03T12:35:13.999Z</time></trkpt><trkpt lat="42.51710082716724" lon="14.144167078340152"><ele>6.0</ele><time>2026-05-03T12:35:14.999Z</time></trkpt><trkpt lat="42.51721016640094" lon="14.144245067608718"><ele>5.25</ele><time>2026-05-03T12:35:15.999Z</time></trkpt><trkpt lat="42.517318704713176" lon="14.14432278377032"><ele>4.5</ele><time>2026-05-03T12:35:16.999Z</time></trkpt><trkpt lat="42.517424467269045" lon="14.144404464081102"><ele>3.75</ele><time>2026-05-03T12:35:17.999Z</time></trkpt><trkpt lat="42.51753156405442" lon="14.144481997179502"><ele>3.0</ele><time>2026-05-03T12:35:18.999Z</time></trkpt><trkpt lat="42.51763996894293" lon="14.144559373194086"><ele>3.0</ele><time>2026-05-03T12:35:19.999Z</time></trkpt><trkpt lat="42.51774715032315" lon="14.144639349754081"><ele>3.0</ele><time>2026-05-03T12:35:20.999Z</time></trkpt><trkpt lat="42.51785950946551" lon="14.144713371629203"><ele>3.0</ele><time>2026-05-03T12:35:21.999Z</time></trkpt><trkpt lat="42.51796840126059" lon="14.14479422449813"><ele>3.0</ele><time>2026-05-03T12:35:22.999Z</time></trkpt><trkpt lat="42.51808225643357" lon="14.14487151445023"><ele>3.0</ele><time>2026-05-03T12:35:23.999Z</time></trkpt><trkpt lat="42.51819526560884" lon="14.144953554523502"><ele>3.0</ele><time>2026-05-03T12:35:24.999Z</time></trkpt><trkpt lat="42.518309174240386" lon="14.145034985120681"><ele>3.0</ele><time>2026-05-03T12:35:25.999Z</time></trkpt><trkpt lat="42.51842433599688" lon="14.145116689395385"><ele>3.0</ele><time>2026-05-03T12:35:26.999Z</time></trkpt><trkpt lat="42.51854014709394" lon="14.145195386588165"><ele>3.0</ele><time>2026-05-03T12:35:27.999Z</time></trkpt><trkpt lat="42.518656662976625" lon="14.145279724967233"><ele>3.0</ele><time>2026-05-03T12:35:28.999Z</time></trkpt><trkpt lat="42.51877334173085" lon="14.145362871544354"><ele>3.0</ele><time>2026-05-03T12:35:29.999Z</time></trkpt><trkpt lat="42.51888600925538" lon="14.145438453834432"><ele>3.0</ele><time>2026-05-03T12:35:30.999Z</time></trkpt><trkpt lat="42.51899355844748" lon="14.145515596855505"><ele>3.0</ele><time>2026-05-03T12:35:31.999Z</time></trkpt><trkpt lat="42.519097338891804" lon="14.145589043287671"><ele>3.0</ele><time>2026-05-03T12:35:32.999Z</time></trkpt><trkpt lat="42.51919413739513" lon="14.145658448322152"><ele>3.0</ele><time>2026-05-03T12:35:33.999Z</time></trkpt><trkpt lat="42.51928293653408" lon="14.145718937394959"><ele>3.0</ele><time>2026-05-03T12:35:34.999Z</time></trkpt><trkpt lat="42.51936330963757" lon="14.145774646851606"><ele>3.0</ele><time>2026-05-03T12:35:35.999Z</time></trkpt><trkpt lat="42.519423193175136" lon="14.145825404999728"><ele>3.0</ele><time>2026-05-03T12:35:36.999Z</time></trkpt><trkpt lat="42.5194763699781" lon="14.145873716728007"><ele>3.0</ele><time>2026-05-03T12:35:37.999Z</time></trkpt><trkpt lat="42.519549936783044" lon="14.145995050371003"><ele>3.0</ele><time>2026-05-03T12:35:39.999Z</time></trkpt><trkpt lat="42.51957683698389" lon="14.146134929173824"><ele>3.0</ele><time>2026-05-03T12:35:41.999Z</time></trkpt><trkpt lat="42.519546122037234" lon="14.14621590411998"><ele>3.0</ele><time>2026-05-03T12:35:42.999Z</time></trkpt><trkpt lat="42.51949199087406" lon="14.146285830735135"><ele>3.0</ele><time>2026-05-03T12:35:43.999Z</time></trkpt><trkpt lat="42.519429967414084" lon="14.146353959750689"><ele>3.0</ele><time>2026-05-03T12:35:44.999Z</time></trkpt><trkpt lat="42.51937451954683" lon="14.146435342812394"><ele>3.0</ele><time>2026-05-03T12:35:45.999Z</time></trkpt><trkpt lat="42.51931758260423" lon="14.146523766620398"><ele>3.0</ele><time>2026-05-03T12:35:46.999Z</time></trkpt><trkpt lat="42.519256218410014" lon="14.146608916369898"><ele>3.0</ele><time>2026-05-03T12:35:47.999Z</time></trkpt><trkpt lat="42.51919760756436" lon="14.146675401345277"><ele>3.0</ele><time>2026-05-03T12:35:48.999Z</time></trkpt><trkpt lat="42.51911531837477" lon="14.146752543244567"><ele>3.0</ele><time>2026-05-03T12:35:50.999Z</time></trkpt><trkpt lat="42.51904549514031" lon="14.146836893843112"><ele>3.0</ele><time>2026-05-03T12:35:52.999Z</time></trkpt><trkpt lat="42.519064760674546" lon="14.14702032366977"><ele>3.0</ele><time>2026-05-03T12:35:54.999Z</time></trkpt><trkpt lat="42.519104803039625" lon="14.147145428239602"><ele>3.0</ele><time>2026-05-03T12:35:56.998Z</time></trkpt><trkpt lat="42.51920718933975" lon="14.147247947153307"><ele>3.0</ele><time>2026-05-03T12:35:58.998Z</time></trkpt><trkpt lat="42.51927491273772" lon="14.14725669200997"><ele>3.0</ele><time>2026-05-03T12:35:59.998Z</time></trkpt><trkpt lat="42.51943521744109" lon="14.147332044900473"><ele>3.0</ele><time>2026-05-03T12:36:01.998Z</time></trkpt><trkpt lat="42.519519244459865" lon="14.147426414622085"><ele>3.0</ele><time>2026-05-03T12:36:02.998Z</time></trkpt><trkpt lat="42.51958028575165" lon="14.147536197414132"><ele>3.0</ele><time>2026-05-03T12:36:03.998Z</time></trkpt><trkpt lat="42.519650589217925" lon="14.147660870049098"><ele>3.0</ele><time>2026-05-03T12:36:04.999Z</time></trkpt><trkpt lat="42.519723429043054" lon="14.147779678991828"><ele>3.0</ele><time>2026-05-03T12:36:05.999Z</time></trkpt><trkpt lat="42.51980582162516" lon="14.147916918064267"><ele>2.75</ele><time>2026-05-03T12:36:06.999Z</time></trkpt><trkpt lat="42.519884764385914" lon="14.148049123292129"><ele>2.5</ele><time>2026-05-03T12:36:07.999Z</time></trkpt><trkpt lat="42.51995383539492" lon="14.148180104715221"><ele>2.25</ele><time>2026-05-03T12:36:08.999Z</time></trkpt><trkpt lat="42.52001649278503" lon="14.148334998315022"><ele>2.0</ele><time>2026-05-03T12:36:09.999Z</time></trkpt><trkpt lat="42.52006751771777" lon="14.14849535456336"><ele>2.0</ele><time>2026-05-03T12:36:10.999Z</time></trkpt><trkpt lat="42.5201213575709" lon="14.148646578524582"><ele>2.0</ele><time>2026-05-03T12:36:11.999Z</time></trkpt><trkpt lat="42.52017431709464" lon="14.14880097665341"><ele>2.0</ele><time>2026-05-03T12:36:12.999Z</time></trkpt><trkpt lat="42.52022961319616" lon="14.148956766102728"><ele>2.0</ele><time>2026-05-03T12:36:13.999Z</time></trkpt><trkpt lat="42.52028093211051" lon="14.149107170381727"><ele>2.0</ele><time>2026-05-03T12:36:14.999Z</time></trkpt><trkpt lat="42.52032746479954" lon="14.149257837818487"><ele>2.0</ele><time>2026-05-03T12:36:15.999Z</time></trkpt><trkpt lat="42.5203738773028" lon="14.149410171374553"><ele>2.0</ele><time>2026-05-03T12:36:16.999Z</time></trkpt><trkpt lat="42.520423552447426" lon="14.149556816584969"><ele>2.0</ele><time>2026-05-03T12:36:17.999Z</time></trkpt><trkpt lat="42.520475078626056" lon="14.14970260549869"><ele>2.0</ele><time>2026-05-03T12:36:18.999Z</time></trkpt><trkpt lat="42.520528178436734" lon="14.1498511377696"><ele>2.0</ele><time>2026-05-03T12:36:19.999Z</time></trkpt><trkpt lat="42.520580985315725" lon="14.14998627646956"><ele>2.0</ele><time>2026-05-03T12:36:20.999Z</time></trkpt><trkpt lat="42.520624947247136" lon="14.150114454265736"><ele>2.0</ele><time>2026-05-03T12:36:21.999Z</time></trkpt><trkpt lat="42.5206692139144" lon="14.150240002975783"><ele>2.0</ele><time>2026-05-03T12:36:22.999Z</time></trkpt><trkpt lat="42.52070741010397" lon="14.150361868603229"><ele>2.0</ele><time>2026-05-03T12:36:23.999Z</time></trkpt><trkpt lat="42.520742019567415" lon="14.15046288972911"><ele>2.0</ele><time>2026-05-03T12:36:24.999Z</time></trkpt><trkpt lat="42.520798884853676" lon="14.150625229891931"><ele>2.0</ele><time>2026-05-03T12:36:26.999Z</time></trkpt><trkpt lat="42.52083541733224" lon="14.1507413172077"><ele>2.0</ele><time>2026-05-03T12:36:27.999Z</time></trkpt><trkpt lat="42.520885375906644" lon="14.150890005144417"><ele>2.0</ele><time>2026-05-03T12:36:28.999Z</time></trkpt><trkpt lat="42.52093610992616" lon="14.151033501408698"><ele>2.0</ele><time>2026-05-03T12:36:29.999Z</time></trkpt><trkpt lat="42.52099112259546" lon="14.151188676438547"><ele>2.0</ele><time>2026-05-03T12:36:30.999Z</time></trkpt><trkpt lat="42.521048793814245" lon="14.151347050827463"><ele>2.0</ele><time>2026-05-03T12:36:31.999Z</time></trkpt><trkpt lat="42.52109699157356" lon="14.151513353855076"><ele>2.0</ele><time>2026-05-03T12:36:32.999Z</time></trkpt><trkpt lat="42.52115432567127" lon="14.151674295472516"><ele>2.0</ele><time>2026-05-03T12:36:33.999Z</time></trkpt><trkpt lat="42.52121659580946" lon="14.151842377596834"><ele>2.0</ele><time>2026-05-03T12:36:34.999Z</time></trkpt><trkpt lat="42.52127477080369" lon="14.152007741918503"><ele>2.0</ele><time>2026-05-03T12:36:35.999Z</time></trkpt><trkpt lat="42.52133053680178" lon="14.15216732506995"><ele>2.0</ele><time>2026-05-03T12:36:36.999Z</time></trkpt><trkpt lat="42.52138539153242" lon="14.152327005074604"><ele>1.25</ele><time>2026-05-03T12:36:37.999Z</time></trkpt><trkpt lat="42.52144450600774" lon="14.152485883657441"><ele>0.5</ele><time>2026-05-03T12:36:38.999Z</time></trkpt><trkpt lat="42.52150160164193" lon="14.152652871338784"><ele>-0.25</ele><time>2026-05-03T12:36:39.999Z</time></trkpt><trkpt lat="42.52156198542947" lon="14.152818937405046"><ele>-1.0</ele><time>2026-05-03T12:36:40.999Z</time></trkpt><trkpt lat="42.521619263467144" lon="14.152983354120797"><ele>-1.0</ele><time>2026-05-03T12:36:41.999Z</time></trkpt><trkpt lat="42.521673463320056" lon="14.153143377979022"><ele>-1.0</ele><time>2026-05-03T12:36:42.999Z</time></trkpt><trkpt lat="42.521716765394736" lon="14.153280500723014"><ele>-1.0</ele><time>2026-05-03T12:36:43.999Z</time></trkpt><trkpt lat="42.52175818721035" lon="14.153401142561776"><ele>-1.0</ele><time>2026-05-03T12:36:44.999Z</time></trkpt><trkpt lat="42.52179217713334" lon="14.153506592714393"><ele>-1.0</ele><time>2026-05-03T12:36:45.999Z</time></trkpt><trkpt lat="42.521825311443706" lon="14.153590926309993"><ele>-0.8333333333333333</ele><time>2026-05-03T12:36:46.999Z</time></trkpt><trkpt lat="42.52187734888238" lon="14.153703627117252"><ele>-0.6666666666666666</ele><time>2026-05-03T12:36:48.999Z</time></trkpt><trkpt lat="42.52197333285434" lon="14.153695074268489"><ele>-0.5</ele><time>2026-05-03T12:36:50.999Z</time></trkpt><trkpt lat="42.52202098692528" lon="14.153633929279922"><ele>-0.3333333333333333</ele><time>2026-05-03T12:36:51.999Z</time></trkpt><trkpt lat="42.522076894644044" lon="14.153572553259442"><ele>-0.16666666666666666</ele><time>2026-05-03T12:36:52.999Z</time></trkpt><trkpt lat="42.52214284795138" lon="14.1535224194301"><ele>0.0</ele><time>2026-05-03T12:36:53.999Z</time></trkpt><trkpt lat="42.52224076352086" lon="14.15344247718368"><ele>0.5</ele><time>2026-05-03T12:36:55.999Z</time></trkpt><trkpt lat="42.522291942030186" lon="14.153386113870457"><ele>1.0</ele><time>2026-05-03T12:36:57.999Z</time></trkpt><trkpt lat="42.52228340295266" lon="14.153226341035209"><ele>1.5</ele><time>2026-05-03T12:37:00.999Z</time></trkpt><trkpt lat="42.5223764245867" lon="14.153133303432671"><ele>2.0</ele><time>2026-05-03T12:37:04.999Z</time></trkpt><trkpt lat="42.52235967862093" lon="14.152924234208369"><ele>2.0</ele><time>2026-05-03T12:37:07.999Z</time></trkpt><trkpt lat="42.522318624250666" lon="14.15283313787929"><ele>1.9999999999999998</ele><time>2026-05-03T12:37:09.999Z</time></trkpt><trkpt lat="42.5222801400703" lon="14.152757224487543"><ele>2.0</ele><time>2026-05-03T12:37:13.999Z</time></trkpt><trkpt lat="42.52223904500129" lon="14.152656557983317"><ele>2.0</ele><time>2026-05-03T12:37:25.999Z</time></trkpt><trkpt lat="42.52219760115723" lon="14.152564597405222"><ele>1.9999999999999998</ele><time>2026-05-03T12:37:27.999Z</time></trkpt><trkpt lat="42.52214923178473" lon="14.152498291036904"><ele>2.0</ele><time>2026-05-03T12:37:29.999Z</time></trkpt><trkpt lat="42.52211752848326" lon="14.1524237614766"><ele>2.0</ele><time>2026-05-03T12:37:31.999Z</time></trkpt><trkpt lat="42.522085687475034" lon="14.152316270099952"><ele>1.5</ele><time>2026-05-03T12:37:33.999Z</time></trkpt><trkpt lat="42.522037362209986" lon="14.152209040221743"><ele>1.0</ele><time>2026-05-03T12:37:35.999Z</time></trkpt><trkpt lat="42.52197728503215" lon="14.152075733710795"><ele>0.5</ele><time>2026-05-03T12:37:37.999Z</time></trkpt><trkpt lat="42.52192212798069" lon="14.151953344757686"><ele>0.0</ele><time>2026-05-03T12:37:39.999Z</time></trkpt><trkpt lat="42.52177441716388" lon="14.152036497342028"><ele>0.0</ele><time>2026-05-03T12:37:41.999Z</time></trkpt><trkpt lat="42.521769316508795" lon="14.15219658945336"><ele>0.0</ele><time>2026-05-03T12:37:43.999Z</time></trkpt><trkpt lat="42.52181627771981" lon="14.152305609539933"><ele>0.0</ele><time>2026-05-03T12:37:45.999Z</time></trkpt><trkpt lat="42.52186544908471" lon="14.152404222691015"><ele>0.0</ele><time>2026-05-03T12:37:47.999Z</time></trkpt><trkpt lat="42.52190678602437" lon="14.152477022037251"><ele>0.0</ele><time>2026-05-03T12:37:49.999Z</time></trkpt><trkpt lat="42.521962034388785" lon="14.152558288594271"><ele>0.0</ele><time>2026-05-03T12:37:51.999Z</time></trkpt><trkpt lat="42.52201466481677" lon="14.152676971159291"><ele>0.3333333333333333</ele><time>2026-05-03T12:37:53.999Z</time></trkpt><trkpt lat="42.522082220866594" lon="14.152810233091321"><ele>0.6666666666666666</ele><time>2026-05-03T12:37:55.999Z</time></trkpt><trkpt lat="42.52211129823473" lon="14.152889777738801"><ele>1.0</ele><time>2026-05-03T12:37:56.999Z</time></trkpt><trkpt lat="42.52214756736702" lon="14.152966291907543"><ele>1.3333333333333333</ele><time>2026-05-03T12:37:57.999Z</time></trkpt><trkpt lat="42.52218225765104" lon="14.153040810483185"><ele>1.6666666666666665</ele><time>2026-05-03T12:37:58.999Z</time></trkpt><trkpt lat="42.52223955784525" lon="14.153159035987365"><ele>2.0</ele><time>2026-05-03T12:38:00.999Z</time></trkpt><trkpt lat="42.5222782354186" lon="14.15323164573375"><ele>2.0</ele><time>2026-05-03T12:38:02.999Z</time></trkpt><trkpt lat="42.52230609309835" lon="14.153323897514532"><ele>2.0</ele><time>2026-05-03T12:38:05.999Z</time></trkpt><trkpt lat="42.52241461984969" lon="14.153286139098265"><ele>2.0</ele><time>2026-05-03T12:38:07.999Z</time></trkpt><trkpt lat="42.5225166760369" lon="14.153203502129333"><ele>2.0</ele><time>2026-05-03T12:38:09.999Z</time></trkpt><trkpt lat="42.522613456117355" lon="14.153121980457474"><ele>2.0</ele><time>2026-05-03T12:38:11.999Z</time></trkpt><trkpt lat="42.522692015892005" lon="14.153055357434386"><ele>2.0</ele><time>2026-05-03T12:38:13.999Z</time></trkpt><trkpt lat="42.522764095037324" lon="14.153016096207091"><ele>2.0</ele><time>2026-05-03T12:38:27.999Z</time></trkpt><trkpt lat="42.52283046274734" lon="14.153167436276279"><ele>2.0</ele><time>2026-05-03T12:38:31.999Z</time></trkpt><trkpt lat="42.5226732955238" lon="14.153245683827038"><ele>2.0</ele><time>2026-05-03T12:38:32.999Z</time></trkpt><trkpt lat="42.522612242298024" lon="14.153297611380301"><ele>2.0</ele><time>2026-05-03T12:38:33.999Z</time></trkpt><trkpt lat="42.52255400251915" lon="14.153347145913214"><ele>1.9999999999999998</ele><time>2026-05-03T12:38:34.999Z</time></trkpt><trkpt lat="42.52247624485889" lon="14.153413280931158"><ele>2.0</ele><time>2026-05-03T12:38:36.999Z</time></trkpt><trkpt lat="42.52241985109687" lon="14.153361048527545"><ele>2.0</ele><time>2026-05-03T12:38:40.999Z</time></trkpt><trkpt lat="42.52247120613606" lon="14.153293525910726"><ele>2.0</ele><time>2026-05-03T12:38:42.999Z</time></trkpt><trkpt lat="42.52255026290578" lon="14.153246026169914"><ele>1.9999999999999998</ele><time>2026-05-03T12:38:44.999Z</time></trkpt><trkpt lat="42.522623628662245" lon="14.15319012191532"><ele>2.0</ele><time>2026-05-03T12:38:46.999Z</time></trkpt><trkpt lat="42.522684890824955" lon="14.153123430000093"><ele>2.0</ele><time>2026-05-03T12:38:49.999Z</time></trkpt></trkseg></trk></gpx>